﻿_id	name	latitude	longitude	organization	date_type	date	time_start	time_end	speed	density	volume	capacity	v/c
1	PER-14-001 38 - พุทธมณฑลสาย 4 - นครชัยศรี	13.777329	100.2234	doh	working	2022-05-09T00:00:00	5:00:00	6:00:00	129	30	475	2700	0.18
2	PER-14-001 38 - พุทธมณฑลสาย 4 - นครชัยศรี	13.777329	100.2234	doh	working	2022-05-09T00:00:00	6:00:00	7:00:00	90	96	1514	2700	0.56
3	PER-14-001 38 - พุทธมณฑลสาย 4 - นครชัยศรี	13.777329	100.2234	doh	working	2022-05-09T00:00:00	7:00:00	8:00:00	72	53	3283	2700	1.22
4	PER-14-001 38 - พุทธมณฑลสาย 4 - นครชัยศรี	13.777329	100.2234	doh	working	2022-05-09T00:00:00	8:00:00	9:00:00	76	78	2392	2700	0.89
5	PER-14-001 38 - พุทธมณฑลสาย 4 - นครชัยศรี	13.777329	100.2234	doh	working	2022-05-09T00:00:00	9:00:00	10:00:00	71	73	2320	2700	0.86
6	PER-14-001 38 - พุทธมณฑลสาย 4 - นครชัยศรี	13.777329	100.2234	doh	working	2022-05-09T00:00:00	10:00:00	11:00:00	74	75	2283	2700	0.85
7	PER-14-001 38 - พุทธมณฑลสาย 4 - นครชัยศรี	13.777329	100.2234	doh	working	2022-05-09T00:00:00	11:00:00	12:00:00	83	82	4004	2700	1.48
8	PER-14-001 38 - พุทธมณฑลสาย 4 - นครชัยศรี	13.777329	100.2234	doh	working	2022-05-09T00:00:00	12:00:00	13:00:00	68	95	3814	2700	1.41
9	PER-14-001 38 - พุทธมณฑลสาย 4 - นครชัยศรี	13.777329	100.2234	doh	working	2022-05-09T00:00:00	13:00:00	14:00:00	71	73	2321	2700	0.86
10	PER-14-001 38 - พุทธมณฑลสาย 4 - นครชัยศรี	13.777329	100.2234	doh	working	2022-05-09T00:00:00	14:00:00	15:00:00	75	73	2316	2700	0.86
11	PER-14-001 38 - พุทธมณฑลสาย 4 - นครชัยศรี	13.777329	100.2234	doh	working	2022-05-09T00:00:00	15:00:00	16:00:00	73	74	2241	2700	0.83
12	PER-14-001 38 - พุทธมณฑลสาย 4 - นครชัยศรี	13.777329	100.2234	doh	working	2022-05-09T00:00:00	16:00:00	17:00:00	77	94	3684	2700	1.36
13	PER-14-001 38 - พุทธมณฑลสาย 4 - นครชัยศรี	13.777329	100.2234	doh	working	2022-05-09T00:00:00	17:00:00	18:00:00	74	61	3885	2700	1.44
14	PER-14-001 38 - พุทธมณฑลสาย 4 - นครชัยศรี	13.777329	100.2234	doh	working	2022-05-09T00:00:00	18:00:00	19:00:00	68	34	1852	2700	0.69
15	PER-14-001 38 - พุทธมณฑลสาย 4 - นครชัยศรี	13.777329	100.2234	doh	working	2022-06-09T00:00:00	5:00:00	6:00:00	110	16	505	2700	0.19
16	PER-14-001 38 - พุทธมณฑลสาย 4 - นครชัยศรี	13.777329	100.2234	doh	working	2022-06-09T00:00:00	6:00:00	7:00:00	78	53	1628	2700	0.60
17	PER-14-001 38 - พุทธมณฑลสาย 4 - นครชัยศรี	13.777329	100.2234	doh	working	2022-06-09T00:00:00	7:00:00	8:00:00	76	55	2064	2700	0.76
18	PER-14-001 38 - พุทธมณฑลสาย 4 - นครชัยศรี	13.777329	100.2234	doh	working	2022-06-09T00:00:00	8:00:00	9:00:00	81	71	2235	2700	0.83
19	PER-14-001 38 - พุทธมณฑลสาย 4 - นครชัยศรี	13.777329	100.2234	doh	working	2022-06-09T00:00:00	9:00:00	10:00:00	80	67	2196	2700	0.81
20	PER-14-001 38 - พุทธมณฑลสาย 4 - นครชัยศรี	13.777329	100.2234	doh	working	2022-06-09T00:00:00	10:00:00	11:00:00	79	69	2124	2700	0.79
21	PER-14-001 38 - พุทธมณฑลสาย 4 - นครชัยศรี	13.777329	100.2234	doh	working	2022-06-09T00:00:00	11:00:00	12:00:00	70	78	2464	2700	0.91
22	PER-14-001 38 - พุทธมณฑลสาย 4 - นครชัยศรี	13.777329	100.2234	doh	working	2022-06-09T00:00:00	12:00:00	13:00:00	68	111	3636	2700	1.35
23	PER-14-001 38 - พุทธมณฑลสาย 4 - นครชัยศรี	13.777329	100.2234	doh	working	2022-06-09T00:00:00	13:00:00	14:00:00	78	69	2191	2700	0.81
24	PER-14-001 38 - พุทธมณฑลสาย 4 - นครชัยศรี	13.777329	100.2234	doh	working	2022-06-09T00:00:00	14:00:00	15:00:00	81	67	2169	2700	0.80
25	PER-14-001 38 - พุทธมณฑลสาย 4 - นครชัยศรี	13.777329	100.2234	doh	working	2022-06-09T00:00:00	15:00:00	16:00:00	77	68	2223	2700	0.82
26	PER-14-001 38 - พุทธมณฑลสาย 4 - นครชัยศรี	13.777329	100.2234	doh	working	2022-06-09T00:00:00	16:00:00	17:00:00	59	77	2951	2700	1.09
27	PER-14-001 38 - พุทธมณฑลสาย 4 - นครชัยศรี	13.777329	100.2234	doh	working	2022-06-09T00:00:00	17:00:00	18:00:00	69	100	3300	2700	1.22
28	PER-14-001 38 - พุทธมณฑลสาย 4 - นครชัยศรี	13.777329	100.2234	doh	working	2022-06-09T00:00:00	18:00:00	19:00:00	59	46	2033	2700	0.75
29	PER-14-001 38 - พุทธมณฑลสาย 4 - นครชัยศรี	13.777329	100.2234	doh	working	2022-07-09T00:00:00	5:00:00	6:00:00	94	25	764	2700	0.28
30	PER-14-001 38 - พุทธมณฑลสาย 4 - นครชัยศรี	13.777329	100.2234	doh	working	2022-07-09T00:00:00	6:00:00	7:00:00	65	72	2234	2700	0.83
31	PER-14-001 38 - พุทธมณฑลสาย 4 - นครชัยศรี	13.777329	100.2234	doh	working	2022-07-09T00:00:00	7:00:00	8:00:00	69	74	3087	2700	1.14
32	PER-14-001 38 - พุทธมณฑลสาย 4 - นครชัยศรี	13.777329	100.2234	doh	working	2022-07-09T00:00:00	8:00:00	9:00:00	75	83	2771	2700	1.03
33	PER-14-001 38 - พุทธมณฑลสาย 4 - นครชัยศรี	13.777329	100.2234	doh	working	2022-07-09T00:00:00	9:00:00	10:00:00	71	79	2687	2700	1.00
34	PER-14-001 38 - พุทธมณฑลสาย 4 - นครชัยศรี	13.777329	100.2234	doh	working	2022-07-09T00:00:00	10:00:00	11:00:00	74	78	2760	2700	1.02
35	PER-14-001 38 - พุทธมณฑลสาย 4 - นครชัยศรี	13.777329	100.2234	doh	working	2022-07-09T00:00:00	11:00:00	12:00:00	87	107	2378	2700	0.88
36	PER-14-001 38 - พุทธมณฑลสาย 4 - นครชัยศรี	13.777329	100.2234	doh	working	2022-07-09T00:00:00	12:00:00	13:00:00	72	82	2194	2700	0.81
37	PER-14-001 38 - พุทธมณฑลสาย 4 - นครชัยศรี	13.777329	100.2234	doh	working	2022-07-09T00:00:00	13:00:00	14:00:00	71	78	2680	2700	0.99
38	PER-14-001 38 - พุทธมณฑลสาย 4 - นครชัยศรี	13.777329	100.2234	doh	working	2022-07-09T00:00:00	14:00:00	15:00:00	71	81	2709	2700	1.00
39	PER-14-001 38 - พุทธมณฑลสาย 4 - นครชัยศรี	13.777329	100.2234	doh	working	2022-07-09T00:00:00	15:00:00	16:00:00	71	80	2708	2700	1.00
40	PER-14-001 38 - พุทธมณฑลสาย 4 - นครชัยศรี	13.777329	100.2234	doh	working	2022-07-09T00:00:00	16:00:00	17:00:00	21	93	919	2700	0.34
41	PER-14-001 38 - พุทธมณฑลสาย 4 - นครชัยศรี	13.777329	100.2234	doh	working	2022-07-09T00:00:00	17:00:00	18:00:00	66	75	2927	2700	1.08
42	PER-14-001 38 - พุทธมณฑลสาย 4 - นครชัยศรี	13.777329	100.2234	doh	working	2022-07-09T00:00:00	18:00:00	19:00:00	69	48	2380	2700	0.88
43	PER-14-001 38 - พุทธมณฑลสาย 4 - นครชัยศรี	13.777329	100.2234	doh	working	2022-08-09T00:00:00	5:00:00	6:00:00	94	16	950	2700	0.35
44	PER-14-001 38 - พุทธมณฑลสาย 4 - นครชัยศรี	13.777329	100.2234	doh	working	2022-08-09T00:00:00	6:00:00	7:00:00	66	51	2928	2700	1.08
45	PER-14-001 38 - พุทธมณฑลสาย 4 - นครชัยศรี	13.777329	100.2234	doh	working	2022-08-09T00:00:00	7:00:00	8:00:00	89	94	2379	2700	0.88
46	PER-14-001 38 - พุทธมณฑลสาย 4 - นครชัยศรี	13.777329	100.2234	doh	working	2022-08-09T00:00:00	8:00:00	9:00:00	80	110	2444	2700	0.91
47	PER-14-001 38 - พุทธมณฑลสาย 4 - นครชัยศรี	13.777329	100.2234	doh	working	2022-08-09T00:00:00	9:00:00	10:00:00	78	106	2361	2700	0.87
48	PER-14-001 38 - พุทธมณฑลสาย 4 - นครชัยศรี	13.777329	100.2234	doh	working	2022-08-09T00:00:00	10:00:00	11:00:00	76	109	2372	2700	0.88
49	PER-14-001 38 - พุทธมณฑลสาย 4 - นครชัยศรี	13.777329	100.2234	doh	working	2022-08-09T00:00:00	11:00:00	12:00:00	75	30	1106	2700	0.41
50	PER-14-001 38 - พุทธมณฑลสาย 4 - นครชัยศรี	13.777329	100.2234	doh	working	2022-08-09T00:00:00	12:00:00	13:00:00	84	59	1465	2700	0.54
51	PER-14-001 38 - พุทธมณฑลสาย 4 - นครชัยศรี	13.777329	100.2234	doh	working	2022-08-09T00:00:00	13:00:00	14:00:00	78	104	2405	2700	0.89
52	PER-14-001 38 - พุทธมณฑลสาย 4 - นครชัยศรี	13.777329	100.2234	doh	working	2022-08-09T00:00:00	14:00:00	15:00:00	78	107	2270	2700	0.84
53	PER-14-001 38 - พุทธมณฑลสาย 4 - นครชัยศรี	13.777329	100.2234	doh	working	2022-08-09T00:00:00	15:00:00	16:00:00	76	104	2253	2700	0.83
54	PER-14-001 38 - พุทธมณฑลสาย 4 - นครชัยศรี	13.777329	100.2234	doh	working	2022-08-09T00:00:00	16:00:00	17:00:00	77	102	2029	2700	0.75
55	PER-14-001 38 - พุทธมณฑลสาย 4 - นครชัยศรี	13.777329	100.2234	doh	working	2022-08-09T00:00:00	17:00:00	18:00:00	49	90	2913	2700	1.08
56	PER-14-001 38 - พุทธมณฑลสาย 4 - นครชัยศรี	13.777329	100.2234	doh	working	2022-08-09T00:00:00	18:00:00	19:00:00	69	119	3358	2700	1.24
57	PER-14-001 38 - พุทธมณฑลสาย 4 - นครชัยศรี	13.777329	100.2234	doh	working	2022-09-09T00:00:00	5:00:00	6:00:00	103	16	515	2700	0.19
58	PER-14-001 38 - พุทธมณฑลสาย 4 - นครชัยศรี	13.777329	100.2234	doh	working	2022-09-09T00:00:00	6:00:00	7:00:00	74	48	1641	2700	0.61
59	PER-14-001 38 - พุทธมณฑลสาย 4 - นครชัยศรี	13.777329	100.2234	doh	working	2022-09-09T00:00:00	7:00:00	8:00:00	74	48	2916	2700	1.08
60	PER-14-001 38 - พุทธมณฑลสาย 4 - นครชัยศรี	13.777329	100.2234	doh	working	2022-09-09T00:00:00	8:00:00	9:00:00	85	106	2443	2700	0.90
61	PER-14-001 38 - พุทธมณฑลสาย 4 - นครชัยศรี	13.777329	100.2234	doh	working	2022-09-09T00:00:00	9:00:00	10:00:00	84	102	2315	2700	0.86
62	PER-14-001 38 - พุทธมณฑลสาย 4 - นครชัยศรี	13.777329	100.2234	doh	working	2022-09-09T00:00:00	10:00:00	11:00:00	83	103	2299	2700	0.85
63	PER-14-001 38 - พุทธมณฑลสาย 4 - นครชัยศรี	13.777329	100.2234	doh	working	2022-09-09T00:00:00	11:00:00	12:00:00	80	123	3503	2700	1.30
64	PER-14-001 38 - พุทธมณฑลสาย 4 - นครชัยศรี	13.777329	100.2234	doh	working	2022-09-09T00:00:00	12:00:00	13:00:00	65	43	2025	2700	0.75
65	PER-14-001 38 - พุทธมณฑลสาย 4 - นครชัยศรี	13.777329	100.2234	doh	working	2022-09-09T00:00:00	13:00:00	14:00:00	81	104	2384	2700	0.88
66	PER-14-001 38 - พุทธมณฑลสาย 4 - นครชัยศรี	13.777329	100.2234	doh	working	2022-09-09T00:00:00	14:00:00	15:00:00	81	101	2319	2700	0.86
67	PER-14-001 38 - พุทธมณฑลสาย 4 - นครชัยศรี	13.777329	100.2234	doh	working	2022-09-09T00:00:00	15:00:00	16:00:00	81	102	2352	2700	0.87
68	PER-14-001 38 - พุทธมณฑลสาย 4 - นครชัยศรี	13.777329	100.2234	doh	working	2022-09-09T00:00:00	16:00:00	17:00:00	63	90	3836	2700	1.42
69	PER-14-001 38 - พุทธมณฑลสาย 4 - นครชัยศรี	13.777329	100.2234	doh	working	2022-09-09T00:00:00	17:00:00	18:00:00	71	122	4026	2700	1.49
70	PER-14-001 38 - พุทธมณฑลสาย 4 - นครชัยศรี	13.777329	100.2234	doh	working	2022-09-09T00:00:00	18:00:00	19:00:00	59	74	3848	2700	1.43
71	PER-12-016 3310 - กระทุ่มล้ม - พุทธมณฑล	13.7644	100.3288	doh	working	2022-05-09T00:00:00	5:00:00	6:00:00	69	37	945	2700	0.35
72	PER-12-016 3310 - กระทุ่มล้ม - พุทธมณฑล	13.7644	100.3288	doh	working	2022-05-09T00:00:00	6:00:00	7:00:00	49	108	3004	2700	1.11
73	PER-12-016 3310 - กระทุ่มล้ม - พุทธมณฑล	13.7644	100.3288	doh	working	2022-05-09T00:00:00	7:00:00	8:00:00	43	202	4660	2700	1.73
74	PER-12-016 3310 - กระทุ่มล้ม - พุทธมณฑล	13.7644	100.3288	doh	working	2022-05-09T00:00:00	8:00:00	9:00:00	36	184	4278	2700	1.58
75	PER-12-016 3310 - กระทุ่มล้ม - พุทธมณฑล	13.7644	100.3288	doh	working	2022-05-09T00:00:00	9:00:00	10:00:00	31	181	4168	2700	1.54
76	PER-12-016 3310 - กระทุ่มล้ม - พุทธมณฑล	13.7644	100.3288	doh	working	2022-05-09T00:00:00	10:00:00	11:00:00	33	181	4225	2700	1.56
77	PER-12-016 3310 - กระทุ่มล้ม - พุทธมณฑล	13.7644	100.3288	doh	working	2022-05-09T00:00:00	11:00:00	12:00:00	35	147	2772	2700	1.03
78	PER-12-016 3310 - กระทุ่มล้ม - พุทธมณฑล	13.7644	100.3288	doh	working	2022-05-09T00:00:00	12:00:00	13:00:00	41	201	5136	2700	1.90
79	PER-12-016 3310 - กระทุ่มล้ม - พุทธมณฑล	13.7644	100.3288	doh	working	2022-05-09T00:00:00	13:00:00	14:00:00	32	180	4139	2700	1.53
80	PER-12-016 3310 - กระทุ่มล้ม - พุทธมณฑล	13.7644	100.3288	doh	working	2022-05-09T00:00:00	14:00:00	15:00:00	35	187	4179	2700	1.55
81	PER-12-016 3310 - กระทุ่มล้ม - พุทธมณฑล	13.7644	100.3288	doh	working	2022-05-09T00:00:00	15:00:00	16:00:00	35	188	4126	2700	1.53
82	PER-12-016 3310 - กระทุ่มล้ม - พุทธมณฑล	13.7644	100.3288	doh	working	2022-05-09T00:00:00	16:00:00	17:00:00	41	85	2955	2700	1.09
83	PER-12-016 3310 - กระทุ่มล้ม - พุทธมณฑล	13.7644	100.3288	doh	working	2022-05-09T00:00:00	17:00:00	18:00:00	44	166	3966	2700	1.47
84	PER-12-016 3310 - กระทุ่มล้ม - พุทธมณฑล	13.7644	100.3288	doh	working	2022-05-09T00:00:00	18:00:00	19:00:00	46	47	1538	2700	0.57
85	PER-12-016 3310 - กระทุ่มล้ม - พุทธมณฑล	13.7644	100.3288	doh	working	2022-06-09T00:00:00	5:00:00	6:00:00	79	47	496	2700	0.18
86	PER-12-016 3310 - กระทุ่มล้ม - พุทธมณฑล	13.7644	100.3288	doh	working	2022-06-09T00:00:00	6:00:00	7:00:00	56	153	1416	2700	0.52
87	PER-12-016 3310 - กระทุ่มล้ม - พุทธมณฑล	13.7644	100.3288	doh	working	2022-06-09T00:00:00	7:00:00	8:00:00	54	142	2510	2700	0.93
88	PER-12-016 3310 - กระทุ่มล้ม - พุทธมณฑล	13.7644	100.3288	doh	working	2022-06-09T00:00:00	8:00:00	9:00:00	40	111	2876	2700	1.07
89	PER-12-016 3310 - กระทุ่มล้ม - พุทธมณฑล	13.7644	100.3288	doh	working	2022-06-09T00:00:00	9:00:00	10:00:00	39	106	2833	2700	1.05
90	PER-12-016 3310 - กระทุ่มล้ม - พุทธมณฑล	13.7644	100.3288	doh	working	2022-06-09T00:00:00	10:00:00	11:00:00	36	110	2867	2700	1.06
91	PER-12-016 3310 - กระทุ่มล้ม - พุทธมณฑล	13.7644	100.3288	doh	working	2022-06-09T00:00:00	11:00:00	12:00:00	37	96	1153	2700	0.43
92	PER-12-016 3310 - กระทุ่มล้ม - พุทธมณฑล	13.7644	100.3288	doh	working	2022-06-09T00:00:00	12:00:00	13:00:00	46	201	3690	2700	1.37
93	PER-12-016 3310 - กระทุ่มล้ม - พุทธมณฑล	13.7644	100.3288	doh	working	2022-06-09T00:00:00	13:00:00	14:00:00	39	108	2747	2700	1.02
94	PER-12-016 3310 - กระทุ่มล้ม - พุทธมณฑล	13.7644	100.3288	doh	working	2022-06-09T00:00:00	14:00:00	15:00:00	35	106	2699	2700	1.00
95	PER-12-016 3310 - กระทุ่มล้ม - พุทธมณฑล	13.7644	100.3288	doh	working	2022-06-09T00:00:00	15:00:00	16:00:00	39	109	2763	2700	1.02
96	PER-12-016 3310 - กระทุ่มล้ม - พุทธมณฑล	13.7644	100.3288	doh	working	2022-06-09T00:00:00	16:00:00	17:00:00	42	86	1902	2700	0.70
97	PER-12-016 3310 - กระทุ่มล้ม - พุทธมณฑล	13.7644	100.3288	doh	working	2022-06-09T00:00:00	17:00:00	18:00:00	43	90	4323	2700	1.60
98	PER-12-016 3310 - กระทุ่มล้ม - พุทธมณฑล	13.7644	100.3288	doh	working	2022-06-09T00:00:00	18:00:00	19:00:00	46	59	2624	2700	0.97
99	PER-12-016 3310 - กระทุ่มล้ม - พุทธมณฑล	13.7644	100.3288	doh	working	2022-07-09T00:00:00	5:00:00	6:00:00	62	31	1437	2700	0.53
100	PER-12-016 3310 - กระทุ่มล้ม - พุทธมณฑล	13.7644	100.3288	doh	working	2022-07-09T00:00:00	6:00:00	7:00:00	43	97	4463	2700	1.65
101	PER-12-016 3310 - กระทุ่มล้ม - พุทธมณฑล	13.7644	100.3288	doh	working	2022-07-09T00:00:00	7:00:00	8:00:00	51	157	3426	2700	1.27
102	PER-12-016 3310 - กระทุ่มล้ม - พุทธมณฑล	13.7644	100.3288	doh	working	2022-07-09T00:00:00	8:00:00	9:00:00	48	202	4632	2700	1.72
103	PER-12-016 3310 - กระทุ่มล้ม - พุทธมณฑล	13.7644	100.3288	doh	working	2022-07-09T00:00:00	9:00:00	10:00:00	44	197	4635	2700	1.72
104	PER-12-016 3310 - กระทุ่มล้ม - พุทธมณฑล	13.7644	100.3288	doh	working	2022-07-09T00:00:00	10:00:00	11:00:00	45	201	4633	2700	1.72
105	PER-12-016 3310 - กระทุ่มล้ม - พุทธมณฑล	13.7644	100.3288	doh	working	2022-07-09T00:00:00	11:00:00	12:00:00	43	177	1311	2700	0.49
106	PER-12-016 3310 - กระทุ่มล้ม - พุทธมณฑล	13.7644	100.3288	doh	working	2022-07-09T00:00:00	12:00:00	13:00:00	54	189	4788	2700	1.77
107	PER-12-016 3310 - กระทุ่มล้ม - พุทธมณฑล	13.7644	100.3288	doh	working	2022-07-09T00:00:00	13:00:00	14:00:00	46	199	4617	2700	1.71
108	PER-12-016 3310 - กระทุ่มล้ม - พุทธมณฑล	13.7644	100.3288	doh	working	2022-07-09T00:00:00	14:00:00	15:00:00	46	200	4491	2700	1.66
109	PER-12-016 3310 - กระทุ่มล้ม - พุทธมณฑล	13.7644	100.3288	doh	working	2022-07-09T00:00:00	15:00:00	16:00:00	43	196	4606	2700	1.71
110	PER-12-016 3310 - กระทุ่มล้ม - พุทธมณฑล	13.7644	100.3288	doh	working	2022-07-09T00:00:00	16:00:00	17:00:00	45	202	2260	2700	0.84
111	PER-12-016 3310 - กระทุ่มล้ม - พุทธมณฑล	13.7644	100.3288	doh	working	2022-07-09T00:00:00	17:00:00	18:00:00	50	63	2061	2700	0.76
112	PER-12-016 3310 - กระทุ่มล้ม - พุทธมณฑล	13.7644	100.3288	doh	working	2022-07-09T00:00:00	18:00:00	19:00:00	41	94	2147	2700	0.80
113	PER-12-016 3310 - กระทุ่มล้ม - พุทธมณฑล	13.7644	100.3288	doh	working	2022-08-09T00:00:00	5:00:00	6:00:00	61	14	443	2700	0.16
114	PER-12-016 3310 - กระทุ่มล้ม - พุทธมณฑล	13.7644	100.3288	doh	working	2022-08-09T00:00:00	6:00:00	7:00:00	43	44	1313	2700	0.49
115	PER-12-016 3310 - กระทุ่มล้ม - พุทธมณฑล	13.7644	100.3288	doh	working	2022-08-09T00:00:00	7:00:00	8:00:00	37	110	5040	2700	1.87
116	PER-12-016 3310 - กระทุ่มล้ม - พุทธมณฑล	13.7644	100.3288	doh	working	2022-08-09T00:00:00	8:00:00	9:00:00	37	145	3734	2700	1.38
117	PER-12-016 3310 - กระทุ่มล้ม - พุทธมณฑล	13.7644	100.3288	doh	working	2022-08-09T00:00:00	9:00:00	10:00:00	34	143	3688	2700	1.37
118	PER-12-016 3310 - กระทุ่มล้ม - พุทธมณฑล	13.7644	100.3288	doh	working	2022-08-09T00:00:00	10:00:00	11:00:00	31	142	3614	2700	1.34
119	PER-12-016 3310 - กระทุ่มล้ม - พุทธมณฑล	13.7644	100.3288	doh	working	2022-08-09T00:00:00	11:00:00	12:00:00	47	99	1893	2700	0.70
120	PER-12-016 3310 - กระทุ่มล้ม - พุทธมณฑล	13.7644	100.3288	doh	working	2022-08-09T00:00:00	12:00:00	13:00:00	41	128	3681	2700	1.36
121	PER-12-016 3310 - กระทุ่มล้ม - พุทธมณฑล	13.7644	100.3288	doh	working	2022-08-09T00:00:00	13:00:00	14:00:00	33	144	3568	2700	1.32
122	PER-12-016 3310 - กระทุ่มล้ม - พุทธมณฑล	13.7644	100.3288	doh	working	2022-08-09T00:00:00	14:00:00	15:00:00	33	138	3608	2700	1.34
123	PER-12-016 3310 - กระทุ่มล้ม - พุทธมณฑล	13.7644	100.3288	doh	working	2022-08-09T00:00:00	15:00:00	16:00:00	32	138	3619	2700	1.34
124	PER-12-016 3310 - กระทุ่มล้ม - พุทธมณฑล	13.7644	100.3288	doh	working	2022-08-09T00:00:00	16:00:00	17:00:00	31	201	3709	2700	1.37
125	PER-12-016 3310 - กระทุ่มล้ม - พุทธมณฑล	13.7644	100.3288	doh	working	2022-08-09T00:00:00	17:00:00	18:00:00	42	120	2853	2700	1.06
126	PER-12-016 3310 - กระทุ่มล้ม - พุทธมณฑล	13.7644	100.3288	doh	working	2022-08-09T00:00:00	18:00:00	19:00:00	36	174	1936	2700	0.72
127	PER-12-016 3310 - กระทุ่มล้ม - พุทธมณฑล	13.7644	100.3288	doh	working	2022-09-09T00:00:00	5:00:00	6:00:00	86	14	593	2700	0.22
128	PER-12-016 3310 - กระทุ่มล้ม - พุทธมณฑล	13.7644	100.3288	doh	working	2022-09-09T00:00:00	6:00:00	7:00:00	60	43	1693	2700	0.63
129	PER-12-016 3310 - กระทุ่มล้ม - พุทธมณฑล	13.7644	100.3288	doh	working	2022-09-09T00:00:00	7:00:00	8:00:00	43	102	2347	2700	0.87
130	PER-12-016 3310 - กระทุ่มล้ม - พุทธมณฑล	13.7644	100.3288	doh	working	2022-09-09T00:00:00	8:00:00	9:00:00	49	175	3968	2700	1.47
131	PER-12-016 3310 - กระทุ่มล้ม - พุทธมณฑล	13.7644	100.3288	doh	working	2022-09-09T00:00:00	9:00:00	10:00:00	47	173	3962	2700	1.47
132	PER-12-016 3310 - กระทุ่มล้ม - พุทธมณฑล	13.7644	100.3288	doh	working	2022-09-09T00:00:00	10:00:00	11:00:00	46	173	3845	2700	1.42
133	PER-12-016 3310 - กระทุ่มล้ม - พุทธมณฑล	13.7644	100.3288	doh	working	2022-09-09T00:00:00	11:00:00	12:00:00	43	202	4974	2700	1.84
134	PER-12-016 3310 - กระทุ่มล้ม - พุทธมณฑล	13.7644	100.3288	doh	working	2022-09-09T00:00:00	12:00:00	13:00:00	56	202	4415	2700	1.64
135	PER-12-016 3310 - กระทุ่มล้ม - พุทธมณฑล	13.7644	100.3288	doh	working	2022-09-09T00:00:00	13:00:00	14:00:00	44	173	3846	2700	1.42
136	PER-12-016 3310 - กระทุ่มล้ม - พุทธมณฑล	13.7644	100.3288	doh	working	2022-09-09T00:00:00	14:00:00	15:00:00	46	178	3881	2700	1.44
137	PER-12-016 3310 - กระทุ่มล้ม - พุทธมณฑล	13.7644	100.3288	doh	working	2022-09-09T00:00:00	15:00:00	16:00:00	47	180	3902	2700	1.45
138	PER-12-016 3310 - กระทุ่มล้ม - พุทธมณฑล	13.7644	100.3288	doh	working	2022-09-09T00:00:00	16:00:00	17:00:00	48	89	3040	2700	1.13
139	PER-12-016 3310 - กระทุ่มล้ม - พุทธมณฑล	13.7644	100.3288	doh	working	2022-09-09T00:00:00	17:00:00	18:00:00	45	83	2934	2700	1.09
140	PER-12-016 3310 - กระทุ่มล้ม - พุทธมณฑล	13.7644	100.3288	doh	working	2022-09-09T00:00:00	18:00:00	19:00:00	51	40	1383	2700	0.51
141	PER-13-031  4 - อ้อมใหญ่ -นครชัยศรี IN	13.71173	100.2645	doh	working	2022-05-09T00:00:00	5:00:00	6:00:00	36	62	821	3600	0.23
142	PER-13-031  4 - อ้อมใหญ่ -นครชัยศรี IN	13.71173	100.2645	doh	working	2022-05-09T00:00:00	6:00:00	7:00:00	26	201	2395	3600	0.67
143	PER-13-031  4 - อ้อมใหญ่ -นครชัยศรี IN	13.71173	100.2645	doh	working	2022-05-09T00:00:00	7:00:00	8:00:00	27	198	3262	3600	0.91
144	PER-13-031  4 - อ้อมใหญ่ -นครชัยศรี IN	13.71173	100.2645	doh	working	2022-05-09T00:00:00	8:00:00	9:00:00	30	187	3916	3600	1.09
145	PER-13-031  4 - อ้อมใหญ่ -นครชัยศรี IN	13.71173	100.2645	doh	working	2022-05-09T00:00:00	9:00:00	10:00:00	27	183	3786	3600	1.05
146	PER-13-031  4 - อ้อมใหญ่ -นครชัยศรี IN	13.71173	100.2645	doh	working	2022-05-09T00:00:00	10:00:00	11:00:00	29	182	3890	3600	1.08
147	PER-13-031  4 - อ้อมใหญ่ -นครชัยศรี IN	13.71173	100.2645	doh	working	2022-05-09T00:00:00	11:00:00	12:00:00	32	193	2157	3600	0.60
148	PER-13-031  4 - อ้อมใหญ่ -นครชัยศรี IN	13.71173	100.2645	doh	working	2022-05-09T00:00:00	12:00:00	13:00:00	30	99	1358	3600	0.38
149	PER-13-031  4 - อ้อมใหญ่ -นครชัยศรี IN	13.71173	100.2645	doh	working	2022-05-09T00:00:00	13:00:00	14:00:00	26	181	3733	3600	1.04
150	PER-13-031  4 - อ้อมใหญ่ -นครชัยศรี IN	13.71173	100.2645	doh	working	2022-05-09T00:00:00	14:00:00	15:00:00	25	183	3820	3600	1.06
151	PER-13-031  4 - อ้อมใหญ่ -นครชัยศรี IN	13.71173	100.2645	doh	working	2022-05-09T00:00:00	15:00:00	16:00:00	29	181	3783	3600	1.05
152	PER-13-031  4 - อ้อมใหญ่ -นครชัยศรี IN	13.71173	100.2645	doh	working	2022-05-09T00:00:00	16:00:00	17:00:00	28	201	6466	3600	1.80
153	PER-13-031  4 - อ้อมใหญ่ -นครชัยศรี IN	13.71173	100.2645	doh	working	2022-05-09T00:00:00	17:00:00	18:00:00	24	201	5974	3600	1.66
154	PER-13-031  4 - อ้อมใหญ่ -นครชัยศรี IN	13.71173	100.2645	doh	working	2022-05-09T00:00:00	18:00:00	19:00:00	29	146	3131	3600	0.87
155	PER-13-031  4 - อ้อมใหญ่ -นครชัยศรี IN	13.71173	100.2645	doh	working	2022-06-09T00:00:00	5:00:00	6:00:00	37	62	823	3600	0.23
156	PER-13-031  4 - อ้อมใหญ่ -นครชัยศรี IN	13.71173	100.2645	doh	working	2022-06-09T00:00:00	6:00:00	7:00:00	26	202	2396	3600	0.67
157	PER-13-031  4 - อ้อมใหญ่ -นครชัยศรี IN	13.71173	100.2645	doh	working	2022-06-09T00:00:00	7:00:00	8:00:00	24	202	4441	3600	1.23
158	PER-13-031  4 - อ้อมใหญ่ -นครชัยศรี IN	13.71173	100.2645	doh	working	2022-06-09T00:00:00	8:00:00	9:00:00	32	119	2668	3600	0.74
159	PER-13-031  4 - อ้อมใหญ่ -นครชัยศรี IN	13.71173	100.2645	doh	working	2022-06-09T00:00:00	9:00:00	10:00:00	29	114	2588	3600	0.72
160	PER-13-031  4 - อ้อมใหญ่ -นครชัยศรี IN	13.71173	100.2645	doh	working	2022-06-09T00:00:00	10:00:00	11:00:00	28	113	2573	3600	0.71
161	PER-13-031  4 - อ้อมใหญ่ -นครชัยศรี IN	13.71173	100.2645	doh	working	2022-06-09T00:00:00	11:00:00	12:00:00	29	201	2938	3600	0.82
162	PER-13-031  4 - อ้อมใหญ่ -นครชัยศรี IN	13.71173	100.2645	doh	working	2022-06-09T00:00:00	12:00:00	13:00:00	29	180	3731	3600	1.04
163	PER-13-031  4 - อ้อมใหญ่ -นครชัยศรี IN	13.71173	100.2645	doh	working	2022-06-09T00:00:00	13:00:00	14:00:00	27	117	2633	3600	0.73
164	PER-13-031  4 - อ้อมใหญ่ -นครชัยศรี IN	13.71173	100.2645	doh	working	2022-06-09T00:00:00	14:00:00	15:00:00	31	118	2595	3600	0.72
165	PER-13-031  4 - อ้อมใหญ่ -นครชัยศรี IN	13.71173	100.2645	doh	working	2022-06-09T00:00:00	15:00:00	16:00:00	29	116	2610	3600	0.73
166	PER-13-031  4 - อ้อมใหญ่ -นครชัยศรี IN	13.71173	100.2645	doh	working	2022-06-09T00:00:00	16:00:00	17:00:00	24	178	3060	3600	0.85
167	PER-13-031  4 - อ้อมใหญ่ -นครชัยศรี IN	13.71173	100.2645	doh	working	2022-06-09T00:00:00	17:00:00	18:00:00	25	201	6058	3600	1.68
168	PER-13-031  4 - อ้อมใหญ่ -นครชัยศรี IN	13.71173	100.2645	doh	working	2022-06-09T00:00:00	18:00:00	19:00:00	39	106	1339	3600	0.37
169	PER-13-031  4 - อ้อมใหญ่ -นครชัยศรี IN	13.71173	100.2645	doh	working	2022-07-09T00:00:00	5:00:00	6:00:00	76	66	978	3600	0.27
170	PER-13-031  4 - อ้อมใหญ่ -นครชัยศรี IN	13.71173	100.2645	doh	working	2022-07-09T00:00:00	6:00:00	7:00:00	54	202	3164	3600	0.88
171	PER-13-031  4 - อ้อมใหญ่ -นครชัยศรี IN	13.71173	100.2645	doh	working	2022-07-09T00:00:00	7:00:00	8:00:00	51	202	2916	3600	0.81
172	PER-13-031  4 - อ้อมใหญ่ -นครชัยศรี IN	13.71173	100.2645	doh	working	2022-07-09T00:00:00	8:00:00	9:00:00	34	149	3985	3600	1.11
173	PER-13-031  4 - อ้อมใหญ่ -นครชัยศรี IN	13.71173	100.2645	doh	working	2022-07-09T00:00:00	9:00:00	10:00:00	31	148	3905	3600	1.08
174	PER-13-031  4 - อ้อมใหญ่ -นครชัยศรี IN	13.71173	100.2645	doh	working	2022-07-09T00:00:00	10:00:00	11:00:00	32	146	3957	3600	1.10
175	PER-13-031  4 - อ้อมใหญ่ -นครชัยศรี IN	13.71173	100.2645	doh	working	2022-07-09T00:00:00	11:00:00	12:00:00	29	118	2066	3600	0.57
176	PER-13-031  4 - อ้อมใหญ่ -นครชัยศรี IN	13.71173	100.2645	doh	working	2022-07-09T00:00:00	12:00:00	13:00:00	38	75	985	3600	0.27
177	PER-13-031  4 - อ้อมใหญ่ -นครชัยศรี IN	13.71173	100.2645	doh	working	2022-07-09T00:00:00	13:00:00	14:00:00	31	145	3952	3600	1.10
178	PER-13-031  4 - อ้อมใหญ่ -นครชัยศรี IN	13.71173	100.2645	doh	working	2022-07-09T00:00:00	14:00:00	15:00:00	31	145	3871	3600	1.08
179	PER-13-031  4 - อ้อมใหญ่ -นครชัยศรี IN	13.71173	100.2645	doh	working	2022-07-09T00:00:00	15:00:00	16:00:00	31	141	3804	3600	1.06
180	PER-13-031  4 - อ้อมใหญ่ -นครชัยศรี IN	13.71173	100.2645	doh	working	2022-07-09T00:00:00	16:00:00	17:00:00	30	202	3207	3600	0.89
181	PER-13-031  4 - อ้อมใหญ่ -นครชัยศรี IN	13.71173	100.2645	doh	working	2022-07-09T00:00:00	17:00:00	18:00:00	29	201	3941	3600	1.09
182	PER-13-031  4 - อ้อมใหญ่ -นครชัยศรี IN	13.71173	100.2645	doh	working	2022-07-09T00:00:00	18:00:00	19:00:00	31	102	733	3600	0.20
183	PER-13-031  4 - อ้อมใหญ่ -นครชัยศรี IN	13.71173	100.2645	doh	working	2022-08-09T00:00:00	5:00:00	6:00:00	54	57	836	3600	0.23
184	PER-13-031  4 - อ้อมใหญ่ -นครชัยศรี IN	13.71173	100.2645	doh	working	2022-08-09T00:00:00	6:00:00	7:00:00	38	188	2423	3600	0.67
185	PER-13-031  4 - อ้อมใหญ่ -นครชัยศรี IN	13.71173	100.2645	doh	working	2022-08-09T00:00:00	7:00:00	8:00:00	29	202	5272	3600	1.46
186	PER-13-031  4 - อ้อมใหญ่ -นครชัยศรี IN	13.71173	100.2645	doh	working	2022-08-09T00:00:00	8:00:00	9:00:00	36	144	3170	3600	0.88
187	PER-13-031  4 - อ้อมใหญ่ -นครชัยศรี IN	13.71173	100.2645	doh	working	2022-08-09T00:00:00	9:00:00	10:00:00	32	139	3108	3600	0.86
188	PER-13-031  4 - อ้อมใหญ่ -นครชัยศรี IN	13.71173	100.2645	doh	working	2022-08-09T00:00:00	10:00:00	11:00:00	34	137	3144	3600	0.87
189	PER-13-031  4 - อ้อมใหญ่ -นครชัยศรี IN	13.71173	100.2645	doh	working	2022-08-09T00:00:00	11:00:00	12:00:00	30	191	2951	3600	0.82
190	PER-13-031  4 - อ้อมใหญ่ -นครชัยศรี IN	13.71173	100.2645	doh	working	2022-08-09T00:00:00	12:00:00	13:00:00	27	192	3700	3600	1.03
191	PER-13-031  4 - อ้อมใหญ่ -นครชัยศรี IN	13.71173	100.2645	doh	working	2022-08-09T00:00:00	13:00:00	14:00:00	31	141	3068	3600	0.85
192	PER-13-031  4 - อ้อมใหญ่ -นครชัยศรี IN	13.71173	100.2645	doh	working	2022-08-09T00:00:00	14:00:00	15:00:00	32	140	3051	3600	0.85
193	PER-13-031  4 - อ้อมใหญ่ -นครชัยศรี IN	13.71173	100.2645	doh	working	2022-08-09T00:00:00	15:00:00	16:00:00	34	141	3082	3600	0.86
194	PER-13-031  4 - อ้อมใหญ่ -นครชัยศรี IN	13.71173	100.2645	doh	working	2022-08-09T00:00:00	16:00:00	17:00:00	31	154	4095	3600	1.14
195	PER-13-031  4 - อ้อมใหญ่ -นครชัยศรี IN	13.71173	100.2645	doh	working	2022-08-09T00:00:00	17:00:00	18:00:00	22	172	3220	3600	0.89
196	PER-13-031  4 - อ้อมใหญ่ -นครชัยศรี IN	13.71173	100.2645	doh	working	2022-08-09T00:00:00	18:00:00	19:00:00	23	143	3696	3600	1.03
197	PER-13-031  4 - อ้อมใหญ่ -นครชัยศรี IN	13.71173	100.2645	doh	working	2022-09-09T00:00:00	5:00:00	6:00:00	42	62	1022	3600	0.28
198	PER-13-031  4 - อ้อมใหญ่ -นครชัยศรี IN	13.71173	100.2645	doh	working	2022-09-09T00:00:00	6:00:00	7:00:00	30	201	3313	3600	0.92
199	PER-13-031  4 - อ้อมใหญ่ -นครชัยศรี IN	13.71173	100.2645	doh	working	2022-09-09T00:00:00	7:00:00	8:00:00	28	201	6086	3600	1.69
200	PER-13-031  4 - อ้อมใหญ่ -นครชัยศรี IN	13.71173	100.2645	doh	working	2022-09-09T00:00:00	8:00:00	9:00:00	31	116	2039	3600	0.57
201	PER-13-031  4 - อ้อมใหญ่ -นครชัยศรี IN	13.71173	100.2645	doh	working	2022-09-09T00:00:00	9:00:00	10:00:00	26	114	1827	3600	0.51
202	PER-13-031  4 - อ้อมใหญ่ -นครชัยศรี IN	13.71173	100.2645	doh	working	2022-09-09T00:00:00	10:00:00	11:00:00	27	113	1919	3600	0.53
203	PER-13-031  4 - อ้อมใหญ่ -นครชัยศรี IN	13.71173	100.2645	doh	working	2022-09-09T00:00:00	11:00:00	12:00:00	29	174	3862	3600	1.07
204	PER-13-031  4 - อ้อมใหญ่ -นครชัยศรี IN	13.71173	100.2645	doh	working	2022-09-09T00:00:00	12:00:00	13:00:00	53	188	3141	3600	0.87
205	PER-13-031  4 - อ้อมใหญ่ -นครชัยศรี IN	13.71173	100.2645	doh	working	2022-09-09T00:00:00	13:00:00	14:00:00	28	116	1856	3600	0.52
206	PER-13-031  4 - อ้อมใหญ่ -นครชัยศรี IN	13.71173	100.2645	doh	working	2022-09-09T00:00:00	14:00:00	15:00:00	29	118	1901	3600	0.53
207	PER-13-031  4 - อ้อมใหญ่ -นครชัยศรี IN	13.71173	100.2645	doh	working	2022-09-09T00:00:00	15:00:00	16:00:00	27	117	1917	3600	0.53
208	PER-13-031  4 - อ้อมใหญ่ -นครชัยศรี IN	13.71173	100.2645	doh	working	2022-09-09T00:00:00	16:00:00	17:00:00	31	69	2455	3600	0.68
209	PER-13-031  4 - อ้อมใหญ่ -นครชัยศรี IN	13.71173	100.2645	doh	working	2022-09-09T00:00:00	17:00:00	18:00:00	37	146	4893	3600	1.36
210	PER-13-031  4 - อ้อมใหญ่ -นครชัยศรี IN	13.71173	100.2645	doh	working	2022-09-09T00:00:00	18:00:00	19:00:00	26	151	2290	3600	0.64
211	PER-3-004 ถ.เพชรเกษม อ้อมใหญ่	13.708	100.2841	doh	working	2022-05-09T00:00:00	5:00:00	6:00:00	32	58	745	2700	0.28
212	PER-3-004 ถ.เพชรเกษม อ้อมใหญ่	13.708	100.2841	doh	working	2022-05-09T00:00:00	6:00:00	7:00:00	23	174	2204	2700	0.82
213	PER-3-004 ถ.เพชรเกษม อ้อมใหญ่	13.708	100.2841	doh	working	2022-05-09T00:00:00	7:00:00	8:00:00	18	202	5167	2700	1.91
214	PER-3-004 ถ.เพชรเกษม อ้อมใหญ่	13.708	100.2841	doh	working	2022-05-09T00:00:00	8:00:00	9:00:00	26	185	2644	2700	0.98
215	PER-3-004 ถ.เพชรเกษม อ้อมใหญ่	13.708	100.2841	doh	working	2022-05-09T00:00:00	9:00:00	10:00:00	25	183	2569	2700	0.95
216	PER-3-004 ถ.เพชรเกษม อ้อมใหญ่	13.708	100.2841	doh	working	2022-05-09T00:00:00	10:00:00	11:00:00	26	174	2587	2700	0.96
217	PER-3-004 ถ.เพชรเกษม อ้อมใหญ่	13.708	100.2841	doh	working	2022-05-09T00:00:00	11:00:00	12:00:00	21	201	2583	2700	0.96
218	PER-3-004 ถ.เพชรเกษม อ้อมใหญ่	13.708	100.2841	doh	working	2022-05-09T00:00:00	12:00:00	13:00:00	18	200	2931	2700	1.09
219	PER-3-004 ถ.เพชรเกษม อ้อมใหญ่	13.708	100.2841	doh	working	2022-05-09T00:00:00	13:00:00	14:00:00	21	184	2553	2700	0.95
220	PER-3-004 ถ.เพชรเกษม อ้อมใหญ่	13.708	100.2841	doh	working	2022-05-09T00:00:00	14:00:00	15:00:00	22	182	2574	2700	0.95
221	PER-3-004 ถ.เพชรเกษม อ้อมใหญ่	13.708	100.2841	doh	working	2022-05-09T00:00:00	15:00:00	16:00:00	25	179	2427	2700	0.90
222	PER-3-004 ถ.เพชรเกษม อ้อมใหญ่	13.708	100.2841	doh	working	2022-05-09T00:00:00	16:00:00	17:00:00	23	202	3547	2700	1.31
223	PER-3-004 ถ.เพชรเกษม อ้อมใหญ่	13.708	100.2841	doh	working	2022-05-09T00:00:00	17:00:00	18:00:00	23	201	5558	2700	2.06
224	PER-3-004 ถ.เพชรเกษม อ้อมใหญ่	13.708	100.2841	doh	working	2022-05-09T00:00:00	18:00:00	19:00:00	21	136	2969	2700	1.10
225	PER-3-004 ถ.เพชรเกษม อ้อมใหญ่	13.708	100.2841	doh	working	2022-06-09T00:00:00	5:00:00	6:00:00	48	36	566	2700	0.21
226	PER-3-004 ถ.เพชรเกษม อ้อมใหญ่	13.708	100.2841	doh	working	2022-06-09T00:00:00	6:00:00	7:00:00	34	113	1666	2700	0.62
227	PER-3-004 ถ.เพชรเกษม อ้อมใหญ่	13.708	100.2841	doh	working	2022-06-09T00:00:00	7:00:00	8:00:00	17	202	4594	2700	1.70
228	PER-3-004 ถ.เพชรเกษม อ้อมใหญ่	13.708	100.2841	doh	working	2022-06-09T00:00:00	8:00:00	9:00:00	22	201	3210	2700	1.19
229	PER-3-004 ถ.เพชรเกษม อ้อมใหญ่	13.708	100.2841	doh	working	2022-06-09T00:00:00	9:00:00	10:00:00	20	202	3175	2700	1.18
230	PER-3-004 ถ.เพชรเกษม อ้อมใหญ่	13.708	100.2841	doh	working	2022-06-09T00:00:00	10:00:00	11:00:00	17	202	3157	2700	1.17
231	PER-3-004 ถ.เพชรเกษม อ้อมใหญ่	13.708	100.2841	doh	working	2022-06-09T00:00:00	11:00:00	12:00:00	35	190	1694	2700	0.63
232	PER-3-004 ถ.เพชรเกษม อ้อมใหญ่	13.708	100.2841	doh	working	2022-06-09T00:00:00	12:00:00	13:00:00	19	197	2778	2700	1.03
233	PER-3-004 ถ.เพชรเกษม อ้อมใหญ่	13.708	100.2841	doh	working	2022-06-09T00:00:00	13:00:00	14:00:00	17	201	3022	2700	1.12
234	PER-3-004 ถ.เพชรเกษม อ้อมใหญ่	13.708	100.2841	doh	working	2022-06-09T00:00:00	14:00:00	15:00:00	19	201	3049	2700	1.13
235	PER-3-004 ถ.เพชรเกษม อ้อมใหญ่	13.708	100.2841	doh	working	2022-06-09T00:00:00	15:00:00	16:00:00	20	202	3122	2700	1.16
236	PER-3-004 ถ.เพชรเกษม อ้อมใหญ่	13.708	100.2841	doh	working	2022-06-09T00:00:00	16:00:00	17:00:00	18	201	2978	2700	1.10
237	PER-3-004 ถ.เพชรเกษม อ้อมใหญ่	13.708	100.2841	doh	working	2022-06-09T00:00:00	17:00:00	18:00:00	14	202	5552	2700	2.06
238	PER-3-004 ถ.เพชรเกษม อ้อมใหญ่	13.708	100.2841	doh	working	2022-06-09T00:00:00	18:00:00	19:00:00	15	197	3941	2700	1.46
239	PER-3-004 ถ.เพชรเกษม อ้อมใหญ่	13.708	100.2841	doh	working	2022-07-09T00:00:00	5:00:00	6:00:00	62	18	267	2700	0.10
240	PER-3-004 ถ.เพชรเกษม อ้อมใหญ่	13.708	100.2841	doh	working	2022-07-09T00:00:00	6:00:00	7:00:00	44	51	761	2700	0.28
241	PER-3-004 ถ.เพชรเกษม อ้อมใหญ่	13.708	100.2841	doh	working	2022-07-09T00:00:00	7:00:00	8:00:00	13	202	5179	2700	1.92
242	PER-3-004 ถ.เพชรเกษม อ้อมใหญ่	13.708	100.2841	doh	working	2022-07-09T00:00:00	8:00:00	9:00:00	14	202	3512	2700	1.30
243	PER-3-004 ถ.เพชรเกษม อ้อมใหญ่	13.708	100.2841	doh	working	2022-07-09T00:00:00	9:00:00	10:00:00	9	202	3531	2700	1.31
244	PER-3-004 ถ.เพชรเกษม อ้อมใหญ่	13.708	100.2841	doh	working	2022-07-09T00:00:00	10:00:00	11:00:00	13	202	3484	2700	1.29
245	PER-3-004 ถ.เพชรเกษม อ้อมใหญ่	13.708	100.2841	doh	working	2022-07-09T00:00:00	11:00:00	12:00:00	26	202	2448	2700	0.91
246	PER-3-004 ถ.เพชรเกษม อ้อมใหญ่	13.708	100.2841	doh	working	2022-07-09T00:00:00	12:00:00	13:00:00	29	201	2969	2700	1.10
247	PER-3-004 ถ.เพชรเกษม อ้อมใหญ่	13.708	100.2841	doh	working	2022-07-09T00:00:00	13:00:00	14:00:00	12	201	3424	2700	1.27
248	PER-3-004 ถ.เพชรเกษม อ้อมใหญ่	13.708	100.2841	doh	working	2022-07-09T00:00:00	14:00:00	15:00:00	9	201	3461	2700	1.28
249	PER-3-004 ถ.เพชรเกษม อ้อมใหญ่	13.708	100.2841	doh	working	2022-07-09T00:00:00	15:00:00	16:00:00	11	202	3393	2700	1.26
250	PER-3-004 ถ.เพชรเกษม อ้อมใหญ่	13.708	100.2841	doh	working	2022-07-09T00:00:00	16:00:00	17:00:00	19	202	1916	2700	0.71
251	PER-3-004 ถ.เพชรเกษม อ้อมใหญ่	13.708	100.2841	doh	working	2022-07-09T00:00:00	17:00:00	18:00:00	13	202	3526	2700	1.31
252	PER-3-004 ถ.เพชรเกษม อ้อมใหญ่	13.708	100.2841	doh	working	2022-07-09T00:00:00	18:00:00	19:00:00	30	184	4623	2700	1.71
253	PER-3-004 ถ.เพชรเกษม อ้อมใหญ่	13.708	100.2841	doh	working	2022-08-09T00:00:00	5:00:00	6:00:00	39	24	609	2700	0.23
254	PER-3-004 ถ.เพชรเกษม อ้อมใหญ่	13.708	100.2841	doh	working	2022-08-09T00:00:00	6:00:00	7:00:00	28	67	1848	2700	0.68
255	PER-3-004 ถ.เพชรเกษม อ้อมใหญ่	13.708	100.2841	doh	working	2022-08-09T00:00:00	7:00:00	8:00:00	21	202	4652	2700	1.72
256	PER-3-004 ถ.เพชรเกษม อ้อมใหญ่	13.708	100.2841	doh	working	2022-08-09T00:00:00	8:00:00	9:00:00	19	202	3738	2700	1.38
257	PER-3-004 ถ.เพชรเกษม อ้อมใหญ่	13.708	100.2841	doh	working	2022-08-09T00:00:00	9:00:00	10:00:00	18	201	3601	2700	1.33
258	PER-3-004 ถ.เพชรเกษม อ้อมใหญ่	13.708	100.2841	doh	working	2022-08-09T00:00:00	10:00:00	11:00:00	13	201	3771	2700	1.40
259	PER-3-004 ถ.เพชรเกษม อ้อมใหญ่	13.708	100.2841	doh	working	2022-08-09T00:00:00	11:00:00	12:00:00	48	201	2041	2700	0.76
260	PER-3-004 ถ.เพชรเกษม อ้อมใหญ่	13.708	100.2841	doh	working	2022-08-09T00:00:00	12:00:00	13:00:00	46	202	3028	2700	1.12
261	PER-3-004 ถ.เพชรเกษม อ้อมใหญ่	13.708	100.2841	doh	working	2022-08-09T00:00:00	13:00:00	14:00:00	16	201	3640	2700	1.35
262	PER-3-004 ถ.เพชรเกษม อ้อมใหญ่	13.708	100.2841	doh	working	2022-08-09T00:00:00	14:00:00	15:00:00	14	201	3480	2700	1.29
263	PER-3-004 ถ.เพชรเกษม อ้อมใหญ่	13.708	100.2841	doh	working	2022-08-09T00:00:00	15:00:00	16:00:00	16	202	3604	2700	1.33
264	PER-3-004 ถ.เพชรเกษม อ้อมใหญ่	13.708	100.2841	doh	working	2022-08-09T00:00:00	16:00:00	17:00:00	21	201	5181	2700	1.92
265	PER-3-004 ถ.เพชรเกษม อ้อมใหญ่	13.708	100.2841	doh	working	2022-08-09T00:00:00	17:00:00	18:00:00	24	202	4984	2700	1.85
266	PER-3-004 ถ.เพชรเกษม อ้อมใหญ่	13.708	100.2841	doh	working	2022-08-09T00:00:00	18:00:00	19:00:00	17	95	2956	2700	1.09
267	PER-3-004 ถ.เพชรเกษม อ้อมใหญ่	13.708	100.2841	doh	working	2022-09-09T00:00:00	5:00:00	6:00:00	24	60	544	2700	0.20
268	PER-3-004 ถ.เพชรเกษม อ้อมใหญ่	13.708	100.2841	doh	working	2022-09-09T00:00:00	6:00:00	7:00:00	17	181	1512	2700	0.56
269	PER-3-004 ถ.เพชรเกษม อ้อมใหญ่	13.708	100.2841	doh	working	2022-09-09T00:00:00	7:00:00	8:00:00	20	202	4113	2700	1.52
270	PER-3-004 ถ.เพชรเกษม อ้อมใหญ่	13.708	100.2841	doh	working	2022-09-09T00:00:00	8:00:00	9:00:00	18	201	3740	2700	1.39
271	PER-3-004 ถ.เพชรเกษม อ้อมใหญ่	13.708	100.2841	doh	working	2022-09-09T00:00:00	9:00:00	10:00:00	14	201	3645	2700	1.35
272	PER-3-004 ถ.เพชรเกษม อ้อมใหญ่	13.708	100.2841	doh	working	2022-09-09T00:00:00	10:00:00	11:00:00	15	201	3641	2700	1.35
273	PER-3-004 ถ.เพชรเกษม อ้อมใหญ่	13.708	100.2841	doh	working	2022-09-09T00:00:00	11:00:00	12:00:00	26	201	3902	2700	1.45
274	PER-3-004 ถ.เพชรเกษม อ้อมใหญ่	13.708	100.2841	doh	working	2022-09-09T00:00:00	12:00:00	13:00:00	19	201	3337	2700	1.24
275	PER-3-004 ถ.เพชรเกษม อ้อมใหญ่	13.708	100.2841	doh	working	2022-09-09T00:00:00	13:00:00	14:00:00	17	202	3640	2700	1.35
276	PER-3-004 ถ.เพชรเกษม อ้อมใหญ่	13.708	100.2841	doh	working	2022-09-09T00:00:00	14:00:00	15:00:00	14	201	3586	2700	1.33
277	PER-3-004 ถ.เพชรเกษม อ้อมใหญ่	13.708	100.2841	doh	working	2022-09-09T00:00:00	15:00:00	16:00:00	14	202	3587	2700	1.33
278	PER-3-004 ถ.เพชรเกษม อ้อมใหญ่	13.708	100.2841	doh	working	2022-09-09T00:00:00	16:00:00	17:00:00	19	202	4398	2700	1.63
279	PER-3-004 ถ.เพชรเกษม อ้อมใหญ่	13.708	100.2841	doh	working	2022-09-09T00:00:00	17:00:00	18:00:00	34	121	2626	2700	0.97
280	PER-3-004 ถ.เพชรเกษม อ้อมใหญ่	13.708	100.2841	doh	working	2022-09-09T00:00:00	18:00:00	19:00:00	32	115	2085	2700	0.77
281	PER-10-023 3091 - อ.กระทุ่มแบน จ.สมุทรสาคร	13.634921	100.296815	doh	working	2022-06-09T00:00:00	5:00:00	6:00:00	25	32	570	2700	0.21
282	PER-10-023 3091 - อ.กระทุ่มแบน จ.สมุทรสาคร	13.634921	100.296815	doh	working	2022-06-09T00:00:00	6:00:00	7:00:00	18	98	1663	2700	0.62
283	PER-10-023 3091 - อ.กระทุ่มแบน จ.สมุทรสาคร	13.634921	100.296815	doh	working	2022-06-09T00:00:00	7:00:00	8:00:00	24	201	4033	2700	1.49
284	PER-10-023 3091 - อ.กระทุ่มแบน จ.สมุทรสาคร	13.634921	100.296815	doh	working	2022-06-09T00:00:00	8:00:00	9:00:00	22	85	1417	2700	0.52
285	PER-10-023 3091 - อ.กระทุ่มแบน จ.สมุทรสาคร	13.634921	100.296815	doh	working	2022-06-09T00:00:00	9:00:00	10:00:00	21	84	1307	2700	0.48
286	PER-10-023 3091 - อ.กระทุ่มแบน จ.สมุทรสาคร	13.634921	100.296815	doh	working	2022-06-09T00:00:00	10:00:00	11:00:00	18	78	1302	2700	0.48
287	PER-10-023 3091 - อ.กระทุ่มแบน จ.สมุทรสาคร	13.634921	100.296815	doh	working	2022-06-09T00:00:00	11:00:00	12:00:00	28	202	4334	2700	1.61
288	PER-10-023 3091 - อ.กระทุ่มแบน จ.สมุทรสาคร	13.634921	100.296815	doh	working	2022-06-09T00:00:00	12:00:00	13:00:00	47	161	1418	2700	0.53
289	PER-10-023 3091 - อ.กระทุ่มแบน จ.สมุทรสาคร	13.634921	100.296815	doh	working	2022-06-09T00:00:00	13:00:00	14:00:00	19	83	1283	2700	0.48
290	PER-10-023 3091 - อ.กระทุ่มแบน จ.สมุทรสาคร	13.634921	100.296815	doh	working	2022-06-09T00:00:00	14:00:00	15:00:00	19	84	1333	2700	0.49
291	PER-10-023 3091 - อ.กระทุ่มแบน จ.สมุทรสาคร	13.634921	100.296815	doh	working	2022-06-09T00:00:00	15:00:00	16:00:00	18	80	1299	2700	0.48
292	PER-10-023 3091 - อ.กระทุ่มแบน จ.สมุทรสาคร	13.634921	100.296815	doh	working	2022-06-09T00:00:00	16:00:00	17:00:00	64	176	3516	2700	1.30
293	PER-10-023 3091 - อ.กระทุ่มแบน จ.สมุทรสาคร	13.634921	100.296815	doh	working	2022-06-09T00:00:00	17:00:00	18:00:00	42	202	5294	2700	1.96
294	PER-10-023 3091 - อ.กระทุ่มแบน จ.สมุทรสาคร	13.634921	100.296815	doh	working	2022-06-09T00:00:00	18:00:00	19:00:00	21	118	2541	2700	0.94
295	PER-10-023 3091 - อ.กระทุ่มแบน จ.สมุทรสาคร	13.634921	100.296815	doh	working	2022-07-09T00:00:00	5:00:00	6:00:00	25	31	534	2700	0.20
296	PER-10-023 3091 - อ.กระทุ่มแบน จ.สมุทรสาคร	13.634921	100.296815	doh	working	2022-07-09T00:00:00	6:00:00	7:00:00	18	98	1652	2700	0.61
297	PER-10-023 3091 - อ.กระทุ่มแบน จ.สมุทรสาคร	13.634921	100.296815	doh	working	2022-07-09T00:00:00	7:00:00	8:00:00	66	202	3903	2700	1.45
298	PER-10-023 3091 - อ.กระทุ่มแบน จ.สมุทรสาคร	13.634921	100.296815	doh	working	2022-07-09T00:00:00	8:00:00	9:00:00	26	202	2251	2700	0.83
299	PER-10-023 3091 - อ.กระทุ่มแบน จ.สมุทรสาคร	13.634921	100.296815	doh	working	2022-07-09T00:00:00	9:00:00	10:00:00	25	202	2189	2700	0.81
300	PER-10-023 3091 - อ.กระทุ่มแบน จ.สมุทรสาคร	13.634921	100.296815	doh	working	2022-07-09T00:00:00	10:00:00	11:00:00	25	202	2190	2700	0.81
301	PER-10-023 3091 - อ.กระทุ่มแบน จ.สมุทรสาคร	13.634921	100.296815	doh	working	2022-07-09T00:00:00	11:00:00	12:00:00	19	192	1653	2700	0.61
302	PER-10-023 3091 - อ.กระทุ่มแบน จ.สมุทรสาคร	13.634921	100.296815	doh	working	2022-07-09T00:00:00	12:00:00	13:00:00	19	84	2272	2700	0.84
303	PER-10-023 3091 - อ.กระทุ่มแบน จ.สมุทรสาคร	13.634921	100.296815	doh	working	2022-07-09T00:00:00	13:00:00	14:00:00	24	201	2162	2700	0.80
304	PER-10-023 3091 - อ.กระทุ่มแบน จ.สมุทรสาคร	13.634921	100.296815	doh	working	2022-07-09T00:00:00	14:00:00	15:00:00	24	201	2178	2700	0.81
305	PER-10-023 3091 - อ.กระทุ่มแบน จ.สมุทรสาคร	13.634921	100.296815	doh	working	2022-07-09T00:00:00	15:00:00	16:00:00	24	202	2135	2700	0.79
306	PER-10-023 3091 - อ.กระทุ่มแบน จ.สมุทรสาคร	13.634921	100.296815	doh	working	2022-07-09T00:00:00	16:00:00	17:00:00	50	202	3629	2700	1.34
307	PER-10-023 3091 - อ.กระทุ่มแบน จ.สมุทรสาคร	13.634921	100.296815	doh	working	2022-07-09T00:00:00	17:00:00	18:00:00	66	201	6284	2700	2.33
308	PER-10-023 3091 - อ.กระทุ่มแบน จ.สมุทรสาคร	13.634921	100.296815	doh	working	2022-07-09T00:00:00	18:00:00	19:00:00	26	112	3181	2700	1.18
309	PER-10-023 3091 - อ.กระทุ่มแบน จ.สมุทรสาคร	13.634921	100.296815	doh	working	2022-08-09T00:00:00	5:00:00	6:00:00	12	65	1267	2700	0.47
310	PER-10-023 3091 - อ.กระทุ่มแบน จ.สมุทรสาคร	13.634921	100.296815	doh	working	2022-08-09T00:00:00	6:00:00	7:00:00	9	201	4165	2700	1.54
311	PER-10-023 3091 - อ.กระทุ่มแบน จ.สมุทรสาคร	13.634921	100.296815	doh	working	2022-08-09T00:00:00	7:00:00	8:00:00	13	202	4490	2700	1.66
312	PER-10-023 3091 - อ.กระทุ่มแบน จ.สมุทรสาคร	13.634921	100.296815	doh	working	2022-08-09T00:00:00	8:00:00	9:00:00	39	139	2885	2700	1.07
313	PER-10-023 3091 - อ.กระทุ่มแบน จ.สมุทรสาคร	13.634921	100.296815	doh	working	2022-08-09T00:00:00	9:00:00	10:00:00	38	136	2899	2700	1.07
314	PER-10-023 3091 - อ.กระทุ่มแบน จ.สมุทรสาคร	13.634921	100.296815	doh	working	2022-08-09T00:00:00	10:00:00	11:00:00	36	136	2913	2700	1.08
315	PER-10-023 3091 - อ.กระทุ่มแบน จ.สมุทรสาคร	13.634921	100.296815	doh	working	2022-08-09T00:00:00	11:00:00	12:00:00	27	66	839	2700	0.31
316	PER-10-023 3091 - อ.กระทุ่มแบน จ.สมุทรสาคร	13.634921	100.296815	doh	working	2022-08-09T00:00:00	12:00:00	13:00:00	33	142	3166	2700	1.17
317	PER-10-023 3091 - อ.กระทุ่มแบน จ.สมุทรสาคร	13.634921	100.296815	doh	working	2022-08-09T00:00:00	13:00:00	14:00:00	38	137	2834	2700	1.05
318	PER-10-023 3091 - อ.กระทุ่มแบน จ.สมุทรสาคร	13.634921	100.296815	doh	working	2022-08-09T00:00:00	14:00:00	15:00:00	34	138	2787	2700	1.03
319	PER-10-023 3091 - อ.กระทุ่มแบน จ.สมุทรสาคร	13.634921	100.296815	doh	working	2022-08-09T00:00:00	15:00:00	16:00:00	35	136	2777	2700	1.03
320	PER-10-023 3091 - อ.กระทุ่มแบน จ.สมุทรสาคร	13.634921	100.296815	doh	working	2022-08-09T00:00:00	16:00:00	17:00:00	13	135	1116	2700	0.41
321	PER-10-023 3091 - อ.กระทุ่มแบน จ.สมุทรสาคร	13.634921	100.296815	doh	working	2022-08-09T00:00:00	17:00:00	18:00:00	23	76	1485	2700	0.55
322	PER-10-023 3091 - อ.กระทุ่มแบน จ.สมุทรสาคร	13.634921	100.296815	doh	working	2022-08-09T00:00:00	18:00:00	19:00:00	21	122	412	2700	0.15
323	PER-10-023 3091 - อ.กระทุ่มแบน จ.สมุทรสาคร	13.634921	100.296815	doh	working	2022-09-09T00:00:00	5:00:00	6:00:00	30	48	688	2700	0.25
324	PER-10-023 3091 - อ.กระทุ่มแบน จ.สมุทรสาคร	13.634921	100.296815	doh	working	2022-09-09T00:00:00	6:00:00	7:00:00	21	144	2134	2700	0.79
325	PER-10-023 3091 - อ.กระทุ่มแบน จ.สมุทรสาคร	13.634921	100.296815	doh	working	2022-09-09T00:00:00	7:00:00	8:00:00	31	202	3662	2700	1.36
326	PER-10-023 3091 - อ.กระทุ่มแบน จ.สมุทรสาคร	13.634921	100.296815	doh	working	2022-09-09T00:00:00	8:00:00	9:00:00	12	202	2971	2700	1.10
327	PER-10-023 3091 - อ.กระทุ่มแบน จ.สมุทรสาคร	13.634921	100.296815	doh	working	2022-09-09T00:00:00	9:00:00	10:00:00	7	201	2915	2700	1.08
328	PER-10-023 3091 - อ.กระทุ่มแบน จ.สมุทรสาคร	13.634921	100.296815	doh	working	2022-09-09T00:00:00	10:00:00	11:00:00	8	201	2866	2700	1.06
329	PER-10-023 3091 - อ.กระทุ่มแบน จ.สมุทรสาคร	13.634921	100.296815	doh	working	2022-09-09T00:00:00	11:00:00	12:00:00	15	199	1706	2700	0.63
330	PER-10-023 3091 - อ.กระทุ่มแบน จ.สมุทรสาคร	13.634921	100.296815	doh	working	2022-09-09T00:00:00	12:00:00	13:00:00	20	201	1733	2700	0.64
331	PER-10-023 3091 - อ.กระทุ่มแบน จ.สมุทรสาคร	13.634921	100.296815	doh	working	2022-09-09T00:00:00	13:00:00	14:00:00	10	201	2898	2700	1.07
332	PER-10-023 3091 - อ.กระทุ่มแบน จ.สมุทรสาคร	13.634921	100.296815	doh	working	2022-09-09T00:00:00	14:00:00	15:00:00	8	201	2793	2700	1.03
333	PER-10-023 3091 - อ.กระทุ่มแบน จ.สมุทรสาคร	13.634921	100.296815	doh	working	2022-09-09T00:00:00	15:00:00	16:00:00	8	201	2837	2700	1.05
334	PER-10-023 3091 - อ.กระทุ่มแบน จ.สมุทรสาคร	13.634921	100.296815	doh	working	2022-09-09T00:00:00	16:00:00	17:00:00	26	104	2228	2700	0.83
335	PER-10-023 3091 - อ.กระทุ่มแบน จ.สมุทรสาคร	13.634921	100.296815	doh	working	2022-09-09T00:00:00	17:00:00	18:00:00	17	97	581	2700	0.22
336	PER-10-023 3091 - อ.กระทุ่มแบน จ.สมุทรสาคร	13.634921	100.296815	doh	working	2022-09-09T00:00:00	18:00:00	19:00:00	21	102	1652	2700	0.61
337	PER-3-012 ถ.รังสิต-นครนายก กม.9	14.0043	100.697	doh	working	2022-08-09T00:00:00	5:00:00	6:00:00	10	66	1126	2700	0.42
338	PER-3-012 ถ.รังสิต-นครนายก กม.9	14.0043	100.697	doh	working	2022-08-09T00:00:00	6:00:00	7:00:00	8	201	3649	2700	1.35
339	PER-3-012 ถ.รังสิต-นครนายก กม.9	14.0043	100.697	doh	working	2022-08-09T00:00:00	7:00:00	8:00:00	24	69	576	2700	0.21
340	PER-3-012 ถ.รังสิต-นครนายก กม.9	14.0043	100.697	doh	working	2022-08-09T00:00:00	8:00:00	9:00:00	21	152	3156	2700	1.17
341	PER-3-012 ถ.รังสิต-นครนายก กม.9	14.0043	100.697	doh	working	2022-08-09T00:00:00	9:00:00	10:00:00	18	149	3101	2700	1.15
342	PER-3-012 ถ.รังสิต-นครนายก กม.9	14.0043	100.697	doh	working	2022-08-09T00:00:00	10:00:00	11:00:00	16	149	3137	2700	1.16
343	PER-3-012 ถ.รังสิต-นครนายก กม.9	14.0043	100.697	doh	working	2022-08-09T00:00:00	11:00:00	12:00:00	20	135	2577	2700	0.95
344	PER-3-012 ถ.รังสิต-นครนายก กม.9	14.0043	100.697	doh	working	2022-08-09T00:00:00	12:00:00	13:00:00	14	81	1835	2700	0.68
345	PER-3-012 ถ.รังสิต-นครนายก กม.9	14.0043	100.697	doh	working	2022-08-09T00:00:00	13:00:00	14:00:00	16	148	3098	2700	1.15
346	PER-3-012 ถ.รังสิต-นครนายก กม.9	14.0043	100.697	doh	working	2022-08-09T00:00:00	14:00:00	15:00:00	16	150	3019	2700	1.12
347	PER-3-012 ถ.รังสิต-นครนายก กม.9	14.0043	100.697	doh	working	2022-08-09T00:00:00	15:00:00	16:00:00	19	150	3137	2700	1.16
348	PER-3-012 ถ.รังสิต-นครนายก กม.9	14.0043	100.697	doh	working	2022-08-09T00:00:00	16:00:00	17:00:00	10	42	755	2700	0.28
349	PER-3-012 ถ.รังสิต-นครนายก กม.9	14.0043	100.697	doh	working	2022-08-09T00:00:00	17:00:00	18:00:00	8	189	1836	2700	0.68
350	PER-3-012 ถ.รังสิต-นครนายก กม.9	14.0043	100.697	doh	working	2022-08-09T00:00:00	18:00:00	19:00:00	70	197	383	2700	0.14
351	PER-3-012 ถ.รังสิต-นครนายก กม.9	14.0043	100.697	doh	working	2022-09-09T00:00:00	5:00:00	6:00:00	17	70	497	2700	0.18
352	PER-3-012 ถ.รังสิต-นครนายก กม.9	14.0043	100.697	doh	working	2022-09-09T00:00:00	6:00:00	7:00:00	13	202	1478	2700	0.55
353	PER-3-012 ถ.รังสิต-นครนายก กม.9	14.0043	100.697	doh	working	2022-09-09T00:00:00	7:00:00	8:00:00	20	70	1489	2700	0.55
354	PER-3-012 ถ.รังสิต-นครนายก กม.9	14.0043	100.697	doh	working	2022-09-09T00:00:00	8:00:00	9:00:00	14	201	1846	2700	0.68
355	PER-3-012 ถ.รังสิต-นครนายก กม.9	14.0043	100.697	doh	working	2022-09-09T00:00:00	9:00:00	10:00:00	13	202	1747	2700	0.65
356	PER-3-012 ถ.รังสิต-นครนายก กม.9	14.0043	100.697	doh	working	2022-09-09T00:00:00	10:00:00	11:00:00	10	201	1759	2700	0.65
357	PER-3-012 ถ.รังสิต-นครนายก กม.9	14.0043	100.697	doh	working	2022-09-09T00:00:00	11:00:00	12:00:00	13	76	1835	2700	0.68
358	PER-3-012 ถ.รังสิต-นครนายก กม.9	14.0043	100.697	doh	working	2022-09-09T00:00:00	12:00:00	13:00:00	11	187	2374	2700	0.88
359	PER-3-012 ถ.รังสิต-นครนายก กม.9	14.0043	100.697	doh	working	2022-09-09T00:00:00	13:00:00	14:00:00	12	201	1717	2700	0.64
360	PER-3-012 ถ.รังสิต-นครนายก กม.9	14.0043	100.697	doh	working	2022-09-09T00:00:00	14:00:00	15:00:00	10	202	1780	2700	0.66
361	PER-3-012 ถ.รังสิต-นครนายก กม.9	14.0043	100.697	doh	working	2022-09-09T00:00:00	15:00:00	16:00:00	9	202	1782	2700	0.66
362	PER-3-012 ถ.รังสิต-นครนายก กม.9	14.0043	100.697	doh	working	2022-09-09T00:00:00	16:00:00	17:00:00	25	85	1296	2700	0.48
363	PER-3-012 ถ.รังสิต-นครนายก กม.9	14.0043	100.697	doh	working	2022-09-09T00:00:00	17:00:00	18:00:00	20	109	1521	2700	0.56
364	PER-3-012 ถ.รังสิต-นครนายก กม.9	14.0043	100.697	doh	working	2022-09-09T00:00:00	18:00:00	19:00:00	33	59	941	2700	0.35
365	SPC-009 หมูบ้านชิชา	13.67652	100.462701	doh	working	2022-06-09T00:00:00	5:00:00	6:00:00	99	15	305	2700	0.11
366	SPC-009 หมูบ้านชิชา	13.67652	100.462701	doh	working	2022-06-09T00:00:00	6:00:00	7:00:00	69	43	881	2700	0.33
367	SPC-009 หมูบ้านชิชา	13.67652	100.462701	doh	working	2022-06-09T00:00:00	7:00:00	8:00:00	13	150	4114	2700	1.52
368	SPC-009 หมูบ้านชิชา	13.67652	100.462701	doh	working	2022-06-09T00:00:00	8:00:00	9:00:00	15	132	4549	2700	1.68
369	SPC-009 หมูบ้านชิชา	13.67652	100.462701	doh	working	2022-06-09T00:00:00	9:00:00	10:00:00	13	126	4500	2700	1.67
370	SPC-009 หมูบ้านชิชา	13.67652	100.462701	doh	working	2022-06-09T00:00:00	10:00:00	11:00:00	10	127	4586	2700	1.70
371	SPC-009 หมูบ้านชิชา	13.67652	100.462701	doh	working	2022-06-09T00:00:00	11:00:00	12:00:00	16	201	4834	2700	1.79
372	SPC-009 หมูบ้านชิชา	13.67652	100.462701	doh	working	2022-06-09T00:00:00	12:00:00	13:00:00	18	131	3605	2700	1.34
373	SPC-009 หมูบ้านชิชา	13.67652	100.462701	doh	working	2022-06-09T00:00:00	13:00:00	14:00:00	12	127	4371	2700	1.62
374	SPC-009 หมูบ้านชิชา	13.67652	100.462701	doh	working	2022-06-09T00:00:00	14:00:00	15:00:00	11	126	4337	2700	1.61
375	SPC-009 หมูบ้านชิชา	13.67652	100.462701	doh	working	2022-06-09T00:00:00	15:00:00	16:00:00	10	126	4408	2700	1.63
376	SPC-009 หมูบ้านชิชา	13.67652	100.462701	doh	working	2022-06-09T00:00:00	16:00:00	17:00:00	12	201	5803	2700	2.15
377	SPC-009 หมูบ้านชิชา	13.67652	100.462701	doh	working	2022-06-09T00:00:00	17:00:00	18:00:00	10	166	3749	2700	1.39
378	SPC-009 หมูบ้านชิชา	13.67652	100.462701	doh	working	2022-06-09T00:00:00	18:00:00	19:00:00	44	113	910	2700	0.34
379	SPC-009 หมูบ้านชิชา	13.67652	100.462701	doh	working	2022-07-09T00:00:00	5:00:00	6:00:00	16	53	968	2700	0.36
380	SPC-009 หมูบ้านชิชา	13.67652	100.462701	doh	working	2022-07-09T00:00:00	6:00:00	7:00:00	12	175	2926	2700	1.08
381	SPC-009 หมูบ้านชิชา	13.67652	100.462701	doh	working	2022-07-09T00:00:00	7:00:00	8:00:00	12	119	3206	2700	1.19
382	SPC-009 หมูบ้านชิชา	13.67652	100.462701	doh	working	2022-07-09T00:00:00	8:00:00	9:00:00	12	131	4370	2700	1.62
383	SPC-009 หมูบ้านชิชา	13.67652	100.462701	doh	working	2022-07-09T00:00:00	9:00:00	10:00:00	11	128	4473	2700	1.66
384	SPC-009 หมูบ้านชิชา	13.67652	100.462701	doh	working	2022-07-09T00:00:00	10:00:00	11:00:00	9	125	4340	2700	1.61
385	SPC-009 หมูบ้านชิชา	13.67652	100.462701	doh	working	2022-07-09T00:00:00	11:00:00	12:00:00	12	139	3106	2700	1.15
386	SPC-009 หมูบ้านชิชา	13.67652	100.462701	doh	working	2022-07-09T00:00:00	12:00:00	13:00:00	10	202	4669	2700	1.73
387	SPC-009 หมูบ้านชิชา	13.67652	100.462701	doh	working	2022-07-09T00:00:00	13:00:00	14:00:00	9	129	4227	2700	1.57
388	SPC-009 หมูบ้านชิชา	13.67652	100.462701	doh	working	2022-07-09T00:00:00	14:00:00	15:00:00	7	129	4204	2700	1.56
389	SPC-009 หมูบ้านชิชา	13.67652	100.462701	doh	working	2022-07-09T00:00:00	15:00:00	16:00:00	11	127	4218	2700	1.56
390	SPC-009 หมูบ้านชิชา	13.67652	100.462701	doh	working	2022-07-09T00:00:00	16:00:00	17:00:00	9	185	5549	2700	2.06
391	SPC-009 หมูบ้านชิชา	13.67652	100.462701	doh	working	2022-07-09T00:00:00	17:00:00	18:00:00	13	144	3498	2700	1.30
392	SPC-009 หมูบ้านชิชา	13.67652	100.462701	doh	working	2022-07-09T00:00:00	18:00:00	19:00:00	39	95	905	2700	0.34
393	PER-9-027 304-เขตมีนบุรี จ.กรุงเทพมหานคร	13.81171565	100.7873394	doh	working	2022-07-09T00:00:00	5:00:00	6:00:00	57	22	543	2700	0.20
394	PER-9-027 304-เขตมีนบุรี จ.กรุงเทพมหานคร	13.81171565	100.7873394	doh	working	2022-07-09T00:00:00	6:00:00	7:00:00	40	65	1670	2700	0.62
395	PER-9-027 304-เขตมีนบุรี จ.กรุงเทพมหานคร	13.81171565	100.7873394	doh	working	2022-07-09T00:00:00	7:00:00	8:00:00	39	115	3184	2700	1.18
396	PER-9-027 304-เขตมีนบุรี จ.กรุงเทพมหานคร	13.81171565	100.7873394	doh	working	2022-07-09T00:00:00	8:00:00	9:00:00	45	101	1709	2700	0.63
397	PER-9-027 304-เขตมีนบุรี จ.กรุงเทพมหานคร	13.81171565	100.7873394	doh	working	2022-07-09T00:00:00	9:00:00	10:00:00	44	101	1652	2700	0.61
398	PER-9-027 304-เขตมีนบุรี จ.กรุงเทพมหานคร	13.81171565	100.7873394	doh	working	2022-07-09T00:00:00	10:00:00	11:00:00	42	100	1666	2700	0.62
399	PER-9-027 304-เขตมีนบุรี จ.กรุงเทพมหานคร	13.81171565	100.7873394	doh	working	2022-07-09T00:00:00	11:00:00	12:00:00	54	78	1120	2700	0.41
400	PER-9-027 304-เขตมีนบุรี จ.กรุงเทพมหานคร	13.81171565	100.7873394	doh	working	2022-07-09T00:00:00	12:00:00	13:00:00	33	85	955	2700	0.35
401	PER-9-027 304-เขตมีนบุรี จ.กรุงเทพมหานคร	13.81171565	100.7873394	doh	working	2022-07-09T00:00:00	13:00:00	14:00:00	41	100	1644	2700	0.61
402	PER-9-027 304-เขตมีนบุรี จ.กรุงเทพมหานคร	13.81171565	100.7873394	doh	working	2022-07-09T00:00:00	14:00:00	15:00:00	43	96	1583	2700	0.59
403	PER-9-027 304-เขตมีนบุรี จ.กรุงเทพมหานคร	13.81171565	100.7873394	doh	working	2022-07-09T00:00:00	15:00:00	16:00:00	44	99	1597	2700	0.59
404	PER-9-027 304-เขตมีนบุรี จ.กรุงเทพมหานคร	13.81171565	100.7873394	doh	working	2022-07-09T00:00:00	16:00:00	17:00:00	37	78	1862	2700	0.69
405	PER-9-027 304-เขตมีนบุรี จ.กรุงเทพมหานคร	13.81171565	100.7873394	doh	working	2022-07-09T00:00:00	17:00:00	18:00:00	46	86	2243	2700	0.83
406	PER-9-027 304-เขตมีนบุรี จ.กรุงเทพมหานคร	13.81171565	100.7873394	doh	working	2022-07-09T00:00:00	18:00:00	19:00:00	55	49	2105	2700	0.78
407	PER-9-027 304-เขตมีนบุรี จ.กรุงเทพมหานคร	13.81171565	100.7873394	doh	working	2022-08-09T00:00:00	5:00:00	6:00:00	51	32	468	2700	0.17
408	PER-9-027 304-เขตมีนบุรี จ.กรุงเทพมหานคร	13.81171565	100.7873394	doh	working	2022-08-09T00:00:00	6:00:00	7:00:00	36	104	1511	2700	0.56
409	PER-9-027 304-เขตมีนบุรี จ.กรุงเทพมหานคร	13.81171565	100.7873394	doh	working	2022-08-09T00:00:00	7:00:00	8:00:00	45	164	2222	2700	0.82
410	PER-9-027 304-เขตมีนบุรี จ.กรุงเทพมหานคร	13.81171565	100.7873394	doh	working	2022-08-09T00:00:00	8:00:00	9:00:00	40	142	2590	2700	0.96
411	PER-9-027 304-เขตมีนบุรี จ.กรุงเทพมหานคร	13.81171565	100.7873394	doh	working	2022-08-09T00:00:00	9:00:00	10:00:00	37	141	2593	2700	0.96
412	PER-9-027 304-เขตมีนบุรี จ.กรุงเทพมหานคร	13.81171565	100.7873394	doh	working	2022-08-09T00:00:00	10:00:00	11:00:00	35	140	2560	2700	0.95
413	PER-9-027 304-เขตมีนบุรี จ.กรุงเทพมหานคร	13.81171565	100.7873394	doh	working	2022-08-09T00:00:00	11:00:00	12:00:00	52	121	1064	2700	0.39
414	PER-9-027 304-เขตมีนบุรี จ.กรุงเทพมหานคร	13.81171565	100.7873394	doh	working	2022-08-09T00:00:00	12:00:00	13:00:00	41	76	1430	2700	0.53
415	PER-9-027 304-เขตมีนบุรี จ.กรุงเทพมหานคร	13.81171565	100.7873394	doh	working	2022-08-09T00:00:00	13:00:00	14:00:00	37	141	2565	2700	0.95
416	PER-9-027 304-เขตมีนบุรี จ.กรุงเทพมหานคร	13.81171565	100.7873394	doh	working	2022-08-09T00:00:00	14:00:00	15:00:00	39	138	2482	2700	0.92
417	PER-9-027 304-เขตมีนบุรี จ.กรุงเทพมหานคร	13.81171565	100.7873394	doh	working	2022-08-09T00:00:00	15:00:00	16:00:00	36	138	2427	2700	0.90
418	PER-9-027 304-เขตมีนบุรี จ.กรุงเทพมหานคร	13.81171565	100.7873394	doh	working	2022-08-09T00:00:00	16:00:00	17:00:00	28	69	1366	2700	0.51
419	PER-9-027 304-เขตมีนบุรี จ.กรุงเทพมหานคร	13.81171565	100.7873394	doh	working	2022-08-09T00:00:00	17:00:00	18:00:00	37	131	2698	2700	1.00
420	PER-9-027 304-เขตมีนบุรี จ.กรุงเทพมหานคร	13.81171565	100.7873394	doh	working	2022-08-09T00:00:00	18:00:00	19:00:00	40	55	1155	2700	0.43
421	PER-9-027 304-เขตมีนบุรี จ.กรุงเทพมหานคร	13.81171565	100.7873394	doh	working	2022-09-09T00:00:00	5:00:00	6:00:00	63	24	486	2700	0.18
422	PER-9-027 304-เขตมีนบุรี จ.กรุงเทพมหานคร	13.81171565	100.7873394	doh	working	2022-09-09T00:00:00	6:00:00	7:00:00	45	71	1481	2700	0.55
423	PER-9-027 304-เขตมีนบุรี จ.กรุงเทพมหานคร	13.81171565	100.7873394	doh	working	2022-09-09T00:00:00	7:00:00	8:00:00	35	92	1922	2700	0.71
424	PER-9-027 304-เขตมีนบุรี จ.กรุงเทพมหานคร	13.81171565	100.7873394	doh	working	2022-09-09T00:00:00	8:00:00	9:00:00	50	34	646	2700	0.24
425	PER-9-027 304-เขตมีนบุรี จ.กรุงเทพมหานคร	13.81171565	100.7873394	doh	working	2022-09-09T00:00:00	9:00:00	10:00:00	47	31	594	2700	0.22
426	PER-9-027 304-เขตมีนบุรี จ.กรุงเทพมหานคร	13.81171565	100.7873394	doh	working	2022-09-09T00:00:00	10:00:00	11:00:00	47	28	542	2700	0.20
427	PER-9-027 304-เขตมีนบุรี จ.กรุงเทพมหานคร	13.81171565	100.7873394	doh	working	2022-09-09T00:00:00	11:00:00	12:00:00	43	84	1821	2700	0.67
428	PER-9-027 304-เขตมีนบุรี จ.กรุงเทพมหานคร	13.81171565	100.7873394	doh	working	2022-09-09T00:00:00	12:00:00	13:00:00	41	160	2390	2700	0.89
429	PER-9-027 304-เขตมีนบุรี จ.กรุงเทพมหานคร	13.81171565	100.7873394	doh	working	2022-09-09T00:00:00	13:00:00	14:00:00	47	33	602	2700	0.22
430	PER-9-027 304-เขตมีนบุรี จ.กรุงเทพมหานคร	13.81171565	100.7873394	doh	working	2022-09-09T00:00:00	14:00:00	15:00:00	46	30	521	2700	0.19
431	PER-9-027 304-เขตมีนบุรี จ.กรุงเทพมหานคร	13.81171565	100.7873394	doh	working	2022-09-09T00:00:00	15:00:00	16:00:00	46	33	523	2700	0.19
432	PER-9-027 304-เขตมีนบุรี จ.กรุงเทพมหานคร	13.81171565	100.7873394	doh	working	2022-09-09T00:00:00	16:00:00	17:00:00	44	99	1523	2700	0.56
433	PER-9-027 304-เขตมีนบุรี จ.กรุงเทพมหานคร	13.81171565	100.7873394	doh	working	2022-09-09T00:00:00	17:00:00	18:00:00	41	99	2974	2700	1.10
434	PER-9-027 304-เขตมีนบุรี จ.กรุงเทพมหานคร	13.81171565	100.7873394	doh	working	2022-09-09T00:00:00	18:00:00	19:00:00	35	72	2058	2700	0.76
435	ถ.ราชพฤกษ์ -> ทล.345 กม.3+890	13.92287333	100.476562	drr	working	2022-05-09T00:00:00	5:00:00	6:00:00	47	19	912	2700	0.34
436	ถ.ราชพฤกษ์ -> ทล.345 กม.3+890	13.92287333	100.476562	drr	working	2022-05-09T00:00:00	6:00:00	7:00:00	34	61	2746	2700	1.02
437	ถ.ราชพฤกษ์ -> ทล.345 กม.3+890	13.92287333	100.476562	drr	working	2022-05-09T00:00:00	7:00:00	8:00:00	32	54	2262	2700	0.84
438	ถ.ราชพฤกษ์ -> ทล.345 กม.3+890	13.92287333	100.476562	drr	working	2022-05-09T00:00:00	8:00:00	9:00:00	30	82	3523	2700	1.30
439	ถ.ราชพฤกษ์ -> ทล.345 กม.3+890	13.92287333	100.476562	drr	working	2022-05-09T00:00:00	9:00:00	10:00:00	25	81	3493	2700	1.29
440	ถ.ราชพฤกษ์ -> ทล.345 กม.3+890	13.92287333	100.476562	drr	working	2022-05-09T00:00:00	10:00:00	11:00:00	26	81	3478	2700	1.29
441	ถ.ราชพฤกษ์ -> ทล.345 กม.3+890	13.92287333	100.476562	drr	working	2022-05-09T00:00:00	11:00:00	12:00:00	37	84	2576	2700	0.95
442	ถ.ราชพฤกษ์ -> ทล.345 กม.3+890	13.92287333	100.476562	drr	working	2022-05-09T00:00:00	12:00:00	13:00:00	32	72	3088	2700	1.14
443	ถ.ราชพฤกษ์ -> ทล.345 กม.3+890	13.92287333	100.476562	drr	working	2022-05-09T00:00:00	13:00:00	14:00:00	25	80	3499	2700	1.30
444	ถ.ราชพฤกษ์ -> ทล.345 กม.3+890	13.92287333	100.476562	drr	working	2022-05-09T00:00:00	14:00:00	15:00:00	26	77	3382	2700	1.25
445	ถ.ราชพฤกษ์ -> ทล.345 กม.3+890	13.92287333	100.476562	drr	working	2022-05-09T00:00:00	15:00:00	16:00:00	27	81	3454	2700	1.28
446	ถ.ราชพฤกษ์ -> ทล.345 กม.3+890	13.92287333	100.476562	drr	working	2022-05-09T00:00:00	16:00:00	17:00:00	42	96	3100	2700	1.15
447	ถ.ราชพฤกษ์ -> ทล.345 กม.3+890	13.92287333	100.476562	drr	working	2022-05-09T00:00:00	17:00:00	18:00:00	31	131	3541	2700	1.31
448	ถ.ราชพฤกษ์ -> ทล.345 กม.3+890	13.92287333	100.476562	drr	working	2022-05-09T00:00:00	18:00:00	19:00:00	40	72	2606	2700	0.97
449	ถ.ราชพฤกษ์ -> ทล.345 กม.3+890	13.92287333	100.476562	drr	working	2022-06-09T00:00:00	5:00:00	6:00:00	46	18	817	2700	0.30
450	ถ.ราชพฤกษ์ -> ทล.345 กม.3+890	13.92287333	100.476562	drr	working	2022-06-09T00:00:00	6:00:00	7:00:00	33	52	2376	2700	0.88
451	ถ.ราชพฤกษ์ -> ทล.345 กม.3+890	13.92287333	100.476562	drr	working	2022-06-09T00:00:00	7:00:00	8:00:00	40	93	4804	2700	1.78
452	ถ.ราชพฤกษ์ -> ทล.345 กม.3+890	13.92287333	100.476562	drr	working	2022-06-09T00:00:00	8:00:00	9:00:00	37	80	4024	2700	1.49
453	ถ.ราชพฤกษ์ -> ทล.345 กม.3+890	13.92287333	100.476562	drr	working	2022-06-09T00:00:00	9:00:00	10:00:00	34	75	4026	2700	1.49
454	ถ.ราชพฤกษ์ -> ทล.345 กม.3+890	13.92287333	100.476562	drr	working	2022-06-09T00:00:00	10:00:00	11:00:00	36	78	3917	2700	1.45
455	ถ.ราชพฤกษ์ -> ทล.345 กม.3+890	13.92287333	100.476562	drr	working	2022-06-09T00:00:00	11:00:00	12:00:00	35	91	3291	2700	1.22
456	ถ.ราชพฤกษ์ -> ทล.345 กม.3+890	13.92287333	100.476562	drr	working	2022-06-09T00:00:00	12:00:00	13:00:00	46	101	2953	2700	1.09
457	ถ.ราชพฤกษ์ -> ทล.345 กม.3+890	13.92287333	100.476562	drr	working	2022-06-09T00:00:00	13:00:00	14:00:00	35	76	3935	2700	1.46
458	ถ.ราชพฤกษ์ -> ทล.345 กม.3+890	13.92287333	100.476562	drr	working	2022-06-09T00:00:00	14:00:00	15:00:00	32	78	3827	2700	1.42
459	ถ.ราชพฤกษ์ -> ทล.345 กม.3+890	13.92287333	100.476562	drr	working	2022-06-09T00:00:00	15:00:00	16:00:00	33	77	3907	2700	1.45
460	ถ.ราชพฤกษ์ -> ทล.345 กม.3+890	13.92287333	100.476562	drr	working	2022-06-09T00:00:00	16:00:00	17:00:00	30	159	3548	2700	1.31
461	ถ.ราชพฤกษ์ -> ทล.345 กม.3+890	13.92287333	100.476562	drr	working	2022-06-09T00:00:00	17:00:00	18:00:00	27	140	2754	2700	1.02
462	ถ.ราชพฤกษ์ -> ทล.345 กม.3+890	13.92287333	100.476562	drr	working	2022-06-09T00:00:00	18:00:00	19:00:00	21	85	2785	2700	1.03
463	ถ.ราชพฤกษ์ -> ทล.345 กม.3+890	13.92287333	100.476562	drr	working	2022-07-09T00:00:00	5:00:00	6:00:00	49	11	127	2700	0.05
464	ถ.ราชพฤกษ์ -> ทล.345 กม.3+890	13.92287333	100.476562	drr	working	2022-07-09T00:00:00	6:00:00	7:00:00	35	34	386	2700	0.14
465	ถ.ราชพฤกษ์ -> ทล.345 กม.3+890	13.92287333	100.476562	drr	working	2022-07-09T00:00:00	7:00:00	8:00:00	32	110	3275	2700	1.21
466	ถ.ราชพฤกษ์ -> ทล.345 กม.3+890	13.92287333	100.476562	drr	working	2022-07-09T00:00:00	8:00:00	9:00:00	24	119	2954	2700	1.09
467	ถ.ราชพฤกษ์ -> ทล.345 กม.3+890	13.92287333	100.476562	drr	working	2022-07-09T00:00:00	9:00:00	10:00:00	23	117	2960	2700	1.10
468	ถ.ราชพฤกษ์ -> ทล.345 กม.3+890	13.92287333	100.476562	drr	working	2022-07-09T00:00:00	10:00:00	11:00:00	23	115	2831	2700	1.05
469	ถ.ราชพฤกษ์ -> ทล.345 กม.3+890	13.92287333	100.476562	drr	working	2022-07-09T00:00:00	11:00:00	12:00:00	45	92	3327	2700	1.23
470	ถ.ราชพฤกษ์ -> ทล.345 กม.3+890	13.92287333	100.476562	drr	working	2022-07-09T00:00:00	12:00:00	13:00:00	33	54	2212	2700	0.82
471	ถ.ราชพฤกษ์ -> ทล.345 กม.3+890	13.92287333	100.476562	drr	working	2022-07-09T00:00:00	13:00:00	14:00:00	21	116	2847	2700	1.05
472	ถ.ราชพฤกษ์ -> ทล.345 กม.3+890	13.92287333	100.476562	drr	working	2022-07-09T00:00:00	14:00:00	15:00:00	19	113	2887	2700	1.07
473	ถ.ราชพฤกษ์ -> ทล.345 กม.3+890	13.92287333	100.476562	drr	working	2022-07-09T00:00:00	15:00:00	16:00:00	22	116	2848	2700	1.05
474	ถ.ราชพฤกษ์ -> ทล.345 กม.3+890	13.92287333	100.476562	drr	working	2022-07-09T00:00:00	16:00:00	17:00:00	40	76	1840	2700	0.68
475	ถ.ราชพฤกษ์ -> ทล.345 กม.3+890	13.92287333	100.476562	drr	working	2022-07-09T00:00:00	17:00:00	18:00:00	33	105	4200	2700	1.56
476	ถ.ราชพฤกษ์ -> ทล.345 กม.3+890	13.92287333	100.476562	drr	working	2022-07-09T00:00:00	18:00:00	19:00:00	31	89	3688	2700	1.37
477	ถ.ราชพฤกษ์ -> ทล.345 กม.3+890	13.92287333	100.476562	drr	working	2022-08-09T00:00:00	5:00:00	6:00:00	53	20	702	2700	0.26
478	ถ.ราชพฤกษ์ -> ทล.345 กม.3+890	13.92287333	100.476562	drr	working	2022-08-09T00:00:00	6:00:00	7:00:00	37	57	2074	2700	0.77
479	ถ.ราชพฤกษ์ -> ทล.345 กม.3+890	13.92287333	100.476562	drr	working	2022-08-09T00:00:00	7:00:00	8:00:00	29	141	4621	2700	1.71
480	ถ.ราชพฤกษ์ -> ทล.345 กม.3+890	13.92287333	100.476562	drr	working	2022-08-09T00:00:00	8:00:00	9:00:00	25	83	3526	2700	1.31
481	ถ.ราชพฤกษ์ -> ทล.345 กม.3+890	13.92287333	100.476562	drr	working	2022-08-09T00:00:00	9:00:00	10:00:00	24	79	3381	2700	1.25
482	ถ.ราชพฤกษ์ -> ทล.345 กม.3+890	13.92287333	100.476562	drr	working	2022-08-09T00:00:00	10:00:00	11:00:00	24	79	3355	2700	1.24
483	ถ.ราชพฤกษ์ -> ทล.345 กม.3+890	13.92287333	100.476562	drr	working	2022-08-09T00:00:00	11:00:00	12:00:00	30	81	2205	2700	0.82
484	ถ.ราชพฤกษ์ -> ทล.345 กม.3+890	13.92287333	100.476562	drr	working	2022-08-09T00:00:00	12:00:00	13:00:00	27	76	2923	2700	1.08
485	ถ.ราชพฤกษ์ -> ทล.345 กม.3+890	13.92287333	100.476562	drr	working	2022-08-09T00:00:00	13:00:00	14:00:00	20	79	3326	2700	1.23
486	ถ.ราชพฤกษ์ -> ทล.345 กม.3+890	13.92287333	100.476562	drr	working	2022-08-09T00:00:00	14:00:00	15:00:00	20	78	3321	2700	1.23
487	ถ.ราชพฤกษ์ -> ทล.345 กม.3+890	13.92287333	100.476562	drr	working	2022-08-09T00:00:00	15:00:00	16:00:00	22	78	3452	2700	1.28
488	ถ.ราชพฤกษ์ -> ทล.345 กม.3+890	13.92287333	100.476562	drr	working	2022-08-09T00:00:00	16:00:00	17:00:00	26	97	3662	2700	1.36
489	ถ.ราชพฤกษ์ -> ทล.345 กม.3+890	13.92287333	100.476562	drr	working	2022-08-09T00:00:00	17:00:00	18:00:00	32	126	4209	2700	1.56
490	ถ.ราชพฤกษ์ -> ทล.345 กม.3+890	13.92287333	100.476562	drr	working	2022-08-09T00:00:00	18:00:00	19:00:00	49	105	1687	2700	0.62
491	ถ.ราชพฤกษ์ -> ทล.345 กม.3+890	13.92287333	100.476562	drr	working	2022-09-09T00:00:00	5:00:00	6:00:00	48	18	442	2700	0.16
492	ถ.ราชพฤกษ์ -> ทล.345 กม.3+890	13.92287333	100.476562	drr	working	2022-09-09T00:00:00	6:00:00	7:00:00	34	53	1386	2700	0.51
493	ถ.ราชพฤกษ์ -> ทล.345 กม.3+890	13.92287333	100.476562	drr	working	2022-09-09T00:00:00	7:00:00	8:00:00	36	59	1868	2700	0.69
494	ถ.ราชพฤกษ์ -> ทล.345 กม.3+890	13.92287333	100.476562	drr	working	2022-09-09T00:00:00	8:00:00	9:00:00	44	90	4254	2700	1.58
495	ถ.ราชพฤกษ์ -> ทล.345 กม.3+890	13.92287333	100.476562	drr	working	2022-09-09T00:00:00	9:00:00	10:00:00	43	86	4105	2700	1.52
496	ถ.ราชพฤกษ์ -> ทล.345 กม.3+890	13.92287333	100.476562	drr	working	2022-09-09T00:00:00	10:00:00	11:00:00	42	89	4088	2700	1.51
497	ถ.ราชพฤกษ์ -> ทล.345 กม.3+890	13.92287333	100.476562	drr	working	2022-09-09T00:00:00	11:00:00	12:00:00	27	101	4835	2700	1.79
498	ถ.ราชพฤกษ์ -> ทล.345 กม.3+890	13.92287333	100.476562	drr	working	2022-09-09T00:00:00	12:00:00	13:00:00	32	64	2775	2700	1.03
499	ถ.ราชพฤกษ์ -> ทล.345 กม.3+890	13.92287333	100.476562	drr	working	2022-09-09T00:00:00	13:00:00	14:00:00	43	85	4187	2700	1.55
500	ถ.ราชพฤกษ์ -> ทล.345 กม.3+890	13.92287333	100.476562	drr	working	2022-09-09T00:00:00	14:00:00	15:00:00	39	89	4123	2700	1.53
501	ถ.ราชพฤกษ์ -> ทล.345 กม.3+890	13.92287333	100.476562	drr	working	2022-09-09T00:00:00	15:00:00	16:00:00	43	87	4170	2700	1.54
502	ถ.ราชพฤกษ์ -> ทล.345 กม.3+890	13.92287333	100.476562	drr	working	2022-09-09T00:00:00	16:00:00	17:00:00	46	78	3884	2700	1.44
503	ถ.ราชพฤกษ์ -> ทล.345 กม.3+890	13.92287333	100.476562	drr	working	2022-09-09T00:00:00	17:00:00	18:00:00	26	56	2219	2700	0.82
504	ถ.ราชพฤกษ์ -> ทล.345 กม.3+890	13.92287333	100.476562	drr	working	2022-09-09T00:00:00	18:00:00	19:00:00	44	68	2940	2700	1.09
505	ถ.ราชพฤกษ์ -> ถ.รัตนาธิเบศร์ กม.3+850	13.922811	100.4769327	drr	working	2022-05-09T00:00:00	5:00:00	6:00:00	62	24	1133	2700	0.42
506	ถ.ราชพฤกษ์ -> ถ.รัตนาธิเบศร์ กม.3+850	13.922811	100.4769327	drr	working	2022-05-09T00:00:00	6:00:00	7:00:00	44	72	3639	2700	1.35
507	ถ.ราชพฤกษ์ -> ถ.รัตนาธิเบศร์ กม.3+850	13.922811	100.4769327	drr	working	2022-05-09T00:00:00	7:00:00	8:00:00	34	109	4067	2700	1.51
508	ถ.ราชพฤกษ์ -> ถ.รัตนาธิเบศร์ กม.3+850	13.922811	100.4769327	drr	working	2022-05-09T00:00:00	8:00:00	9:00:00	42	118	2782	2700	1.03
509	ถ.ราชพฤกษ์ -> ถ.รัตนาธิเบศร์ กม.3+850	13.922811	100.4769327	drr	working	2022-05-09T00:00:00	9:00:00	10:00:00	38	115	2748	2700	1.02
510	ถ.ราชพฤกษ์ -> ถ.รัตนาธิเบศร์ กม.3+850	13.922811	100.4769327	drr	working	2022-05-09T00:00:00	10:00:00	11:00:00	39	118	2686	2700	0.99
511	ถ.ราชพฤกษ์ -> ถ.รัตนาธิเบศร์ กม.3+850	13.922811	100.4769327	drr	working	2022-05-09T00:00:00	11:00:00	12:00:00	36	81	1330	2700	0.49
512	ถ.ราชพฤกษ์ -> ถ.รัตนาธิเบศร์ กม.3+850	13.922811	100.4769327	drr	working	2022-05-09T00:00:00	12:00:00	13:00:00	38	90	2557	2700	0.95
513	ถ.ราชพฤกษ์ -> ถ.รัตนาธิเบศร์ กม.3+850	13.922811	100.4769327	drr	working	2022-05-09T00:00:00	13:00:00	14:00:00	40	114	2637	2700	0.98
514	ถ.ราชพฤกษ์ -> ถ.รัตนาธิเบศร์ กม.3+850	13.922811	100.4769327	drr	working	2022-05-09T00:00:00	14:00:00	15:00:00	37	115	2629	2700	0.97
515	ถ.ราชพฤกษ์ -> ถ.รัตนาธิเบศร์ กม.3+850	13.922811	100.4769327	drr	working	2022-05-09T00:00:00	15:00:00	16:00:00	41	112	2765	2700	1.02
516	ถ.ราชพฤกษ์ -> ถ.รัตนาธิเบศร์ กม.3+850	13.922811	100.4769327	drr	working	2022-05-09T00:00:00	16:00:00	17:00:00	42	137	5221	2700	1.93
517	ถ.ราชพฤกษ์ -> ถ.รัตนาธิเบศร์ กม.3+850	13.922811	100.4769327	drr	working	2022-05-09T00:00:00	17:00:00	18:00:00	35	88	3727	2700	1.38
518	ถ.ราชพฤกษ์ -> ถ.รัตนาธิเบศร์ กม.3+850	13.922811	100.4769327	drr	working	2022-05-09T00:00:00	18:00:00	19:00:00	35	149	4438	2700	1.64
519	ถ.ราชพฤกษ์ -> ถ.รัตนาธิเบศร์ กม.3+850	13.922811	100.4769327	drr	working	2022-06-09T00:00:00	5:00:00	6:00:00	46	24	769	2700	0.28
520	ถ.ราชพฤกษ์ -> ถ.รัตนาธิเบศร์ กม.3+850	13.922811	100.4769327	drr	working	2022-06-09T00:00:00	6:00:00	7:00:00	33	72	2393	2700	0.89
521	ถ.ราชพฤกษ์ -> ถ.รัตนาธิเบศร์ กม.3+850	13.922811	100.4769327	drr	working	2022-06-09T00:00:00	7:00:00	8:00:00	38	115	3383	2700	1.25
522	ถ.ราชพฤกษ์ -> ถ.รัตนาธิเบศร์ กม.3+850	13.922811	100.4769327	drr	working	2022-06-09T00:00:00	8:00:00	9:00:00	36	51	1332	2700	0.49
523	ถ.ราชพฤกษ์ -> ถ.รัตนาธิเบศร์ กม.3+850	13.922811	100.4769327	drr	working	2022-06-09T00:00:00	9:00:00	10:00:00	33	47	1257	2700	0.47
524	ถ.ราชพฤกษ์ -> ถ.รัตนาธิเบศร์ กม.3+850	13.922811	100.4769327	drr	working	2022-06-09T00:00:00	10:00:00	11:00:00	31	46	1164	2700	0.43
525	ถ.ราชพฤกษ์ -> ถ.รัตนาธิเบศร์ กม.3+850	13.922811	100.4769327	drr	working	2022-06-09T00:00:00	11:00:00	12:00:00	44	125	3677	2700	1.36
526	ถ.ราชพฤกษ์ -> ถ.รัตนาธิเบศร์ กม.3+850	13.922811	100.4769327	drr	working	2022-06-09T00:00:00	12:00:00	13:00:00	40	84	1860	2700	0.69
527	ถ.ราชพฤกษ์ -> ถ.รัตนาธิเบศร์ กม.3+850	13.922811	100.4769327	drr	working	2022-06-09T00:00:00	13:00:00	14:00:00	32	48	1185	2700	0.44
528	ถ.ราชพฤกษ์ -> ถ.รัตนาธิเบศร์ กม.3+850	13.922811	100.4769327	drr	working	2022-06-09T00:00:00	14:00:00	15:00:00	33	50	1209	2700	0.45
529	ถ.ราชพฤกษ์ -> ถ.รัตนาธิเบศร์ กม.3+850	13.922811	100.4769327	drr	working	2022-06-09T00:00:00	15:00:00	16:00:00	31	47	1266	2700	0.47
530	ถ.ราชพฤกษ์ -> ถ.รัตนาธิเบศร์ กม.3+850	13.922811	100.4769327	drr	working	2022-06-09T00:00:00	16:00:00	17:00:00	23	103	2447	2700	0.91
531	ถ.ราชพฤกษ์ -> ถ.รัตนาธิเบศร์ กม.3+850	13.922811	100.4769327	drr	working	2022-06-09T00:00:00	17:00:00	18:00:00	24	112	3570	2700	1.32
532	ถ.ราชพฤกษ์ -> ถ.รัตนาธิเบศร์ กม.3+850	13.922811	100.4769327	drr	working	2022-06-09T00:00:00	18:00:00	19:00:00	42	62	2617	2700	0.97
533	ถ.ราชพฤกษ์ -> ถ.รัตนาธิเบศร์ กม.3+850	13.922811	100.4769327	drr	working	2022-07-09T00:00:00	5:00:00	6:00:00	48	27	835	2700	0.31
534	ถ.ราชพฤกษ์ -> ถ.รัตนาธิเบศร์ กม.3+850	13.922811	100.4769327	drr	working	2022-07-09T00:00:00	6:00:00	7:00:00	35	79	2573	2700	0.95
535	ถ.ราชพฤกษ์ -> ถ.รัตนาธิเบศร์ กม.3+850	13.922811	100.4769327	drr	working	2022-07-09T00:00:00	7:00:00	8:00:00	36	95	1727	2700	0.64
536	ถ.ราชพฤกษ์ -> ถ.รัตนาธิเบศร์ กม.3+850	13.922811	100.4769327	drr	working	2022-07-09T00:00:00	8:00:00	9:00:00	40	95	3893	2700	1.44
537	ถ.ราชพฤกษ์ -> ถ.รัตนาธิเบศร์ กม.3+850	13.922811	100.4769327	drr	working	2022-07-09T00:00:00	9:00:00	10:00:00	35	90	3848	2700	1.43
538	ถ.ราชพฤกษ์ -> ถ.รัตนาธิเบศร์ กม.3+850	13.922811	100.4769327	drr	working	2022-07-09T00:00:00	10:00:00	11:00:00	38	93	3874	2700	1.43
539	ถ.ราชพฤกษ์ -> ถ.รัตนาธิเบศร์ กม.3+850	13.922811	100.4769327	drr	working	2022-07-09T00:00:00	11:00:00	12:00:00	33	61	2046	2700	0.76
540	ถ.ราชพฤกษ์ -> ถ.รัตนาธิเบศร์ กม.3+850	13.922811	100.4769327	drr	working	2022-07-09T00:00:00	12:00:00	13:00:00	35	88	2576	2700	0.95
541	ถ.ราชพฤกษ์ -> ถ.รัตนาธิเบศร์ กม.3+850	13.922811	100.4769327	drr	working	2022-07-09T00:00:00	13:00:00	14:00:00	35	93	3723	2700	1.38
542	ถ.ราชพฤกษ์ -> ถ.รัตนาธิเบศร์ กม.3+850	13.922811	100.4769327	drr	working	2022-07-09T00:00:00	14:00:00	15:00:00	38	91	3701	2700	1.37
543	ถ.ราชพฤกษ์ -> ถ.รัตนาธิเบศร์ กม.3+850	13.922811	100.4769327	drr	working	2022-07-09T00:00:00	15:00:00	16:00:00	38	90	3739	2700	1.38
544	ถ.ราชพฤกษ์ -> ถ.รัตนาธิเบศร์ กม.3+850	13.922811	100.4769327	drr	working	2022-07-09T00:00:00	16:00:00	17:00:00	33	85	3314	2700	1.23
545	ถ.ราชพฤกษ์ -> ถ.รัตนาธิเบศร์ กม.3+850	13.922811	100.4769327	drr	working	2022-07-09T00:00:00	17:00:00	18:00:00	44	98	2513	2700	0.93
546	ถ.ราชพฤกษ์ -> ถ.รัตนาธิเบศร์ กม.3+850	13.922811	100.4769327	drr	working	2022-07-09T00:00:00	18:00:00	19:00:00	32	69	3335	2700	1.24
547	ถ.ราชพฤกษ์ -> ถ.รัตนาธิเบศร์ กม.3+850	13.922811	100.4769327	drr	working	2022-08-09T00:00:00	5:00:00	6:00:00	47	32	696	2700	0.26
548	ถ.ราชพฤกษ์ -> ถ.รัตนาธิเบศร์ กม.3+850	13.922811	100.4769327	drr	working	2022-08-09T00:00:00	6:00:00	7:00:00	34	94	2192	2700	0.81
549	ถ.ราชพฤกษ์ -> ถ.รัตนาธิเบศร์ กม.3+850	13.922811	100.4769327	drr	working	2022-08-09T00:00:00	7:00:00	8:00:00	29	80	2614	2700	0.97
550	ถ.ราชพฤกษ์ -> ถ.รัตนาธิเบศร์ กม.3+850	13.922811	100.4769327	drr	working	2022-08-09T00:00:00	8:00:00	9:00:00	35	92	3340	2700	1.24
551	ถ.ราชพฤกษ์ -> ถ.รัตนาธิเบศร์ กม.3+850	13.922811	100.4769327	drr	working	2022-08-09T00:00:00	9:00:00	10:00:00	34	87	3339	2700	1.24
552	ถ.ราชพฤกษ์ -> ถ.รัตนาธิเบศร์ กม.3+850	13.922811	100.4769327	drr	working	2022-08-09T00:00:00	10:00:00	11:00:00	32	91	3316	2700	1.23
553	ถ.ราชพฤกษ์ -> ถ.รัตนาธิเบศร์ กม.3+850	13.922811	100.4769327	drr	working	2022-08-09T00:00:00	11:00:00	12:00:00	40	63	2215	2700	0.82
554	ถ.ราชพฤกษ์ -> ถ.รัตนาธิเบศร์ กม.3+850	13.922811	100.4769327	drr	working	2022-08-09T00:00:00	12:00:00	13:00:00	35	112	3172	2700	1.17
555	ถ.ราชพฤกษ์ -> ถ.รัตนาธิเบศร์ กม.3+850	13.922811	100.4769327	drr	working	2022-08-09T00:00:00	13:00:00	14:00:00	32	87	3225	2700	1.19
556	ถ.ราชพฤกษ์ -> ถ.รัตนาธิเบศร์ กม.3+850	13.922811	100.4769327	drr	working	2022-08-09T00:00:00	14:00:00	15:00:00	31	90	3280	2700	1.21
557	ถ.ราชพฤกษ์ -> ถ.รัตนาธิเบศร์ กม.3+850	13.922811	100.4769327	drr	working	2022-08-09T00:00:00	15:00:00	16:00:00	33	91	3282	2700	1.22
558	ถ.ราชพฤกษ์ -> ถ.รัตนาธิเบศร์ กม.3+850	13.922811	100.4769327	drr	working	2022-08-09T00:00:00	16:00:00	17:00:00	31	90	4026	2700	1.49
559	ถ.ราชพฤกษ์ -> ถ.รัตนาธิเบศร์ กม.3+850	13.922811	100.4769327	drr	working	2022-08-09T00:00:00	17:00:00	18:00:00	28	129	3517	2700	1.30
560	ถ.ราชพฤกษ์ -> ถ.รัตนาธิเบศร์ กม.3+850	13.922811	100.4769327	drr	working	2022-08-09T00:00:00	18:00:00	19:00:00	28	62	3115	2700	1.15
561	ถ.ราชพฤกษ์ -> ถ.รัตนาธิเบศร์ กม.3+850	13.922811	100.4769327	drr	working	2022-09-09T00:00:00	5:00:00	6:00:00	55	50	1178	2700	0.44
562	ถ.ราชพฤกษ์ -> ถ.รัตนาธิเบศร์ กม.3+850	13.922811	100.4769327	drr	working	2022-09-09T00:00:00	6:00:00	7:00:00	39	156	3679	2700	1.36
563	ถ.ราชพฤกษ์ -> ถ.รัตนาธิเบศร์ กม.3+850	13.922811	100.4769327	drr	working	2022-09-09T00:00:00	7:00:00	8:00:00	34	164	5037	2700	1.87
564	ถ.ราชพฤกษ์ -> ถ.รัตนาธิเบศร์ กม.3+850	13.922811	100.4769327	drr	working	2022-09-09T00:00:00	8:00:00	9:00:00	36	106	3503	2700	1.30
565	ถ.ราชพฤกษ์ -> ถ.รัตนาธิเบศร์ กม.3+850	13.922811	100.4769327	drr	working	2022-09-09T00:00:00	9:00:00	10:00:00	33	103	3385	2700	1.25
566	ถ.ราชพฤกษ์ -> ถ.รัตนาธิเบศร์ กม.3+850	13.922811	100.4769327	drr	working	2022-09-09T00:00:00	10:00:00	11:00:00	32	105	3372	2700	1.25
567	ถ.ราชพฤกษ์ -> ถ.รัตนาธิเบศร์ กม.3+850	13.922811	100.4769327	drr	working	2022-09-09T00:00:00	11:00:00	12:00:00	41	104	3367	2700	1.25
568	ถ.ราชพฤกษ์ -> ถ.รัตนาธิเบศร์ กม.3+850	13.922811	100.4769327	drr	working	2022-09-09T00:00:00	12:00:00	13:00:00	43	65	1864	2700	0.69
569	ถ.ราชพฤกษ์ -> ถ.รัตนาธิเบศร์ กม.3+850	13.922811	100.4769327	drr	working	2022-09-09T00:00:00	13:00:00	14:00:00	31	104	3390	2700	1.26
570	ถ.ราชพฤกษ์ -> ถ.รัตนาธิเบศร์ กม.3+850	13.922811	100.4769327	drr	working	2022-09-09T00:00:00	14:00:00	15:00:00	31	102	3452	2700	1.28
571	ถ.ราชพฤกษ์ -> ถ.รัตนาธิเบศร์ กม.3+850	13.922811	100.4769327	drr	working	2022-09-09T00:00:00	15:00:00	16:00:00	31	101	3458	2700	1.28
572	ถ.ราชพฤกษ์ -> ถ.รัตนาธิเบศร์ กม.3+850	13.922811	100.4769327	drr	working	2022-09-09T00:00:00	16:00:00	17:00:00	41	127	2243	2700	0.83
573	ถ.ราชพฤกษ์ -> ถ.รัตนาธิเบศร์ กม.3+850	13.922811	100.4769327	drr	working	2022-09-09T00:00:00	17:00:00	18:00:00	37	140	3198	2700	1.18
574	ถ.ราชพฤกษ์ -> ถ.รัตนาธิเบศร์ กม.3+850	13.922811	100.4769327	drr	working	2022-09-09T00:00:00	18:00:00	19:00:00	47	49	2080	2700	0.77
575	ถ.แจ้งวัฒนะ -> ถ.ชัยพฤกษ์ N : 13.910287  E : 100.499288	13.91038007	100.4993554	drr	working	2022-05-09T00:00:00	5:00:00	6:00:00	19	69	743	1800	0.41
576	ถ.แจ้งวัฒนะ -> ถ.ชัยพฤกษ์ N : 13.910287  E : 100.499288	13.91038007	100.4993554	drr	working	2022-05-09T00:00:00	6:00:00	7:00:00	14	201	2209	1800	1.23
577	ถ.แจ้งวัฒนะ -> ถ.ชัยพฤกษ์ N : 13.910287  E : 100.499288	13.91038007	100.4993554	drr	working	2022-05-09T00:00:00	7:00:00	8:00:00	38	201	1920	1800	1.07
578	ถ.แจ้งวัฒนะ -> ถ.ชัยพฤกษ์ N : 13.910287  E : 100.499288	13.91038007	100.4993554	drr	working	2022-05-09T00:00:00	8:00:00	9:00:00	13	201	1646	1800	0.91
579	ถ.แจ้งวัฒนะ -> ถ.ชัยพฤกษ์ N : 13.910287  E : 100.499288	13.91038007	100.4993554	drr	working	2022-05-09T00:00:00	9:00:00	10:00:00	8	202	1622	1800	0.90
580	ถ.แจ้งวัฒนะ -> ถ.ชัยพฤกษ์ N : 13.910287  E : 100.499288	13.91038007	100.4993554	drr	working	2022-05-09T00:00:00	10:00:00	11:00:00	12	201	1615	1800	0.90
581	ถ.แจ้งวัฒนะ -> ถ.ชัยพฤกษ์ N : 13.910287  E : 100.499288	13.91038007	100.4993554	drr	working	2022-05-09T00:00:00	11:00:00	12:00:00	50	51	760	1800	0.42
582	ถ.แจ้งวัฒนะ -> ถ.ชัยพฤกษ์ N : 13.910287  E : 100.499288	13.91038007	100.4993554	drr	working	2022-05-09T00:00:00	12:00:00	13:00:00	33	61	2025	1800	1.13
583	ถ.แจ้งวัฒนะ -> ถ.ชัยพฤกษ์ N : 13.910287  E : 100.499288	13.91038007	100.4993554	drr	working	2022-05-09T00:00:00	13:00:00	14:00:00	8	202	1509	1800	0.84
584	ถ.แจ้งวัฒนะ -> ถ.ชัยพฤกษ์ N : 13.910287  E : 100.499288	13.91038007	100.4993554	drr	working	2022-05-09T00:00:00	14:00:00	15:00:00	8	201	1530	1800	0.85
585	ถ.แจ้งวัฒนะ -> ถ.ชัยพฤกษ์ N : 13.910287  E : 100.499288	13.91038007	100.4993554	drr	working	2022-05-09T00:00:00	15:00:00	16:00:00	9	202	1577	1800	0.88
586	ถ.แจ้งวัฒนะ -> ถ.ชัยพฤกษ์ N : 13.910287  E : 100.499288	13.91038007	100.4993554	drr	working	2022-05-09T00:00:00	16:00:00	17:00:00	31	52	1307	1800	0.73
587	ถ.แจ้งวัฒนะ -> ถ.ชัยพฤกษ์ N : 13.910287  E : 100.499288	13.91038007	100.4993554	drr	working	2022-05-09T00:00:00	17:00:00	18:00:00	34	58	2244	1800	1.25
588	ถ.แจ้งวัฒนะ -> ถ.ชัยพฤกษ์ N : 13.910287  E : 100.499288	13.91038007	100.4993554	drr	working	2022-05-09T00:00:00	18:00:00	19:00:00	35	51	986	1800	0.55
589	ถ.แจ้งวัฒนะ -> ถ.ชัยพฤกษ์ N : 13.910287  E : 100.499288	13.91038007	100.4993554	drr	working	2022-06-09T00:00:00	5:00:00	6:00:00	47	25	656	1800	0.36
590	ถ.แจ้งวัฒนะ -> ถ.ชัยพฤกษ์ N : 13.910287  E : 100.499288	13.91038007	100.4993554	drr	working	2022-06-09T00:00:00	6:00:00	7:00:00	33	73	2027	1800	1.13
591	ถ.แจ้งวัฒนะ -> ถ.ชัยพฤกษ์ N : 13.910287  E : 100.499288	13.91038007	100.4993554	drr	working	2022-06-09T00:00:00	7:00:00	8:00:00	39	150	2248	1800	1.25
592	ถ.แจ้งวัฒนะ -> ถ.ชัยพฤกษ์ N : 13.910287  E : 100.499288	13.91038007	100.4993554	drr	working	2022-06-09T00:00:00	8:00:00	9:00:00	36	93	2280	1800	1.27
593	ถ.แจ้งวัฒนะ -> ถ.ชัยพฤกษ์ N : 13.910287  E : 100.499288	13.91038007	100.4993554	drr	working	2022-06-09T00:00:00	9:00:00	10:00:00	35	90	2183	1800	1.21
594	ถ.แจ้งวัฒนะ -> ถ.ชัยพฤกษ์ N : 13.910287  E : 100.499288	13.91038007	100.4993554	drr	working	2022-06-09T00:00:00	10:00:00	11:00:00	32	90	2289	1800	1.27
595	ถ.แจ้งวัฒนะ -> ถ.ชัยพฤกษ์ N : 13.910287  E : 100.499288	13.91038007	100.4993554	drr	working	2022-06-09T00:00:00	11:00:00	12:00:00	36	44	1246	1800	0.69
596	ถ.แจ้งวัฒนะ -> ถ.ชัยพฤกษ์ N : 13.910287  E : 100.499288	13.91038007	100.4993554	drr	working	2022-06-09T00:00:00	12:00:00	13:00:00	30	48	940	1800	0.52
597	ถ.แจ้งวัฒนะ -> ถ.ชัยพฤกษ์ N : 13.910287  E : 100.499288	13.91038007	100.4993554	drr	working	2022-06-09T00:00:00	13:00:00	14:00:00	32	91	2149	1800	1.19
598	ถ.แจ้งวัฒนะ -> ถ.ชัยพฤกษ์ N : 13.910287  E : 100.499288	13.91038007	100.4993554	drr	working	2022-06-09T00:00:00	14:00:00	15:00:00	35	89	2191	1800	1.22
599	ถ.แจ้งวัฒนะ -> ถ.ชัยพฤกษ์ N : 13.910287  E : 100.499288	13.91038007	100.4993554	drr	working	2022-06-09T00:00:00	15:00:00	16:00:00	32	91	2192	1800	1.22
600	ถ.แจ้งวัฒนะ -> ถ.ชัยพฤกษ์ N : 13.910287  E : 100.499288	13.91038007	100.4993554	drr	working	2022-06-09T00:00:00	16:00:00	17:00:00	38	69	2283	1800	1.27
601	ถ.แจ้งวัฒนะ -> ถ.ชัยพฤกษ์ N : 13.910287  E : 100.499288	13.91038007	100.4993554	drr	working	2022-06-09T00:00:00	17:00:00	18:00:00	29	201	1752	1800	0.97
602	ถ.แจ้งวัฒนะ -> ถ.ชัยพฤกษ์ N : 13.910287  E : 100.499288	13.91038007	100.4993554	drr	working	2022-06-09T00:00:00	18:00:00	19:00:00	65	202	2055	1800	1.14
603	ถ.แจ้งวัฒนะ -> ถ.ชัยพฤกษ์ N : 13.910287  E : 100.499288	13.91038007	100.4993554	drr	working	2022-07-09T00:00:00	5:00:00	6:00:00	52	21	770	1800	0.43
604	ถ.แจ้งวัฒนะ -> ถ.ชัยพฤกษ์ N : 13.910287  E : 100.499288	13.91038007	100.4993554	drr	working	2022-07-09T00:00:00	6:00:00	7:00:00	37	66	2235	1800	1.24
605	ถ.แจ้งวัฒนะ -> ถ.ชัยพฤกษ์ N : 13.910287  E : 100.499288	13.91038007	100.4993554	drr	working	2022-07-09T00:00:00	7:00:00	8:00:00	35	148	1518	1800	0.84
606	ถ.แจ้งวัฒนะ -> ถ.ชัยพฤกษ์ N : 13.910287  E : 100.499288	13.91038007	100.4993554	drr	working	2022-07-09T00:00:00	8:00:00	9:00:00	33	64	415	1800	0.23
607	ถ.แจ้งวัฒนะ -> ถ.ชัยพฤกษ์ N : 13.910287  E : 100.499288	13.91038007	100.4993554	drr	working	2022-07-09T00:00:00	9:00:00	10:00:00	31	62	427	1800	0.24
608	ถ.แจ้งวัฒนะ -> ถ.ชัยพฤกษ์ N : 13.910287  E : 100.499288	13.91038007	100.4993554	drr	working	2022-07-09T00:00:00	10:00:00	11:00:00	28	61	377	1800	0.21
609	ถ.แจ้งวัฒนะ -> ถ.ชัยพฤกษ์ N : 13.910287  E : 100.499288	13.91038007	100.4993554	drr	working	2022-07-09T00:00:00	11:00:00	12:00:00	42	43	1114	1800	0.62
610	ถ.แจ้งวัฒนะ -> ถ.ชัยพฤกษ์ N : 13.910287  E : 100.499288	13.91038007	100.4993554	drr	working	2022-07-09T00:00:00	12:00:00	13:00:00	42	66	1292	1800	0.72
611	ถ.แจ้งวัฒนะ -> ถ.ชัยพฤกษ์ N : 13.910287  E : 100.499288	13.91038007	100.4993554	drr	working	2022-07-09T00:00:00	13:00:00	14:00:00	29	60	292	1800	0.16
612	ถ.แจ้งวัฒนะ -> ถ.ชัยพฤกษ์ N : 13.910287  E : 100.499288	13.91038007	100.4993554	drr	working	2022-07-09T00:00:00	14:00:00	15:00:00	29	62	277	1800	0.15
613	ถ.แจ้งวัฒนะ -> ถ.ชัยพฤกษ์ N : 13.910287  E : 100.499288	13.91038007	100.4993554	drr	working	2022-07-09T00:00:00	15:00:00	16:00:00	29	60	287	1800	0.16
614	ถ.แจ้งวัฒนะ -> ถ.ชัยพฤกษ์ N : 13.910287  E : 100.499288	13.91038007	100.4993554	drr	working	2022-07-09T00:00:00	16:00:00	17:00:00	32	62	2019	1800	1.12
615	ถ.แจ้งวัฒนะ -> ถ.ชัยพฤกษ์ N : 13.910287  E : 100.499288	13.91038007	100.4993554	drr	working	2022-07-09T00:00:00	17:00:00	18:00:00	31	96	2205	1800	1.23
616	ถ.แจ้งวัฒนะ -> ถ.ชัยพฤกษ์ N : 13.910287  E : 100.499288	13.91038007	100.4993554	drr	working	2022-07-09T00:00:00	18:00:00	19:00:00	31	74	824	1800	0.46
617	ถ.แจ้งวัฒนะ -> ถ.ชัยพฤกษ์ N : 13.910287  E : 100.499288	13.91038007	100.4993554	drr	working	2022-08-09T00:00:00	5:00:00	6:00:00	39	55	773	1800	0.43
618	ถ.แจ้งวัฒนะ -> ถ.ชัยพฤกษ์ N : 13.910287  E : 100.499288	13.91038007	100.4993554	drr	working	2022-08-09T00:00:00	6:00:00	7:00:00	28	181	2411	1800	1.34
619	ถ.แจ้งวัฒนะ -> ถ.ชัยพฤกษ์ N : 13.910287  E : 100.499288	13.91038007	100.4993554	drr	working	2022-08-09T00:00:00	7:00:00	8:00:00	44	72	2246	1800	1.25
620	ถ.แจ้งวัฒนะ -> ถ.ชัยพฤกษ์ N : 13.910287  E : 100.499288	13.91038007	100.4993554	drr	working	2022-08-09T00:00:00	8:00:00	9:00:00	34	62	1354	1800	0.75
621	ถ.แจ้งวัฒนะ -> ถ.ชัยพฤกษ์ N : 13.910287  E : 100.499288	13.91038007	100.4993554	drr	working	2022-08-09T00:00:00	9:00:00	10:00:00	31	57	1343	1800	0.75
622	ถ.แจ้งวัฒนะ -> ถ.ชัยพฤกษ์ N : 13.910287  E : 100.499288	13.91038007	100.4993554	drr	working	2022-08-09T00:00:00	10:00:00	11:00:00	32	62	1245	1800	0.69
623	ถ.แจ้งวัฒนะ -> ถ.ชัยพฤกษ์ N : 13.910287  E : 100.499288	13.91038007	100.4993554	drr	working	2022-08-09T00:00:00	11:00:00	12:00:00	49	37	933	1800	0.52
624	ถ.แจ้งวัฒนะ -> ถ.ชัยพฤกษ์ N : 13.910287  E : 100.499288	13.91038007	100.4993554	drr	working	2022-08-09T00:00:00	12:00:00	13:00:00	52	88	1715	1800	0.95
625	ถ.แจ้งวัฒนะ -> ถ.ชัยพฤกษ์ N : 13.910287  E : 100.499288	13.91038007	100.4993554	drr	working	2022-08-09T00:00:00	13:00:00	14:00:00	31	60	1241	1800	0.69
626	ถ.แจ้งวัฒนะ -> ถ.ชัยพฤกษ์ N : 13.910287  E : 100.499288	13.91038007	100.4993554	drr	working	2022-08-09T00:00:00	14:00:00	15:00:00	29	61	1293	1800	0.72
627	ถ.แจ้งวัฒนะ -> ถ.ชัยพฤกษ์ N : 13.910287  E : 100.499288	13.91038007	100.4993554	drr	working	2022-08-09T00:00:00	15:00:00	16:00:00	32	60	1297	1800	0.72
628	ถ.แจ้งวัฒนะ -> ถ.ชัยพฤกษ์ N : 13.910287  E : 100.499288	13.91038007	100.4993554	drr	working	2022-08-09T00:00:00	16:00:00	17:00:00	40	77	1500	1800	0.83
629	ถ.แจ้งวัฒนะ -> ถ.ชัยพฤกษ์ N : 13.910287  E : 100.499288	13.91038007	100.4993554	drr	working	2022-08-09T00:00:00	17:00:00	18:00:00	56	62	1146	1800	0.64
630	ถ.แจ้งวัฒนะ -> ถ.ชัยพฤกษ์ N : 13.910287  E : 100.499288	13.91038007	100.4993554	drr	working	2022-08-09T00:00:00	18:00:00	19:00:00	26	50	1342	1800	0.75
631	ถ.แจ้งวัฒนะ -> ถ.ชัยพฤกษ์ N : 13.910287  E : 100.499288	13.91038007	100.4993554	drr	working	2022-09-09T00:00:00	5:00:00	6:00:00	43	27	616	1800	0.34
632	ถ.แจ้งวัฒนะ -> ถ.ชัยพฤกษ์ N : 13.910287  E : 100.499288	13.91038007	100.4993554	drr	working	2022-09-09T00:00:00	6:00:00	7:00:00	31	80	1883	1800	1.05
633	ถ.แจ้งวัฒนะ -> ถ.ชัยพฤกษ์ N : 13.910287  E : 100.499288	13.91038007	100.4993554	drr	working	2022-09-09T00:00:00	7:00:00	8:00:00	45	98	2327	1800	1.29
634	ถ.แจ้งวัฒนะ -> ถ.ชัยพฤกษ์ N : 13.910287  E : 100.499288	13.91038007	100.4993554	drr	working	2022-09-09T00:00:00	8:00:00	9:00:00	45	81	2103	1800	1.17
635	ถ.แจ้งวัฒนะ -> ถ.ชัยพฤกษ์ N : 13.910287  E : 100.499288	13.91038007	100.4993554	drr	working	2022-09-09T00:00:00	9:00:00	10:00:00	41	76	2044	1800	1.14
636	ถ.แจ้งวัฒนะ -> ถ.ชัยพฤกษ์ N : 13.910287  E : 100.499288	13.91038007	100.4993554	drr	working	2022-09-09T00:00:00	10:00:00	11:00:00	44	77	2063	1800	1.15
637	ถ.แจ้งวัฒนะ -> ถ.ชัยพฤกษ์ N : 13.910287  E : 100.499288	13.91038007	100.4993554	drr	working	2022-09-09T00:00:00	11:00:00	12:00:00	37	53	1298	1800	0.72
638	ถ.แจ้งวัฒนะ -> ถ.ชัยพฤกษ์ N : 13.910287  E : 100.499288	13.91038007	100.4993554	drr	working	2022-09-09T00:00:00	12:00:00	13:00:00	31	43	1111	1800	0.62
639	ถ.แจ้งวัฒนะ -> ถ.ชัยพฤกษ์ N : 13.910287  E : 100.499288	13.91038007	100.4993554	drr	working	2022-09-09T00:00:00	13:00:00	14:00:00	44	76	2032	1800	1.13
640	ถ.แจ้งวัฒนะ -> ถ.ชัยพฤกษ์ N : 13.910287  E : 100.499288	13.91038007	100.4993554	drr	working	2022-09-09T00:00:00	14:00:00	15:00:00	41	76	1942	1800	1.08
641	ถ.แจ้งวัฒนะ -> ถ.ชัยพฤกษ์ N : 13.910287  E : 100.499288	13.91038007	100.4993554	drr	working	2022-09-09T00:00:00	15:00:00	16:00:00	41	78	2017	1800	1.12
642	ถ.แจ้งวัฒนะ -> ถ.ชัยพฤกษ์ N : 13.910287  E : 100.499288	13.91038007	100.4993554	drr	working	2022-09-09T00:00:00	16:00:00	17:00:00	48	98	1944	1800	1.08
643	ถ.แจ้งวัฒนะ -> ถ.ชัยพฤกษ์ N : 13.910287  E : 100.499288	13.91038007	100.4993554	drr	working	2022-09-09T00:00:00	17:00:00	18:00:00	33	46	1145	1800	0.64
644	ถ.แจ้งวัฒนะ -> ถ.ชัยพฤกษ์ N : 13.910287  E : 100.499288	13.91038007	100.4993554	drr	working	2022-09-09T00:00:00	18:00:00	19:00:00	34	49	1148	1800	0.64
645	ถ.ชัยพฤกษ์ -> ถ.แจ้งวัฒนะ N : 13.910287  E : 100.499288	13.91019809	100.4991017	drr	working	2022-05-09T00:00:00	5:00:00	6:00:00	36	17	147	1800	0.08
646	ถ.ชัยพฤกษ์ -> ถ.แจ้งวัฒนะ N : 13.910287  E : 100.499288	13.91019809	100.4991017	drr	working	2022-05-09T00:00:00	6:00:00	7:00:00	26	55	398	1800	0.22
647	ถ.ชัยพฤกษ์ -> ถ.แจ้งวัฒนะ N : 13.910287  E : 100.499288	13.91019809	100.4991017	drr	working	2022-05-09T00:00:00	7:00:00	8:00:00	25	72	1197	1800	0.67
648	ถ.ชัยพฤกษ์ -> ถ.แจ้งวัฒนะ N : 13.910287  E : 100.499288	13.91019809	100.4991017	drr	working	2022-05-09T00:00:00	8:00:00	9:00:00	25	60	1668	1800	0.93
649	ถ.ชัยพฤกษ์ -> ถ.แจ้งวัฒนะ N : 13.910287  E : 100.499288	13.91019809	100.4991017	drr	working	2022-05-09T00:00:00	9:00:00	10:00:00	20	56	1589	1800	0.88
650	ถ.ชัยพฤกษ์ -> ถ.แจ้งวัฒนะ N : 13.910287  E : 100.499288	13.91019809	100.4991017	drr	working	2022-05-09T00:00:00	10:00:00	11:00:00	23	55	1549	1800	0.86
651	ถ.ชัยพฤกษ์ -> ถ.แจ้งวัฒนะ N : 13.910287  E : 100.499288	13.91019809	100.4991017	drr	working	2022-05-09T00:00:00	11:00:00	12:00:00	26	64	1884	1800	1.05
652	ถ.ชัยพฤกษ์ -> ถ.แจ้งวัฒนะ N : 13.910287  E : 100.499288	13.91019809	100.4991017	drr	working	2022-05-09T00:00:00	12:00:00	13:00:00	46	58	1293	1800	0.72
653	ถ.ชัยพฤกษ์ -> ถ.แจ้งวัฒนะ N : 13.910287  E : 100.499288	13.91019809	100.4991017	drr	working	2022-05-09T00:00:00	13:00:00	14:00:00	24	57	1537	1800	0.85
654	ถ.ชัยพฤกษ์ -> ถ.แจ้งวัฒนะ N : 13.910287  E : 100.499288	13.91019809	100.4991017	drr	working	2022-05-09T00:00:00	14:00:00	15:00:00	21	56	1543	1800	0.86
655	ถ.ชัยพฤกษ์ -> ถ.แจ้งวัฒนะ N : 13.910287  E : 100.499288	13.91019809	100.4991017	drr	working	2022-05-09T00:00:00	15:00:00	16:00:00	24	55	1582	1800	0.88
656	ถ.ชัยพฤกษ์ -> ถ.แจ้งวัฒนะ N : 13.910287  E : 100.499288	13.91019809	100.4991017	drr	working	2022-05-09T00:00:00	16:00:00	17:00:00	33	68	2221	1800	1.23
657	ถ.ชัยพฤกษ์ -> ถ.แจ้งวัฒนะ N : 13.910287  E : 100.499288	13.91019809	100.4991017	drr	working	2022-05-09T00:00:00	17:00:00	18:00:00	25	80	1387	1800	0.77
658	ถ.ชัยพฤกษ์ -> ถ.แจ้งวัฒนะ N : 13.910287  E : 100.499288	13.91019809	100.4991017	drr	working	2022-05-09T00:00:00	18:00:00	19:00:00	39	81	2775	1800	1.54
659	ถ.ชัยพฤกษ์ -> ถ.แจ้งวัฒนะ N : 13.910287  E : 100.499288	13.91019809	100.4991017	drr	working	2022-06-09T00:00:00	5:00:00	6:00:00	63	22	264	1800	0.15
660	ถ.ชัยพฤกษ์ -> ถ.แจ้งวัฒนะ N : 13.910287  E : 100.499288	13.91019809	100.4991017	drr	working	2022-06-09T00:00:00	6:00:00	7:00:00	45	69	749	1800	0.42
661	ถ.ชัยพฤกษ์ -> ถ.แจ้งวัฒนะ N : 13.910287  E : 100.499288	13.91019809	100.4991017	drr	working	2022-06-09T00:00:00	7:00:00	8:00:00	27	57	2068	1800	1.15
662	ถ.ชัยพฤกษ์ -> ถ.แจ้งวัฒนะ N : 13.910287  E : 100.499288	13.91019809	100.4991017	drr	working	2022-06-09T00:00:00	8:00:00	9:00:00	41	111	1918	1800	1.07
663	ถ.ชัยพฤกษ์ -> ถ.แจ้งวัฒนะ N : 13.910287  E : 100.499288	13.91019809	100.4991017	drr	working	2022-06-09T00:00:00	9:00:00	10:00:00	37	105	1861	1800	1.03
664	ถ.ชัยพฤกษ์ -> ถ.แจ้งวัฒนะ N : 13.910287  E : 100.499288	13.91019809	100.4991017	drr	working	2022-06-09T00:00:00	10:00:00	11:00:00	38	109	1866	1800	1.04
665	ถ.ชัยพฤกษ์ -> ถ.แจ้งวัฒนะ N : 13.910287  E : 100.499288	13.91019809	100.4991017	drr	working	2022-06-09T00:00:00	11:00:00	12:00:00	33	123	1857	1800	1.03
666	ถ.ชัยพฤกษ์ -> ถ.แจ้งวัฒนะ N : 13.910287  E : 100.499288	13.91019809	100.4991017	drr	working	2022-06-09T00:00:00	12:00:00	13:00:00	43	120	1828	1800	1.02
667	ถ.ชัยพฤกษ์ -> ถ.แจ้งวัฒนะ N : 13.910287  E : 100.499288	13.91019809	100.4991017	drr	working	2022-06-09T00:00:00	13:00:00	14:00:00	38	107	1736	1800	0.96
668	ถ.ชัยพฤกษ์ -> ถ.แจ้งวัฒนะ N : 13.910287  E : 100.499288	13.91019809	100.4991017	drr	working	2022-06-09T00:00:00	14:00:00	15:00:00	36	107	1801	1800	1.00
669	ถ.ชัยพฤกษ์ -> ถ.แจ้งวัฒนะ N : 13.910287  E : 100.499288	13.91019809	100.4991017	drr	working	2022-06-09T00:00:00	15:00:00	16:00:00	38	108	1876	1800	1.04
670	ถ.ชัยพฤกษ์ -> ถ.แจ้งวัฒนะ N : 13.910287  E : 100.499288	13.91019809	100.4991017	drr	working	2022-06-09T00:00:00	16:00:00	17:00:00	30	81	2222	1800	1.23
671	ถ.ชัยพฤกษ์ -> ถ.แจ้งวัฒนะ N : 13.910287  E : 100.499288	13.91019809	100.4991017	drr	working	2022-06-09T00:00:00	17:00:00	18:00:00	37	75	1540	1800	0.86
672	ถ.ชัยพฤกษ์ -> ถ.แจ้งวัฒนะ N : 13.910287  E : 100.499288	13.91019809	100.4991017	drr	working	2022-06-09T00:00:00	18:00:00	19:00:00	20	66	1153	1800	0.64
673	ถ.ชัยพฤกษ์ -> ถ.แจ้งวัฒนะ N : 13.910287  E : 100.499288	13.91019809	100.4991017	drr	working	2022-07-09T00:00:00	5:00:00	6:00:00	41	22	569	1800	0.32
674	ถ.ชัยพฤกษ์ -> ถ.แจ้งวัฒนะ N : 13.910287  E : 100.499288	13.91019809	100.4991017	drr	working	2022-07-09T00:00:00	6:00:00	7:00:00	29	67	1664	1800	0.92
675	ถ.ชัยพฤกษ์ -> ถ.แจ้งวัฒนะ N : 13.910287  E : 100.499288	13.91019809	100.4991017	drr	working	2022-07-09T00:00:00	7:00:00	8:00:00	42	75	1882	1800	1.05
676	ถ.ชัยพฤกษ์ -> ถ.แจ้งวัฒนะ N : 13.910287  E : 100.499288	13.91019809	100.4991017	drr	working	2022-07-09T00:00:00	8:00:00	9:00:00	47	58	1484	1800	0.82
677	ถ.ชัยพฤกษ์ -> ถ.แจ้งวัฒนะ N : 13.910287  E : 100.499288	13.91019809	100.4991017	drr	working	2022-07-09T00:00:00	9:00:00	10:00:00	46	54	1356	1800	0.75
678	ถ.ชัยพฤกษ์ -> ถ.แจ้งวัฒนะ N : 13.910287  E : 100.499288	13.91019809	100.4991017	drr	working	2022-07-09T00:00:00	10:00:00	11:00:00	44	54	1452	1800	0.81
679	ถ.ชัยพฤกษ์ -> ถ.แจ้งวัฒนะ N : 13.910287  E : 100.499288	13.91019809	100.4991017	drr	working	2022-07-09T00:00:00	11:00:00	12:00:00	42	49	1470	1800	0.82
680	ถ.ชัยพฤกษ์ -> ถ.แจ้งวัฒนะ N : 13.910287  E : 100.499288	13.91019809	100.4991017	drr	working	2022-07-09T00:00:00	12:00:00	13:00:00	27	81	2941	1800	1.63
681	ถ.ชัยพฤกษ์ -> ถ.แจ้งวัฒนะ N : 13.910287  E : 100.499288	13.91019809	100.4991017	drr	working	2022-07-09T00:00:00	13:00:00	14:00:00	42	53	1376	1800	0.76
682	ถ.ชัยพฤกษ์ -> ถ.แจ้งวัฒนะ N : 13.910287  E : 100.499288	13.91019809	100.4991017	drr	working	2022-07-09T00:00:00	14:00:00	15:00:00	43	55	1332	1800	0.74
683	ถ.ชัยพฤกษ์ -> ถ.แจ้งวัฒนะ N : 13.910287  E : 100.499288	13.91019809	100.4991017	drr	working	2022-07-09T00:00:00	15:00:00	16:00:00	45	53	1402	1800	0.78
684	ถ.ชัยพฤกษ์ -> ถ.แจ้งวัฒนะ N : 13.910287  E : 100.499288	13.91019809	100.4991017	drr	working	2022-07-09T00:00:00	16:00:00	17:00:00	39	63	2400	1800	1.33
685	ถ.ชัยพฤกษ์ -> ถ.แจ้งวัฒนะ N : 13.910287  E : 100.499288	13.91019809	100.4991017	drr	working	2022-07-09T00:00:00	17:00:00	18:00:00	30	52	996	1800	0.55
686	ถ.ชัยพฤกษ์ -> ถ.แจ้งวัฒนะ N : 13.910287  E : 100.499288	13.91019809	100.4991017	drr	working	2022-07-09T00:00:00	18:00:00	19:00:00	35	80	3365	1800	1.87
687	ถ.ชัยพฤกษ์ -> ถ.แจ้งวัฒนะ N : 13.910287  E : 100.499288	13.91019809	100.4991017	drr	working	2022-08-09T00:00:00	5:00:00	6:00:00	54	19	416	1800	0.23
688	ถ.ชัยพฤกษ์ -> ถ.แจ้งวัฒนะ N : 13.910287  E : 100.499288	13.91019809	100.4991017	drr	working	2022-08-09T00:00:00	6:00:00	7:00:00	38	59	1324	1800	0.74
689	ถ.ชัยพฤกษ์ -> ถ.แจ้งวัฒนะ N : 13.910287  E : 100.499288	13.91019809	100.4991017	drr	working	2022-08-09T00:00:00	7:00:00	8:00:00	44	60	967	1800	0.54
690	ถ.ชัยพฤกษ์ -> ถ.แจ้งวัฒนะ N : 13.910287  E : 100.499288	13.91019809	100.4991017	drr	working	2022-08-09T00:00:00	8:00:00	9:00:00	27	96	992	1800	0.55
691	ถ.ชัยพฤกษ์ -> ถ.แจ้งวัฒนะ N : 13.910287  E : 100.499288	13.91019809	100.4991017	drr	working	2022-08-09T00:00:00	9:00:00	10:00:00	23	94	888	1800	0.49
692	ถ.ชัยพฤกษ์ -> ถ.แจ้งวัฒนะ N : 13.910287  E : 100.499288	13.91019809	100.4991017	drr	working	2022-08-09T00:00:00	10:00:00	11:00:00	23	95	879	1800	0.49
693	ถ.ชัยพฤกษ์ -> ถ.แจ้งวัฒนะ N : 13.910287  E : 100.499288	13.91019809	100.4991017	drr	working	2022-08-09T00:00:00	11:00:00	12:00:00	40	52	1112	1800	0.62
694	ถ.ชัยพฤกษ์ -> ถ.แจ้งวัฒนะ N : 13.910287  E : 100.499288	13.91019809	100.4991017	drr	working	2022-08-09T00:00:00	12:00:00	13:00:00	29	72	2200	1800	1.22
695	ถ.ชัยพฤกษ์ -> ถ.แจ้งวัฒนะ N : 13.910287  E : 100.499288	13.91019809	100.4991017	drr	working	2022-08-09T00:00:00	13:00:00	14:00:00	25	91	834	1800	0.46
696	ถ.ชัยพฤกษ์ -> ถ.แจ้งวัฒนะ N : 13.910287  E : 100.499288	13.91019809	100.4991017	drr	working	2022-08-09T00:00:00	14:00:00	15:00:00	22	89	865	1800	0.48
697	ถ.ชัยพฤกษ์ -> ถ.แจ้งวัฒนะ N : 13.910287  E : 100.499288	13.91019809	100.4991017	drr	working	2022-08-09T00:00:00	15:00:00	16:00:00	23	92	934	1800	0.52
698	ถ.ชัยพฤกษ์ -> ถ.แจ้งวัฒนะ N : 13.910287  E : 100.499288	13.91019809	100.4991017	drr	working	2022-08-09T00:00:00	16:00:00	17:00:00	21	148	2234	1800	1.24
699	ถ.ชัยพฤกษ์ -> ถ.แจ้งวัฒนะ N : 13.910287  E : 100.499288	13.91019809	100.4991017	drr	working	2022-08-09T00:00:00	17:00:00	18:00:00	21	57	1935	1800	1.08
700	ถ.ชัยพฤกษ์ -> ถ.แจ้งวัฒนะ N : 13.910287  E : 100.499288	13.91019809	100.4991017	drr	working	2022-08-09T00:00:00	18:00:00	19:00:00	39	55	1117	1800	0.62
701	ถ.ชัยพฤกษ์ -> ถ.แจ้งวัฒนะ N : 13.910287  E : 100.499288	13.91019809	100.4991017	drr	working	2022-09-09T00:00:00	5:00:00	6:00:00	38	18	313	1800	0.17
702	ถ.ชัยพฤกษ์ -> ถ.แจ้งวัฒนะ N : 13.910287  E : 100.499288	13.91019809	100.4991017	drr	working	2022-09-09T00:00:00	6:00:00	7:00:00	27	52	974	1800	0.54
703	ถ.ชัยพฤกษ์ -> ถ.แจ้งวัฒนะ N : 13.910287  E : 100.499288	13.91019809	100.4991017	drr	working	2022-09-09T00:00:00	7:00:00	8:00:00	27	66	846	1800	0.47
704	ถ.ชัยพฤกษ์ -> ถ.แจ้งวัฒนะ N : 13.910287  E : 100.499288	13.91019809	100.4991017	drr	working	2022-09-09T00:00:00	8:00:00	9:00:00	25	37	764	1800	0.42
705	ถ.ชัยพฤกษ์ -> ถ.แจ้งวัฒนะ N : 13.910287  E : 100.499288	13.91019809	100.4991017	drr	working	2022-09-09T00:00:00	9:00:00	10:00:00	21	35	752	1800	0.42
706	ถ.ชัยพฤกษ์ -> ถ.แจ้งวัฒนะ N : 13.910287  E : 100.499288	13.91019809	100.4991017	drr	working	2022-09-09T00:00:00	10:00:00	11:00:00	24	31	655	1800	0.36
707	ถ.ชัยพฤกษ์ -> ถ.แจ้งวัฒนะ N : 13.910287  E : 100.499288	13.91019809	100.4991017	drr	working	2022-09-09T00:00:00	11:00:00	12:00:00	50	147	2715	1800	1.51
708	ถ.ชัยพฤกษ์ -> ถ.แจ้งวัฒนะ N : 13.910287  E : 100.499288	13.91019809	100.4991017	drr	working	2022-09-09T00:00:00	12:00:00	13:00:00	62	125	1112	1800	0.62
709	ถ.ชัยพฤกษ์ -> ถ.แจ้งวัฒนะ N : 13.910287  E : 100.499288	13.91019809	100.4991017	drr	working	2022-09-09T00:00:00	13:00:00	14:00:00	21	35	655	1800	0.36
710	ถ.ชัยพฤกษ์ -> ถ.แจ้งวัฒนะ N : 13.910287  E : 100.499288	13.91019809	100.4991017	drr	working	2022-09-09T00:00:00	14:00:00	15:00:00	24	34	695	1800	0.39
711	ถ.ชัยพฤกษ์ -> ถ.แจ้งวัฒนะ N : 13.910287  E : 100.499288	13.91019809	100.4991017	drr	working	2022-09-09T00:00:00	15:00:00	16:00:00	23	34	695	1800	0.39
712	ถ.ชัยพฤกษ์ -> ถ.แจ้งวัฒนะ N : 13.910287  E : 100.499288	13.91019809	100.4991017	drr	working	2022-09-09T00:00:00	16:00:00	17:00:00	28	58	1887	1800	1.05
713	ถ.ชัยพฤกษ์ -> ถ.แจ้งวัฒนะ N : 13.910287  E : 100.499288	13.91019809	100.4991017	drr	working	2022-09-09T00:00:00	17:00:00	18:00:00	26	58	2261	1800	1.26
714	ถ.ชัยพฤกษ์ -> ถ.แจ้งวัฒนะ N : 13.910287  E : 100.499288	13.91019809	100.4991017	drr	working	2022-09-09T00:00:00	18:00:00	19:00:00	34	82	2478	1800	1.38
715	ถ.ราชพฤกษ์ -> ถ.ชัยพฤกษ์ กม.22+710	13.88125696	100.4507026	drr	working	2022-05-09T00:00:00	5:00:00	6:00:00	57	43	1317	2700	0.49
716	ถ.ราชพฤกษ์ -> ถ.ชัยพฤกษ์ กม.22+710	13.88125696	100.4507026	drr	working	2022-05-09T00:00:00	6:00:00	7:00:00	40	141	3842	2700	1.42
717	ถ.ราชพฤกษ์ -> ถ.ชัยพฤกษ์ กม.22+710	13.88125696	100.4507026	drr	working	2022-05-09T00:00:00	7:00:00	8:00:00	17	202	5758	2700	2.13
718	ถ.ราชพฤกษ์ -> ถ.ชัยพฤกษ์ กม.22+710	13.88125696	100.4507026	drr	working	2022-05-09T00:00:00	8:00:00	9:00:00	41	108	3707	2700	1.37
719	ถ.ราชพฤกษ์ -> ถ.ชัยพฤกษ์ กม.22+710	13.88125696	100.4507026	drr	working	2022-05-09T00:00:00	9:00:00	10:00:00	40	102	3553	2700	1.32
720	ถ.ราชพฤกษ์ -> ถ.ชัยพฤกษ์ กม.22+710	13.88125696	100.4507026	drr	working	2022-05-09T00:00:00	10:00:00	11:00:00	37	105	3719	2700	1.38
721	ถ.ราชพฤกษ์ -> ถ.ชัยพฤกษ์ กม.22+710	13.88125696	100.4507026	drr	working	2022-05-09T00:00:00	11:00:00	12:00:00	18	202	2818	2700	1.04
722	ถ.ราชพฤกษ์ -> ถ.ชัยพฤกษ์ กม.22+710	13.88125696	100.4507026	drr	working	2022-05-09T00:00:00	12:00:00	13:00:00	33	202	4020	2700	1.49
723	ถ.ราชพฤกษ์ -> ถ.ชัยพฤกษ์ กม.22+710	13.88125696	100.4507026	drr	working	2022-05-09T00:00:00	13:00:00	14:00:00	35	104	3626	2700	1.34
724	ถ.ราชพฤกษ์ -> ถ.ชัยพฤกษ์ กม.22+710	13.88125696	100.4507026	drr	working	2022-05-09T00:00:00	14:00:00	15:00:00	38	106	3609	2700	1.34
725	ถ.ราชพฤกษ์ -> ถ.ชัยพฤกษ์ กม.22+710	13.88125696	100.4507026	drr	working	2022-05-09T00:00:00	15:00:00	16:00:00	37	104	3543	2700	1.31
726	ถ.ราชพฤกษ์ -> ถ.ชัยพฤกษ์ กม.22+710	13.88125696	100.4507026	drr	working	2022-05-09T00:00:00	16:00:00	17:00:00	38	202	5032	2700	1.86
727	ถ.ราชพฤกษ์ -> ถ.ชัยพฤกษ์ กม.22+710	13.88125696	100.4507026	drr	working	2022-05-09T00:00:00	17:00:00	18:00:00	41	106	3680	2700	1.36
728	ถ.ราชพฤกษ์ -> ถ.ชัยพฤกษ์ กม.22+710	13.88125696	100.4507026	drr	working	2022-05-09T00:00:00	18:00:00	19:00:00	43	76	2953	2700	1.09
729	ถ.ราชพฤกษ์ -> ถ.ชัยพฤกษ์ กม.22+710	13.88125696	100.4507026	drr	working	2022-06-09T00:00:00	5:00:00	6:00:00	62	43	1104	2700	0.41
730	ถ.ราชพฤกษ์ -> ถ.ชัยพฤกษ์ กม.22+710	13.88125696	100.4507026	drr	working	2022-06-09T00:00:00	6:00:00	7:00:00	44	124	3317	2700	1.23
731	ถ.ราชพฤกษ์ -> ถ.ชัยพฤกษ์ กม.22+710	13.88125696	100.4507026	drr	working	2022-06-09T00:00:00	7:00:00	8:00:00	43	116	3507	2700	1.30
732	ถ.ราชพฤกษ์ -> ถ.ชัยพฤกษ์ กม.22+710	13.88125696	100.4507026	drr	working	2022-06-09T00:00:00	8:00:00	9:00:00	40	147	4976	2700	1.84
733	ถ.ราชพฤกษ์ -> ถ.ชัยพฤกษ์ กม.22+710	13.88125696	100.4507026	drr	working	2022-06-09T00:00:00	9:00:00	10:00:00	38	143	4821	2700	1.79
734	ถ.ราชพฤกษ์ -> ถ.ชัยพฤกษ์ กม.22+710	13.88125696	100.4507026	drr	working	2022-06-09T00:00:00	10:00:00	11:00:00	35	146	4886	2700	1.81
735	ถ.ราชพฤกษ์ -> ถ.ชัยพฤกษ์ กม.22+710	13.88125696	100.4507026	drr	working	2022-06-09T00:00:00	11:00:00	12:00:00	43	165	4574	2700	1.69
736	ถ.ราชพฤกษ์ -> ถ.ชัยพฤกษ์ กม.22+710	13.88125696	100.4507026	drr	working	2022-06-09T00:00:00	12:00:00	13:00:00	43	148	4394	2700	1.63
737	ถ.ราชพฤกษ์ -> ถ.ชัยพฤกษ์ กม.22+710	13.88125696	100.4507026	drr	working	2022-06-09T00:00:00	13:00:00	14:00:00	38	146	4941	2700	1.83
738	ถ.ราชพฤกษ์ -> ถ.ชัยพฤกษ์ กม.22+710	13.88125696	100.4507026	drr	working	2022-06-09T00:00:00	14:00:00	15:00:00	37	147	4949	2700	1.83
739	ถ.ราชพฤกษ์ -> ถ.ชัยพฤกษ์ กม.22+710	13.88125696	100.4507026	drr	working	2022-06-09T00:00:00	15:00:00	16:00:00	36	146	4855	2700	1.80
740	ถ.ราชพฤกษ์ -> ถ.ชัยพฤกษ์ กม.22+710	13.88125696	100.4507026	drr	working	2022-06-09T00:00:00	16:00:00	17:00:00	41	124	3331	2700	1.23
741	ถ.ราชพฤกษ์ -> ถ.ชัยพฤกษ์ กม.22+710	13.88125696	100.4507026	drr	working	2022-06-09T00:00:00	17:00:00	18:00:00	32	201	5513	2700	2.04
742	ถ.ราชพฤกษ์ -> ถ.ชัยพฤกษ์ กม.22+710	13.88125696	100.4507026	drr	working	2022-06-09T00:00:00	18:00:00	19:00:00	37	160	5870	2700	2.17
743	ถ.ราชพฤกษ์ -> ถ.ชัยพฤกษ์ กม.22+710	13.88125696	100.4507026	drr	working	2022-07-09T00:00:00	5:00:00	6:00:00	61	47	1807	2700	0.67
744	ถ.ราชพฤกษ์ -> ถ.ชัยพฤกษ์ กม.22+710	13.88125696	100.4507026	drr	working	2022-07-09T00:00:00	6:00:00	7:00:00	43	150	5483	2700	2.03
745	ถ.ราชพฤกษ์ -> ถ.ชัยพฤกษ์ กม.22+710	13.88125696	100.4507026	drr	working	2022-07-09T00:00:00	7:00:00	8:00:00	37	165	5236	2700	1.94
746	ถ.ราชพฤกษ์ -> ถ.ชัยพฤกษ์ กม.22+710	13.88125696	100.4507026	drr	working	2022-07-09T00:00:00	8:00:00	9:00:00	37	167	2387	2700	0.88
747	ถ.ราชพฤกษ์ -> ถ.ชัยพฤกษ์ กม.22+710	13.88125696	100.4507026	drr	working	2022-07-09T00:00:00	9:00:00	10:00:00	34	163	2235	2700	0.83
748	ถ.ราชพฤกษ์ -> ถ.ชัยพฤกษ์ กม.22+710	13.88125696	100.4507026	drr	working	2022-07-09T00:00:00	10:00:00	11:00:00	36	163	2179	2700	0.81
749	ถ.ราชพฤกษ์ -> ถ.ชัยพฤกษ์ กม.22+710	13.88125696	100.4507026	drr	working	2022-07-09T00:00:00	11:00:00	12:00:00	48	202	4800	2700	1.78
750	ถ.ราชพฤกษ์ -> ถ.ชัยพฤกษ์ กม.22+710	13.88125696	100.4507026	drr	working	2022-07-09T00:00:00	12:00:00	13:00:00	45	106	2571	2700	0.95
751	ถ.ราชพฤกษ์ -> ถ.ชัยพฤกษ์ กม.22+710	13.88125696	100.4507026	drr	working	2022-07-09T00:00:00	13:00:00	14:00:00	34	162	2236	2700	0.83
752	ถ.ราชพฤกษ์ -> ถ.ชัยพฤกษ์ กม.22+710	13.88125696	100.4507026	drr	working	2022-07-09T00:00:00	14:00:00	15:00:00	34	162	2234	2700	0.83
753	ถ.ราชพฤกษ์ -> ถ.ชัยพฤกษ์ กม.22+710	13.88125696	100.4507026	drr	working	2022-07-09T00:00:00	15:00:00	16:00:00	32	163	2203	2700	0.82
754	ถ.ราชพฤกษ์ -> ถ.ชัยพฤกษ์ กม.22+710	13.88125696	100.4507026	drr	working	2022-07-09T00:00:00	16:00:00	17:00:00	44	200	5373	2700	1.99
755	ถ.ราชพฤกษ์ -> ถ.ชัยพฤกษ์ กม.22+710	13.88125696	100.4507026	drr	working	2022-07-09T00:00:00	17:00:00	18:00:00	41	179	5174	2700	1.92
756	ถ.ราชพฤกษ์ -> ถ.ชัยพฤกษ์ กม.22+710	13.88125696	100.4507026	drr	working	2022-07-09T00:00:00	18:00:00	19:00:00	38	44	1144	2700	0.42
757	ถ.ราชพฤกษ์ -> ถ.ชัยพฤกษ์ กม.22+710	13.88125696	100.4507026	drr	working	2022-08-09T00:00:00	5:00:00	6:00:00	58	51	1759	2700	0.65
758	ถ.ราชพฤกษ์ -> ถ.ชัยพฤกษ์ กม.22+710	13.88125696	100.4507026	drr	working	2022-08-09T00:00:00	6:00:00	7:00:00	41	151	5714	2700	2.12
759	ถ.ราชพฤกษ์ -> ถ.ชัยพฤกษ์ กม.22+710	13.88125696	100.4507026	drr	working	2022-08-09T00:00:00	7:00:00	8:00:00	25	202	4339	2700	1.61
760	ถ.ราชพฤกษ์ -> ถ.ชัยพฤกษ์ กม.22+710	13.88125696	100.4507026	drr	working	2022-08-09T00:00:00	8:00:00	9:00:00	38	140	4249	2700	1.57
761	ถ.ราชพฤกษ์ -> ถ.ชัยพฤกษ์ กม.22+710	13.88125696	100.4507026	drr	working	2022-08-09T00:00:00	9:00:00	10:00:00	33	135	4182	2700	1.55
762	ถ.ราชพฤกษ์ -> ถ.ชัยพฤกษ์ กม.22+710	13.88125696	100.4507026	drr	working	2022-08-09T00:00:00	10:00:00	11:00:00	36	138	4266	2700	1.58
763	ถ.ราชพฤกษ์ -> ถ.ชัยพฤกษ์ กม.22+710	13.88125696	100.4507026	drr	working	2022-08-09T00:00:00	11:00:00	12:00:00	53	153	3663	2700	1.36
764	ถ.ราชพฤกษ์ -> ถ.ชัยพฤกษ์ กม.22+710	13.88125696	100.4507026	drr	working	2022-08-09T00:00:00	12:00:00	13:00:00	44	202	4616	2700	1.71
765	ถ.ราชพฤกษ์ -> ถ.ชัยพฤกษ์ กม.22+710	13.88125696	100.4507026	drr	working	2022-08-09T00:00:00	13:00:00	14:00:00	35	139	4188	2700	1.55
766	ถ.ราชพฤกษ์ -> ถ.ชัยพฤกษ์ กม.22+710	13.88125696	100.4507026	drr	working	2022-08-09T00:00:00	14:00:00	15:00:00	37	135	4163	2700	1.54
767	ถ.ราชพฤกษ์ -> ถ.ชัยพฤกษ์ กม.22+710	13.88125696	100.4507026	drr	working	2022-08-09T00:00:00	15:00:00	16:00:00	34	137	4207	2700	1.56
768	ถ.ราชพฤกษ์ -> ถ.ชัยพฤกษ์ กม.22+710	13.88125696	100.4507026	drr	working	2022-08-09T00:00:00	16:00:00	17:00:00	28	189	4629	2700	1.71
769	ถ.ราชพฤกษ์ -> ถ.ชัยพฤกษ์ กม.22+710	13.88125696	100.4507026	drr	working	2022-08-09T00:00:00	17:00:00	18:00:00	32	164	4090	2700	1.51
770	ถ.ราชพฤกษ์ -> ถ.ชัยพฤกษ์ กม.22+710	13.88125696	100.4507026	drr	working	2022-08-09T00:00:00	18:00:00	19:00:00	39	115	4237	2700	1.57
771	ถ.ราชพฤกษ์ -> ถ.ชัยพฤกษ์ กม.22+710	13.88125696	100.4507026	drr	working	2022-09-09T00:00:00	5:00:00	6:00:00	55	44	1684	2700	0.62
772	ถ.ราชพฤกษ์ -> ถ.ชัยพฤกษ์ กม.22+710	13.88125696	100.4507026	drr	working	2022-09-09T00:00:00	6:00:00	7:00:00	39	139	4803	2700	1.78
773	ถ.ราชพฤกษ์ -> ถ.ชัยพฤกษ์ กม.22+710	13.88125696	100.4507026	drr	working	2022-09-09T00:00:00	7:00:00	8:00:00	43	114	4410	2700	1.63
774	ถ.ราชพฤกษ์ -> ถ.ชัยพฤกษ์ กม.22+710	13.88125696	100.4507026	drr	working	2022-09-09T00:00:00	8:00:00	9:00:00	50	184	4823	2700	1.79
775	ถ.ราชพฤกษ์ -> ถ.ชัยพฤกษ์ กม.22+710	13.88125696	100.4507026	drr	working	2022-09-09T00:00:00	9:00:00	10:00:00	46	181	4742	2700	1.76
776	ถ.ราชพฤกษ์ -> ถ.ชัยพฤกษ์ กม.22+710	13.88125696	100.4507026	drr	working	2022-09-09T00:00:00	10:00:00	11:00:00	48	181	4699	2700	1.74
777	ถ.ราชพฤกษ์ -> ถ.ชัยพฤกษ์ กม.22+710	13.88125696	100.4507026	drr	working	2022-09-09T00:00:00	11:00:00	12:00:00	53	182	5480	2700	2.03
778	ถ.ราชพฤกษ์ -> ถ.ชัยพฤกษ์ กม.22+710	13.88125696	100.4507026	drr	working	2022-09-09T00:00:00	12:00:00	13:00:00	58	145	2778	2700	1.03
779	ถ.ราชพฤกษ์ -> ถ.ชัยพฤกษ์ กม.22+710	13.88125696	100.4507026	drr	working	2022-09-09T00:00:00	13:00:00	14:00:00	45	182	4718	2700	1.75
780	ถ.ราชพฤกษ์ -> ถ.ชัยพฤกษ์ กม.22+710	13.88125696	100.4507026	drr	working	2022-09-09T00:00:00	14:00:00	15:00:00	48	182	4687	2700	1.74
781	ถ.ราชพฤกษ์ -> ถ.ชัยพฤกษ์ กม.22+710	13.88125696	100.4507026	drr	working	2022-09-09T00:00:00	15:00:00	16:00:00	49	181	4675	2700	1.73
782	ถ.ราชพฤกษ์ -> ถ.ชัยพฤกษ์ กม.22+710	13.88125696	100.4507026	drr	working	2022-09-09T00:00:00	16:00:00	17:00:00	44	117	4782	2700	1.77
783	ถ.ราชพฤกษ์ -> ถ.ชัยพฤกษ์ กม.22+710	13.88125696	100.4507026	drr	working	2022-09-09T00:00:00	17:00:00	18:00:00	43	143	3914	2700	1.45
784	ถ.ราชพฤกษ์ -> ถ.ชัยพฤกษ์ กม.22+710	13.88125696	100.4507026	drr	working	2022-09-09T00:00:00	18:00:00	19:00:00	52	133	3371	2700	1.25
785	ถ.ราชพฤกษ์ -> ถ.นครอินทร์ กม.22+710	13.88125758	100.450731	drr	working	2022-05-09T00:00:00	5:00:00	6:00:00	74	47	803	2700	0.30
786	ถ.ราชพฤกษ์ -> ถ.นครอินทร์ กม.22+710	13.88125758	100.450731	drr	working	2022-05-09T00:00:00	6:00:00	7:00:00	52	135	2566	2700	0.95
787	ถ.ราชพฤกษ์ -> ถ.นครอินทร์ กม.22+710	13.88125758	100.450731	drr	working	2022-05-09T00:00:00	7:00:00	8:00:00	34	126	4236	2700	1.57
788	ถ.ราชพฤกษ์ -> ถ.นครอินทร์ กม.22+710	13.88125758	100.450731	drr	working	2022-05-09T00:00:00	8:00:00	9:00:00	29	176	3527	2700	1.31
789	ถ.ราชพฤกษ์ -> ถ.นครอินทร์ กม.22+710	13.88125758	100.450731	drr	working	2022-05-09T00:00:00	9:00:00	10:00:00	27	170	3377	2700	1.25
790	ถ.ราชพฤกษ์ -> ถ.นครอินทร์ กม.22+710	13.88125758	100.450731	drr	working	2022-05-09T00:00:00	10:00:00	11:00:00	25	173	3371	2700	1.25
791	ถ.ราชพฤกษ์ -> ถ.นครอินทร์ กม.22+710	13.88125758	100.450731	drr	working	2022-05-09T00:00:00	11:00:00	12:00:00	30	164	2948	2700	1.09
792	ถ.ราชพฤกษ์ -> ถ.นครอินทร์ กม.22+710	13.88125758	100.450731	drr	working	2022-05-09T00:00:00	12:00:00	13:00:00	29	156	3112	2700	1.15
793	ถ.ราชพฤกษ์ -> ถ.นครอินทร์ กม.22+710	13.88125758	100.450731	drr	working	2022-05-09T00:00:00	13:00:00	14:00:00	24	170	3442	2700	1.27
794	ถ.ราชพฤกษ์ -> ถ.นครอินทร์ กม.22+710	13.88125758	100.450731	drr	working	2022-05-09T00:00:00	14:00:00	15:00:00	27	173	3457	2700	1.28
795	ถ.ราชพฤกษ์ -> ถ.นครอินทร์ กม.22+710	13.88125758	100.450731	drr	working	2022-05-09T00:00:00	15:00:00	16:00:00	26	169	3484	2700	1.29
796	ถ.ราชพฤกษ์ -> ถ.นครอินทร์ กม.22+710	13.88125758	100.450731	drr	working	2022-05-09T00:00:00	16:00:00	17:00:00	42	201	3335	2700	1.24
797	ถ.ราชพฤกษ์ -> ถ.นครอินทร์ กม.22+710	13.88125758	100.450731	drr	working	2022-05-09T00:00:00	17:00:00	18:00:00	31	147	3567	2700	1.32
798	ถ.ราชพฤกษ์ -> ถ.นครอินทร์ กม.22+710	13.88125758	100.450731	drr	working	2022-05-09T00:00:00	18:00:00	19:00:00	33	141	4283	2700	1.59
799	ถ.ราชพฤกษ์ -> ถ.นครอินทร์ กม.22+710	13.88125758	100.450731	drr	working	2022-06-09T00:00:00	5:00:00	6:00:00	75	28	770	2700	0.29
800	ถ.ราชพฤกษ์ -> ถ.นครอินทร์ กม.22+710	13.88125758	100.450731	drr	working	2022-06-09T00:00:00	6:00:00	7:00:00	53	80	2224	2700	0.82
801	ถ.ราชพฤกษ์ -> ถ.นครอินทร์ กม.22+710	13.88125758	100.450731	drr	working	2022-06-09T00:00:00	7:00:00	8:00:00	37	140	3663	2700	1.36
802	ถ.ราชพฤกษ์ -> ถ.นครอินทร์ กม.22+710	13.88125758	100.450731	drr	working	2022-06-09T00:00:00	8:00:00	9:00:00	35	201	4724	2700	1.75
803	ถ.ราชพฤกษ์ -> ถ.นครอินทร์ กม.22+710	13.88125758	100.450731	drr	working	2022-06-09T00:00:00	9:00:00	10:00:00	33	201	4610	2700	1.71
804	ถ.ราชพฤกษ์ -> ถ.นครอินทร์ กม.22+710	13.88125758	100.450731	drr	working	2022-06-09T00:00:00	10:00:00	11:00:00	30	202	4695	2700	1.74
805	ถ.ราชพฤกษ์ -> ถ.นครอินทร์ กม.22+710	13.88125758	100.450731	drr	working	2022-06-09T00:00:00	11:00:00	12:00:00	26	139	3326	2700	1.23
806	ถ.ราชพฤกษ์ -> ถ.นครอินทร์ กม.22+710	13.88125758	100.450731	drr	working	2022-06-09T00:00:00	12:00:00	13:00:00	26	201	3491	2700	1.29
807	ถ.ราชพฤกษ์ -> ถ.นครอินทร์ กม.22+710	13.88125758	100.450731	drr	working	2022-06-09T00:00:00	13:00:00	14:00:00	33	201	4574	2700	1.69
808	ถ.ราชพฤกษ์ -> ถ.นครอินทร์ กม.22+710	13.88125758	100.450731	drr	working	2022-06-09T00:00:00	14:00:00	15:00:00	31	201	4689	2700	1.74
809	ถ.ราชพฤกษ์ -> ถ.นครอินทร์ กม.22+710	13.88125758	100.450731	drr	working	2022-06-09T00:00:00	15:00:00	16:00:00	33	201	4694	2700	1.74
810	ถ.ราชพฤกษ์ -> ถ.นครอินทร์ กม.22+710	13.88125758	100.450731	drr	working	2022-06-09T00:00:00	16:00:00	17:00:00	33	76	1117	2700	0.41
811	ถ.ราชพฤกษ์ -> ถ.นครอินทร์ กม.22+710	13.88125758	100.450731	drr	working	2022-06-09T00:00:00	17:00:00	18:00:00	34	96	2422	2700	0.90
812	ถ.ราชพฤกษ์ -> ถ.นครอินทร์ กม.22+710	13.88125758	100.450731	drr	working	2022-06-09T00:00:00	18:00:00	19:00:00	20	202	4567	2700	1.69
813	ถ.ราชพฤกษ์ -> ถ.นครอินทร์ กม.22+710	13.88125758	100.450731	drr	working	2022-07-09T00:00:00	5:00:00	6:00:00	56	36	650	2700	0.24
814	ถ.ราชพฤกษ์ -> ถ.นครอินทร์ กม.22+710	13.88125758	100.450731	drr	working	2022-07-09T00:00:00	6:00:00	7:00:00	39	106	1859	2700	0.69
815	ถ.ราชพฤกษ์ -> ถ.นครอินทร์ กม.22+710	13.88125758	100.450731	drr	working	2022-07-09T00:00:00	7:00:00	8:00:00	41	92	2410	2700	0.89
816	ถ.ราชพฤกษ์ -> ถ.นครอินทร์ กม.22+710	13.88125758	100.450731	drr	working	2022-07-09T00:00:00	8:00:00	9:00:00	39	154	2939	2700	1.09
817	ถ.ราชพฤกษ์ -> ถ.นครอินทร์ กม.22+710	13.88125758	100.450731	drr	working	2022-07-09T00:00:00	9:00:00	10:00:00	36	152	2813	2700	1.04
818	ถ.ราชพฤกษ์ -> ถ.นครอินทร์ กม.22+710	13.88125758	100.450731	drr	working	2022-07-09T00:00:00	10:00:00	11:00:00	38	154	2851	2700	1.06
819	ถ.ราชพฤกษ์ -> ถ.นครอินทร์ กม.22+710	13.88125758	100.450731	drr	working	2022-07-09T00:00:00	11:00:00	12:00:00	40	103	3679	2700	1.36
820	ถ.ราชพฤกษ์ -> ถ.นครอินทร์ กม.22+710	13.88125758	100.450731	drr	working	2022-07-09T00:00:00	12:00:00	13:00:00	31	201	4221	2700	1.56
821	ถ.ราชพฤกษ์ -> ถ.นครอินทร์ กม.22+710	13.88125758	100.450731	drr	working	2022-07-09T00:00:00	13:00:00	14:00:00	33	154	2798	2700	1.04
822	ถ.ราชพฤกษ์ -> ถ.นครอินทร์ กม.22+710	13.88125758	100.450731	drr	working	2022-07-09T00:00:00	14:00:00	15:00:00	38	151	2901	2700	1.07
823	ถ.ราชพฤกษ์ -> ถ.นครอินทร์ กม.22+710	13.88125758	100.450731	drr	working	2022-07-09T00:00:00	15:00:00	16:00:00	37	154	2893	2700	1.07
824	ถ.ราชพฤกษ์ -> ถ.นครอินทร์ กม.22+710	13.88125758	100.450731	drr	working	2022-07-09T00:00:00	16:00:00	17:00:00	36	202	4234	2700	1.57
825	ถ.ราชพฤกษ์ -> ถ.นครอินทร์ กม.22+710	13.88125758	100.450731	drr	working	2022-07-09T00:00:00	17:00:00	18:00:00	38	149	4550	2700	1.69
826	ถ.ราชพฤกษ์ -> ถ.นครอินทร์ กม.22+710	13.88125758	100.450731	drr	working	2022-07-09T00:00:00	18:00:00	19:00:00	33	132	4105	2700	1.52
827	ถ.ราชพฤกษ์ -> ถ.นครอินทร์ กม.22+710	13.88125758	100.450731	drr	working	2022-08-09T00:00:00	5:00:00	6:00:00	60	30	841	2700	0.31
828	ถ.ราชพฤกษ์ -> ถ.นครอินทร์ กม.22+710	13.88125758	100.450731	drr	working	2022-08-09T00:00:00	6:00:00	7:00:00	42	98	2389	2700	0.88
829	ถ.ราชพฤกษ์ -> ถ.นครอินทร์ กม.22+710	13.88125758	100.450731	drr	working	2022-08-09T00:00:00	7:00:00	8:00:00	34	131	3363	2700	1.25
830	ถ.ราชพฤกษ์ -> ถ.นครอินทร์ กม.22+710	13.88125758	100.450731	drr	working	2022-08-09T00:00:00	8:00:00	9:00:00	36	128	4426	2700	1.64
831	ถ.ราชพฤกษ์ -> ถ.นครอินทร์ กม.22+710	13.88125758	100.450731	drr	working	2022-08-09T00:00:00	9:00:00	10:00:00	35	124	4384	2700	1.62
832	ถ.ราชพฤกษ์ -> ถ.นครอินทร์ กม.22+710	13.88125758	100.450731	drr	working	2022-08-09T00:00:00	10:00:00	11:00:00	31	124	4401	2700	1.63
833	ถ.ราชพฤกษ์ -> ถ.นครอินทร์ กม.22+710	13.88125758	100.450731	drr	working	2022-08-09T00:00:00	11:00:00	12:00:00	28	197	3832	2700	1.42
834	ถ.ราชพฤกษ์ -> ถ.นครอินทร์ กม.22+710	13.88125758	100.450731	drr	working	2022-08-09T00:00:00	12:00:00	13:00:00	46	189	2206	2700	0.82
835	ถ.ราชพฤกษ์ -> ถ.นครอินทร์ กม.22+710	13.88125758	100.450731	drr	working	2022-08-09T00:00:00	13:00:00	14:00:00	33	127	4415	2700	1.64
836	ถ.ราชพฤกษ์ -> ถ.นครอินทร์ กม.22+710	13.88125758	100.450731	drr	working	2022-08-09T00:00:00	14:00:00	15:00:00	36	127	4284	2700	1.59
837	ถ.ราชพฤกษ์ -> ถ.นครอินทร์ กม.22+710	13.88125758	100.450731	drr	working	2022-08-09T00:00:00	15:00:00	16:00:00	35	125	4302	2700	1.59
838	ถ.ราชพฤกษ์ -> ถ.นครอินทร์ กม.22+710	13.88125758	100.450731	drr	working	2022-08-09T00:00:00	16:00:00	17:00:00	28	134	3179	2700	1.18
839	ถ.ราชพฤกษ์ -> ถ.นครอินทร์ กม.22+710	13.88125758	100.450731	drr	working	2022-08-09T00:00:00	17:00:00	18:00:00	26	160	3887	2700	1.44
840	ถ.ราชพฤกษ์ -> ถ.นครอินทร์ กม.22+710	13.88125758	100.450731	drr	working	2022-08-09T00:00:00	18:00:00	19:00:00	28	79	2788	2700	1.03
841	ถ.ราชพฤกษ์ -> ถ.นครอินทร์ กม.22+710	13.88125758	100.450731	drr	working	2022-09-09T00:00:00	5:00:00	6:00:00	66	42	896	2700	0.33
842	ถ.ราชพฤกษ์ -> ถ.นครอินทร์ กม.22+710	13.88125758	100.450731	drr	working	2022-09-09T00:00:00	6:00:00	7:00:00	47	123	2596	2700	0.96
843	ถ.ราชพฤกษ์ -> ถ.นครอินทร์ กม.22+710	13.88125758	100.450731	drr	working	2022-09-09T00:00:00	7:00:00	8:00:00	37	109	3693	2700	1.37
844	ถ.ราชพฤกษ์ -> ถ.นครอินทร์ กม.22+710	13.88125758	100.450731	drr	working	2022-09-09T00:00:00	8:00:00	9:00:00	38	103	3319	2700	1.23
845	ถ.ราชพฤกษ์ -> ถ.นครอินทร์ กม.22+710	13.88125758	100.450731	drr	working	2022-09-09T00:00:00	9:00:00	10:00:00	34	100	3332	2700	1.23
846	ถ.ราชพฤกษ์ -> ถ.นครอินทร์ กม.22+710	13.88125758	100.450731	drr	working	2022-09-09T00:00:00	10:00:00	11:00:00	35	98	3315	2700	1.23
847	ถ.ราชพฤกษ์ -> ถ.นครอินทร์ กม.22+710	13.88125758	100.450731	drr	working	2022-09-09T00:00:00	11:00:00	12:00:00	33	133	2748	2700	1.02
848	ถ.ราชพฤกษ์ -> ถ.นครอินทร์ กม.22+710	13.88125758	100.450731	drr	working	2022-09-09T00:00:00	12:00:00	13:00:00	32	113	1851	2700	0.69
849	ถ.ราชพฤกษ์ -> ถ.นครอินทร์ กม.22+710	13.88125758	100.450731	drr	working	2022-09-09T00:00:00	13:00:00	14:00:00	35	101	3259	2700	1.21
850	ถ.ราชพฤกษ์ -> ถ.นครอินทร์ กม.22+710	13.88125758	100.450731	drr	working	2022-09-09T00:00:00	14:00:00	15:00:00	33	98	3252	2700	1.20
851	ถ.ราชพฤกษ์ -> ถ.นครอินทร์ กม.22+710	13.88125758	100.450731	drr	working	2022-09-09T00:00:00	15:00:00	16:00:00	35	100	3199	2700	1.18
852	ถ.ราชพฤกษ์ -> ถ.นครอินทร์ กม.22+710	13.88125758	100.450731	drr	working	2022-09-09T00:00:00	16:00:00	17:00:00	37	148	2798	2700	1.04
853	ถ.ราชพฤกษ์ -> ถ.นครอินทร์ กม.22+710	13.88125758	100.450731	drr	working	2022-09-09T00:00:00	17:00:00	18:00:00	36	136	3917	2700	1.45
854	ถ.ราชพฤกษ์ -> ถ.นครอินทร์ กม.22+710	13.88125758	100.450731	drr	working	2022-09-09T00:00:00	18:00:00	19:00:00	39	143	3179	2700	1.18
855	ถ.ราชพฤกษ์ -> ถ.กาญจนาภิเษก  กม.4+010	13.92316114	100.4754912	drr	working	2022-05-09T00:00:00	5:00:00	6:00:00	32	28	136	1800	0.08
856	ถ.ราชพฤกษ์ -> ถ.กาญจนาภิเษก  กม.4+010	13.92316114	100.4754912	drr	working	2022-05-09T00:00:00	6:00:00	7:00:00	23	87	380	1800	0.21
857	ถ.ราชพฤกษ์ -> ถ.กาญจนาภิเษก  กม.4+010	13.92316114	100.4754912	drr	working	2022-05-09T00:00:00	7:00:00	8:00:00	31	36	606	1800	0.34
858	ถ.ราชพฤกษ์ -> ถ.กาญจนาภิเษก  กม.4+010	13.92316114	100.4754912	drr	working	2022-05-09T00:00:00	8:00:00	9:00:00	34	58	934	1800	0.52
859	ถ.ราชพฤกษ์ -> ถ.กาญจนาภิเษก  กม.4+010	13.92316114	100.4754912	drr	working	2022-05-09T00:00:00	9:00:00	10:00:00	29	56	839	1800	0.47
860	ถ.ราชพฤกษ์ -> ถ.กาญจนาภิเษก  กม.4+010	13.92316114	100.4754912	drr	working	2022-05-09T00:00:00	10:00:00	11:00:00	30	54	843	1800	0.47
861	ถ.ราชพฤกษ์ -> ถ.กาญจนาภิเษก  กม.4+010	13.92316114	100.4754912	drr	working	2022-05-09T00:00:00	11:00:00	12:00:00	32	51	1131	1800	0.63
862	ถ.ราชพฤกษ์ -> ถ.กาญจนาภิเษก  กม.4+010	13.92316114	100.4754912	drr	working	2022-05-09T00:00:00	12:00:00	13:00:00	35	43	938	1800	0.52
863	ถ.ราชพฤกษ์ -> ถ.กาญจนาภิเษก  กม.4+010	13.92316114	100.4754912	drr	working	2022-05-09T00:00:00	13:00:00	14:00:00	30	56	810	1800	0.45
864	ถ.ราชพฤกษ์ -> ถ.กาญจนาภิเษก  กม.4+010	13.92316114	100.4754912	drr	working	2022-05-09T00:00:00	14:00:00	15:00:00	29	53	834	1800	0.46
865	ถ.ราชพฤกษ์ -> ถ.กาญจนาภิเษก  กม.4+010	13.92316114	100.4754912	drr	working	2022-05-09T00:00:00	15:00:00	16:00:00	30	55	811	1800	0.45
866	ถ.ราชพฤกษ์ -> ถ.กาญจนาภิเษก  กม.4+010	13.92316114	100.4754912	drr	working	2022-05-09T00:00:00	16:00:00	17:00:00	35	37	778	1800	0.43
867	ถ.ราชพฤกษ์ -> ถ.กาญจนาภิเษก  กม.4+010	13.92316114	100.4754912	drr	working	2022-05-09T00:00:00	17:00:00	18:00:00	31	42	1156	1800	0.64
868	ถ.ราชพฤกษ์ -> ถ.กาญจนาภิเษก  กม.4+010	13.92316114	100.4754912	drr	working	2022-05-09T00:00:00	18:00:00	19:00:00	34	53	588	1800	0.33
869	ถ.ราชพฤกษ์ -> ถ.กาญจนาภิเษก  กม.4+010	13.92316114	100.4754912	drr	working	2022-06-09T00:00:00	5:00:00	6:00:00	39	27	141	1800	0.08
870	ถ.ราชพฤกษ์ -> ถ.กาญจนาภิเษก  กม.4+010	13.92316114	100.4754912	drr	working	2022-06-09T00:00:00	6:00:00	7:00:00	28	82	377	1800	0.21
871	ถ.ราชพฤกษ์ -> ถ.กาญจนาภิเษก  กม.4+010	13.92316114	100.4754912	drr	working	2022-06-09T00:00:00	7:00:00	8:00:00	37	36	1252	1800	0.70
872	ถ.ราชพฤกษ์ -> ถ.กาญจนาภิเษก  กม.4+010	13.92316114	100.4754912	drr	working	2022-06-09T00:00:00	8:00:00	9:00:00	32	55	966	1800	0.54
873	ถ.ราชพฤกษ์ -> ถ.กาญจนาภิเษก  กม.4+010	13.92316114	100.4754912	drr	working	2022-06-09T00:00:00	9:00:00	10:00:00	29	54	812	1800	0.45
874	ถ.ราชพฤกษ์ -> ถ.กาญจนาภิเษก  กม.4+010	13.92316114	100.4754912	drr	working	2022-06-09T00:00:00	10:00:00	11:00:00	31	50	942	1800	0.52
875	ถ.ราชพฤกษ์ -> ถ.กาญจนาภิเษก  กม.4+010	13.92316114	100.4754912	drr	working	2022-06-09T00:00:00	11:00:00	12:00:00	30	59	961	1800	0.53
876	ถ.ราชพฤกษ์ -> ถ.กาญจนาภิเษก  กม.4+010	13.92316114	100.4754912	drr	working	2022-06-09T00:00:00	12:00:00	13:00:00	39	39	946	1800	0.53
877	ถ.ราชพฤกษ์ -> ถ.กาญจนาภิเษก  กม.4+010	13.92316114	100.4754912	drr	working	2022-06-09T00:00:00	13:00:00	14:00:00	29	52	908	1800	0.50
878	ถ.ราชพฤกษ์ -> ถ.กาญจนาภิเษก  กม.4+010	13.92316114	100.4754912	drr	working	2022-06-09T00:00:00	14:00:00	15:00:00	28	53	868	1800	0.48
879	ถ.ราชพฤกษ์ -> ถ.กาญจนาภิเษก  กม.4+010	13.92316114	100.4754912	drr	working	2022-06-09T00:00:00	15:00:00	16:00:00	28	50	896	1800	0.50
880	ถ.ราชพฤกษ์ -> ถ.กาญจนาภิเษก  กม.4+010	13.92316114	100.4754912	drr	working	2022-06-09T00:00:00	16:00:00	17:00:00	26	39	957	1800	0.53
881	ถ.ราชพฤกษ์ -> ถ.กาญจนาภิเษก  กม.4+010	13.92316114	100.4754912	drr	working	2022-06-09T00:00:00	17:00:00	18:00:00	25	61	485	1800	0.27
882	ถ.ราชพฤกษ์ -> ถ.กาญจนาภิเษก  กม.4+010	13.92316114	100.4754912	drr	working	2022-06-09T00:00:00	18:00:00	19:00:00	50	73	983	1800	0.55
883	ถ.ราชพฤกษ์ -> ถ.กาญจนาภิเษก  กม.4+010	13.92316114	100.4754912	drr	working	2022-07-09T00:00:00	5:00:00	6:00:00	40	28	136	1800	0.08
884	ถ.ราชพฤกษ์ -> ถ.กาญจนาภิเษก  กม.4+010	13.92316114	100.4754912	drr	working	2022-07-09T00:00:00	6:00:00	7:00:00	28	84	388	1800	0.22
885	ถ.ราชพฤกษ์ -> ถ.กาญจนาภิเษก  กม.4+010	13.92316114	100.4754912	drr	working	2022-07-09T00:00:00	7:00:00	8:00:00	31	57	570	1800	0.32
886	ถ.ราชพฤกษ์ -> ถ.กาญจนาภิเษก  กม.4+010	13.92316114	100.4754912	drr	working	2022-07-09T00:00:00	8:00:00	9:00:00	31	34	417	1800	0.23
887	ถ.ราชพฤกษ์ -> ถ.กาญจนาภิเษก  กม.4+010	13.92316114	100.4754912	drr	working	2022-07-09T00:00:00	9:00:00	10:00:00	30	29	292	1800	0.16
888	ถ.ราชพฤกษ์ -> ถ.กาญจนาภิเษก  กม.4+010	13.92316114	100.4754912	drr	working	2022-07-09T00:00:00	10:00:00	11:00:00	29	32	307	1800	0.17
889	ถ.ราชพฤกษ์ -> ถ.กาญจนาภิเษก  กม.4+010	13.92316114	100.4754912	drr	working	2022-07-09T00:00:00	11:00:00	12:00:00	33	35	563	1800	0.31
890	ถ.ราชพฤกษ์ -> ถ.กาญจนาภิเษก  กม.4+010	13.92316114	100.4754912	drr	working	2022-07-09T00:00:00	12:00:00	13:00:00	29	34	385	1800	0.21
891	ถ.ราชพฤกษ์ -> ถ.กาญจนาภิเษก  กม.4+010	13.92316114	100.4754912	drr	working	2022-07-09T00:00:00	13:00:00	14:00:00	27	30	305	1800	0.17
892	ถ.ราชพฤกษ์ -> ถ.กาญจนาภิเษก  กม.4+010	13.92316114	100.4754912	drr	working	2022-07-09T00:00:00	14:00:00	15:00:00	30	29	257	1800	0.14
893	ถ.ราชพฤกษ์ -> ถ.กาญจนาภิเษก  กม.4+010	13.92316114	100.4754912	drr	working	2022-07-09T00:00:00	15:00:00	16:00:00	29	33	315	1800	0.18
894	ถ.ราชพฤกษ์ -> ถ.กาญจนาภิเษก  กม.4+010	13.92316114	100.4754912	drr	working	2022-07-09T00:00:00	16:00:00	17:00:00	29	40	1126	1800	0.63
895	ถ.ราชพฤกษ์ -> ถ.กาญจนาภิเษก  กม.4+010	13.92316114	100.4754912	drr	working	2022-07-09T00:00:00	17:00:00	18:00:00	38	67	2351	1800	1.31
896	ถ.ราชพฤกษ์ -> ถ.กาญจนาภิเษก  กม.4+010	13.92316114	100.4754912	drr	working	2022-07-09T00:00:00	18:00:00	19:00:00	34	64	2635	1800	1.46
897	ถ.ราชพฤกษ์ -> ถ.กาญจนาภิเษก  กม.4+010	13.92316114	100.4754912	drr	working	2022-08-09T00:00:00	5:00:00	6:00:00	148	11	240	1800	0.13
898	ถ.ราชพฤกษ์ -> ถ.กาญจนาภิเษก  กม.4+010	13.92316114	100.4754912	drr	working	2022-08-09T00:00:00	6:00:00	7:00:00	105	34	744	1800	0.41
899	ถ.ราชพฤกษ์ -> ถ.กาญจนาภิเษก  กม.4+010	13.92316114	100.4754912	drr	working	2022-08-09T00:00:00	7:00:00	8:00:00	65	90	944	1800	0.52
900	ถ.ราชพฤกษ์ -> ถ.กาญจนาภิเษก  กม.4+010	13.92316114	100.4754912	drr	working	2022-08-09T00:00:00	8:00:00	9:00:00	31	47	1854	1800	1.03
901	ถ.ราชพฤกษ์ -> ถ.กาญจนาภิเษก  กม.4+010	13.92316114	100.4754912	drr	working	2022-08-09T00:00:00	9:00:00	10:00:00	30	44	1780	1800	0.99
902	ถ.ราชพฤกษ์ -> ถ.กาญจนาภิเษก  กม.4+010	13.92316114	100.4754912	drr	working	2022-08-09T00:00:00	10:00:00	11:00:00	29	43	1832	1800	1.02
903	ถ.ราชพฤกษ์ -> ถ.กาญจนาภิเษก  กม.4+010	13.92316114	100.4754912	drr	working	2022-08-09T00:00:00	11:00:00	12:00:00	29	34	566	1800	0.31
904	ถ.ราชพฤกษ์ -> ถ.กาญจนาภิเษก  กม.4+010	13.92316114	100.4754912	drr	working	2022-08-09T00:00:00	12:00:00	13:00:00	32	48	1122	1800	0.62
905	ถ.ราชพฤกษ์ -> ถ.กาญจนาภิเษก  กม.4+010	13.92316114	100.4754912	drr	working	2022-08-09T00:00:00	13:00:00	14:00:00	28	42	1803	1800	1.00
906	ถ.ราชพฤกษ์ -> ถ.กาญจนาภิเษก  กม.4+010	13.92316114	100.4754912	drr	working	2022-08-09T00:00:00	14:00:00	15:00:00	27	44	1815	1800	1.01
907	ถ.ราชพฤกษ์ -> ถ.กาญจนาภิเษก  กม.4+010	13.92316114	100.4754912	drr	working	2022-08-09T00:00:00	15:00:00	16:00:00	27	43	1761	1800	0.98
908	ถ.ราชพฤกษ์ -> ถ.กาญจนาภิเษก  กม.4+010	13.92316114	100.4754912	drr	working	2022-08-09T00:00:00	16:00:00	17:00:00	28	90	838	1800	0.47
909	ถ.ราชพฤกษ์ -> ถ.กาญจนาภิเษก  กม.4+010	13.92316114	100.4754912	drr	working	2022-08-09T00:00:00	17:00:00	18:00:00	24	64	1307	1800	0.73
910	ถ.ราชพฤกษ์ -> ถ.กาญจนาภิเษก  กม.4+010	13.92316114	100.4754912	drr	working	2022-08-09T00:00:00	18:00:00	19:00:00	46	50	779	1800	0.43
911	ถ.ราชพฤกษ์ -> ถ.กาญจนาภิเษก  กม.4+010	13.92316114	100.4754912	drr	working	2022-09-09T00:00:00	5:00:00	6:00:00	42	12	142	1800	0.08
912	ถ.ราชพฤกษ์ -> ถ.กาญจนาภิเษก  กม.4+010	13.92316114	100.4754912	drr	working	2022-09-09T00:00:00	6:00:00	7:00:00	30	34	381	1800	0.21
913	ถ.ราชพฤกษ์ -> ถ.กาญจนาภิเษก  กม.4+010	13.92316114	100.4754912	drr	working	2022-09-09T00:00:00	7:00:00	8:00:00	27	69	1005	1800	0.56
914	ถ.ราชพฤกษ์ -> ถ.กาญจนาภิเษก  กม.4+010	13.92316114	100.4754912	drr	working	2022-09-09T00:00:00	8:00:00	9:00:00	32	34	408	1800	0.23
915	ถ.ราชพฤกษ์ -> ถ.กาญจนาภิเษก  กม.4+010	13.92316114	100.4754912	drr	working	2022-09-09T00:00:00	9:00:00	10:00:00	29	33	341	1800	0.19
916	ถ.ราชพฤกษ์ -> ถ.กาญจนาภิเษก  กม.4+010	13.92316114	100.4754912	drr	working	2022-09-09T00:00:00	10:00:00	11:00:00	31	31	363	1800	0.20
917	ถ.ราชพฤกษ์ -> ถ.กาญจนาภิเษก  กม.4+010	13.92316114	100.4754912	drr	working	2022-09-09T00:00:00	11:00:00	12:00:00	36	35	752	1800	0.42
918	ถ.ราชพฤกษ์ -> ถ.กาญจนาภิเษก  กม.4+010	13.92316114	100.4754912	drr	working	2022-09-09T00:00:00	12:00:00	13:00:00	36	84	574	1800	0.32
919	ถ.ราชพฤกษ์ -> ถ.กาญจนาภิเษก  กม.4+010	13.92316114	100.4754912	drr	working	2022-09-09T00:00:00	13:00:00	14:00:00	27	30	325	1800	0.18
920	ถ.ราชพฤกษ์ -> ถ.กาญจนาภิเษก  กม.4+010	13.92316114	100.4754912	drr	working	2022-09-09T00:00:00	14:00:00	15:00:00	28	32	361	1800	0.20
921	ถ.ราชพฤกษ์ -> ถ.กาญจนาภิเษก  กม.4+010	13.92316114	100.4754912	drr	working	2022-09-09T00:00:00	15:00:00	16:00:00	31	32	242	1800	0.13
922	ถ.ราชพฤกษ์ -> ถ.กาญจนาภิเษก  กม.4+010	13.92316114	100.4754912	drr	working	2022-09-09T00:00:00	16:00:00	17:00:00	33	41	1142	1800	0.63
923	ถ.ราชพฤกษ์ -> ถ.กาญจนาภิเษก  กม.4+010	13.92316114	100.4754912	drr	working	2022-09-09T00:00:00	17:00:00	18:00:00	35	57	2076	1800	1.15
924	ถ.ราชพฤกษ์ -> ถ.กาญจนาภิเษก  กม.4+010	13.92316114	100.4754912	drr	working	2022-09-09T00:00:00	18:00:00	19:00:00	34	57	1846	1800	1.03
925	ถ.รัตนาธิเบศร์ ->  ถ.ราชพฤกษ์ กม.22+210	13.87675296	100.4510899	drr	working	2022-05-09T00:00:00	5:00:00	6:00:00	45	20	491	1800	0.27
926	ถ.รัตนาธิเบศร์ ->  ถ.ราชพฤกษ์ กม.22+210	13.87675296	100.4510899	drr	working	2022-05-09T00:00:00	6:00:00	7:00:00	32	59	1498	1800	0.83
927	ถ.รัตนาธิเบศร์ ->  ถ.ราชพฤกษ์ กม.22+210	13.87675296	100.4510899	drr	working	2022-05-09T00:00:00	7:00:00	8:00:00	11	202	2272	1800	1.26
928	ถ.รัตนาธิเบศร์ ->  ถ.ราชพฤกษ์ กม.22+210	13.87675296	100.4510899	drr	working	2022-05-09T00:00:00	8:00:00	9:00:00	24	82	2061	1800	1.15
929	ถ.รัตนาธิเบศร์ ->  ถ.ราชพฤกษ์ กม.22+210	13.87675296	100.4510899	drr	working	2022-05-09T00:00:00	9:00:00	10:00:00	22	79	1999	1800	1.11
930	ถ.รัตนาธิเบศร์ ->  ถ.ราชพฤกษ์ กม.22+210	13.87675296	100.4510899	drr	working	2022-05-09T00:00:00	10:00:00	11:00:00	23	78	2039	1800	1.13
931	ถ.รัตนาธิเบศร์ ->  ถ.ราชพฤกษ์ กม.22+210	13.87675296	100.4510899	drr	working	2022-05-09T00:00:00	11:00:00	12:00:00	30	77	950	1800	0.53
932	ถ.รัตนาธิเบศร์ ->  ถ.ราชพฤกษ์ กม.22+210	13.87675296	100.4510899	drr	working	2022-05-09T00:00:00	12:00:00	13:00:00	29	82	1165	1800	0.65
933	ถ.รัตนาธิเบศร์ ->  ถ.ราชพฤกษ์ กม.22+210	13.87675296	100.4510899	drr	working	2022-05-09T00:00:00	13:00:00	14:00:00	19	79	1988	1800	1.10
934	ถ.รัตนาธิเบศร์ ->  ถ.ราชพฤกษ์ กม.22+210	13.87675296	100.4510899	drr	working	2022-05-09T00:00:00	14:00:00	15:00:00	19	79	1976	1800	1.10
935	ถ.รัตนาธิเบศร์ ->  ถ.ราชพฤกษ์ กม.22+210	13.87675296	100.4510899	drr	working	2022-05-09T00:00:00	15:00:00	16:00:00	20	80	1981	1800	1.10
936	ถ.รัตนาธิเบศร์ ->  ถ.ราชพฤกษ์ กม.22+210	13.87675296	100.4510899	drr	working	2022-05-09T00:00:00	16:00:00	17:00:00	29	41	585	1800	0.33
937	ถ.รัตนาธิเบศร์ ->  ถ.ราชพฤกษ์ กม.22+210	13.87675296	100.4510899	drr	working	2022-05-09T00:00:00	17:00:00	18:00:00	28	47	1485	1800	0.83
938	ถ.รัตนาธิเบศร์ ->  ถ.ราชพฤกษ์ กม.22+210	13.87675296	100.4510899	drr	working	2022-05-09T00:00:00	18:00:00	19:00:00	36	47	1392	1800	0.77
939	ถ.รัตนาธิเบศร์ ->  ถ.ราชพฤกษ์ กม.22+210	13.87675296	100.4510899	drr	working	2022-06-09T00:00:00	5:00:00	6:00:00	39	28	740	1800	0.41
940	ถ.รัตนาธิเบศร์ ->  ถ.ราชพฤกษ์ กม.22+210	13.87675296	100.4510899	drr	working	2022-06-09T00:00:00	6:00:00	7:00:00	28	89	2247	1800	1.25
941	ถ.รัตนาธิเบศร์ ->  ถ.ราชพฤกษ์ กม.22+210	13.87675296	100.4510899	drr	working	2022-06-09T00:00:00	7:00:00	8:00:00	26	89	892	1800	0.50
942	ถ.รัตนาธิเบศร์ ->  ถ.ราชพฤกษ์ กม.22+210	13.87675296	100.4510899	drr	working	2022-06-09T00:00:00	8:00:00	9:00:00	25	65	1329	1800	0.74
943	ถ.รัตนาธิเบศร์ ->  ถ.ราชพฤกษ์ กม.22+210	13.87675296	100.4510899	drr	working	2022-06-09T00:00:00	9:00:00	10:00:00	23	60	1345	1800	0.75
944	ถ.รัตนาธิเบศร์ ->  ถ.ราชพฤกษ์ กม.22+210	13.87675296	100.4510899	drr	working	2022-06-09T00:00:00	10:00:00	11:00:00	22	61	1334	1800	0.74
945	ถ.รัตนาธิเบศร์ ->  ถ.ราชพฤกษ์ กม.22+210	13.87675296	100.4510899	drr	working	2022-06-09T00:00:00	11:00:00	12:00:00	34	45	1106	1800	0.61
946	ถ.รัตนาธิเบศร์ ->  ถ.ราชพฤกษ์ กม.22+210	13.87675296	100.4510899	drr	working	2022-06-09T00:00:00	12:00:00	13:00:00	29	55	761	1800	0.42
947	ถ.รัตนาธิเบศร์ ->  ถ.ราชพฤกษ์ กม.22+210	13.87675296	100.4510899	drr	working	2022-06-09T00:00:00	13:00:00	14:00:00	22	62	1236	1800	0.69
948	ถ.รัตนาธิเบศร์ ->  ถ.ราชพฤกษ์ กม.22+210	13.87675296	100.4510899	drr	working	2022-06-09T00:00:00	14:00:00	15:00:00	22	60	1268	1800	0.70
949	ถ.รัตนาธิเบศร์ ->  ถ.ราชพฤกษ์ กม.22+210	13.87675296	100.4510899	drr	working	2022-06-09T00:00:00	15:00:00	16:00:00	24	61	1223	1800	0.68
950	ถ.รัตนาธิเบศร์ ->  ถ.ราชพฤกษ์ กม.22+210	13.87675296	100.4510899	drr	working	2022-06-09T00:00:00	16:00:00	17:00:00	20	46	1115	1800	0.62
951	ถ.รัตนาธิเบศร์ ->  ถ.ราชพฤกษ์ กม.22+210	13.87675296	100.4510899	drr	working	2022-06-09T00:00:00	17:00:00	18:00:00	37	50	1147	1800	0.64
952	ถ.รัตนาธิเบศร์ ->  ถ.ราชพฤกษ์ กม.22+210	13.87675296	100.4510899	drr	working	2022-06-09T00:00:00	18:00:00	19:00:00	34	83	943	1800	0.52
953	ถ.รัตนาธิเบศร์ ->  ถ.ราชพฤกษ์ กม.22+210	13.87675296	100.4510899	drr	working	2022-07-09T00:00:00	5:00:00	6:00:00	34	28	871	1800	0.48
954	ถ.รัตนาธิเบศร์ ->  ถ.ราชพฤกษ์ กม.22+210	13.87675296	100.4510899	drr	working	2022-07-09T00:00:00	6:00:00	7:00:00	24	91	2484	1800	1.38
955	ถ.รัตนาธิเบศร์ ->  ถ.ราชพฤกษ์ กม.22+210	13.87675296	100.4510899	drr	working	2022-07-09T00:00:00	7:00:00	8:00:00	27	118	2290	1800	1.27
956	ถ.รัตนาธิเบศร์ ->  ถ.ราชพฤกษ์ กม.22+210	13.87675296	100.4510899	drr	working	2022-07-09T00:00:00	8:00:00	9:00:00	32	45	574	1800	0.32
957	ถ.รัตนาธิเบศร์ ->  ถ.ราชพฤกษ์ กม.22+210	13.87675296	100.4510899	drr	working	2022-07-09T00:00:00	9:00:00	10:00:00	27	42	428	1800	0.24
958	ถ.รัตนาธิเบศร์ ->  ถ.ราชพฤกษ์ กม.22+210	13.87675296	100.4510899	drr	working	2022-07-09T00:00:00	10:00:00	11:00:00	28	40	553	1800	0.31
959	ถ.รัตนาธิเบศร์ ->  ถ.ราชพฤกษ์ กม.22+210	13.87675296	100.4510899	drr	working	2022-07-09T00:00:00	11:00:00	12:00:00	25	37	1299	1800	0.72
960	ถ.รัตนาธิเบศร์ ->  ถ.ราชพฤกษ์ กม.22+210	13.87675296	100.4510899	drr	working	2022-07-09T00:00:00	12:00:00	13:00:00	24	37	921	1800	0.51
961	ถ.รัตนาธิเบศร์ ->  ถ.ราชพฤกษ์ กม.22+210	13.87675296	100.4510899	drr	working	2022-07-09T00:00:00	13:00:00	14:00:00	30	44	422	1800	0.23
962	ถ.รัตนาธิเบศร์ ->  ถ.ราชพฤกษ์ กม.22+210	13.87675296	100.4510899	drr	working	2022-07-09T00:00:00	14:00:00	15:00:00	30	41	466	1800	0.26
963	ถ.รัตนาธิเบศร์ ->  ถ.ราชพฤกษ์ กม.22+210	13.87675296	100.4510899	drr	working	2022-07-09T00:00:00	15:00:00	16:00:00	27	43	452	1800	0.25
964	ถ.รัตนาธิเบศร์ ->  ถ.ราชพฤกษ์ กม.22+210	13.87675296	100.4510899	drr	working	2022-07-09T00:00:00	16:00:00	17:00:00	31	48	1834	1800	1.02
965	ถ.รัตนาธิเบศร์ ->  ถ.ราชพฤกษ์ กม.22+210	13.87675296	100.4510899	drr	working	2022-07-09T00:00:00	17:00:00	18:00:00	25	65	957	1800	0.53
966	ถ.รัตนาธิเบศร์ ->  ถ.ราชพฤกษ์ กม.22+210	13.87675296	100.4510899	drr	working	2022-07-09T00:00:00	18:00:00	19:00:00	26	32	749	1800	0.42
967	ถ.รัตนาธิเบศร์ ->  ถ.ราชพฤกษ์ กม.22+210	13.87675296	100.4510899	drr	working	2022-08-09T00:00:00	5:00:00	6:00:00	39	20	379	1800	0.21
968	ถ.รัตนาธิเบศร์ ->  ถ.ราชพฤกษ์ กม.22+210	13.87675296	100.4510899	drr	working	2022-08-09T00:00:00	6:00:00	7:00:00	28	60	1127	1800	0.63
969	ถ.รัตนาธิเบศร์ ->  ถ.ราชพฤกษ์ กม.22+210	13.87675296	100.4510899	drr	working	2022-08-09T00:00:00	7:00:00	8:00:00	22	62	1334	1800	0.74
970	ถ.รัตนาธิเบศร์ ->  ถ.ราชพฤกษ์ กม.22+210	13.87675296	100.4510899	drr	working	2022-08-09T00:00:00	8:00:00	9:00:00	23	42	1116	1800	0.62
971	ถ.รัตนาธิเบศร์ ->  ถ.ราชพฤกษ์ กม.22+210	13.87675296	100.4510899	drr	working	2022-08-09T00:00:00	9:00:00	10:00:00	21	41	1083	1800	0.60
972	ถ.รัตนาธิเบศร์ ->  ถ.ราชพฤกษ์ กม.22+210	13.87675296	100.4510899	drr	working	2022-08-09T00:00:00	10:00:00	11:00:00	20	41	1119	1800	0.62
973	ถ.รัตนาธิเบศร์ ->  ถ.ราชพฤกษ์ กม.22+210	13.87675296	100.4510899	drr	working	2022-08-09T00:00:00	11:00:00	12:00:00	18	32	745	1800	0.41
974	ถ.รัตนาธิเบศร์ ->  ถ.ราชพฤกษ์ กม.22+210	13.87675296	100.4510899	drr	working	2022-08-09T00:00:00	12:00:00	13:00:00	33	52	642	1800	0.36
975	ถ.รัตนาธิเบศร์ ->  ถ.ราชพฤกษ์ กม.22+210	13.87675296	100.4510899	drr	working	2022-08-09T00:00:00	13:00:00	14:00:00	21	41	1090	1800	0.61
976	ถ.รัตนาธิเบศร์ ->  ถ.ราชพฤกษ์ กม.22+210	13.87675296	100.4510899	drr	working	2022-08-09T00:00:00	14:00:00	15:00:00	19	36	1082	1800	0.60
977	ถ.รัตนาธิเบศร์ ->  ถ.ราชพฤกษ์ กม.22+210	13.87675296	100.4510899	drr	working	2022-08-09T00:00:00	15:00:00	16:00:00	22	41	953	1800	0.53
978	ถ.รัตนาธิเบศร์ ->  ถ.ราชพฤกษ์ กม.22+210	13.87675296	100.4510899	drr	working	2022-08-09T00:00:00	16:00:00	17:00:00	21	63	1482	1800	0.82
979	ถ.รัตนาธิเบศร์ ->  ถ.ราชพฤกษ์ กม.22+210	13.87675296	100.4510899	drr	working	2022-08-09T00:00:00	17:00:00	18:00:00	38	51	601	1800	0.33
980	ถ.รัตนาธิเบศร์ ->  ถ.ราชพฤกษ์ กม.22+210	13.87675296	100.4510899	drr	working	2022-08-09T00:00:00	18:00:00	19:00:00	43	56	1118	1800	0.62
981	ถ.รัตนาธิเบศร์ ->  ถ.ราชพฤกษ์ กม.22+210	13.87675296	100.4510899	drr	working	2022-09-09T00:00:00	5:00:00	6:00:00	36	19	375	1800	0.21
982	ถ.รัตนาธิเบศร์ ->  ถ.ราชพฤกษ์ กม.22+210	13.87675296	100.4510899	drr	working	2022-09-09T00:00:00	6:00:00	7:00:00	26	61	1128	1800	0.63
983	ถ.รัตนาธิเบศร์ ->  ถ.ราชพฤกษ์ กม.22+210	13.87675296	100.4510899	drr	working	2022-09-09T00:00:00	7:00:00	8:00:00	26	82	1024	1800	0.57
984	ถ.รัตนาธิเบศร์ ->  ถ.ราชพฤกษ์ กม.22+210	13.87675296	100.4510899	drr	working	2022-09-09T00:00:00	8:00:00	9:00:00	22	107	830	1800	0.46
985	ถ.รัตนาธิเบศร์ ->  ถ.ราชพฤกษ์ กม.22+210	13.87675296	100.4510899	drr	working	2022-09-09T00:00:00	9:00:00	10:00:00	19	105	787	1800	0.44
986	ถ.รัตนาธิเบศร์ ->  ถ.ราชพฤกษ์ กม.22+210	13.87675296	100.4510899	drr	working	2022-09-09T00:00:00	10:00:00	11:00:00	18	105	715	1800	0.40
987	ถ.รัตนาธิเบศร์ ->  ถ.ราชพฤกษ์ กม.22+210	13.87675296	100.4510899	drr	working	2022-09-09T00:00:00	11:00:00	12:00:00	25	52	936	1800	0.52
988	ถ.รัตนาธิเบศร์ ->  ถ.ราชพฤกษ์ กม.22+210	13.87675296	100.4510899	drr	working	2022-09-09T00:00:00	12:00:00	13:00:00	25	61	1664	1800	0.92
989	ถ.รัตนาธิเบศร์ ->  ถ.ราชพฤกษ์ กม.22+210	13.87675296	100.4510899	drr	working	2022-09-09T00:00:00	13:00:00	14:00:00	19	106	759	1800	0.42
990	ถ.รัตนาธิเบศร์ ->  ถ.ราชพฤกษ์ กม.22+210	13.87675296	100.4510899	drr	working	2022-09-09T00:00:00	14:00:00	15:00:00	20	106	722	1800	0.40
991	ถ.รัตนาธิเบศร์ ->  ถ.ราชพฤกษ์ กม.22+210	13.87675296	100.4510899	drr	working	2022-09-09T00:00:00	15:00:00	16:00:00	17	106	801	1800	0.45
992	ถ.รัตนาธิเบศร์ ->  ถ.ราชพฤกษ์ กม.22+210	13.87675296	100.4510899	drr	working	2022-09-09T00:00:00	16:00:00	17:00:00	26	41	594	1800	0.33
993	ถ.รัตนาธิเบศร์ ->  ถ.ราชพฤกษ์ กม.22+210	13.87675296	100.4510899	drr	working	2022-09-09T00:00:00	17:00:00	18:00:00	30	72	1756	1800	0.98
994	ถ.รัตนาธิเบศร์ ->  ถ.ราชพฤกษ์ กม.22+210	13.87675296	100.4510899	drr	working	2022-09-09T00:00:00	18:00:00	19:00:00	28	65	1858	1800	1.03
995	ถ.ชัยพฤกษ์ -> ปากเกร็ด กม.3+890	13.92291051	100.4765718	drr	working	2022-05-09T00:00:00	5:00:00	6:00:00	70	17	286	1800	0.16
996	ถ.ชัยพฤกษ์ -> ปากเกร็ด กม.3+890	13.92291051	100.4765718	drr	working	2022-05-09T00:00:00	6:00:00	7:00:00	49	53	799	1800	0.44
997	ถ.ชัยพฤกษ์ -> ปากเกร็ด กม.3+890	13.92291051	100.4765718	drr	working	2022-05-09T00:00:00	7:00:00	8:00:00	70	59	1357	1800	0.75
998	ถ.ชัยพฤกษ์ -> ปากเกร็ด กม.3+890	13.92291051	100.4765718	drr	working	2022-05-09T00:00:00	8:00:00	9:00:00	49	43	966	1800	0.54
999	ถ.ชัยพฤกษ์ -> ปากเกร็ด กม.3+890	13.92291051	100.4765718	drr	working	2022-05-09T00:00:00	9:00:00	10:00:00	45	38	830	1800	0.46
1000	ถ.ชัยพฤกษ์ -> ปากเกร็ด กม.3+890	13.92291051	100.4765718	drr	working	2022-05-09T00:00:00	10:00:00	11:00:00	44	42	890	1800	0.49
1001	ถ.ชัยพฤกษ์ -> ปากเกร็ด กม.3+890	13.92291051	100.4765718	drr	working	2022-05-09T00:00:00	11:00:00	12:00:00	49	44	583	1800	0.32
1002	ถ.ชัยพฤกษ์ -> ปากเกร็ด กม.3+890	13.92291051	100.4765718	drr	working	2022-05-09T00:00:00	12:00:00	13:00:00	53	35	746	1800	0.41
1003	ถ.ชัยพฤกษ์ -> ปากเกร็ด กม.3+890	13.92291051	100.4765718	drr	working	2022-05-09T00:00:00	13:00:00	14:00:00	47	41	794	1800	0.44
1004	ถ.ชัยพฤกษ์ -> ปากเกร็ด กม.3+890	13.92291051	100.4765718	drr	working	2022-05-09T00:00:00	14:00:00	15:00:00	47	40	820	1800	0.46
1005	ถ.ชัยพฤกษ์ -> ปากเกร็ด กม.3+890	13.92291051	100.4765718	drr	working	2022-05-09T00:00:00	15:00:00	16:00:00	47	39	834	1800	0.46
1006	ถ.ชัยพฤกษ์ -> ปากเกร็ด กม.3+890	13.92291051	100.4765718	drr	working	2022-05-09T00:00:00	16:00:00	17:00:00	47	42	944	1800	0.52
1007	ถ.ชัยพฤกษ์ -> ปากเกร็ด กม.3+890	13.92291051	100.4765718	drr	working	2022-05-09T00:00:00	17:00:00	18:00:00	46	47	1123	1800	0.62
1008	ถ.ชัยพฤกษ์ -> ปากเกร็ด กม.3+890	13.92291051	100.4765718	drr	working	2022-05-09T00:00:00	18:00:00	19:00:00	74	34	424	1800	0.24
1009	ถ.ชัยพฤกษ์ -> ปากเกร็ด กม.3+890	13.92291051	100.4765718	drr	working	2022-06-09T00:00:00	5:00:00	6:00:00	71	11	306	1800	0.17
1010	ถ.ชัยพฤกษ์ -> ปากเกร็ด กม.3+890	13.92291051	100.4765718	drr	working	2022-06-09T00:00:00	6:00:00	7:00:00	51	36	928	1800	0.52
1011	ถ.ชัยพฤกษ์ -> ปากเกร็ด กม.3+890	13.92291051	100.4765718	drr	working	2022-06-09T00:00:00	7:00:00	8:00:00	48	43	1143	1800	0.64
1012	ถ.ชัยพฤกษ์ -> ปากเกร็ด กม.3+890	13.92291051	100.4765718	drr	working	2022-06-09T00:00:00	8:00:00	9:00:00	49	58	1517	1800	0.84
1013	ถ.ชัยพฤกษ์ -> ปากเกร็ด กม.3+890	13.92291051	100.4765718	drr	working	2022-06-09T00:00:00	9:00:00	10:00:00	44	53	1412	1800	0.78
1014	ถ.ชัยพฤกษ์ -> ปากเกร็ด กม.3+890	13.92291051	100.4765718	drr	working	2022-06-09T00:00:00	10:00:00	11:00:00	48	57	1517	1800	0.84
1015	ถ.ชัยพฤกษ์ -> ปากเกร็ด กม.3+890	13.92291051	100.4765718	drr	working	2022-06-09T00:00:00	11:00:00	12:00:00	46	59	1495	1800	0.83
1016	ถ.ชัยพฤกษ์ -> ปากเกร็ด กม.3+890	13.92291051	100.4765718	drr	working	2022-06-09T00:00:00	12:00:00	13:00:00	62	40	1112	1800	0.62
1017	ถ.ชัยพฤกษ์ -> ปากเกร็ด กม.3+890	13.92291051	100.4765718	drr	working	2022-06-09T00:00:00	13:00:00	14:00:00	48	56	1361	1800	0.76
1018	ถ.ชัยพฤกษ์ -> ปากเกร็ด กม.3+890	13.92291051	100.4765718	drr	working	2022-06-09T00:00:00	14:00:00	15:00:00	48	57	1475	1800	0.82
1019	ถ.ชัยพฤกษ์ -> ปากเกร็ด กม.3+890	13.92291051	100.4765718	drr	working	2022-06-09T00:00:00	15:00:00	16:00:00	48	53	1482	1800	0.82
1020	ถ.ชัยพฤกษ์ -> ปากเกร็ด กม.3+890	13.92291051	100.4765718	drr	working	2022-06-09T00:00:00	16:00:00	17:00:00	71	66	780	1800	0.43
1021	ถ.ชัยพฤกษ์ -> ปากเกร็ด กม.3+890	13.92291051	100.4765718	drr	working	2022-06-09T00:00:00	17:00:00	18:00:00	46	62	974	1800	0.54
1022	ถ.ชัยพฤกษ์ -> ปากเกร็ด กม.3+890	13.92291051	100.4765718	drr	working	2022-06-09T00:00:00	18:00:00	19:00:00	29	97	976	1800	0.54
1023	ถ.ชัยพฤกษ์ -> ปากเกร็ด กม.3+890	13.92291051	100.4765718	drr	working	2022-07-09T00:00:00	5:00:00	6:00:00	100	16	145	1800	0.08
1024	ถ.ชัยพฤกษ์ -> ปากเกร็ด กม.3+890	13.92291051	100.4765718	drr	working	2022-07-09T00:00:00	6:00:00	7:00:00	70	47	433	1800	0.24
1025	ถ.ชัยพฤกษ์ -> ปากเกร็ด กม.3+890	13.92291051	100.4765718	drr	working	2022-07-09T00:00:00	7:00:00	8:00:00	51	39	1474	1800	0.82
1026	ถ.ชัยพฤกษ์ -> ปากเกร็ด กม.3+890	13.92291051	100.4765718	drr	working	2022-07-09T00:00:00	8:00:00	9:00:00	52	57	171	1800	0.10
1027	ถ.ชัยพฤกษ์ -> ปากเกร็ด กม.3+890	13.92291051	100.4765718	drr	working	2022-07-09T00:00:00	9:00:00	10:00:00	47	52	74	1800	0.04
1028	ถ.ชัยพฤกษ์ -> ปากเกร็ด กม.3+890	13.92291051	100.4765718	drr	working	2022-07-09T00:00:00	10:00:00	11:00:00	50	52	125	1800	0.07
1029	ถ.ชัยพฤกษ์ -> ปากเกร็ด กม.3+890	13.92291051	100.4765718	drr	working	2022-07-09T00:00:00	11:00:00	12:00:00	46	69	227	1800	0.13
1030	ถ.ชัยพฤกษ์ -> ปากเกร็ด กม.3+890	13.92291051	100.4765718	drr	working	2022-07-09T00:00:00	12:00:00	13:00:00	46	40	389	1800	0.22
1031	ถ.ชัยพฤกษ์ -> ปากเกร็ด กม.3+890	13.92291051	100.4765718	drr	working	2022-07-09T00:00:00	13:00:00	14:00:00	50	52	115	1800	0.06
1032	ถ.ชัยพฤกษ์ -> ปากเกร็ด กม.3+890	13.92291051	100.4765718	drr	working	2022-07-09T00:00:00	14:00:00	15:00:00	49	53	53	1800	0.03
1033	ถ.ชัยพฤกษ์ -> ปากเกร็ด กม.3+890	13.92291051	100.4765718	drr	working	2022-07-09T00:00:00	15:00:00	16:00:00	49	53	33	1800	0.02
1034	ถ.ชัยพฤกษ์ -> ปากเกร็ด กม.3+890	13.92291051	100.4765718	drr	working	2022-07-09T00:00:00	16:00:00	17:00:00	51	37	1481	1800	0.82
1035	ถ.ชัยพฤกษ์ -> ปากเกร็ด กม.3+890	13.92291051	100.4765718	drr	working	2022-07-09T00:00:00	17:00:00	18:00:00	60	45	1323	1800	0.74
1036	ถ.ชัยพฤกษ์ -> ปากเกร็ด กม.3+890	13.92291051	100.4765718	drr	working	2022-07-09T00:00:00	18:00:00	19:00:00	74	50	1160	1800	0.64
1037	ถ.ชัยพฤกษ์ -> ปากเกร็ด กม.3+890	13.92291051	100.4765718	drr	working	2022-08-09T00:00:00	5:00:00	6:00:00	87	11	268	1800	0.15
1038	ถ.ชัยพฤกษ์ -> ปากเกร็ด กม.3+890	13.92291051	100.4765718	drr	working	2022-08-09T00:00:00	6:00:00	7:00:00	63	34	750	1800	0.42
1039	ถ.ชัยพฤกษ์ -> ปากเกร็ด กม.3+890	13.92291051	100.4765718	drr	working	2022-08-09T00:00:00	7:00:00	8:00:00	53	75	1353	1800	0.75
1040	ถ.ชัยพฤกษ์ -> ปากเกร็ด กม.3+890	13.92291051	100.4765718	drr	working	2022-08-09T00:00:00	8:00:00	9:00:00	51	50	823	1800	0.46
1041	ถ.ชัยพฤกษ์ -> ปากเกร็ด กม.3+890	13.92291051	100.4765718	drr	working	2022-08-09T00:00:00	9:00:00	10:00:00	47	47	739	1800	0.41
1042	ถ.ชัยพฤกษ์ -> ปากเกร็ด กม.3+890	13.92291051	100.4765718	drr	working	2022-08-09T00:00:00	10:00:00	11:00:00	46	47	784	1800	0.44
1043	ถ.ชัยพฤกษ์ -> ปากเกร็ด กม.3+890	13.92291051	100.4765718	drr	working	2022-08-09T00:00:00	11:00:00	12:00:00	49	43	704	1800	0.39
1044	ถ.ชัยพฤกษ์ -> ปากเกร็ด กม.3+890	13.92291051	100.4765718	drr	working	2022-08-09T00:00:00	12:00:00	13:00:00	56	53	1125	1800	0.63
1045	ถ.ชัยพฤกษ์ -> ปากเกร็ด กม.3+890	13.92291051	100.4765718	drr	working	2022-08-09T00:00:00	13:00:00	14:00:00	49	49	758	1800	0.42
1046	ถ.ชัยพฤกษ์ -> ปากเกร็ด กม.3+890	13.92291051	100.4765718	drr	working	2022-08-09T00:00:00	14:00:00	15:00:00	48	46	725	1800	0.40
1047	ถ.ชัยพฤกษ์ -> ปากเกร็ด กม.3+890	13.92291051	100.4765718	drr	working	2022-08-09T00:00:00	15:00:00	16:00:00	49	47	757	1800	0.42
1048	ถ.ชัยพฤกษ์ -> ปากเกร็ด กม.3+890	13.92291051	100.4765718	drr	working	2022-08-09T00:00:00	16:00:00	17:00:00	46	88	813	1800	0.45
1049	ถ.ชัยพฤกษ์ -> ปากเกร็ด กม.3+890	13.92291051	100.4765718	drr	working	2022-08-09T00:00:00	17:00:00	18:00:00	109	34	405	1800	0.23
1050	ถ.ชัยพฤกษ์ -> ปากเกร็ด กม.3+890	13.92291051	100.4765718	drr	working	2022-08-09T00:00:00	18:00:00	19:00:00	51	67	774	1800	0.43
1051	ถ.ชัยพฤกษ์ -> ปากเกร็ด กม.3+890	13.92291051	100.4765718	drr	working	2022-09-09T00:00:00	5:00:00	6:00:00	69	14	532	1800	0.30
1052	ถ.ชัยพฤกษ์ -> ปากเกร็ด กม.3+890	13.92291051	100.4765718	drr	working	2022-09-09T00:00:00	6:00:00	7:00:00	49	41	1660	1800	0.92
1053	ถ.ชัยพฤกษ์ -> ปากเกร็ด กม.3+890	13.92291051	100.4765718	drr	working	2022-09-09T00:00:00	7:00:00	8:00:00	49	56	977	1800	0.54
1054	ถ.ชัยพฤกษ์ -> ปากเกร็ด กม.3+890	13.92291051	100.4765718	drr	working	2022-09-09T00:00:00	8:00:00	9:00:00	54	47	1701	1800	0.95
1055	ถ.ชัยพฤกษ์ -> ปากเกร็ด กม.3+890	13.92291051	100.4765718	drr	working	2022-09-09T00:00:00	9:00:00	10:00:00	52	41	1583	1800	0.88
1056	ถ.ชัยพฤกษ์ -> ปากเกร็ด กม.3+890	13.92291051	100.4765718	drr	working	2022-09-09T00:00:00	10:00:00	11:00:00	49	46	1625	1800	0.90
1057	ถ.ชัยพฤกษ์ -> ปากเกร็ด กม.3+890	13.92291051	100.4765718	drr	working	2022-09-09T00:00:00	11:00:00	12:00:00	47	58	578	1800	0.32
1058	ถ.ชัยพฤกษ์ -> ปากเกร็ด กม.3+890	13.92291051	100.4765718	drr	working	2022-09-09T00:00:00	12:00:00	13:00:00	63	63	565	1800	0.31
1059	ถ.ชัยพฤกษ์ -> ปากเกร็ด กม.3+890	13.92291051	100.4765718	drr	working	2022-09-09T00:00:00	13:00:00	14:00:00	51	43	1652	1800	0.92
1060	ถ.ชัยพฤกษ์ -> ปากเกร็ด กม.3+890	13.92291051	100.4765718	drr	working	2022-09-09T00:00:00	14:00:00	15:00:00	51	44	1672	1800	0.93
1061	ถ.ชัยพฤกษ์ -> ปากเกร็ด กม.3+890	13.92291051	100.4765718	drr	working	2022-09-09T00:00:00	15:00:00	16:00:00	51	45	1531	1800	0.85
1062	ถ.ชัยพฤกษ์ -> ปากเกร็ด กม.3+890	13.92291051	100.4765718	drr	working	2022-09-09T00:00:00	16:00:00	17:00:00	51	55	804	1800	0.45
1063	ถ.ชัยพฤกษ์ -> ปากเกร็ด กม.3+890	13.92291051	100.4765718	drr	working	2022-09-09T00:00:00	17:00:00	18:00:00	54	57	1337	1800	0.74
1064	ถ.ชัยพฤกษ์ -> ปากเกร็ด กม.3+890	13.92291051	100.4765718	drr	working	2022-09-09T00:00:00	18:00:00	19:00:00	50	63	989	1800	0.55
1065	ถ.ราชพฤกษ์ -> ถ.กาญจนาภิเษก  กม.3+850	13.9227733	100.4769232	drr	working	2022-05-09T00:00:00	5:00:00	6:00:00	64	10	132	1800	0.07
1066	ถ.ราชพฤกษ์ -> ถ.กาญจนาภิเษก  กม.3+850	13.9227733	100.4769232	drr	working	2022-05-09T00:00:00	6:00:00	7:00:00	46	32	386	1800	0.21
1067	ถ.ราชพฤกษ์ -> ถ.กาญจนาภิเษก  กม.3+850	13.9227733	100.4769232	drr	working	2022-05-09T00:00:00	7:00:00	8:00:00	53	37	593	1800	0.33
1068	ถ.ราชพฤกษ์ -> ถ.กาญจนาภิเษก  กม.3+850	13.9227733	100.4769232	drr	working	2022-05-09T00:00:00	8:00:00	9:00:00	33	65	987	1800	0.55
1069	ถ.ราชพฤกษ์ -> ถ.กาญจนาภิเษก  กม.3+850	13.9227733	100.4769232	drr	working	2022-05-09T00:00:00	9:00:00	10:00:00	29	64	880	1800	0.49
1070	ถ.ราชพฤกษ์ -> ถ.กาญจนาภิเษก  กม.3+850	13.9227733	100.4769232	drr	working	2022-05-09T00:00:00	10:00:00	11:00:00	32	64	878	1800	0.49
1071	ถ.ราชพฤกษ์ -> ถ.กาญจนาภิเษก  กม.3+850	13.9227733	100.4769232	drr	working	2022-05-09T00:00:00	11:00:00	12:00:00	38	46	376	1800	0.21
1072	ถ.ราชพฤกษ์ -> ถ.กาญจนาภิเษก  กม.3+850	13.9227733	100.4769232	drr	working	2022-05-09T00:00:00	12:00:00	13:00:00	53	48	751	1800	0.42
1073	ถ.ราชพฤกษ์ -> ถ.กาญจนาภิเษก  กม.3+850	13.9227733	100.4769232	drr	working	2022-05-09T00:00:00	13:00:00	14:00:00	31	60	890	1800	0.49
1074	ถ.ราชพฤกษ์ -> ถ.กาญจนาภิเษก  กม.3+850	13.9227733	100.4769232	drr	working	2022-05-09T00:00:00	14:00:00	15:00:00	31	62	894	1800	0.50
1075	ถ.ราชพฤกษ์ -> ถ.กาญจนาภิเษก  กม.3+850	13.9227733	100.4769232	drr	working	2022-05-09T00:00:00	15:00:00	16:00:00	32	62	897	1800	0.50
1076	ถ.ราชพฤกษ์ -> ถ.กาญจนาภิเษก  กม.3+850	13.9227733	100.4769232	drr	working	2022-05-09T00:00:00	16:00:00	17:00:00	39	41	774	1800	0.43
1077	ถ.ราชพฤกษ์ -> ถ.กาญจนาภิเษก  กม.3+850	13.9227733	100.4769232	drr	working	2022-05-09T00:00:00	17:00:00	18:00:00	42	51	973	1800	0.54
1078	ถ.ราชพฤกษ์ -> ถ.กาญจนาภิเษก  กม.3+850	13.9227733	100.4769232	drr	working	2022-05-09T00:00:00	18:00:00	19:00:00	45	40	585	1800	0.33
1079	ถ.ราชพฤกษ์ -> ถ.กาญจนาภิเษก  กม.3+850	13.9227733	100.4769232	drr	working	2022-06-09T00:00:00	5:00:00	6:00:00	65	11	129	1800	0.07
1080	ถ.ราชพฤกษ์ -> ถ.กาญจนาภิเษก  กม.3+850	13.9227733	100.4769232	drr	working	2022-06-09T00:00:00	6:00:00	7:00:00	46	32	378	1800	0.21
1081	ถ.ราชพฤกษ์ -> ถ.กาญจนาภิเษก  กม.3+850	13.9227733	100.4769232	drr	working	2022-06-09T00:00:00	7:00:00	8:00:00	47	124	1308	1800	0.73
1082	ถ.ราชพฤกษ์ -> ถ.กาญจนาภิเษก  กม.3+850	13.9227733	100.4769232	drr	working	2022-06-09T00:00:00	8:00:00	9:00:00	43	32	404	1800	0.22
1083	ถ.ราชพฤกษ์ -> ถ.กาญจนาภิเษก  กม.3+850	13.9227733	100.4769232	drr	working	2022-06-09T00:00:00	9:00:00	10:00:00	40	30	389	1800	0.22
1084	ถ.ราชพฤกษ์ -> ถ.กาญจนาภิเษก  กม.3+850	13.9227733	100.4769232	drr	working	2022-06-09T00:00:00	10:00:00	11:00:00	38	29	366	1800	0.20
1085	ถ.ราชพฤกษ์ -> ถ.กาญจนาภิเษก  กม.3+850	13.9227733	100.4769232	drr	working	2022-06-09T00:00:00	11:00:00	12:00:00	46	44	383	1800	0.21
1086	ถ.ราชพฤกษ์ -> ถ.กาญจนาภิเษก  กม.3+850	13.9227733	100.4769232	drr	working	2022-06-09T00:00:00	12:00:00	13:00:00	46	47	873	1800	0.49
1087	ถ.ราชพฤกษ์ -> ถ.กาญจนาภิเษก  กม.3+850	13.9227733	100.4769232	drr	working	2022-06-09T00:00:00	13:00:00	14:00:00	38	30	287	1800	0.16
1088	ถ.ราชพฤกษ์ -> ถ.กาญจนาภิเษก  กม.3+850	13.9227733	100.4769232	drr	working	2022-06-09T00:00:00	14:00:00	15:00:00	39	29	387	1800	0.22
1089	ถ.ราชพฤกษ์ -> ถ.กาญจนาภิเษก  กม.3+850	13.9227733	100.4769232	drr	working	2022-06-09T00:00:00	15:00:00	16:00:00	42	28	287	1800	0.16
1090	ถ.ราชพฤกษ์ -> ถ.กาญจนาภิเษก  กม.3+850	13.9227733	100.4769232	drr	working	2022-06-09T00:00:00	16:00:00	17:00:00	37	32	421	1800	0.23
1091	ถ.ราชพฤกษ์ -> ถ.กาญจนาภิเษก  กม.3+850	13.9227733	100.4769232	drr	working	2022-06-09T00:00:00	17:00:00	18:00:00	33	126	401	1800	0.22
1092	ถ.ราชพฤกษ์ -> ถ.กาญจนาภิเษก  กม.3+850	13.9227733	100.4769232	drr	working	2022-06-09T00:00:00	18:00:00	19:00:00	45	40	448	1800	0.25
1093	ถ.ราชพฤกษ์ -> ถ.กาญจนาภิเษก  กม.3+850	13.9227733	100.4769232	drr	working	2022-07-09T00:00:00	5:00:00	6:00:00	65	11	133	1800	0.07
1094	ถ.ราชพฤกษ์ -> ถ.กาญจนาภิเษก  กม.3+850	13.9227733	100.4769232	drr	working	2022-07-09T00:00:00	6:00:00	7:00:00	46	32	381	1800	0.21
1095	ถ.ราชพฤกษ์ -> ถ.กาญจนาภิเษก  กม.3+850	13.9227733	100.4769232	drr	working	2022-07-09T00:00:00	7:00:00	8:00:00	37	136	758	1800	0.42
1096	ถ.ราชพฤกษ์ -> ถ.กาญจนาภิเษก  กม.3+850	13.9227733	100.4769232	drr	working	2022-07-09T00:00:00	8:00:00	9:00:00	42	86	427	1800	0.24
1097	ถ.ราชพฤกษ์ -> ถ.กาญจนาภิเษก  กม.3+850	13.9227733	100.4769232	drr	working	2022-07-09T00:00:00	9:00:00	10:00:00	38	84	330	1800	0.18
1098	ถ.ราชพฤกษ์ -> ถ.กาญจนาภิเษก  กม.3+850	13.9227733	100.4769232	drr	working	2022-07-09T00:00:00	10:00:00	11:00:00	38	81	386	1800	0.21
1099	ถ.ราชพฤกษ์ -> ถ.กาญจนาภิเษก  กม.3+850	13.9227733	100.4769232	drr	working	2022-07-09T00:00:00	11:00:00	12:00:00	49	66	570	1800	0.32
1100	ถ.ราชพฤกษ์ -> ถ.กาญจนาภิเษก  กม.3+850	13.9227733	100.4769232	drr	working	2022-07-09T00:00:00	12:00:00	13:00:00	47	60	763	1800	0.42
1101	ถ.ราชพฤกษ์ -> ถ.กาญจนาภิเษก  กม.3+850	13.9227733	100.4769232	drr	working	2022-07-09T00:00:00	13:00:00	14:00:00	39	81	332	1800	0.18
1102	ถ.ราชพฤกษ์ -> ถ.กาญจนาภิเษก  กม.3+850	13.9227733	100.4769232	drr	working	2022-07-09T00:00:00	14:00:00	15:00:00	39	83	345	1800	0.19
1103	ถ.ราชพฤกษ์ -> ถ.กาญจนาภิเษก  กม.3+850	13.9227733	100.4769232	drr	working	2022-07-09T00:00:00	15:00:00	16:00:00	39	81	276	1800	0.15
1104	ถ.ราชพฤกษ์ -> ถ.กาญจนาภิเษก  กม.3+850	13.9227733	100.4769232	drr	working	2022-07-09T00:00:00	16:00:00	17:00:00	50	40	414	1800	0.23
1105	ถ.ราชพฤกษ์ -> ถ.กาญจนาภิเษก  กม.3+850	13.9227733	100.4769232	drr	working	2022-07-09T00:00:00	17:00:00	18:00:00	46	38	385	1800	0.21
1106	ถ.ราชพฤกษ์ -> ถ.กาญจนาภิเษก  กม.3+850	13.9227733	100.4769232	drr	working	2022-07-09T00:00:00	18:00:00	19:00:00	41	78	1149	1800	0.64
1107	ถ.ราชพฤกษ์ -> ถ.กาญจนาภิเษก  กม.3+850	13.9227733	100.4769232	drr	working	2022-08-09T00:00:00	5:00:00	6:00:00	65	10	130	1800	0.07
1108	ถ.ราชพฤกษ์ -> ถ.กาญจนาภิเษก  กม.3+850	13.9227733	100.4769232	drr	working	2022-08-09T00:00:00	6:00:00	7:00:00	46	32	382	1800	0.21
1109	ถ.ราชพฤกษ์ -> ถ.กาญจนาภิเษก  กม.3+850	13.9227733	100.4769232	drr	working	2022-08-09T00:00:00	7:00:00	8:00:00	37	136	780	1800	0.43
1110	ถ.ราชพฤกษ์ -> ถ.กาญจนาภิเษก  กม.3+850	13.9227733	100.4769232	drr	working	2022-08-09T00:00:00	8:00:00	9:00:00	39	127	787	1800	0.44
1111	ถ.ราชพฤกษ์ -> ถ.กาญจนาภิเษก  กม.3+850	13.9227733	100.4769232	drr	working	2022-08-09T00:00:00	9:00:00	10:00:00	38	125	708	1800	0.39
1112	ถ.ราชพฤกษ์ -> ถ.กาญจนาภิเษก  กม.3+850	13.9227733	100.4769232	drr	working	2022-08-09T00:00:00	10:00:00	11:00:00	34	128	756	1800	0.42
1113	ถ.ราชพฤกษ์ -> ถ.กาญจนาภิเษก  กม.3+850	13.9227733	100.4769232	drr	working	2022-08-09T00:00:00	11:00:00	12:00:00	44	40	1103	1800	0.61
1114	ถ.ราชพฤกษ์ -> ถ.กาญจนาภิเษก  กม.3+850	13.9227733	100.4769232	drr	working	2022-08-09T00:00:00	12:00:00	13:00:00	53	35	568	1800	0.32
1115	ถ.ราชพฤกษ์ -> ถ.กาญจนาภิเษก  กม.3+850	13.9227733	100.4769232	drr	working	2022-08-09T00:00:00	13:00:00	14:00:00	38	122	637	1800	0.35
1116	ถ.ราชพฤกษ์ -> ถ.กาญจนาภิเษก  กม.3+850	13.9227733	100.4769232	drr	working	2022-08-09T00:00:00	14:00:00	15:00:00	38	121	621	1800	0.35
1117	ถ.ราชพฤกษ์ -> ถ.กาญจนาภิเษก  กม.3+850	13.9227733	100.4769232	drr	working	2022-08-09T00:00:00	15:00:00	16:00:00	38	125	685	1800	0.38
1118	ถ.ราชพฤกษ์ -> ถ.กาญจนาภิเษก  กม.3+850	13.9227733	100.4769232	drr	working	2022-08-09T00:00:00	16:00:00	17:00:00	45	109	782	1800	0.43
1119	ถ.ราชพฤกษ์ -> ถ.กาญจนาภิเษก  กม.3+850	13.9227733	100.4769232	drr	working	2022-08-09T00:00:00	17:00:00	18:00:00	41	70	756	1800	0.42
1120	ถ.ราชพฤกษ์ -> ถ.กาญจนาภิเษก  กม.3+850	13.9227733	100.4769232	drr	working	2022-08-09T00:00:00	18:00:00	19:00:00	9	78	831	1800	0.46
1121	ถ.ราชพฤกษ์ -> ถ.กาญจนาภิเษก  กม.3+850	13.9227733	100.4769232	drr	working	2022-09-09T00:00:00	5:00:00	6:00:00	65	11	127	1800	0.07
1122	ถ.ราชพฤกษ์ -> ถ.กาญจนาภิเษก  กม.3+850	13.9227733	100.4769232	drr	working	2022-09-09T00:00:00	6:00:00	7:00:00	46	32	379	1800	0.21
1123	ถ.ราชพฤกษ์ -> ถ.กาญจนาภิเษก  กม.3+850	13.9227733	100.4769232	drr	working	2022-09-09T00:00:00	7:00:00	8:00:00	44	151	775	1800	0.43
1124	ถ.ราชพฤกษ์ -> ถ.กาญจนาภิเษก  กม.3+850	13.9227733	100.4769232	drr	working	2022-09-09T00:00:00	8:00:00	9:00:00	39	123	984	1800	0.55
1125	ถ.ราชพฤกษ์ -> ถ.กาญจนาภิเษก  กม.3+850	13.9227733	100.4769232	drr	working	2022-09-09T00:00:00	9:00:00	10:00:00	34	121	916	1800	0.51
1126	ถ.ราชพฤกษ์ -> ถ.กาญจนาภิเษก  กม.3+850	13.9227733	100.4769232	drr	working	2022-09-09T00:00:00	10:00:00	11:00:00	35	121	982	1800	0.55
1127	ถ.ราชพฤกษ์ -> ถ.กาญจนาภิเษก  กม.3+850	13.9227733	100.4769232	drr	working	2022-09-09T00:00:00	11:00:00	12:00:00	48	32	390	1800	0.22
1128	ถ.ราชพฤกษ์ -> ถ.กาญจนาภิเษก  กม.3+850	13.9227733	100.4769232	drr	working	2022-09-09T00:00:00	12:00:00	13:00:00	41	60	1106	1800	0.61
1129	ถ.ราชพฤกษ์ -> ถ.กาญจนาภิเษก  กม.3+850	13.9227733	100.4769232	drr	working	2022-09-09T00:00:00	13:00:00	14:00:00	35	123	848	1800	0.47
1130	ถ.ราชพฤกษ์ -> ถ.กาญจนาภิเษก  กม.3+850	13.9227733	100.4769232	drr	working	2022-09-09T00:00:00	14:00:00	15:00:00	38	120	941	1800	0.52
1131	ถ.ราชพฤกษ์ -> ถ.กาญจนาภิเษก  กม.3+850	13.9227733	100.4769232	drr	working	2022-09-09T00:00:00	15:00:00	16:00:00	38	120	946	1800	0.53
1132	ถ.ราชพฤกษ์ -> ถ.กาญจนาภิเษก  กม.3+850	13.9227733	100.4769232	drr	working	2022-09-09T00:00:00	16:00:00	17:00:00	43	32	590	1800	0.33
1133	ถ.ราชพฤกษ์ -> ถ.กาญจนาภิเษก  กม.3+850	13.9227733	100.4769232	drr	working	2022-09-09T00:00:00	17:00:00	18:00:00	50	44	776	1800	0.43
1134	ถ.ราชพฤกษ์ -> ถ.กาญจนาภิเษก  กม.3+850	13.9227733	100.4769232	drr	working	2022-09-09T00:00:00	18:00:00	19:00:00	58	49	426	1800	0.24
1135	ถ.ราชพฤกษ์ -> ถ.ชัยพฤกษ์ กม.23+190	13.88558854	100.4504866	drr	working	2022-05-09T00:00:00	5:00:00	6:00:00	42	26	948	2700	0.35
1136	ถ.ราชพฤกษ์ -> ถ.ชัยพฤกษ์ กม.23+190	13.88558854	100.4504866	drr	working	2022-05-09T00:00:00	6:00:00	7:00:00	30	74	2930	2700	1.09
1137	ถ.ราชพฤกษ์ -> ถ.ชัยพฤกษ์ กม.23+190	13.88558854	100.4504866	drr	working	2022-05-09T00:00:00	7:00:00	8:00:00	27	83	3149	2700	1.17
1138	ถ.ราชพฤกษ์ -> ถ.ชัยพฤกษ์ กม.23+190	13.88558854	100.4504866	drr	working	2022-05-09T00:00:00	8:00:00	9:00:00	35	92	2996	2700	1.11
1139	ถ.ราชพฤกษ์ -> ถ.ชัยพฤกษ์ กม.23+190	13.88558854	100.4504866	drr	working	2022-05-09T00:00:00	9:00:00	10:00:00	34	87	2900	2700	1.07
1140	ถ.ราชพฤกษ์ -> ถ.ชัยพฤกษ์ กม.23+190	13.88558854	100.4504866	drr	working	2022-05-09T00:00:00	10:00:00	11:00:00	33	88	2902	2700	1.07
1141	ถ.ราชพฤกษ์ -> ถ.ชัยพฤกษ์ กม.23+190	13.88558854	100.4504866	drr	working	2022-05-09T00:00:00	11:00:00	12:00:00	33	76	2215	2700	0.82
1142	ถ.ราชพฤกษ์ -> ถ.ชัยพฤกษ์ กม.23+190	13.88558854	100.4504866	drr	working	2022-05-09T00:00:00	12:00:00	13:00:00	36	89	3127	2700	1.16
1143	ถ.ราชพฤกษ์ -> ถ.ชัยพฤกษ์ กม.23+190	13.88558854	100.4504866	drr	working	2022-05-09T00:00:00	13:00:00	14:00:00	33	87	2816	2700	1.04
1144	ถ.ราชพฤกษ์ -> ถ.ชัยพฤกษ์ กม.23+190	13.88558854	100.4504866	drr	working	2022-05-09T00:00:00	14:00:00	15:00:00	32	91	2903	2700	1.08
1145	ถ.ราชพฤกษ์ -> ถ.ชัยพฤกษ์ กม.23+190	13.88558854	100.4504866	drr	working	2022-05-09T00:00:00	15:00:00	16:00:00	33	87	2819	2700	1.04
1146	ถ.ราชพฤกษ์ -> ถ.ชัยพฤกษ์ กม.23+190	13.88558854	100.4504866	drr	working	2022-05-09T00:00:00	16:00:00	17:00:00	28	91	3914	2700	1.45
1147	ถ.ราชพฤกษ์ -> ถ.ชัยพฤกษ์ กม.23+190	13.88558854	100.4504866	drr	working	2022-05-09T00:00:00	17:00:00	18:00:00	34	134	4116	2700	1.52
1148	ถ.ราชพฤกษ์ -> ถ.ชัยพฤกษ์ กม.23+190	13.88558854	100.4504866	drr	working	2022-05-09T00:00:00	18:00:00	19:00:00	31	105	4104	2700	1.52
1149	ถ.ราชพฤกษ์ -> ถ.ชัยพฤกษ์ กม.23+190	13.88558854	100.4504866	drr	working	2022-06-09T00:00:00	5:00:00	6:00:00	48	16	716	2700	0.27
1150	ถ.ราชพฤกษ์ -> ถ.ชัยพฤกษ์ กม.23+190	13.88558854	100.4504866	drr	working	2022-06-09T00:00:00	6:00:00	7:00:00	34	50	2027	2700	0.75
1151	ถ.ราชพฤกษ์ -> ถ.ชัยพฤกษ์ กม.23+190	13.88558854	100.4504866	drr	working	2022-06-09T00:00:00	7:00:00	8:00:00	30	49	2065	2700	0.76
1152	ถ.ราชพฤกษ์ -> ถ.ชัยพฤกษ์ กม.23+190	13.88558854	100.4504866	drr	working	2022-06-09T00:00:00	8:00:00	9:00:00	30	99	3669	2700	1.36
1153	ถ.ราชพฤกษ์ -> ถ.ชัยพฤกษ์ กม.23+190	13.88558854	100.4504866	drr	working	2022-06-09T00:00:00	9:00:00	10:00:00	27	94	3587	2700	1.33
1154	ถ.ราชพฤกษ์ -> ถ.ชัยพฤกษ์ กม.23+190	13.88558854	100.4504866	drr	working	2022-06-09T00:00:00	10:00:00	11:00:00	27	94	3606	2700	1.34
1155	ถ.ราชพฤกษ์ -> ถ.ชัยพฤกษ์ กม.23+190	13.88558854	100.4504866	drr	working	2022-06-09T00:00:00	11:00:00	12:00:00	23	106	2980	2700	1.10
1156	ถ.ราชพฤกษ์ -> ถ.ชัยพฤกษ์ กม.23+190	13.88558854	100.4504866	drr	working	2022-06-09T00:00:00	12:00:00	13:00:00	24	63	1851	2700	0.69
1157	ถ.ราชพฤกษ์ -> ถ.ชัยพฤกษ์ กม.23+190	13.88558854	100.4504866	drr	working	2022-06-09T00:00:00	13:00:00	14:00:00	27	97	3687	2700	1.37
1158	ถ.ราชพฤกษ์ -> ถ.ชัยพฤกษ์ กม.23+190	13.88558854	100.4504866	drr	working	2022-06-09T00:00:00	14:00:00	15:00:00	27	94	3642	2700	1.35
1159	ถ.ราชพฤกษ์ -> ถ.ชัยพฤกษ์ กม.23+190	13.88558854	100.4504866	drr	working	2022-06-09T00:00:00	15:00:00	16:00:00	25	98	3647	2700	1.35
1160	ถ.ราชพฤกษ์ -> ถ.ชัยพฤกษ์ กม.23+190	13.88558854	100.4504866	drr	working	2022-06-09T00:00:00	16:00:00	17:00:00	26	65	1561	2700	0.58
1161	ถ.ราชพฤกษ์ -> ถ.ชัยพฤกษ์ กม.23+190	13.88558854	100.4504866	drr	working	2022-06-09T00:00:00	17:00:00	18:00:00	21	99	2066	2700	0.77
1162	ถ.ราชพฤกษ์ -> ถ.ชัยพฤกษ์ กม.23+190	13.88558854	100.4504866	drr	working	2022-06-09T00:00:00	18:00:00	19:00:00	11	201	4391	2700	1.63
1163	ถ.ราชพฤกษ์ -> ถ.ชัยพฤกษ์ กม.23+190	13.88558854	100.4504866	drr	working	2022-07-09T00:00:00	5:00:00	6:00:00	45	15	200	2700	0.07
1164	ถ.ราชพฤกษ์ -> ถ.ชัยพฤกษ์ กม.23+190	13.88558854	100.4504866	drr	working	2022-07-09T00:00:00	6:00:00	7:00:00	32	43	562	2700	0.21
1165	ถ.ราชพฤกษ์ -> ถ.ชัยพฤกษ์ กม.23+190	13.88558854	100.4504866	drr	working	2022-07-09T00:00:00	7:00:00	8:00:00	37	83	3672	2700	1.36
1166	ถ.ราชพฤกษ์ -> ถ.ชัยพฤกษ์ กม.23+190	13.88558854	100.4504866	drr	working	2022-07-09T00:00:00	8:00:00	9:00:00	26	81	2610	2700	0.97
1167	ถ.ราชพฤกษ์ -> ถ.ชัยพฤกษ์ กม.23+190	13.88558854	100.4504866	drr	working	2022-07-09T00:00:00	9:00:00	10:00:00	23	79	2635	2700	0.98
1168	ถ.ราชพฤกษ์ -> ถ.ชัยพฤกษ์ กม.23+190	13.88558854	100.4504866	drr	working	2022-07-09T00:00:00	10:00:00	11:00:00	21	76	2533	2700	0.94
1169	ถ.ราชพฤกษ์ -> ถ.ชัยพฤกษ์ กม.23+190	13.88558854	100.4504866	drr	working	2022-07-09T00:00:00	11:00:00	12:00:00	27	57	1315	2700	0.49
1170	ถ.ราชพฤกษ์ -> ถ.ชัยพฤกษ์ กม.23+190	13.88558854	100.4504866	drr	working	2022-07-09T00:00:00	12:00:00	13:00:00	25	176	3312	2700	1.23
1171	ถ.ราชพฤกษ์ -> ถ.ชัยพฤกษ์ กม.23+190	13.88558854	100.4504866	drr	working	2022-07-09T00:00:00	13:00:00	14:00:00	25	78	2419	2700	0.90
1172	ถ.ราชพฤกษ์ -> ถ.ชัยพฤกษ์ กม.23+190	13.88558854	100.4504866	drr	working	2022-07-09T00:00:00	14:00:00	15:00:00	25	80	2504	2700	0.93
1173	ถ.ราชพฤกษ์ -> ถ.ชัยพฤกษ์ กม.23+190	13.88558854	100.4504866	drr	working	2022-07-09T00:00:00	15:00:00	16:00:00	20	78	2383	2700	0.88
1174	ถ.ราชพฤกษ์ -> ถ.ชัยพฤกษ์ กม.23+190	13.88558854	100.4504866	drr	working	2022-07-09T00:00:00	16:00:00	17:00:00	29	161	5909	2700	2.19
1175	ถ.ราชพฤกษ์ -> ถ.ชัยพฤกษ์ กม.23+190	13.88558854	100.4504866	drr	working	2022-07-09T00:00:00	17:00:00	18:00:00	30	106	4051	2700	1.50
1176	ถ.ราชพฤกษ์ -> ถ.ชัยพฤกษ์ กม.23+190	13.88558854	100.4504866	drr	working	2022-07-09T00:00:00	18:00:00	19:00:00	34	78	2824	2700	1.05
1177	ถ.ราชพฤกษ์ -> ถ.ชัยพฤกษ์ กม.23+190	13.88558854	100.4504866	drr	working	2022-08-09T00:00:00	5:00:00	6:00:00	42	35	1081	2700	0.40
1178	ถ.ราชพฤกษ์ -> ถ.ชัยพฤกษ์ กม.23+190	13.88558854	100.4504866	drr	working	2022-08-09T00:00:00	6:00:00	7:00:00	30	100	3314	2700	1.23
1179	ถ.ราชพฤกษ์ -> ถ.ชัยพฤกษ์ กม.23+190	13.88558854	100.4504866	drr	working	2022-08-09T00:00:00	7:00:00	8:00:00	32	102	3158	2700	1.17
1180	ถ.ราชพฤกษ์ -> ถ.ชัยพฤกษ์ กม.23+190	13.88558854	100.4504866	drr	working	2022-08-09T00:00:00	8:00:00	9:00:00	28	96	2812	2700	1.04
1181	ถ.ราชพฤกษ์ -> ถ.ชัยพฤกษ์ กม.23+190	13.88558854	100.4504866	drr	working	2022-08-09T00:00:00	9:00:00	10:00:00	24	95	2675	2700	0.99
1182	ถ.ราชพฤกษ์ -> ถ.ชัยพฤกษ์ กม.23+190	13.88558854	100.4504866	drr	working	2022-08-09T00:00:00	10:00:00	11:00:00	25	92	2754	2700	1.02
1183	ถ.ราชพฤกษ์ -> ถ.ชัยพฤกษ์ กม.23+190	13.88558854	100.4504866	drr	working	2022-08-09T00:00:00	11:00:00	12:00:00	21	110	3470	2700	1.29
1184	ถ.ราชพฤกษ์ -> ถ.ชัยพฤกษ์ กม.23+190	13.88558854	100.4504866	drr	working	2022-08-09T00:00:00	12:00:00	13:00:00	24	80	3060	2700	1.13
1185	ถ.ราชพฤกษ์ -> ถ.ชัยพฤกษ์ กม.23+190	13.88558854	100.4504866	drr	working	2022-08-09T00:00:00	13:00:00	14:00:00	25	93	2671	2700	0.99
1186	ถ.ราชพฤกษ์ -> ถ.ชัยพฤกษ์ กม.23+190	13.88558854	100.4504866	drr	working	2022-08-09T00:00:00	14:00:00	15:00:00	25	94	2738	2700	1.01
1187	ถ.ราชพฤกษ์ -> ถ.ชัยพฤกษ์ กม.23+190	13.88558854	100.4504866	drr	working	2022-08-09T00:00:00	15:00:00	16:00:00	27	91	2771	2700	1.03
1188	ถ.ราชพฤกษ์ -> ถ.ชัยพฤกษ์ กม.23+190	13.88558854	100.4504866	drr	working	2022-08-09T00:00:00	16:00:00	17:00:00	25	120	4038	2700	1.50
1189	ถ.ราชพฤกษ์ -> ถ.ชัยพฤกษ์ กม.23+190	13.88558854	100.4504866	drr	working	2022-08-09T00:00:00	17:00:00	18:00:00	35	125	3574	2700	1.32
1190	ถ.ราชพฤกษ์ -> ถ.ชัยพฤกษ์ กม.23+190	13.88558854	100.4504866	drr	working	2022-08-09T00:00:00	18:00:00	19:00:00	31	105	3514	2700	1.30
1191	ถ.ราชพฤกษ์ -> ถ.ชัยพฤกษ์ กม.23+190	13.88558854	100.4504866	drr	working	2022-09-09T00:00:00	5:00:00	6:00:00	45	20	754	2700	0.28
1192	ถ.ราชพฤกษ์ -> ถ.ชัยพฤกษ์ กม.23+190	13.88558854	100.4504866	drr	working	2022-09-09T00:00:00	6:00:00	7:00:00	32	61	2219	2700	0.82
1193	ถ.ราชพฤกษ์ -> ถ.ชัยพฤกษ์ กม.23+190	13.88558854	100.4504866	drr	working	2022-09-09T00:00:00	7:00:00	8:00:00	32	57	2246	2700	0.83
1194	ถ.ราชพฤกษ์ -> ถ.ชัยพฤกษ์ กม.23+190	13.88558854	100.4504866	drr	working	2022-09-09T00:00:00	8:00:00	9:00:00	40	61	2579	2700	0.96
1195	ถ.ราชพฤกษ์ -> ถ.ชัยพฤกษ์ กม.23+190	13.88558854	100.4504866	drr	working	2022-09-09T00:00:00	9:00:00	10:00:00	36	59	2458	2700	0.91
1196	ถ.ราชพฤกษ์ -> ถ.ชัยพฤกษ์ กม.23+190	13.88558854	100.4504866	drr	working	2022-09-09T00:00:00	10:00:00	11:00:00	39	57	2515	2700	0.93
1197	ถ.ราชพฤกษ์ -> ถ.ชัยพฤกษ์ กม.23+190	13.88558854	100.4504866	drr	working	2022-09-09T00:00:00	11:00:00	12:00:00	23	101	3314	2700	1.23
1198	ถ.ราชพฤกษ์ -> ถ.ชัยพฤกษ์ กม.23+190	13.88558854	100.4504866	drr	working	2022-09-09T00:00:00	12:00:00	13:00:00	22	95	2051	2700	0.76
1199	ถ.ราชพฤกษ์ -> ถ.ชัยพฤกษ์ กม.23+190	13.88558854	100.4504866	drr	working	2022-09-09T00:00:00	13:00:00	14:00:00	37	59	2431	2700	0.90
1200	ถ.ราชพฤกษ์ -> ถ.ชัยพฤกษ์ กม.23+190	13.88558854	100.4504866	drr	working	2022-09-09T00:00:00	14:00:00	15:00:00	39	56	2494	2700	0.92
1201	ถ.ราชพฤกษ์ -> ถ.ชัยพฤกษ์ กม.23+190	13.88558854	100.4504866	drr	working	2022-09-09T00:00:00	15:00:00	16:00:00	36	56	2479	2700	0.92
1202	ถ.ราชพฤกษ์ -> ถ.ชัยพฤกษ์ กม.23+190	13.88558854	100.4504866	drr	working	2022-09-09T00:00:00	16:00:00	17:00:00	26	136	5336	2700	1.98
1203	ถ.ราชพฤกษ์ -> ถ.ชัยพฤกษ์ กม.23+190	13.88558854	100.4504866	drr	working	2022-09-09T00:00:00	17:00:00	18:00:00	30	116	4273	2700	1.58
1204	ถ.ราชพฤกษ์ -> ถ.ชัยพฤกษ์ กม.23+190	13.88558854	100.4504866	drr	working	2022-09-09T00:00:00	18:00:00	19:00:00	28	101	4077	2700	1.51
1205	ถ.ราชพฤกษ์ -> ถ.ชัยพฤกษ์ กม.22+436	13.8788	100.4508743	drr	working	2022-05-09T00:00:00	5:00:00	6:00:00	53	10	142	1800	0.08
1206	ถ.ราชพฤกษ์ -> ถ.ชัยพฤกษ์ กม.22+436	13.8788	100.4508743	drr	working	2022-05-09T00:00:00	6:00:00	7:00:00	37	30	387	1800	0.22
1207	ถ.ราชพฤกษ์ -> ถ.ชัยพฤกษ์ กม.22+436	13.8788	100.4508743	drr	working	2022-05-09T00:00:00	7:00:00	8:00:00	48	45	224	1800	0.12
1208	ถ.ราชพฤกษ์ -> ถ.ชัยพฤกษ์ กม.22+436	13.8788	100.4508743	drr	working	2022-05-09T00:00:00	8:00:00	9:00:00	38	202	1500	1800	0.83
1209	ถ.ราชพฤกษ์ -> ถ.ชัยพฤกษ์ กม.22+436	13.8788	100.4508743	drr	working	2022-05-09T00:00:00	9:00:00	10:00:00	33	202	1384	1800	0.77
1210	ถ.ราชพฤกษ์ -> ถ.ชัยพฤกษ์ กม.22+436	13.8788	100.4508743	drr	working	2022-05-09T00:00:00	10:00:00	11:00:00	37	202	1461	1800	0.81
1211	ถ.ราชพฤกษ์ -> ถ.ชัยพฤกษ์ กม.22+436	13.8788	100.4508743	drr	working	2022-05-09T00:00:00	11:00:00	12:00:00	52	62	1305	1800	0.73
1212	ถ.ราชพฤกษ์ -> ถ.ชัยพฤกษ์ กม.22+436	13.8788	100.4508743	drr	working	2022-05-09T00:00:00	12:00:00	13:00:00	39	68	1476	1800	0.82
1213	ถ.ราชพฤกษ์ -> ถ.ชัยพฤกษ์ กม.22+436	13.8788	100.4508743	drr	working	2022-05-09T00:00:00	13:00:00	14:00:00	36	201	1395	1800	0.78
1214	ถ.ราชพฤกษ์ -> ถ.ชัยพฤกษ์ กม.22+436	13.8788	100.4508743	drr	working	2022-05-09T00:00:00	14:00:00	15:00:00	36	201	1424	1800	0.79
1215	ถ.ราชพฤกษ์ -> ถ.ชัยพฤกษ์ กม.22+436	13.8788	100.4508743	drr	working	2022-05-09T00:00:00	15:00:00	16:00:00	36	202	1356	1800	0.75
1216	ถ.ราชพฤกษ์ -> ถ.ชัยพฤกษ์ กม.22+436	13.8788	100.4508743	drr	working	2022-05-09T00:00:00	16:00:00	17:00:00	36	54	1369	1800	0.76
1217	ถ.ราชพฤกษ์ -> ถ.ชัยพฤกษ์ กม.22+436	13.8788	100.4508743	drr	working	2022-05-09T00:00:00	17:00:00	18:00:00	50	41	1150	1800	0.64
1218	ถ.ราชพฤกษ์ -> ถ.ชัยพฤกษ์ กม.22+436	13.8788	100.4508743	drr	working	2022-05-09T00:00:00	18:00:00	19:00:00	45	56	785	1800	0.44
1219	ถ.ราชพฤกษ์ -> ถ.ชัยพฤกษ์ กม.22+436	13.8788	100.4508743	drr	working	2022-06-09T00:00:00	5:00:00	6:00:00	60	10	143	1800	0.08
1220	ถ.ราชพฤกษ์ -> ถ.ชัยพฤกษ์ กม.22+436	13.8788	100.4508743	drr	working	2022-06-09T00:00:00	6:00:00	7:00:00	42	30	387	1800	0.22
1221	ถ.ราชพฤกษ์ -> ถ.ชัยพฤกษ์ กม.22+436	13.8788	100.4508743	drr	working	2022-06-09T00:00:00	7:00:00	8:00:00	48	45	237	1800	0.13
1222	ถ.ราชพฤกษ์ -> ถ.ชัยพฤกษ์ กม.22+436	13.8788	100.4508743	drr	working	2022-06-09T00:00:00	8:00:00	9:00:00	40	54	808	1800	0.45
1223	ถ.ราชพฤกษ์ -> ถ.ชัยพฤกษ์ กม.22+436	13.8788	100.4508743	drr	working	2022-06-09T00:00:00	9:00:00	10:00:00	37	52	674	1800	0.37
1224	ถ.ราชพฤกษ์ -> ถ.ชัยพฤกษ์ กม.22+436	13.8788	100.4508743	drr	working	2022-06-09T00:00:00	10:00:00	11:00:00	37	52	794	1800	0.44
1225	ถ.ราชพฤกษ์ -> ถ.ชัยพฤกษ์ กม.22+436	13.8788	100.4508743	drr	working	2022-06-09T00:00:00	11:00:00	12:00:00	42	41	389	1800	0.22
1226	ถ.ราชพฤกษ์ -> ถ.ชัยพฤกษ์ กม.22+436	13.8788	100.4508743	drr	working	2022-06-09T00:00:00	12:00:00	13:00:00	39	68	1478	1800	0.82
1227	ถ.ราชพฤกษ์ -> ถ.ชัยพฤกษ์ กม.22+436	13.8788	100.4508743	drr	working	2022-06-09T00:00:00	13:00:00	14:00:00	35	52	740	1800	0.41
1228	ถ.ราชพฤกษ์ -> ถ.ชัยพฤกษ์ กม.22+436	13.8788	100.4508743	drr	working	2022-06-09T00:00:00	14:00:00	15:00:00	39	52	650	1800	0.36
1229	ถ.ราชพฤกษ์ -> ถ.ชัยพฤกษ์ กม.22+436	13.8788	100.4508743	drr	working	2022-06-09T00:00:00	15:00:00	16:00:00	36	51	732	1800	0.41
1230	ถ.ราชพฤกษ์ -> ถ.ชัยพฤกษ์ กม.22+436	13.8788	100.4508743	drr	working	2022-06-09T00:00:00	16:00:00	17:00:00	35	37	779	1800	0.43
1231	ถ.ราชพฤกษ์ -> ถ.ชัยพฤกษ์ กม.22+436	13.8788	100.4508743	drr	working	2022-06-09T00:00:00	17:00:00	18:00:00	44	55	788	1800	0.44
1232	ถ.ราชพฤกษ์ -> ถ.ชัยพฤกษ์ กม.22+436	13.8788	100.4508743	drr	working	2022-06-09T00:00:00	18:00:00	19:00:00	35	45	957	1800	0.53
1233	ถ.ราชพฤกษ์ -> ถ.ชัยพฤกษ์ กม.22+436	13.8788	100.4508743	drr	working	2022-07-09T00:00:00	5:00:00	6:00:00	60	10	141	1800	0.08
1234	ถ.ราชพฤกษ์ -> ถ.ชัยพฤกษ์ กม.22+436	13.8788	100.4508743	drr	working	2022-07-09T00:00:00	6:00:00	7:00:00	42	30	381	1800	0.21
1235	ถ.ราชพฤกษ์ -> ถ.ชัยพฤกษ์ กม.22+436	13.8788	100.4508743	drr	working	2022-07-09T00:00:00	7:00:00	8:00:00	37	45	790	1800	0.44
1236	ถ.ราชพฤกษ์ -> ถ.ชัยพฤกษ์ กม.22+436	13.8788	100.4508743	drr	working	2022-07-09T00:00:00	8:00:00	9:00:00	34	35	619	1800	0.34
1237	ถ.ราชพฤกษ์ -> ถ.ชัยพฤกษ์ กม.22+436	13.8788	100.4508743	drr	working	2022-07-09T00:00:00	9:00:00	10:00:00	33	30	604	1800	0.34
1238	ถ.ราชพฤกษ์ -> ถ.ชัยพฤกษ์ กม.22+436	13.8788	100.4508743	drr	working	2022-07-09T00:00:00	10:00:00	11:00:00	31	30	479	1800	0.27
1239	ถ.ราชพฤกษ์ -> ถ.ชัยพฤกษ์ กม.22+436	13.8788	100.4508743	drr	working	2022-07-09T00:00:00	11:00:00	12:00:00	37	63	1844	1800	1.02
1240	ถ.ราชพฤกษ์ -> ถ.ชัยพฤกษ์ กม.22+436	13.8788	100.4508743	drr	working	2022-07-09T00:00:00	12:00:00	13:00:00	41	55	581	1800	0.32
1241	ถ.ราชพฤกษ์ -> ถ.ชัยพฤกษ์ กม.22+436	13.8788	100.4508743	drr	working	2022-07-09T00:00:00	13:00:00	14:00:00	31	32	493	1800	0.27
1242	ถ.ราชพฤกษ์ -> ถ.ชัยพฤกษ์ กม.22+436	13.8788	100.4508743	drr	working	2022-07-09T00:00:00	14:00:00	15:00:00	32	32	528	1800	0.29
1243	ถ.ราชพฤกษ์ -> ถ.ชัยพฤกษ์ กม.22+436	13.8788	100.4508743	drr	working	2022-07-09T00:00:00	15:00:00	16:00:00	29	33	592	1800	0.33
1244	ถ.ราชพฤกษ์ -> ถ.ชัยพฤกษ์ กม.22+436	13.8788	100.4508743	drr	working	2022-07-09T00:00:00	16:00:00	17:00:00	43	69	1518	1800	0.84
1245	ถ.ราชพฤกษ์ -> ถ.ชัยพฤกษ์ กม.22+436	13.8788	100.4508743	drr	working	2022-07-09T00:00:00	17:00:00	18:00:00	34	47	1864	1800	1.04
1246	ถ.ราชพฤกษ์ -> ถ.ชัยพฤกษ์ กม.22+436	13.8788	100.4508743	drr	working	2022-07-09T00:00:00	18:00:00	19:00:00	47	36	1506	1800	0.84
1247	ถ.ราชพฤกษ์ -> ถ.ชัยพฤกษ์ กม.22+436	13.8788	100.4508743	drr	working	2022-08-09T00:00:00	5:00:00	6:00:00	53	11	408	1800	0.23
1248	ถ.ราชพฤกษ์ -> ถ.ชัยพฤกษ์ กม.22+436	13.8788	100.4508743	drr	working	2022-08-09T00:00:00	6:00:00	7:00:00	37	35	1294	1800	0.72
1249	ถ.ราชพฤกษ์ -> ถ.ชัยพฤกษ์ กม.22+436	13.8788	100.4508743	drr	working	2022-08-09T00:00:00	7:00:00	8:00:00	39	62	605	1800	0.34
1250	ถ.ราชพฤกษ์ -> ถ.ชัยพฤกษ์ กม.22+436	13.8788	100.4508743	drr	working	2022-08-09T00:00:00	8:00:00	9:00:00	34	49	781	1800	0.43
1251	ถ.ราชพฤกษ์ -> ถ.ชัยพฤกษ์ กม.22+436	13.8788	100.4508743	drr	working	2022-08-09T00:00:00	9:00:00	10:00:00	33	44	739	1800	0.41
1252	ถ.ราชพฤกษ์ -> ถ.ชัยพฤกษ์ กม.22+436	13.8788	100.4508743	drr	working	2022-08-09T00:00:00	10:00:00	11:00:00	30	47	652	1800	0.36
1253	ถ.ราชพฤกษ์ -> ถ.ชัยพฤกษ์ กม.22+436	13.8788	100.4508743	drr	working	2022-08-09T00:00:00	11:00:00	12:00:00	36	37	770	1800	0.43
1254	ถ.ราชพฤกษ์ -> ถ.ชัยพฤกษ์ กม.22+436	13.8788	100.4508743	drr	working	2022-08-09T00:00:00	12:00:00	13:00:00	41	30	565	1800	0.31
1255	ถ.ราชพฤกษ์ -> ถ.ชัยพฤกษ์ กม.22+436	13.8788	100.4508743	drr	working	2022-08-09T00:00:00	13:00:00	14:00:00	31	45	688	1800	0.38
1256	ถ.ราชพฤกษ์ -> ถ.ชัยพฤกษ์ กม.22+436	13.8788	100.4508743	drr	working	2022-08-09T00:00:00	14:00:00	15:00:00	30	44	726	1800	0.40
1257	ถ.ราชพฤกษ์ -> ถ.ชัยพฤกษ์ กม.22+436	13.8788	100.4508743	drr	working	2022-08-09T00:00:00	15:00:00	16:00:00	30	47	659	1800	0.37
1258	ถ.ราชพฤกษ์ -> ถ.ชัยพฤกษ์ กม.22+436	13.8788	100.4508743	drr	working	2022-08-09T00:00:00	16:00:00	17:00:00	33	139	602	1800	0.33
1259	ถ.ราชพฤกษ์ -> ถ.ชัยพฤกษ์ กม.22+436	13.8788	100.4508743	drr	working	2022-08-09T00:00:00	17:00:00	18:00:00	39	55	1300	1800	0.72
1260	ถ.ราชพฤกษ์ -> ถ.ชัยพฤกษ์ กม.22+436	13.8788	100.4508743	drr	working	2022-08-09T00:00:00	18:00:00	19:00:00	34	38	1144	1800	0.64
1261	ถ.ราชพฤกษ์ -> ถ.ชัยพฤกษ์ กม.22+436	13.8788	100.4508743	drr	working	2022-09-09T00:00:00	5:00:00	6:00:00	52	15	384	1800	0.21
1262	ถ.ราชพฤกษ์ -> ถ.ชัยพฤกษ์ กม.22+436	13.8788	100.4508743	drr	working	2022-09-09T00:00:00	6:00:00	7:00:00	37	44	1110	1800	0.62
1263	ถ.ราชพฤกษ์ -> ถ.ชัยพฤกษ์ กม.22+436	13.8788	100.4508743	drr	working	2022-09-09T00:00:00	7:00:00	8:00:00	39	36	425	1800	0.24
1264	ถ.ราชพฤกษ์ -> ถ.ชัยพฤกษ์ กม.22+436	13.8788	100.4508743	drr	working	2022-09-09T00:00:00	8:00:00	9:00:00	39	40	1124	1800	0.62
1265	ถ.ราชพฤกษ์ -> ถ.ชัยพฤกษ์ กม.22+436	13.8788	100.4508743	drr	working	2022-09-09T00:00:00	9:00:00	10:00:00	36	38	1045	1800	0.58
1266	ถ.ราชพฤกษ์ -> ถ.ชัยพฤกษ์ กม.22+436	13.8788	100.4508743	drr	working	2022-09-09T00:00:00	10:00:00	11:00:00	36	37	1092	1800	0.61
1267	ถ.ราชพฤกษ์ -> ถ.ชัยพฤกษ์ กม.22+436	13.8788	100.4508743	drr	working	2022-09-09T00:00:00	11:00:00	12:00:00	36	66	1339	1800	0.74
1268	ถ.ราชพฤกษ์ -> ถ.ชัยพฤกษ์ กม.22+436	13.8788	100.4508743	drr	working	2022-09-09T00:00:00	12:00:00	13:00:00	36	36	1480	1800	0.82
1269	ถ.ราชพฤกษ์ -> ถ.ชัยพฤกษ์ กม.22+436	13.8788	100.4508743	drr	working	2022-09-09T00:00:00	13:00:00	14:00:00	38	39	967	1800	0.54
1270	ถ.ราชพฤกษ์ -> ถ.ชัยพฤกษ์ กม.22+436	13.8788	100.4508743	drr	working	2022-09-09T00:00:00	14:00:00	15:00:00	38	37	1059	1800	0.59
1271	ถ.ราชพฤกษ์ -> ถ.ชัยพฤกษ์ กม.22+436	13.8788	100.4508743	drr	working	2022-09-09T00:00:00	15:00:00	16:00:00	38	38	1088	1800	0.60
1272	ถ.ราชพฤกษ์ -> ถ.ชัยพฤกษ์ กม.22+436	13.8788	100.4508743	drr	working	2022-09-09T00:00:00	16:00:00	17:00:00	39	37	967	1800	0.54
1273	ถ.ราชพฤกษ์ -> ถ.ชัยพฤกษ์ กม.22+436	13.8788	100.4508743	drr	working	2022-09-09T00:00:00	17:00:00	18:00:00	35	30	951	1800	0.53
1274	ถ.ราชพฤกษ์ -> ถ.ชัยพฤกษ์ กม.22+436	13.8788	100.4508743	drr	working	2022-09-09T00:00:00	18:00:00	19:00:00	34	38	1158	1800	0.64
1275	ถ.ราชพฤกษ์ -> ถ.ชัยพฤกษ์ กม.22+436	13.87876051	100.4508782	drr	working	2022-05-09T00:00:00	5:00:00	6:00:00	82	20	263	1800	0.15
1276	ถ.ราชพฤกษ์ -> ถ.ชัยพฤกษ์ กม.22+436	13.87876051	100.4508782	drr	working	2022-05-09T00:00:00	6:00:00	7:00:00	57	62	744	1800	0.41
1277	ถ.ราชพฤกษ์ -> ถ.ชัยพฤกษ์ กม.22+436	13.87876051	100.4508782	drr	working	2022-05-09T00:00:00	7:00:00	8:00:00	43	114	2243	1800	1.25
1278	ถ.ราชพฤกษ์ -> ถ.ชัยพฤกษ์ กม.22+436	13.87876051	100.4508782	drr	working	2022-05-09T00:00:00	8:00:00	9:00:00	15	201	1315	1800	0.73
1279	ถ.ราชพฤกษ์ -> ถ.ชัยพฤกษ์ กม.22+436	13.87876051	100.4508782	drr	working	2022-05-09T00:00:00	9:00:00	10:00:00	13	202	1327	1800	0.74
1280	ถ.ราชพฤกษ์ -> ถ.ชัยพฤกษ์ กม.22+436	13.87876051	100.4508782	drr	working	2022-05-09T00:00:00	10:00:00	11:00:00	13	201	1269	1800	0.71
1281	ถ.ราชพฤกษ์ -> ถ.ชัยพฤกษ์ กม.22+436	13.87876051	100.4508782	drr	working	2022-05-09T00:00:00	11:00:00	12:00:00	44	87	587	1800	0.33
1282	ถ.ราชพฤกษ์ -> ถ.ชัยพฤกษ์ กม.22+436	13.87876051	100.4508782	drr	working	2022-05-09T00:00:00	12:00:00	13:00:00	37	32	385	1800	0.21
1283	ถ.ราชพฤกษ์ -> ถ.ชัยพฤกษ์ กม.22+436	13.87876051	100.4508782	drr	working	2022-05-09T00:00:00	13:00:00	14:00:00	14	202	1192	1800	0.66
1284	ถ.ราชพฤกษ์ -> ถ.ชัยพฤกษ์ กม.22+436	13.87876051	100.4508782	drr	working	2022-05-09T00:00:00	14:00:00	15:00:00	13	201	1176	1800	0.65
1285	ถ.ราชพฤกษ์ -> ถ.ชัยพฤกษ์ กม.22+436	13.87876051	100.4508782	drr	working	2022-05-09T00:00:00	15:00:00	16:00:00	10	202	1233	1800	0.69
1286	ถ.ราชพฤกษ์ -> ถ.ชัยพฤกษ์ กม.22+436	13.87876051	100.4508782	drr	working	2022-05-09T00:00:00	16:00:00	17:00:00	34	32	786	1800	0.44
1287	ถ.ราชพฤกษ์ -> ถ.ชัยพฤกษ์ กม.22+436	13.87876051	100.4508782	drr	working	2022-05-09T00:00:00	17:00:00	18:00:00	37	41	1142	1800	0.63
1288	ถ.ราชพฤกษ์ -> ถ.ชัยพฤกษ์ กม.22+436	13.87876051	100.4508782	drr	working	2022-05-09T00:00:00	18:00:00	19:00:00	32	53	835	1800	0.46
1289	ถ.ราชพฤกษ์ -> ถ.ชัยพฤกษ์ กม.22+436	13.87876051	100.4508782	drr	working	2022-06-09T00:00:00	5:00:00	6:00:00	58	23	336	1800	0.19
1290	ถ.ราชพฤกษ์ -> ถ.ชัยพฤกษ์ กม.22+436	13.87876051	100.4508782	drr	working	2022-06-09T00:00:00	6:00:00	7:00:00	41	70	942	1800	0.52
1291	ถ.ราชพฤกษ์ -> ถ.ชัยพฤกษ์ กม.22+436	13.87876051	100.4508782	drr	working	2022-06-09T00:00:00	7:00:00	8:00:00	43	37	1150	1800	0.64
1292	ถ.ราชพฤกษ์ -> ถ.ชัยพฤกษ์ กม.22+436	13.87876051	100.4508782	drr	working	2022-06-09T00:00:00	8:00:00	9:00:00	42	61	770	1800	0.43
1293	ถ.ราชพฤกษ์ -> ถ.ชัยพฤกษ์ กม.22+436	13.87876051	100.4508782	drr	working	2022-06-09T00:00:00	9:00:00	10:00:00	40	56	626	1800	0.35
1294	ถ.ราชพฤกษ์ -> ถ.ชัยพฤกษ์ กม.22+436	13.87876051	100.4508782	drr	working	2022-06-09T00:00:00	10:00:00	11:00:00	38	59	697	1800	0.39
1295	ถ.ราชพฤกษ์ -> ถ.ชัยพฤกษ์ กม.22+436	13.87876051	100.4508782	drr	working	2022-06-09T00:00:00	11:00:00	12:00:00	37	127	392	1800	0.22
1296	ถ.ราชพฤกษ์ -> ถ.ชัยพฤกษ์ กม.22+436	13.87876051	100.4508782	drr	working	2022-06-09T00:00:00	12:00:00	13:00:00	55	39	743	1800	0.41
1297	ถ.ราชพฤกษ์ -> ถ.ชัยพฤกษ์ กม.22+436	13.87876051	100.4508782	drr	working	2022-06-09T00:00:00	13:00:00	14:00:00	40	60	664	1800	0.37
1298	ถ.ราชพฤกษ์ -> ถ.ชัยพฤกษ์ กม.22+436	13.87876051	100.4508782	drr	working	2022-06-09T00:00:00	14:00:00	15:00:00	37	60	681	1800	0.38
1299	ถ.ราชพฤกษ์ -> ถ.ชัยพฤกษ์ กม.22+436	13.87876051	100.4508782	drr	working	2022-06-09T00:00:00	15:00:00	16:00:00	37	59	694	1800	0.39
1300	ถ.ราชพฤกษ์ -> ถ.ชัยพฤกษ์ กม.22+436	13.87876051	100.4508782	drr	working	2022-06-09T00:00:00	16:00:00	17:00:00	34	32	773	1800	0.43
1301	ถ.ราชพฤกษ์ -> ถ.ชัยพฤกษ์ กม.22+436	13.87876051	100.4508782	drr	working	2022-06-09T00:00:00	17:00:00	18:00:00	37	47	787	1800	0.44
1302	ถ.ราชพฤกษ์ -> ถ.ชัยพฤกษ์ กม.22+436	13.87876051	100.4508782	drr	working	2022-06-09T00:00:00	18:00:00	19:00:00	31	35	1324	1800	0.74
1303	ถ.ราชพฤกษ์ -> ถ.ชัยพฤกษ์ กม.22+436	13.87876051	100.4508782	drr	working	2022-07-09T00:00:00	5:00:00	6:00:00	65	11	144	1800	0.08
1304	ถ.ราชพฤกษ์ -> ถ.ชัยพฤกษ์ กม.22+436	13.87876051	100.4508782	drr	working	2022-07-09T00:00:00	6:00:00	7:00:00	47	32	382	1800	0.21
1305	ถ.ราชพฤกษ์ -> ถ.ชัยพฤกษ์ กม.22+436	13.87876051	100.4508782	drr	working	2022-07-09T00:00:00	7:00:00	8:00:00	38	58	801	1800	0.45
1306	ถ.ราชพฤกษ์ -> ถ.ชัยพฤกษ์ กม.22+436	13.87876051	100.4508782	drr	working	2022-07-09T00:00:00	8:00:00	9:00:00	17	150	960	1800	0.53
1307	ถ.ราชพฤกษ์ -> ถ.ชัยพฤกษ์ กม.22+436	13.87876051	100.4508782	drr	working	2022-07-09T00:00:00	9:00:00	10:00:00	13	149	941	1800	0.52
1308	ถ.ราชพฤกษ์ -> ถ.ชัยพฤกษ์ กม.22+436	13.87876051	100.4508782	drr	working	2022-07-09T00:00:00	10:00:00	11:00:00	14	148	946	1800	0.53
1309	ถ.ราชพฤกษ์ -> ถ.ชัยพฤกษ์ กม.22+436	13.87876051	100.4508782	drr	working	2022-07-09T00:00:00	11:00:00	12:00:00	43	68	935	1800	0.52
1310	ถ.ราชพฤกษ์ -> ถ.ชัยพฤกษ์ กม.22+436	13.87876051	100.4508782	drr	working	2022-07-09T00:00:00	12:00:00	13:00:00	38	32	567	1800	0.32
1311	ถ.ราชพฤกษ์ -> ถ.ชัยพฤกษ์ กม.22+436	13.87876051	100.4508782	drr	working	2022-07-09T00:00:00	13:00:00	14:00:00	16	147	836	1800	0.46
1312	ถ.ราชพฤกษ์ -> ถ.ชัยพฤกษ์ กม.22+436	13.87876051	100.4508782	drr	working	2022-07-09T00:00:00	14:00:00	15:00:00	15	145	794	1800	0.44
1313	ถ.ราชพฤกษ์ -> ถ.ชัยพฤกษ์ กม.22+436	13.87876051	100.4508782	drr	working	2022-07-09T00:00:00	15:00:00	16:00:00	14	149	802	1800	0.45
1314	ถ.ราชพฤกษ์ -> ถ.ชัยพฤกษ์ กม.22+436	13.87876051	100.4508782	drr	working	2022-07-09T00:00:00	16:00:00	17:00:00	40	79	594	1800	0.33
1315	ถ.ราชพฤกษ์ -> ถ.ชัยพฤกษ์ กม.22+436	13.87876051	100.4508782	drr	working	2022-07-09T00:00:00	17:00:00	18:00:00	37	65	1917	1800	1.07
1316	ถ.ราชพฤกษ์ -> ถ.ชัยพฤกษ์ กม.22+436	13.87876051	100.4508782	drr	working	2022-07-09T00:00:00	18:00:00	19:00:00	34	65	956	1800	0.53
1317	ถ.ราชพฤกษ์ -> ถ.ชัยพฤกษ์ กม.22+436	13.87876051	100.4508782	drr	working	2022-08-09T00:00:00	5:00:00	6:00:00	66	11	136	1800	0.08
1318	ถ.ราชพฤกษ์ -> ถ.ชัยพฤกษ์ กม.22+436	13.87876051	100.4508782	drr	working	2022-08-09T00:00:00	6:00:00	7:00:00	47	32	388	1800	0.22
1319	ถ.ราชพฤกษ์ -> ถ.ชัยพฤกษ์ กม.22+436	13.87876051	100.4508782	drr	working	2022-08-09T00:00:00	7:00:00	8:00:00	34	85	834	1800	0.46
1320	ถ.ราชพฤกษ์ -> ถ.ชัยพฤกษ์ กม.22+436	13.87876051	100.4508782	drr	working	2022-08-09T00:00:00	8:00:00	9:00:00	44	61	1861	1800	1.03
1321	ถ.ราชพฤกษ์ -> ถ.ชัยพฤกษ์ กม.22+436	13.87876051	100.4508782	drr	working	2022-08-09T00:00:00	9:00:00	10:00:00	42	59	1735	1800	0.96
1322	ถ.ราชพฤกษ์ -> ถ.ชัยพฤกษ์ กม.22+436	13.87876051	100.4508782	drr	working	2022-08-09T00:00:00	10:00:00	11:00:00	39	56	1807	1800	1.00
1323	ถ.ราชพฤกษ์ -> ถ.ชัยพฤกษ์ กม.22+436	13.87876051	100.4508782	drr	working	2022-08-09T00:00:00	11:00:00	12:00:00	45	81	588	1800	0.33
1324	ถ.ราชพฤกษ์ -> ถ.ชัยพฤกษ์ กม.22+436	13.87876051	100.4508782	drr	working	2022-08-09T00:00:00	12:00:00	13:00:00	39	39	927	1800	0.52
1325	ถ.ราชพฤกษ์ -> ถ.ชัยพฤกษ์ กม.22+436	13.87876051	100.4508782	drr	working	2022-08-09T00:00:00	13:00:00	14:00:00	41	57	1775	1800	0.99
1326	ถ.ราชพฤกษ์ -> ถ.ชัยพฤกษ์ กม.22+436	13.87876051	100.4508782	drr	working	2022-08-09T00:00:00	14:00:00	15:00:00	43	58	1806	1800	1.00
1327	ถ.ราชพฤกษ์ -> ถ.ชัยพฤกษ์ กม.22+436	13.87876051	100.4508782	drr	working	2022-08-09T00:00:00	15:00:00	16:00:00	41	59	1815	1800	1.01
1328	ถ.ราชพฤกษ์ -> ถ.ชัยพฤกษ์ กม.22+436	13.87876051	100.4508782	drr	working	2022-08-09T00:00:00	16:00:00	17:00:00	34	63	1183	1800	0.66
1329	ถ.ราชพฤกษ์ -> ถ.ชัยพฤกษ์ กม.22+436	13.87876051	100.4508782	drr	working	2022-08-09T00:00:00	17:00:00	18:00:00	32	50	957	1800	0.53
1330	ถ.ราชพฤกษ์ -> ถ.ชัยพฤกษ์ กม.22+436	13.87876051	100.4508782	drr	working	2022-08-09T00:00:00	18:00:00	19:00:00	32	41	1023	1800	0.57
1331	ถ.ราชพฤกษ์ -> ถ.ชัยพฤกษ์ กม.22+436	13.87876051	100.4508782	drr	working	2022-09-09T00:00:00	5:00:00	6:00:00	66	11	131	1800	0.07
1332	ถ.ราชพฤกษ์ -> ถ.ชัยพฤกษ์ กม.22+436	13.87876051	100.4508782	drr	working	2022-09-09T00:00:00	6:00:00	7:00:00	47	32	388	1800	0.22
1333	ถ.ราชพฤกษ์ -> ถ.ชัยพฤกษ์ กม.22+436	13.87876051	100.4508782	drr	working	2022-09-09T00:00:00	7:00:00	8:00:00	44	64	651	1800	0.36
1334	ถ.ราชพฤกษ์ -> ถ.ชัยพฤกษ์ กม.22+436	13.87876051	100.4508782	drr	working	2022-09-09T00:00:00	8:00:00	9:00:00	36	41	808	1800	0.45
1335	ถ.ราชพฤกษ์ -> ถ.ชัยพฤกษ์ กม.22+436	13.87876051	100.4508782	drr	working	2022-09-09T00:00:00	9:00:00	10:00:00	35	40	740	1800	0.41
1336	ถ.ราชพฤกษ์ -> ถ.ชัยพฤกษ์ กม.22+436	13.87876051	100.4508782	drr	working	2022-09-09T00:00:00	10:00:00	11:00:00	33	41	714	1800	0.40
1337	ถ.ราชพฤกษ์ -> ถ.ชัยพฤกษ์ กม.22+436	13.87876051	100.4508782	drr	working	2022-09-09T00:00:00	11:00:00	12:00:00	37	32	390	1800	0.22
1338	ถ.ราชพฤกษ์ -> ถ.ชัยพฤกษ์ กม.22+436	13.87876051	100.4508782	drr	working	2022-09-09T00:00:00	12:00:00	13:00:00	35	74	405	1800	0.23
1339	ถ.ราชพฤกษ์ -> ถ.ชัยพฤกษ์ กม.22+436	13.87876051	100.4508782	drr	working	2022-09-09T00:00:00	13:00:00	14:00:00	33	37	661	1800	0.37
1340	ถ.ราชพฤกษ์ -> ถ.ชัยพฤกษ์ กม.22+436	13.87876051	100.4508782	drr	working	2022-09-09T00:00:00	14:00:00	15:00:00	35	41	705	1800	0.39
1341	ถ.ราชพฤกษ์ -> ถ.ชัยพฤกษ์ กม.22+436	13.87876051	100.4508782	drr	working	2022-09-09T00:00:00	15:00:00	16:00:00	35	41	620	1800	0.34
1342	ถ.ราชพฤกษ์ -> ถ.ชัยพฤกษ์ กม.22+436	13.87876051	100.4508782	drr	working	2022-09-09T00:00:00	16:00:00	17:00:00	36	33	582	1800	0.32
1343	ถ.ราชพฤกษ์ -> ถ.ชัยพฤกษ์ กม.22+436	13.87876051	100.4508782	drr	working	2022-09-09T00:00:00	17:00:00	18:00:00	41	40	987	1800	0.55
1344	ถ.ราชพฤกษ์ -> ถ.ชัยพฤกษ์ กม.22+436	13.87876051	100.4508782	drr	working	2022-09-09T00:00:00	18:00:00	19:00:00	39	41	971	1800	0.54
1345	ถ.ราชพฤกษ์ -> ถ.ชัยพฤกษ์ กม.22+345	13.87796612	100.4509488	drr	working	2022-05-09T00:00:00	5:00:00	6:00:00	85	15	239	1800	0.13
1346	ถ.ราชพฤกษ์ -> ถ.ชัยพฤกษ์ กม.22+345	13.87796612	100.4509488	drr	working	2022-05-09T00:00:00	6:00:00	7:00:00	60	50	749	1800	0.42
1347	ถ.ราชพฤกษ์ -> ถ.ชัยพฤกษ์ กม.22+345	13.87796612	100.4509488	drr	working	2022-05-09T00:00:00	7:00:00	8:00:00	55	38	978	1800	0.54
1348	ถ.ราชพฤกษ์ -> ถ.ชัยพฤกษ์ กม.22+345	13.87796612	100.4509488	drr	working	2022-05-09T00:00:00	8:00:00	9:00:00	54	46	1704	1800	0.95
1349	ถ.ราชพฤกษ์ -> ถ.ชัยพฤกษ์ กม.22+345	13.87796612	100.4509488	drr	working	2022-05-09T00:00:00	9:00:00	10:00:00	52	43	1552	1800	0.86
1350	ถ.ราชพฤกษ์ -> ถ.ชัยพฤกษ์ กม.22+345	13.87796612	100.4509488	drr	working	2022-05-09T00:00:00	10:00:00	11:00:00	49	42	1651	1800	0.92
1351	ถ.ราชพฤกษ์ -> ถ.ชัยพฤกษ์ กม.22+345	13.87796612	100.4509488	drr	working	2022-05-09T00:00:00	11:00:00	12:00:00	60	30	1108	1800	0.62
1352	ถ.ราชพฤกษ์ -> ถ.ชัยพฤกษ์ กม.22+345	13.87796612	100.4509488	drr	working	2022-05-09T00:00:00	12:00:00	13:00:00	58	35	570	1800	0.32
1353	ถ.ราชพฤกษ์ -> ถ.ชัยพฤกษ์ กม.22+345	13.87796612	100.4509488	drr	working	2022-05-09T00:00:00	13:00:00	14:00:00	49	44	1513	1800	0.84
1354	ถ.ราชพฤกษ์ -> ถ.ชัยพฤกษ์ กม.22+345	13.87796612	100.4509488	drr	working	2022-05-09T00:00:00	14:00:00	15:00:00	49	45	1543	1800	0.86
1355	ถ.ราชพฤกษ์ -> ถ.ชัยพฤกษ์ กม.22+345	13.87796612	100.4509488	drr	working	2022-05-09T00:00:00	15:00:00	16:00:00	51	44	1639	1800	0.91
1356	ถ.ราชพฤกษ์ -> ถ.ชัยพฤกษ์ กม.22+345	13.87796612	100.4509488	drr	working	2022-05-09T00:00:00	16:00:00	17:00:00	58	41	1519	1800	0.84
1357	ถ.ราชพฤกษ์ -> ถ.ชัยพฤกษ์ กม.22+345	13.87796612	100.4509488	drr	working	2022-05-09T00:00:00	17:00:00	18:00:00	51	70	1330	1800	0.74
1358	ถ.ราชพฤกษ์ -> ถ.ชัยพฤกษ์ กม.22+345	13.87796612	100.4509488	drr	working	2022-05-09T00:00:00	18:00:00	19:00:00	54	51	782	1800	0.43
1359	ถ.ราชพฤกษ์ -> ถ.ชัยพฤกษ์ กม.22+345	13.87796612	100.4509488	drr	working	2022-06-09T00:00:00	5:00:00	6:00:00	84	9	187	1800	0.10
1360	ถ.ราชพฤกษ์ -> ถ.ชัยพฤกษ์ กม.22+345	13.87796612	100.4509488	drr	working	2022-06-09T00:00:00	6:00:00	7:00:00	60	29	570	1800	0.32
1361	ถ.ราชพฤกษ์ -> ถ.ชัยพฤกษ์ กม.22+345	13.87796612	100.4509488	drr	working	2022-06-09T00:00:00	7:00:00	8:00:00	62	59	597	1800	0.33
1362	ถ.ราชพฤกษ์ -> ถ.ชัยพฤกษ์ กม.22+345	13.87796612	100.4509488	drr	working	2022-06-09T00:00:00	8:00:00	9:00:00	54	46	1693	1800	0.94
1363	ถ.ราชพฤกษ์ -> ถ.ชัยพฤกษ์ กม.22+345	13.87796612	100.4509488	drr	working	2022-06-09T00:00:00	9:00:00	10:00:00	53	41	1585	1800	0.88
1364	ถ.ราชพฤกษ์ -> ถ.ชัยพฤกษ์ กม.22+345	13.87796612	100.4509488	drr	working	2022-06-09T00:00:00	10:00:00	11:00:00	50	40	1604	1800	0.89
1365	ถ.ราชพฤกษ์ -> ถ.ชัยพฤกษ์ กม.22+345	13.87796612	100.4509488	drr	working	2022-06-09T00:00:00	11:00:00	12:00:00	55	115	580	1800	0.32
1366	ถ.ราชพฤกษ์ -> ถ.ชัยพฤกษ์ กม.22+345	13.87796612	100.4509488	drr	working	2022-06-09T00:00:00	12:00:00	13:00:00	58	35	568	1800	0.32
1367	ถ.ราชพฤกษ์ -> ถ.ชัยพฤกษ์ กม.22+345	13.87796612	100.4509488	drr	working	2022-06-09T00:00:00	13:00:00	14:00:00	51	44	1611	1800	0.90
1368	ถ.ราชพฤกษ์ -> ถ.ชัยพฤกษ์ กม.22+345	13.87796612	100.4509488	drr	working	2022-06-09T00:00:00	14:00:00	15:00:00	54	45	1624	1800	0.90
1369	ถ.ราชพฤกษ์ -> ถ.ชัยพฤกษ์ กม.22+345	13.87796612	100.4509488	drr	working	2022-06-09T00:00:00	15:00:00	16:00:00	52	44	1528	1800	0.85
1370	ถ.ราชพฤกษ์ -> ถ.ชัยพฤกษ์ กม.22+345	13.87796612	100.4509488	drr	working	2022-06-09T00:00:00	16:00:00	17:00:00	40	49	239	1800	0.13
1371	ถ.ราชพฤกษ์ -> ถ.ชัยพฤกษ์ กม.22+345	13.87796612	100.4509488	drr	working	2022-06-09T00:00:00	17:00:00	18:00:00	57	47	952	1800	0.53
1372	ถ.ราชพฤกษ์ -> ถ.ชัยพฤกษ์ กม.22+345	13.87796612	100.4509488	drr	working	2022-06-09T00:00:00	18:00:00	19:00:00	51	44	1165	1800	0.65
1373	ถ.ราชพฤกษ์ -> ถ.ชัยพฤกษ์ กม.22+345	13.87796612	100.4509488	drr	working	2022-07-09T00:00:00	5:00:00	6:00:00	93	13	197	1800	0.11
1374	ถ.ราชพฤกษ์ -> ถ.ชัยพฤกษ์ กม.22+345	13.87796612	100.4509488	drr	working	2022-07-09T00:00:00	6:00:00	7:00:00	66	38	563	1800	0.31
1375	ถ.ราชพฤกษ์ -> ถ.ชัยพฤกษ์ กม.22+345	13.87796612	100.4509488	drr	working	2022-07-09T00:00:00	7:00:00	8:00:00	57	48	996	1800	0.55
1376	ถ.ราชพฤกษ์ -> ถ.ชัยพฤกษ์ กม.22+345	13.87796612	100.4509488	drr	working	2022-07-09T00:00:00	8:00:00	9:00:00	43	43	797	1800	0.44
1377	ถ.ราชพฤกษ์ -> ถ.ชัยพฤกษ์ กม.22+345	13.87796612	100.4509488	drr	working	2022-07-09T00:00:00	9:00:00	10:00:00	41	38	721	1800	0.40
1378	ถ.ราชพฤกษ์ -> ถ.ชัยพฤกษ์ กม.22+345	13.87796612	100.4509488	drr	working	2022-07-09T00:00:00	10:00:00	11:00:00	40	43	654	1800	0.36
1379	ถ.ราชพฤกษ์ -> ถ.ชัยพฤกษ์ กม.22+345	13.87796612	100.4509488	drr	working	2022-07-09T00:00:00	11:00:00	12:00:00	59	37	957	1800	0.53
1380	ถ.ราชพฤกษ์ -> ถ.ชัยพฤกษ์ กม.22+345	13.87796612	100.4509488	drr	working	2022-07-09T00:00:00	12:00:00	13:00:00	61	29	574	1800	0.32
1381	ถ.ราชพฤกษ์ -> ถ.ชัยพฤกษ์ กม.22+345	13.87796612	100.4509488	drr	working	2022-07-09T00:00:00	13:00:00	14:00:00	42	41	634	1800	0.35
1382	ถ.ราชพฤกษ์ -> ถ.ชัยพฤกษ์ กม.22+345	13.87796612	100.4509488	drr	working	2022-07-09T00:00:00	14:00:00	15:00:00	39	39	691	1800	0.38
1383	ถ.ราชพฤกษ์ -> ถ.ชัยพฤกษ์ กม.22+345	13.87796612	100.4509488	drr	working	2022-07-09T00:00:00	15:00:00	16:00:00	40	37	743	1800	0.41
1384	ถ.ราชพฤกษ์ -> ถ.ชัยพฤกษ์ กม.22+345	13.87796612	100.4509488	drr	working	2022-07-09T00:00:00	16:00:00	17:00:00	63	91	1150	1800	0.64
1385	ถ.ราชพฤกษ์ -> ถ.ชัยพฤกษ์ กม.22+345	13.87796612	100.4509488	drr	working	2022-07-09T00:00:00	17:00:00	18:00:00	59	38	1296	1800	0.72
1386	ถ.ราชพฤกษ์ -> ถ.ชัยพฤกษ์ กม.22+345	13.87796612	100.4509488	drr	working	2022-07-09T00:00:00	18:00:00	19:00:00	54	85	1732	1800	0.96
1387	ถ.ราชพฤกษ์ -> ถ.ชัยพฤกษ์ กม.22+345	13.87796612	100.4509488	drr	working	2022-08-09T00:00:00	5:00:00	6:00:00	92	12	190	1800	0.11
1388	ถ.ราชพฤกษ์ -> ถ.ชัยพฤกษ์ กม.22+345	13.87796612	100.4509488	drr	working	2022-08-09T00:00:00	6:00:00	7:00:00	66	38	568	1800	0.32
1389	ถ.ราชพฤกษ์ -> ถ.ชัยพฤกษ์ กม.22+345	13.87796612	100.4509488	drr	working	2022-08-09T00:00:00	7:00:00	8:00:00	55	55	968	1800	0.54
1390	ถ.ราชพฤกษ์ -> ถ.ชัยพฤกษ์ กม.22+345	13.87796612	100.4509488	drr	working	2022-08-09T00:00:00	8:00:00	9:00:00	54	40	792	1800	0.44
1391	ถ.ราชพฤกษ์ -> ถ.ชัยพฤกษ์ กม.22+345	13.87796612	100.4509488	drr	working	2022-08-09T00:00:00	9:00:00	10:00:00	50	38	781	1800	0.43
1392	ถ.ราชพฤกษ์ -> ถ.ชัยพฤกษ์ กม.22+345	13.87796612	100.4509488	drr	working	2022-08-09T00:00:00	10:00:00	11:00:00	53	38	675	1800	0.38
1393	ถ.ราชพฤกษ์ -> ถ.ชัยพฤกษ์ กม.22+345	13.87796612	100.4509488	drr	working	2022-08-09T00:00:00	11:00:00	12:00:00	66	29	755	1800	0.42
1394	ถ.ราชพฤกษ์ -> ถ.ชัยพฤกษ์ กม.22+345	13.87796612	100.4509488	drr	working	2022-08-09T00:00:00	12:00:00	13:00:00	60	78	1857	1800	1.03
1395	ถ.ราชพฤกษ์ -> ถ.ชัยพฤกษ์ กม.22+345	13.87796612	100.4509488	drr	working	2022-08-09T00:00:00	13:00:00	14:00:00	50	39	685	1800	0.38
1396	ถ.ราชพฤกษ์ -> ถ.ชัยพฤกษ์ กม.22+345	13.87796612	100.4509488	drr	working	2022-08-09T00:00:00	14:00:00	15:00:00	52	38	672	1800	0.37
1397	ถ.ราชพฤกษ์ -> ถ.ชัยพฤกษ์ กม.22+345	13.87796612	100.4509488	drr	working	2022-08-09T00:00:00	15:00:00	16:00:00	52	35	624	1800	0.35
1398	ถ.ราชพฤกษ์ -> ถ.ชัยพฤกษ์ กม.22+345	13.87796612	100.4509488	drr	working	2022-08-09T00:00:00	16:00:00	17:00:00	57	30	769	1800	0.43
1399	ถ.ราชพฤกษ์ -> ถ.ชัยพฤกษ์ กม.22+345	13.87796612	100.4509488	drr	working	2022-08-09T00:00:00	17:00:00	18:00:00	56	34	788	1800	0.44
1400	ถ.ราชพฤกษ์ -> ถ.ชัยพฤกษ์ กม.22+345	13.87796612	100.4509488	drr	working	2022-08-09T00:00:00	18:00:00	19:00:00	50	71	1698	1800	0.94
1401	ถ.ราชพฤกษ์ -> ถ.ชัยพฤกษ์ กม.22+345	13.87796612	100.4509488	drr	working	2022-09-09T00:00:00	5:00:00	6:00:00	94	13	205	1800	0.11
1402	ถ.ราชพฤกษ์ -> ถ.ชัยพฤกษ์ กม.22+345	13.87796612	100.4509488	drr	working	2022-09-09T00:00:00	6:00:00	7:00:00	66	40	622	1800	0.35
1403	ถ.ราชพฤกษ์ -> ถ.ชัยพฤกษ์ กม.22+345	13.87796612	100.4509488	drr	working	2022-09-09T00:00:00	7:00:00	8:00:00	60	60	1157	1800	0.64
1404	ถ.ราชพฤกษ์ -> ถ.ชัยพฤกษ์ กม.22+345	13.87796612	100.4509488	drr	working	2022-09-09T00:00:00	8:00:00	9:00:00	54	32	934	1800	0.52
1405	ถ.ราชพฤกษ์ -> ถ.ชัยพฤกษ์ กม.22+345	13.87796612	100.4509488	drr	working	2022-09-09T00:00:00	9:00:00	10:00:00	51	30	919	1800	0.51
1406	ถ.ราชพฤกษ์ -> ถ.ชัยพฤกษ์ กม.22+345	13.87796612	100.4509488	drr	working	2022-09-09T00:00:00	10:00:00	11:00:00	50	30	879	1800	0.49
1407	ถ.ราชพฤกษ์ -> ถ.ชัยพฤกษ์ กม.22+345	13.87796612	100.4509488	drr	working	2022-09-09T00:00:00	11:00:00	12:00:00	66	40	751	1800	0.42
1408	ถ.ราชพฤกษ์ -> ถ.ชัยพฤกษ์ กม.22+345	13.87796612	100.4509488	drr	working	2022-09-09T00:00:00	12:00:00	13:00:00	62	55	381	1800	0.21
1409	ถ.ราชพฤกษ์ -> ถ.ชัยพฤกษ์ กม.22+345	13.87796612	100.4509488	drr	working	2022-09-09T00:00:00	13:00:00	14:00:00	50	27	856	1800	0.48
1410	ถ.ราชพฤกษ์ -> ถ.ชัยพฤกษ์ กม.22+345	13.87796612	100.4509488	drr	working	2022-09-09T00:00:00	14:00:00	15:00:00	51	29	835	1800	0.46
1411	ถ.ราชพฤกษ์ -> ถ.ชัยพฤกษ์ กม.22+345	13.87796612	100.4509488	drr	working	2022-09-09T00:00:00	15:00:00	16:00:00	49	31	871	1800	0.48
1412	ถ.ราชพฤกษ์ -> ถ.ชัยพฤกษ์ กม.22+345	13.87796612	100.4509488	drr	working	2022-09-09T00:00:00	16:00:00	17:00:00	55	38	822	1800	0.46
1413	ถ.ราชพฤกษ์ -> ถ.ชัยพฤกษ์ กม.22+345	13.87796612	100.4509488	drr	working	2022-09-09T00:00:00	17:00:00	18:00:00	52	69	1019	1800	0.57
1414	ถ.ราชพฤกษ์ -> ถ.ชัยพฤกษ์ กม.22+345	13.87796612	100.4509488	drr	working	2022-09-09T00:00:00	18:00:00	19:00:00	62	48	1316	1800	0.73
1415	ถ.ราชพฤกษ์ -> ถ.ชัยพฤกษ์ กม.21+835	13.87337242	100.4513443	drr	working	2022-05-09T00:00:00	5:00:00	6:00:00	76	31	1706	2700	0.63
1416	ถ.ราชพฤกษ์ -> ถ.ชัยพฤกษ์ กม.21+835	13.87337242	100.4513443	drr	working	2022-05-09T00:00:00	6:00:00	7:00:00	54	92	5495	2700	2.04
1417	ถ.ราชพฤกษ์ -> ถ.ชัยพฤกษ์ กม.21+835	13.87337242	100.4513443	drr	working	2022-05-09T00:00:00	7:00:00	8:00:00	29	143	4122	2700	1.53
1418	ถ.ราชพฤกษ์ -> ถ.ชัยพฤกษ์ กม.21+835	13.87337242	100.4513443	drr	working	2022-05-09T00:00:00	8:00:00	9:00:00	42	139	2447	2700	0.91
1419	ถ.ราชพฤกษ์ -> ถ.ชัยพฤกษ์ กม.21+835	13.87337242	100.4513443	drr	working	2022-05-09T00:00:00	9:00:00	10:00:00	39	138	2405	2700	0.89
1420	ถ.ราชพฤกษ์ -> ถ.ชัยพฤกษ์ กม.21+835	13.87337242	100.4513443	drr	working	2022-05-09T00:00:00	10:00:00	11:00:00	39	139	2393	2700	0.89
1421	ถ.ราชพฤกษ์ -> ถ.ชัยพฤกษ์ กม.21+835	13.87337242	100.4513443	drr	working	2022-05-09T00:00:00	11:00:00	12:00:00	52	75	4017	2700	1.49
1422	ถ.ราชพฤกษ์ -> ถ.ชัยพฤกษ์ กม.21+835	13.87337242	100.4513443	drr	working	2022-05-09T00:00:00	12:00:00	13:00:00	47	68	2753	2700	1.02
1423	ถ.ราชพฤกษ์ -> ถ.ชัยพฤกษ์ กม.21+835	13.87337242	100.4513443	drr	working	2022-05-09T00:00:00	13:00:00	14:00:00	41	135	2351	2700	0.87
1424	ถ.ราชพฤกษ์ -> ถ.ชัยพฤกษ์ กม.21+835	13.87337242	100.4513443	drr	working	2022-05-09T00:00:00	14:00:00	15:00:00	38	135	2318	2700	0.86
1425	ถ.ราชพฤกษ์ -> ถ.ชัยพฤกษ์ กม.21+835	13.87337242	100.4513443	drr	working	2022-05-09T00:00:00	15:00:00	16:00:00	38	136	2422	2700	0.90
1426	ถ.ราชพฤกษ์ -> ถ.ชัยพฤกษ์ กม.21+835	13.87337242	100.4513443	drr	working	2022-05-09T00:00:00	16:00:00	17:00:00	59	95	4042	2700	1.50
1427	ถ.ราชพฤกษ์ -> ถ.ชัยพฤกษ์ กม.21+835	13.87337242	100.4513443	drr	working	2022-05-09T00:00:00	17:00:00	18:00:00	61	69	4380	2700	1.62
1428	ถ.ราชพฤกษ์ -> ถ.ชัยพฤกษ์ กม.21+835	13.87337242	100.4513443	drr	working	2022-05-09T00:00:00	18:00:00	19:00:00	61	57	4384	2700	1.62
1429	ถ.ราชพฤกษ์ -> ถ.ชัยพฤกษ์ กม.21+835	13.87337242	100.4513443	drr	working	2022-06-09T00:00:00	5:00:00	6:00:00	82	37	1476	2700	0.55
1430	ถ.ราชพฤกษ์ -> ถ.ชัยพฤกษ์ กม.21+835	13.87337242	100.4513443	drr	working	2022-06-09T00:00:00	6:00:00	7:00:00	59	108	4237	2700	1.57
1431	ถ.ราชพฤกษ์ -> ถ.ชัยพฤกษ์ กม.21+835	13.87337242	100.4513443	drr	working	2022-06-09T00:00:00	7:00:00	8:00:00	56	97	5326	2700	1.97
1432	ถ.ราชพฤกษ์ -> ถ.ชัยพฤกษ์ กม.21+835	13.87337242	100.4513443	drr	working	2022-06-09T00:00:00	8:00:00	9:00:00	59	55	3653	2700	1.35
1433	ถ.ราชพฤกษ์ -> ถ.ชัยพฤกษ์ กม.21+835	13.87337242	100.4513443	drr	working	2022-06-09T00:00:00	9:00:00	10:00:00	56	52	3644	2700	1.35
1434	ถ.ราชพฤกษ์ -> ถ.ชัยพฤกษ์ กม.21+835	13.87337242	100.4513443	drr	working	2022-06-09T00:00:00	10:00:00	11:00:00	57	50	3599	2700	1.33
1435	ถ.ราชพฤกษ์ -> ถ.ชัยพฤกษ์ กม.21+835	13.87337242	100.4513443	drr	working	2022-06-09T00:00:00	11:00:00	12:00:00	48	68	2925	2700	1.08
1436	ถ.ราชพฤกษ์ -> ถ.ชัยพฤกษ์ กม.21+835	13.87337242	100.4513443	drr	working	2022-06-09T00:00:00	12:00:00	13:00:00	52	200	3154	2700	1.17
1437	ถ.ราชพฤกษ์ -> ถ.ชัยพฤกษ์ กม.21+835	13.87337242	100.4513443	drr	working	2022-06-09T00:00:00	13:00:00	14:00:00	57	54	3574	2700	1.32
1438	ถ.ราชพฤกษ์ -> ถ.ชัยพฤกษ์ กม.21+835	13.87337242	100.4513443	drr	working	2022-06-09T00:00:00	14:00:00	15:00:00	54	52	3501	2700	1.30
1439	ถ.ราชพฤกษ์ -> ถ.ชัยพฤกษ์ กม.21+835	13.87337242	100.4513443	drr	working	2022-06-09T00:00:00	15:00:00	16:00:00	54	55	3597	2700	1.33
1440	ถ.ราชพฤกษ์ -> ถ.ชัยพฤกษ์ กม.21+835	13.87337242	100.4513443	drr	working	2022-06-09T00:00:00	16:00:00	17:00:00	44	114	4033	2700	1.49
1441	ถ.ราชพฤกษ์ -> ถ.ชัยพฤกษ์ กม.21+835	13.87337242	100.4513443	drr	working	2022-06-09T00:00:00	17:00:00	18:00:00	51	110	4047	2700	1.50
1442	ถ.ราชพฤกษ์ -> ถ.ชัยพฤกษ์ กม.21+835	13.87337242	100.4513443	drr	working	2022-06-09T00:00:00	18:00:00	19:00:00	51	92	4210	2700	1.56
1443	ถ.ราชพฤกษ์ -> ถ.ชัยพฤกษ์ กม.21+835	13.87337242	100.4513443	drr	working	2022-07-09T00:00:00	5:00:00	6:00:00	84	30	1532	2700	0.57
1444	ถ.ราชพฤกษ์ -> ถ.ชัยพฤกษ์ กม.21+835	13.87337242	100.4513443	drr	working	2022-07-09T00:00:00	6:00:00	7:00:00	59	96	4394	2700	1.63
1445	ถ.ราชพฤกษ์ -> ถ.ชัยพฤกษ์ กม.21+835	13.87337242	100.4513443	drr	working	2022-07-09T00:00:00	7:00:00	8:00:00	18	201	3369	2700	1.25
1446	ถ.ราชพฤกษ์ -> ถ.ชัยพฤกษ์ กม.21+835	13.87337242	100.4513443	drr	working	2022-07-09T00:00:00	8:00:00	9:00:00	49	139	3482	2700	1.29
1447	ถ.ราชพฤกษ์ -> ถ.ชัยพฤกษ์ กม.21+835	13.87337242	100.4513443	drr	working	2022-07-09T00:00:00	9:00:00	10:00:00	45	135	3411	2700	1.26
1448	ถ.ราชพฤกษ์ -> ถ.ชัยพฤกษ์ กม.21+835	13.87337242	100.4513443	drr	working	2022-07-09T00:00:00	10:00:00	11:00:00	45	135	3391	2700	1.26
1449	ถ.ราชพฤกษ์ -> ถ.ชัยพฤกษ์ กม.21+835	13.87337242	100.4513443	drr	working	2022-07-09T00:00:00	11:00:00	12:00:00	35	112	2224	2700	0.82
1450	ถ.ราชพฤกษ์ -> ถ.ชัยพฤกษ์ กม.21+835	13.87337242	100.4513443	drr	working	2022-07-09T00:00:00	12:00:00	13:00:00	46	71	2379	2700	0.88
1451	ถ.ราชพฤกษ์ -> ถ.ชัยพฤกษ์ กม.21+835	13.87337242	100.4513443	drr	working	2022-07-09T00:00:00	13:00:00	14:00:00	47	137	3458	2700	1.28
1452	ถ.ราชพฤกษ์ -> ถ.ชัยพฤกษ์ กม.21+835	13.87337242	100.4513443	drr	working	2022-07-09T00:00:00	14:00:00	15:00:00	44	135	3425	2700	1.27
1453	ถ.ราชพฤกษ์ -> ถ.ชัยพฤกษ์ กม.21+835	13.87337242	100.4513443	drr	working	2022-07-09T00:00:00	15:00:00	16:00:00	44	137	3462	2700	1.28
1454	ถ.ราชพฤกษ์ -> ถ.ชัยพฤกษ์ กม.21+835	13.87337242	100.4513443	drr	working	2022-07-09T00:00:00	16:00:00	17:00:00	63	95	2774	2700	1.03
1455	ถ.ราชพฤกษ์ -> ถ.ชัยพฤกษ์ กม.21+835	13.87337242	100.4513443	drr	working	2022-07-09T00:00:00	17:00:00	18:00:00	57	91	4255	2700	1.58
1456	ถ.ราชพฤกษ์ -> ถ.ชัยพฤกษ์ กม.21+835	13.87337242	100.4513443	drr	working	2022-07-09T00:00:00	18:00:00	19:00:00	59	53	3470	2700	1.29
1457	ถ.ราชพฤกษ์ -> ถ.ชัยพฤกษ์ กม.21+835	13.87337242	100.4513443	drr	working	2022-08-09T00:00:00	5:00:00	6:00:00	94	24	545	2700	0.20
1458	ถ.ราชพฤกษ์ -> ถ.ชัยพฤกษ์ กม.21+835	13.87337242	100.4513443	drr	working	2022-08-09T00:00:00	6:00:00	7:00:00	65	72	1656	2700	0.61
1459	ถ.ราชพฤกษ์ -> ถ.ชัยพฤกษ์ กม.21+835	13.87337242	100.4513443	drr	working	2022-08-09T00:00:00	7:00:00	8:00:00	19	137	2786	2700	1.03
1460	ถ.ราชพฤกษ์ -> ถ.ชัยพฤกษ์ กม.21+835	13.87337242	100.4513443	drr	working	2022-08-09T00:00:00	8:00:00	9:00:00	37	123	3866	2700	1.43
1461	ถ.ราชพฤกษ์ -> ถ.ชัยพฤกษ์ กม.21+835	13.87337242	100.4513443	drr	working	2022-08-09T00:00:00	9:00:00	10:00:00	32	119	3793	2700	1.40
1462	ถ.ราชพฤกษ์ -> ถ.ชัยพฤกษ์ กม.21+835	13.87337242	100.4513443	drr	working	2022-08-09T00:00:00	10:00:00	11:00:00	33	121	3774	2700	1.40
1463	ถ.ราชพฤกษ์ -> ถ.ชัยพฤกษ์ กม.21+835	13.87337242	100.4513443	drr	working	2022-08-09T00:00:00	11:00:00	12:00:00	63	113	3486	2700	1.29
1464	ถ.ราชพฤกษ์ -> ถ.ชัยพฤกษ์ กม.21+835	13.87337242	100.4513443	drr	working	2022-08-09T00:00:00	12:00:00	13:00:00	64	76	2196	2700	0.81
1465	ถ.ราชพฤกษ์ -> ถ.ชัยพฤกษ์ กม.21+835	13.87337242	100.4513443	drr	working	2022-08-09T00:00:00	13:00:00	14:00:00	34	121	3758	2700	1.39
1466	ถ.ราชพฤกษ์ -> ถ.ชัยพฤกษ์ กม.21+835	13.87337242	100.4513443	drr	working	2022-08-09T00:00:00	14:00:00	15:00:00	32	118	3719	2700	1.38
1467	ถ.ราชพฤกษ์ -> ถ.ชัยพฤกษ์ กม.21+835	13.87337242	100.4513443	drr	working	2022-08-09T00:00:00	15:00:00	16:00:00	32	123	3694	2700	1.37
1468	ถ.ราชพฤกษ์ -> ถ.ชัยพฤกษ์ กม.21+835	13.87337242	100.4513443	drr	working	2022-08-09T00:00:00	16:00:00	17:00:00	58	95	4066	2700	1.51
1469	ถ.ราชพฤกษ์ -> ถ.ชัยพฤกษ์ กม.21+835	13.87337242	100.4513443	drr	working	2022-08-09T00:00:00	17:00:00	18:00:00	46	88	4202	2700	1.56
1470	ถ.ราชพฤกษ์ -> ถ.ชัยพฤกษ์ กม.21+835	13.87337242	100.4513443	drr	working	2022-08-09T00:00:00	18:00:00	19:00:00	53	68	3526	2700	1.31
1471	ถ.ราชพฤกษ์ -> ถ.ชัยพฤกษ์ กม.21+835	13.87337242	100.4513443	drr	working	2022-09-09T00:00:00	5:00:00	6:00:00	90	23	1549	2700	0.57
1472	ถ.ราชพฤกษ์ -> ถ.ชัยพฤกษ์ กม.21+835	13.87337242	100.4513443	drr	working	2022-09-09T00:00:00	6:00:00	7:00:00	64	72	4762	2700	1.76
1473	ถ.ราชพฤกษ์ -> ถ.ชัยพฤกษ์ กม.21+835	13.87337242	100.4513443	drr	working	2022-09-09T00:00:00	7:00:00	8:00:00	58	77	4771	2700	1.77
1474	ถ.ราชพฤกษ์ -> ถ.ชัยพฤกษ์ กม.21+835	13.87337242	100.4513443	drr	working	2022-09-09T00:00:00	8:00:00	9:00:00	58	89	3654	2700	1.35
1475	ถ.ราชพฤกษ์ -> ถ.ชัยพฤกษ์ กม.21+835	13.87337242	100.4513443	drr	working	2022-09-09T00:00:00	9:00:00	10:00:00	53	85	3585	2700	1.33
1476	ถ.ราชพฤกษ์ -> ถ.ชัยพฤกษ์ กม.21+835	13.87337242	100.4513443	drr	working	2022-09-09T00:00:00	10:00:00	11:00:00	54	85	3613	2700	1.34
1477	ถ.ราชพฤกษ์ -> ถ.ชัยพฤกษ์ กม.21+835	13.87337242	100.4513443	drr	working	2022-09-09T00:00:00	11:00:00	12:00:00	60	103	2931	2700	1.09
1478	ถ.ราชพฤกษ์ -> ถ.ชัยพฤกษ์ กม.21+835	13.87337242	100.4513443	drr	working	2022-09-09T00:00:00	12:00:00	13:00:00	61	124	2597	2700	0.96
1479	ถ.ราชพฤกษ์ -> ถ.ชัยพฤกษ์ กม.21+835	13.87337242	100.4513443	drr	working	2022-09-09T00:00:00	13:00:00	14:00:00	56	88	3645	2700	1.35
1480	ถ.ราชพฤกษ์ -> ถ.ชัยพฤกษ์ กม.21+835	13.87337242	100.4513443	drr	working	2022-09-09T00:00:00	14:00:00	15:00:00	54	90	3567	2700	1.32
1481	ถ.ราชพฤกษ์ -> ถ.ชัยพฤกษ์ กม.21+835	13.87337242	100.4513443	drr	working	2022-09-09T00:00:00	15:00:00	16:00:00	56	89	3505	2700	1.30
1482	ถ.ราชพฤกษ์ -> ถ.ชัยพฤกษ์ กม.21+835	13.87337242	100.4513443	drr	working	2022-09-09T00:00:00	16:00:00	17:00:00	62	66	3282	2700	1.22
1483	ถ.ราชพฤกษ์ -> ถ.ชัยพฤกษ์ กม.21+835	13.87337242	100.4513443	drr	working	2022-09-09T00:00:00	17:00:00	18:00:00	61	78	4599	2700	1.70
1484	ถ.ราชพฤกษ์ -> ถ.ชัยพฤกษ์ กม.21+835	13.87337242	100.4513443	drr	working	2022-09-09T00:00:00	18:00:00	19:00:00	62	69	2936	2700	1.09
1485	ถ.ราชพฤกษ์ -> ถ.นครอินทร์ กม.22+436	13.87880227	100.4509168	drr	working	2022-05-09T00:00:00	5:00:00	6:00:00	46	45	1756	2700	0.65
1486	ถ.ราชพฤกษ์ -> ถ.นครอินทร์ กม.22+436	13.87880227	100.4509168	drr	working	2022-05-09T00:00:00	6:00:00	7:00:00	32	136	5005	2700	1.85
1487	ถ.ราชพฤกษ์ -> ถ.นครอินทร์ กม.22+436	13.87880227	100.4509168	drr	working	2022-05-09T00:00:00	7:00:00	8:00:00	26	201	5195	2700	1.92
1488	ถ.ราชพฤกษ์ -> ถ.นครอินทร์ กม.22+436	13.87880227	100.4509168	drr	working	2022-05-09T00:00:00	8:00:00	9:00:00	38	202	2402	2700	0.89
1489	ถ.ราชพฤกษ์ -> ถ.นครอินทร์ กม.22+436	13.87880227	100.4509168	drr	working	2022-05-09T00:00:00	9:00:00	10:00:00	37	202	2328	2700	0.86
1490	ถ.ราชพฤกษ์ -> ถ.นครอินทร์ กม.22+436	13.87880227	100.4509168	drr	working	2022-05-09T00:00:00	10:00:00	11:00:00	34	201	2344	2700	0.87
1491	ถ.ราชพฤกษ์ -> ถ.นครอินทร์ กม.22+436	13.87880227	100.4509168	drr	working	2022-05-09T00:00:00	11:00:00	12:00:00	24	107	2381	2700	0.88
1492	ถ.ราชพฤกษ์ -> ถ.นครอินทร์ กม.22+436	13.87880227	100.4509168	drr	working	2022-05-09T00:00:00	12:00:00	13:00:00	28	106	2941	2700	1.09
1493	ถ.ราชพฤกษ์ -> ถ.นครอินทร์ กม.22+436	13.87880227	100.4509168	drr	working	2022-05-09T00:00:00	13:00:00	14:00:00	36	202	2392	2700	0.89
1494	ถ.ราชพฤกษ์ -> ถ.นครอินทร์ กม.22+436	13.87880227	100.4509168	drr	working	2022-05-09T00:00:00	14:00:00	15:00:00	33	202	2398	2700	0.89
1495	ถ.ราชพฤกษ์ -> ถ.นครอินทร์ กม.22+436	13.87880227	100.4509168	drr	working	2022-05-09T00:00:00	15:00:00	16:00:00	37	201	2270	2700	0.84
1496	ถ.ราชพฤกษ์ -> ถ.นครอินทร์ กม.22+436	13.87880227	100.4509168	drr	working	2022-05-09T00:00:00	16:00:00	17:00:00	40	78	2444	2700	0.91
1497	ถ.ราชพฤกษ์ -> ถ.นครอินทร์ กม.22+436	13.87880227	100.4509168	drr	working	2022-05-09T00:00:00	17:00:00	18:00:00	45	101	4785	2700	1.77
1498	ถ.ราชพฤกษ์ -> ถ.นครอินทร์ กม.22+436	13.87880227	100.4509168	drr	working	2022-05-09T00:00:00	18:00:00	19:00:00	40	88	4284	2700	1.59
1499	ถ.ราชพฤกษ์ -> ถ.นครอินทร์ กม.22+436	13.87880227	100.4509168	drr	working	2022-06-09T00:00:00	5:00:00	6:00:00	57	23	1097	2700	0.41
1500	ถ.ราชพฤกษ์ -> ถ.นครอินทร์ กม.22+436	13.87880227	100.4509168	drr	working	2022-06-09T00:00:00	6:00:00	7:00:00	41	71	3322	2700	1.23
1501	ถ.ราชพฤกษ์ -> ถ.นครอินทร์ กม.22+436	13.87880227	100.4509168	drr	working	2022-06-09T00:00:00	7:00:00	8:00:00	38	145	5217	2700	1.93
1502	ถ.ราชพฤกษ์ -> ถ.นครอินทร์ กม.22+436	13.87880227	100.4509168	drr	working	2022-06-09T00:00:00	8:00:00	9:00:00	43	99	4814	2700	1.78
1503	ถ.ราชพฤกษ์ -> ถ.นครอินทร์ กม.22+436	13.87880227	100.4509168	drr	working	2022-06-09T00:00:00	9:00:00	10:00:00	41	98	4791	2700	1.77
1504	ถ.ราชพฤกษ์ -> ถ.นครอินทร์ กม.22+436	13.87880227	100.4509168	drr	working	2022-06-09T00:00:00	10:00:00	11:00:00	40	97	4710	2700	1.74
1505	ถ.ราชพฤกษ์ -> ถ.นครอินทร์ กม.22+436	13.87880227	100.4509168	drr	working	2022-06-09T00:00:00	11:00:00	12:00:00	39	84	2060	2700	0.76
1506	ถ.ราชพฤกษ์ -> ถ.นครอินทร์ กม.22+436	13.87880227	100.4509168	drr	working	2022-06-09T00:00:00	12:00:00	13:00:00	36	112	3744	2700	1.39
1507	ถ.ราชพฤกษ์ -> ถ.นครอินทร์ กม.22+436	13.87880227	100.4509168	drr	working	2022-06-09T00:00:00	13:00:00	14:00:00	42	96	4647	2700	1.72
1508	ถ.ราชพฤกษ์ -> ถ.นครอินทร์ กม.22+436	13.87880227	100.4509168	drr	working	2022-06-09T00:00:00	14:00:00	15:00:00	39	95	4763	2700	1.76
1509	ถ.ราชพฤกษ์ -> ถ.นครอินทร์ กม.22+436	13.87880227	100.4509168	drr	working	2022-06-09T00:00:00	15:00:00	16:00:00	41	95	4740	2700	1.76
1510	ถ.ราชพฤกษ์ -> ถ.นครอินทร์ กม.22+436	13.87880227	100.4509168	drr	working	2022-06-09T00:00:00	16:00:00	17:00:00	40	77	3492	2700	1.29
1511	ถ.ราชพฤกษ์ -> ถ.นครอินทร์ กม.22+436	13.87880227	100.4509168	drr	working	2022-06-09T00:00:00	17:00:00	18:00:00	34	97	3338	2700	1.24
1512	ถ.ราชพฤกษ์ -> ถ.นครอินทร์ กม.22+436	13.87880227	100.4509168	drr	working	2022-06-09T00:00:00	18:00:00	19:00:00	51	76	3127	2700	1.16
1513	ถ.ราชพฤกษ์ -> ถ.นครอินทร์ กม.22+436	13.87880227	100.4509168	drr	working	2022-07-09T00:00:00	5:00:00	6:00:00	54	24	1233	2700	0.46
1514	ถ.ราชพฤกษ์ -> ถ.นครอินทร์ กม.22+436	13.87880227	100.4509168	drr	working	2022-07-09T00:00:00	6:00:00	7:00:00	38	79	3576	2700	1.32
1515	ถ.ราชพฤกษ์ -> ถ.นครอินทร์ กม.22+436	13.87880227	100.4509168	drr	working	2022-07-09T00:00:00	7:00:00	8:00:00	29	132	4823	2700	1.79
1516	ถ.ราชพฤกษ์ -> ถ.นครอินทร์ กม.22+436	13.87880227	100.4509168	drr	working	2022-07-09T00:00:00	8:00:00	9:00:00	41	112	3941	2700	1.46
1517	ถ.ราชพฤกษ์ -> ถ.นครอินทร์ กม.22+436	13.87880227	100.4509168	drr	working	2022-07-09T00:00:00	9:00:00	10:00:00	39	110	3846	2700	1.42
1518	ถ.ราชพฤกษ์ -> ถ.นครอินทร์ กม.22+436	13.87880227	100.4509168	drr	working	2022-07-09T00:00:00	10:00:00	11:00:00	36	108	3809	2700	1.41
1519	ถ.ราชพฤกษ์ -> ถ.นครอินทร์ กม.22+436	13.87880227	100.4509168	drr	working	2022-07-09T00:00:00	11:00:00	12:00:00	36	129	3874	2700	1.43
1520	ถ.ราชพฤกษ์ -> ถ.นครอินทร์ กม.22+436	13.87880227	100.4509168	drr	working	2022-07-09T00:00:00	12:00:00	13:00:00	44	108	3713	2700	1.38
1521	ถ.ราชพฤกษ์ -> ถ.นครอินทร์ กม.22+436	13.87880227	100.4509168	drr	working	2022-07-09T00:00:00	13:00:00	14:00:00	37	110	3886	2700	1.44
1522	ถ.ราชพฤกษ์ -> ถ.นครอินทร์ กม.22+436	13.87880227	100.4509168	drr	working	2022-07-09T00:00:00	14:00:00	15:00:00	36	109	3869	2700	1.43
1523	ถ.ราชพฤกษ์ -> ถ.นครอินทร์ กม.22+436	13.87880227	100.4509168	drr	working	2022-07-09T00:00:00	15:00:00	16:00:00	38	107	3848	2700	1.43
1524	ถ.ราชพฤกษ์ -> ถ.นครอินทร์ กม.22+436	13.87880227	100.4509168	drr	working	2022-07-09T00:00:00	16:00:00	17:00:00	35	145	5554	2700	2.06
1525	ถ.ราชพฤกษ์ -> ถ.นครอินทร์ กม.22+436	13.87880227	100.4509168	drr	working	2022-07-09T00:00:00	17:00:00	18:00:00	36	92	3223	2700	1.19
1526	ถ.ราชพฤกษ์ -> ถ.นครอินทร์ กม.22+436	13.87880227	100.4509168	drr	working	2022-07-09T00:00:00	18:00:00	19:00:00	47	64	2794	2700	1.03
1527	ถ.ราชพฤกษ์ -> ถ.นครอินทร์ กม.22+436	13.87880227	100.4509168	drr	working	2022-08-09T00:00:00	5:00:00	6:00:00	59	35	1500	2700	0.56
1528	ถ.ราชพฤกษ์ -> ถ.นครอินทร์ กม.22+436	13.87880227	100.4509168	drr	working	2022-08-09T00:00:00	6:00:00	7:00:00	42	106	4634	2700	1.72
1529	ถ.ราชพฤกษ์ -> ถ.นครอินทร์ กม.22+436	13.87880227	100.4509168	drr	working	2022-08-09T00:00:00	7:00:00	8:00:00	24	201	4460	2700	1.65
1530	ถ.ราชพฤกษ์ -> ถ.นครอินทร์ กม.22+436	13.87880227	100.4509168	drr	working	2022-08-09T00:00:00	8:00:00	9:00:00	42	107	5376	2700	1.99
1531	ถ.ราชพฤกษ์ -> ถ.นครอินทร์ กม.22+436	13.87880227	100.4509168	drr	working	2022-08-09T00:00:00	9:00:00	10:00:00	38	106	5261	2700	1.95
1532	ถ.ราชพฤกษ์ -> ถ.นครอินทร์ กม.22+436	13.87880227	100.4509168	drr	working	2022-08-09T00:00:00	10:00:00	11:00:00	40	103	5279	2700	1.96
1533	ถ.ราชพฤกษ์ -> ถ.นครอินทร์ กม.22+436	13.87880227	100.4509168	drr	working	2022-08-09T00:00:00	11:00:00	12:00:00	40	92	4051	2700	1.50
1534	ถ.ราชพฤกษ์ -> ถ.นครอินทร์ กม.22+436	13.87880227	100.4509168	drr	working	2022-08-09T00:00:00	12:00:00	13:00:00	39	63	2206	2700	0.82
1535	ถ.ราชพฤกษ์ -> ถ.นครอินทร์ กม.22+436	13.87880227	100.4509168	drr	working	2022-08-09T00:00:00	13:00:00	14:00:00	40	106	5312	2700	1.97
1536	ถ.ราชพฤกษ์ -> ถ.นครอินทร์ กม.22+436	13.87880227	100.4509168	drr	working	2022-08-09T00:00:00	14:00:00	15:00:00	41	102	5274	2700	1.95
1537	ถ.ราชพฤกษ์ -> ถ.นครอินทร์ กม.22+436	13.87880227	100.4509168	drr	working	2022-08-09T00:00:00	15:00:00	16:00:00	39	103	5242	2700	1.94
1538	ถ.ราชพฤกษ์ -> ถ.นครอินทร์ กม.22+436	13.87880227	100.4509168	drr	working	2022-08-09T00:00:00	16:00:00	17:00:00	29	103	3889	2700	1.44
1539	ถ.ราชพฤกษ์ -> ถ.นครอินทร์ กม.22+436	13.87880227	100.4509168	drr	working	2022-08-09T00:00:00	17:00:00	18:00:00	30	146	4982	2700	1.85
1540	ถ.ราชพฤกษ์ -> ถ.นครอินทร์ กม.22+436	13.87880227	100.4509168	drr	working	2022-08-09T00:00:00	18:00:00	19:00:00	43	55	2764	2700	1.02
1541	ถ.ราชพฤกษ์ -> ถ.นครอินทร์ กม.22+436	13.87880227	100.4509168	drr	working	2022-09-09T00:00:00	5:00:00	6:00:00	71	19	580	2700	0.21
1542	ถ.ราชพฤกษ์ -> ถ.นครอินทร์ กม.22+436	13.87880227	100.4509168	drr	working	2022-09-09T00:00:00	6:00:00	7:00:00	51	54	1846	2700	0.68
1543	ถ.ราชพฤกษ์ -> ถ.นครอินทร์ กม.22+436	13.87880227	100.4509168	drr	working	2022-09-09T00:00:00	7:00:00	8:00:00	38	93	4076	2700	1.51
1544	ถ.ราชพฤกษ์ -> ถ.นครอินทร์ กม.22+436	13.87880227	100.4509168	drr	working	2022-09-09T00:00:00	8:00:00	9:00:00	43	87	3953	2700	1.46
1545	ถ.ราชพฤกษ์ -> ถ.นครอินทร์ กม.22+436	13.87880227	100.4509168	drr	working	2022-09-09T00:00:00	9:00:00	10:00:00	41	82	3921	2700	1.45
1546	ถ.ราชพฤกษ์ -> ถ.นครอินทร์ กม.22+436	13.87880227	100.4509168	drr	working	2022-09-09T00:00:00	10:00:00	11:00:00	40	84	3823	2700	1.42
1547	ถ.ราชพฤกษ์ -> ถ.นครอินทร์ กม.22+436	13.87880227	100.4509168	drr	working	2022-09-09T00:00:00	11:00:00	12:00:00	42	76	3362	2700	1.25
1548	ถ.ราชพฤกษ์ -> ถ.นครอินทร์ กม.22+436	13.87880227	100.4509168	drr	working	2022-09-09T00:00:00	12:00:00	13:00:00	44	57	2934	2700	1.09
1549	ถ.ราชพฤกษ์ -> ถ.นครอินทร์ กม.22+436	13.87880227	100.4509168	drr	working	2022-09-09T00:00:00	13:00:00	14:00:00	38	83	3788	2700	1.40
1550	ถ.ราชพฤกษ์ -> ถ.นครอินทร์ กม.22+436	13.87880227	100.4509168	drr	working	2022-09-09T00:00:00	14:00:00	15:00:00	42	86	3721	2700	1.38
1551	ถ.ราชพฤกษ์ -> ถ.นครอินทร์ กม.22+436	13.87880227	100.4509168	drr	working	2022-09-09T00:00:00	15:00:00	16:00:00	41	85	3819	2700	1.41
1552	ถ.ราชพฤกษ์ -> ถ.นครอินทร์ กม.22+436	13.87880227	100.4509168	drr	working	2022-09-09T00:00:00	16:00:00	17:00:00	46	80	4430	2700	1.64
1553	ถ.ราชพฤกษ์ -> ถ.นครอินทร์ กม.22+436	13.87880227	100.4509168	drr	working	2022-09-09T00:00:00	17:00:00	18:00:00	45	86	3344	2700	1.24
1554	ถ.ราชพฤกษ์ -> ถ.นครอินทร์ กม.22+436	13.87880227	100.4509168	drr	working	2022-09-09T00:00:00	18:00:00	19:00:00	50	92	4062	2700	1.50
1555	ถ.ราชพฤกษ์ -> ถ.นครอินทร์ กม.22+436	13.87876932	100.4509192	drr	working	2022-05-09T00:00:00	5:00:00	6:00:00	42	67	1708	2700	0.63
1556	ถ.ราชพฤกษ์ -> ถ.นครอินทร์ กม.22+436	13.87876932	100.4509192	drr	working	2022-05-09T00:00:00	6:00:00	7:00:00	30	201	5519	2700	2.04
1557	ถ.ราชพฤกษ์ -> ถ.นครอินทร์ กม.22+436	13.87876932	100.4509192	drr	working	2022-05-09T00:00:00	7:00:00	8:00:00	10	201	3539	2700	1.31
1558	ถ.ราชพฤกษ์ -> ถ.นครอินทร์ กม.22+436	13.87876932	100.4509192	drr	working	2022-05-09T00:00:00	8:00:00	9:00:00	14	202	5196	2700	1.92
1559	ถ.ราชพฤกษ์ -> ถ.นครอินทร์ กม.22+436	13.87876932	100.4509192	drr	working	2022-05-09T00:00:00	9:00:00	10:00:00	12	202	5040	2700	1.87
1560	ถ.ราชพฤกษ์ -> ถ.นครอินทร์ กม.22+436	13.87876932	100.4509192	drr	working	2022-05-09T00:00:00	10:00:00	11:00:00	13	201	5070	2700	1.88
1561	ถ.ราชพฤกษ์ -> ถ.นครอินทร์ กม.22+436	13.87876932	100.4509192	drr	working	2022-05-09T00:00:00	11:00:00	12:00:00	28	201	3475	2700	1.29
1562	ถ.ราชพฤกษ์ -> ถ.นครอินทร์ กม.22+436	13.87876932	100.4509192	drr	working	2022-05-09T00:00:00	12:00:00	13:00:00	26	201	2786	2700	1.03
1563	ถ.ราชพฤกษ์ -> ถ.นครอินทร์ กม.22+436	13.87876932	100.4509192	drr	working	2022-05-09T00:00:00	13:00:00	14:00:00	10	201	5136	2700	1.90
1564	ถ.ราชพฤกษ์ -> ถ.นครอินทร์ กม.22+436	13.87876932	100.4509192	drr	working	2022-05-09T00:00:00	14:00:00	15:00:00	11	202	5090	2700	1.89
1565	ถ.ราชพฤกษ์ -> ถ.นครอินทร์ กม.22+436	13.87876932	100.4509192	drr	working	2022-05-09T00:00:00	15:00:00	16:00:00	11	201	5147	2700	1.91
1566	ถ.ราชพฤกษ์ -> ถ.นครอินทร์ กม.22+436	13.87876932	100.4509192	drr	working	2022-05-09T00:00:00	16:00:00	17:00:00	38	160	3348	2700	1.24
1567	ถ.ราชพฤกษ์ -> ถ.นครอินทร์ กม.22+436	13.87876932	100.4509192	drr	working	2022-05-09T00:00:00	17:00:00	18:00:00	37	100	2817	2700	1.04
1568	ถ.ราชพฤกษ์ -> ถ.นครอินทร์ กม.22+436	13.87876932	100.4509192	drr	working	2022-05-09T00:00:00	18:00:00	19:00:00	38	155	3930	2700	1.46
1569	ถ.ราชพฤกษ์ -> ถ.นครอินทร์ กม.22+436	13.87876932	100.4509192	drr	working	2022-06-09T00:00:00	5:00:00	6:00:00	54	43	1268	2700	0.47
1570	ถ.ราชพฤกษ์ -> ถ.นครอินทร์ กม.22+436	13.87876932	100.4509192	drr	working	2022-06-09T00:00:00	6:00:00	7:00:00	39	137	3657	2700	1.35
1571	ถ.ราชพฤกษ์ -> ถ.นครอินทร์ กม.22+436	13.87876932	100.4509192	drr	working	2022-06-09T00:00:00	7:00:00	8:00:00	37	182	3768	2700	1.40
1572	ถ.ราชพฤกษ์ -> ถ.นครอินทร์ กม.22+436	13.87876932	100.4509192	drr	working	2022-06-09T00:00:00	8:00:00	9:00:00	35	189	5210	2700	1.93
1573	ถ.ราชพฤกษ์ -> ถ.นครอินทร์ กม.22+436	13.87876932	100.4509192	drr	working	2022-06-09T00:00:00	9:00:00	10:00:00	31	185	5133	2700	1.90
1574	ถ.ราชพฤกษ์ -> ถ.นครอินทร์ กม.22+436	13.87876932	100.4509192	drr	working	2022-06-09T00:00:00	10:00:00	11:00:00	33	188	5092	2700	1.89
1575	ถ.ราชพฤกษ์ -> ถ.นครอินทร์ กม.22+436	13.87876932	100.4509192	drr	working	2022-06-09T00:00:00	11:00:00	12:00:00	44	139	2575	2700	0.95
1576	ถ.ราชพฤกษ์ -> ถ.นครอินทร์ กม.22+436	13.87876932	100.4509192	drr	working	2022-06-09T00:00:00	12:00:00	13:00:00	45	148	3494	2700	1.29
1577	ถ.ราชพฤกษ์ -> ถ.นครอินทร์ กม.22+436	13.87876932	100.4509192	drr	working	2022-06-09T00:00:00	13:00:00	14:00:00	31	185	5132	2700	1.90
1578	ถ.ราชพฤกษ์ -> ถ.นครอินทร์ กม.22+436	13.87876932	100.4509192	drr	working	2022-06-09T00:00:00	14:00:00	15:00:00	31	188	5078	2700	1.88
1579	ถ.ราชพฤกษ์ -> ถ.นครอินทร์ กม.22+436	13.87876932	100.4509192	drr	working	2022-06-09T00:00:00	15:00:00	16:00:00	34	184	5157	2700	1.91
1580	ถ.ราชพฤกษ์ -> ถ.นครอินทร์ กม.22+436	13.87876932	100.4509192	drr	working	2022-06-09T00:00:00	16:00:00	17:00:00	29	187	3491	2700	1.29
1581	ถ.ราชพฤกษ์ -> ถ.นครอินทร์ กม.22+436	13.87876932	100.4509192	drr	working	2022-06-09T00:00:00	17:00:00	18:00:00	30	199	3186	2700	1.18
1582	ถ.ราชพฤกษ์ -> ถ.นครอินทร์ กม.22+436	13.87876932	100.4509192	drr	working	2022-06-09T00:00:00	18:00:00	19:00:00	35	199	3936	2700	1.46
1583	ถ.ราชพฤกษ์ -> ถ.นครอินทร์ กม.22+436	13.87876932	100.4509192	drr	working	2022-07-09T00:00:00	5:00:00	6:00:00	50	62	1673	2700	0.62
1584	ถ.ราชพฤกษ์ -> ถ.นครอินทร์ กม.22+436	13.87876932	100.4509192	drr	working	2022-07-09T00:00:00	6:00:00	7:00:00	36	196	5475	2700	2.03
1585	ถ.ราชพฤกษ์ -> ถ.นครอินทร์ กม.22+436	13.87876932	100.4509192	drr	working	2022-07-09T00:00:00	7:00:00	8:00:00	25	202	4481	2700	1.66
1586	ถ.ราชพฤกษ์ -> ถ.นครอินทร์ กม.22+436	13.87876932	100.4509192	drr	working	2022-07-09T00:00:00	8:00:00	9:00:00	27	201	3763	2700	1.39
1587	ถ.ราชพฤกษ์ -> ถ.นครอินทร์ กม.22+436	13.87876932	100.4509192	drr	working	2022-07-09T00:00:00	9:00:00	10:00:00	23	202	3734	2700	1.38
1588	ถ.ราชพฤกษ์ -> ถ.นครอินทร์ กม.22+436	13.87876932	100.4509192	drr	working	2022-07-09T00:00:00	10:00:00	11:00:00	23	201	3687	2700	1.37
1589	ถ.ราชพฤกษ์ -> ถ.นครอินทร์ กม.22+436	13.87876932	100.4509192	drr	working	2022-07-09T00:00:00	11:00:00	12:00:00	45	201	4061	2700	1.50
1590	ถ.ราชพฤกษ์ -> ถ.นครอินทร์ กม.22+436	13.87876932	100.4509192	drr	working	2022-07-09T00:00:00	12:00:00	13:00:00	48	136	2784	2700	1.03
1591	ถ.ราชพฤกษ์ -> ถ.นครอินทร์ กม.22+436	13.87876932	100.4509192	drr	working	2022-07-09T00:00:00	13:00:00	14:00:00	25	201	3627	2700	1.34
1592	ถ.ราชพฤกษ์ -> ถ.นครอินทร์ กม.22+436	13.87876932	100.4509192	drr	working	2022-07-09T00:00:00	14:00:00	15:00:00	25	201	3619	2700	1.34
1593	ถ.ราชพฤกษ์ -> ถ.นครอินทร์ กม.22+436	13.87876932	100.4509192	drr	working	2022-07-09T00:00:00	15:00:00	16:00:00	24	202	3688	2700	1.37
1594	ถ.ราชพฤกษ์ -> ถ.นครอินทร์ กม.22+436	13.87876932	100.4509192	drr	working	2022-07-09T00:00:00	16:00:00	17:00:00	48	169	3526	2700	1.31
1595	ถ.ราชพฤกษ์ -> ถ.นครอินทร์ กม.22+436	13.87876932	100.4509192	drr	working	2022-07-09T00:00:00	17:00:00	18:00:00	41	157	4084	2700	1.51
1596	ถ.ราชพฤกษ์ -> ถ.นครอินทร์ กม.22+436	13.87876932	100.4509192	drr	working	2022-07-09T00:00:00	18:00:00	19:00:00	35	138	3563	2700	1.32
1597	ถ.ราชพฤกษ์ -> ถ.นครอินทร์ กม.22+436	13.87876932	100.4509192	drr	working	2022-08-09T00:00:00	5:00:00	6:00:00	60	51	1452	2700	0.54
1598	ถ.ราชพฤกษ์ -> ถ.นครอินทร์ กม.22+436	13.87876932	100.4509192	drr	working	2022-08-09T00:00:00	6:00:00	7:00:00	42	148	4285	2700	1.59
1599	ถ.ราชพฤกษ์ -> ถ.นครอินทร์ กม.22+436	13.87876932	100.4509192	drr	working	2022-08-09T00:00:00	7:00:00	8:00:00	20	201	4864	2700	1.80
1600	ถ.ราชพฤกษ์ -> ถ.นครอินทร์ กม.22+436	13.87876932	100.4509192	drr	working	2022-08-09T00:00:00	8:00:00	9:00:00	41	144	3342	2700	1.24
1601	ถ.ราชพฤกษ์ -> ถ.นครอินทร์ กม.22+436	13.87876932	100.4509192	drr	working	2022-08-09T00:00:00	9:00:00	10:00:00	38	140	3308	2700	1.23
1602	ถ.ราชพฤกษ์ -> ถ.นครอินทร์ กม.22+436	13.87876932	100.4509192	drr	working	2022-08-09T00:00:00	10:00:00	11:00:00	36	139	3258	2700	1.21
1603	ถ.ราชพฤกษ์ -> ถ.นครอินทร์ กม.22+436	13.87876932	100.4509192	drr	working	2022-08-09T00:00:00	11:00:00	12:00:00	39	142	3695	2700	1.37
1604	ถ.ราชพฤกษ์ -> ถ.นครอินทร์ กม.22+436	13.87876932	100.4509192	drr	working	2022-08-09T00:00:00	12:00:00	13:00:00	32	201	3851	2700	1.43
1605	ถ.ราชพฤกษ์ -> ถ.นครอินทร์ กม.22+436	13.87876932	100.4509192	drr	working	2022-08-09T00:00:00	13:00:00	14:00:00	38	144	3249	2700	1.20
1606	ถ.ราชพฤกษ์ -> ถ.นครอินทร์ กม.22+436	13.87876932	100.4509192	drr	working	2022-08-09T00:00:00	14:00:00	15:00:00	38	141	3229	2700	1.20
1607	ถ.ราชพฤกษ์ -> ถ.นครอินทร์ กม.22+436	13.87876932	100.4509192	drr	working	2022-08-09T00:00:00	15:00:00	16:00:00	38	143	3212	2700	1.19
1608	ถ.ราชพฤกษ์ -> ถ.นครอินทร์ กม.22+436	13.87876932	100.4509192	drr	working	2022-08-09T00:00:00	16:00:00	17:00:00	32	128	3556	2700	1.32
1609	ถ.ราชพฤกษ์ -> ถ.นครอินทร์ กม.22+436	13.87876932	100.4509192	drr	working	2022-08-09T00:00:00	17:00:00	18:00:00	33	201	4836	2700	1.79
1610	ถ.ราชพฤกษ์ -> ถ.นครอินทร์ กม.22+436	13.87876932	100.4509192	drr	working	2022-08-09T00:00:00	18:00:00	19:00:00	36	156	3722	2700	1.38
1611	ถ.ราชพฤกษ์ -> ถ.นครอินทร์ กม.22+436	13.87876932	100.4509192	drr	working	2022-09-09T00:00:00	5:00:00	6:00:00	54	49	1155	2700	0.43
1612	ถ.ราชพฤกษ์ -> ถ.นครอินทร์ กม.22+436	13.87876932	100.4509192	drr	working	2022-09-09T00:00:00	6:00:00	7:00:00	38	139	3722	2700	1.38
1613	ถ.ราชพฤกษ์ -> ถ.นครอินทร์ กม.22+436	13.87876932	100.4509192	drr	working	2022-09-09T00:00:00	7:00:00	8:00:00	34	172	3908	2700	1.45
1614	ถ.ราชพฤกษ์ -> ถ.นครอินทร์ กม.22+436	13.87876932	100.4509192	drr	working	2022-09-09T00:00:00	8:00:00	9:00:00	42	151	3041	2700	1.13
1615	ถ.ราชพฤกษ์ -> ถ.นครอินทร์ กม.22+436	13.87876932	100.4509192	drr	working	2022-09-09T00:00:00	9:00:00	10:00:00	39	149	2888	2700	1.07
1616	ถ.ราชพฤกษ์ -> ถ.นครอินทร์ กม.22+436	13.87876932	100.4509192	drr	working	2022-09-09T00:00:00	10:00:00	11:00:00	37	150	3003	2700	1.11
1617	ถ.ราชพฤกษ์ -> ถ.นครอินทร์ กม.22+436	13.87876932	100.4509192	drr	working	2022-09-09T00:00:00	11:00:00	12:00:00	40	123	2598	2700	0.96
1618	ถ.ราชพฤกษ์ -> ถ.นครอินทร์ กม.22+436	13.87876932	100.4509192	drr	working	2022-09-09T00:00:00	12:00:00	13:00:00	43	171	3565	2700	1.32
1619	ถ.ราชพฤกษ์ -> ถ.นครอินทร์ กม.22+436	13.87876932	100.4509192	drr	working	2022-09-09T00:00:00	13:00:00	14:00:00	37	147	2888	2700	1.07
1620	ถ.ราชพฤกษ์ -> ถ.นครอินทร์ กม.22+436	13.87876932	100.4509192	drr	working	2022-09-09T00:00:00	14:00:00	15:00:00	37	150	2964	2700	1.10
1621	ถ.ราชพฤกษ์ -> ถ.นครอินทร์ กม.22+436	13.87876932	100.4509192	drr	working	2022-09-09T00:00:00	15:00:00	16:00:00	37	147	2883	2700	1.07
1622	ถ.ราชพฤกษ์ -> ถ.นครอินทร์ กม.22+436	13.87876932	100.4509192	drr	working	2022-09-09T00:00:00	16:00:00	17:00:00	53	135	3390	2700	1.26
1623	ถ.ราชพฤกษ์ -> ถ.นครอินทร์ กม.22+436	13.87876932	100.4509192	drr	working	2022-09-09T00:00:00	17:00:00	18:00:00	40	129	4066	2700	1.51
1624	ถ.ราชพฤกษ์ -> ถ.นครอินทร์ กม.22+436	13.87876932	100.4509192	drr	working	2022-09-09T00:00:00	18:00:00	19:00:00	36	119	3187	2700	1.18
1625	ถ.ราชพฤกษ์ -> ถ.นครอินทร์  กม.21+835	13.87337545	100.45138	drr	working	2022-05-09T00:00:00	5:00:00	6:00:00	51	44	1068	2700	0.40
1626	ถ.ราชพฤกษ์ -> ถ.นครอินทร์  กม.21+835	13.87337545	100.45138	drr	working	2022-05-09T00:00:00	6:00:00	7:00:00	36	146	3098	2700	1.15
1627	ถ.ราชพฤกษ์ -> ถ.นครอินทร์  กม.21+835	13.87337545	100.45138	drr	working	2022-05-09T00:00:00	7:00:00	8:00:00	37	135	3321	2700	1.23
1628	ถ.ราชพฤกษ์ -> ถ.นครอินทร์  กม.21+835	13.87337545	100.45138	drr	working	2022-05-09T00:00:00	8:00:00	9:00:00	29	201	5110	2700	1.89
1629	ถ.ราชพฤกษ์ -> ถ.นครอินทร์  กม.21+835	13.87337545	100.45138	drr	working	2022-05-09T00:00:00	9:00:00	10:00:00	26	201	4978	2700	1.84
1630	ถ.ราชพฤกษ์ -> ถ.นครอินทร์  กม.21+835	13.87337545	100.45138	drr	working	2022-05-09T00:00:00	10:00:00	11:00:00	27	201	5061	2700	1.87
1631	ถ.ราชพฤกษ์ -> ถ.นครอินทร์  กม.21+835	13.87337545	100.45138	drr	working	2022-05-09T00:00:00	11:00:00	12:00:00	46	139	2035	2700	0.75
1632	ถ.ราชพฤกษ์ -> ถ.นครอินทร์  กม.21+835	13.87337545	100.45138	drr	working	2022-05-09T00:00:00	12:00:00	13:00:00	48	186	2263	2700	0.84
1633	ถ.ราชพฤกษ์ -> ถ.นครอินทร์  กม.21+835	13.87337545	100.45138	drr	working	2022-05-09T00:00:00	13:00:00	14:00:00	25	202	5067	2700	1.88
1634	ถ.ราชพฤกษ์ -> ถ.นครอินทร์  กม.21+835	13.87337545	100.45138	drr	working	2022-05-09T00:00:00	14:00:00	15:00:00	26	201	4949	2700	1.83
1635	ถ.ราชพฤกษ์ -> ถ.นครอินทร์  กม.21+835	13.87337545	100.45138	drr	working	2022-05-09T00:00:00	15:00:00	16:00:00	28	202	5022	2700	1.86
1636	ถ.ราชพฤกษ์ -> ถ.นครอินทร์  กม.21+835	13.87337545	100.45138	drr	working	2022-05-09T00:00:00	16:00:00	17:00:00	51	202	4605	2700	1.71
1637	ถ.ราชพฤกษ์ -> ถ.นครอินทร์  กม.21+835	13.87337545	100.45138	drr	working	2022-05-09T00:00:00	17:00:00	18:00:00	44	124	3295	2700	1.22
1638	ถ.ราชพฤกษ์ -> ถ.นครอินทร์  กม.21+835	13.87337545	100.45138	drr	working	2022-05-09T00:00:00	18:00:00	19:00:00	56	153	4065	2700	1.51
1639	ถ.ราชพฤกษ์ -> ถ.นครอินทร์  กม.21+835	13.87337545	100.45138	drr	working	2022-06-09T00:00:00	5:00:00	6:00:00	86	32	840	2700	0.31
1640	ถ.ราชพฤกษ์ -> ถ.นครอินทร์  กม.21+835	13.87337545	100.45138	drr	working	2022-06-09T00:00:00	6:00:00	7:00:00	61	98	2378	2700	0.88
1641	ถ.ราชพฤกษ์ -> ถ.นครอินทร์  กม.21+835	13.87337545	100.45138	drr	working	2022-06-09T00:00:00	7:00:00	8:00:00	55	130	1476	2700	0.55
1642	ถ.ราชพฤกษ์ -> ถ.นครอินทร์  กม.21+835	13.87337545	100.45138	drr	working	2022-06-09T00:00:00	8:00:00	9:00:00	49	126	2583	2700	0.96
1643	ถ.ราชพฤกษ์ -> ถ.นครอินทร์  กม.21+835	13.87337545	100.45138	drr	working	2022-06-09T00:00:00	9:00:00	10:00:00	45	124	2425	2700	0.90
1644	ถ.ราชพฤกษ์ -> ถ.นครอินทร์  กม.21+835	13.87337545	100.45138	drr	working	2022-06-09T00:00:00	10:00:00	11:00:00	46	123	2440	2700	0.90
1645	ถ.ราชพฤกษ์ -> ถ.นครอินทร์  กม.21+835	13.87337545	100.45138	drr	working	2022-06-09T00:00:00	11:00:00	12:00:00	53	167	3158	2700	1.17
1646	ถ.ราชพฤกษ์ -> ถ.นครอินทร์  กม.21+835	13.87337545	100.45138	drr	working	2022-06-09T00:00:00	12:00:00	13:00:00	58	104	1301	2700	0.48
1647	ถ.ราชพฤกษ์ -> ถ.นครอินทร์  กม.21+835	13.87337545	100.45138	drr	working	2022-06-09T00:00:00	13:00:00	14:00:00	46	123	2429	2700	0.90
1648	ถ.ราชพฤกษ์ -> ถ.นครอินทร์  กม.21+835	13.87337545	100.45138	drr	working	2022-06-09T00:00:00	14:00:00	15:00:00	45	120	2475	2700	0.92
1649	ถ.ราชพฤกษ์ -> ถ.นครอินทร์  กม.21+835	13.87337545	100.45138	drr	working	2022-06-09T00:00:00	15:00:00	16:00:00	46	123	2374	2700	0.88
1650	ถ.ราชพฤกษ์ -> ถ.นครอินทร์  กม.21+835	13.87337545	100.45138	drr	working	2022-06-09T00:00:00	16:00:00	17:00:00	28	202	4056	2700	1.50
1651	ถ.ราชพฤกษ์ -> ถ.นครอินทร์  กม.21+835	13.87337545	100.45138	drr	working	2022-06-09T00:00:00	17:00:00	18:00:00	36	128	2445	2700	0.91
1652	ถ.ราชพฤกษ์ -> ถ.นครอินทร์  กม.21+835	13.87337545	100.45138	drr	working	2022-06-09T00:00:00	18:00:00	19:00:00	33	201	3499	2700	1.30
1653	ถ.ราชพฤกษ์ -> ถ.นครอินทร์  กม.21+835	13.87337545	100.45138	drr	working	2022-07-09T00:00:00	5:00:00	6:00:00	47	35	935	2700	0.35
1654	ถ.ราชพฤกษ์ -> ถ.นครอินทร์  กม.21+835	13.87337545	100.45138	drr	working	2022-07-09T00:00:00	6:00:00	7:00:00	34	111	2763	2700	1.02
1655	ถ.ราชพฤกษ์ -> ถ.นครอินทร์  กม.21+835	13.87337545	100.45138	drr	working	2022-07-09T00:00:00	7:00:00	8:00:00	44	201	3627	2700	1.34
1656	ถ.ราชพฤกษ์ -> ถ.นครอินทร์  กม.21+835	13.87337545	100.45138	drr	working	2022-07-09T00:00:00	8:00:00	9:00:00	50	180	3678	2700	1.36
1657	ถ.ราชพฤกษ์ -> ถ.นครอินทร์  กม.21+835	13.87337545	100.45138	drr	working	2022-07-09T00:00:00	9:00:00	10:00:00	49	180	3586	2700	1.33
1658	ถ.ราชพฤกษ์ -> ถ.นครอินทร์  กม.21+835	13.87337545	100.45138	drr	working	2022-07-09T00:00:00	10:00:00	11:00:00	47	175	3609	2700	1.34
1659	ถ.ราชพฤกษ์ -> ถ.นครอินทร์  กม.21+835	13.87337545	100.45138	drr	working	2022-07-09T00:00:00	11:00:00	12:00:00	48	202	2637	2700	0.98
1660	ถ.ราชพฤกษ์ -> ถ.นครอินทร์  กม.21+835	13.87337545	100.45138	drr	working	2022-07-09T00:00:00	12:00:00	13:00:00	54	202	4048	2700	1.50
1661	ถ.ราชพฤกษ์ -> ถ.นครอินทร์  กม.21+835	13.87337545	100.45138	drr	working	2022-07-09T00:00:00	13:00:00	14:00:00	47	181	3645	2700	1.35
1662	ถ.ราชพฤกษ์ -> ถ.นครอินทร์  กม.21+835	13.87337545	100.45138	drr	working	2022-07-09T00:00:00	14:00:00	15:00:00	48	180	3659	2700	1.36
1663	ถ.ราชพฤกษ์ -> ถ.นครอินทร์  กม.21+835	13.87337545	100.45138	drr	working	2022-07-09T00:00:00	15:00:00	16:00:00	47	180	3618	2700	1.34
1664	ถ.ราชพฤกษ์ -> ถ.นครอินทร์  กม.21+835	13.87337545	100.45138	drr	working	2022-07-09T00:00:00	16:00:00	17:00:00	51	101	2411	2700	0.89
1665	ถ.ราชพฤกษ์ -> ถ.นครอินทร์  กม.21+835	13.87337545	100.45138	drr	working	2022-07-09T00:00:00	17:00:00	18:00:00	45	157	2949	2700	1.09
1666	ถ.ราชพฤกษ์ -> ถ.นครอินทร์  กม.21+835	13.87337545	100.45138	drr	working	2022-07-09T00:00:00	18:00:00	19:00:00	47	179	3887	2700	1.44
1667	ถ.ราชพฤกษ์ -> ถ.นครอินทร์  กม.21+835	13.87337545	100.45138	drr	working	2022-08-09T00:00:00	5:00:00	6:00:00	56	42	730	2700	0.27
1668	ถ.ราชพฤกษ์ -> ถ.นครอินทร์  กม.21+835	13.87337545	100.45138	drr	working	2022-08-09T00:00:00	6:00:00	7:00:00	40	119	2187	2700	0.81
1669	ถ.ราชพฤกษ์ -> ถ.นครอินทร์  กม.21+835	13.87337545	100.45138	drr	working	2022-08-09T00:00:00	7:00:00	8:00:00	39	176	2982	2700	1.10
1670	ถ.ราชพฤกษ์ -> ถ.นครอินทร์  กม.21+835	13.87337545	100.45138	drr	working	2022-08-09T00:00:00	8:00:00	9:00:00	53	160	2827	2700	1.05
1671	ถ.ราชพฤกษ์ -> ถ.นครอินทร์  กม.21+835	13.87337545	100.45138	drr	working	2022-08-09T00:00:00	9:00:00	10:00:00	51	158	2749	2700	1.02
1672	ถ.ราชพฤกษ์ -> ถ.นครอินทร์  กม.21+835	13.87337545	100.45138	drr	working	2022-08-09T00:00:00	10:00:00	11:00:00	51	159	2714	2700	1.01
1673	ถ.ราชพฤกษ์ -> ถ.นครอินทร์  กม.21+835	13.87337545	100.45138	drr	working	2022-08-09T00:00:00	11:00:00	12:00:00	54	162	3482	2700	1.29
1674	ถ.ราชพฤกษ์ -> ถ.นครอินทร์  กม.21+835	13.87337545	100.45138	drr	working	2022-08-09T00:00:00	12:00:00	13:00:00	43	201	4251	2700	1.57
1675	ถ.ราชพฤกษ์ -> ถ.นครอินทร์  กม.21+835	13.87337545	100.45138	drr	working	2022-08-09T00:00:00	13:00:00	14:00:00	50	161	2768	2700	1.03
1676	ถ.ราชพฤกษ์ -> ถ.นครอินทร์  กม.21+835	13.87337545	100.45138	drr	working	2022-08-09T00:00:00	14:00:00	15:00:00	52	159	2655	2700	0.98
1677	ถ.ราชพฤกษ์ -> ถ.นครอินทร์  กม.21+835	13.87337545	100.45138	drr	working	2022-08-09T00:00:00	15:00:00	16:00:00	49	159	2701	2700	1.00
1678	ถ.ราชพฤกษ์ -> ถ.นครอินทร์  กม.21+835	13.87337545	100.45138	drr	working	2022-08-09T00:00:00	16:00:00	17:00:00	39	199	4100	2700	1.52
1679	ถ.ราชพฤกษ์ -> ถ.นครอินทร์  กม.21+835	13.87337545	100.45138	drr	working	2022-08-09T00:00:00	17:00:00	18:00:00	32	202	3881	2700	1.44
1680	ถ.ราชพฤกษ์ -> ถ.นครอินทร์  กม.21+835	13.87337545	100.45138	drr	working	2022-08-09T00:00:00	18:00:00	19:00:00	28	145	2590	2700	0.96
1681	ถ.ราชพฤกษ์ -> ถ.นครอินทร์  กม.21+835	13.87337545	100.45138	drr	working	2022-09-09T00:00:00	5:00:00	6:00:00	86	28	353	2700	0.13
1682	ถ.ราชพฤกษ์ -> ถ.นครอินทร์  กม.21+835	13.87337545	100.45138	drr	working	2022-09-09T00:00:00	6:00:00	7:00:00	62	87	1143	2700	0.42
1683	ถ.ราชพฤกษ์ -> ถ.นครอินทร์  กม.21+835	13.87337545	100.45138	drr	working	2022-09-09T00:00:00	7:00:00	8:00:00	55	163	2995	2700	1.11
1684	ถ.ราชพฤกษ์ -> ถ.นครอินทร์  กม.21+835	13.87337545	100.45138	drr	working	2022-09-09T00:00:00	8:00:00	9:00:00	58	165	3103	2700	1.15
1685	ถ.ราชพฤกษ์ -> ถ.นครอินทร์  กม.21+835	13.87337545	100.45138	drr	working	2022-09-09T00:00:00	9:00:00	10:00:00	56	163	3075	2700	1.14
1686	ถ.ราชพฤกษ์ -> ถ.นครอินทร์  กม.21+835	13.87337545	100.45138	drr	working	2022-09-09T00:00:00	10:00:00	11:00:00	57	162	3061	2700	1.13
1687	ถ.ราชพฤกษ์ -> ถ.นครอินทร์  กม.21+835	13.87337545	100.45138	drr	working	2022-09-09T00:00:00	11:00:00	12:00:00	32	148	2942	2700	1.09
1688	ถ.ราชพฤกษ์ -> ถ.นครอินทร์  กม.21+835	13.87337545	100.45138	drr	working	2022-09-09T00:00:00	12:00:00	13:00:00	51	201	2063	2700	0.76
1689	ถ.ราชพฤกษ์ -> ถ.นครอินทร์  กม.21+835	13.87337545	100.45138	drr	working	2022-09-09T00:00:00	13:00:00	14:00:00	57	160	3047	2700	1.13
1690	ถ.ราชพฤกษ์ -> ถ.นครอินทร์  กม.21+835	13.87337545	100.45138	drr	working	2022-09-09T00:00:00	14:00:00	15:00:00	56	164	2979	2700	1.10
1691	ถ.ราชพฤกษ์ -> ถ.นครอินทร์  กม.21+835	13.87337545	100.45138	drr	working	2022-09-09T00:00:00	15:00:00	16:00:00	53	165	3041	2700	1.13
1692	ถ.ราชพฤกษ์ -> ถ.นครอินทร์  กม.21+835	13.87337545	100.45138	drr	working	2022-09-09T00:00:00	16:00:00	17:00:00	56	202	5852	2700	2.17
1693	ถ.ราชพฤกษ์ -> ถ.นครอินทร์  กม.21+835	13.87337545	100.45138	drr	working	2022-09-09T00:00:00	17:00:00	18:00:00	49	176	3354	2700	1.24
1694	ถ.ราชพฤกษ์ -> ถ.นครอินทร์  กม.21+835	13.87337545	100.45138	drr	working	2022-09-09T00:00:00	18:00:00	19:00:00	45	202	4608	2700	1.71
1695	ถ.รัตนาธิเบศร์ ->  ถ.ราชพฤกษ์ กม.22+210	13.8765638	100.4511639	drr	working	2022-05-09T00:00:00	5:00:00	6:00:00	60	21	507	2700	0.19
1696	ถ.รัตนาธิเบศร์ ->  ถ.ราชพฤกษ์ กม.22+210	13.8765638	100.4511639	drr	working	2022-05-09T00:00:00	6:00:00	7:00:00	43	61	1665	2700	0.62
1697	ถ.รัตนาธิเบศร์ ->  ถ.ราชพฤกษ์ กม.22+210	13.8765638	100.4511639	drr	working	2022-05-09T00:00:00	7:00:00	8:00:00	29	201	3530	2700	1.31
1698	ถ.รัตนาธิเบศร์ ->  ถ.ราชพฤกษ์ กม.22+210	13.8765638	100.4511639	drr	working	2022-05-09T00:00:00	8:00:00	9:00:00	40	80	1160	2700	0.43
1699	ถ.รัตนาธิเบศร์ ->  ถ.ราชพฤกษ์ กม.22+210	13.8765638	100.4511639	drr	working	2022-05-09T00:00:00	9:00:00	10:00:00	36	80	1086	2700	0.40
1700	ถ.รัตนาธิเบศร์ ->  ถ.ราชพฤกษ์ กม.22+210	13.8765638	100.4511639	drr	working	2022-05-09T00:00:00	10:00:00	11:00:00	35	79	1027	2700	0.38
1701	ถ.รัตนาธิเบศร์ ->  ถ.ราชพฤกษ์ กม.22+210	13.8765638	100.4511639	drr	working	2022-05-09T00:00:00	11:00:00	12:00:00	47	50	1317	2700	0.49
1702	ถ.รัตนาธิเบศร์ ->  ถ.ราชพฤกษ์ กม.22+210	13.8765638	100.4511639	drr	working	2022-05-09T00:00:00	12:00:00	13:00:00	44	92	1688	2700	0.63
1703	ถ.รัตนาธิเบศร์ ->  ถ.ราชพฤกษ์ กม.22+210	13.8765638	100.4511639	drr	working	2022-05-09T00:00:00	13:00:00	14:00:00	35	75	1102	2700	0.41
1704	ถ.รัตนาธิเบศร์ ->  ถ.ราชพฤกษ์ กม.22+210	13.8765638	100.4511639	drr	working	2022-05-09T00:00:00	14:00:00	15:00:00	35	79	1087	2700	0.40
1705	ถ.รัตนาธิเบศร์ ->  ถ.ราชพฤกษ์ กม.22+210	13.8765638	100.4511639	drr	working	2022-05-09T00:00:00	15:00:00	16:00:00	38	79	1037	2700	0.38
1706	ถ.รัตนาธิเบศร์ ->  ถ.ราชพฤกษ์ กม.22+210	13.8765638	100.4511639	drr	working	2022-05-09T00:00:00	16:00:00	17:00:00	41	68	1848	2700	0.68
1707	ถ.รัตนาธิเบศร์ ->  ถ.ราชพฤกษ์ กม.22+210	13.8765638	100.4511639	drr	working	2022-05-09T00:00:00	17:00:00	18:00:00	46	82	3134	2700	1.16
1708	ถ.รัตนาธิเบศร์ ->  ถ.ราชพฤกษ์ กม.22+210	13.8765638	100.4511639	drr	working	2022-05-09T00:00:00	18:00:00	19:00:00	55	81	2415	2700	0.89
1709	ถ.รัตนาธิเบศร์ ->  ถ.ราชพฤกษ์ กม.22+210	13.8765638	100.4511639	drr	working	2022-06-09T00:00:00	5:00:00	6:00:00	64	23	775	2700	0.29
1710	ถ.รัตนาธิเบศร์ ->  ถ.ราชพฤกษ์ กม.22+210	13.8765638	100.4511639	drr	working	2022-06-09T00:00:00	6:00:00	7:00:00	45	70	2198	2700	0.81
1711	ถ.รัตนาธิเบศร์ ->  ถ.ราชพฤกษ์ กม.22+210	13.8765638	100.4511639	drr	working	2022-06-09T00:00:00	7:00:00	8:00:00	38	81	2937	2700	1.09
1712	ถ.รัตนาธิเบศร์ ->  ถ.ราชพฤกษ์ กม.22+210	13.8765638	100.4511639	drr	working	2022-06-09T00:00:00	8:00:00	9:00:00	34	45	1295	2700	0.48
1713	ถ.รัตนาธิเบศร์ ->  ถ.ราชพฤกษ์ กม.22+210	13.8765638	100.4511639	drr	working	2022-06-09T00:00:00	9:00:00	10:00:00	32	42	1250	2700	0.46
1714	ถ.รัตนาธิเบศร์ ->  ถ.ราชพฤกษ์ กม.22+210	13.8765638	100.4511639	drr	working	2022-06-09T00:00:00	10:00:00	11:00:00	31	40	1189	2700	0.44
1715	ถ.รัตนาธิเบศร์ ->  ถ.ราชพฤกษ์ กม.22+210	13.8765638	100.4511639	drr	working	2022-06-09T00:00:00	11:00:00	12:00:00	48	104	2572	2700	0.95
1716	ถ.รัตนาธิเบศร์ ->  ถ.ราชพฤกษ์ กม.22+210	13.8765638	100.4511639	drr	working	2022-06-09T00:00:00	12:00:00	13:00:00	45	89	1673	2700	0.62
1717	ถ.รัตนาธิเบศร์ ->  ถ.ราชพฤกษ์ กม.22+210	13.8765638	100.4511639	drr	working	2022-06-09T00:00:00	13:00:00	14:00:00	31	39	1144	2700	0.42
1718	ถ.รัตนาธิเบศร์ ->  ถ.ราชพฤกษ์ กม.22+210	13.8765638	100.4511639	drr	working	2022-06-09T00:00:00	14:00:00	15:00:00	29	43	1199	2700	0.44
1719	ถ.รัตนาธิเบศร์ ->  ถ.ราชพฤกษ์ กม.22+210	13.8765638	100.4511639	drr	working	2022-06-09T00:00:00	15:00:00	16:00:00	29	40	1170	2700	0.43
1720	ถ.รัตนาธิเบศร์ ->  ถ.ราชพฤกษ์ กม.22+210	13.8765638	100.4511639	drr	working	2022-06-09T00:00:00	16:00:00	17:00:00	56	118	2071	2700	0.77
1721	ถ.รัตนาธิเบศร์ ->  ถ.ราชพฤกษ์ กม.22+210	13.8765638	100.4511639	drr	working	2022-06-09T00:00:00	17:00:00	18:00:00	55	77	940	2700	0.35
1722	ถ.รัตนาธิเบศร์ ->  ถ.ราชพฤกษ์ กม.22+210	13.8765638	100.4511639	drr	working	2022-06-09T00:00:00	18:00:00	19:00:00	35	63	1474	2700	0.55
1723	ถ.รัตนาธิเบศร์ ->  ถ.ราชพฤกษ์ กม.22+210	13.8765638	100.4511639	drr	working	2022-07-09T00:00:00	5:00:00	6:00:00	51	36	844	2700	0.31
1724	ถ.รัตนาธิเบศร์ ->  ถ.ราชพฤกษ์ กม.22+210	13.8765638	100.4511639	drr	working	2022-07-09T00:00:00	6:00:00	7:00:00	36	103	2606	2700	0.97
1725	ถ.รัตนาธิเบศร์ ->  ถ.ราชพฤกษ์ กม.22+210	13.8765638	100.4511639	drr	working	2022-07-09T00:00:00	7:00:00	8:00:00	37	93	3206	2700	1.19
1726	ถ.รัตนาธิเบศร์ ->  ถ.ราชพฤกษ์ กม.22+210	13.8765638	100.4511639	drr	working	2022-07-09T00:00:00	8:00:00	9:00:00	26	201	2708	2700	1.00
1727	ถ.รัตนาธิเบศร์ ->  ถ.ราชพฤกษ์ กม.22+210	13.8765638	100.4511639	drr	working	2022-07-09T00:00:00	9:00:00	10:00:00	22	201	2601	2700	0.96
1728	ถ.รัตนาธิเบศร์ ->  ถ.ราชพฤกษ์ กม.22+210	13.8765638	100.4511639	drr	working	2022-07-09T00:00:00	10:00:00	11:00:00	21	201	2639	2700	0.98
1729	ถ.รัตนาธิเบศร์ ->  ถ.ราชพฤกษ์ กม.22+210	13.8765638	100.4511639	drr	working	2022-07-09T00:00:00	11:00:00	12:00:00	40	90	2439	2700	0.90
1730	ถ.รัตนาธิเบศร์ ->  ถ.ราชพฤกษ์ กม.22+210	13.8765638	100.4511639	drr	working	2022-07-09T00:00:00	12:00:00	13:00:00	39	59	2214	2700	0.82
1731	ถ.รัตนาธิเบศร์ ->  ถ.ราชพฤกษ์ กม.22+210	13.8765638	100.4511639	drr	working	2022-07-09T00:00:00	13:00:00	14:00:00	22	202	2587	2700	0.96
1732	ถ.รัตนาธิเบศร์ ->  ถ.ราชพฤกษ์ กม.22+210	13.8765638	100.4511639	drr	working	2022-07-09T00:00:00	14:00:00	15:00:00	25	202	2587	2700	0.96
1733	ถ.รัตนาธิเบศร์ ->  ถ.ราชพฤกษ์ กม.22+210	13.8765638	100.4511639	drr	working	2022-07-09T00:00:00	15:00:00	16:00:00	22	202	2554	2700	0.95
1734	ถ.รัตนาธิเบศร์ ->  ถ.ราชพฤกษ์ กม.22+210	13.8765638	100.4511639	drr	working	2022-07-09T00:00:00	16:00:00	17:00:00	41	66	2591	2700	0.96
1735	ถ.รัตนาธิเบศร์ ->  ถ.ราชพฤกษ์ กม.22+210	13.8765638	100.4511639	drr	working	2022-07-09T00:00:00	17:00:00	18:00:00	40	62	2945	2700	1.09
1736	ถ.รัตนาธิเบศร์ ->  ถ.ราชพฤกษ์ กม.22+210	13.8765638	100.4511639	drr	working	2022-07-09T00:00:00	18:00:00	19:00:00	42	57	2951	2700	1.09
1737	ถ.รัตนาธิเบศร์ ->  ถ.ราชพฤกษ์ กม.22+210	13.8765638	100.4511639	drr	working	2022-08-09T00:00:00	5:00:00	6:00:00	57	49	1128	2700	0.42
1738	ถ.รัตนาธิเบศร์ ->  ถ.ราชพฤกษ์ กม.22+210	13.8765638	100.4511639	drr	working	2022-08-09T00:00:00	6:00:00	7:00:00	40	147	3713	2700	1.38
1739	ถ.รัตนาธิเบศร์ ->  ถ.ราชพฤกษ์ กม.22+210	13.8765638	100.4511639	drr	working	2022-08-09T00:00:00	7:00:00	8:00:00	38	65	2235	2700	0.83
1740	ถ.รัตนาธิเบศร์ ->  ถ.ราชพฤกษ์ กม.22+210	13.8765638	100.4511639	drr	working	2022-08-09T00:00:00	8:00:00	9:00:00	39	68	797	2700	0.30
1741	ถ.รัตนาธิเบศร์ ->  ถ.ราชพฤกษ์ กม.22+210	13.8765638	100.4511639	drr	working	2022-08-09T00:00:00	9:00:00	10:00:00	38	66	741	2700	0.27
1742	ถ.รัตนาธิเบศร์ ->  ถ.ราชพฤกษ์ กม.22+210	13.8765638	100.4511639	drr	working	2022-08-09T00:00:00	10:00:00	11:00:00	38	63	682	2700	0.25
1743	ถ.รัตนาธิเบศร์ ->  ถ.ราชพฤกษ์ กม.22+210	13.8765638	100.4511639	drr	working	2022-08-09T00:00:00	11:00:00	12:00:00	35	94	2076	2700	0.77
1744	ถ.รัตนาธิเบศร์ ->  ถ.ราชพฤกษ์ กม.22+210	13.8765638	100.4511639	drr	working	2022-08-09T00:00:00	12:00:00	13:00:00	45	62	2035	2700	0.75
1745	ถ.รัตนาธิเบศร์ ->  ถ.ราชพฤกษ์ กม.22+210	13.8765638	100.4511639	drr	working	2022-08-09T00:00:00	13:00:00	14:00:00	38	65	779	2700	0.29
1746	ถ.รัตนาธิเบศร์ ->  ถ.ราชพฤกษ์ กม.22+210	13.8765638	100.4511639	drr	working	2022-08-09T00:00:00	14:00:00	15:00:00	36	65	655	2700	0.24
1747	ถ.รัตนาธิเบศร์ ->  ถ.ราชพฤกษ์ กม.22+210	13.8765638	100.4511639	drr	working	2022-08-09T00:00:00	15:00:00	16:00:00	35	66	713	2700	0.26
1748	ถ.รัตนาธิเบศร์ ->  ถ.ราชพฤกษ์ กม.22+210	13.8765638	100.4511639	drr	working	2022-08-09T00:00:00	16:00:00	17:00:00	36	46	1119	2700	0.41
1749	ถ.รัตนาธิเบศร์ ->  ถ.ราชพฤกษ์ กม.22+210	13.8765638	100.4511639	drr	working	2022-08-09T00:00:00	17:00:00	18:00:00	49	87	2585	2700	0.96
1750	ถ.รัตนาธิเบศร์ ->  ถ.ราชพฤกษ์ กม.22+210	13.8765638	100.4511639	drr	working	2022-08-09T00:00:00	18:00:00	19:00:00	35	43	964	2700	0.36
1751	ถ.รัตนาธิเบศร์ ->  ถ.ราชพฤกษ์ กม.22+210	13.8765638	100.4511639	drr	working	2022-09-09T00:00:00	5:00:00	6:00:00	49	21	897	2700	0.33
1752	ถ.รัตนาธิเบศร์ ->  ถ.ราชพฤกษ์ กม.22+210	13.8765638	100.4511639	drr	working	2022-09-09T00:00:00	6:00:00	7:00:00	35	68	2763	2700	1.02
1753	ถ.รัตนาธิเบศร์ ->  ถ.ราชพฤกษ์ กม.22+210	13.8765638	100.4511639	drr	working	2022-09-09T00:00:00	7:00:00	8:00:00	35	93	2602	2700	0.96
1754	ถ.รัตนาธิเบศร์ ->  ถ.ราชพฤกษ์ กม.22+210	13.8765638	100.4511639	drr	working	2022-09-09T00:00:00	8:00:00	9:00:00	52	81	2395	2700	0.89
1755	ถ.รัตนาธิเบศร์ ->  ถ.ราชพฤกษ์ กม.22+210	13.8765638	100.4511639	drr	working	2022-09-09T00:00:00	9:00:00	10:00:00	48	78	2362	2700	0.87
1756	ถ.รัตนาธิเบศร์ ->  ถ.ราชพฤกษ์ กม.22+210	13.8765638	100.4511639	drr	working	2022-09-09T00:00:00	10:00:00	11:00:00	47	78	2291	2700	0.85
1757	ถ.รัตนาธิเบศร์ ->  ถ.ราชพฤกษ์ กม.22+210	13.8765638	100.4511639	drr	working	2022-09-09T00:00:00	11:00:00	12:00:00	55	94	2049	2700	0.76
1758	ถ.รัตนาธิเบศร์ ->  ถ.ราชพฤกษ์ กม.22+210	13.8765638	100.4511639	drr	working	2022-09-09T00:00:00	12:00:00	13:00:00	51	92	3284	2700	1.22
1759	ถ.รัตนาธิเบศร์ ->  ถ.ราชพฤกษ์ กม.22+210	13.8765638	100.4511639	drr	working	2022-09-09T00:00:00	13:00:00	14:00:00	48	77	2343	2700	0.87
1760	ถ.รัตนาธิเบศร์ ->  ถ.ราชพฤกษ์ กม.22+210	13.8765638	100.4511639	drr	working	2022-09-09T00:00:00	14:00:00	15:00:00	50	80	2389	2700	0.88
1761	ถ.รัตนาธิเบศร์ ->  ถ.ราชพฤกษ์ กม.22+210	13.8765638	100.4511639	drr	working	2022-09-09T00:00:00	15:00:00	16:00:00	51	76	2432	2700	0.90
1762	ถ.รัตนาธิเบศร์ ->  ถ.ราชพฤกษ์ กม.22+210	13.8765638	100.4511639	drr	working	2022-09-09T00:00:00	16:00:00	17:00:00	43	66	1306	2700	0.48
1763	ถ.รัตนาธิเบศร์ ->  ถ.ราชพฤกษ์ กม.22+210	13.8765638	100.4511639	drr	working	2022-09-09T00:00:00	17:00:00	18:00:00	42	31	1109	2700	0.41
1764	ถ.รัตนาธิเบศร์ ->  ถ.ราชพฤกษ์ กม.22+210	13.8765638	100.4511639	drr	working	2022-09-09T00:00:00	18:00:00	19:00:00	43	90	1135	2700	0.42
1765	ถ.ราชพฤกษ์ -> ถ.กาญจนาภิเษก กม.22+345	13.87796782	100.4509814	drr	working	2022-05-09T00:00:00	5:00:00	6:00:00	69	10	196	1800	0.11
1766	ถ.ราชพฤกษ์ -> ถ.กาญจนาภิเษก กม.22+345	13.87796782	100.4509814	drr	working	2022-05-09T00:00:00	6:00:00	7:00:00	48	32	568	1800	0.32
1767	ถ.ราชพฤกษ์ -> ถ.กาญจนาภิเษก กม.22+345	13.87796782	100.4509814	drr	working	2022-05-09T00:00:00	7:00:00	8:00:00	35	40	423	1800	0.24
1768	ถ.ราชพฤกษ์ -> ถ.กาญจนาภิเษก กม.22+345	13.87796782	100.4509814	drr	working	2022-05-09T00:00:00	8:00:00	9:00:00	25	58	1562	1800	0.87
1769	ถ.ราชพฤกษ์ -> ถ.กาญจนาภิเษก กม.22+345	13.87796782	100.4509814	drr	working	2022-05-09T00:00:00	9:00:00	10:00:00	21	55	1440	1800	0.80
1770	ถ.ราชพฤกษ์ -> ถ.กาญจนาภิเษก กม.22+345	13.87796782	100.4509814	drr	working	2022-05-09T00:00:00	10:00:00	11:00:00	20	55	1553	1800	0.86
1771	ถ.ราชพฤกษ์ -> ถ.กาญจนาภิเษก กม.22+345	13.87796782	100.4509814	drr	working	2022-05-09T00:00:00	11:00:00	12:00:00	22	52	748	1800	0.42
1772	ถ.ราชพฤกษ์ -> ถ.กาญจนาภิเษก กม.22+345	13.87796782	100.4509814	drr	working	2022-05-09T00:00:00	12:00:00	13:00:00	47	32	389	1800	0.22
1773	ถ.ราชพฤกษ์ -> ถ.กาญจนาภิเษก กม.22+345	13.87796782	100.4509814	drr	working	2022-05-09T00:00:00	13:00:00	14:00:00	24	57	1460	1800	0.81
1774	ถ.ราชพฤกษ์ -> ถ.กาญจนาภิเษก กม.22+345	13.87796782	100.4509814	drr	working	2022-05-09T00:00:00	14:00:00	15:00:00	22	57	1365	1800	0.76
1775	ถ.ราชพฤกษ์ -> ถ.กาญจนาภิเษก กม.22+345	13.87796782	100.4509814	drr	working	2022-05-09T00:00:00	15:00:00	16:00:00	21	51	1429	1800	0.79
1776	ถ.ราชพฤกษ์ -> ถ.กาญจนาภิเษก กม.22+345	13.87796782	100.4509814	drr	working	2022-05-09T00:00:00	16:00:00	17:00:00	32	94	1030	1800	0.57
1777	ถ.ราชพฤกษ์ -> ถ.กาญจนาภิเษก กม.22+345	13.87796782	100.4509814	drr	working	2022-05-09T00:00:00	17:00:00	18:00:00	26	60	1873	1800	1.04
1778	ถ.ราชพฤกษ์ -> ถ.กาญจนาภิเษก กม.22+345	13.87796782	100.4509814	drr	working	2022-05-09T00:00:00	18:00:00	19:00:00	34	116	3031	1800	1.68
1779	ถ.ราชพฤกษ์ -> ถ.กาญจนาภิเษก กม.22+345	13.87796782	100.4509814	drr	working	2022-06-09T00:00:00	5:00:00	6:00:00	45	26	284	1800	0.16
1780	ถ.ราชพฤกษ์ -> ถ.กาญจนาภิเษก กม.22+345	13.87796782	100.4509814	drr	working	2022-06-09T00:00:00	6:00:00	7:00:00	32	77	781	1800	0.43
1781	ถ.ราชพฤกษ์ -> ถ.กาญจนาภิเษก กม.22+345	13.87796782	100.4509814	drr	working	2022-06-09T00:00:00	7:00:00	8:00:00	28	56	1172	1800	0.65
1782	ถ.ราชพฤกษ์ -> ถ.กาญจนาภิเษก กม.22+345	13.87796782	100.4509814	drr	working	2022-06-09T00:00:00	8:00:00	9:00:00	27	40	438	1800	0.24
1783	ถ.ราชพฤกษ์ -> ถ.กาญจนาภิเษก กม.22+345	13.87796782	100.4509814	drr	working	2022-06-09T00:00:00	9:00:00	10:00:00	24	38	253	1800	0.14
1784	ถ.ราชพฤกษ์ -> ถ.กาญจนาภิเษก กม.22+345	13.87796782	100.4509814	drr	working	2022-06-09T00:00:00	10:00:00	11:00:00	26	37	308	1800	0.17
1785	ถ.ราชพฤกษ์ -> ถ.กาญจนาภิเษก กม.22+345	13.87796782	100.4509814	drr	working	2022-06-09T00:00:00	11:00:00	12:00:00	24	43	1122	1800	0.62
1786	ถ.ราชพฤกษ์ -> ถ.กาญจนาภิเษก กม.22+345	13.87796782	100.4509814	drr	working	2022-06-09T00:00:00	12:00:00	13:00:00	29	32	994	1800	0.55
1787	ถ.ราชพฤกษ์ -> ถ.กาญจนาภิเษก กม.22+345	13.87796782	100.4509814	drr	working	2022-06-09T00:00:00	13:00:00	14:00:00	23	36	275	1800	0.15
1788	ถ.ราชพฤกษ์ -> ถ.กาญจนาภิเษก กม.22+345	13.87796782	100.4509814	drr	working	2022-06-09T00:00:00	14:00:00	15:00:00	24	34	293	1800	0.16
1789	ถ.ราชพฤกษ์ -> ถ.กาญจนาภิเษก กม.22+345	13.87796782	100.4509814	drr	working	2022-06-09T00:00:00	15:00:00	16:00:00	24	37	340	1800	0.19
1790	ถ.ราชพฤกษ์ -> ถ.กาญจนาภิเษก กม.22+345	13.87796782	100.4509814	drr	working	2022-06-09T00:00:00	16:00:00	17:00:00	23	68	1920	1800	1.07
1791	ถ.ราชพฤกษ์ -> ถ.กาญจนาภิเษก กม.22+345	13.87796782	100.4509814	drr	working	2022-06-09T00:00:00	17:00:00	18:00:00	20	42	1117	1800	0.62
1792	ถ.ราชพฤกษ์ -> ถ.กาญจนาภิเษก กม.22+345	13.87796782	100.4509814	drr	working	2022-06-09T00:00:00	18:00:00	19:00:00	34	116	1306	1800	0.73
1793	ถ.ราชพฤกษ์ -> ถ.กาญจนาภิเษก กม.22+345	13.87796782	100.4509814	drr	working	2022-07-09T00:00:00	5:00:00	6:00:00	43	23	323	1800	0.18
1794	ถ.ราชพฤกษ์ -> ถ.กาญจนาภิเษก กม.22+345	13.87796782	100.4509814	drr	working	2022-07-09T00:00:00	6:00:00	7:00:00	30	65	953	1800	0.53
1795	ถ.ราชพฤกษ์ -> ถ.กาญจนาภิเษก กม.22+345	13.87796782	100.4509814	drr	working	2022-07-09T00:00:00	7:00:00	8:00:00	28	48	1177	1800	0.65
1796	ถ.ราชพฤกษ์ -> ถ.กาญจนาภิเษก กม.22+345	13.87796782	100.4509814	drr	working	2022-07-09T00:00:00	8:00:00	9:00:00	38	55	418	1800	0.23
1797	ถ.ราชพฤกษ์ -> ถ.กาญจนาภิเษก กม.22+345	13.87796782	100.4509814	drr	working	2022-07-09T00:00:00	9:00:00	10:00:00	33	54	389	1800	0.22
1798	ถ.ราชพฤกษ์ -> ถ.กาญจนาภิเษก กม.22+345	13.87796782	100.4509814	drr	working	2022-07-09T00:00:00	10:00:00	11:00:00	37	52	390	1800	0.22
1799	ถ.ราชพฤกษ์ -> ถ.กาญจนาภิเษก กม.22+345	13.87796782	100.4509814	drr	working	2022-07-09T00:00:00	11:00:00	12:00:00	28	33	576	1800	0.32
1800	ถ.ราชพฤกษ์ -> ถ.กาญจนาภิเษก กม.22+345	13.87796782	100.4509814	drr	working	2022-07-09T00:00:00	12:00:00	13:00:00	26	58	1477	1800	0.82
1801	ถ.ราชพฤกษ์ -> ถ.กาญจนาภิเษก กม.22+345	13.87796782	100.4509814	drr	working	2022-07-09T00:00:00	13:00:00	14:00:00	37	53	277	1800	0.15
1802	ถ.ราชพฤกษ์ -> ถ.กาญจนาภิเษก กม.22+345	13.87796782	100.4509814	drr	working	2022-07-09T00:00:00	14:00:00	15:00:00	35	50	288	1800	0.16
1803	ถ.ราชพฤกษ์ -> ถ.กาญจนาภิเษก กม.22+345	13.87796782	100.4509814	drr	working	2022-07-09T00:00:00	15:00:00	16:00:00	34	52	370	1800	0.21
1804	ถ.ราชพฤกษ์ -> ถ.กาญจนาภิเษก กม.22+345	13.87796782	100.4509814	drr	working	2022-07-09T00:00:00	16:00:00	17:00:00	29	43	811	1800	0.45
1805	ถ.ราชพฤกษ์ -> ถ.กาญจนาภิเษก กม.22+345	13.87796782	100.4509814	drr	working	2022-07-09T00:00:00	17:00:00	18:00:00	29	60	1372	1800	0.76
1806	ถ.ราชพฤกษ์ -> ถ.กาญจนาภิเษก กม.22+345	13.87796782	100.4509814	drr	working	2022-07-09T00:00:00	18:00:00	19:00:00	21	82	1741	1800	0.97
1807	ถ.ราชพฤกษ์ -> ถ.กาญจนาภิเษก กม.22+345	13.87796782	100.4509814	drr	working	2022-08-09T00:00:00	5:00:00	6:00:00	42	22	302	1800	0.17
1808	ถ.ราชพฤกษ์ -> ถ.กาญจนาภิเษก กม.22+345	13.87796782	100.4509814	drr	working	2022-08-09T00:00:00	6:00:00	7:00:00	30	65	951	1800	0.53
1809	ถ.ราชพฤกษ์ -> ถ.กาญจนาภิเษก กม.22+345	13.87796782	100.4509814	drr	working	2022-08-09T00:00:00	7:00:00	8:00:00	22	32	418	1800	0.23
1810	ถ.ราชพฤกษ์ -> ถ.กาญจนาภิเษก กม.22+345	13.87796782	100.4509814	drr	working	2022-08-09T00:00:00	8:00:00	9:00:00	33	58	1368	1800	0.76
1811	ถ.ราชพฤกษ์ -> ถ.กาญจนาภิเษก กม.22+345	13.87796782	100.4509814	drr	working	2022-08-09T00:00:00	9:00:00	10:00:00	31	55	1248	1800	0.69
1812	ถ.ราชพฤกษ์ -> ถ.กาญจนาภิเษก กม.22+345	13.87796782	100.4509814	drr	working	2022-08-09T00:00:00	10:00:00	11:00:00	31	54	1251	1800	0.70
1813	ถ.ราชพฤกษ์ -> ถ.กาญจนาภิเษก กม.22+345	13.87796782	100.4509814	drr	working	2022-08-09T00:00:00	11:00:00	12:00:00	47	32	384	1800	0.21
1814	ถ.ราชพฤกษ์ -> ถ.กาญจนาภิเษก กม.22+345	13.87796782	100.4509814	drr	working	2022-08-09T00:00:00	12:00:00	13:00:00	26	49	1126	1800	0.63
1815	ถ.ราชพฤกษ์ -> ถ.กาญจนาภิเษก กม.22+345	13.87796782	100.4509814	drr	working	2022-08-09T00:00:00	13:00:00	14:00:00	32	57	1221	1800	0.68
1816	ถ.ราชพฤกษ์ -> ถ.กาญจนาภิเษก กม.22+345	13.87796782	100.4509814	drr	working	2022-08-09T00:00:00	14:00:00	15:00:00	31	53	1312	1800	0.73
1817	ถ.ราชพฤกษ์ -> ถ.กาญจนาภิเษก กม.22+345	13.87796782	100.4509814	drr	working	2022-08-09T00:00:00	15:00:00	16:00:00	32	57	1220	1800	0.68
1818	ถ.ราชพฤกษ์ -> ถ.กาญจนาภิเษก กม.22+345	13.87796782	100.4509814	drr	working	2022-08-09T00:00:00	16:00:00	17:00:00	20	39	957	1800	0.53
1819	ถ.ราชพฤกษ์ -> ถ.กาญจนาภิเษก กม.22+345	13.87796782	100.4509814	drr	working	2022-08-09T00:00:00	17:00:00	18:00:00	24	41	793	1800	0.44
1820	ถ.ราชพฤกษ์ -> ถ.กาญจนาภิเษก กม.22+345	13.87796782	100.4509814	drr	working	2022-08-09T00:00:00	18:00:00	19:00:00	21	32	756	1800	0.42
1821	ถ.ราชพฤกษ์ -> ถ.กาญจนาภิเษก กม.22+345	13.87796782	100.4509814	drr	working	2022-09-09T00:00:00	5:00:00	6:00:00	41	14	255	1800	0.14
1822	ถ.ราชพฤกษ์ -> ถ.กาญจนาภิเษก กม.22+345	13.87796782	100.4509814	drr	working	2022-09-09T00:00:00	6:00:00	7:00:00	30	43	777	1800	0.43
1823	ถ.ราชพฤกษ์ -> ถ.กาญจนาภิเษก กม.22+345	13.87796782	100.4509814	drr	working	2022-09-09T00:00:00	7:00:00	8:00:00	28	36	1340	1800	0.74
1824	ถ.ราชพฤกษ์ -> ถ.กาญจนาภิเษก กม.22+345	13.87796782	100.4509814	drr	working	2022-09-09T00:00:00	8:00:00	9:00:00	29	54	976	1800	0.54
1825	ถ.ราชพฤกษ์ -> ถ.กาญจนาภิเษก กม.22+345	13.87796782	100.4509814	drr	working	2022-09-09T00:00:00	9:00:00	10:00:00	27	50	944	1800	0.52
1826	ถ.ราชพฤกษ์ -> ถ.กาญจนาภิเษก กม.22+345	13.87796782	100.4509814	drr	working	2022-09-09T00:00:00	10:00:00	11:00:00	24	53	972	1800	0.54
1827	ถ.ราชพฤกษ์ -> ถ.กาญจนาภิเษก กม.22+345	13.87796782	100.4509814	drr	working	2022-09-09T00:00:00	11:00:00	12:00:00	28	32	381	1800	0.21
1828	ถ.ราชพฤกษ์ -> ถ.กาญจนาภิเษก กม.22+345	13.87796782	100.4509814	drr	working	2022-09-09T00:00:00	12:00:00	13:00:00	24	59	1860	1800	1.03
1829	ถ.ราชพฤกษ์ -> ถ.กาญจนาภิเษก กม.22+345	13.87796782	100.4509814	drr	working	2022-09-09T00:00:00	13:00:00	14:00:00	27	50	798	1800	0.44
1830	ถ.ราชพฤกษ์ -> ถ.กาญจนาภิเษก กม.22+345	13.87796782	100.4509814	drr	working	2022-09-09T00:00:00	14:00:00	15:00:00	27	51	876	1800	0.49
1831	ถ.ราชพฤกษ์ -> ถ.กาญจนาภิเษก กม.22+345	13.87796782	100.4509814	drr	working	2022-09-09T00:00:00	15:00:00	16:00:00	28	49	865	1800	0.48
1832	ถ.ราชพฤกษ์ -> ถ.กาญจนาภิเษก กม.22+345	13.87796782	100.4509814	drr	working	2022-09-09T00:00:00	16:00:00	17:00:00	22	77	1547	1800	0.86
1833	ถ.ราชพฤกษ์ -> ถ.กาญจนาภิเษก กม.22+345	13.87796782	100.4509814	drr	working	2022-09-09T00:00:00	17:00:00	18:00:00	24	41	1348	1800	0.75
1834	ถ.ราชพฤกษ์ -> ถ.กาญจนาภิเษก กม.22+345	13.87796782	100.4509814	drr	working	2022-09-09T00:00:00	18:00:00	19:00:00	39	66	1366	1800	0.76
1835	DS-255-02-01 ถ.ราชวิถี-ลงจากสะพานกรุงธน	13.77937437	100.5063515	bma	working	2022-05-09T00:00:00	5:00:00	6:00:00	92	8	1020	2700	0.38
1836	DS-255-02-01 ถ.ราชวิถี-ลงจากสะพานกรุงธน	13.77937437	100.5063515	bma	working	2022-05-09T00:00:00	6:00:00	7:00:00	65	24	3198	2700	1.18
1837	DS-255-02-01 ถ.ราชวิถี-ลงจากสะพานกรุงธน	13.77937437	100.5063515	bma	working	2022-05-09T00:00:00	7:00:00	8:00:00	55	49	3629	2700	1.34
1838	DS-255-02-01 ถ.ราชวิถี-ลงจากสะพานกรุงธน	13.77937437	100.5063515	bma	working	2022-05-09T00:00:00	8:00:00	9:00:00	54	35	3173	2700	1.18
1839	DS-255-02-01 ถ.ราชวิถี-ลงจากสะพานกรุงธน	13.77937437	100.5063515	bma	working	2022-05-09T00:00:00	9:00:00	10:00:00	49	32	2985	2700	1.11
1840	DS-255-02-01 ถ.ราชวิถี-ลงจากสะพานกรุงธน	13.77937437	100.5063515	bma	working	2022-05-09T00:00:00	10:00:00	11:00:00	50	35	3040	2700	1.13
1841	DS-255-02-01 ถ.ราชวิถี-ลงจากสะพานกรุงธน	13.77937437	100.5063515	bma	working	2022-05-09T00:00:00	11:00:00	12:00:00	84	16	2143	2700	0.79
1842	DS-255-02-01 ถ.ราชวิถี-ลงจากสะพานกรุงธน	13.77937437	100.5063515	bma	working	2022-05-09T00:00:00	12:00:00	13:00:00	52	33	2816	2700	1.04
1843	DS-255-02-01 ถ.ราชวิถี-ลงจากสะพานกรุงธน	13.77937437	100.5063515	bma	working	2022-05-09T00:00:00	13:00:00	14:00:00	49	36	2895	2700	1.07
1844	DS-255-02-01 ถ.ราชวิถี-ลงจากสะพานกรุงธน	13.77937437	100.5063515	bma	working	2022-05-09T00:00:00	14:00:00	15:00:00	49	35	2751	2700	1.02
1845	DS-255-02-01 ถ.ราชวิถี-ลงจากสะพานกรุงธน	13.77937437	100.5063515	bma	working	2022-05-09T00:00:00	15:00:00	16:00:00	49	31	2703	2700	1.00
1846	DS-255-02-01 ถ.ราชวิถี-ลงจากสะพานกรุงธน	13.77937437	100.5063515	bma	working	2022-05-09T00:00:00	16:00:00	17:00:00	56	23	3374	2700	1.25
1847	DS-255-02-01 ถ.ราชวิถี-ลงจากสะพานกรุงธน	13.77937437	100.5063515	bma	working	2022-05-09T00:00:00	17:00:00	18:00:00	77	31	3041	2700	1.13
1848	DS-255-02-01 ถ.ราชวิถี-ลงจากสะพานกรุงธน	13.77937437	100.5063515	bma	working	2022-05-09T00:00:00	18:00:00	19:00:00	80	55	3524	2700	1.31
1849	DS-255-02-01 ถ.ราชวิถี-ลงจากสะพานกรุงธน	13.77937437	100.5063515	bma	working	2022-06-09T00:00:00	5:00:00	6:00:00	99	6	1055	2700	0.39
1850	DS-255-02-01 ถ.ราชวิถี-ลงจากสะพานกรุงธน	13.77937437	100.5063515	bma	working	2022-06-09T00:00:00	6:00:00	7:00:00	69	20	3127	2700	1.16
1851	DS-255-02-01 ถ.ราชวิถี-ลงจากสะพานกรุงธน	13.77937437	100.5063515	bma	working	2022-06-09T00:00:00	7:00:00	8:00:00	62	34	2749	2700	1.02
1852	DS-255-02-01 ถ.ราชวิถี-ลงจากสะพานกรุงธน	13.77937437	100.5063515	bma	working	2022-06-09T00:00:00	8:00:00	9:00:00	57	36	2710	2700	1.00
1853	DS-255-02-01 ถ.ราชวิถี-ลงจากสะพานกรุงธน	13.77937437	100.5063515	bma	working	2022-06-09T00:00:00	9:00:00	10:00:00	54	34	2605	2700	0.96
1854	DS-255-02-01 ถ.ราชวิถี-ลงจากสะพานกรุงธน	13.77937437	100.5063515	bma	working	2022-06-09T00:00:00	10:00:00	11:00:00	56	36	2721	2700	1.01
1855	DS-255-02-01 ถ.ราชวิถี-ลงจากสะพานกรุงธน	13.77937437	100.5063515	bma	working	2022-06-09T00:00:00	11:00:00	12:00:00	79	18	2618	2700	0.97
1856	DS-255-02-01 ถ.ราชวิถี-ลงจากสะพานกรุงธน	13.77937437	100.5063515	bma	working	2022-06-09T00:00:00	12:00:00	13:00:00	57	34	2532	2700	0.94
1857	DS-255-02-01 ถ.ราชวิถี-ลงจากสะพานกรุงธน	13.77937437	100.5063515	bma	working	2022-06-09T00:00:00	13:00:00	14:00:00	53	36	2621	2700	0.97
1858	DS-255-02-01 ถ.ราชวิถี-ลงจากสะพานกรุงธน	13.77937437	100.5063515	bma	working	2022-06-09T00:00:00	14:00:00	15:00:00	58	34	2491	2700	0.92
1859	DS-255-02-01 ถ.ราชวิถี-ลงจากสะพานกรุงธน	13.77937437	100.5063515	bma	working	2022-06-09T00:00:00	15:00:00	16:00:00	57	32	2385	2700	0.88
1860	DS-255-02-01 ถ.ราชวิถี-ลงจากสะพานกรุงธน	13.77937437	100.5063515	bma	working	2022-06-09T00:00:00	16:00:00	17:00:00	63	23	3673	2700	1.36
1861	DS-255-02-01 ถ.ราชวิถี-ลงจากสะพานกรุงธน	13.77937437	100.5063515	bma	working	2022-06-09T00:00:00	17:00:00	18:00:00	78	39	3252	2700	1.20
1862	DS-255-02-01 ถ.ราชวิถี-ลงจากสะพานกรุงธน	13.77937437	100.5063515	bma	working	2022-06-09T00:00:00	18:00:00	19:00:00	71	33	3491	2700	1.29
1863	DS-255-02-01 ถ.ราชวิถี-ลงจากสะพานกรุงธน	13.77937437	100.5063515	bma	working	2022-07-09T00:00:00	5:00:00	6:00:00	111	5	910	2700	0.34
1864	DS-255-02-01 ถ.ราชวิถี-ลงจากสะพานกรุงธน	13.77937437	100.5063515	bma	working	2022-07-09T00:00:00	6:00:00	7:00:00	78	15	2732	2700	1.01
1865	DS-255-02-01 ถ.ราชวิถี-ลงจากสะพานกรุงธน	13.77937437	100.5063515	bma	working	2022-07-09T00:00:00	7:00:00	8:00:00	63	22	1859	2700	0.69
1866	DS-255-02-01 ถ.ราชวิถี-ลงจากสะพานกรุงธน	13.77937437	100.5063515	bma	working	2022-07-09T00:00:00	8:00:00	9:00:00	68	41	2197	2700	0.81
1867	DS-255-02-01 ถ.ราชวิถี-ลงจากสะพานกรุงธน	13.77937437	100.5063515	bma	working	2022-07-09T00:00:00	9:00:00	10:00:00	61	37	2377	2700	0.88
1868	DS-255-02-01 ถ.ราชวิถี-ลงจากสะพานกรุงธน	13.77937437	100.5063515	bma	working	2022-07-09T00:00:00	10:00:00	11:00:00	64	36	2417	2700	0.90
1869	DS-255-02-01 ถ.ราชวิถี-ลงจากสะพานกรุงธน	13.77937437	100.5063515	bma	working	2022-07-09T00:00:00	11:00:00	12:00:00	69	19	3146	2700	1.17
1870	DS-255-02-01 ถ.ราชวิถี-ลงจากสะพานกรุงธน	13.77937437	100.5063515	bma	working	2022-07-09T00:00:00	12:00:00	13:00:00	64	35	2250	2700	0.83
1871	DS-255-02-01 ถ.ราชวิถี-ลงจากสะพานกรุงธน	13.77937437	100.5063515	bma	working	2022-07-09T00:00:00	13:00:00	14:00:00	61	35	2350	2700	0.87
1872	DS-255-02-01 ถ.ราชวิถี-ลงจากสะพานกรุงธน	13.77937437	100.5063515	bma	working	2022-07-09T00:00:00	14:00:00	15:00:00	63	36	2280	2700	0.84
1873	DS-255-02-01 ถ.ราชวิถี-ลงจากสะพานกรุงธน	13.77937437	100.5063515	bma	working	2022-07-09T00:00:00	15:00:00	16:00:00	60	36	2080	2700	0.77
1874	DS-255-02-01 ถ.ราชวิถี-ลงจากสะพานกรุงธน	13.77937437	100.5063515	bma	working	2022-07-09T00:00:00	16:00:00	17:00:00	73	23	3497	2700	1.30
1875	DS-255-02-01 ถ.ราชวิถี-ลงจากสะพานกรุงธน	13.77937437	100.5063515	bma	working	2022-07-09T00:00:00	17:00:00	18:00:00	78	43	3535	2700	1.31
1876	DS-255-02-01 ถ.ราชวิถี-ลงจากสะพานกรุงธน	13.77937437	100.5063515	bma	working	2022-07-09T00:00:00	18:00:00	19:00:00	66	16	3097	2700	1.15
1877	DS-255-02-01 ถ.ราชวิถี-ลงจากสะพานกรุงธน	13.77937437	100.5063515	bma	working	2022-08-09T00:00:00	5:00:00	6:00:00	92	5	846	2700	0.31
1878	DS-255-02-01 ถ.ราชวิถี-ลงจากสะพานกรุงธน	13.77937437	100.5063515	bma	working	2022-08-09T00:00:00	6:00:00	7:00:00	66	15	2410	2700	0.89
1879	DS-255-02-01 ถ.ราชวิถี-ลงจากสะพานกรุงธน	13.77937437	100.5063515	bma	working	2022-08-09T00:00:00	7:00:00	8:00:00	85	31	2331	2700	0.86
1880	DS-255-02-01 ถ.ราชวิถี-ลงจากสะพานกรุงธน	13.77937437	100.5063515	bma	working	2022-08-09T00:00:00	8:00:00	9:00:00	79	38	3269	2700	1.21
1881	DS-255-02-01 ถ.ราชวิถี-ลงจากสะพานกรุงธน	13.77937437	100.5063515	bma	working	2022-08-09T00:00:00	9:00:00	10:00:00	77	33	3282	2700	1.22
1882	DS-255-02-01 ถ.ราชวิถี-ลงจากสะพานกรุงธน	13.77937437	100.5063515	bma	working	2022-08-09T00:00:00	10:00:00	11:00:00	74	36	3196	2700	1.18
1883	DS-255-02-01 ถ.ราชวิถี-ลงจากสะพานกรุงธน	13.77937437	100.5063515	bma	working	2022-08-09T00:00:00	11:00:00	12:00:00	66	17	2651	2700	0.98
1884	DS-255-02-01 ถ.ราชวิถี-ลงจากสะพานกรุงธน	13.77937437	100.5063515	bma	working	2022-08-09T00:00:00	12:00:00	13:00:00	75	35	3064	2700	1.13
1885	DS-255-02-01 ถ.ราชวิถี-ลงจากสะพานกรุงธน	13.77937437	100.5063515	bma	working	2022-08-09T00:00:00	13:00:00	14:00:00	73	36	3163	2700	1.17
1886	DS-255-02-01 ถ.ราชวิถี-ลงจากสะพานกรุงธน	13.77937437	100.5063515	bma	working	2022-08-09T00:00:00	14:00:00	15:00:00	74	35	3141	2700	1.16
1887	DS-255-02-01 ถ.ราชวิถี-ลงจากสะพานกรุงธน	13.77937437	100.5063515	bma	working	2022-08-09T00:00:00	15:00:00	16:00:00	76	31	3056	2700	1.13
1888	DS-255-02-01 ถ.ราชวิถี-ลงจากสะพานกรุงธน	13.77937437	100.5063515	bma	working	2022-08-09T00:00:00	16:00:00	17:00:00	67	38	3389	2700	1.26
1889	DS-255-02-01 ถ.ราชวิถี-ลงจากสะพานกรุงธน	13.77937437	100.5063515	bma	working	2022-08-09T00:00:00	17:00:00	18:00:00	88	42	3812	2700	1.41
1890	DS-255-02-01 ถ.ราชวิถี-ลงจากสะพานกรุงธน	13.77937437	100.5063515	bma	working	2022-08-09T00:00:00	18:00:00	19:00:00	73	17	3447	2700	1.28
1891	DS-255-02-01 ถ.ราชวิถี-ลงจากสะพานกรุงธน	13.77937437	100.5063515	bma	working	2022-09-09T00:00:00	5:00:00	6:00:00	83	5	719	2700	0.27
1892	DS-255-02-01 ถ.ราชวิถี-ลงจากสะพานกรุงธน	13.77937437	100.5063515	bma	working	2022-09-09T00:00:00	6:00:00	7:00:00	60	15	2113	2700	0.78
1893	DS-255-02-01 ถ.ราชวิถี-ลงจากสะพานกรุงธน	13.77937437	100.5063515	bma	working	2022-09-09T00:00:00	7:00:00	8:00:00	98	40	3032	2700	1.12
1894	DS-255-02-01 ถ.ราชวิถี-ลงจากสะพานกรุงธน	13.77937437	100.5063515	bma	working	2022-09-09T00:00:00	8:00:00	9:00:00	88	35	4019	2700	1.49
1895	DS-255-02-01 ถ.ราชวิถี-ลงจากสะพานกรุงธน	13.77937437	100.5063515	bma	working	2022-09-09T00:00:00	9:00:00	10:00:00	88	31	4120	2700	1.53
1896	DS-255-02-01 ถ.ราชวิถี-ลงจากสะพานกรุงธน	13.77937437	100.5063515	bma	working	2022-09-09T00:00:00	10:00:00	11:00:00	87	35	4046	2700	1.50
1897	DS-255-02-01 ถ.ราชวิถี-ลงจากสะพานกรุงธน	13.77937437	100.5063515	bma	working	2022-09-09T00:00:00	11:00:00	12:00:00	60	15	2332	2700	0.86
1898	DS-255-02-01 ถ.ราชวิถี-ลงจากสะพานกรุงธน	13.77937437	100.5063515	bma	working	2022-09-09T00:00:00	12:00:00	13:00:00	93	34	3873	2700	1.43
1899	DS-255-02-01 ถ.ราชวิถี-ลงจากสะพานกรุงธน	13.77937437	100.5063515	bma	working	2022-09-09T00:00:00	13:00:00	14:00:00	84	34	3852	2700	1.43
1900	DS-255-02-01 ถ.ราชวิถี-ลงจากสะพานกรุงธน	13.77937437	100.5063515	bma	working	2022-09-09T00:00:00	14:00:00	15:00:00	88	32	3861	2700	1.43
1901	DS-255-02-01 ถ.ราชวิถี-ลงจากสะพานกรุงธน	13.77937437	100.5063515	bma	working	2022-09-09T00:00:00	15:00:00	16:00:00	88	29	3892	2700	1.44
1902	DS-255-02-01 ถ.ราชวิถี-ลงจากสะพานกรุงธน	13.77937437	100.5063515	bma	working	2022-09-09T00:00:00	16:00:00	17:00:00	54	55	2997	2700	1.11
1903	DS-255-02-01 ถ.ราชวิถี-ลงจากสะพานกรุงธน	13.77937437	100.5063515	bma	working	2022-09-09T00:00:00	17:00:00	18:00:00	99	37	3803	2700	1.41
1904	DS-255-02-01 ถ.ราชวิถี-ลงจากสะพานกรุงธน	13.77937437	100.5063515	bma	working	2022-09-09T00:00:00	18:00:00	19:00:00	74	18	3589	2700	1.33
1905	DS-255-02-01 ถ.ราชวิถี-ลงจากสะพานกรุงธน	13.77937437	100.5063515	bma	working	2022-10-09T00:00:00	5:00:00	6:00:00	64	4	372	2700	0.14
1906	DS-255-02-01 ถ.ราชวิถี-ลงจากสะพานกรุงธน	13.77937437	100.5063515	bma	holiday	2022-10-09T00:00:00	6:00:00	7:00:00	45	10	989	2700	0.37
1907	DS-255-02-01 ถ.ราชวิถี-ลงจากสะพานกรุงธน	13.77937437	100.5063515	bma	holiday	2022-10-09T00:00:00	7:00:00	8:00:00	92	13	2091	2700	0.77
1908	DS-255-02-01 ถ.ราชวิถี-ลงจากสะพานกรุงธน	13.77937437	100.5063515	bma	holiday	2022-10-09T00:00:00	8:00:00	9:00:00	66	17	3050	2700	1.13
1909	DS-255-02-01 ถ.ราชวิถี-ลงจากสะพานกรุงธน	13.77937437	100.5063515	bma	working	2022-10-09T00:00:00	9:00:00	10:00:00	61	11	2957	2700	1.10
1910	DS-255-02-01 ถ.ราชวิถี-ลงจากสะพานกรุงธน	13.77937437	100.5063515	bma	working	2022-10-09T00:00:00	10:00:00	11:00:00	63	12	3158	2700	1.17
1911	DS-255-02-01 ถ.ราชวิถี-ลงจากสะพานกรุงธน	13.77937437	100.5063515	bma	holiday	2022-10-09T00:00:00	11:00:00	12:00:00	59	12	1950	2700	0.72
1912	DS-255-02-01 ถ.ราชวิถี-ลงจากสะพานกรุงธน	13.77937437	100.5063515	bma	working	2022-10-09T00:00:00	12:00:00	13:00:00	63	12	2917	2700	1.08
1913	DS-255-02-01 ถ.ราชวิถี-ลงจากสะพานกรุงธน	13.77937437	100.5063515	bma	working	2022-10-09T00:00:00	13:00:00	14:00:00	65	13	3016	2700	1.12
1914	DS-255-02-01 ถ.ราชวิถี-ลงจากสะพานกรุงธน	13.77937437	100.5063515	bma	working	2022-10-09T00:00:00	14:00:00	15:00:00	63	13	2897	2700	1.07
1915	DS-255-02-01 ถ.ราชวิถี-ลงจากสะพานกรุงธน	13.77937437	100.5063515	bma	working	2022-10-09T00:00:00	15:00:00	16:00:00	60	15	2929	2700	1.08
1916	DS-255-02-01 ถ.ราชวิถี-ลงจากสะพานกรุงธน	13.77937437	100.5063515	bma	holiday	2022-10-09T00:00:00	16:00:00	17:00:00	70	11	1440	2700	0.53
1917	DS-255-02-01 ถ.ราชวิถี-ลงจากสะพานกรุงธน	13.77937437	100.5063515	bma	holiday	2022-10-09T00:00:00	17:00:00	18:00:00	102	21	3735	2700	1.38
1918	DS-255-02-01 ถ.ราชวิถี-ลงจากสะพานกรุงธน	13.77937437	100.5063515	bma	holiday	2022-10-09T00:00:00	18:00:00	19:00:00	65	21	1746	2700	0.65
1919	DS-255-02-01 ถ.ราชวิถี-ลงจากสะพานกรุงธน	13.77937437	100.5063515	bma	working	2022-11-09T00:00:00	5:00:00	6:00:00	41	3	228	2700	0.08
1920	DS-255-02-01 ถ.ราชวิถี-ลงจากสะพานกรุงธน	13.77937437	100.5063515	bma	holiday	2022-11-09T00:00:00	6:00:00	7:00:00	29	7	617	2700	0.23
1921	DS-255-02-01 ถ.ราชวิถี-ลงจากสะพานกรุงธน	13.77937437	100.5063515	bma	holiday	2022-11-09T00:00:00	7:00:00	8:00:00	54	8	1262	2700	0.47
1922	DS-255-02-01 ถ.ราชวิถี-ลงจากสะพานกรุงธน	13.77937437	100.5063515	bma	holiday	2022-11-09T00:00:00	8:00:00	9:00:00	38	11	1965	2700	0.73
1923	DS-255-02-01 ถ.ราชวิถี-ลงจากสะพานกรุงธน	13.77937437	100.5063515	bma	working	2022-11-09T00:00:00	9:00:00	10:00:00	36	7	1995	2700	0.74
1924	DS-255-02-01 ถ.ราชวิถี-ลงจากสะพานกรุงธน	13.77937437	100.5063515	bma	working	2022-11-09T00:00:00	10:00:00	11:00:00	38	7	1851	2700	0.69
1925	DS-255-02-01 ถ.ราชวิถี-ลงจากสะพานกรุงธน	13.77937437	100.5063515	bma	holiday	2022-11-09T00:00:00	11:00:00	12:00:00	36	7	1221	2700	0.45
1926	DS-255-02-01 ถ.ราชวิถี-ลงจากสะพานกรุงธน	13.77937437	100.5063515	bma	working	2022-11-09T00:00:00	12:00:00	13:00:00	36	8	1797	2700	0.67
1927	DS-255-02-01 ถ.ราชวิถี-ลงจากสะพานกรุงธน	13.77937437	100.5063515	bma	working	2022-11-09T00:00:00	13:00:00	14:00:00	39	7	1834	2700	0.68
1928	DS-255-02-01 ถ.ราชวิถี-ลงจากสะพานกรุงธน	13.77937437	100.5063515	bma	working	2022-11-09T00:00:00	14:00:00	15:00:00	37	8	1802	2700	0.67
1929	DS-255-02-01 ถ.ราชวิถี-ลงจากสะพานกรุงธน	13.77937437	100.5063515	bma	working	2022-11-09T00:00:00	15:00:00	16:00:00	38	9	1863	2700	0.69
1930	DS-255-02-01 ถ.ราชวิถี-ลงจากสะพานกรุงธน	13.77937437	100.5063515	bma	holiday	2022-11-09T00:00:00	16:00:00	17:00:00	39	7	952	2700	0.35
1931	DS-255-02-01 ถ.ราชวิถี-ลงจากสะพานกรุงธน	13.77937437	100.5063515	bma	holiday	2022-11-09T00:00:00	17:00:00	18:00:00	59	13	2364	2700	0.88
1932	DS-255-02-01 ถ.ราชวิถี-ลงจากสะพานกรุงธน	13.77937437	100.5063515	bma	holiday	2022-11-09T00:00:00	18:00:00	19:00:00	38	13	1059	2700	0.39
1933	DS-255-02-04 ถ.ราชวิถี-ก่อนขึ้นสะพานกรุงธน	13.77928359	100.5062991	bma	working	2022-05-09T00:00:00	5:00:00	6:00:00	113	13	1114	1800	0.62
1934	DS-255-02-04 ถ.ราชวิถี-ก่อนขึ้นสะพานกรุงธน	13.77928359	100.5062991	bma	working	2022-05-09T00:00:00	6:00:00	7:00:00	80	38	3340	1800	1.86
1935	DS-255-02-04 ถ.ราชวิถี-ก่อนขึ้นสะพานกรุงธน	13.77928359	100.5062991	bma	working	2022-05-09T00:00:00	7:00:00	8:00:00	76	32	3706	1800	2.06
1936	DS-255-02-04 ถ.ราชวิถี-ก่อนขึ้นสะพานกรุงธน	13.77928359	100.5062991	bma	working	2022-05-09T00:00:00	8:00:00	9:00:00	69	48	4005	1800	2.23
1937	DS-255-02-04 ถ.ราชวิถี-ก่อนขึ้นสะพานกรุงธน	13.77928359	100.5062991	bma	working	2022-05-09T00:00:00	9:00:00	10:00:00	68	45	4032	1800	2.24
1938	DS-255-02-04 ถ.ราชวิถี-ก่อนขึ้นสะพานกรุงธน	13.77928359	100.5062991	bma	working	2022-05-09T00:00:00	10:00:00	11:00:00	70	46	4046	1800	2.25
1939	DS-255-02-04 ถ.ราชวิถี-ก่อนขึ้นสะพานกรุงธน	13.77928359	100.5062991	bma	working	2022-05-09T00:00:00	11:00:00	12:00:00	94	19	1289	1800	0.72
1940	DS-255-02-04 ถ.ราชวิถี-ก่อนขึ้นสะพานกรุงธน	13.77928359	100.5062991	bma	working	2022-05-09T00:00:00	12:00:00	13:00:00	72	43	3854	1800	2.14
1941	DS-255-02-04 ถ.ราชวิถี-ก่อนขึ้นสะพานกรุงธน	13.77928359	100.5062991	bma	working	2022-05-09T00:00:00	13:00:00	14:00:00	65	43	3822	1800	2.12
1942	DS-255-02-04 ถ.ราชวิถี-ก่อนขึ้นสะพานกรุงธน	13.77928359	100.5062991	bma	working	2022-05-09T00:00:00	14:00:00	15:00:00	66	48	3928	1800	2.18
1943	DS-255-02-04 ถ.ราชวิถี-ก่อนขึ้นสะพานกรุงธน	13.77928359	100.5062991	bma	working	2022-05-09T00:00:00	15:00:00	16:00:00	66	45	3850	1800	2.14
1944	DS-255-02-04 ถ.ราชวิถี-ก่อนขึ้นสะพานกรุงธน	13.77928359	100.5062991	bma	working	2022-05-09T00:00:00	16:00:00	17:00:00	81	25	3223	1800	1.79
1945	DS-255-02-04 ถ.ราชวิถี-ก่อนขึ้นสะพานกรุงธน	13.77928359	100.5062991	bma	working	2022-05-09T00:00:00	17:00:00	18:00:00	92	36	3657	1800	2.03
1946	DS-255-02-04 ถ.ราชวิถี-ก่อนขึ้นสะพานกรุงธน	13.77928359	100.5062991	bma	working	2022-05-09T00:00:00	18:00:00	19:00:00	91	43	4639	1800	2.58
1947	DS-255-02-04 ถ.ราชวิถี-ก่อนขึ้นสะพานกรุงธน	13.77928359	100.5062991	bma	working	2022-06-09T00:00:00	5:00:00	6:00:00	104	12	1282	1800	0.71
1948	DS-255-02-04 ถ.ราชวิถี-ก่อนขึ้นสะพานกรุงธน	13.77928359	100.5062991	bma	working	2022-06-09T00:00:00	6:00:00	7:00:00	74	36	3801	1800	2.11
1949	DS-255-02-04 ถ.ราชวิถี-ก่อนขึ้นสะพานกรุงธน	13.77928359	100.5062991	bma	working	2022-06-09T00:00:00	7:00:00	8:00:00	74	53	3849	1800	2.14
1950	DS-255-02-04 ถ.ราชวิถี-ก่อนขึ้นสะพานกรุงธน	13.77928359	100.5062991	bma	working	2022-06-09T00:00:00	8:00:00	9:00:00	74	57	3610	1800	2.01
1951	DS-255-02-04 ถ.ราชวิถี-ก่อนขึ้นสะพานกรุงธน	13.77928359	100.5062991	bma	working	2022-06-09T00:00:00	9:00:00	10:00:00	69	51	3377	1800	1.88
1952	DS-255-02-04 ถ.ราชวิถี-ก่อนขึ้นสะพานกรุงธน	13.77928359	100.5062991	bma	working	2022-06-09T00:00:00	10:00:00	11:00:00	70	50	3418	1800	1.90
1953	DS-255-02-04 ถ.ราชวิถี-ก่อนขึ้นสะพานกรุงธน	13.77928359	100.5062991	bma	working	2022-06-09T00:00:00	11:00:00	12:00:00	88	17	1541	1800	0.86
1954	DS-255-02-04 ถ.ราชวิถี-ก่อนขึ้นสะพานกรุงธน	13.77928359	100.5062991	bma	working	2022-06-09T00:00:00	12:00:00	13:00:00	72	48	3183	1800	1.77
1955	DS-255-02-04 ถ.ราชวิถี-ก่อนขึ้นสะพานกรุงธน	13.77928359	100.5062991	bma	working	2022-06-09T00:00:00	13:00:00	14:00:00	71	53	3176	1800	1.76
1956	DS-255-02-04 ถ.ราชวิถี-ก่อนขึ้นสะพานกรุงธน	13.77928359	100.5062991	bma	working	2022-06-09T00:00:00	14:00:00	15:00:00	68	52	3216	1800	1.79
1957	DS-255-02-04 ถ.ราชวิถี-ก่อนขึ้นสะพานกรุงธน	13.77928359	100.5062991	bma	working	2022-06-09T00:00:00	15:00:00	16:00:00	66	52	3052	1800	1.70
1958	DS-255-02-04 ถ.ราชวิถี-ก่อนขึ้นสะพานกรุงธน	13.77928359	100.5062991	bma	working	2022-06-09T00:00:00	16:00:00	17:00:00	89	23	3284	1800	1.82
1959	DS-255-02-04 ถ.ราชวิถี-ก่อนขึ้นสะพานกรุงธน	13.77928359	100.5062991	bma	working	2022-06-09T00:00:00	17:00:00	18:00:00	85	40	4286	1800	2.38
1960	DS-255-02-04 ถ.ราชวิถี-ก่อนขึ้นสะพานกรุงธน	13.77928359	100.5062991	bma	working	2022-06-09T00:00:00	18:00:00	19:00:00	95	64	4252	1800	2.36
1961	DS-255-02-04 ถ.ราชวิถี-ก่อนขึ้นสะพานกรุงธน	13.77928359	100.5062991	bma	working	2022-07-09T00:00:00	5:00:00	6:00:00	111	12	1456	1800	0.81
1962	DS-255-02-04 ถ.ราชวิถี-ก่อนขึ้นสะพานกรุงธน	13.77928359	100.5062991	bma	working	2022-07-09T00:00:00	6:00:00	7:00:00	79	34	4341	1800	2.41
1963	DS-255-02-04 ถ.ราชวิถี-ก่อนขึ้นสะพานกรุงธน	13.77928359	100.5062991	bma	working	2022-07-09T00:00:00	7:00:00	8:00:00	69	76	3840	1800	2.13
1964	DS-255-02-04 ถ.ราชวิถี-ก่อนขึ้นสะพานกรุงธน	13.77928359	100.5062991	bma	working	2022-07-09T00:00:00	8:00:00	9:00:00	74	58	2818	1800	1.57
1965	DS-255-02-04 ถ.ราชวิถี-ก่อนขึ้นสะพานกรุงธน	13.77928359	100.5062991	bma	working	2022-07-09T00:00:00	9:00:00	10:00:00	74	57	2443	1800	1.36
1966	DS-255-02-04 ถ.ราชวิถี-ก่อนขึ้นสะพานกรุงธน	13.77928359	100.5062991	bma	working	2022-07-09T00:00:00	10:00:00	11:00:00	71	56	2334	1800	1.30
1967	DS-255-02-04 ถ.ราชวิถี-ก่อนขึ้นสะพานกรุงธน	13.77928359	100.5062991	bma	working	2022-07-09T00:00:00	11:00:00	12:00:00	82	14	1703	1800	0.95
1968	DS-255-02-04 ถ.ราชวิถี-ก่อนขึ้นสะพานกรุงธน	13.77928359	100.5062991	bma	working	2022-07-09T00:00:00	12:00:00	13:00:00	72	58	2091	1800	1.16
1969	DS-255-02-04 ถ.ราชวิถี-ก่อนขึ้นสะพานกรุงธน	13.77928359	100.5062991	bma	working	2022-07-09T00:00:00	13:00:00	14:00:00	77	59	2338	1800	1.30
1970	DS-255-02-04 ถ.ราชวิถี-ก่อนขึ้นสะพานกรุงธน	13.77928359	100.5062991	bma	working	2022-07-09T00:00:00	14:00:00	15:00:00	77	55	2451	1800	1.36
1971	DS-255-02-04 ถ.ราชวิถี-ก่อนขึ้นสะพานกรุงธน	13.77928359	100.5062991	bma	working	2022-07-09T00:00:00	15:00:00	16:00:00	71	56	2177	1800	1.21
1972	DS-255-02-04 ถ.ราชวิถี-ก่อนขึ้นสะพานกรุงธน	13.77928359	100.5062991	bma	working	2022-07-09T00:00:00	16:00:00	17:00:00	101	24	3318	1800	1.84
1973	DS-255-02-04 ถ.ราชวิถี-ก่อนขึ้นสะพานกรุงธน	13.77928359	100.5062991	bma	working	2022-07-09T00:00:00	17:00:00	18:00:00	77	41	4811	1800	2.67
1974	DS-255-02-04 ถ.ราชวิถี-ก่อนขึ้นสะพานกรุงธน	13.77928359	100.5062991	bma	working	2022-07-09T00:00:00	18:00:00	19:00:00	95	87	3818	1800	2.12
1975	DS-255-02-04 ถ.ราชวิถี-ก่อนขึ้นสะพานกรุงธน	13.77928359	100.5062991	bma	working	2022-08-09T00:00:00	5:00:00	6:00:00	99	15	1307	1800	0.73
1976	DS-255-02-04 ถ.ราชวิถี-ก่อนขึ้นสะพานกรุงธน	13.77928359	100.5062991	bma	working	2022-08-09T00:00:00	6:00:00	7:00:00	69	42	4134	1800	2.30
1977	DS-255-02-04 ถ.ราชวิถี-ก่อนขึ้นสะพานกรุงธน	13.77928359	100.5062991	bma	working	2022-08-09T00:00:00	7:00:00	8:00:00	79	53	4410	1800	2.45
1978	DS-255-02-04 ถ.ราชวิถี-ก่อนขึ้นสะพานกรุงธน	13.77928359	100.5062991	bma	working	2022-08-09T00:00:00	8:00:00	9:00:00	82	88	3438	1800	1.91
1979	DS-255-02-04 ถ.ราชวิถี-ก่อนขึ้นสะพานกรุงธน	13.77928359	100.5062991	bma	working	2022-08-09T00:00:00	9:00:00	10:00:00	79	91	3479	1800	1.93
1980	DS-255-02-04 ถ.ราชวิถี-ก่อนขึ้นสะพานกรุงธน	13.77928359	100.5062991	bma	working	2022-08-09T00:00:00	10:00:00	11:00:00	83	88	3125	1800	1.74
1981	DS-255-02-04 ถ.ราชวิถี-ก่อนขึ้นสะพานกรุงธน	13.77928359	100.5062991	bma	working	2022-08-09T00:00:00	11:00:00	12:00:00	81	20	2466	1800	1.37
1982	DS-255-02-04 ถ.ราชวิถี-ก่อนขึ้นสะพานกรุงธน	13.77928359	100.5062991	bma	working	2022-08-09T00:00:00	12:00:00	13:00:00	81	86	3213	1800	1.79
1983	DS-255-02-04 ถ.ราชวิถี-ก่อนขึ้นสะพานกรุงธน	13.77928359	100.5062991	bma	working	2022-08-09T00:00:00	13:00:00	14:00:00	85	86	3238	1800	1.80
1984	DS-255-02-04 ถ.ราชวิถี-ก่อนขึ้นสะพานกรุงธน	13.77928359	100.5062991	bma	working	2022-08-09T00:00:00	14:00:00	15:00:00	82	86	3652	1800	2.03
1985	DS-255-02-04 ถ.ราชวิถี-ก่อนขึ้นสะพานกรุงธน	13.77928359	100.5062991	bma	working	2022-08-09T00:00:00	15:00:00	16:00:00	83	91	3058	1800	1.70
1986	DS-255-02-04 ถ.ราชวิถี-ก่อนขึ้นสะพานกรุงธน	13.77928359	100.5062991	bma	working	2022-08-09T00:00:00	16:00:00	17:00:00	102	25	4323	1800	2.40
1987	DS-255-02-04 ถ.ราชวิถี-ก่อนขึ้นสะพานกรุงธน	13.77928359	100.5062991	bma	working	2022-08-09T00:00:00	17:00:00	18:00:00	68	76	4231	1800	2.35
1988	DS-255-02-04 ถ.ราชวิถี-ก่อนขึ้นสะพานกรุงธน	13.77928359	100.5062991	bma	working	2022-08-09T00:00:00	18:00:00	19:00:00	101	83	4417	1800	2.45
1989	DS-255-02-04 ถ.ราชวิถี-ก่อนขึ้นสะพานกรุงธน	13.77928359	100.5062991	bma	working	2022-09-09T00:00:00	5:00:00	6:00:00	98	18	1339	1800	0.74
1990	DS-255-02-04 ถ.ราชวิถี-ก่อนขึ้นสะพานกรุงธน	13.77928359	100.5062991	bma	working	2022-09-09T00:00:00	6:00:00	7:00:00	68	52	3823	1800	2.12
1991	DS-255-02-04 ถ.ราชวิถี-ก่อนขึ้นสะพานกรุงธน	13.77928359	100.5062991	bma	working	2022-09-09T00:00:00	7:00:00	8:00:00	94	30	4670	1800	2.59
1992	DS-255-02-04 ถ.ราชวิถี-ก่อนขึ้นสะพานกรุงธน	13.77928359	100.5062991	bma	working	2022-09-09T00:00:00	8:00:00	9:00:00	88	119	4107	1800	2.28
1993	DS-255-02-04 ถ.ราชวิถี-ก่อนขึ้นสะพานกรุงธน	13.77928359	100.5062991	bma	working	2022-09-09T00:00:00	9:00:00	10:00:00	86	125	4797	1800	2.67
1994	DS-255-02-04 ถ.ราชวิถี-ก่อนขึ้นสะพานกรุงธน	13.77928359	100.5062991	bma	working	2022-09-09T00:00:00	10:00:00	11:00:00	90	124	4094	1800	2.27
1995	DS-255-02-04 ถ.ราชวิถี-ก่อนขึ้นสะพานกรุงธน	13.77928359	100.5062991	bma	working	2022-09-09T00:00:00	11:00:00	12:00:00	87	25	3131	1800	1.74
1996	DS-255-02-04 ถ.ราชวิถี-ก่อนขึ้นสะพานกรุงธน	13.77928359	100.5062991	bma	working	2022-09-09T00:00:00	12:00:00	13:00:00	92	120	4203	1800	2.34
1997	DS-255-02-04 ถ.ราชวิถี-ก่อนขึ้นสะพานกรุงธน	13.77928359	100.5062991	bma	working	2022-09-09T00:00:00	13:00:00	14:00:00	89	119	4750	1800	2.64
1998	DS-255-02-04 ถ.ราชวิถี-ก่อนขึ้นสะพานกรุงธน	13.77928359	100.5062991	bma	working	2022-09-09T00:00:00	14:00:00	15:00:00	94	126	4764	1800	2.65
1999	DS-255-02-04 ถ.ราชวิถี-ก่อนขึ้นสะพานกรุงธน	13.77928359	100.5062991	bma	working	2022-09-09T00:00:00	15:00:00	16:00:00	91	123	4057	1800	2.25
2000	DS-255-02-04 ถ.ราชวิถี-ก่อนขึ้นสะพานกรุงธน	13.77928359	100.5062991	bma	working	2022-09-09T00:00:00	16:00:00	17:00:00	101	26	5437	1800	3.02
2001	DS-255-02-04 ถ.ราชวิถี-ก่อนขึ้นสะพานกรุงธน	13.77928359	100.5062991	bma	working	2022-09-09T00:00:00	17:00:00	18:00:00	57	120	3660	1800	2.03
2002	DS-255-02-04 ถ.ราชวิถี-ก่อนขึ้นสะพานกรุงธน	13.77928359	100.5062991	bma	working	2022-09-09T00:00:00	18:00:00	19:00:00	102	86	4710	1800	2.62
2003	DS-255-02-04 ถ.ราชวิถี-ก่อนขึ้นสะพานกรุงธน	13.77928359	100.5062991	bma	working	2022-10-09T00:00:00	5:00:00	6:00:00	116	10	1025	1800	0.57
2004	DS-255-02-04 ถ.ราชวิถี-ก่อนขึ้นสะพานกรุงธน	13.77928359	100.5062991	bma	holiday	2022-10-09T00:00:00	6:00:00	7:00:00	81	29	2899	1800	1.61
2005	DS-255-02-04 ถ.ราชวิถี-ก่อนขึ้นสะพานกรุงธน	13.77928359	100.5062991	bma	holiday	2022-10-09T00:00:00	7:00:00	8:00:00	89	15	1118	1800	0.62
2006	DS-255-02-04 ถ.ราชวิถี-ก่อนขึ้นสะพานกรุงธน	13.77928359	100.5062991	bma	holiday	2022-10-09T00:00:00	8:00:00	9:00:00	81	21	2152	1800	1.20
2007	DS-255-02-04 ถ.ราชวิถี-ก่อนขึ้นสะพานกรุงธน	13.77928359	100.5062991	bma	working	2022-10-09T00:00:00	9:00:00	10:00:00	76	16	2059	1800	1.14
2008	DS-255-02-04 ถ.ราชวิถี-ก่อนขึ้นสะพานกรุงธน	13.77928359	100.5062991	bma	working	2022-10-09T00:00:00	10:00:00	11:00:00	83	15	2038	1800	1.13
2009	DS-255-02-04 ถ.ราชวิถี-ก่อนขึ้นสะพานกรุงธน	13.77928359	100.5062991	bma	holiday	2022-10-09T00:00:00	11:00:00	12:00:00	80	23	3595	1800	2.00
2010	DS-255-02-04 ถ.ราชวิถี-ก่อนขึ้นสะพานกรุงธน	13.77928359	100.5062991	bma	working	2022-10-09T00:00:00	12:00:00	13:00:00	78	17	2304	1800	1.28
2011	DS-255-02-04 ถ.ราชวิถี-ก่อนขึ้นสะพานกรุงธน	13.77928359	100.5062991	bma	working	2022-10-09T00:00:00	13:00:00	14:00:00	78	18	2102	1800	1.17
2012	DS-255-02-04 ถ.ราชวิถี-ก่อนขึ้นสะพานกรุงธน	13.77928359	100.5062991	bma	working	2022-10-09T00:00:00	14:00:00	15:00:00	77	14	2154	1800	1.20
2013	DS-255-02-04 ถ.ราชวิถี-ก่อนขึ้นสะพานกรุงธน	13.77928359	100.5062991	bma	working	2022-10-09T00:00:00	15:00:00	16:00:00	75	17	1947	1800	1.08
2014	DS-255-02-04 ถ.ราชวิถี-ก่อนขึ้นสะพานกรุงธน	13.77928359	100.5062991	bma	holiday	2022-10-09T00:00:00	16:00:00	17:00:00	107	24	4229	1800	2.35
2015	DS-255-02-04 ถ.ราชวิถี-ก่อนขึ้นสะพานกรุงธน	13.77928359	100.5062991	bma	holiday	2022-10-09T00:00:00	17:00:00	18:00:00	85	27	2710	1800	1.51
2016	DS-255-02-04 ถ.ราชวิถี-ก่อนขึ้นสะพานกรุงธน	13.77928359	100.5062991	bma	holiday	2022-10-09T00:00:00	18:00:00	19:00:00	74	20	2745	1800	1.53
2017	DS-255-02-04 ถ.ราชวิถี-ก่อนขึ้นสะพานกรุงธน	13.77928359	100.5062991	bma	working	2022-11-09T00:00:00	5:00:00	6:00:00	73	6	573	1800	0.32
2018	DS-255-02-04 ถ.ราชวิถี-ก่อนขึ้นสะพานกรุงธน	13.77928359	100.5062991	bma	holiday	2022-11-09T00:00:00	6:00:00	7:00:00	52	18	1560	1800	0.87
2019	DS-255-02-04 ถ.ราชวิถี-ก่อนขึ้นสะพานกรุงธน	13.77928359	100.5062991	bma	holiday	2022-11-09T00:00:00	7:00:00	8:00:00	54	9	740	1800	0.41
2020	DS-255-02-04 ถ.ราชวิถี-ก่อนขึ้นสะพานกรุงธน	13.77928359	100.5062991	bma	holiday	2022-11-09T00:00:00	8:00:00	9:00:00	48	12	1420	1800	0.79
2021	DS-255-02-04 ถ.ราชวิถี-ก่อนขึ้นสะพานกรุงธน	13.77928359	100.5062991	bma	working	2022-11-09T00:00:00	9:00:00	10:00:00	44	10	1459	1800	0.81
2022	DS-255-02-04 ถ.ราชวิถี-ก่อนขึ้นสะพานกรุงธน	13.77928359	100.5062991	bma	working	2022-11-09T00:00:00	10:00:00	11:00:00	49	9	1513	1800	0.84
2023	DS-255-02-04 ถ.ราชวิถี-ก่อนขึ้นสะพานกรุงธน	13.77928359	100.5062991	bma	holiday	2022-11-09T00:00:00	11:00:00	12:00:00	49	14	2188	1800	1.22
2024	DS-255-02-04 ถ.ราชวิถี-ก่อนขึ้นสะพานกรุงธน	13.77928359	100.5062991	bma	working	2022-11-09T00:00:00	12:00:00	13:00:00	47	10	1399	1800	0.78
2025	DS-255-02-04 ถ.ราชวิถี-ก่อนขึ้นสะพานกรุงธน	13.77928359	100.5062991	bma	working	2022-11-09T00:00:00	13:00:00	14:00:00	47	11	1422	1800	0.79
2026	DS-255-02-04 ถ.ราชวิถี-ก่อนขึ้นสะพานกรุงธน	13.77928359	100.5062991	bma	working	2022-11-09T00:00:00	14:00:00	15:00:00	45	9	1228	1800	0.68
2027	DS-255-02-04 ถ.ราชวิถี-ก่อนขึ้นสะพานกรุงธน	13.77928359	100.5062991	bma	working	2022-11-09T00:00:00	15:00:00	16:00:00	45	11	1360	1800	0.76
2028	DS-255-02-04 ถ.ราชวิถี-ก่อนขึ้นสะพานกรุงธน	13.77928359	100.5062991	bma	holiday	2022-11-09T00:00:00	16:00:00	17:00:00	66	15	2510	1800	1.39
2029	DS-255-02-04 ถ.ราชวิถี-ก่อนขึ้นสะพานกรุงธน	13.77928359	100.5062991	bma	holiday	2022-11-09T00:00:00	17:00:00	18:00:00	50	16	1799	1800	1.00
2030	DS-255-02-04 ถ.ราชวิถี-ก่อนขึ้นสะพานกรุงธน	13.77928359	100.5062991	bma	holiday	2022-11-09T00:00:00	18:00:00	19:00:00	44	12	1823	1800	1.01
2031	PN-254-02-02 ถ.ราชดำเนินนอก-ถ.กรุงเกษม	13.76055074	100.5078264	bma	working	2022-05-09T00:00:00	5:00:00	6:00:00	129	11	438	2700	0.16
2032	PN-254-02-02 ถ.ราชดำเนินนอก-ถ.กรุงเกษม	13.76055074	100.5078264	bma	working	2022-05-09T00:00:00	6:00:00	7:00:00	91	32	1196	2700	0.44
2033	PN-254-02-02 ถ.ราชดำเนินนอก-ถ.กรุงเกษม	13.76055074	100.5078264	bma	working	2022-05-09T00:00:00	7:00:00	8:00:00	97	22	261	2700	0.10
2034	PN-254-02-02 ถ.ราชดำเนินนอก-ถ.กรุงเกษม	13.76055074	100.5078264	bma	working	2022-05-09T00:00:00	8:00:00	9:00:00	91	30	2358	2700	0.87
2035	PN-254-02-02 ถ.ราชดำเนินนอก-ถ.กรุงเกษม	13.76055074	100.5078264	bma	working	2022-05-09T00:00:00	9:00:00	10:00:00	85	29	2234	2700	0.83
2036	PN-254-02-02 ถ.ราชดำเนินนอก-ถ.กรุงเกษม	13.76055074	100.5078264	bma	working	2022-05-09T00:00:00	10:00:00	11:00:00	90	28	2159	2700	0.80
2037	PN-254-02-02 ถ.ราชดำเนินนอก-ถ.กรุงเกษม	13.76055074	100.5078264	bma	working	2022-05-09T00:00:00	11:00:00	12:00:00	85	20	1503	2700	0.56
2038	PN-254-02-02 ถ.ราชดำเนินนอก-ถ.กรุงเกษม	13.76055074	100.5078264	bma	working	2022-05-09T00:00:00	12:00:00	13:00:00	91	28	2093	2700	0.78
2039	PN-254-02-02 ถ.ราชดำเนินนอก-ถ.กรุงเกษม	13.76055074	100.5078264	bma	working	2022-05-09T00:00:00	13:00:00	14:00:00	92	26	2178	2700	0.81
2040	PN-254-02-02 ถ.ราชดำเนินนอก-ถ.กรุงเกษม	13.76055074	100.5078264	bma	working	2022-05-09T00:00:00	14:00:00	15:00:00	85	28	2218	2700	0.82
2041	PN-254-02-02 ถ.ราชดำเนินนอก-ถ.กรุงเกษม	13.76055074	100.5078264	bma	working	2022-05-09T00:00:00	15:00:00	16:00:00	90	29	2243	2700	0.83
2042	PN-254-02-02 ถ.ราชดำเนินนอก-ถ.กรุงเกษม	13.76055074	100.5078264	bma	working	2022-05-09T00:00:00	16:00:00	17:00:00	78	62	2270	2700	0.84
2043	PN-254-02-02 ถ.ราชดำเนินนอก-ถ.กรุงเกษม	13.76055074	100.5078264	bma	working	2022-05-09T00:00:00	17:00:00	18:00:00	105	54	900	2700	0.33
2044	PN-254-02-02 ถ.ราชดำเนินนอก-ถ.กรุงเกษม	13.76055074	100.5078264	bma	working	2022-05-09T00:00:00	18:00:00	19:00:00	102	39	530	2700	0.20
2045	PN-254-02-02 ถ.ราชดำเนินนอก-ถ.กรุงเกษม	13.76055074	100.5078264	bma	working	2022-06-09T00:00:00	5:00:00	6:00:00	141	9	334	2700	0.12
2046	PN-254-02-02 ถ.ราชดำเนินนอก-ถ.กรุงเกษม	13.76055074	100.5078264	bma	working	2022-06-09T00:00:00	6:00:00	7:00:00	99	28	958	2700	0.35
2047	PN-254-02-02 ถ.ราชดำเนินนอก-ถ.กรุงเกษม	13.76055074	100.5078264	bma	working	2022-06-09T00:00:00	7:00:00	8:00:00	93	22	698	2700	0.26
2048	PN-254-02-02 ถ.ราชดำเนินนอก-ถ.กรุงเกษม	13.76055074	100.5078264	bma	working	2022-06-09T00:00:00	8:00:00	9:00:00	86	26	1338	2700	0.50
2049	PN-254-02-02 ถ.ราชดำเนินนอก-ถ.กรุงเกษม	13.76055074	100.5078264	bma	working	2022-06-09T00:00:00	9:00:00	10:00:00	83	24	1274	2700	0.47
2050	PN-254-02-02 ถ.ราชดำเนินนอก-ถ.กรุงเกษม	13.76055074	100.5078264	bma	working	2022-06-09T00:00:00	10:00:00	11:00:00	80	20	1281	2700	0.47
2051	PN-254-02-02 ถ.ราชดำเนินนอก-ถ.กรุงเกษม	13.76055074	100.5078264	bma	working	2022-06-09T00:00:00	11:00:00	12:00:00	86	21	1669	2700	0.62
2052	PN-254-02-02 ถ.ราชดำเนินนอก-ถ.กรุงเกษม	13.76055074	100.5078264	bma	working	2022-06-09T00:00:00	12:00:00	13:00:00	84	22	1194	2700	0.44
2053	PN-254-02-02 ถ.ราชดำเนินนอก-ถ.กรุงเกษม	13.76055074	100.5078264	bma	working	2022-06-09T00:00:00	13:00:00	14:00:00	83	22	1304	2700	0.48
2054	PN-254-02-02 ถ.ราชดำเนินนอก-ถ.กรุงเกษม	13.76055074	100.5078264	bma	working	2022-06-09T00:00:00	14:00:00	15:00:00	84	22	1292	2700	0.48
2055	PN-254-02-02 ถ.ราชดำเนินนอก-ถ.กรุงเกษม	13.76055074	100.5078264	bma	working	2022-06-09T00:00:00	15:00:00	16:00:00	83	22	1213	2700	0.45
2056	PN-254-02-02 ถ.ราชดำเนินนอก-ถ.กรุงเกษม	13.76055074	100.5078264	bma	working	2022-06-09T00:00:00	16:00:00	17:00:00	86	49	2262	2700	0.84
2057	PN-254-02-02 ถ.ราชดำเนินนอก-ถ.กรุงเกษม	13.76055074	100.5078264	bma	working	2022-06-09T00:00:00	17:00:00	18:00:00	95	48	1145	2700	0.42
2058	PN-254-02-02 ถ.ราชดำเนินนอก-ถ.กรุงเกษม	13.76055074	100.5078264	bma	working	2022-06-09T00:00:00	18:00:00	19:00:00	98	34	651	2700	0.24
2059	PN-254-02-02 ถ.ราชดำเนินนอก-ถ.กรุงเกษม	13.76055074	100.5078264	bma	working	2022-07-09T00:00:00	5:00:00	6:00:00	138	8	241	2700	0.09
2060	PN-254-02-02 ถ.ราชดำเนินนอก-ถ.กรุงเกษม	13.76055074	100.5078264	bma	working	2022-07-09T00:00:00	6:00:00	7:00:00	96	25	674	2700	0.25
2061	PN-254-02-02 ถ.ราชดำเนินนอก-ถ.กรุงเกษม	13.76055074	100.5078264	bma	working	2022-07-09T00:00:00	7:00:00	8:00:00	94	21	1040	2700	0.39
2062	PN-254-02-02 ถ.ราชดำเนินนอก-ถ.กรุงเกษม	13.76055074	100.5078264	bma	working	2022-07-09T00:00:00	8:00:00	9:00:00	86	19	499	2700	0.18
2063	PN-254-02-02 ถ.ราชดำเนินนอก-ถ.กรุงเกษม	13.76055074	100.5078264	bma	working	2022-07-09T00:00:00	9:00:00	10:00:00	80	19	363	2700	0.13
2064	PN-254-02-02 ถ.ราชดำเนินนอก-ถ.กรุงเกษม	13.76055074	100.5078264	bma	working	2022-07-09T00:00:00	10:00:00	11:00:00	79	15	354	2700	0.13
2065	PN-254-02-02 ถ.ราชดำเนินนอก-ถ.กรุงเกษม	13.76055074	100.5078264	bma	working	2022-07-09T00:00:00	11:00:00	12:00:00	88	22	1748	2700	0.65
2066	PN-254-02-02 ถ.ราชดำเนินนอก-ถ.กรุงเกษม	13.76055074	100.5078264	bma	working	2022-07-09T00:00:00	12:00:00	13:00:00	81	17	329	2700	0.12
2067	PN-254-02-02 ถ.ราชดำเนินนอก-ถ.กรุงเกษม	13.76055074	100.5078264	bma	working	2022-07-09T00:00:00	13:00:00	14:00:00	82	18	315	2700	0.12
2068	PN-254-02-02 ถ.ราชดำเนินนอก-ถ.กรุงเกษม	13.76055074	100.5078264	bma	working	2022-07-09T00:00:00	14:00:00	15:00:00	86	16	372	2700	0.14
2069	PN-254-02-02 ถ.ราชดำเนินนอก-ถ.กรุงเกษม	13.76055074	100.5078264	bma	working	2022-07-09T00:00:00	15:00:00	16:00:00	81	15	358	2700	0.13
2070	PN-254-02-02 ถ.ราชดำเนินนอก-ถ.กรุงเกษม	13.76055074	100.5078264	bma	working	2022-07-09T00:00:00	16:00:00	17:00:00	91	30	2179	2700	0.81
2071	PN-254-02-02 ถ.ราชดำเนินนอก-ถ.กรุงเกษม	13.76055074	100.5078264	bma	working	2022-07-09T00:00:00	17:00:00	18:00:00	83	34	1337	2700	0.50
2072	PN-254-02-02 ถ.ราชดำเนินนอก-ถ.กรุงเกษม	13.76055074	100.5078264	bma	working	2022-07-09T00:00:00	18:00:00	19:00:00	89	27	802	2700	0.30
2073	PN-254-02-02 ถ.ราชดำเนินนอก-ถ.กรุงเกษม	13.76055074	100.5078264	bma	working	2022-08-09T00:00:00	5:00:00	6:00:00	138	7	351	2700	0.13
2074	PN-254-02-02 ถ.ราชดำเนินนอก-ถ.กรุงเกษม	13.76055074	100.5078264	bma	working	2022-08-09T00:00:00	6:00:00	7:00:00	96	20	964	2700	0.36
2075	PN-254-02-02 ถ.ราชดำเนินนอก-ถ.กรุงเกษม	13.76055074	100.5078264	bma	working	2022-08-09T00:00:00	7:00:00	8:00:00	98	20	1227	2700	0.45
2076	PN-254-02-02 ถ.ราชดำเนินนอก-ถ.กรุงเกษม	13.76055074	100.5078264	bma	working	2022-08-09T00:00:00	8:00:00	9:00:00	83	17	373	2700	0.14
2077	PN-254-02-02 ถ.ราชดำเนินนอก-ถ.กรุงเกษม	13.76055074	100.5078264	bma	working	2022-08-09T00:00:00	9:00:00	10:00:00	81	14	309	2700	0.11
2078	PN-254-02-02 ถ.ราชดำเนินนอก-ถ.กรุงเกษม	13.76055074	100.5078264	bma	working	2022-08-09T00:00:00	10:00:00	11:00:00	85	14	288	2700	0.11
2079	PN-254-02-02 ถ.ราชดำเนินนอก-ถ.กรุงเกษม	13.76055074	100.5078264	bma	working	2022-08-09T00:00:00	11:00:00	12:00:00	90	21	1726	2700	0.64
2080	PN-254-02-02 ถ.ราชดำเนินนอก-ถ.กรุงเกษม	13.76055074	100.5078264	bma	working	2022-08-09T00:00:00	12:00:00	13:00:00	79	13	235	2700	0.09
2081	PN-254-02-02 ถ.ราชดำเนินนอก-ถ.กรุงเกษม	13.76055074	100.5078264	bma	working	2022-08-09T00:00:00	13:00:00	14:00:00	79	13	299	2700	0.11
2082	PN-254-02-02 ถ.ราชดำเนินนอก-ถ.กรุงเกษม	13.76055074	100.5078264	bma	working	2022-08-09T00:00:00	14:00:00	15:00:00	83	13	274	2700	0.10
2083	PN-254-02-02 ถ.ราชดำเนินนอก-ถ.กรุงเกษม	13.76055074	100.5078264	bma	working	2022-08-09T00:00:00	15:00:00	16:00:00	80	12	303	2700	0.11
2084	PN-254-02-02 ถ.ราชดำเนินนอก-ถ.กรุงเกษม	13.76055074	100.5078264	bma	working	2022-08-09T00:00:00	16:00:00	17:00:00	91	38	1791	2700	0.66
2085	PN-254-02-02 ถ.ราชดำเนินนอก-ถ.กรุงเกษม	13.76055074	100.5078264	bma	working	2022-08-09T00:00:00	17:00:00	18:00:00	87	33	1290	2700	0.48
2086	PN-254-02-02 ถ.ราชดำเนินนอก-ถ.กรุงเกษม	13.76055074	100.5078264	bma	working	2022-08-09T00:00:00	18:00:00	19:00:00	87	25	1235	2700	0.46
2087	PN-254-02-02 ถ.ราชดำเนินนอก-ถ.กรุงเกษม	13.76055074	100.5078264	bma	working	2022-09-09T00:00:00	5:00:00	6:00:00	132	5	408	2700	0.15
2088	PN-254-02-02 ถ.ราชดำเนินนอก-ถ.กรุงเกษม	13.76055074	100.5078264	bma	working	2022-09-09T00:00:00	6:00:00	7:00:00	94	13	1122	2700	0.42
2089	PN-254-02-02 ถ.ราชดำเนินนอก-ถ.กรุงเกษม	13.76055074	100.5078264	bma	working	2022-09-09T00:00:00	7:00:00	8:00:00	96	18	1452	2700	0.54
2090	PN-254-02-02 ถ.ราชดำเนินนอก-ถ.กรุงเกษม	13.76055074	100.5078264	bma	working	2022-09-09T00:00:00	8:00:00	9:00:00	86	13	264	2700	0.10
2091	PN-254-02-02 ถ.ราชดำเนินนอก-ถ.กรุงเกษม	13.76055074	100.5078264	bma	working	2022-09-09T00:00:00	9:00:00	10:00:00	79	10	258	2700	0.10
2092	PN-254-02-02 ถ.ราชดำเนินนอก-ถ.กรุงเกษม	13.76055074	100.5078264	bma	working	2022-09-09T00:00:00	10:00:00	11:00:00	81	12	126	2700	0.05
2093	PN-254-02-02 ถ.ราชดำเนินนอก-ถ.กรุงเกษม	13.76055074	100.5078264	bma	working	2022-09-09T00:00:00	11:00:00	12:00:00	86	20	1606	2700	0.59
2094	PN-254-02-02 ถ.ราชดำเนินนอก-ถ.กรุงเกษม	13.76055074	100.5078264	bma	working	2022-09-09T00:00:00	12:00:00	13:00:00	79	8	163	2700	0.06
2095	PN-254-02-02 ถ.ราชดำเนินนอก-ถ.กรุงเกษม	13.76055074	100.5078264	bma	working	2022-09-09T00:00:00	13:00:00	14:00:00	81	9	294	2700	0.11
2096	PN-254-02-02 ถ.ราชดำเนินนอก-ถ.กรุงเกษม	13.76055074	100.5078264	bma	working	2022-09-09T00:00:00	14:00:00	15:00:00	81	13	121	2700	0.04
2097	PN-254-02-02 ถ.ราชดำเนินนอก-ถ.กรุงเกษม	13.76055074	100.5078264	bma	working	2022-09-09T00:00:00	15:00:00	16:00:00	80	10	163	2700	0.06
2098	PN-254-02-02 ถ.ราชดำเนินนอก-ถ.กรุงเกษม	13.76055074	100.5078264	bma	working	2022-09-09T00:00:00	16:00:00	17:00:00	94	46	1372	2700	0.51
2099	PN-254-02-02 ถ.ราชดำเนินนอก-ถ.กรุงเกษม	13.76055074	100.5078264	bma	working	2022-09-09T00:00:00	17:00:00	18:00:00	92	29	1195	2700	0.44
2100	PN-254-02-02 ถ.ราชดำเนินนอก-ถ.กรุงเกษม	13.76055074	100.5078264	bma	working	2022-09-09T00:00:00	18:00:00	19:00:00	84	26	1753	2700	0.65
2101	PN-254-02-02 ถ.ราชดำเนินนอก-ถ.กรุงเกษม	13.76055074	100.5078264	bma	working	2022-10-09T00:00:00	5:00:00	6:00:00	135	5	226	2700	0.08
2102	PN-254-02-02 ถ.ราชดำเนินนอก-ถ.กรุงเกษม	13.76055074	100.5078264	bma	working	2022-10-09T00:00:00	6:00:00	7:00:00	94	13	634	2700	0.23
2103	PN-254-02-02 ถ.ราชดำเนินนอก-ถ.กรุงเกษม	13.76055074	100.5078264	bma	holiday	2022-10-09T00:00:00	7:00:00	8:00:00	107	19	735	2700	0.27
2104	PN-254-02-02 ถ.ราชดำเนินนอก-ถ.กรุงเกษม	13.76055074	100.5078264	bma	holiday	2022-10-09T00:00:00	8:00:00	9:00:00	100	13	1614	2700	0.60
2105	PN-254-02-02 ถ.ราชดำเนินนอก-ถ.กรุงเกษม	13.76055074	100.5078264	bma	working	2022-10-09T00:00:00	9:00:00	10:00:00	98	11	1535	2700	0.57
2106	PN-254-02-02 ถ.ราชดำเนินนอก-ถ.กรุงเกษม	13.76055074	100.5078264	bma	working	2022-10-09T00:00:00	10:00:00	11:00:00	98	12	1514	2700	0.56
2107	PN-254-02-02 ถ.ราชดำเนินนอก-ถ.กรุงเกษม	13.76055074	100.5078264	bma	holiday	2022-10-09T00:00:00	11:00:00	12:00:00	100	12	1664	2700	0.62
2108	PN-254-02-02 ถ.ราชดำเนินนอก-ถ.กรุงเกษม	13.76055074	100.5078264	bma	working	2022-10-09T00:00:00	12:00:00	13:00:00	101	8	1507	2700	0.56
2109	PN-254-02-02 ถ.ราชดำเนินนอก-ถ.กรุงเกษม	13.76055074	100.5078264	bma	working	2022-10-09T00:00:00	13:00:00	14:00:00	99	9	1486	2700	0.55
2110	PN-254-02-02 ถ.ราชดำเนินนอก-ถ.กรุงเกษม	13.76055074	100.5078264	bma	working	2022-10-09T00:00:00	14:00:00	15:00:00	97	9	1525	2700	0.56
2111	PN-254-02-02 ถ.ราชดำเนินนอก-ถ.กรุงเกษม	13.76055074	100.5078264	bma	working	2022-10-09T00:00:00	15:00:00	16:00:00	96	12	1526	2700	0.57
2112	PN-254-02-02 ถ.ราชดำเนินนอก-ถ.กรุงเกษม	13.76055074	100.5078264	bma	holiday	2022-10-09T00:00:00	16:00:00	17:00:00	79	26	1082	2700	0.40
2113	PN-254-02-02 ถ.ราชดำเนินนอก-ถ.กรุงเกษม	13.76055074	100.5078264	bma	holiday	2022-10-09T00:00:00	17:00:00	18:00:00	87	20	801	2700	0.30
2114	PN-254-02-02 ถ.ราชดำเนินนอก-ถ.กรุงเกษม	13.76055074	100.5078264	bma	holiday	2022-10-09T00:00:00	18:00:00	19:00:00	95	16	342	2700	0.13
2115	PN-254-02-02 ถ.ราชดำเนินนอก-ถ.กรุงเกษม	13.76055074	100.5078264	bma	working	2022-11-09T00:00:00	5:00:00	6:00:00	133	4	172	2700	0.06
2116	PN-254-02-02 ถ.ราชดำเนินนอก-ถ.กรุงเกษม	13.76055074	100.5078264	bma	working	2022-11-09T00:00:00	6:00:00	7:00:00	94	13	488	2700	0.18
2117	PN-254-02-02 ถ.ราชดำเนินนอก-ถ.กรุงเกษม	13.76055074	100.5078264	bma	holiday	2022-11-09T00:00:00	7:00:00	8:00:00	61	11	481	2700	0.18
2118	PN-254-02-02 ถ.ราชดำเนินนอก-ถ.กรุงเกษม	13.76055074	100.5078264	bma	holiday	2022-11-09T00:00:00	8:00:00	9:00:00	64	8	1028	2700	0.38
2119	PN-254-02-02 ถ.ราชดำเนินนอก-ถ.กรุงเกษม	13.76055074	100.5078264	bma	working	2022-11-09T00:00:00	9:00:00	10:00:00	58	7	917	2700	0.34
2120	PN-254-02-02 ถ.ราชดำเนินนอก-ถ.กรุงเกษม	13.76055074	100.5078264	bma	working	2022-11-09T00:00:00	10:00:00	11:00:00	61	7	937	2700	0.35
2121	PN-254-02-02 ถ.ราชดำเนินนอก-ถ.กรุงเกษม	13.76055074	100.5078264	bma	holiday	2022-11-09T00:00:00	11:00:00	12:00:00	59	8	998	2700	0.37
2122	PN-254-02-02 ถ.ราชดำเนินนอก-ถ.กรุงเกษม	13.76055074	100.5078264	bma	working	2022-11-09T00:00:00	12:00:00	13:00:00	63	5	956	2700	0.35
2123	PN-254-02-02 ถ.ราชดำเนินนอก-ถ.กรุงเกษม	13.76055074	100.5078264	bma	working	2022-11-09T00:00:00	13:00:00	14:00:00	60	5	929	2700	0.34
2124	PN-254-02-02 ถ.ราชดำเนินนอก-ถ.กรุงเกษม	13.76055074	100.5078264	bma	working	2022-11-09T00:00:00	14:00:00	15:00:00	59	6	925	2700	0.34
2125	PN-254-02-02 ถ.ราชดำเนินนอก-ถ.กรุงเกษม	13.76055074	100.5078264	bma	working	2022-11-09T00:00:00	15:00:00	16:00:00	62	7	917	2700	0.34
2126	PN-254-02-02 ถ.ราชดำเนินนอก-ถ.กรุงเกษม	13.76055074	100.5078264	bma	holiday	2022-11-09T00:00:00	16:00:00	17:00:00	49	15	739	2700	0.27
2127	PN-254-02-02 ถ.ราชดำเนินนอก-ถ.กรุงเกษม	13.76055074	100.5078264	bma	holiday	2022-11-09T00:00:00	17:00:00	18:00:00	53	12	598	2700	0.22
2128	PN-254-02-02 ถ.ราชดำเนินนอก-ถ.กรุงเกษม	13.76055074	100.5078264	bma	holiday	2022-11-09T00:00:00	18:00:00	19:00:00	62	10	225	2700	0.08
2129	PN-256-02-04 ถ.ราชดำเนินนอก-ถ.จักรพรรดิพงษ์	13.76044906	100.5080208	bma	working	2022-05-09T00:00:00	5:00:00	6:00:00	62	12	226	2700	0.08
2130	PN-256-02-04 ถ.ราชดำเนินนอก-ถ.จักรพรรดิพงษ์	13.76044906	100.5080208	bma	working	2022-05-09T00:00:00	6:00:00	7:00:00	43	37	632	2700	0.23
2131	PN-256-02-04 ถ.ราชดำเนินนอก-ถ.จักรพรรดิพงษ์	13.76044906	100.5080208	bma	working	2022-05-09T00:00:00	7:00:00	8:00:00	59	70	1130	2700	0.42
2132	PN-256-02-04 ถ.ราชดำเนินนอก-ถ.จักรพรรดิพงษ์	13.76044906	100.5080208	bma	working	2022-05-09T00:00:00	8:00:00	9:00:00	50	53	956	2700	0.35
2133	PN-256-02-04 ถ.ราชดำเนินนอก-ถ.จักรพรรดิพงษ์	13.76044906	100.5080208	bma	working	2022-05-09T00:00:00	9:00:00	10:00:00	46	46	807	2700	0.30
2134	PN-256-02-04 ถ.ราชดำเนินนอก-ถ.จักรพรรดิพงษ์	13.76044906	100.5080208	bma	working	2022-05-09T00:00:00	10:00:00	11:00:00	45	52	929	2700	0.34
2135	PN-256-02-04 ถ.ราชดำเนินนอก-ถ.จักรพรรดิพงษ์	13.76044906	100.5080208	bma	working	2022-05-09T00:00:00	11:00:00	12:00:00	43	86	1349	2700	0.50
2136	PN-256-02-04 ถ.ราชดำเนินนอก-ถ.จักรพรรดิพงษ์	13.76044906	100.5080208	bma	working	2022-05-09T00:00:00	12:00:00	13:00:00	49	48	878	2700	0.33
2137	PN-256-02-04 ถ.ราชดำเนินนอก-ถ.จักรพรรดิพงษ์	13.76044906	100.5080208	bma	working	2022-05-09T00:00:00	13:00:00	14:00:00	46	54	820	2700	0.30
2138	PN-256-02-04 ถ.ราชดำเนินนอก-ถ.จักรพรรดิพงษ์	13.76044906	100.5080208	bma	working	2022-05-09T00:00:00	14:00:00	15:00:00	45	47	871	2700	0.32
2139	PN-256-02-04 ถ.ราชดำเนินนอก-ถ.จักรพรรดิพงษ์	13.76044906	100.5080208	bma	working	2022-05-09T00:00:00	15:00:00	16:00:00	45	51	848	2700	0.31
2140	PN-256-02-04 ถ.ราชดำเนินนอก-ถ.จักรพรรดิพงษ์	13.76044906	100.5080208	bma	working	2022-05-09T00:00:00	16:00:00	17:00:00	60	94	572	2700	0.21
2141	PN-256-02-04 ถ.ราชดำเนินนอก-ถ.จักรพรรดิพงษ์	13.76044906	100.5080208	bma	working	2022-05-09T00:00:00	17:00:00	18:00:00	35	84	3181	2700	1.18
2142	PN-256-02-04 ถ.ราชดำเนินนอก-ถ.จักรพรรดิพงษ์	13.76044906	100.5080208	bma	working	2022-05-09T00:00:00	18:00:00	19:00:00	64	65	3321	2700	1.23
2143	PN-256-02-04 ถ.ราชดำเนินนอก-ถ.จักรพรรดิพงษ์	13.76044906	100.5080208	bma	working	2022-06-09T00:00:00	5:00:00	6:00:00	81	15	440	2700	0.16
2144	PN-256-02-04 ถ.ราชดำเนินนอก-ถ.จักรพรรดิพงษ์	13.76044906	100.5080208	bma	working	2022-06-09T00:00:00	6:00:00	7:00:00	58	46	1269	2700	0.47
2145	PN-256-02-04 ถ.ราชดำเนินนอก-ถ.จักรพรรดิพงษ์	13.76044906	100.5080208	bma	working	2022-06-09T00:00:00	7:00:00	8:00:00	73	40	1184	2700	0.44
2146	PN-256-02-04 ถ.ราชดำเนินนอก-ถ.จักรพรรดิพงษ์	13.76044906	100.5080208	bma	working	2022-06-09T00:00:00	8:00:00	9:00:00	62	51	1029	2700	0.38
2147	PN-256-02-04 ถ.ราชดำเนินนอก-ถ.จักรพรรดิพงษ์	13.76044906	100.5080208	bma	working	2022-06-09T00:00:00	9:00:00	10:00:00	59	45	920	2700	0.34
2148	PN-256-02-04 ถ.ราชดำเนินนอก-ถ.จักรพรรดิพงษ์	13.76044906	100.5080208	bma	working	2022-06-09T00:00:00	10:00:00	11:00:00	59	47	1026	2700	0.38
2149	PN-256-02-04 ถ.ราชดำเนินนอก-ถ.จักรพรรดิพงษ์	13.76044906	100.5080208	bma	working	2022-06-09T00:00:00	11:00:00	12:00:00	49	62	1544	2700	0.57
2150	PN-256-02-04 ถ.ราชดำเนินนอก-ถ.จักรพรรดิพงษ์	13.76044906	100.5080208	bma	working	2022-06-09T00:00:00	12:00:00	13:00:00	56	44	986	2700	0.37
2151	PN-256-02-04 ถ.ราชดำเนินนอก-ถ.จักรพรรดิพงษ์	13.76044906	100.5080208	bma	working	2022-06-09T00:00:00	13:00:00	14:00:00	60	49	904	2700	0.33
2152	PN-256-02-04 ถ.ราชดำเนินนอก-ถ.จักรพรรดิพงษ์	13.76044906	100.5080208	bma	working	2022-06-09T00:00:00	14:00:00	15:00:00	58	43	1000	2700	0.37
2153	PN-256-02-04 ถ.ราชดำเนินนอก-ถ.จักรพรรดิพงษ์	13.76044906	100.5080208	bma	working	2022-06-09T00:00:00	15:00:00	16:00:00	60	47	979	2700	0.36
2154	PN-256-02-04 ถ.ราชดำเนินนอก-ถ.จักรพรรดิพงษ์	13.76044906	100.5080208	bma	working	2022-06-09T00:00:00	16:00:00	17:00:00	49	87	585	2700	0.22
2155	PN-256-02-04 ถ.ราชดำเนินนอก-ถ.จักรพรรดิพงษ์	13.76044906	100.5080208	bma	working	2022-06-09T00:00:00	17:00:00	18:00:00	31	84	2788	2700	1.03
2156	PN-256-02-04 ถ.ราชดำเนินนอก-ถ.จักรพรรดิพงษ์	13.76044906	100.5080208	bma	working	2022-06-09T00:00:00	18:00:00	19:00:00	44	67	3062	2700	1.13
2157	PN-256-02-04 ถ.ราชดำเนินนอก-ถ.จักรพรรดิพงษ์	13.76044906	100.5080208	bma	working	2022-07-09T00:00:00	5:00:00	6:00:00	95	17	622	2700	0.23
2158	PN-256-02-04 ถ.ราชดำเนินนอก-ถ.จักรพรรดิพงษ์	13.76044906	100.5080208	bma	working	2022-07-09T00:00:00	6:00:00	7:00:00	68	52	1744	2700	0.65
2159	PN-256-02-04 ถ.ราชดำเนินนอก-ถ.จักรพรรดิพงษ์	13.76044906	100.5080208	bma	working	2022-07-09T00:00:00	7:00:00	8:00:00	94	10	1207	2700	0.45
2160	PN-256-02-04 ถ.ราชดำเนินนอก-ถ.จักรพรรดิพงษ์	13.76044906	100.5080208	bma	working	2022-07-09T00:00:00	8:00:00	9:00:00	76	48	1174	2700	0.43
2161	PN-256-02-04 ถ.ราชดำเนินนอก-ถ.จักรพรรดิพงษ์	13.76044906	100.5080208	bma	working	2022-07-09T00:00:00	9:00:00	10:00:00	71	42	1005	2700	0.37
2162	PN-256-02-04 ถ.ราชดำเนินนอก-ถ.จักรพรรดิพงษ์	13.76044906	100.5080208	bma	working	2022-07-09T00:00:00	10:00:00	11:00:00	70	44	1141	2700	0.42
2163	PN-256-02-04 ถ.ราชดำเนินนอก-ถ.จักรพรรดิพงษ์	13.76044906	100.5080208	bma	working	2022-07-09T00:00:00	11:00:00	12:00:00	51	44	1653	2700	0.61
2164	PN-256-02-04 ถ.ราชดำเนินนอก-ถ.จักรพรรดิพงษ์	13.76044906	100.5080208	bma	working	2022-07-09T00:00:00	12:00:00	13:00:00	67	44	1072	2700	0.40
2165	PN-256-02-04 ถ.ราชดำเนินนอก-ถ.จักรพรรดิพงษ์	13.76044906	100.5080208	bma	working	2022-07-09T00:00:00	13:00:00	14:00:00	71	41	1013	2700	0.38
2166	PN-256-02-04 ถ.ราชดำเนินนอก-ถ.จักรพรรดิพงษ์	13.76044906	100.5080208	bma	working	2022-07-09T00:00:00	14:00:00	15:00:00	73	38	1102	2700	0.41
2167	PN-256-02-04 ถ.ราชดำเนินนอก-ถ.จักรพรรดิพงษ์	13.76044906	100.5080208	bma	working	2022-07-09T00:00:00	15:00:00	16:00:00	69	42	1132	2700	0.42
2168	PN-256-02-04 ถ.ราชดำเนินนอก-ถ.จักรพรรดิพงษ์	13.76044906	100.5080208	bma	working	2022-07-09T00:00:00	16:00:00	17:00:00	37	85	588	2700	0.22
2169	PN-256-02-04 ถ.ราชดำเนินนอก-ถ.จักรพรรดิพงษ์	13.76044906	100.5080208	bma	working	2022-07-09T00:00:00	17:00:00	18:00:00	27	85	2305	2700	0.85
2170	PN-256-02-04 ถ.ราชดำเนินนอก-ถ.จักรพรรดิพงษ์	13.76044906	100.5080208	bma	working	2022-07-09T00:00:00	18:00:00	19:00:00	21	77	2944	2700	1.09
2171	PN-256-02-04 ถ.ราชดำเนินนอก-ถ.จักรพรรดิพงษ์	13.76044906	100.5080208	bma	working	2022-08-09T00:00:00	5:00:00	6:00:00	103	11	632	2700	0.23
2172	PN-256-02-04 ถ.ราชดำเนินนอก-ถ.จักรพรรดิพงษ์	13.76044906	100.5080208	bma	working	2022-08-09T00:00:00	6:00:00	7:00:00	74	34	1752	2700	0.65
2173	PN-256-02-04 ถ.ราชดำเนินนอก-ถ.จักรพรรดิพงษ์	13.76044906	100.5080208	bma	working	2022-08-09T00:00:00	7:00:00	8:00:00	74	18	1363	2700	0.50
2174	PN-256-02-04 ถ.ราชดำเนินนอก-ถ.จักรพรรดิพงษ์	13.76044906	100.5080208	bma	working	2022-08-09T00:00:00	8:00:00	9:00:00	70	41	1595	2700	0.59
2175	PN-256-02-04 ถ.ราชดำเนินนอก-ถ.จักรพรรดิพงษ์	13.76044906	100.5080208	bma	working	2022-08-09T00:00:00	9:00:00	10:00:00	64	39	1502	2700	0.56
2176	PN-256-02-04 ถ.ราชดำเนินนอก-ถ.จักรพรรดิพงษ์	13.76044906	100.5080208	bma	working	2022-08-09T00:00:00	10:00:00	11:00:00	66	38	1472	2700	0.55
2177	PN-256-02-04 ถ.ราชดำเนินนอก-ถ.จักรพรรดิพงษ์	13.76044906	100.5080208	bma	working	2022-08-09T00:00:00	11:00:00	12:00:00	50	51	1220	2700	0.45
2178	PN-256-02-04 ถ.ราชดำเนินนอก-ถ.จักรพรรดิพงษ์	13.76044906	100.5080208	bma	working	2022-08-09T00:00:00	12:00:00	13:00:00	67	37	1451	2700	0.54
2179	PN-256-02-04 ถ.ราชดำเนินนอก-ถ.จักรพรรดิพงษ์	13.76044906	100.5080208	bma	working	2022-08-09T00:00:00	13:00:00	14:00:00	69	36	1443	2700	0.53
2180	PN-256-02-04 ถ.ราชดำเนินนอก-ถ.จักรพรรดิพงษ์	13.76044906	100.5080208	bma	working	2022-08-09T00:00:00	14:00:00	15:00:00	64	39	1478	2700	0.55
2181	PN-256-02-04 ถ.ราชดำเนินนอก-ถ.จักรพรรดิพงษ์	13.76044906	100.5080208	bma	working	2022-08-09T00:00:00	15:00:00	16:00:00	65	39	1480	2700	0.55
2182	PN-256-02-04 ถ.ราชดำเนินนอก-ถ.จักรพรรดิพงษ์	13.76044906	100.5080208	bma	working	2022-08-09T00:00:00	16:00:00	17:00:00	42	77	1759	2700	0.65
2183	PN-256-02-04 ถ.ราชดำเนินนอก-ถ.จักรพรรดิพงษ์	13.76044906	100.5080208	bma	working	2022-08-09T00:00:00	17:00:00	18:00:00	37	80	2609	2700	0.97
2184	PN-256-02-04 ถ.ราชดำเนินนอก-ถ.จักรพรรดิพงษ์	13.76044906	100.5080208	bma	working	2022-08-09T00:00:00	18:00:00	19:00:00	13	76	1891	2700	0.70
2185	PN-256-02-04 ถ.ราชดำเนินนอก-ถ.จักรพรรดิพงษ์	13.76044906	100.5080208	bma	working	2022-09-09T00:00:00	5:00:00	6:00:00	125	6	516	2700	0.19
2186	PN-256-02-04 ถ.ราชดำเนินนอก-ถ.จักรพรรดิพงษ์	13.76044906	100.5080208	bma	working	2022-09-09T00:00:00	6:00:00	7:00:00	87	17	1596	2700	0.59
2187	PN-256-02-04 ถ.ราชดำเนินนอก-ถ.จักรพรรดิพงษ์	13.76044906	100.5080208	bma	working	2022-09-09T00:00:00	7:00:00	8:00:00	57	23	1483	2700	0.55
2188	PN-256-02-04 ถ.ราชดำเนินนอก-ถ.จักรพรรดิพงษ์	13.76044906	100.5080208	bma	working	2022-09-09T00:00:00	8:00:00	9:00:00	63	39	2052	2700	0.76
2189	PN-256-02-04 ถ.ราชดำเนินนอก-ถ.จักรพรรดิพงษ์	13.76044906	100.5080208	bma	working	2022-09-09T00:00:00	9:00:00	10:00:00	59	36	1981	2700	0.73
2190	PN-256-02-04 ถ.ราชดำเนินนอก-ถ.จักรพรรดิพงษ์	13.76044906	100.5080208	bma	working	2022-09-09T00:00:00	10:00:00	11:00:00	58	33	1947	2700	0.72
2191	PN-256-02-04 ถ.ราชดำเนินนอก-ถ.จักรพรรดิพงษ์	13.76044906	100.5080208	bma	working	2022-09-09T00:00:00	11:00:00	12:00:00	52	59	775	2700	0.29
2192	PN-256-02-04 ถ.ราชดำเนินนอก-ถ.จักรพรรดิพงษ์	13.76044906	100.5080208	bma	working	2022-09-09T00:00:00	12:00:00	13:00:00	57	35	1865	2700	0.69
2193	PN-256-02-04 ถ.ราชดำเนินนอก-ถ.จักรพรรดิพงษ์	13.76044906	100.5080208	bma	working	2022-09-09T00:00:00	13:00:00	14:00:00	60	34	1873	2700	0.69
2194	PN-256-02-04 ถ.ราชดำเนินนอก-ถ.จักรพรรดิพงษ์	13.76044906	100.5080208	bma	working	2022-09-09T00:00:00	14:00:00	15:00:00	56	35	1879	2700	0.70
2195	PN-256-02-04 ถ.ราชดำเนินนอก-ถ.จักรพรรดิพงษ์	13.76044906	100.5080208	bma	working	2022-09-09T00:00:00	15:00:00	16:00:00	61	33	1857	2700	0.69
2196	PN-256-02-04 ถ.ราชดำเนินนอก-ถ.จักรพรรดิพงษ์	13.76044906	100.5080208	bma	working	2022-09-09T00:00:00	16:00:00	17:00:00	43	68	2961	2700	1.10
2197	PN-256-02-04 ถ.ราชดำเนินนอก-ถ.จักรพรรดิพงษ์	13.76044906	100.5080208	bma	working	2022-09-09T00:00:00	17:00:00	18:00:00	51	78	2787	2700	1.03
2198	PN-256-02-04 ถ.ราชดำเนินนอก-ถ.จักรพรรดิพงษ์	13.76044906	100.5080208	bma	working	2022-09-09T00:00:00	18:00:00	19:00:00	3	81	914	2700	0.34
2199	PN-256-02-04 ถ.ราชดำเนินนอก-ถ.จักรพรรดิพงษ์	13.76044906	100.5080208	bma	working	2022-10-09T00:00:00	5:00:00	6:00:00	122	6	363	2700	0.13
2200	PN-256-02-04 ถ.ราชดำเนินนอก-ถ.จักรพรรดิพงษ์	13.76044906	100.5080208	bma	working	2022-10-09T00:00:00	6:00:00	7:00:00	87	17	1092	2700	0.40
2201	PN-256-02-04 ถ.ราชดำเนินนอก-ถ.จักรพรรดิพงษ์	13.76044906	100.5080208	bma	holiday	2022-10-09T00:00:00	7:00:00	8:00:00	64	23	1344	2700	0.50
2202	PN-256-02-04 ถ.ราชดำเนินนอก-ถ.จักรพรรดิพงษ์	13.76044906	100.5080208	bma	holiday	2022-10-09T00:00:00	8:00:00	9:00:00	95	15	1330	2700	0.49
2203	PN-256-02-04 ถ.ราชดำเนินนอก-ถ.จักรพรรดิพงษ์	13.76044906	100.5080208	bma	working	2022-10-09T00:00:00	9:00:00	10:00:00	93	12	1295	2700	0.48
2204	PN-256-02-04 ถ.ราชดำเนินนอก-ถ.จักรพรรดิพงษ์	13.76044906	100.5080208	bma	working	2022-10-09T00:00:00	10:00:00	11:00:00	91	9	1289	2700	0.48
2205	PN-256-02-04 ถ.ราชดำเนินนอก-ถ.จักรพรรดิพงษ์	13.76044906	100.5080208	bma	holiday	2022-10-09T00:00:00	11:00:00	12:00:00	36	60	535	2700	0.20
2206	PN-256-02-04 ถ.ราชดำเนินนอก-ถ.จักรพรรดิพงษ์	13.76044906	100.5080208	bma	working	2022-10-09T00:00:00	12:00:00	13:00:00	89	12	1136	2700	0.42
2207	PN-256-02-04 ถ.ราชดำเนินนอก-ถ.จักรพรรดิพงษ์	13.76044906	100.5080208	bma	working	2022-10-09T00:00:00	13:00:00	14:00:00	97	13	1112	2700	0.41
2208	PN-256-02-04 ถ.ราชดำเนินนอก-ถ.จักรพรรดิพงษ์	13.76044906	100.5080208	bma	working	2022-10-09T00:00:00	14:00:00	15:00:00	94	11	1149	2700	0.43
2209	PN-256-02-04 ถ.ราชดำเนินนอก-ถ.จักรพรรดิพงษ์	13.76044906	100.5080208	bma	working	2022-10-09T00:00:00	15:00:00	16:00:00	92	10	1172	2700	0.43
2210	PN-256-02-04 ถ.ราชดำเนินนอก-ถ.จักรพรรดิพงษ์	13.76044906	100.5080208	bma	holiday	2022-10-09T00:00:00	16:00:00	17:00:00	66	96	654	2700	0.24
2211	PN-256-02-04 ถ.ราชดำเนินนอก-ถ.จักรพรรดิพงษ์	13.76044906	100.5080208	bma	holiday	2022-10-09T00:00:00	17:00:00	18:00:00	42	61	2073	2700	0.77
2212	PN-256-02-04 ถ.ราชดำเนินนอก-ถ.จักรพรรดิพงษ์	13.76044906	100.5080208	bma	holiday	2022-10-09T00:00:00	18:00:00	19:00:00	76	58	755	2700	0.28
2213	PN-256-02-04 ถ.ราชดำเนินนอก-ถ.จักรพรรดิพงษ์	13.76044906	100.5080208	bma	working	2022-11-09T00:00:00	5:00:00	6:00:00	124	5	244	2700	0.09
2214	PN-256-02-04 ถ.ราชดำเนินนอก-ถ.จักรพรรดิพงษ์	13.76044906	100.5080208	bma	working	2022-11-09T00:00:00	6:00:00	7:00:00	87	17	692	2700	0.26
2215	PN-256-02-04 ถ.ราชดำเนินนอก-ถ.จักรพรรดิพงษ์	13.76044906	100.5080208	bma	holiday	2022-11-09T00:00:00	7:00:00	8:00:00	42	14	824	2700	0.31
2216	PN-256-02-04 ถ.ราชดำเนินนอก-ถ.จักรพรรดิพงษ์	13.76044906	100.5080208	bma	holiday	2022-11-09T00:00:00	8:00:00	9:00:00	59	9	922	2700	0.34
2217	PN-256-02-04 ถ.ราชดำเนินนอก-ถ.จักรพรรดิพงษ์	13.76044906	100.5080208	bma	working	2022-11-09T00:00:00	9:00:00	10:00:00	55	7	879	2700	0.33
2218	PN-256-02-04 ถ.ราชดำเนินนอก-ถ.จักรพรรดิพงษ์	13.76044906	100.5080208	bma	working	2022-11-09T00:00:00	10:00:00	11:00:00	57	6	806	2700	0.30
2219	PN-256-02-04 ถ.ราชดำเนินนอก-ถ.จักรพรรดิพงษ์	13.76044906	100.5080208	bma	holiday	2022-11-09T00:00:00	11:00:00	12:00:00	22	36	343	2700	0.13
2220	PN-256-02-04 ถ.ราชดำเนินนอก-ถ.จักรพรรดิพงษ์	13.76044906	100.5080208	bma	working	2022-11-09T00:00:00	12:00:00	13:00:00	56	8	769	2700	0.28
2221	PN-256-02-04 ถ.ราชดำเนินนอก-ถ.จักรพรรดิพงษ์	13.76044906	100.5080208	bma	working	2022-11-09T00:00:00	13:00:00	14:00:00	54	8	723	2700	0.27
2222	PN-256-02-04 ถ.ราชดำเนินนอก-ถ.จักรพรรดิพงษ์	13.76044906	100.5080208	bma	working	2022-11-09T00:00:00	14:00:00	15:00:00	56	7	755	2700	0.28
2223	PN-256-02-04 ถ.ราชดำเนินนอก-ถ.จักรพรรดิพงษ์	13.76044906	100.5080208	bma	working	2022-11-09T00:00:00	15:00:00	16:00:00	57	6	730	2700	0.27
2224	PN-256-02-04 ถ.ราชดำเนินนอก-ถ.จักรพรรดิพงษ์	13.76044906	100.5080208	bma	holiday	2022-11-09T00:00:00	16:00:00	17:00:00	41	56	459	2700	0.17
2225	PN-256-02-04 ถ.ราชดำเนินนอก-ถ.จักรพรรดิพงษ์	13.76044906	100.5080208	bma	holiday	2022-11-09T00:00:00	17:00:00	18:00:00	25	36	1267	2700	0.47
2226	PN-256-02-04 ถ.ราชดำเนินนอก-ถ.จักรพรรดิพงษ์	13.76044906	100.5080208	bma	holiday	2022-11-09T00:00:00	18:00:00	19:00:00	46	37	473	2700	0.18
2227	PY-10-02-03 ถ.พระราม 6-ถ.ราชวิถี	13.7751251	100.5311351	bma	working	2022-05-09T00:00:00	5:00:00	6:00:00	143	5	717	2700	0.27
2228	PY-10-02-03 ถ.พระราม 6-ถ.ราชวิถี	13.7751251	100.5311351	bma	working	2022-05-09T00:00:00	6:00:00	7:00:00	102	15	2048	2700	0.76
2229	PY-10-02-03 ถ.พระราม 6-ถ.ราชวิถี	13.7751251	100.5311351	bma	working	2022-05-09T00:00:00	7:00:00	8:00:00	83	22	4253	2700	1.58
2230	PY-10-02-03 ถ.พระราม 6-ถ.ราชวิถี	13.7751251	100.5311351	bma	working	2022-05-09T00:00:00	8:00:00	9:00:00	88	53	4735	2700	1.75
2231	PY-10-02-03 ถ.พระราม 6-ถ.ราชวิถี	13.7751251	100.5311351	bma	working	2022-05-09T00:00:00	9:00:00	10:00:00	80	48	4831	2700	1.79
2232	PY-10-02-03 ถ.พระราม 6-ถ.ราชวิถี	13.7751251	100.5311351	bma	working	2022-05-09T00:00:00	10:00:00	11:00:00	83	53	4694	2700	1.74
2233	PY-10-02-03 ถ.พระราม 6-ถ.ราชวิถี	13.7751251	100.5311351	bma	working	2022-05-09T00:00:00	11:00:00	12:00:00	86	22	2433	2700	0.90
2234	PY-10-02-03 ถ.พระราม 6-ถ.ราชวิถี	13.7751251	100.5311351	bma	working	2022-05-09T00:00:00	12:00:00	13:00:00	86	52	4640	2700	1.72
2235	PY-10-02-03 ถ.พระราม 6-ถ.ราชวิถี	13.7751251	100.5311351	bma	working	2022-05-09T00:00:00	13:00:00	14:00:00	82	52	4771	2700	1.77
2236	PY-10-02-03 ถ.พระราม 6-ถ.ราชวิถี	13.7751251	100.5311351	bma	working	2022-05-09T00:00:00	14:00:00	15:00:00	84	49	4793	2700	1.78
2237	PY-10-02-03 ถ.พระราม 6-ถ.ราชวิถี	13.7751251	100.5311351	bma	working	2022-05-09T00:00:00	15:00:00	16:00:00	79	52	4634	2700	1.72
2238	PY-10-02-03 ถ.พระราม 6-ถ.ราชวิถี	13.7751251	100.5311351	bma	working	2022-05-09T00:00:00	16:00:00	17:00:00	103	23	3596	2700	1.33
2239	PY-10-02-03 ถ.พระราม 6-ถ.ราชวิถี	13.7751251	100.5311351	bma	working	2022-05-09T00:00:00	17:00:00	18:00:00	101	22	2341	2700	0.87
2240	PY-10-02-03 ถ.พระราม 6-ถ.ราชวิถี	13.7751251	100.5311351	bma	working	2022-05-09T00:00:00	18:00:00	19:00:00	95	18	1421	2700	0.53
2241	PY-10-02-03 ถ.พระราม 6-ถ.ราชวิถี	13.7751251	100.5311351	bma	working	2022-06-09T00:00:00	5:00:00	6:00:00	146	5	626	2700	0.23
2242	PY-10-02-03 ถ.พระราม 6-ถ.ราชวิถี	13.7751251	100.5311351	bma	working	2022-06-09T00:00:00	6:00:00	7:00:00	102	15	2043	2700	0.76
2243	PY-10-02-03 ถ.พระราม 6-ถ.ราชวิถี	13.7751251	100.5311351	bma	working	2022-06-09T00:00:00	7:00:00	8:00:00	80	20	3793	2700	1.40
2244	PY-10-02-03 ถ.พระราม 6-ถ.ราชวิถี	13.7751251	100.5311351	bma	working	2022-06-09T00:00:00	8:00:00	9:00:00	89	36	3595	2700	1.33
2245	PY-10-02-03 ถ.พระราม 6-ถ.ราชวิถี	13.7751251	100.5311351	bma	working	2022-06-09T00:00:00	9:00:00	10:00:00	88	32	3586	2700	1.33
2246	PY-10-02-03 ถ.พระราม 6-ถ.ราชวิถี	13.7751251	100.5311351	bma	working	2022-06-09T00:00:00	10:00:00	11:00:00	85	36	3541	2700	1.31
2247	PY-10-02-03 ถ.พระราม 6-ถ.ราชวิถี	13.7751251	100.5311351	bma	working	2022-06-09T00:00:00	11:00:00	12:00:00	94	24	2305	2700	0.85
2248	PY-10-02-03 ถ.พระราม 6-ถ.ราชวิถี	13.7751251	100.5311351	bma	working	2022-06-09T00:00:00	12:00:00	13:00:00	88	34	3498	2700	1.30
2249	PY-10-02-03 ถ.พระราม 6-ถ.ราชวิถี	13.7751251	100.5311351	bma	working	2022-06-09T00:00:00	13:00:00	14:00:00	88	34	3562	2700	1.32
2250	PY-10-02-03 ถ.พระราม 6-ถ.ราชวิถี	13.7751251	100.5311351	bma	working	2022-06-09T00:00:00	14:00:00	15:00:00	89	32	3524	2700	1.31
2251	PY-10-02-03 ถ.พระราม 6-ถ.ราชวิถี	13.7751251	100.5311351	bma	working	2022-06-09T00:00:00	15:00:00	16:00:00	88	33	3512	2700	1.30
2252	PY-10-02-03 ถ.พระราม 6-ถ.ราชวิถี	13.7751251	100.5311351	bma	working	2022-06-09T00:00:00	16:00:00	17:00:00	92	33	3721	2700	1.38
2253	PY-10-02-03 ถ.พระราม 6-ถ.ราชวิถี	13.7751251	100.5311351	bma	working	2022-06-09T00:00:00	17:00:00	18:00:00	89	23	2260	2700	0.84
2254	PY-10-02-03 ถ.พระราม 6-ถ.ราชวิถี	13.7751251	100.5311351	bma	working	2022-06-09T00:00:00	18:00:00	19:00:00	101	19	1418	2700	0.53
2255	PY-10-02-03 ถ.พระราม 6-ถ.ราชวิถี	13.7751251	100.5311351	bma	working	2022-07-09T00:00:00	5:00:00	6:00:00	151	5	672	2700	0.25
2256	PY-10-02-03 ถ.พระราม 6-ถ.ราชวิถี	13.7751251	100.5311351	bma	working	2022-07-09T00:00:00	6:00:00	7:00:00	105	15	1997	2700	0.74
2257	PY-10-02-03 ถ.พระราม 6-ถ.ราชวิถี	13.7751251	100.5311351	bma	working	2022-07-09T00:00:00	7:00:00	8:00:00	78	18	3230	2700	1.20
2258	PY-10-02-03 ถ.พระราม 6-ถ.ราชวิถี	13.7751251	100.5311351	bma	working	2022-07-09T00:00:00	8:00:00	9:00:00	91	20	2387	2700	0.88
2259	PY-10-02-03 ถ.พระราม 6-ถ.ราชวิถี	13.7751251	100.5311351	bma	working	2022-07-09T00:00:00	9:00:00	10:00:00	93	17	2314	2700	0.86
2260	PY-10-02-03 ถ.พระราม 6-ถ.ราชวิถี	13.7751251	100.5311351	bma	working	2022-07-09T00:00:00	10:00:00	11:00:00	92	18	2207	2700	0.82
2261	PY-10-02-03 ถ.พระราม 6-ถ.ราชวิถี	13.7751251	100.5311351	bma	working	2022-07-09T00:00:00	11:00:00	12:00:00	104	24	2127	2700	0.79
2262	PY-10-02-03 ถ.พระราม 6-ถ.ราชวิถี	13.7751251	100.5311351	bma	working	2022-07-09T00:00:00	12:00:00	13:00:00	88	19	2242	2700	0.83
2263	PY-10-02-03 ถ.พระราม 6-ถ.ราชวิถี	13.7751251	100.5311351	bma	working	2022-07-09T00:00:00	13:00:00	14:00:00	88	14	2287	2700	0.85
2264	PY-10-02-03 ถ.พระราม 6-ถ.ราชวิถี	13.7751251	100.5311351	bma	working	2022-07-09T00:00:00	14:00:00	15:00:00	91	14	2204	2700	0.82
2265	PY-10-02-03 ถ.พระราม 6-ถ.ราชวิถี	13.7751251	100.5311351	bma	working	2022-07-09T00:00:00	15:00:00	16:00:00	90	14	2319	2700	0.86
2266	PY-10-02-03 ถ.พระราม 6-ถ.ราชวิถี	13.7751251	100.5311351	bma	working	2022-07-09T00:00:00	16:00:00	17:00:00	88	42	3800	2700	1.41
2267	PY-10-02-03 ถ.พระราม 6-ถ.ราชวิถี	13.7751251	100.5311351	bma	working	2022-07-09T00:00:00	17:00:00	18:00:00	80	22	2099	2700	0.78
2268	PY-10-02-03 ถ.พระราม 6-ถ.ราชวิถี	13.7751251	100.5311351	bma	working	2022-07-09T00:00:00	18:00:00	19:00:00	100	21	1470	2700	0.54
2269	PY-10-02-03 ถ.พระราม 6-ถ.ราชวิถี	13.7751251	100.5311351	bma	working	2022-08-09T00:00:00	5:00:00	6:00:00	134	6	804	2700	0.30
2270	PY-10-02-03 ถ.พระราม 6-ถ.ราชวิถี	13.7751251	100.5311351	bma	working	2022-08-09T00:00:00	6:00:00	7:00:00	93	17	2623	2700	0.97
2271	PY-10-02-03 ถ.พระราม 6-ถ.ราชวิถี	13.7751251	100.5311351	bma	working	2022-08-09T00:00:00	7:00:00	8:00:00	87	26	3649	2700	1.35
2272	PY-10-02-03 ถ.พระราม 6-ถ.ราชวิถี	13.7751251	100.5311351	bma	working	2022-08-09T00:00:00	8:00:00	9:00:00	87	23	2478	2700	0.92
2273	PY-10-02-03 ถ.พระราม 6-ถ.ราชวิถี	13.7751251	100.5311351	bma	working	2022-08-09T00:00:00	9:00:00	10:00:00	83	19	2367	2700	0.88
2274	PY-10-02-03 ถ.พระราม 6-ถ.ราชวิถี	13.7751251	100.5311351	bma	working	2022-08-09T00:00:00	10:00:00	11:00:00	85	20	2310	2700	0.86
2275	PY-10-02-03 ถ.พระราม 6-ถ.ราชวิถี	13.7751251	100.5311351	bma	working	2022-08-09T00:00:00	11:00:00	12:00:00	104	25	2354	2700	0.87
2276	PY-10-02-03 ถ.พระราม 6-ถ.ราชวิถี	13.7751251	100.5311351	bma	working	2022-08-09T00:00:00	12:00:00	13:00:00	87	23	2411	2700	0.89
2277	PY-10-02-03 ถ.พระราม 6-ถ.ราชวิถี	13.7751251	100.5311351	bma	working	2022-08-09T00:00:00	13:00:00	14:00:00	88	18	2383	2700	0.88
2278	PY-10-02-03 ถ.พระราม 6-ถ.ราชวิถี	13.7751251	100.5311351	bma	working	2022-08-09T00:00:00	14:00:00	15:00:00	91	19	2344	2700	0.87
2279	PY-10-02-03 ถ.พระราม 6-ถ.ราชวิถี	13.7751251	100.5311351	bma	working	2022-08-09T00:00:00	15:00:00	16:00:00	81	17	2411	2700	0.89
2280	PY-10-02-03 ถ.พระราม 6-ถ.ราชวิถี	13.7751251	100.5311351	bma	working	2022-08-09T00:00:00	16:00:00	17:00:00	90	28	2706	2700	1.00
2281	PY-10-02-03 ถ.พระราม 6-ถ.ราชวิถี	13.7751251	100.5311351	bma	working	2022-08-09T00:00:00	17:00:00	18:00:00	83	25	2464	2700	0.91
2282	PY-10-02-03 ถ.พระราม 6-ถ.ราชวิถี	13.7751251	100.5311351	bma	working	2022-08-09T00:00:00	18:00:00	19:00:00	90	18	1438	2700	0.53
2283	PY-10-02-03 ถ.พระราม 6-ถ.ราชวิถี	13.7751251	100.5311351	bma	working	2022-09-09T00:00:00	5:00:00	6:00:00	123	6	1107	2700	0.41
2284	PY-10-02-03 ถ.พระราม 6-ถ.ราชวิถี	13.7751251	100.5311351	bma	working	2022-09-09T00:00:00	6:00:00	7:00:00	86	19	3259	2700	1.21
2285	PY-10-02-03 ถ.พระราม 6-ถ.ราชวิถี	13.7751251	100.5311351	bma	working	2022-09-09T00:00:00	7:00:00	8:00:00	90	35	4224	2700	1.56
2286	PY-10-02-03 ถ.พระราม 6-ถ.ราชวิถี	13.7751251	100.5311351	bma	working	2022-09-09T00:00:00	8:00:00	9:00:00	85	26	2515	2700	0.93
2287	PY-10-02-03 ถ.พระราม 6-ถ.ราชวิถี	13.7751251	100.5311351	bma	working	2022-09-09T00:00:00	9:00:00	10:00:00	77	22	2331	2700	0.86
2288	PY-10-02-03 ถ.พระราม 6-ถ.ราชวิถี	13.7751251	100.5311351	bma	working	2022-09-09T00:00:00	10:00:00	11:00:00	80	21	2391	2700	0.89
2289	PY-10-02-03 ถ.พระราม 6-ถ.ราชวิถี	13.7751251	100.5311351	bma	working	2022-09-09T00:00:00	11:00:00	12:00:00	108	25	2528	2700	0.94
2290	PY-10-02-03 ถ.พระราม 6-ถ.ราชวิถี	13.7751251	100.5311351	bma	working	2022-09-09T00:00:00	12:00:00	13:00:00	85	26	2466	2700	0.91
2291	PY-10-02-03 ถ.พระราม 6-ถ.ราชวิถี	13.7751251	100.5311351	bma	working	2022-09-09T00:00:00	13:00:00	14:00:00	88	23	2524	2700	0.93
2292	PY-10-02-03 ถ.พระราม 6-ถ.ราชวิถี	13.7751251	100.5311351	bma	working	2022-09-09T00:00:00	14:00:00	15:00:00	86	23	2399	2700	0.89
2293	PY-10-02-03 ถ.พระราม 6-ถ.ราชวิถี	13.7751251	100.5311351	bma	working	2022-09-09T00:00:00	15:00:00	16:00:00	80	21	2405	2700	0.89
2294	PY-10-02-03 ถ.พระราม 6-ถ.ราชวิถี	13.7751251	100.5311351	bma	working	2022-09-09T00:00:00	16:00:00	17:00:00	83	16	1566	2700	0.58
2295	PY-10-02-03 ถ.พระราม 6-ถ.ราชวิถี	13.7751251	100.5311351	bma	working	2022-09-09T00:00:00	17:00:00	18:00:00	80	26	2726	2700	1.01
2296	PY-10-02-03 ถ.พระราม 6-ถ.ราชวิถี	13.7751251	100.5311351	bma	working	2022-09-09T00:00:00	18:00:00	19:00:00	93	16	1419	2700	0.53
2297	PY-10-02-03 ถ.พระราม 6-ถ.ราชวิถี	13.7751251	100.5311351	bma	working	2022-10-09T00:00:00	5:00:00	6:00:00	123	6	383	2700	0.14
2298	PY-10-02-03 ถ.พระราม 6-ถ.ราชวิถี	13.7751251	100.5311351	bma	working	2022-10-09T00:00:00	6:00:00	7:00:00	86	19	1096	2700	0.41
2299	PY-10-02-03 ถ.พระราม 6-ถ.ราชวิถี	13.7751251	100.5311351	bma	holiday	2022-10-09T00:00:00	7:00:00	8:00:00	88	15	1549	2700	0.57
2300	PY-10-02-03 ถ.พระราม 6-ถ.ราชวิถี	13.7751251	100.5311351	bma	holiday	2022-10-09T00:00:00	8:00:00	9:00:00	100	20	1258	2700	0.47
2301	PY-10-02-03 ถ.พระราม 6-ถ.ราชวิถี	13.7751251	100.5311351	bma	working	2022-10-09T00:00:00	9:00:00	10:00:00	94	15	1080	2700	0.40
2302	PY-10-02-03 ถ.พระราม 6-ถ.ราชวิถี	13.7751251	100.5311351	bma	working	2022-10-09T00:00:00	10:00:00	11:00:00	96	18	1182	2700	0.44
2303	PY-10-02-03 ถ.พระราม 6-ถ.ราชวิถี	13.7751251	100.5311351	bma	holiday	2022-10-09T00:00:00	11:00:00	12:00:00	100	33	2886	2700	1.07
2304	PY-10-02-03 ถ.พระราม 6-ถ.ราชวิถี	13.7751251	100.5311351	bma	working	2022-10-09T00:00:00	12:00:00	13:00:00	100	15	1136	2700	0.42
2305	PY-10-02-03 ถ.พระราม 6-ถ.ราชวิถี	13.7751251	100.5311351	bma	working	2022-10-09T00:00:00	13:00:00	14:00:00	98	14	1149	2700	0.43
2306	PY-10-02-03 ถ.พระราม 6-ถ.ราชวิถี	13.7751251	100.5311351	bma	working	2022-10-09T00:00:00	14:00:00	15:00:00	96	15	1076	2700	0.40
2307	PY-10-02-03 ถ.พระราม 6-ถ.ราชวิถี	13.7751251	100.5311351	bma	working	2022-10-09T00:00:00	15:00:00	16:00:00	96	19	1206	2700	0.45
2308	PY-10-02-03 ถ.พระราม 6-ถ.ราชวิถี	13.7751251	100.5311351	bma	holiday	2022-10-09T00:00:00	16:00:00	17:00:00	107	22	1747	2700	0.65
2309	PY-10-02-03 ถ.พระราม 6-ถ.ราชวิถี	13.7751251	100.5311351	bma	holiday	2022-10-09T00:00:00	17:00:00	18:00:00	85	22	3536	2700	1.31
2310	PY-10-02-03 ถ.พระราม 6-ถ.ราชวิถี	13.7751251	100.5311351	bma	holiday	2022-10-09T00:00:00	18:00:00	19:00:00	114	13	1030	2700	0.38
2311	PY-10-02-03 ถ.พระราม 6-ถ.ราชวิถี	13.7751251	100.5311351	bma	working	2022-11-09T00:00:00	5:00:00	6:00:00	123	6	270	2700	0.10
2312	PY-10-02-03 ถ.พระราม 6-ถ.ราชวิถี	13.7751251	100.5311351	bma	working	2022-11-09T00:00:00	6:00:00	7:00:00	86	19	831	2700	0.31
2313	PY-10-02-03 ถ.พระราม 6-ถ.ราชวิถี	13.7751251	100.5311351	bma	holiday	2022-11-09T00:00:00	7:00:00	8:00:00	56	10	897	2700	0.33
2314	PY-10-02-03 ถ.พระราม 6-ถ.ราชวิถี	13.7751251	100.5311351	bma	holiday	2022-11-09T00:00:00	8:00:00	9:00:00	56	12	768	2700	0.28
2315	PY-10-02-03 ถ.พระราม 6-ถ.ราชวิถี	13.7751251	100.5311351	bma	working	2022-11-09T00:00:00	9:00:00	10:00:00	54	9	698	2700	0.26
2316	PY-10-02-03 ถ.พระราม 6-ถ.ราชวิถี	13.7751251	100.5311351	bma	working	2022-11-09T00:00:00	10:00:00	11:00:00	55	10	747	2700	0.28
2317	PY-10-02-03 ถ.พระราม 6-ถ.ราชวิถี	13.7751251	100.5311351	bma	holiday	2022-11-09T00:00:00	11:00:00	12:00:00	58	21	1837	2700	0.68
2318	PY-10-02-03 ถ.พระราม 6-ถ.ราชวิถี	13.7751251	100.5311351	bma	working	2022-11-09T00:00:00	12:00:00	13:00:00	57	9	733	2700	0.27
2319	PY-10-02-03 ถ.พระราม 6-ถ.ราชวิถี	13.7751251	100.5311351	bma	working	2022-11-09T00:00:00	13:00:00	14:00:00	60	9	742	2700	0.27
2320	PY-10-02-03 ถ.พระราม 6-ถ.ราชวิถี	13.7751251	100.5311351	bma	working	2022-11-09T00:00:00	14:00:00	15:00:00	56	9	727	2700	0.27
2321	PY-10-02-03 ถ.พระราม 6-ถ.ราชวิถี	13.7751251	100.5311351	bma	working	2022-11-09T00:00:00	15:00:00	16:00:00	55	12	770	2700	0.29
2322	PY-10-02-03 ถ.พระราม 6-ถ.ราชวิถี	13.7751251	100.5311351	bma	holiday	2022-11-09T00:00:00	16:00:00	17:00:00	63	13	1108	2700	0.41
2323	PY-10-02-03 ถ.พระราม 6-ถ.ราชวิถี	13.7751251	100.5311351	bma	holiday	2022-11-09T00:00:00	17:00:00	18:00:00	54	12	2183	2700	0.81
2324	PY-10-02-03 ถ.พระราม 6-ถ.ราชวิถี	13.7751251	100.5311351	bma	holiday	2022-11-09T00:00:00	18:00:00	19:00:00	64	8	735	2700	0.27
2325	PY-10-02-04 ถ.พระราม 6-ถ.ราชวิถี	13.77498666	100.5310886	bma	working	2022-05-09T00:00:00	5:00:00	6:00:00	11	34	459	3600	0.13
2326	PY-10-02-04 ถ.พระราม 6-ถ.ราชวิถี	13.77498666	100.5310886	bma	working	2022-05-09T00:00:00	6:00:00	7:00:00	8	102	1388	3600	0.39
2327	PY-10-02-04 ถ.พระราม 6-ถ.ราชวิถี	13.77498666	100.5310886	bma	working	2022-05-09T00:00:00	7:00:00	8:00:00	13	202	1129	3600	0.31
2328	PY-10-02-04 ถ.พระราม 6-ถ.ราชวิถี	13.77498666	100.5310886	bma	working	2022-05-09T00:00:00	8:00:00	9:00:00	10	201	904	3600	0.25
2329	PY-10-02-04 ถ.พระราม 6-ถ.ราชวิถี	13.77498666	100.5310886	bma	working	2022-05-09T00:00:00	9:00:00	10:00:00	6	202	761	3600	0.21
2330	PY-10-02-04 ถ.พระราม 6-ถ.ราชวิถี	13.77498666	100.5310886	bma	working	2022-05-09T00:00:00	10:00:00	11:00:00	6	201	787	3600	0.22
2331	PY-10-02-04 ถ.พระราม 6-ถ.ราชวิถี	13.77498666	100.5310886	bma	working	2022-05-09T00:00:00	11:00:00	12:00:00	8	175	1686	3600	0.47
2332	PY-10-02-04 ถ.พระราม 6-ถ.ราชวิถี	13.77498666	100.5310886	bma	working	2022-05-09T00:00:00	12:00:00	13:00:00	4	201	714	3600	0.20
2333	PY-10-02-04 ถ.พระราม 6-ถ.ราชวิถี	13.77498666	100.5310886	bma	working	2022-05-09T00:00:00	13:00:00	14:00:00	9	201	807	3600	0.22
2334	PY-10-02-04 ถ.พระราม 6-ถ.ราชวิถี	13.77498666	100.5310886	bma	working	2022-05-09T00:00:00	14:00:00	15:00:00	8	201	808	3600	0.22
2335	PY-10-02-04 ถ.พระราม 6-ถ.ราชวิถี	13.77498666	100.5310886	bma	working	2022-05-09T00:00:00	15:00:00	16:00:00	4	201	803	3600	0.22
2336	PY-10-02-04 ถ.พระราม 6-ถ.ราชวิถี	13.77498666	100.5310886	bma	working	2022-05-09T00:00:00	16:00:00	17:00:00	6	153	787	3600	0.22
2337	PY-10-02-04 ถ.พระราม 6-ถ.ราชวิถี	13.77498666	100.5310886	bma	working	2022-05-09T00:00:00	17:00:00	18:00:00	10	76	555	3600	0.15
2338	PY-10-02-04 ถ.พระราม 6-ถ.ราชวิถี	13.77498666	100.5310886	bma	working	2022-05-09T00:00:00	18:00:00	19:00:00	9	111	828	3600	0.23
2339	PY-10-02-04 ถ.พระราม 6-ถ.ราชวิถี	13.77498666	100.5310886	bma	working	2022-06-09T00:00:00	5:00:00	6:00:00	11	39	381	3600	0.11
2340	PY-10-02-04 ถ.พระราม 6-ถ.ราชวิถี	13.77498666	100.5310886	bma	working	2022-06-09T00:00:00	6:00:00	7:00:00	8	122	1139	3600	0.32
2341	PY-10-02-04 ถ.พระราม 6-ถ.ราชวิถี	13.77498666	100.5310886	bma	working	2022-06-09T00:00:00	7:00:00	8:00:00	11	201	1096	3600	0.30
2342	PY-10-02-04 ถ.พระราม 6-ถ.ราชวิถี	13.77498666	100.5310886	bma	working	2022-06-09T00:00:00	8:00:00	9:00:00	8	202	670	3600	0.19
2343	PY-10-02-04 ถ.พระราม 6-ถ.ราชวิถี	13.77498666	100.5310886	bma	working	2022-06-09T00:00:00	9:00:00	10:00:00	4	201	625	3600	0.17
2344	PY-10-02-04 ถ.พระราม 6-ถ.ราชวิถี	13.77498666	100.5310886	bma	working	2022-06-09T00:00:00	10:00:00	11:00:00	5	202	599	3600	0.17
2345	PY-10-02-04 ถ.พระราม 6-ถ.ราชวิถี	13.77498666	100.5310886	bma	working	2022-06-09T00:00:00	11:00:00	12:00:00	10	178	1643	3600	0.46
2346	PY-10-02-04 ถ.พระราม 6-ถ.ราชวิถี	13.77498666	100.5310886	bma	working	2022-06-09T00:00:00	12:00:00	13:00:00	5	201	547	3600	0.15
2347	PY-10-02-04 ถ.พระราม 6-ถ.ราชวิถี	13.77498666	100.5310886	bma	working	2022-06-09T00:00:00	13:00:00	14:00:00	6	201	611	3600	0.17
2348	PY-10-02-04 ถ.พระราม 6-ถ.ราชวิถี	13.77498666	100.5310886	bma	working	2022-06-09T00:00:00	14:00:00	15:00:00	6	201	620	3600	0.17
2349	PY-10-02-04 ถ.พระราม 6-ถ.ราชวิถี	13.77498666	100.5310886	bma	working	2022-06-09T00:00:00	15:00:00	16:00:00	4	201	664	3600	0.18
2350	PY-10-02-04 ถ.พระราม 6-ถ.ราชวิถี	13.77498666	100.5310886	bma	working	2022-06-09T00:00:00	16:00:00	17:00:00	8	179	775	3600	0.22
2351	PY-10-02-04 ถ.พระราม 6-ถ.ราชวิถี	13.77498666	100.5310886	bma	working	2022-06-09T00:00:00	17:00:00	18:00:00	9	99	663	3600	0.18
2352	PY-10-02-04 ถ.พระราม 6-ถ.ราชวิถี	13.77498666	100.5310886	bma	working	2022-06-09T00:00:00	18:00:00	19:00:00	8	138	905	3600	0.25
2353	PY-10-02-04 ถ.พระราม 6-ถ.ราชวิถี	13.77498666	100.5310886	bma	working	2022-07-09T00:00:00	5:00:00	6:00:00	11	44	222	3600	0.06
2354	PY-10-02-04 ถ.พระราม 6-ถ.ราชวิถี	13.77498666	100.5310886	bma	working	2022-07-09T00:00:00	6:00:00	7:00:00	8	140	679	3600	0.19
2355	PY-10-02-04 ถ.พระราม 6-ถ.ราชวิถี	13.77498666	100.5310886	bma	working	2022-07-09T00:00:00	7:00:00	8:00:00	8	202	992	3600	0.28
2356	PY-10-02-04 ถ.พระราม 6-ถ.ราชวิถี	13.77498666	100.5310886	bma	working	2022-07-09T00:00:00	8:00:00	9:00:00	6	201	421	3600	0.12
2357	PY-10-02-04 ถ.พระราม 6-ถ.ราชวิถี	13.77498666	100.5310886	bma	working	2022-07-09T00:00:00	9:00:00	10:00:00	3	202	477	3600	0.13
2358	PY-10-02-04 ถ.พระราม 6-ถ.ราชวิถี	13.77498666	100.5310886	bma	working	2022-07-09T00:00:00	10:00:00	11:00:00	4	201	346	3600	0.10
2359	PY-10-02-04 ถ.พระราม 6-ถ.ราชวิถี	13.77498666	100.5310886	bma	working	2022-07-09T00:00:00	11:00:00	12:00:00	12	176	1372	3600	0.38
2360	PY-10-02-04 ถ.พระราม 6-ถ.ราชวิถี	13.77498666	100.5310886	bma	working	2022-07-09T00:00:00	12:00:00	13:00:00	6	201	364	3600	0.10
2361	PY-10-02-04 ถ.พระราม 6-ถ.ราชวิถี	13.77498666	100.5310886	bma	working	2022-07-09T00:00:00	13:00:00	14:00:00	3	202	388	3600	0.11
2362	PY-10-02-04 ถ.พระราม 6-ถ.ราชวิถี	13.77498666	100.5310886	bma	working	2022-07-09T00:00:00	14:00:00	15:00:00	4	202	449	3600	0.12
2363	PY-10-02-04 ถ.พระราม 6-ถ.ราชวิถี	13.77498666	100.5310886	bma	working	2022-07-09T00:00:00	15:00:00	16:00:00	4	201	492	3600	0.14
2364	PY-10-02-04 ถ.พระราม 6-ถ.ราชวิถี	13.77498666	100.5310886	bma	working	2022-07-09T00:00:00	16:00:00	17:00:00	10	198	839	3600	0.23
2365	PY-10-02-04 ถ.พระราม 6-ถ.ราชวิถี	13.77498666	100.5310886	bma	working	2022-07-09T00:00:00	17:00:00	18:00:00	7	125	675	3600	0.19
2366	PY-10-02-04 ถ.พระราม 6-ถ.ราชวิถี	13.77498666	100.5310886	bma	working	2022-07-09T00:00:00	18:00:00	19:00:00	7	177	1000	3600	0.28
2367	PY-10-02-04 ถ.พระราม 6-ถ.ราชวิถี	13.77498666	100.5310886	bma	working	2022-08-09T00:00:00	5:00:00	6:00:00	18	41	295	3600	0.08
2368	PY-10-02-04 ถ.พระราม 6-ถ.ราชวิถี	13.77498666	100.5310886	bma	working	2022-08-09T00:00:00	6:00:00	7:00:00	13	120	860	3600	0.24
2369	PY-10-02-04 ถ.พระราม 6-ถ.ราชวิถี	13.77498666	100.5310886	bma	working	2022-08-09T00:00:00	7:00:00	8:00:00	8	202	1035	3600	0.29
2370	PY-10-02-04 ถ.พระราม 6-ถ.ราชวิถี	13.77498666	100.5310886	bma	working	2022-08-09T00:00:00	8:00:00	9:00:00	7	202	710	3600	0.20
2371	PY-10-02-04 ถ.พระราม 6-ถ.ราชวิถี	13.77498666	100.5310886	bma	working	2022-08-09T00:00:00	9:00:00	10:00:00	4	202	775	3600	0.22
2372	PY-10-02-04 ถ.พระราม 6-ถ.ราชวิถี	13.77498666	100.5310886	bma	working	2022-08-09T00:00:00	10:00:00	11:00:00	3	202	628	3600	0.17
2373	PY-10-02-04 ถ.พระราม 6-ถ.ราชวิถี	13.77498666	100.5310886	bma	working	2022-08-09T00:00:00	11:00:00	12:00:00	8	139	1064	3600	0.30
2374	PY-10-02-04 ถ.พระราม 6-ถ.ราชวิถี	13.77498666	100.5310886	bma	working	2022-08-09T00:00:00	12:00:00	13:00:00	4	201	664	3600	0.18
2375	PY-10-02-04 ถ.พระราม 6-ถ.ราชวิถี	13.77498666	100.5310886	bma	working	2022-08-09T00:00:00	13:00:00	14:00:00	3	201	684	3600	0.19
2376	PY-10-02-04 ถ.พระราม 6-ถ.ราชวิถี	13.77498666	100.5310886	bma	working	2022-08-09T00:00:00	14:00:00	15:00:00	3	202	733	3600	0.20
2377	PY-10-02-04 ถ.พระราม 6-ถ.ราชวิถี	13.77498666	100.5310886	bma	working	2022-08-09T00:00:00	15:00:00	16:00:00	3	201	754	3600	0.21
2378	PY-10-02-04 ถ.พระราม 6-ถ.ราชวิถี	13.77498666	100.5310886	bma	working	2022-08-09T00:00:00	16:00:00	17:00:00	11	178	848	3600	0.24
2379	PY-10-02-04 ถ.พระราม 6-ถ.ราชวิถี	13.77498666	100.5310886	bma	working	2022-08-09T00:00:00	17:00:00	18:00:00	10	201	801	3600	0.22
2380	PY-10-02-04 ถ.พระราม 6-ถ.ราชวิถี	13.77498666	100.5310886	bma	working	2022-08-09T00:00:00	18:00:00	19:00:00	9	116	895	3600	0.25
2381	PY-10-02-04 ถ.พระราม 6-ถ.ราชวิถี	13.77498666	100.5310886	bma	working	2022-09-09T00:00:00	5:00:00	6:00:00	24	28	311	3600	0.09
2382	PY-10-02-04 ถ.พระราม 6-ถ.ราชวิถี	13.77498666	100.5310886	bma	working	2022-09-09T00:00:00	6:00:00	7:00:00	17	90	955	3600	0.27
2383	PY-10-02-04 ถ.พระราม 6-ถ.ราชวิถี	13.77498666	100.5310886	bma	working	2022-09-09T00:00:00	7:00:00	8:00:00	8	202	1077	3600	0.30
2384	PY-10-02-04 ถ.พระราม 6-ถ.ราชวิถี	13.77498666	100.5310886	bma	working	2022-09-09T00:00:00	8:00:00	9:00:00	7	202	990	3600	0.28
2385	PY-10-02-04 ถ.พระราม 6-ถ.ราชวิถี	13.77498666	100.5310886	bma	working	2022-09-09T00:00:00	9:00:00	10:00:00	6	201	1060	3600	0.29
2386	PY-10-02-04 ถ.พระราม 6-ถ.ราชวิถี	13.77498666	100.5310886	bma	working	2022-09-09T00:00:00	10:00:00	11:00:00	3	202	870	3600	0.24
2387	PY-10-02-04 ถ.พระราม 6-ถ.ราชวิถี	13.77498666	100.5310886	bma	working	2022-09-09T00:00:00	11:00:00	12:00:00	5	113	598	3600	0.17
2388	PY-10-02-04 ถ.พระราม 6-ถ.ราชวิถี	13.77498666	100.5310886	bma	working	2022-09-09T00:00:00	12:00:00	13:00:00	3	202	937	3600	0.26
2389	PY-10-02-04 ถ.พระราม 6-ถ.ราชวิถี	13.77498666	100.5310886	bma	working	2022-09-09T00:00:00	13:00:00	14:00:00	2	202	1039	3600	0.29
2390	PY-10-02-04 ถ.พระราม 6-ถ.ราชวิถี	13.77498666	100.5310886	bma	working	2022-09-09T00:00:00	14:00:00	15:00:00	3	201	1038	3600	0.29
2391	PY-10-02-04 ถ.พระราม 6-ถ.ราชวิถี	13.77498666	100.5310886	bma	working	2022-09-09T00:00:00	15:00:00	16:00:00	2	201	981	3600	0.27
2392	PY-10-02-04 ถ.พระราม 6-ถ.ราชวิถี	13.77498666	100.5310886	bma	working	2022-09-09T00:00:00	16:00:00	17:00:00	12	180	888	3600	0.25
2393	PY-10-02-04 ถ.พระราม 6-ถ.ราชวิถี	13.77498666	100.5310886	bma	working	2022-09-09T00:00:00	17:00:00	18:00:00	12	202	792	3600	0.22
2394	PY-10-02-04 ถ.พระราม 6-ถ.ราชวิถี	13.77498666	100.5310886	bma	working	2022-09-09T00:00:00	18:00:00	19:00:00	10	55	803	3600	0.22
2395	PY-10-02-04 ถ.พระราม 6-ถ.ราชวิถี	13.77498666	100.5310886	bma	working	2022-10-09T00:00:00	5:00:00	6:00:00	27	65	414	3600	0.12
2396	PY-10-02-04 ถ.พระราม 6-ถ.ราชวิถี	13.77498666	100.5310886	bma	holiday	2022-10-09T00:00:00	6:00:00	7:00:00	19	196	1173	3600	0.33
2397	PY-10-02-04 ถ.พระราม 6-ถ.ราชวิถี	13.77498666	100.5310886	bma	holiday	2022-10-09T00:00:00	7:00:00	8:00:00	20	202	1366	3600	0.38
2398	PY-10-02-04 ถ.พระราม 6-ถ.ราชวิถี	13.77498666	100.5310886	bma	holiday	2022-10-09T00:00:00	8:00:00	9:00:00	17	186	999	3600	0.28
2399	PY-10-02-04 ถ.พระราม 6-ถ.ราชวิถี	13.77498666	100.5310886	bma	working	2022-10-09T00:00:00	9:00:00	10:00:00	15	192	980	3600	0.27
2400	PY-10-02-04 ถ.พระราม 6-ถ.ราชวิถี	13.77498666	100.5310886	bma	working	2022-10-09T00:00:00	10:00:00	11:00:00	11	187	973	3600	0.27
2401	PY-10-02-04 ถ.พระราม 6-ถ.ราชวิถี	13.77498666	100.5310886	bma	holiday	2022-10-09T00:00:00	11:00:00	12:00:00	8	202	969	3600	0.27
2402	PY-10-02-04 ถ.พระราม 6-ถ.ราชวิถี	13.77498666	100.5310886	bma	working	2022-10-09T00:00:00	12:00:00	13:00:00	12	186	1045	3600	0.29
2403	PY-10-02-04 ถ.พระราม 6-ถ.ราชวิถี	13.77498666	100.5310886	bma	working	2022-10-09T00:00:00	13:00:00	14:00:00	12	196	973	3600	0.27
2404	PY-10-02-04 ถ.พระราม 6-ถ.ราชวิถี	13.77498666	100.5310886	bma	working	2022-10-09T00:00:00	14:00:00	15:00:00	16	192	927	3600	0.26
2405	PY-10-02-04 ถ.พระราม 6-ถ.ราชวิถี	13.77498666	100.5310886	bma	working	2022-10-09T00:00:00	15:00:00	16:00:00	16	199	865	3600	0.24
2406	PY-10-02-04 ถ.พระราม 6-ถ.ราชวิถี	13.77498666	100.5310886	bma	holiday	2022-10-09T00:00:00	16:00:00	17:00:00	11	38	283	3600	0.08
2407	PY-10-02-04 ถ.พระราม 6-ถ.ราชวิถี	13.77498666	100.5310886	bma	holiday	2022-10-09T00:00:00	17:00:00	18:00:00	8	142	333	3600	0.09
2408	PY-10-02-04 ถ.พระราม 6-ถ.ราชวิถี	13.77498666	100.5310886	bma	holiday	2022-10-09T00:00:00	18:00:00	19:00:00	10	35	468	3600	0.13
2409	PY-10-02-04 ถ.พระราม 6-ถ.ราชวิถี	13.77498666	100.5310886	bma	working	2022-11-09T00:00:00	5:00:00	6:00:00	16	43	240	3600	0.07
2410	PY-10-02-04 ถ.พระราม 6-ถ.ราชวิถี	13.77498666	100.5310886	bma	holiday	2022-11-09T00:00:00	6:00:00	7:00:00	12	124	713	3600	0.20
2411	PY-10-02-04 ถ.พระราม 6-ถ.ราชวิถี	13.77498666	100.5310886	bma	holiday	2022-11-09T00:00:00	7:00:00	8:00:00	12	115	802	3600	0.22
2412	PY-10-02-04 ถ.พระราม 6-ถ.ราชวิถี	13.77498666	100.5310886	bma	holiday	2022-11-09T00:00:00	8:00:00	9:00:00	10	116	649	3600	0.18
2413	PY-10-02-04 ถ.พระราม 6-ถ.ราชวิถี	13.77498666	100.5310886	bma	working	2022-11-09T00:00:00	9:00:00	10:00:00	9	115	603	3600	0.17
2414	PY-10-02-04 ถ.พระราม 6-ถ.ราชวิถี	13.77498666	100.5310886	bma	working	2022-11-09T00:00:00	10:00:00	11:00:00	7	115	676	3600	0.19
2415	PY-10-02-04 ถ.พระราม 6-ถ.ราชวิถี	13.77498666	100.5310886	bma	holiday	2022-11-09T00:00:00	11:00:00	12:00:00	5	196	569	3600	0.16
2416	PY-10-02-04 ถ.พระราม 6-ถ.ราชวิถี	13.77498666	100.5310886	bma	working	2022-11-09T00:00:00	12:00:00	13:00:00	7	114	649	3600	0.18
2417	PY-10-02-04 ถ.พระราม 6-ถ.ราชวิถี	13.77498666	100.5310886	bma	working	2022-11-09T00:00:00	13:00:00	14:00:00	7	121	610	3600	0.17
2418	PY-10-02-04 ถ.พระราม 6-ถ.ราชวิถี	13.77498666	100.5310886	bma	working	2022-11-09T00:00:00	14:00:00	15:00:00	10	113	580	3600	0.16
2419	PY-10-02-04 ถ.พระราม 6-ถ.ราชวิถี	13.77498666	100.5310886	bma	working	2022-11-09T00:00:00	15:00:00	16:00:00	10	110	597	3600	0.17
2420	PY-10-02-04 ถ.พระราม 6-ถ.ราชวิถี	13.77498666	100.5310886	bma	holiday	2022-11-09T00:00:00	16:00:00	17:00:00	7	24	193	3600	0.05
2421	PY-10-02-04 ถ.พระราม 6-ถ.ราชวิถี	13.77498666	100.5310886	bma	holiday	2022-11-09T00:00:00	17:00:00	18:00:00	5	89	201	3600	0.06
2422	PY-10-02-04 ถ.พระราม 6-ถ.ราชวิถี	13.77498666	100.5310886	bma	holiday	2022-11-09T00:00:00	18:00:00	19:00:00	6	22	331	3600	0.09
2423	RW-55-02-03 ถ.พระราม 6-ถ.ศรีอยุธยา	13.76350314	100.5266408	bma	working	2022-05-09T00:00:00	5:00:00	6:00:00	143	7	643	3600	0.18
2424	RW-55-02-03 ถ.พระราม 6-ถ.ศรีอยุธยา	13.76350314	100.5266408	bma	working	2022-05-09T00:00:00	6:00:00	7:00:00	101	23	1944	3600	0.54
2425	RW-55-02-03 ถ.พระราม 6-ถ.ศรีอยุธยา	13.76350314	100.5266408	bma	working	2022-05-09T00:00:00	7:00:00	8:00:00	97	31	2164	3600	0.60
2426	RW-55-02-03 ถ.พระราม 6-ถ.ศรีอยุธยา	13.76350314	100.5266408	bma	working	2022-05-09T00:00:00	8:00:00	9:00:00	92	32	2286	3600	0.64
2427	RW-55-02-03 ถ.พระราม 6-ถ.ศรีอยุธยา	13.76350314	100.5266408	bma	working	2022-05-09T00:00:00	9:00:00	10:00:00	90	27	2265	3600	0.63
2428	RW-55-02-03 ถ.พระราม 6-ถ.ศรีอยุธยา	13.76350314	100.5266408	bma	working	2022-05-09T00:00:00	10:00:00	11:00:00	91	25	2210	3600	0.61
2429	RW-55-02-03 ถ.พระราม 6-ถ.ศรีอยุธยา	13.76350314	100.5266408	bma	working	2022-05-09T00:00:00	11:00:00	12:00:00	56	63	1276	3600	0.35
2430	RW-55-02-03 ถ.พระราม 6-ถ.ศรีอยุธยา	13.76350314	100.5266408	bma	working	2022-05-09T00:00:00	12:00:00	13:00:00	93	25	2169	3600	0.60
2431	RW-55-02-03 ถ.พระราม 6-ถ.ศรีอยุธยา	13.76350314	100.5266408	bma	working	2022-05-09T00:00:00	13:00:00	14:00:00	93	25	2177	3600	0.60
2432	RW-55-02-03 ถ.พระราม 6-ถ.ศรีอยุธยา	13.76350314	100.5266408	bma	working	2022-05-09T00:00:00	14:00:00	15:00:00	92	27	2114	3600	0.59
2433	RW-55-02-03 ถ.พระราม 6-ถ.ศรีอยุธยา	13.76350314	100.5266408	bma	working	2022-05-09T00:00:00	15:00:00	16:00:00	92	29	2007	3600	0.56
2434	RW-55-02-03 ถ.พระราม 6-ถ.ศรีอยุธยา	13.76350314	100.5266408	bma	working	2022-05-09T00:00:00	16:00:00	17:00:00	70	98	1025	3600	0.28
2435	RW-55-02-03 ถ.พระราม 6-ถ.ศรีอยุธยา	13.76350314	100.5266408	bma	working	2022-05-09T00:00:00	17:00:00	18:00:00	100	20	900	3600	0.25
2436	RW-55-02-03 ถ.พระราม 6-ถ.ศรีอยุธยา	13.76350314	100.5266408	bma	working	2022-05-09T00:00:00	18:00:00	19:00:00	105	17	1208	3600	0.34
2437	RW-55-02-03 ถ.พระราม 6-ถ.ศรีอยุธยา	13.76350314	100.5266408	bma	working	2022-06-09T00:00:00	5:00:00	6:00:00	143	6	560	3600	0.16
2438	RW-55-02-03 ถ.พระราม 6-ถ.ศรีอยุธยา	13.76350314	100.5266408	bma	working	2022-06-09T00:00:00	6:00:00	7:00:00	101	19	1627	3600	0.45
2439	RW-55-02-03 ถ.พระราม 6-ถ.ศรีอยุธยา	13.76350314	100.5266408	bma	working	2022-06-09T00:00:00	7:00:00	8:00:00	93	41	3413	3600	0.95
2440	RW-55-02-03 ถ.พระราม 6-ถ.ศรีอยุธยา	13.76350314	100.5266408	bma	working	2022-06-09T00:00:00	8:00:00	9:00:00	95	32	2635	3600	0.73
2441	RW-55-02-03 ถ.พระราม 6-ถ.ศรีอยุธยา	13.76350314	100.5266408	bma	working	2022-06-09T00:00:00	9:00:00	10:00:00	90	29	2645	3600	0.73
2442	RW-55-02-03 ถ.พระราม 6-ถ.ศรีอยุธยา	13.76350314	100.5266408	bma	working	2022-06-09T00:00:00	10:00:00	11:00:00	88	30	2627	3600	0.73
2443	RW-55-02-03 ถ.พระราม 6-ถ.ศรีอยุธยา	13.76350314	100.5266408	bma	working	2022-06-09T00:00:00	11:00:00	12:00:00	60	45	1640	3600	0.46
2444	RW-55-02-03 ถ.พระราม 6-ถ.ศรีอยุธยา	13.76350314	100.5266408	bma	working	2022-06-09T00:00:00	12:00:00	13:00:00	94	28	2549	3600	0.71
2445	RW-55-02-03 ถ.พระราม 6-ถ.ศรีอยุธยา	13.76350314	100.5266408	bma	working	2022-06-09T00:00:00	13:00:00	14:00:00	87	27	2536	3600	0.70
2446	RW-55-02-03 ถ.พระราม 6-ถ.ศรีอยุธยา	13.76350314	100.5266408	bma	working	2022-06-09T00:00:00	14:00:00	15:00:00	96	32	2510	3600	0.70
2447	RW-55-02-03 ถ.พระราม 6-ถ.ศรีอยุธยา	13.76350314	100.5266408	bma	working	2022-06-09T00:00:00	15:00:00	16:00:00	89	29	2395	3600	0.67
2448	RW-55-02-03 ถ.พระราม 6-ถ.ศรีอยุธยา	13.76350314	100.5266408	bma	working	2022-06-09T00:00:00	16:00:00	17:00:00	74	99	3216	3600	0.89
2449	RW-55-02-03 ถ.พระราม 6-ถ.ศรีอยุธยา	13.76350314	100.5266408	bma	working	2022-06-09T00:00:00	17:00:00	18:00:00	89	30	1667	3600	0.46
2450	RW-55-02-03 ถ.พระราม 6-ถ.ศรีอยุธยา	13.76350314	100.5266408	bma	working	2022-06-09T00:00:00	18:00:00	19:00:00	94	18	1671	3600	0.46
2451	RW-55-02-03 ถ.พระราม 6-ถ.ศรีอยุธยา	13.76350314	100.5266408	bma	working	2022-07-09T00:00:00	5:00:00	6:00:00	149	6	448	3600	0.12
2452	RW-55-02-03 ถ.พระราม 6-ถ.ศรีอยุธยา	13.76350314	100.5266408	bma	working	2022-07-09T00:00:00	6:00:00	7:00:00	106	16	1291	3600	0.36
2453	RW-55-02-03 ถ.พระราม 6-ถ.ศรีอยุธยา	13.76350314	100.5266408	bma	working	2022-07-09T00:00:00	7:00:00	8:00:00	80	48	4495	3600	1.25
2454	RW-55-02-03 ถ.พระราม 6-ถ.ศรีอยุธยา	13.76350314	100.5266408	bma	working	2022-07-09T00:00:00	8:00:00	9:00:00	92	34	2978	3600	0.83
2455	RW-55-02-03 ถ.พระราม 6-ถ.ศรีอยุธยา	13.76350314	100.5266408	bma	working	2022-07-09T00:00:00	9:00:00	10:00:00	90	32	3002	3600	0.83
2456	RW-55-02-03 ถ.พระราม 6-ถ.ศรีอยุธยา	13.76350314	100.5266408	bma	working	2022-07-09T00:00:00	10:00:00	11:00:00	87	34	2944	3600	0.82
2457	RW-55-02-03 ถ.พระราม 6-ถ.ศรีอยุธยา	13.76350314	100.5266408	bma	working	2022-07-09T00:00:00	11:00:00	12:00:00	61	30	1909	3600	0.53
2458	RW-55-02-03 ถ.พระราม 6-ถ.ศรีอยุธยา	13.76350314	100.5266408	bma	working	2022-07-09T00:00:00	12:00:00	13:00:00	90	31	2865	3600	0.80
2459	RW-55-02-03 ถ.พระราม 6-ถ.ศรีอยุธยา	13.76350314	100.5266408	bma	working	2022-07-09T00:00:00	13:00:00	14:00:00	89	30	2865	3600	0.80
2460	RW-55-02-03 ถ.พระราม 6-ถ.ศรีอยุธยา	13.76350314	100.5266408	bma	working	2022-07-09T00:00:00	14:00:00	15:00:00	92	35	2848	3600	0.79
2461	RW-55-02-03 ถ.พระราม 6-ถ.ศรีอยุธยา	13.76350314	100.5266408	bma	working	2022-07-09T00:00:00	15:00:00	16:00:00	86	31	2637	3600	0.73
2462	RW-55-02-03 ถ.พระราม 6-ถ.ศรีอยุธยา	13.76350314	100.5266408	bma	working	2022-07-09T00:00:00	16:00:00	17:00:00	72	101	5489	3600	1.52
2463	RW-55-02-03 ถ.พระราม 6-ถ.ศรีอยุธยา	13.76350314	100.5266408	bma	working	2022-07-09T00:00:00	17:00:00	18:00:00	81	40	2274	3600	0.63
2464	RW-55-02-03 ถ.พระราม 6-ถ.ศรีอยุธยา	13.76350314	100.5266408	bma	working	2022-07-09T00:00:00	18:00:00	19:00:00	90	22	2199	3600	0.61
2465	RW-55-02-03 ถ.พระราม 6-ถ.ศรีอยุธยา	13.76350314	100.5266408	bma	working	2022-08-09T00:00:00	5:00:00	6:00:00	120	7	631	3600	0.18
2466	RW-55-02-03 ถ.พระราม 6-ถ.ศรีอยุธยา	13.76350314	100.5266408	bma	working	2022-08-09T00:00:00	6:00:00	7:00:00	84	20	1816	3600	0.50
2467	RW-55-02-03 ถ.พระราม 6-ถ.ศรีอยุธยา	13.76350314	100.5266408	bma	working	2022-08-09T00:00:00	7:00:00	8:00:00	81	42	3020	3600	0.84
2468	RW-55-02-03 ถ.พระราม 6-ถ.ศรีอยุธยา	13.76350314	100.5266408	bma	working	2022-08-09T00:00:00	8:00:00	9:00:00	94	40	3282	3600	0.91
2469	RW-55-02-03 ถ.พระราม 6-ถ.ศรีอยุธยา	13.76350314	100.5266408	bma	working	2022-08-09T00:00:00	9:00:00	10:00:00	90	34	3264	3600	0.91
2470	RW-55-02-03 ถ.พระราม 6-ถ.ศรีอยุธยา	13.76350314	100.5266408	bma	working	2022-08-09T00:00:00	10:00:00	11:00:00	89	37	3167	3600	0.88
2471	RW-55-02-03 ถ.พระราม 6-ถ.ศรีอยุธยา	13.76350314	100.5266408	bma	working	2022-08-09T00:00:00	11:00:00	12:00:00	80	31	2658	3600	0.74
2472	RW-55-02-03 ถ.พระราม 6-ถ.ศรีอยุธยา	13.76350314	100.5266408	bma	working	2022-08-09T00:00:00	12:00:00	13:00:00	90	36	3080	3600	0.86
2473	RW-55-02-03 ถ.พระราม 6-ถ.ศรีอยุธยา	13.76350314	100.5266408	bma	working	2022-08-09T00:00:00	13:00:00	14:00:00	91	37	3125	3600	0.87
2474	RW-55-02-03 ถ.พระราม 6-ถ.ศรีอยุธยา	13.76350314	100.5266408	bma	working	2022-08-09T00:00:00	14:00:00	15:00:00	94	40	3165	3600	0.88
2475	RW-55-02-03 ถ.พระราม 6-ถ.ศรีอยุธยา	13.76350314	100.5266408	bma	working	2022-08-09T00:00:00	15:00:00	16:00:00	85	34	2937	3600	0.82
2476	RW-55-02-03 ถ.พระราม 6-ถ.ศรีอยุธยา	13.76350314	100.5266408	bma	working	2022-08-09T00:00:00	16:00:00	17:00:00	88	95	3433	3600	0.95
2477	RW-55-02-03 ถ.พระราม 6-ถ.ศรีอยุธยา	13.76350314	100.5266408	bma	working	2022-08-09T00:00:00	17:00:00	18:00:00	74	78	2117	3600	0.59
2478	RW-55-02-03 ถ.พระราม 6-ถ.ศรีอยุธยา	13.76350314	100.5266408	bma	working	2022-08-09T00:00:00	18:00:00	19:00:00	86	37	1902	3600	0.53
2479	RW-55-02-03 ถ.พระราม 6-ถ.ศรีอยุธยา	13.76350314	100.5266408	bma	working	2022-09-09T00:00:00	5:00:00	6:00:00	85	7	766	3600	0.21
2480	RW-55-02-03 ถ.พระราม 6-ถ.ศรีอยุธยา	13.76350314	100.5266408	bma	working	2022-09-09T00:00:00	6:00:00	7:00:00	61	23	2228	3600	0.62
2481	RW-55-02-03 ถ.พระราม 6-ถ.ศรีอยุธยา	13.76350314	100.5266408	bma	working	2022-09-09T00:00:00	7:00:00	8:00:00	88	32	1486	3600	0.41
2482	RW-55-02-03 ถ.พระราม 6-ถ.ศรีอยุธยา	13.76350314	100.5266408	bma	working	2022-09-09T00:00:00	8:00:00	9:00:00	88	43	3467	3600	0.96
2483	RW-55-02-03 ถ.พระราม 6-ถ.ศรีอยุธยา	13.76350314	100.5266408	bma	working	2022-09-09T00:00:00	9:00:00	10:00:00	89	36	3420	3600	0.95
2484	RW-55-02-03 ถ.พระราม 6-ถ.ศรีอยุธยา	13.76350314	100.5266408	bma	working	2022-09-09T00:00:00	10:00:00	11:00:00	90	39	3237	3600	0.90
2485	RW-55-02-03 ถ.พระราม 6-ถ.ศรีอยุธยา	13.76350314	100.5266408	bma	working	2022-09-09T00:00:00	11:00:00	12:00:00	103	34	3251	3600	0.90
2486	RW-55-02-03 ถ.พระราม 6-ถ.ศรีอยุธยา	13.76350314	100.5266408	bma	working	2022-09-09T00:00:00	12:00:00	13:00:00	88	39	3154	3600	0.88
2487	RW-55-02-03 ถ.พระราม 6-ถ.ศรีอยุธยา	13.76350314	100.5266408	bma	working	2022-09-09T00:00:00	13:00:00	14:00:00	85	41	3297	3600	0.92
2488	RW-55-02-03 ถ.พระราม 6-ถ.ศรีอยุธยา	13.76350314	100.5266408	bma	working	2022-09-09T00:00:00	14:00:00	15:00:00	88	42	3396	3600	0.94
2489	RW-55-02-03 ถ.พระราม 6-ถ.ศรีอยุธยา	13.76350314	100.5266408	bma	working	2022-09-09T00:00:00	15:00:00	16:00:00	87	37	2970	3600	0.83
2490	RW-55-02-03 ถ.พระราม 6-ถ.ศรีอยุธยา	13.76350314	100.5266408	bma	working	2022-09-09T00:00:00	16:00:00	17:00:00	94	93	1564	3600	0.43
2491	RW-55-02-03 ถ.พระราม 6-ถ.ศรีอยุธยา	13.76350314	100.5266408	bma	working	2022-09-09T00:00:00	17:00:00	18:00:00	62	105	1756	3600	0.49
2492	RW-55-02-03 ถ.พระราม 6-ถ.ศรีอยุธยา	13.76350314	100.5266408	bma	working	2022-09-09T00:00:00	18:00:00	19:00:00	82	52	1623	3600	0.45
2493	RW-55-02-03 ถ.พระราม 6-ถ.ศรีอยุธยา	13.76350314	100.5266408	bma	working	2022-10-09T00:00:00	5:00:00	6:00:00	87	7	377	3600	0.10
2494	RW-55-02-03 ถ.พระราม 6-ถ.ศรีอยุธยา	13.76350314	100.5266408	bma	working	2022-10-09T00:00:00	6:00:00	7:00:00	61	23	1072	3600	0.30
2495	RW-55-02-03 ถ.พระราม 6-ถ.ศรีอยุธยา	13.76350314	100.5266408	bma	holiday	2022-10-09T00:00:00	7:00:00	8:00:00	64	29	1412	3600	0.39
2496	RW-55-02-03 ถ.พระราม 6-ถ.ศรีอยุธยา	13.76350314	100.5266408	bma	holiday	2022-10-09T00:00:00	8:00:00	9:00:00	68	17	397	3600	0.11
2497	RW-55-02-03 ถ.พระราม 6-ถ.ศรีอยุธยา	13.76350314	100.5266408	bma	working	2022-10-09T00:00:00	9:00:00	10:00:00	67	13	259	3600	0.07
2498	RW-55-02-03 ถ.พระราม 6-ถ.ศรีอยุธยา	13.76350314	100.5266408	bma	working	2022-10-09T00:00:00	10:00:00	11:00:00	67	14	256	3600	0.07
2499	RW-55-02-03 ถ.พระราม 6-ถ.ศรีอยุธยา	13.76350314	100.5266408	bma	holiday	2022-10-09T00:00:00	11:00:00	12:00:00	83	39	2127	3600	0.59
2500	RW-55-02-03 ถ.พระราม 6-ถ.ศรีอยุธยา	13.76350314	100.5266408	bma	working	2022-10-09T00:00:00	12:00:00	13:00:00	69	12	303	3600	0.08
2501	RW-55-02-03 ถ.พระราม 6-ถ.ศรีอยุธยา	13.76350314	100.5266408	bma	working	2022-10-09T00:00:00	13:00:00	14:00:00	65	14	133	3600	0.04
2502	RW-55-02-03 ถ.พระราม 6-ถ.ศรีอยุธยา	13.76350314	100.5266408	bma	working	2022-10-09T00:00:00	14:00:00	15:00:00	63	15	120	3600	0.03
2503	RW-55-02-03 ถ.พระราม 6-ถ.ศรีอยุธยา	13.76350314	100.5266408	bma	working	2022-10-09T00:00:00	15:00:00	16:00:00	71	12	97	3600	0.03
2504	RW-55-02-03 ถ.พระราม 6-ถ.ศรีอยุธยา	13.76350314	100.5266408	bma	holiday	2022-10-09T00:00:00	16:00:00	17:00:00	93	81	3787	3600	1.05
2505	RW-55-02-03 ถ.พระราม 6-ถ.ศรีอยุธยา	13.76350314	100.5266408	bma	holiday	2022-10-09T00:00:00	17:00:00	18:00:00	83	73	1203	3600	0.33
2506	RW-55-02-03 ถ.พระราม 6-ถ.ศรีอยุธยา	13.76350314	100.5266408	bma	holiday	2022-10-09T00:00:00	18:00:00	19:00:00	82	52	1630	3600	0.45
2507	RW-55-02-03 ถ.พระราม 6-ถ.ศรีอยุธยา	13.76350314	100.5266408	bma	working	2022-11-09T00:00:00	5:00:00	6:00:00	87	8	249	3600	0.07
2508	RW-55-02-03 ถ.พระราม 6-ถ.ศรีอยุธยา	13.76350314	100.5266408	bma	working	2022-11-09T00:00:00	6:00:00	7:00:00	61	23	713	3600	0.20
2509	RW-55-02-03 ถ.พระราม 6-ถ.ศรีอยุธยา	13.76350314	100.5266408	bma	holiday	2022-11-09T00:00:00	7:00:00	8:00:00	40	17	939	3600	0.26
2510	RW-55-02-03 ถ.พระราม 6-ถ.ศรีอยุธยา	13.76350314	100.5266408	bma	holiday	2022-11-09T00:00:00	8:00:00	9:00:00	44	11	229	3600	0.06
2511	RW-55-02-03 ถ.พระราม 6-ถ.ศรีอยุธยา	13.76350314	100.5266408	bma	working	2022-11-09T00:00:00	9:00:00	10:00:00	39	8	157	3600	0.04
2512	RW-55-02-03 ถ.พระราม 6-ถ.ศรีอยุธยา	13.76350314	100.5266408	bma	working	2022-11-09T00:00:00	10:00:00	11:00:00	38	9	174	3600	0.05
2513	RW-55-02-03 ถ.พระราม 6-ถ.ศรีอยุธยา	13.76350314	100.5266408	bma	holiday	2022-11-09T00:00:00	11:00:00	12:00:00	51	22	1342	3600	0.37
2514	RW-55-02-03 ถ.พระราม 6-ถ.ศรีอยุธยา	13.76350314	100.5266408	bma	working	2022-11-09T00:00:00	12:00:00	13:00:00	40	7	212	3600	0.06
2515	RW-55-02-03 ถ.พระราม 6-ถ.ศรีอยุธยา	13.76350314	100.5266408	bma	working	2022-11-09T00:00:00	13:00:00	14:00:00	39	8	91	3600	0.03
2516	RW-55-02-03 ถ.พระราม 6-ถ.ศรีอยุธยา	13.76350314	100.5266408	bma	working	2022-11-09T00:00:00	14:00:00	15:00:00	39	9	70	3600	0.02
2517	RW-55-02-03 ถ.พระราม 6-ถ.ศรีอยุธยา	13.76350314	100.5266408	bma	working	2022-11-09T00:00:00	15:00:00	16:00:00	40	7	82	3600	0.02
2518	RW-55-02-03 ถ.พระราม 6-ถ.ศรีอยุธยา	13.76350314	100.5266408	bma	holiday	2022-11-09T00:00:00	16:00:00	17:00:00	55	49	2329	3600	0.65
2519	RW-55-02-03 ถ.พระราม 6-ถ.ศรีอยุธยา	13.76350314	100.5266408	bma	holiday	2022-11-09T00:00:00	17:00:00	18:00:00	49	44	730	3600	0.20
2520	RW-55-02-03 ถ.พระราม 6-ถ.ศรีอยุธยา	13.76350314	100.5266408	bma	holiday	2022-11-09T00:00:00	18:00:00	19:00:00	82	52	1630	3600	0.45
2521	RW-56-02-02 ถ.พระราม 6-ถ.ราชวิถี	13.76284623	100.525971	bma	working	2022-05-09T00:00:00	5:00:00	6:00:00	111	7	1153	1800	0.64
2522	RW-56-02-02 ถ.พระราม 6-ถ.ราชวิถี	13.76284623	100.525971	bma	working	2022-05-09T00:00:00	6:00:00	7:00:00	78	21	3314	1800	1.84
2523	RW-56-02-02 ถ.พระราม 6-ถ.ราชวิถี	13.76284623	100.525971	bma	working	2022-05-09T00:00:00	7:00:00	8:00:00	79	20	2543	1800	1.41
2524	RW-56-02-02 ถ.พระราม 6-ถ.ราชวิถี	13.76284623	100.525971	bma	working	2022-05-09T00:00:00	8:00:00	9:00:00	80	19	1766	1800	0.98
2525	RW-56-02-02 ถ.พระราม 6-ถ.ราชวิถี	13.76284623	100.525971	bma	working	2022-05-09T00:00:00	9:00:00	10:00:00	76	14	1651	1800	0.92
2526	RW-56-02-02 ถ.พระราม 6-ถ.ราชวิถี	13.76284623	100.525971	bma	working	2022-05-09T00:00:00	10:00:00	11:00:00	73	13	1808	1800	1.00
2527	RW-56-02-02 ถ.พระราม 6-ถ.ราชวิถี	13.76284623	100.525971	bma	working	2022-05-09T00:00:00	11:00:00	12:00:00	64	31	3509	1800	1.95
2528	RW-56-02-02 ถ.พระราม 6-ถ.ราชวิถี	13.76284623	100.525971	bma	working	2022-05-09T00:00:00	12:00:00	13:00:00	76	13	1851	1800	1.03
2529	RW-56-02-02 ถ.พระราม 6-ถ.ราชวิถี	13.76284623	100.525971	bma	working	2022-05-09T00:00:00	13:00:00	14:00:00	76	15	1695	1800	0.94
2530	RW-56-02-02 ถ.พระราม 6-ถ.ราชวิถี	13.76284623	100.525971	bma	working	2022-05-09T00:00:00	14:00:00	15:00:00	76	16	1709	1800	0.95
2531	RW-56-02-02 ถ.พระราม 6-ถ.ราชวิถี	13.76284623	100.525971	bma	working	2022-05-09T00:00:00	15:00:00	16:00:00	76	14	1718	1800	0.95
2532	RW-56-02-02 ถ.พระราม 6-ถ.ราชวิถี	13.76284623	100.525971	bma	working	2022-05-09T00:00:00	16:00:00	17:00:00	83	16	674	1800	0.37
2533	RW-56-02-02 ถ.พระราม 6-ถ.ราชวิถี	13.76284623	100.525971	bma	working	2022-05-09T00:00:00	17:00:00	18:00:00	88	17	1035	1800	0.58
2534	RW-56-02-02 ถ.พระราม 6-ถ.ราชวิถี	13.76284623	100.525971	bma	working	2022-05-09T00:00:00	18:00:00	19:00:00	67	23	508	1800	0.28
2535	RW-56-02-02 ถ.พระราม 6-ถ.ราชวิถี	13.76284623	100.525971	bma	working	2022-06-09T00:00:00	5:00:00	6:00:00	115	8	1400	1800	0.78
2536	RW-56-02-02 ถ.พระราม 6-ถ.ราชวิถี	13.76284623	100.525971	bma	working	2022-06-09T00:00:00	6:00:00	7:00:00	82	23	4114	1800	2.29
2537	RW-56-02-02 ถ.พระราม 6-ถ.ราชวิถี	13.76284623	100.525971	bma	working	2022-06-09T00:00:00	7:00:00	8:00:00	72	25	2471	1800	1.37
2538	RW-56-02-02 ถ.พระราม 6-ถ.ราชวิถี	13.76284623	100.525971	bma	working	2022-06-09T00:00:00	8:00:00	9:00:00	82	24	2119	1800	1.18
2539	RW-56-02-02 ถ.พระราม 6-ถ.ราชวิถี	13.76284623	100.525971	bma	working	2022-06-09T00:00:00	9:00:00	10:00:00	79	21	2142	1800	1.19
2540	RW-56-02-02 ถ.พระราม 6-ถ.ราชวิถี	13.76284623	100.525971	bma	working	2022-06-09T00:00:00	10:00:00	11:00:00	78	21	2098	1800	1.17
2541	RW-56-02-02 ถ.พระราม 6-ถ.ราชวิถี	13.76284623	100.525971	bma	working	2022-06-09T00:00:00	11:00:00	12:00:00	80	31	3983	1800	2.21
2542	RW-56-02-02 ถ.พระราม 6-ถ.ราชวิถี	13.76284623	100.525971	bma	working	2022-06-09T00:00:00	12:00:00	13:00:00	76	20	2118	1800	1.18
2543	RW-56-02-02 ถ.พระราม 6-ถ.ราชวิถี	13.76284623	100.525971	bma	working	2022-06-09T00:00:00	13:00:00	14:00:00	76	23	2253	1800	1.25
2544	RW-56-02-02 ถ.พระราม 6-ถ.ราชวิถี	13.76284623	100.525971	bma	working	2022-06-09T00:00:00	14:00:00	15:00:00	75	23	2186	1800	1.21
2545	RW-56-02-02 ถ.พระราม 6-ถ.ราชวิถี	13.76284623	100.525971	bma	working	2022-06-09T00:00:00	15:00:00	16:00:00	77	23	2253	1800	1.25
2546	RW-56-02-02 ถ.พระราม 6-ถ.ราชวิถี	13.76284623	100.525971	bma	working	2022-06-09T00:00:00	16:00:00	17:00:00	70	33	1603	1800	0.89
2547	RW-56-02-02 ถ.พระราม 6-ถ.ราชวิถี	13.76284623	100.525971	bma	working	2022-06-09T00:00:00	17:00:00	18:00:00	81	22	1438	1800	0.80
2548	RW-56-02-02 ถ.พระราม 6-ถ.ราชวิถี	13.76284623	100.525971	bma	working	2022-06-09T00:00:00	18:00:00	19:00:00	70	28	2306	1800	1.28
2549	RW-56-02-02 ถ.พระราม 6-ถ.ราชวิถี	13.76284623	100.525971	bma	working	2022-07-09T00:00:00	5:00:00	6:00:00	109	10	1573	1800	0.87
2550	RW-56-02-02 ถ.พระราม 6-ถ.ราชวิถี	13.76284623	100.525971	bma	working	2022-07-09T00:00:00	6:00:00	7:00:00	77	28	4861	1800	2.70
2551	RW-56-02-02 ถ.พระราม 6-ถ.ราชวิถี	13.76284623	100.525971	bma	working	2022-07-09T00:00:00	7:00:00	8:00:00	69	30	2438	1800	1.35
2552	RW-56-02-02 ถ.พระราม 6-ถ.ราชวิถี	13.76284623	100.525971	bma	working	2022-07-09T00:00:00	8:00:00	9:00:00	78	31	2501	1800	1.39
2553	RW-56-02-02 ถ.พระราม 6-ถ.ราชวิถี	13.76284623	100.525971	bma	working	2022-07-09T00:00:00	9:00:00	10:00:00	77	28	2479	1800	1.38
2554	RW-56-02-02 ถ.พระราม 6-ถ.ราชวิถี	13.76284623	100.525971	bma	working	2022-07-09T00:00:00	10:00:00	11:00:00	83	31	2444	1800	1.36
2555	RW-56-02-02 ถ.พระราม 6-ถ.ราชวิถี	13.76284623	100.525971	bma	working	2022-07-09T00:00:00	11:00:00	12:00:00	87	31	4620	1800	2.57
2556	RW-56-02-02 ถ.พระราม 6-ถ.ราชวิถี	13.76284623	100.525971	bma	working	2022-07-09T00:00:00	12:00:00	13:00:00	77	28	2550	1800	1.42
2557	RW-56-02-02 ถ.พระราม 6-ถ.ราชวิถี	13.76284623	100.525971	bma	working	2022-07-09T00:00:00	13:00:00	14:00:00	78	28	2566	1800	1.43
2558	RW-56-02-02 ถ.พระราม 6-ถ.ราชวิถี	13.76284623	100.525971	bma	working	2022-07-09T00:00:00	14:00:00	15:00:00	79	27	2501	1800	1.39
2559	RW-56-02-02 ถ.พระราม 6-ถ.ราชวิถี	13.76284623	100.525971	bma	working	2022-07-09T00:00:00	15:00:00	16:00:00	80	31	2662	1800	1.48
2560	RW-56-02-02 ถ.พระราม 6-ถ.ราชวิถี	13.76284623	100.525971	bma	working	2022-07-09T00:00:00	16:00:00	17:00:00	66	53	2494	1800	1.39
2561	RW-56-02-02 ถ.พระราม 6-ถ.ราชวิถี	13.76284623	100.525971	bma	working	2022-07-09T00:00:00	17:00:00	18:00:00	65	27	1766	1800	0.98
2562	RW-56-02-02 ถ.พระราม 6-ถ.ราชวิถี	13.76284623	100.525971	bma	working	2022-07-09T00:00:00	18:00:00	19:00:00	76	33	4099	1800	2.28
2563	RW-56-02-02 ถ.พระราม 6-ถ.ราชวิถี	13.76284623	100.525971	bma	working	2022-08-09T00:00:00	5:00:00	6:00:00	108	10	1436	1800	0.80
2564	RW-56-02-02 ถ.พระราม 6-ถ.ราชวิถี	13.76284623	100.525971	bma	working	2022-08-09T00:00:00	6:00:00	7:00:00	77	30	4246	1800	2.36
2565	RW-56-02-02 ถ.พระราม 6-ถ.ราชวิถี	13.76284623	100.525971	bma	working	2022-08-09T00:00:00	7:00:00	8:00:00	78	28	2066	1800	1.15
2566	RW-56-02-02 ถ.พระราม 6-ถ.ราชวิถี	13.76284623	100.525971	bma	working	2022-08-09T00:00:00	8:00:00	9:00:00	77	39	2350	1800	1.31
2567	RW-56-02-02 ถ.พระราม 6-ถ.ราชวิถี	13.76284623	100.525971	bma	working	2022-08-09T00:00:00	9:00:00	10:00:00	76	32	2394	1800	1.33
2568	RW-56-02-02 ถ.พระราม 6-ถ.ราชวิถี	13.76284623	100.525971	bma	working	2022-08-09T00:00:00	10:00:00	11:00:00	76	35	2323	1800	1.29
2569	RW-56-02-02 ถ.พระราม 6-ถ.ราชวิถี	13.76284623	100.525971	bma	working	2022-08-09T00:00:00	11:00:00	12:00:00	91	28	2668	1800	1.48
2570	RW-56-02-02 ถ.พระราม 6-ถ.ราชวิถี	13.76284623	100.525971	bma	working	2022-08-09T00:00:00	12:00:00	13:00:00	74	34	2281	1800	1.27
2571	RW-56-02-02 ถ.พระราม 6-ถ.ราชวิถี	13.76284623	100.525971	bma	working	2022-08-09T00:00:00	13:00:00	14:00:00	76	33	2384	1800	1.32
2572	RW-56-02-02 ถ.พระราม 6-ถ.ราชวิถี	13.76284623	100.525971	bma	working	2022-08-09T00:00:00	14:00:00	15:00:00	77	33	2351	1800	1.31
2573	RW-56-02-02 ถ.พระราม 6-ถ.ราชวิถี	13.76284623	100.525971	bma	working	2022-08-09T00:00:00	15:00:00	16:00:00	76	34	2403	1800	1.34
2574	RW-56-02-02 ถ.พระราม 6-ถ.ราชวิถี	13.76284623	100.525971	bma	working	2022-08-09T00:00:00	16:00:00	17:00:00	70	34	1975	1800	1.10
2575	RW-56-02-02 ถ.พระราม 6-ถ.ราชวิถี	13.76284623	100.525971	bma	working	2022-08-09T00:00:00	17:00:00	18:00:00	70	23	1838	1800	1.02
2576	RW-56-02-02 ถ.พระราม 6-ถ.ราชวิถี	13.76284623	100.525971	bma	working	2022-08-09T00:00:00	18:00:00	19:00:00	76	25	2639	1800	1.47
2577	RW-56-02-02 ถ.พระราม 6-ถ.ราชวิถี	13.76284623	100.525971	bma	working	2022-09-09T00:00:00	5:00:00	6:00:00	109	9	1099	1800	0.61
2578	RW-56-02-02 ถ.พระราม 6-ถ.ราชวิถี	13.76284623	100.525971	bma	working	2022-09-09T00:00:00	6:00:00	7:00:00	76	30	3459	1800	1.92
2579	RW-56-02-02 ถ.พระราม 6-ถ.ราชวิถี	13.76284623	100.525971	bma	working	2022-09-09T00:00:00	7:00:00	8:00:00	95	28	1415	1800	0.79
2580	RW-56-02-02 ถ.พระราม 6-ถ.ราชวิถี	13.76284623	100.525971	bma	working	2022-09-09T00:00:00	8:00:00	9:00:00	76	41	2144	1800	1.19
2581	RW-56-02-02 ถ.พระราม 6-ถ.ราชวิถี	13.76284623	100.525971	bma	working	2022-09-09T00:00:00	9:00:00	10:00:00	77	39	2152	1800	1.20
2582	RW-56-02-02 ถ.พระราม 6-ถ.ราชวิถี	13.76284623	100.525971	bma	working	2022-09-09T00:00:00	10:00:00	11:00:00	71	40	2067	1800	1.15
2583	RW-56-02-02 ถ.พระราม 6-ถ.ราชวิถี	13.76284623	100.525971	bma	working	2022-09-09T00:00:00	11:00:00	12:00:00	92	21	830	1800	0.46
2584	RW-56-02-02 ถ.พระราม 6-ถ.ราชวิถี	13.76284623	100.525971	bma	working	2022-09-09T00:00:00	12:00:00	13:00:00	72	38	2011	1800	1.12
2585	RW-56-02-02 ถ.พระราม 6-ถ.ราชวิถี	13.76284623	100.525971	bma	working	2022-09-09T00:00:00	13:00:00	14:00:00	76	38	2066	1800	1.15
2586	RW-56-02-02 ถ.พระราม 6-ถ.ราชวิถี	13.76284623	100.525971	bma	working	2022-09-09T00:00:00	14:00:00	15:00:00	75	37	2156	1800	1.20
2587	RW-56-02-02 ถ.พระราม 6-ถ.ราชวิถี	13.76284623	100.525971	bma	working	2022-09-09T00:00:00	15:00:00	16:00:00	70	40	2042	1800	1.13
2588	RW-56-02-02 ถ.พระราม 6-ถ.ราชวิถี	13.76284623	100.525971	bma	working	2022-09-09T00:00:00	16:00:00	17:00:00	74	18	1286	1800	0.71
2589	RW-56-02-02 ถ.พระราม 6-ถ.ราชวิถี	13.76284623	100.525971	bma	working	2022-09-09T00:00:00	17:00:00	18:00:00	74	20	1950	1800	1.08
2590	RW-56-02-02 ถ.พระราม 6-ถ.ราชวิถี	13.76284623	100.525971	bma	working	2022-09-09T00:00:00	18:00:00	19:00:00	85	17	1087	1800	0.60
2591	RW-56-02-02 ถ.พระราม 6-ถ.ราชวิถี	13.76284623	100.525971	bma	working	2022-10-09T00:00:00	5:00:00	6:00:00	109	10	144	1800	0.08
2592	RW-56-02-02 ถ.พระราม 6-ถ.ราชวิถี	13.76284623	100.525971	bma	working	2022-10-09T00:00:00	6:00:00	7:00:00	76	30	391	1800	0.22
2593	RW-56-02-02 ถ.พระราม 6-ถ.ราชวิถี	13.76284623	100.525971	bma	holiday	2022-10-09T00:00:00	7:00:00	8:00:00	92	15	483	1800	0.27
2594	RW-56-02-02 ถ.พระราม 6-ถ.ราชวิถี	13.76284623	100.525971	bma	holiday	2022-10-09T00:00:00	8:00:00	9:00:00	97	42	1444	1800	0.80
2595	RW-56-02-02 ถ.พระราม 6-ถ.ราชวิถี	13.76284623	100.525971	bma	working	2022-10-09T00:00:00	9:00:00	10:00:00	92	40	1334	1800	0.74
2596	RW-56-02-02 ถ.พระราม 6-ถ.ราชวิถี	13.76284623	100.525971	bma	working	2022-10-09T00:00:00	10:00:00	11:00:00	92	40	1329	1800	0.74
2597	RW-56-02-02 ถ.พระราม 6-ถ.ราชวิถี	13.76284623	100.525971	bma	holiday	2022-10-09T00:00:00	11:00:00	12:00:00	99	20	750	1800	0.42
2598	RW-56-02-02 ถ.พระราม 6-ถ.ราชวิถี	13.76284623	100.525971	bma	working	2022-10-09T00:00:00	12:00:00	13:00:00	96	39	1302	1800	0.72
2599	RW-56-02-02 ถ.พระราม 6-ถ.ราชวิถี	13.76284623	100.525971	bma	working	2022-10-09T00:00:00	13:00:00	14:00:00	93	36	1377	1800	0.77
2600	RW-56-02-02 ถ.พระราม 6-ถ.ราชวิถี	13.76284623	100.525971	bma	working	2022-10-09T00:00:00	14:00:00	15:00:00	93	37	1353	1800	0.75
2601	RW-56-02-02 ถ.พระราม 6-ถ.ราชวิถี	13.76284623	100.525971	bma	working	2022-10-09T00:00:00	15:00:00	16:00:00	95	38	1271	1800	0.71
2602	RW-56-02-02 ถ.พระราม 6-ถ.ราชวิถี	13.76284623	100.525971	bma	holiday	2022-10-09T00:00:00	16:00:00	17:00:00	99	13	448	1800	0.25
2603	RW-56-02-02 ถ.พระราม 6-ถ.ราชวิถี	13.76284623	100.525971	bma	holiday	2022-10-09T00:00:00	17:00:00	18:00:00	90	11	352	1800	0.20
2604	RW-56-02-02 ถ.พระราม 6-ถ.ราชวิถี	13.76284623	100.525971	bma	holiday	2022-10-09T00:00:00	18:00:00	19:00:00	99	12	268	1800	0.15
2605	RW-56-02-02 ถ.พระราม 6-ถ.ราชวิถี	13.76284623	100.525971	bma	working	2022-11-09T00:00:00	5:00:00	6:00:00	110	9	64	1800	0.04
2606	RW-56-02-02 ถ.พระราม 6-ถ.ราชวิถี	13.76284623	100.525971	bma	working	2022-11-09T00:00:00	6:00:00	7:00:00	76	30	165	1800	0.09
2607	RW-56-02-02 ถ.พระราม 6-ถ.ราชวิถี	13.76284623	100.525971	bma	holiday	2022-11-09T00:00:00	7:00:00	8:00:00	57	10	232	1800	0.13
2608	RW-56-02-02 ถ.พระราม 6-ถ.ราชวิถี	13.76284623	100.525971	bma	holiday	2022-11-09T00:00:00	8:00:00	9:00:00	57	25	869	1800	0.48
2609	RW-56-02-02 ถ.พระราม 6-ถ.ราชวิถี	13.76284623	100.525971	bma	working	2022-11-09T00:00:00	9:00:00	10:00:00	55	25	804	1800	0.45
2610	RW-56-02-02 ถ.พระราม 6-ถ.ราชวิถี	13.76284623	100.525971	bma	working	2022-11-09T00:00:00	10:00:00	11:00:00	57	24	774	1800	0.43
2611	RW-56-02-02 ถ.พระราม 6-ถ.ราชวิถี	13.76284623	100.525971	bma	holiday	2022-11-09T00:00:00	11:00:00	12:00:00	60	12	459	1800	0.26
2612	RW-56-02-02 ถ.พระราม 6-ถ.ราชวิถี	13.76284623	100.525971	bma	working	2022-11-09T00:00:00	12:00:00	13:00:00	55	24	777	1800	0.43
2613	RW-56-02-02 ถ.พระราม 6-ถ.ราชวิถี	13.76284623	100.525971	bma	working	2022-11-09T00:00:00	13:00:00	14:00:00	57	22	857	1800	0.48
2614	RW-56-02-02 ถ.พระราม 6-ถ.ราชวิถี	13.76284623	100.525971	bma	working	2022-11-09T00:00:00	14:00:00	15:00:00	55	21	798	1800	0.44
2615	RW-56-02-02 ถ.พระราม 6-ถ.ราชวิถี	13.76284623	100.525971	bma	working	2022-11-09T00:00:00	15:00:00	16:00:00	52	22	776	1800	0.43
2616	RW-56-02-02 ถ.พระราม 6-ถ.ราชวิถี	13.76284623	100.525971	bma	holiday	2022-11-09T00:00:00	16:00:00	17:00:00	60	8	322	1800	0.18
2617	RW-56-02-02 ถ.พระราม 6-ถ.ราชวิถี	13.76284623	100.525971	bma	holiday	2022-11-09T00:00:00	17:00:00	18:00:00	59	6	229	1800	0.13
2618	RW-56-02-02 ถ.พระราม 6-ถ.ราชวิถี	13.76284623	100.525971	bma	holiday	2022-11-09T00:00:00	18:00:00	19:00:00	58	7	163	1800	0.09
2619	TF1-BB-02 ถ.กาญจนาภิเษก - ถ. บางบอน 1	13.66318	100.40585	bma	working	2022-05-09T00:00:00	5:00:00	6:00:00	8	3	171	3600	0.05
2620	TF1-BB-02 ถ.กาญจนาภิเษก - ถ. บางบอน 1	13.66318	100.40585	bma	working	2022-05-09T00:00:00	6:00:00	7:00:00	6	10	444	3600	0.12
2621	TF1-BB-02 ถ.กาญจนาภิเษก - ถ. บางบอน 1	13.66318	100.40585	bma	working	2022-05-09T00:00:00	7:00:00	8:00:00	14	15	842	3600	0.23
2622	TF1-BB-02 ถ.กาญจนาภิเษก - ถ. บางบอน 1	13.66318	100.40585	bma	working	2022-05-09T00:00:00	8:00:00	9:00:00	9	26	606	3600	0.17
2623	TF1-BB-02 ถ.กาญจนาภิเษก - ถ. บางบอน 1	13.66318	100.40585	bma	working	2022-05-09T00:00:00	9:00:00	10:00:00	3	22	505	3600	0.14
2624	TF1-BB-02 ถ.กาญจนาภิเษก - ถ. บางบอน 1	13.66318	100.40585	bma	working	2022-05-09T00:00:00	10:00:00	11:00:00	5	21	661	3600	0.18
2625	TF1-BB-02 ถ.กาญจนาภิเษก - ถ. บางบอน 1	13.66318	100.40585	bma	working	2022-05-09T00:00:00	11:00:00	12:00:00	43	18	1043	3600	0.29
2626	TF1-BB-02 ถ.กาญจนาภิเษก - ถ. บางบอน 1	13.66318	100.40585	bma	working	2022-05-09T00:00:00	12:00:00	13:00:00	5	21	461	3600	0.13
2627	TF1-BB-02 ถ.กาญจนาภิเษก - ถ. บางบอน 1	13.66318	100.40585	bma	working	2022-05-09T00:00:00	13:00:00	14:00:00	3	21	482	3600	0.13
2628	TF1-BB-02 ถ.กาญจนาภิเษก - ถ. บางบอน 1	13.66318	100.40585	bma	working	2022-05-09T00:00:00	14:00:00	15:00:00	6	24	574	3600	0.16
2629	TF1-BB-02 ถ.กาญจนาภิเษก - ถ. บางบอน 1	13.66318	100.40585	bma	working	2022-05-09T00:00:00	15:00:00	16:00:00	7	22	572	3600	0.16
2630	TF1-BB-02 ถ.กาญจนาภิเษก - ถ. บางบอน 1	13.66318	100.40585	bma	working	2022-05-09T00:00:00	16:00:00	17:00:00	38	13	471	3600	0.13
2631	TF1-BB-02 ถ.กาญจนาภิเษก - ถ. บางบอน 1	13.66318	100.40585	bma	working	2022-05-09T00:00:00	17:00:00	18:00:00	25	13	570	3600	0.16
2632	TF1-BB-02 ถ.กาญจนาภิเษก - ถ. บางบอน 1	13.66318	100.40585	bma	working	2022-05-09T00:00:00	18:00:00	19:00:00	8	14	400	3600	0.11
2633	TF1-BB-02 ถ.กาญจนาภิเษก - ถ. บางบอน 1	13.66318	100.40585	bma	working	2022-06-09T00:00:00	5:00:00	6:00:00	8	4	164	3600	0.05
2634	TF1-BB-02 ถ.กาญจนาภิเษก - ถ. บางบอน 1	13.66318	100.40585	bma	working	2022-06-09T00:00:00	6:00:00	7:00:00	6	10	458	3600	0.13
2635	TF1-BB-02 ถ.กาญจนาภิเษก - ถ. บางบอน 1	13.66318	100.40585	bma	working	2022-06-09T00:00:00	7:00:00	8:00:00	15	16	929	3600	0.26
2636	TF1-BB-02 ถ.กาญจนาภิเษก - ถ. บางบอน 1	13.66318	100.40585	bma	working	2022-06-09T00:00:00	8:00:00	9:00:00	32	20	703	3600	0.20
2637	TF1-BB-02 ถ.กาญจนาภิเษก - ถ. บางบอน 1	13.66318	100.40585	bma	working	2022-06-09T00:00:00	9:00:00	10:00:00	28	19	699	3600	0.19
2638	TF1-BB-02 ถ.กาญจนาภิเษก - ถ. บางบอน 1	13.66318	100.40585	bma	working	2022-06-09T00:00:00	10:00:00	11:00:00	29	18	675	3600	0.19
2639	TF1-BB-02 ถ.กาญจนาภิเษก - ถ. บางบอน 1	13.66318	100.40585	bma	working	2022-06-09T00:00:00	11:00:00	12:00:00	41	16	973	3600	0.27
2640	TF1-BB-02 ถ.กาญจนาภิเษก - ถ. บางบอน 1	13.66318	100.40585	bma	working	2022-06-09T00:00:00	12:00:00	13:00:00	29	18	641	3600	0.18
2641	TF1-BB-02 ถ.กาญจนาภิเษก - ถ. บางบอน 1	13.66318	100.40585	bma	working	2022-06-09T00:00:00	13:00:00	14:00:00	28	17	615	3600	0.17
2642	TF1-BB-02 ถ.กาญจนาภิเษก - ถ. บางบอน 1	13.66318	100.40585	bma	working	2022-06-09T00:00:00	14:00:00	15:00:00	31	20	655	3600	0.18
2643	TF1-BB-02 ถ.กาญจนาภิเษก - ถ. บางบอน 1	13.66318	100.40585	bma	working	2022-06-09T00:00:00	15:00:00	16:00:00	28	18	691	3600	0.19
2644	TF1-BB-02 ถ.กาญจนาภิเษก - ถ. บางบอน 1	13.66318	100.40585	bma	working	2022-06-09T00:00:00	16:00:00	17:00:00	41	16	590	3600	0.16
2645	TF1-BB-02 ถ.กาญจนาภิเษก - ถ. บางบอน 1	13.66318	100.40585	bma	working	2022-06-09T00:00:00	17:00:00	18:00:00	27	16	699	3600	0.19
2646	TF1-BB-02 ถ.กาญจนาภิเษก - ถ. บางบอน 1	13.66318	100.40585	bma	working	2022-06-09T00:00:00	18:00:00	19:00:00	11	13	338	3600	0.09
2647	TF1-BB-02 ถ.กาญจนาภิเษก - ถ. บางบอน 1	13.66318	100.40585	bma	working	2022-07-09T00:00:00	5:00:00	6:00:00	8	4	195	3600	0.05
2648	TF1-BB-02 ถ.กาญจนาภิเษก - ถ. บางบอน 1	13.66318	100.40585	bma	working	2022-07-09T00:00:00	6:00:00	7:00:00	6	10	527	3600	0.15
2649	TF1-BB-02 ถ.กาญจนาภิเษก - ถ. บางบอน 1	13.66318	100.40585	bma	working	2022-07-09T00:00:00	7:00:00	8:00:00	17	18	937	3600	0.26
2650	TF1-BB-02 ถ.กาญจนาภิเษก - ถ. บางบอน 1	13.66318	100.40585	bma	working	2022-07-09T00:00:00	8:00:00	9:00:00	55	19	819	3600	0.23
2651	TF1-BB-02 ถ.กาญจนาภิเษก - ถ. บางบอน 1	13.66318	100.40585	bma	working	2022-07-09T00:00:00	9:00:00	10:00:00	55	16	806	3600	0.22
2652	TF1-BB-02 ถ.กาญจนาภิเษก - ถ. บางบอน 1	13.66318	100.40585	bma	working	2022-07-09T00:00:00	10:00:00	11:00:00	54	12	733	3600	0.20
2653	TF1-BB-02 ถ.กาญจนาภิเษก - ถ. บางบอน 1	13.66318	100.40585	bma	working	2022-07-09T00:00:00	11:00:00	12:00:00	45	15	701	3600	0.19
2654	TF1-BB-02 ถ.กาญจนาภิเษก - ถ. บางบอน 1	13.66318	100.40585	bma	working	2022-07-09T00:00:00	12:00:00	13:00:00	53	14	710	3600	0.20
2655	TF1-BB-02 ถ.กาญจนาภิเษก - ถ. บางบอน 1	13.66318	100.40585	bma	working	2022-07-09T00:00:00	13:00:00	14:00:00	56	15	659	3600	0.18
2656	TF1-BB-02 ถ.กาญจนาภิเษก - ถ. บางบอน 1	13.66318	100.40585	bma	working	2022-07-09T00:00:00	14:00:00	15:00:00	53	17	708	3600	0.20
2657	TF1-BB-02 ถ.กาญจนาภิเษก - ถ. บางบอน 1	13.66318	100.40585	bma	working	2022-07-09T00:00:00	15:00:00	16:00:00	51	15	718	3600	0.20
2658	TF1-BB-02 ถ.กาญจนาภิเษก - ถ. บางบอน 1	13.66318	100.40585	bma	working	2022-07-09T00:00:00	16:00:00	17:00:00	42	20	731	3600	0.20
2659	TF1-BB-02 ถ.กาญจนาภิเษก - ถ. บางบอน 1	13.66318	100.40585	bma	working	2022-07-09T00:00:00	17:00:00	18:00:00	30	18	724	3600	0.20
2660	TF1-BB-02 ถ.กาญจนาภิเษก - ถ. บางบอน 1	13.66318	100.40585	bma	working	2022-07-09T00:00:00	18:00:00	19:00:00	13	12	137	3600	0.04
2661	TF1-BB-02 ถ.กาญจนาภิเษก - ถ. บางบอน 1	13.66318	100.40585	bma	working	2022-08-09T00:00:00	5:00:00	6:00:00	8	4	147	3600	0.04
2662	TF1-BB-02 ถ.กาญจนาภิเษก - ถ. บางบอน 1	13.66318	100.40585	bma	working	2022-08-09T00:00:00	6:00:00	7:00:00	6	10	414	3600	0.12
2663	TF1-BB-02 ถ.กาญจนาภิเษก - ถ. บางบอน 1	13.66318	100.40585	bma	working	2022-08-09T00:00:00	7:00:00	8:00:00	19	14	732	3600	0.20
2664	TF1-BB-02 ถ.กาญจนาภิเษก - ถ. บางบอน 1	13.66318	100.40585	bma	working	2022-08-09T00:00:00	8:00:00	9:00:00	35	16	643	3600	0.18
2665	TF1-BB-02 ถ.กาญจนาภิเษก - ถ. บางบอน 1	13.66318	100.40585	bma	working	2022-08-09T00:00:00	9:00:00	10:00:00	32	13	572	3600	0.16
2666	TF1-BB-02 ถ.กาญจนาภิเษก - ถ. บางบอน 1	13.66318	100.40585	bma	working	2022-08-09T00:00:00	10:00:00	11:00:00	30	10	569	3600	0.16
2667	TF1-BB-02 ถ.กาญจนาภิเษก - ถ. บางบอน 1	13.66318	100.40585	bma	working	2022-08-09T00:00:00	11:00:00	12:00:00	32	13	553	3600	0.15
2668	TF1-BB-02 ถ.กาญจนาภิเษก - ถ. บางบอน 1	13.66318	100.40585	bma	working	2022-08-09T00:00:00	12:00:00	13:00:00	29	13	571	3600	0.16
2669	TF1-BB-02 ถ.กาญจนาภิเษก - ถ. บางบอน 1	13.66318	100.40585	bma	working	2022-08-09T00:00:00	13:00:00	14:00:00	32	14	552	3600	0.15
2670	TF1-BB-02 ถ.กาญจนาภิเษก - ถ. บางบอน 1	13.66318	100.40585	bma	working	2022-08-09T00:00:00	14:00:00	15:00:00	31	13	491	3600	0.14
2671	TF1-BB-02 ถ.กาญจนาภิเษก - ถ. บางบอน 1	13.66318	100.40585	bma	working	2022-08-09T00:00:00	15:00:00	16:00:00	28	14	518	3600	0.14
2672	TF1-BB-02 ถ.กาญจนาภิเษก - ถ. บางบอน 1	13.66318	100.40585	bma	working	2022-08-09T00:00:00	16:00:00	17:00:00	25	17	574	3600	0.16
2673	TF1-BB-02 ถ.กาญจนาภิเษก - ถ. บางบอน 1	13.66318	100.40585	bma	working	2022-08-09T00:00:00	17:00:00	18:00:00	25	19	832	3600	0.23
2674	TF1-BB-02 ถ.กาญจนาภิเษก - ถ. บางบอน 1	13.66318	100.40585	bma	working	2022-08-09T00:00:00	18:00:00	19:00:00	13	12	312	3600	0.09
2675	TF1-BB-02 ถ.กาญจนาภิเษก - ถ. บางบอน 1	13.66318	100.40585	bma	working	2022-09-09T00:00:00	5:00:00	6:00:00	8	3	136	3600	0.04
2676	TF1-BB-02 ถ.กาญจนาภิเษก - ถ. บางบอน 1	13.66318	100.40585	bma	working	2022-09-09T00:00:00	6:00:00	7:00:00	6	10	386	3600	0.11
2677	TF1-BB-02 ถ.กาญจนาภิเษก - ถ. บางบอน 1	13.66318	100.40585	bma	working	2022-09-09T00:00:00	7:00:00	8:00:00	23	11	584	3600	0.16
2678	TF1-BB-02 ถ.กาญจนาภิเษก - ถ. บางบอน 1	13.66318	100.40585	bma	working	2022-09-09T00:00:00	8:00:00	9:00:00	11	14	450	3600	0.13
2679	TF1-BB-02 ถ.กาญจนาภิเษก - ถ. บางบอน 1	13.66318	100.40585	bma	working	2022-09-09T00:00:00	9:00:00	10:00:00	9	12	411	3600	0.11
2680	TF1-BB-02 ถ.กาญจนาภิเษก - ถ. บางบอน 1	13.66318	100.40585	bma	working	2022-09-09T00:00:00	10:00:00	11:00:00	5	9	388	3600	0.11
2681	TF1-BB-02 ถ.กาญจนาภิเษก - ถ. บางบอน 1	13.66318	100.40585	bma	working	2022-09-09T00:00:00	11:00:00	12:00:00	18	11	383	3600	0.11
2682	TF1-BB-02 ถ.กาญจนาภิเษก - ถ. บางบอน 1	13.66318	100.40585	bma	working	2022-09-09T00:00:00	12:00:00	13:00:00	5	12	281	3600	0.08
2683	TF1-BB-02 ถ.กาญจนาภิเษก - ถ. บางบอน 1	13.66318	100.40585	bma	working	2022-09-09T00:00:00	13:00:00	14:00:00	10	14	424	3600	0.12
2684	TF1-BB-02 ถ.กาญจนาภิเษก - ถ. บางบอน 1	13.66318	100.40585	bma	working	2022-09-09T00:00:00	14:00:00	15:00:00	9	9	300	3600	0.08
2685	TF1-BB-02 ถ.กาญจนาภิเษก - ถ. บางบอน 1	13.66318	100.40585	bma	working	2022-09-09T00:00:00	15:00:00	16:00:00	6	11	368	3600	0.10
2686	TF1-BB-02 ถ.กาญจนาภิเษก - ถ. บางบอน 1	13.66318	100.40585	bma	working	2022-09-09T00:00:00	16:00:00	17:00:00	8	16	336	3600	0.09
2687	TF1-BB-02 ถ.กาญจนาภิเษก - ถ. บางบอน 1	13.66318	100.40585	bma	working	2022-09-09T00:00:00	17:00:00	18:00:00	22	19	845	3600	0.23
2688	TF1-BB-02 ถ.กาญจนาภิเษก - ถ. บางบอน 1	13.66318	100.40585	bma	working	2022-09-09T00:00:00	18:00:00	19:00:00	11	13	481	3600	0.13
2689	TF1-BB-02 ถ.กาญจนาภิเษก - ถ. บางบอน 1	13.66318	100.40585	bma	working	2022-10-09T00:00:00	5:00:00	6:00:00	8	4	157	3600	0.04
2690	TF1-BB-02 ถ.กาญจนาภิเษก - ถ. บางบอน 1	13.66318	100.40585	bma	working	2022-10-09T00:00:00	6:00:00	7:00:00	6	10	385	3600	0.11
2691	TF1-BB-02 ถ.กาญจนาภิเษก - ถ. บางบอน 1	13.66318	100.40585	bma	holiday	2022-10-09T00:00:00	7:00:00	8:00:00	39	16	487	3600	0.14
2692	TF1-BB-02 ถ.กาญจนาภิเษก - ถ. บางบอน 1	13.66318	100.40585	bma	holiday	2022-10-09T00:00:00	8:00:00	9:00:00	12	9	56	3600	0.02
2693	TF1-BB-02 ถ.กาญจนาภิเษก - ถ. บางบอน 1	13.66318	100.40585	bma	working	2022-10-09T00:00:00	9:00:00	10:00:00	8	7	39	3600	0.01
2694	TF1-BB-02 ถ.กาญจนาภิเษก - ถ. บางบอน 1	13.66318	100.40585	bma	working	2022-10-09T00:00:00	10:00:00	11:00:00	9	6	78	3600	0.02
2695	TF1-BB-02 ถ.กาญจนาภิเษก - ถ. บางบอน 1	13.66318	100.40585	bma	holiday	2022-10-09T00:00:00	11:00:00	12:00:00	11	14	337	3600	0.09
2696	TF1-BB-02 ถ.กาญจนาภิเษก - ถ. บางบอน 1	13.66318	100.40585	bma	working	2022-10-09T00:00:00	12:00:00	13:00:00	8	7	22	3600	0.01
2697	TF1-BB-02 ถ.กาญจนาภิเษก - ถ. บางบอน 1	13.66318	100.40585	bma	working	2022-10-09T00:00:00	13:00:00	14:00:00	10	8	34	3600	0.01
2698	TF1-BB-02 ถ.กาญจนาภิเษก - ถ. บางบอน 1	13.66318	100.40585	bma	working	2022-10-09T00:00:00	14:00:00	15:00:00	11	8	88	3600	0.02
2699	TF1-BB-02 ถ.กาญจนาภิเษก - ถ. บางบอน 1	13.66318	100.40585	bma	working	2022-10-09T00:00:00	15:00:00	16:00:00	6	8	37	3600	0.01
2700	TF1-BB-02 ถ.กาญจนาภิเษก - ถ. บางบอน 1	13.66318	100.40585	bma	holiday	2022-10-09T00:00:00	16:00:00	17:00:00	57	13	566	3600	0.16
2701	TF1-BB-02 ถ.กาญจนาภิเษก - ถ. บางบอน 1	13.66318	100.40585	bma	holiday	2022-10-09T00:00:00	17:00:00	18:00:00	53	23	881	3600	0.24
2702	TF1-BB-02 ถ.กาญจนาภิเษก - ถ. บางบอน 1	13.66318	100.40585	bma	holiday	2022-10-09T00:00:00	18:00:00	19:00:00	34	19	765	3600	0.21
2703	TF1-BB-02 ถ.กาญจนาภิเษก - ถ. บางบอน 1	13.66318	100.40585	bma	working	2022-11-09T00:00:00	5:00:00	6:00:00	8	3	69	3600	0.02
2704	TF1-BB-02 ถ.กาญจนาภิเษก - ถ. บางบอน 1	13.66318	100.40585	bma	holiday	2022-11-09T00:00:00	6:00:00	7:00:00	6	10	195	3600	0.05
2705	TF1-BB-02 ถ.กาญจนาภิเษก - ถ. บางบอน 1	13.66318	100.40585	bma	holiday	2022-11-09T00:00:00	7:00:00	8:00:00	24	10	298	3600	0.08
2706	TF1-BB-02 ถ.กาญจนาภิเษก - ถ. บางบอน 1	13.66318	100.40585	bma	holiday	2022-11-09T00:00:00	8:00:00	9:00:00	8	6	55	3600	0.02
2707	TF1-BB-02 ถ.กาญจนาภิเษก - ถ. บางบอน 1	13.66318	100.40585	bma	working	2022-11-09T00:00:00	9:00:00	10:00:00	5	5	29	3600	0.01
2708	TF1-BB-02 ถ.กาญจนาภิเษก - ถ. บางบอน 1	13.66318	100.40585	bma	working	2022-11-09T00:00:00	10:00:00	11:00:00	5	4	54	3600	0.02
2709	TF1-BB-02 ถ.กาญจนาภิเษก - ถ. บางบอน 1	13.66318	100.40585	bma	holiday	2022-11-09T00:00:00	11:00:00	12:00:00	7	9	224	3600	0.06
2710	TF1-BB-02 ถ.กาญจนาภิเษก - ถ. บางบอน 1	13.66318	100.40585	bma	working	2022-11-09T00:00:00	12:00:00	13:00:00	5	5	15	3600	0.00
2711	TF1-BB-02 ถ.กาญจนาภิเษก - ถ. บางบอน 1	13.66318	100.40585	bma	working	2022-11-09T00:00:00	13:00:00	14:00:00	6	5	22	3600	0.01
2712	TF1-BB-02 ถ.กาญจนาภิเษก - ถ. บางบอน 1	13.66318	100.40585	bma	working	2022-11-09T00:00:00	14:00:00	15:00:00	7	5	25	3600	0.01
2713	TF1-BB-02 ถ.กาญจนาภิเษก - ถ. บางบอน 1	13.66318	100.40585	bma	working	2022-11-09T00:00:00	15:00:00	16:00:00	4	5	21	3600	0.01
2714	TF1-BB-02 ถ.กาญจนาภิเษก - ถ. บางบอน 1	13.66318	100.40585	bma	holiday	2022-11-09T00:00:00	16:00:00	17:00:00	33	8	355	3600	0.10
2715	TF1-BB-02 ถ.กาญจนาภิเษก - ถ. บางบอน 1	13.66318	100.40585	bma	holiday	2022-11-09T00:00:00	17:00:00	18:00:00	33	14	479	3600	0.13
2716	TF1-BB-02 ถ.กาญจนาภิเษก - ถ. บางบอน 1	13.66318	100.40585	bma	holiday	2022-11-09T00:00:00	18:00:00	19:00:00	21	11	590	3600	0.16
2717	TF1-BK-01 ถ.ประเสริฐมนูกิจ - ถ.รัชดา-รามอินทรา 	13.815735	100.642561	bma	working	2022-05-09T00:00:00	5:00:00	6:00:00	83	61	368	1800	0.20
2718	TF1-BK-01 ถ.ประเสริฐมนูกิจ - ถ.รัชดา-รามอินทรา 	13.815735	100.642561	bma	working	2022-05-09T00:00:00	6:00:00	7:00:00	58	196	1176	1800	0.65
2719	TF1-BK-01 ถ.ประเสริฐมนูกิจ - ถ.รัชดา-รามอินทรา 	13.815735	100.642561	bma	working	2022-05-09T00:00:00	7:00:00	8:00:00	57	202	715	1800	0.40
2720	TF1-BK-01 ถ.ประเสริฐมนูกิจ - ถ.รัชดา-รามอินทรา 	13.815735	100.642561	bma	working	2022-05-09T00:00:00	8:00:00	9:00:00	14	201	384	1800	0.21
2721	TF1-BK-01 ถ.ประเสริฐมนูกิจ - ถ.รัชดา-รามอินทรา 	13.815735	100.642561	bma	working	2022-05-09T00:00:00	9:00:00	10:00:00	9	201	82	1800	0.05
2722	TF1-BK-01 ถ.ประเสริฐมนูกิจ - ถ.รัชดา-รามอินทรา 	13.815735	100.642561	bma	working	2022-05-09T00:00:00	10:00:00	11:00:00	10	202	118	1800	0.07
2723	TF1-BK-01 ถ.ประเสริฐมนูกิจ - ถ.รัชดา-รามอินทรา 	13.815735	100.642561	bma	working	2022-05-09T00:00:00	11:00:00	12:00:00	59	201	1050	1800	0.58
2724	TF1-BK-01 ถ.ประเสริฐมนูกิจ - ถ.รัชดา-รามอินทรา 	13.815735	100.642561	bma	working	2022-05-09T00:00:00	12:00:00	13:00:00	12	202	148	1800	0.08
2725	TF1-BK-01 ถ.ประเสริฐมนูกิจ - ถ.รัชดา-รามอินทรา 	13.815735	100.642561	bma	working	2022-05-09T00:00:00	13:00:00	14:00:00	11	201	181	1800	0.10
2726	TF1-BK-01 ถ.ประเสริฐมนูกิจ - ถ.รัชดา-รามอินทรา 	13.815735	100.642561	bma	working	2022-05-09T00:00:00	14:00:00	15:00:00	13	201	139	1800	0.08
2727	TF1-BK-01 ถ.ประเสริฐมนูกิจ - ถ.รัชดา-รามอินทรา 	13.815735	100.642561	bma	working	2022-05-09T00:00:00	15:00:00	16:00:00	11	202	189	1800	0.11
2728	TF1-BK-01 ถ.ประเสริฐมนูกิจ - ถ.รัชดา-รามอินทรา 	13.815735	100.642561	bma	working	2022-05-09T00:00:00	16:00:00	17:00:00	52	97	2126	1800	1.18
2729	TF1-BK-01 ถ.ประเสริฐมนูกิจ - ถ.รัชดา-รามอินทรา 	13.815735	100.642561	bma	working	2022-05-09T00:00:00	17:00:00	18:00:00	36	138	1056	1800	0.59
2730	TF1-BK-01 ถ.ประเสริฐมนูกิจ - ถ.รัชดา-รามอินทรา 	13.815735	100.642561	bma	working	2022-05-09T00:00:00	18:00:00	19:00:00	43	202	676	1800	0.38
2731	TF1-BK-01 ถ.ประเสริฐมนูกิจ - ถ.รัชดา-รามอินทรา 	13.815735	100.642561	bma	working	2022-06-09T00:00:00	5:00:00	6:00:00	71	70	435	1800	0.24
2732	TF1-BK-01 ถ.ประเสริฐมนูกิจ - ถ.รัชดา-รามอินทรา 	13.815735	100.642561	bma	working	2022-06-09T00:00:00	6:00:00	7:00:00	50	202	1320	1800	0.73
2733	TF1-BK-01 ถ.ประเสริฐมนูกิจ - ถ.รัชดา-รามอินทรา 	13.815735	100.642561	bma	working	2022-06-09T00:00:00	7:00:00	8:00:00	53	201	793	1800	0.44
2734	TF1-BK-01 ถ.ประเสริฐมนูกิจ - ถ.รัชดา-รามอินทรา 	13.815735	100.642561	bma	working	2022-06-09T00:00:00	8:00:00	9:00:00	32	201	1864	1800	1.04
2735	TF1-BK-01 ถ.ประเสริฐมนูกิจ - ถ.รัชดา-รามอินทรา 	13.815735	100.642561	bma	working	2022-06-09T00:00:00	9:00:00	10:00:00	29	201	1535	1800	0.85
2736	TF1-BK-01 ถ.ประเสริฐมนูกิจ - ถ.รัชดา-รามอินทรา 	13.815735	100.642561	bma	working	2022-06-09T00:00:00	10:00:00	11:00:00	29	202	1610	1800	0.89
2737	TF1-BK-01 ถ.ประเสริฐมนูกิจ - ถ.รัชดา-รามอินทรา 	13.815735	100.642561	bma	working	2022-06-09T00:00:00	11:00:00	12:00:00	53	201	811	1800	0.45
2738	TF1-BK-01 ถ.ประเสริฐมนูกิจ - ถ.รัชดา-รามอินทรา 	13.815735	100.642561	bma	working	2022-06-09T00:00:00	12:00:00	13:00:00	30	202	1622	1800	0.90
2739	TF1-BK-01 ถ.ประเสริฐมนูกิจ - ถ.รัชดา-รามอินทรา 	13.815735	100.642561	bma	working	2022-06-09T00:00:00	13:00:00	14:00:00	28	201	1609	1800	0.89
2740	TF1-BK-01 ถ.ประเสริฐมนูกิจ - ถ.รัชดา-รามอินทรา 	13.815735	100.642561	bma	working	2022-06-09T00:00:00	14:00:00	15:00:00	30	201	1553	1800	0.86
2741	TF1-BK-01 ถ.ประเสริฐมนูกิจ - ถ.รัชดา-รามอินทรา 	13.815735	100.642561	bma	working	2022-06-09T00:00:00	15:00:00	16:00:00	29	202	1804	1800	1.00
2742	TF1-BK-01 ถ.ประเสริฐมนูกิจ - ถ.รัชดา-รามอินทรา 	13.815735	100.642561	bma	working	2022-06-09T00:00:00	16:00:00	17:00:00	53	202	1902	1800	1.06
2743	TF1-BK-01 ถ.ประเสริฐมนูกิจ - ถ.รัชดา-รามอินทรา 	13.815735	100.642561	bma	working	2022-06-09T00:00:00	17:00:00	18:00:00	47	108	858	1800	0.48
2744	TF1-BK-01 ถ.ประเสริฐมนูกิจ - ถ.รัชดา-รามอินทรา 	13.815735	100.642561	bma	working	2022-06-09T00:00:00	18:00:00	19:00:00	52	202	462	1800	0.26
2745	TF1-BK-01 ถ.ประเสริฐมนูกิจ - ถ.รัชดา-รามอินทรา 	13.815735	100.642561	bma	working	2022-07-09T00:00:00	5:00:00	6:00:00	63	66	437	1800	0.24
2746	TF1-BK-01 ถ.ประเสริฐมนูกิจ - ถ.รัชดา-รามอินทรา 	13.815735	100.642561	bma	working	2022-07-09T00:00:00	6:00:00	7:00:00	44	201	1306	1800	0.73
2747	TF1-BK-01 ถ.ประเสริฐมนูกิจ - ถ.รัชดา-รามอินทรา 	13.815735	100.642561	bma	working	2022-07-09T00:00:00	7:00:00	8:00:00	47	201	837	1800	0.47
2748	TF1-BK-01 ถ.ประเสริฐมนูกิจ - ถ.รัชดา-รามอินทรา 	13.815735	100.642561	bma	working	2022-07-09T00:00:00	8:00:00	9:00:00	49	201	3298	1800	1.83
2749	TF1-BK-01 ถ.ประเสริฐมนูกิจ - ถ.รัชดา-รามอินทรา 	13.815735	100.642561	bma	working	2022-07-09T00:00:00	9:00:00	10:00:00	49	202	3019	1800	1.68
2750	TF1-BK-01 ถ.ประเสริฐมนูกิจ - ถ.รัชดา-รามอินทรา 	13.815735	100.642561	bma	working	2022-07-09T00:00:00	10:00:00	11:00:00	45	201	3016	1800	1.68
2751	TF1-BK-01 ถ.ประเสริฐมนูกิจ - ถ.รัชดา-รามอินทรา 	13.815735	100.642561	bma	working	2022-07-09T00:00:00	11:00:00	12:00:00	56	88	591	1800	0.33
2752	TF1-BK-01 ถ.ประเสริฐมนูกิจ - ถ.รัชดา-รามอินทรา 	13.815735	100.642561	bma	working	2022-07-09T00:00:00	12:00:00	13:00:00	48	201	3079	1800	1.71
2753	TF1-BK-01 ถ.ประเสริฐมนูกิจ - ถ.รัชดา-รามอินทรา 	13.815735	100.642561	bma	working	2022-07-09T00:00:00	13:00:00	14:00:00	46	202	3072	1800	1.71
2754	TF1-BK-01 ถ.ประเสริฐมนูกิจ - ถ.รัชดา-รามอินทรา 	13.815735	100.642561	bma	working	2022-07-09T00:00:00	14:00:00	15:00:00	43	202	3011	1800	1.67
2755	TF1-BK-01 ถ.ประเสริฐมนูกิจ - ถ.รัชดา-รามอินทรา 	13.815735	100.642561	bma	working	2022-07-09T00:00:00	15:00:00	16:00:00	47	202	3381	1800	1.88
2756	TF1-BK-01 ถ.ประเสริฐมนูกิจ - ถ.รัชดา-รามอินทรา 	13.815735	100.642561	bma	working	2022-07-09T00:00:00	16:00:00	17:00:00	57	202	1643	1800	0.91
2757	TF1-BK-01 ถ.ประเสริฐมนูกิจ - ถ.รัชดา-รามอินทรา 	13.815735	100.642561	bma	working	2022-07-09T00:00:00	17:00:00	18:00:00	59	90	629	1800	0.35
2758	TF1-BK-01 ถ.ประเสริฐมนูกิจ - ถ.รัชดา-รามอินทรา 	13.815735	100.642561	bma	working	2022-07-09T00:00:00	18:00:00	19:00:00	56	156	349	1800	0.19
2759	TF1-BK-01 ถ.ประเสริฐมนูกิจ - ถ.รัชดา-รามอินทรา 	13.815735	100.642561	bma	working	2022-08-09T00:00:00	5:00:00	6:00:00	34	63	293	1800	0.16
2760	TF1-BK-01 ถ.ประเสริฐมนูกิจ - ถ.รัชดา-รามอินทรา 	13.815735	100.642561	bma	working	2022-08-09T00:00:00	6:00:00	7:00:00	24	201	869	1800	0.48
2761	TF1-BK-01 ถ.ประเสริฐมนูกิจ - ถ.รัชดา-รามอินทรา 	13.815735	100.642561	bma	working	2022-08-09T00:00:00	7:00:00	8:00:00	48	201	666	1800	0.37
2762	TF1-BK-01 ถ.ประเสริฐมนูกิจ - ถ.รัชดา-รามอินทรา 	13.815735	100.642561	bma	working	2022-08-09T00:00:00	8:00:00	9:00:00	51	201	2056	1800	1.14
2763	TF1-BK-01 ถ.ประเสริฐมนูกิจ - ถ.รัชดา-รามอินทรา 	13.815735	100.642561	bma	working	2022-08-09T00:00:00	9:00:00	10:00:00	49	201	1927	1800	1.07
2764	TF1-BK-01 ถ.ประเสริฐมนูกิจ - ถ.รัชดา-รามอินทรา 	13.815735	100.642561	bma	working	2022-08-09T00:00:00	10:00:00	11:00:00	46	202	1828	1800	1.02
2765	TF1-BK-01 ถ.ประเสริฐมนูกิจ - ถ.รัชดา-รามอินทรา 	13.815735	100.642561	bma	working	2022-08-09T00:00:00	11:00:00	12:00:00	56	99	1053	1800	0.59
2766	TF1-BK-01 ถ.ประเสริฐมนูกิจ - ถ.รัชดา-รามอินทรา 	13.815735	100.642561	bma	working	2022-08-09T00:00:00	12:00:00	13:00:00	50	202	1906	1800	1.06
2767	TF1-BK-01 ถ.ประเสริฐมนูกิจ - ถ.รัชดา-รามอินทรา 	13.815735	100.642561	bma	working	2022-08-09T00:00:00	13:00:00	14:00:00	49	202	1946	1800	1.08
2768	TF1-BK-01 ถ.ประเสริฐมนูกิจ - ถ.รัชดา-รามอินทรา 	13.815735	100.642561	bma	working	2022-08-09T00:00:00	14:00:00	15:00:00	49	201	1853	1800	1.03
2769	TF1-BK-01 ถ.ประเสริฐมนูกิจ - ถ.รัชดา-รามอินทรา 	13.815735	100.642561	bma	working	2022-08-09T00:00:00	15:00:00	16:00:00	46	202	2025	1800	1.13
2770	TF1-BK-01 ถ.ประเสริฐมนูกิจ - ถ.รัชดา-รามอินทรา 	13.815735	100.642561	bma	working	2022-08-09T00:00:00	16:00:00	17:00:00	44	201	1091	1800	0.61
2771	TF1-BK-01 ถ.ประเสริฐมนูกิจ - ถ.รัชดา-รามอินทรา 	13.815735	100.642561	bma	working	2022-08-09T00:00:00	17:00:00	18:00:00	36	201	869	1800	0.48
2772	TF1-BK-01 ถ.ประเสริฐมนูกิจ - ถ.รัชดา-รามอินทรา 	13.815735	100.642561	bma	working	2022-08-09T00:00:00	18:00:00	19:00:00	33	202	771	1800	0.43
2773	TF1-BK-01 ถ.ประเสริฐมนูกิจ - ถ.รัชดา-รามอินทรา 	13.815735	100.642561	bma	working	2022-09-09T00:00:00	5:00:00	6:00:00	5	62	165	1800	0.09
2774	TF1-BK-01 ถ.ประเสริฐมนูกิจ - ถ.รัชดา-รามอินทรา 	13.815735	100.642561	bma	working	2022-09-09T00:00:00	6:00:00	7:00:00	4	201	488	1800	0.27
2775	TF1-BK-01 ถ.ประเสริฐมนูกิจ - ถ.รัชดา-รามอินทรา 	13.815735	100.642561	bma	working	2022-09-09T00:00:00	7:00:00	8:00:00	45	185	500	1800	0.28
2776	TF1-BK-01 ถ.ประเสริฐมนูกิจ - ถ.รัชดา-รามอินทรา 	13.815735	100.642561	bma	working	2022-09-09T00:00:00	8:00:00	9:00:00	52	202	824	1800	0.46
2777	TF1-BK-01 ถ.ประเสริฐมนูกิจ - ถ.รัชดา-รามอินทรา 	13.815735	100.642561	bma	working	2022-09-09T00:00:00	9:00:00	10:00:00	48	202	797	1800	0.44
2778	TF1-BK-01 ถ.ประเสริฐมนูกิจ - ถ.รัชดา-รามอินทรา 	13.815735	100.642561	bma	working	2022-09-09T00:00:00	10:00:00	11:00:00	51	201	624	1800	0.35
2779	TF1-BK-01 ถ.ประเสริฐมนูกิจ - ถ.รัชดา-รามอินทรา 	13.815735	100.642561	bma	working	2022-09-09T00:00:00	11:00:00	12:00:00	56	114	1560	1800	0.87
2780	TF1-BK-01 ถ.ประเสริฐมนูกิจ - ถ.รัชดา-รามอินทรา 	13.815735	100.642561	bma	working	2022-09-09T00:00:00	12:00:00	13:00:00	49	202	736	1800	0.41
2781	TF1-BK-01 ถ.ประเสริฐมนูกิจ - ถ.รัชดา-รามอินทรา 	13.815735	100.642561	bma	working	2022-09-09T00:00:00	13:00:00	14:00:00	47	201	822	1800	0.46
2782	TF1-BK-01 ถ.ประเสริฐมนูกิจ - ถ.รัชดา-รามอินทรา 	13.815735	100.642561	bma	working	2022-09-09T00:00:00	14:00:00	15:00:00	50	202	742	1800	0.41
2783	TF1-BK-01 ถ.ประเสริฐมนูกิจ - ถ.รัชดา-รามอินทรา 	13.815735	100.642561	bma	working	2022-09-09T00:00:00	15:00:00	16:00:00	49	201	672	1800	0.37
2784	TF1-BK-01 ถ.ประเสริฐมนูกิจ - ถ.รัชดา-รามอินทรา 	13.815735	100.642561	bma	working	2022-09-09T00:00:00	16:00:00	17:00:00	33	128	537	1800	0.30
2785	TF1-BK-01 ถ.ประเสริฐมนูกิจ - ถ.รัชดา-รามอินทรา 	13.815735	100.642561	bma	working	2022-09-09T00:00:00	17:00:00	18:00:00	13	202	1015	1800	0.56
2786	TF1-BK-01 ถ.ประเสริฐมนูกิจ - ถ.รัชดา-รามอินทรา 	13.815735	100.642561	bma	working	2022-09-09T00:00:00	18:00:00	19:00:00	7	202	1098	1800	0.61
2787	TF1-BK-01 ถ.ประเสริฐมนูกิจ - ถ.รัชดา-รามอินทรา 	13.815735	100.642561	bma	working	2022-10-09T00:00:00	5:00:00	6:00:00	5	67	67	1800	0.04
2788	TF1-BK-01 ถ.ประเสริฐมนูกิจ - ถ.รัชดา-รามอินทรา 	13.815735	100.642561	bma	holiday	2022-10-09T00:00:00	6:00:00	7:00:00	4	202	187	1800	0.10
2789	TF1-BK-01 ถ.ประเสริฐมนูกิจ - ถ.รัชดา-รามอินทรา 	13.815735	100.642561	bma	holiday	2022-10-09T00:00:00	7:00:00	8:00:00	0	48	256	1800	0.14
2790	TF1-BK-01 ถ.ประเสริฐมนูกิจ - ถ.รัชดา-รามอินทรา 	13.815735	100.642561	bma	holiday	2022-10-09T00:00:00	8:00:00	9:00:00	25	202	1108	1800	0.62
2791	TF1-BK-01 ถ.ประเสริฐมนูกิจ - ถ.รัชดา-รามอินทรา 	13.815735	100.642561	bma	working	2022-10-09T00:00:00	9:00:00	10:00:00	23	201	1057	1800	0.59
2792	TF1-BK-01 ถ.ประเสริฐมนูกิจ - ถ.รัชดา-รามอินทรา 	13.815735	100.642561	bma	working	2022-10-09T00:00:00	10:00:00	11:00:00	24	199	1071	1800	0.60
2793	TF1-BK-01 ถ.ประเสริฐมนูกิจ - ถ.รัชดา-รามอินทรา 	13.815735	100.642561	bma	holiday	2022-10-09T00:00:00	11:00:00	12:00:00	48	156	3384	1800	1.88
2794	TF1-BK-01 ถ.ประเสริฐมนูกิจ - ถ.รัชดา-รามอินทรา 	13.815735	100.642561	bma	working	2022-10-09T00:00:00	12:00:00	13:00:00	24	202	1293	1800	0.72
2795	TF1-BK-01 ถ.ประเสริฐมนูกิจ - ถ.รัชดา-รามอินทรา 	13.815735	100.642561	bma	working	2022-10-09T00:00:00	13:00:00	14:00:00	25	201	1335	1800	0.74
2796	TF1-BK-01 ถ.ประเสริฐมนูกิจ - ถ.รัชดา-รามอินทรา 	13.815735	100.642561	bma	working	2022-10-09T00:00:00	14:00:00	15:00:00	20	194	1150	1800	0.64
2797	TF1-BK-01 ถ.ประเสริฐมนูกิจ - ถ.รัชดา-รามอินทรา 	13.815735	100.642561	bma	working	2022-10-09T00:00:00	15:00:00	16:00:00	24	201	946	1800	0.53
2798	TF1-BK-01 ถ.ประเสริฐมนูกิจ - ถ.รัชดา-รามอินทรา 	13.815735	100.642561	bma	holiday	2022-10-09T00:00:00	16:00:00	17:00:00	0	202	509	1800	0.28
2799	TF1-BK-01 ถ.ประเสริฐมนูกิจ - ถ.รัชดา-รามอินทรา 	13.815735	100.642561	bma	holiday	2022-10-09T00:00:00	17:00:00	18:00:00	0	201	951	1800	0.53
2800	TF1-BK-01 ถ.ประเสริฐมนูกิจ - ถ.รัชดา-รามอินทรา 	13.815735	100.642561	bma	holiday	2022-10-09T00:00:00	18:00:00	19:00:00	2	202	854	1800	0.47
2801	TF1-BK-01 ถ.ประเสริฐมนูกิจ - ถ.รัชดา-รามอินทรา 	13.815735	100.642561	bma	working	2022-11-09T00:00:00	5:00:00	6:00:00	5	66	33	1800	0.02
2802	TF1-BK-01 ถ.ประเสริฐมนูกิจ - ถ.รัชดา-รามอินทรา 	13.815735	100.642561	bma	holiday	2022-11-09T00:00:00	6:00:00	7:00:00	4	202	85	1800	0.05
2803	TF1-BK-01 ถ.ประเสริฐมนูกิจ - ถ.รัชดา-รามอินทรา 	13.815735	100.642561	bma	holiday	2022-11-09T00:00:00	7:00:00	8:00:00	0	29	131	1800	0.07
2804	TF1-BK-01 ถ.ประเสริฐมนูกิจ - ถ.รัชดา-รามอินทรา 	13.815735	100.642561	bma	holiday	2022-11-09T00:00:00	8:00:00	9:00:00	15	124	717	1800	0.40
2805	TF1-BK-01 ถ.ประเสริฐมนูกิจ - ถ.รัชดา-รามอินทรา 	13.815735	100.642561	bma	working	2022-11-09T00:00:00	9:00:00	10:00:00	14	124	655	1800	0.36
2806	TF1-BK-01 ถ.ประเสริฐมนูกิจ - ถ.รัชดา-รามอินทรา 	13.815735	100.642561	bma	working	2022-11-09T00:00:00	10:00:00	11:00:00	14	117	675	1800	0.38
2807	TF1-BK-01 ถ.ประเสริฐมนูกิจ - ถ.รัชดา-รามอินทรา 	13.815735	100.642561	bma	holiday	2022-11-09T00:00:00	11:00:00	12:00:00	31	93	1953	1800	1.09
2808	TF1-BK-01 ถ.ประเสริฐมนูกิจ - ถ.รัชดา-รามอินทรา 	13.815735	100.642561	bma	working	2022-11-09T00:00:00	12:00:00	13:00:00	15	118	811	1800	0.45
2809	TF1-BK-01 ถ.ประเสริฐมนูกิจ - ถ.รัชดา-รามอินทรา 	13.815735	100.642561	bma	working	2022-11-09T00:00:00	13:00:00	14:00:00	15	127	866	1800	0.48
2810	TF1-BK-01 ถ.ประเสริฐมนูกิจ - ถ.รัชดา-รามอินทรา 	13.815735	100.642561	bma	working	2022-11-09T00:00:00	14:00:00	15:00:00	13	118	723	1800	0.40
2811	TF1-BK-01 ถ.ประเสริฐมนูกิจ - ถ.รัชดา-รามอินทรา 	13.815735	100.642561	bma	working	2022-11-09T00:00:00	15:00:00	16:00:00	14	114	650	1800	0.36
2812	TF1-BK-01 ถ.ประเสริฐมนูกิจ - ถ.รัชดา-รามอินทรา 	13.815735	100.642561	bma	holiday	2022-11-09T00:00:00	16:00:00	17:00:00	0	202	301	1800	0.17
2813	TF1-BK-01 ถ.ประเสริฐมนูกิจ - ถ.รัชดา-รามอินทรา 	13.815735	100.642561	bma	holiday	2022-11-09T00:00:00	17:00:00	18:00:00	0	201	556	1800	0.31
2814	TF1-BK-01 ถ.ประเสริฐมนูกิจ - ถ.รัชดา-รามอินทรา 	13.815735	100.642561	bma	holiday	2022-11-09T00:00:00	18:00:00	19:00:00	0	140	556	1800	0.31
2815	TF1-CT-01 ถ.กัลปพฤกษ์ - ถ. ราชพฤกษ์	13.712454	100.459028	bma	working	2022-05-09T00:00:00	5:00:00	6:00:00	38	45	1007	2700	0.37
2816	TF1-CT-01 ถ.กัลปพฤกษ์ - ถ. ราชพฤกษ์	13.712454	100.459028	bma	working	2022-05-09T00:00:00	6:00:00	7:00:00	27	135	3224	2700	1.19
2817	TF1-CT-01 ถ.กัลปพฤกษ์ - ถ. ราชพฤกษ์	13.712454	100.459028	bma	working	2022-05-09T00:00:00	7:00:00	8:00:00	8	54	1727	2700	0.64
2818	TF1-CT-01 ถ.กัลปพฤกษ์ - ถ. ราชพฤกษ์	13.712454	100.459028	bma	working	2022-05-09T00:00:00	8:00:00	9:00:00	7	66	1968	2700	0.73
2819	TF1-CT-01 ถ.กัลปพฤกษ์ - ถ. ราชพฤกษ์	13.712454	100.459028	bma	working	2022-05-09T00:00:00	9:00:00	10:00:00	4	64	1771	2700	0.66
2820	TF1-CT-01 ถ.กัลปพฤกษ์ - ถ. ราชพฤกษ์	13.712454	100.459028	bma	working	2022-05-09T00:00:00	10:00:00	11:00:00	3	60	1869	2700	0.69
2821	TF1-CT-01 ถ.กัลปพฤกษ์ - ถ. ราชพฤกษ์	13.712454	100.459028	bma	working	2022-05-09T00:00:00	11:00:00	12:00:00	8	59	2475	2700	0.92
2822	TF1-CT-01 ถ.กัลปพฤกษ์ - ถ. ราชพฤกษ์	13.712454	100.459028	bma	working	2022-05-09T00:00:00	12:00:00	13:00:00	6	62	1764	2700	0.65
2823	TF1-CT-01 ถ.กัลปพฤกษ์ - ถ. ราชพฤกษ์	13.712454	100.459028	bma	working	2022-05-09T00:00:00	13:00:00	14:00:00	6	61	1755	2700	0.65
2824	TF1-CT-01 ถ.กัลปพฤกษ์ - ถ. ราชพฤกษ์	13.712454	100.459028	bma	working	2022-05-09T00:00:00	14:00:00	15:00:00	4	62	1805	2700	0.67
2825	TF1-CT-01 ถ.กัลปพฤกษ์ - ถ. ราชพฤกษ์	13.712454	100.459028	bma	working	2022-05-09T00:00:00	15:00:00	16:00:00	6	58	1856	2700	0.69
2826	TF1-CT-01 ถ.กัลปพฤกษ์ - ถ. ราชพฤกษ์	13.712454	100.459028	bma	working	2022-05-09T00:00:00	16:00:00	17:00:00	11	84	1069	2700	0.40
2827	TF1-CT-01 ถ.กัลปพฤกษ์ - ถ. ราชพฤกษ์	13.712454	100.459028	bma	working	2022-05-09T00:00:00	17:00:00	18:00:00	6	74	1498	2700	0.55
2828	TF1-CT-01 ถ.กัลปพฤกษ์ - ถ. ราชพฤกษ์	13.712454	100.459028	bma	working	2022-05-09T00:00:00	18:00:00	19:00:00	6	65	1214	2700	0.45
2829	TF1-CT-01 ถ.กัลปพฤกษ์ - ถ. ราชพฤกษ์	13.712454	100.459028	bma	working	2022-06-09T00:00:00	5:00:00	6:00:00	36	51	1111	2700	0.41
2830	TF1-CT-01 ถ.กัลปพฤกษ์ - ถ. ราชพฤกษ์	13.712454	100.459028	bma	working	2022-06-09T00:00:00	6:00:00	7:00:00	26	156	3526	2700	1.31
2831	TF1-CT-01 ถ.กัลปพฤกษ์ - ถ. ราชพฤกษ์	13.712454	100.459028	bma	working	2022-06-09T00:00:00	7:00:00	8:00:00	10	66	1911	2700	0.71
2832	TF1-CT-01 ถ.กัลปพฤกษ์ - ถ. ราชพฤกษ์	13.712454	100.459028	bma	working	2022-06-09T00:00:00	8:00:00	9:00:00	8	62	2456	2700	0.91
2833	TF1-CT-01 ถ.กัลปพฤกษ์ - ถ. ราชพฤกษ์	13.712454	100.459028	bma	working	2022-06-09T00:00:00	9:00:00	10:00:00	4	61	2436	2700	0.90
2834	TF1-CT-01 ถ.กัลปพฤกษ์ - ถ. ราชพฤกษ์	13.712454	100.459028	bma	working	2022-06-09T00:00:00	10:00:00	11:00:00	4	59	2338	2700	0.87
2835	TF1-CT-01 ถ.กัลปพฤกษ์ - ถ. ราชพฤกษ์	13.712454	100.459028	bma	working	2022-06-09T00:00:00	11:00:00	12:00:00	12	118	4072	2700	1.51
2836	TF1-CT-01 ถ.กัลปพฤกษ์ - ถ. ราชพฤกษ์	13.712454	100.459028	bma	working	2022-06-09T00:00:00	12:00:00	13:00:00	4	58	2333	2700	0.86
2837	TF1-CT-01 ถ.กัลปพฤกษ์ - ถ. ราชพฤกษ์	13.712454	100.459028	bma	working	2022-06-09T00:00:00	13:00:00	14:00:00	6	61	2329	2700	0.86
2838	TF1-CT-01 ถ.กัลปพฤกษ์ - ถ. ราชพฤกษ์	13.712454	100.459028	bma	working	2022-06-09T00:00:00	14:00:00	15:00:00	4	65	2378	2700	0.88
2839	TF1-CT-01 ถ.กัลปพฤกษ์ - ถ. ราชพฤกษ์	13.712454	100.459028	bma	working	2022-06-09T00:00:00	15:00:00	16:00:00	5	58	2423	2700	0.90
2840	TF1-CT-01 ถ.กัลปพฤกษ์ - ถ. ราชพฤกษ์	13.712454	100.459028	bma	working	2022-06-09T00:00:00	16:00:00	17:00:00	8	78	1888	2700	0.70
2841	TF1-CT-01 ถ.กัลปพฤกษ์ - ถ. ราชพฤกษ์	13.712454	100.459028	bma	working	2022-06-09T00:00:00	17:00:00	18:00:00	7	106	2993	2700	1.11
2842	TF1-CT-01 ถ.กัลปพฤกษ์ - ถ. ราชพฤกษ์	13.712454	100.459028	bma	working	2022-06-09T00:00:00	18:00:00	19:00:00	6	70	1323	2700	0.49
2843	TF1-CT-01 ถ.กัลปพฤกษ์ - ถ. ราชพฤกษ์	13.712454	100.459028	bma	working	2022-07-09T00:00:00	5:00:00	6:00:00	36	51	1298	2700	0.48
2844	TF1-CT-01 ถ.กัลปพฤกษ์ - ถ. ราชพฤกษ์	13.712454	100.459028	bma	working	2022-07-09T00:00:00	6:00:00	7:00:00	26	161	3740	2700	1.39
2845	TF1-CT-01 ถ.กัลปพฤกษ์ - ถ. ราชพฤกษ์	13.712454	100.459028	bma	working	2022-07-09T00:00:00	7:00:00	8:00:00	11	73	1930	2700	0.71
2846	TF1-CT-01 ถ.กัลปพฤกษ์ - ถ. ราชพฤกษ์	13.712454	100.459028	bma	working	2022-07-09T00:00:00	8:00:00	9:00:00	8	62	3025	2700	1.12
2847	TF1-CT-01 ถ.กัลปพฤกษ์ - ถ. ราชพฤกษ์	13.712454	100.459028	bma	working	2022-07-09T00:00:00	9:00:00	10:00:00	5	57	2930	2700	1.09
2848	TF1-CT-01 ถ.กัลปพฤกษ์ - ถ. ราชพฤกษ์	13.712454	100.459028	bma	working	2022-07-09T00:00:00	10:00:00	11:00:00	6	56	2777	2700	1.03
2849	TF1-CT-01 ถ.กัลปพฤกษ์ - ถ. ราชพฤกษ์	13.712454	100.459028	bma	working	2022-07-09T00:00:00	11:00:00	12:00:00	16	172	5642	2700	2.09
2850	TF1-CT-01 ถ.กัลปพฤกษ์ - ถ. ราชพฤกษ์	13.712454	100.459028	bma	working	2022-07-09T00:00:00	12:00:00	13:00:00	3	62	2909	2700	1.08
2851	TF1-CT-01 ถ.กัลปพฤกษ์ - ถ. ราชพฤกษ์	13.712454	100.459028	bma	working	2022-07-09T00:00:00	13:00:00	14:00:00	6	59	2979	2700	1.10
2852	TF1-CT-01 ถ.กัลปพฤกษ์ - ถ. ราชพฤกษ์	13.712454	100.459028	bma	working	2022-07-09T00:00:00	14:00:00	15:00:00	4	62	2930	2700	1.09
2853	TF1-CT-01 ถ.กัลปพฤกษ์ - ถ. ราชพฤกษ์	13.712454	100.459028	bma	working	2022-07-09T00:00:00	15:00:00	16:00:00	3	61	3073	2700	1.14
2854	TF1-CT-01 ถ.กัลปพฤกษ์ - ถ. ราชพฤกษ์	13.712454	100.459028	bma	working	2022-07-09T00:00:00	16:00:00	17:00:00	4	73	2654	2700	0.98
2855	TF1-CT-01 ถ.กัลปพฤกษ์ - ถ. ราชพฤกษ์	13.712454	100.459028	bma	working	2022-07-09T00:00:00	17:00:00	18:00:00	8	148	4388	2700	1.63
2856	TF1-CT-01 ถ.กัลปพฤกษ์ - ถ. ราชพฤกษ์	13.712454	100.459028	bma	working	2022-07-09T00:00:00	18:00:00	19:00:00	6	78	1514	2700	0.56
2857	TF1-CT-01 ถ.กัลปพฤกษ์ - ถ. ราชพฤกษ์	13.712454	100.459028	bma	working	2022-08-09T00:00:00	5:00:00	6:00:00	20	41	1478	2700	0.55
2858	TF1-CT-01 ถ.กัลปพฤกษ์ - ถ. ราชพฤกษ์	13.712454	100.459028	bma	working	2022-08-09T00:00:00	6:00:00	7:00:00	15	132	4227	2700	1.57
2859	TF1-CT-01 ถ.กัลปพฤกษ์ - ถ. ราชพฤกษ์	13.712454	100.459028	bma	working	2022-08-09T00:00:00	7:00:00	8:00:00	11	68	1574	2700	0.58
2860	TF1-CT-01 ถ.กัลปพฤกษ์ - ถ. ราชพฤกษ์	13.712454	100.459028	bma	working	2022-08-09T00:00:00	8:00:00	9:00:00	9	67	3116	2700	1.15
2861	TF1-CT-01 ถ.กัลปพฤกษ์ - ถ. ราชพฤกษ์	13.712454	100.459028	bma	working	2022-08-09T00:00:00	9:00:00	10:00:00	6	61	3128	2700	1.16
2862	TF1-CT-01 ถ.กัลปพฤกษ์ - ถ. ราชพฤกษ์	13.712454	100.459028	bma	working	2022-08-09T00:00:00	10:00:00	11:00:00	7	61	2955	2700	1.09
2863	TF1-CT-01 ถ.กัลปพฤกษ์ - ถ. ราชพฤกษ์	13.712454	100.459028	bma	working	2022-08-09T00:00:00	11:00:00	12:00:00	13	130	3742	2700	1.39
2864	TF1-CT-01 ถ.กัลปพฤกษ์ - ถ. ราชพฤกษ์	13.712454	100.459028	bma	working	2022-08-09T00:00:00	12:00:00	13:00:00	5	63	2981	2700	1.10
2865	TF1-CT-01 ถ.กัลปพฤกษ์ - ถ. ราชพฤกษ์	13.712454	100.459028	bma	working	2022-08-09T00:00:00	13:00:00	14:00:00	7	61	3009	2700	1.11
2866	TF1-CT-01 ถ.กัลปพฤกษ์ - ถ. ราชพฤกษ์	13.712454	100.459028	bma	working	2022-08-09T00:00:00	14:00:00	15:00:00	5	66	3026	2700	1.12
2867	TF1-CT-01 ถ.กัลปพฤกษ์ - ถ. ราชพฤกษ์	13.712454	100.459028	bma	working	2022-08-09T00:00:00	15:00:00	16:00:00	4	63	3070	2700	1.14
2868	TF1-CT-01 ถ.กัลปพฤกษ์ - ถ. ราชพฤกษ์	13.712454	100.459028	bma	working	2022-08-09T00:00:00	16:00:00	17:00:00	5	128	4068	2700	1.51
2869	TF1-CT-01 ถ.กัลปพฤกษ์ - ถ. ราชพฤกษ์	13.712454	100.459028	bma	working	2022-08-09T00:00:00	17:00:00	18:00:00	14	169	4344	2700	1.61
2870	TF1-CT-01 ถ.กัลปพฤกษ์ - ถ. ราชพฤกษ์	13.712454	100.459028	bma	working	2022-08-09T00:00:00	18:00:00	19:00:00	5	74	2009	2700	0.74
2871	TF1-CT-01 ถ.กัลปพฤกษ์ - ถ. ราชพฤกษ์	13.712454	100.459028	bma	working	2022-09-09T00:00:00	5:00:00	6:00:00	5	34	1425	2700	0.53
2872	TF1-CT-01 ถ.กัลปพฤกษ์ - ถ. ราชพฤกษ์	13.712454	100.459028	bma	working	2022-09-09T00:00:00	6:00:00	7:00:00	4	109	4660	2700	1.73
2873	TF1-CT-01 ถ.กัลปพฤกษ์ - ถ. ราชพฤกษ์	13.712454	100.459028	bma	working	2022-09-09T00:00:00	7:00:00	8:00:00	10	58	1200	2700	0.44
2874	TF1-CT-01 ถ.กัลปพฤกษ์ - ถ. ราชพฤกษ์	13.712454	100.459028	bma	working	2022-09-09T00:00:00	8:00:00	9:00:00	10	72	3130	2700	1.16
2875	TF1-CT-01 ถ.กัลปพฤกษ์ - ถ. ราชพฤกษ์	13.712454	100.459028	bma	working	2022-09-09T00:00:00	9:00:00	10:00:00	7	65	3157	2700	1.17
2876	TF1-CT-01 ถ.กัลปพฤกษ์ - ถ. ราชพฤกษ์	13.712454	100.459028	bma	working	2022-09-09T00:00:00	10:00:00	11:00:00	10	65	3001	2700	1.11
2877	TF1-CT-01 ถ.กัลปพฤกษ์ - ถ. ราชพฤกษ์	13.712454	100.459028	bma	working	2022-09-09T00:00:00	11:00:00	12:00:00	10	89	1885	2700	0.70
2878	TF1-CT-01 ถ.กัลปพฤกษ์ - ถ. ราชพฤกษ์	13.712454	100.459028	bma	working	2022-09-09T00:00:00	12:00:00	13:00:00	7	64	3024	2700	1.12
2879	TF1-CT-01 ถ.กัลปพฤกษ์ - ถ. ราชพฤกษ์	13.712454	100.459028	bma	working	2022-09-09T00:00:00	13:00:00	14:00:00	7	68	2989	2700	1.11
2880	TF1-CT-01 ถ.กัลปพฤกษ์ - ถ. ราชพฤกษ์	13.712454	100.459028	bma	working	2022-09-09T00:00:00	14:00:00	15:00:00	6	67	2974	2700	1.10
2881	TF1-CT-01 ถ.กัลปพฤกษ์ - ถ. ราชพฤกษ์	13.712454	100.459028	bma	working	2022-09-09T00:00:00	15:00:00	16:00:00	5	65	3034	2700	1.12
2882	TF1-CT-01 ถ.กัลปพฤกษ์ - ถ. ราชพฤกษ์	13.712454	100.459028	bma	working	2022-09-09T00:00:00	16:00:00	17:00:00	6	195	5674	2700	2.10
2883	TF1-CT-01 ถ.กัลปพฤกษ์ - ถ. ราชพฤกษ์	13.712454	100.459028	bma	working	2022-09-09T00:00:00	17:00:00	18:00:00	20	190	3909	2700	1.45
2884	TF1-CT-01 ถ.กัลปพฤกษ์ - ถ. ราชพฤกษ์	13.712454	100.459028	bma	working	2022-09-09T00:00:00	18:00:00	19:00:00	5	69	2308	2700	0.85
2885	TF1-CT-01 ถ.กัลปพฤกษ์ - ถ. ราชพฤกษ์	13.712454	100.459028	bma	working	2022-10-09T00:00:00	5:00:00	6:00:00	8	14	328	2700	0.12
2886	TF1-CT-01 ถ.กัลปพฤกษ์ - ถ. ราชพฤกษ์	13.712454	100.459028	bma	holiday	2022-10-09T00:00:00	6:00:00	7:00:00	6	41	900	2700	0.33
2887	TF1-CT-01 ถ.กัลปพฤกษ์ - ถ. ราชพฤกษ์	13.712454	100.459028	bma	holiday	2022-10-09T00:00:00	7:00:00	8:00:00	6	41	1004	2700	0.37
2888	TF1-CT-01 ถ.กัลปพฤกษ์ - ถ. ราชพฤกษ์	13.712454	100.459028	bma	holiday	2022-10-09T00:00:00	8:00:00	9:00:00	8	89	4256	2700	1.58
2889	TF1-CT-01 ถ.กัลปพฤกษ์ - ถ. ราชพฤกษ์	13.712454	100.459028	bma	working	2022-10-09T00:00:00	9:00:00	10:00:00	5	76	4153	2700	1.54
2890	TF1-CT-01 ถ.กัลปพฤกษ์ - ถ. ราชพฤกษ์	13.712454	100.459028	bma	working	2022-10-09T00:00:00	10:00:00	11:00:00	6	79	4360	2700	1.61
2891	TF1-CT-01 ถ.กัลปพฤกษ์ - ถ. ราชพฤกษ์	13.712454	100.459028	bma	holiday	2022-10-09T00:00:00	11:00:00	12:00:00	19	202	4613	2700	1.71
2892	TF1-CT-01 ถ.กัลปพฤกษ์ - ถ. ราชพฤกษ์	13.712454	100.459028	bma	working	2022-10-09T00:00:00	12:00:00	13:00:00	4	86	4176	2700	1.55
2893	TF1-CT-01 ถ.กัลปพฤกษ์ - ถ. ราชพฤกษ์	13.712454	100.459028	bma	working	2022-10-09T00:00:00	13:00:00	14:00:00	6	83	4446	2700	1.65
2894	TF1-CT-01 ถ.กัลปพฤกษ์ - ถ. ราชพฤกษ์	13.712454	100.459028	bma	working	2022-10-09T00:00:00	14:00:00	15:00:00	5	85	4344	2700	1.61
2895	TF1-CT-01 ถ.กัลปพฤกษ์ - ถ. ราชพฤกษ์	13.712454	100.459028	bma	working	2022-10-09T00:00:00	15:00:00	16:00:00	3	82	4300	2700	1.59
2896	TF1-CT-01 ถ.กัลปพฤกษ์ - ถ. ราชพฤกษ์	13.712454	100.459028	bma	holiday	2022-10-09T00:00:00	16:00:00	17:00:00	14	101	1386	2700	0.51
2897	TF1-CT-01 ถ.กัลปพฤกษ์ - ถ. ราชพฤกษ์	13.712454	100.459028	bma	holiday	2022-10-09T00:00:00	17:00:00	18:00:00	7	81	2639	2700	0.98
2898	TF1-CT-01 ถ.กัลปพฤกษ์ - ถ. ราชพฤกษ์	13.712454	100.459028	bma	holiday	2022-10-09T00:00:00	18:00:00	19:00:00	26	28	241	2700	0.09
2899	TF1-CT-01 ถ.กัลปพฤกษ์ - ถ. ราชพฤกษ์	13.712454	100.459028	bma	working	2022-11-09T00:00:00	5:00:00	6:00:00	5	9	186	2700	0.07
2900	TF1-CT-01 ถ.กัลปพฤกษ์ - ถ. ราชพฤกษ์	13.712454	100.459028	bma	holiday	2022-11-09T00:00:00	6:00:00	7:00:00	4	26	496	2700	0.18
2901	TF1-CT-01 ถ.กัลปพฤกษ์ - ถ. ราชพฤกษ์	13.712454	100.459028	bma	holiday	2022-11-09T00:00:00	7:00:00	8:00:00	4	26	634	2700	0.23
2902	TF1-CT-01 ถ.กัลปพฤกษ์ - ถ. ราชพฤกษ์	13.712454	100.459028	bma	holiday	2022-11-09T00:00:00	8:00:00	9:00:00	5	53	2607	2700	0.97
2903	TF1-CT-01 ถ.กัลปพฤกษ์ - ถ. ราชพฤกษ์	13.712454	100.459028	bma	working	2022-11-09T00:00:00	9:00:00	10:00:00	3	46	2651	2700	0.98
2904	TF1-CT-01 ถ.กัลปพฤกษ์ - ถ. ราชพฤกษ์	13.712454	100.459028	bma	working	2022-11-09T00:00:00	10:00:00	11:00:00	4	49	2543	2700	0.94
2905	TF1-CT-01 ถ.กัลปพฤกษ์ - ถ. ราชพฤกษ์	13.712454	100.459028	bma	holiday	2022-11-09T00:00:00	11:00:00	12:00:00	12	142	2733	2700	1.01
2906	TF1-CT-01 ถ.กัลปพฤกษ์ - ถ. ราชพฤกษ์	13.712454	100.459028	bma	working	2022-11-09T00:00:00	12:00:00	13:00:00	2	49	2519	2700	0.93
2907	TF1-CT-01 ถ.กัลปพฤกษ์ - ถ. ราชพฤกษ์	13.712454	100.459028	bma	working	2022-11-09T00:00:00	13:00:00	14:00:00	4	48	2556	2700	0.95
2908	TF1-CT-01 ถ.กัลปพฤกษ์ - ถ. ราชพฤกษ์	13.712454	100.459028	bma	working	2022-11-09T00:00:00	14:00:00	15:00:00	3	53	2475	2700	0.92
2909	TF1-CT-01 ถ.กัลปพฤกษ์ - ถ. ราชพฤกษ์	13.712454	100.459028	bma	working	2022-11-09T00:00:00	15:00:00	16:00:00	2	51	2523	2700	0.93
2910	TF1-CT-01 ถ.กัลปพฤกษ์ - ถ. ราชพฤกษ์	13.712454	100.459028	bma	holiday	2022-11-09T00:00:00	16:00:00	17:00:00	9	56	850	2700	0.31
2911	TF1-CT-01 ถ.กัลปพฤกษ์ - ถ. ราชพฤกษ์	13.712454	100.459028	bma	holiday	2022-11-09T00:00:00	17:00:00	18:00:00	4	49	1674	2700	0.62
2912	TF1-CT-01 ถ.กัลปพฤกษ์ - ถ. ราชพฤกษ์	13.712454	100.459028	bma	holiday	2022-11-09T00:00:00	18:00:00	19:00:00	15	17	168	2700	0.06
2913	TF1-HK-02 ถ.พระราม 9 - ถ.รามคำแหง	13.741352	100.616005	bma	working	2022-05-09T00:00:00	5:00:00	6:00:00	59	50	2789	3600	0.77
2914	TF1-HK-02 ถ.พระราม 9 - ถ.รามคำแหง	13.741352	100.616005	bma	working	2022-05-09T00:00:00	6:00:00	7:00:00	41	150	8947	3600	2.49
2915	TF1-HK-02 ถ.พระราม 9 - ถ.รามคำแหง	13.741352	100.616005	bma	working	2022-05-09T00:00:00	7:00:00	8:00:00	23	201	5274	3600	1.47
2916	TF1-HK-02 ถ.พระราม 9 - ถ.รามคำแหง	13.741352	100.616005	bma	working	2022-05-09T00:00:00	8:00:00	9:00:00	25	201	5849	3600	1.62
2917	TF1-HK-02 ถ.พระราม 9 - ถ.รามคำแหง	13.741352	100.616005	bma	working	2022-05-09T00:00:00	9:00:00	10:00:00	22	202	6235	3600	1.73
2918	TF1-HK-02 ถ.พระราม 9 - ถ.รามคำแหง	13.741352	100.616005	bma	working	2022-05-09T00:00:00	10:00:00	11:00:00	22	202	5543	3600	1.54
2919	TF1-HK-02 ถ.พระราม 9 - ถ.รามคำแหง	13.741352	100.616005	bma	working	2022-05-09T00:00:00	11:00:00	12:00:00	46	83	6057	3600	1.68
2920	TF1-HK-02 ถ.พระราม 9 - ถ.รามคำแหง	13.741352	100.616005	bma	working	2022-05-09T00:00:00	12:00:00	13:00:00	22	201	5568	3600	1.55
2921	TF1-HK-02 ถ.พระราม 9 - ถ.รามคำแหง	13.741352	100.616005	bma	working	2022-05-09T00:00:00	13:00:00	14:00:00	22	202	6097	3600	1.69
2922	TF1-HK-02 ถ.พระราม 9 - ถ.รามคำแหง	13.741352	100.616005	bma	working	2022-05-09T00:00:00	14:00:00	15:00:00	22	202	6107	3600	1.70
2923	TF1-HK-02 ถ.พระราม 9 - ถ.รามคำแหง	13.741352	100.616005	bma	working	2022-05-09T00:00:00	15:00:00	16:00:00	23	202	5553	3600	1.54
2924	TF1-HK-02 ถ.พระราม 9 - ถ.รามคำแหง	13.741352	100.616005	bma	working	2022-05-09T00:00:00	16:00:00	17:00:00	48	105	7172	3600	1.99
2925	TF1-HK-02 ถ.พระราม 9 - ถ.รามคำแหง	13.741352	100.616005	bma	working	2022-05-09T00:00:00	17:00:00	18:00:00	46	107	5648	3600	1.57
2926	TF1-HK-02 ถ.พระราม 9 - ถ.รามคำแหง	13.741352	100.616005	bma	working	2022-05-09T00:00:00	18:00:00	19:00:00	50	86	6820	3600	1.89
2927	TF1-HK-02 ถ.พระราม 9 - ถ.รามคำแหง	13.741352	100.616005	bma	working	2022-06-09T00:00:00	5:00:00	6:00:00	59	53	2872	3600	0.80
2928	TF1-HK-02 ถ.พระราม 9 - ถ.รามคำแหง	13.741352	100.616005	bma	working	2022-06-09T00:00:00	6:00:00	7:00:00	41	158	8815	3600	2.45
2929	TF1-HK-02 ถ.พระราม 9 - ถ.รามคำแหง	13.741352	100.616005	bma	working	2022-06-09T00:00:00	7:00:00	8:00:00	23	201	5201	3600	1.44
2930	TF1-HK-02 ถ.พระราม 9 - ถ.รามคำแหง	13.741352	100.616005	bma	working	2022-06-09T00:00:00	8:00:00	9:00:00	25	202	5906	3600	1.64
2931	TF1-HK-02 ถ.พระราม 9 - ถ.รามคำแหง	13.741352	100.616005	bma	working	2022-06-09T00:00:00	9:00:00	10:00:00	24	202	6147	3600	1.71
2932	TF1-HK-02 ถ.พระราม 9 - ถ.รามคำแหง	13.741352	100.616005	bma	working	2022-06-09T00:00:00	10:00:00	11:00:00	22	201	5634	3600	1.57
2933	TF1-HK-02 ถ.พระราม 9 - ถ.รามคำแหง	13.741352	100.616005	bma	working	2022-06-09T00:00:00	11:00:00	12:00:00	43	80	6140	3600	1.71
2934	TF1-HK-02 ถ.พระราม 9 - ถ.รามคำแหง	13.741352	100.616005	bma	working	2022-06-09T00:00:00	12:00:00	13:00:00	23	201	5601	3600	1.56
2935	TF1-HK-02 ถ.พระราม 9 - ถ.รามคำแหง	13.741352	100.616005	bma	working	2022-06-09T00:00:00	13:00:00	14:00:00	22	202	6070	3600	1.69
2936	TF1-HK-02 ถ.พระราม 9 - ถ.รามคำแหง	13.741352	100.616005	bma	working	2022-06-09T00:00:00	14:00:00	15:00:00	23	202	6072	3600	1.69
2937	TF1-HK-02 ถ.พระราม 9 - ถ.รามคำแหง	13.741352	100.616005	bma	working	2022-06-09T00:00:00	15:00:00	16:00:00	22	202	5503	3600	1.53
2938	TF1-HK-02 ถ.พระราม 9 - ถ.รามคำแหง	13.741352	100.616005	bma	working	2022-06-09T00:00:00	16:00:00	17:00:00	49	100	6727	3600	1.87
2939	TF1-HK-02 ถ.พระราม 9 - ถ.รามคำแหง	13.741352	100.616005	bma	working	2022-06-09T00:00:00	17:00:00	18:00:00	45	98	5194	3600	1.44
2940	TF1-HK-02 ถ.พระราม 9 - ถ.รามคำแหง	13.741352	100.616005	bma	working	2022-06-09T00:00:00	18:00:00	19:00:00	45	81	6033	3600	1.68
2941	TF1-HK-02 ถ.พระราม 9 - ถ.รามคำแหง	13.741352	100.616005	bma	working	2022-07-09T00:00:00	5:00:00	6:00:00	57	53	3027	3600	0.84
2942	TF1-HK-02 ถ.พระราม 9 - ถ.รามคำแหง	13.741352	100.616005	bma	working	2022-07-09T00:00:00	6:00:00	7:00:00	40	155	8614	3600	2.39
2943	TF1-HK-02 ถ.พระราม 9 - ถ.รามคำแหง	13.741352	100.616005	bma	working	2022-07-09T00:00:00	7:00:00	8:00:00	22	201	5251	3600	1.46
2944	TF1-HK-02 ถ.พระราม 9 - ถ.รามคำแหง	13.741352	100.616005	bma	working	2022-07-09T00:00:00	8:00:00	9:00:00	25	202	5930	3600	1.65
2945	TF1-HK-02 ถ.พระราม 9 - ถ.รามคำแหง	13.741352	100.616005	bma	working	2022-07-09T00:00:00	9:00:00	10:00:00	22	202	6084	3600	1.69
2946	TF1-HK-02 ถ.พระราม 9 - ถ.รามคำแหง	13.741352	100.616005	bma	working	2022-07-09T00:00:00	10:00:00	11:00:00	22	202	5604	3600	1.56
2947	TF1-HK-02 ถ.พระราม 9 - ถ.รามคำแหง	13.741352	100.616005	bma	working	2022-07-09T00:00:00	11:00:00	12:00:00	46	80	6141	3600	1.71
2948	TF1-HK-02 ถ.พระราม 9 - ถ.รามคำแหง	13.741352	100.616005	bma	working	2022-07-09T00:00:00	12:00:00	13:00:00	23	202	5560	3600	1.54
2949	TF1-HK-02 ถ.พระราม 9 - ถ.รามคำแหง	13.741352	100.616005	bma	working	2022-07-09T00:00:00	13:00:00	14:00:00	22	202	5991	3600	1.66
2950	TF1-HK-02 ถ.พระราม 9 - ถ.รามคำแหง	13.741352	100.616005	bma	working	2022-07-09T00:00:00	14:00:00	15:00:00	23	202	6080	3600	1.69
2951	TF1-HK-02 ถ.พระราม 9 - ถ.รามคำแหง	13.741352	100.616005	bma	working	2022-07-09T00:00:00	15:00:00	16:00:00	23	201	5515	3600	1.53
2952	TF1-HK-02 ถ.พระราม 9 - ถ.รามคำแหง	13.741352	100.616005	bma	working	2022-07-09T00:00:00	16:00:00	17:00:00	44	94	6686	3600	1.86
2953	TF1-HK-02 ถ.พระราม 9 - ถ.รามคำแหง	13.741352	100.616005	bma	working	2022-07-09T00:00:00	17:00:00	18:00:00	45	93	4674	3600	1.30
2954	TF1-HK-02 ถ.พระราม 9 - ถ.รามคำแหง	13.741352	100.616005	bma	working	2022-07-09T00:00:00	18:00:00	19:00:00	47	77	5380	3600	1.49
2955	TF1-HK-02 ถ.พระราม 9 - ถ.รามคำแหง	13.741352	100.616005	bma	working	2022-08-09T00:00:00	5:00:00	6:00:00	64	43	2280	3600	0.63
2956	TF1-HK-02 ถ.พระราม 9 - ถ.รามคำแหง	13.741352	100.616005	bma	working	2022-08-09T00:00:00	6:00:00	7:00:00	45	124	7527	3600	2.09
2957	TF1-HK-02 ถ.พระราม 9 - ถ.รามคำแหง	13.741352	100.616005	bma	working	2022-08-09T00:00:00	7:00:00	8:00:00	37	201	4826	3600	1.34
2958	TF1-HK-02 ถ.พระราม 9 - ถ.รามคำแหง	13.741352	100.616005	bma	working	2022-08-09T00:00:00	8:00:00	9:00:00	25	201	5428	3600	1.51
2959	TF1-HK-02 ถ.พระราม 9 - ถ.รามคำแหง	13.741352	100.616005	bma	working	2022-08-09T00:00:00	9:00:00	10:00:00	23	201	5792	3600	1.61
2960	TF1-HK-02 ถ.พระราม 9 - ถ.รามคำแหง	13.741352	100.616005	bma	working	2022-08-09T00:00:00	10:00:00	11:00:00	23	202	5273	3600	1.46
2961	TF1-HK-02 ถ.พระราม 9 - ถ.รามคำแหง	13.741352	100.616005	bma	working	2022-08-09T00:00:00	11:00:00	12:00:00	40	151	6812	3600	1.89
2962	TF1-HK-02 ถ.พระราม 9 - ถ.รามคำแหง	13.741352	100.616005	bma	working	2022-08-09T00:00:00	12:00:00	13:00:00	23	201	5208	3600	1.45
2963	TF1-HK-02 ถ.พระราม 9 - ถ.รามคำแหง	13.741352	100.616005	bma	working	2022-08-09T00:00:00	13:00:00	14:00:00	24	202	5787	3600	1.61
2964	TF1-HK-02 ถ.พระราม 9 - ถ.รามคำแหง	13.741352	100.616005	bma	working	2022-08-09T00:00:00	14:00:00	15:00:00	22	202	5708	3600	1.59
2965	TF1-HK-02 ถ.พระราม 9 - ถ.รามคำแหง	13.741352	100.616005	bma	working	2022-08-09T00:00:00	15:00:00	16:00:00	21	201	5254	3600	1.46
2966	TF1-HK-02 ถ.พระราม 9 - ถ.รามคำแหง	13.741352	100.616005	bma	working	2022-08-09T00:00:00	16:00:00	17:00:00	44	95	6495	3600	1.80
2967	TF1-HK-02 ถ.พระราม 9 - ถ.รามคำแหง	13.741352	100.616005	bma	working	2022-08-09T00:00:00	17:00:00	18:00:00	48	79	5128	3600	1.42
2968	TF1-HK-02 ถ.พระราม 9 - ถ.รามคำแหง	13.741352	100.616005	bma	working	2022-08-09T00:00:00	18:00:00	19:00:00	46	82	5989	3600	1.66
2969	TF1-HK-02 ถ.พระราม 9 - ถ.รามคำแหง	13.741352	100.616005	bma	working	2022-09-09T00:00:00	5:00:00	6:00:00	67	38	2030	3600	0.56
2970	TF1-HK-02 ถ.พระราม 9 - ถ.รามคำแหง	13.741352	100.616005	bma	working	2022-09-09T00:00:00	6:00:00	7:00:00	48	109	6488	3600	1.80
2971	TF1-HK-02 ถ.พระราม 9 - ถ.รามคำแหง	13.741352	100.616005	bma	working	2022-09-09T00:00:00	7:00:00	8:00:00	48	71	4389	3600	1.22
2972	TF1-HK-02 ถ.พระราม 9 - ถ.รามคำแหง	13.741352	100.616005	bma	working	2022-09-09T00:00:00	8:00:00	9:00:00	26	201	4889	3600	1.36
2973	TF1-HK-02 ถ.พระราม 9 - ถ.รามคำแหง	13.741352	100.616005	bma	working	2022-09-09T00:00:00	9:00:00	10:00:00	23	202	5452	3600	1.51
2974	TF1-HK-02 ถ.พระราม 9 - ถ.รามคำแหง	13.741352	100.616005	bma	working	2022-09-09T00:00:00	10:00:00	11:00:00	24	201	4885	3600	1.36
2975	TF1-HK-02 ถ.พระราม 9 - ถ.รามคำแหง	13.741352	100.616005	bma	working	2022-09-09T00:00:00	11:00:00	12:00:00	31	202	7711	3600	2.14
2976	TF1-HK-02 ถ.พระราม 9 - ถ.รามคำแหง	13.741352	100.616005	bma	working	2022-09-09T00:00:00	12:00:00	13:00:00	24	202	4845	3600	1.35
2977	TF1-HK-02 ถ.พระราม 9 - ถ.รามคำแหง	13.741352	100.616005	bma	working	2022-09-09T00:00:00	13:00:00	14:00:00	26	202	5477	3600	1.52
2978	TF1-HK-02 ถ.พระราม 9 - ถ.รามคำแหง	13.741352	100.616005	bma	working	2022-09-09T00:00:00	14:00:00	15:00:00	22	202	5387	3600	1.50
2979	TF1-HK-02 ถ.พระราม 9 - ถ.รามคำแหง	13.741352	100.616005	bma	working	2022-09-09T00:00:00	15:00:00	16:00:00	21	202	4941	3600	1.37
2980	TF1-HK-02 ถ.พระราม 9 - ถ.รามคำแหง	13.741352	100.616005	bma	working	2022-09-09T00:00:00	16:00:00	17:00:00	46	100	6437	3600	1.79
2981	TF1-HK-02 ถ.พระราม 9 - ถ.รามคำแหง	13.741352	100.616005	bma	working	2022-09-09T00:00:00	17:00:00	18:00:00	50	73	5438	3600	1.51
2982	TF1-HK-02 ถ.พระราม 9 - ถ.รามคำแหง	13.741352	100.616005	bma	working	2022-09-09T00:00:00	18:00:00	19:00:00	46	99	6290	3600	1.75
2983	TF1-HK-02 ถ.พระราม 9 - ถ.รามคำแหง	13.741352	100.616005	bma	working	2022-10-09T00:00:00	5:00:00	6:00:00	21	63	1202	3600	0.33
2984	TF1-HK-02 ถ.พระราม 9 - ถ.รามคำแหง	13.741352	100.616005	bma	holiday	2022-10-09T00:00:00	6:00:00	7:00:00	15	201	3847	3600	1.07
2985	TF1-HK-02 ถ.พระราม 9 - ถ.รามคำแหง	13.741352	100.616005	bma	holiday	2022-10-09T00:00:00	7:00:00	8:00:00	18	202	3946	3600	1.10
2986	TF1-HK-02 ถ.พระราม 9 - ถ.รามคำแหง	13.741352	100.616005	bma	holiday	2022-10-09T00:00:00	8:00:00	9:00:00	47	110	6907	3600	1.92
2987	TF1-HK-02 ถ.พระราม 9 - ถ.รามคำแหง	13.741352	100.616005	bma	working	2022-10-09T00:00:00	9:00:00	10:00:00	47	105	6288	3600	1.75
2988	TF1-HK-02 ถ.พระราม 9 - ถ.รามคำแหง	13.741352	100.616005	bma	working	2022-10-09T00:00:00	10:00:00	11:00:00	45	116	6190	3600	1.72
2989	TF1-HK-02 ถ.พระราม 9 - ถ.รามคำแหง	13.741352	100.616005	bma	holiday	2022-10-09T00:00:00	11:00:00	12:00:00	51	114	7424	3600	2.06
2990	TF1-HK-02 ถ.พระราม 9 - ถ.รามคำแหง	13.741352	100.616005	bma	working	2022-10-09T00:00:00	12:00:00	13:00:00	44	112	6055	3600	1.68
2991	TF1-HK-02 ถ.พระราม 9 - ถ.รามคำแหง	13.741352	100.616005	bma	working	2022-10-09T00:00:00	13:00:00	14:00:00	43	116	6689	3600	1.86
2992	TF1-HK-02 ถ.พระราม 9 - ถ.รามคำแหง	13.741352	100.616005	bma	working	2022-10-09T00:00:00	14:00:00	15:00:00	46	106	6099	3600	1.69
2993	TF1-HK-02 ถ.พระราม 9 - ถ.รามคำแหง	13.741352	100.616005	bma	working	2022-10-09T00:00:00	15:00:00	16:00:00	41	118	6613	3600	1.84
2994	TF1-HK-02 ถ.พระราม 9 - ถ.รามคำแหง	13.741352	100.616005	bma	holiday	2022-10-09T00:00:00	16:00:00	17:00:00	46	99	6282	3600	1.75
2995	TF1-HK-02 ถ.พระราม 9 - ถ.รามคำแหง	13.741352	100.616005	bma	holiday	2022-10-09T00:00:00	17:00:00	18:00:00	40	123	5829	3600	1.62
2996	TF1-HK-02 ถ.พระราม 9 - ถ.รามคำแหง	13.741352	100.616005	bma	holiday	2022-10-09T00:00:00	18:00:00	19:00:00	52	52	2580	3600	0.72
2997	TF1-HK-02 ถ.พระราม 9 - ถ.รามคำแหง	13.741352	100.616005	bma	working	2022-11-09T00:00:00	5:00:00	6:00:00	13	57	810	3600	0.23
2998	TF1-HK-02 ถ.พระราม 9 - ถ.รามคำแหง	13.741352	100.616005	bma	holiday	2022-11-09T00:00:00	6:00:00	7:00:00	10	183	2381	3600	0.66
2999	TF1-HK-02 ถ.พระราม 9 - ถ.รามคำแหง	13.741352	100.616005	bma	holiday	2022-11-09T00:00:00	7:00:00	8:00:00	10	184	2417	3600	0.67
3000	TF1-HK-02 ถ.พระราม 9 - ถ.รามคำแหง	13.741352	100.616005	bma	holiday	2022-11-09T00:00:00	8:00:00	9:00:00	29	70	3852	3600	1.07
3001	TF1-HK-02 ถ.พระราม 9 - ถ.รามคำแหง	13.741352	100.616005	bma	working	2022-11-09T00:00:00	9:00:00	10:00:00	27	67	3969	3600	1.10
3002	TF1-HK-02 ถ.พระราม 9 - ถ.รามคำแหง	13.741352	100.616005	bma	working	2022-11-09T00:00:00	10:00:00	11:00:00	28	67	3708	3600	1.03
3003	TF1-HK-02 ถ.พระราม 9 - ถ.รามคำแหง	13.741352	100.616005	bma	holiday	2022-11-09T00:00:00	11:00:00	12:00:00	29	67	4560	3600	1.27
3004	TF1-HK-02 ถ.พระราม 9 - ถ.รามคำแหง	13.741352	100.616005	bma	working	2022-11-09T00:00:00	12:00:00	13:00:00	27	66	3874	3600	1.08
3005	TF1-HK-02 ถ.พระราม 9 - ถ.รามคำแหง	13.741352	100.616005	bma	working	2022-11-09T00:00:00	13:00:00	14:00:00	27	67	3903	3600	1.08
3006	TF1-HK-02 ถ.พระราม 9 - ถ.รามคำแหง	13.741352	100.616005	bma	working	2022-11-09T00:00:00	14:00:00	15:00:00	26	65	4002	3600	1.11
3007	TF1-HK-02 ถ.พระราม 9 - ถ.รามคำแหง	13.741352	100.616005	bma	working	2022-11-09T00:00:00	15:00:00	16:00:00	26	66	3913	3600	1.09
3008	TF1-HK-02 ถ.พระราม 9 - ถ.รามคำแหง	13.741352	100.616005	bma	holiday	2022-11-09T00:00:00	16:00:00	17:00:00	30	57	3816	3600	1.06
3009	TF1-HK-02 ถ.พระราม 9 - ถ.รามคำแหง	13.741352	100.616005	bma	holiday	2022-11-09T00:00:00	17:00:00	18:00:00	24	77	3575	3600	0.99
3010	TF1-HK-02 ถ.พระราม 9 - ถ.รามคำแหง	13.741352	100.616005	bma	holiday	2022-11-09T00:00:00	18:00:00	19:00:00	32	29	1519	3600	0.42
3011	TF1-HK-05 ถ.ประชาอุทิศ - ปากซอยลิ้มทอง	13.769973	100.586409	bma	working	2022-05-09T00:00:00	5:00:00	6:00:00	35	42	412	2700	0.15
3012	TF1-HK-05 ถ.ประชาอุทิศ - ปากซอยลิ้มทอง	13.769973	100.586409	bma	working	2022-05-09T00:00:00	6:00:00	7:00:00	25	129	1318	2700	0.49
3013	TF1-HK-05 ถ.ประชาอุทิศ - ปากซอยลิ้มทอง	13.769973	100.586409	bma	working	2022-05-09T00:00:00	7:00:00	8:00:00	19	202	343	2700	0.13
3014	TF1-HK-05 ถ.ประชาอุทิศ - ปากซอยลิ้มทอง	13.769973	100.586409	bma	working	2022-05-09T00:00:00	8:00:00	9:00:00	2	201	789	2700	0.29
3015	TF1-HK-05 ถ.ประชาอุทิศ - ปากซอยลิ้มทอง	13.769973	100.586409	bma	working	2022-05-09T00:00:00	9:00:00	10:00:00	0	201	755	2700	0.28
3016	TF1-HK-05 ถ.ประชาอุทิศ - ปากซอยลิ้มทอง	13.769973	100.586409	bma	working	2022-05-09T00:00:00	10:00:00	11:00:00	0	202	740	2700	0.27
3017	TF1-HK-05 ถ.ประชาอุทิศ - ปากซอยลิ้มทอง	13.769973	100.586409	bma	working	2022-05-09T00:00:00	11:00:00	12:00:00	15	158	1550	2700	0.57
3018	TF1-HK-05 ถ.ประชาอุทิศ - ปากซอยลิ้มทอง	13.769973	100.586409	bma	working	2022-05-09T00:00:00	12:00:00	13:00:00	0	202	792	2700	0.29
3019	TF1-HK-05 ถ.ประชาอุทิศ - ปากซอยลิ้มทอง	13.769973	100.586409	bma	working	2022-05-09T00:00:00	13:00:00	14:00:00	0	201	595	2700	0.22
3020	TF1-HK-05 ถ.ประชาอุทิศ - ปากซอยลิ้มทอง	13.769973	100.586409	bma	working	2022-05-09T00:00:00	14:00:00	15:00:00	0	202	604	2700	0.22
3021	TF1-HK-05 ถ.ประชาอุทิศ - ปากซอยลิ้มทอง	13.769973	100.586409	bma	working	2022-05-09T00:00:00	15:00:00	16:00:00	0	201	618	2700	0.23
3022	TF1-HK-05 ถ.ประชาอุทิศ - ปากซอยลิ้มทอง	13.769973	100.586409	bma	working	2022-05-09T00:00:00	16:00:00	17:00:00	17	116	675	2700	0.25
3023	TF1-HK-05 ถ.ประชาอุทิศ - ปากซอยลิ้มทอง	13.769973	100.586409	bma	working	2022-05-09T00:00:00	17:00:00	18:00:00	9	202	773	2700	0.29
3024	TF1-HK-05 ถ.ประชาอุทิศ - ปากซอยลิ้มทอง	13.769973	100.586409	bma	working	2022-05-09T00:00:00	18:00:00	19:00:00	12	145	2673	2700	0.99
3025	TF1-HK-05 ถ.ประชาอุทิศ - ปากซอยลิ้มทอง	13.769973	100.586409	bma	working	2022-06-09T00:00:00	5:00:00	6:00:00	24	50	460	2700	0.17
3026	TF1-HK-05 ถ.ประชาอุทิศ - ปากซอยลิ้มทอง	13.769973	100.586409	bma	working	2022-06-09T00:00:00	6:00:00	7:00:00	17	143	1337	2700	0.50
3027	TF1-HK-05 ถ.ประชาอุทิศ - ปากซอยลิ้มทอง	13.769973	100.586409	bma	working	2022-06-09T00:00:00	7:00:00	8:00:00	12	202	444	2700	0.16
3028	TF1-HK-05 ถ.ประชาอุทิศ - ปากซอยลิ้มทอง	13.769973	100.586409	bma	working	2022-06-09T00:00:00	8:00:00	9:00:00	6	202	620	2700	0.23
3029	TF1-HK-05 ถ.ประชาอุทิศ - ปากซอยลิ้มทอง	13.769973	100.586409	bma	working	2022-06-09T00:00:00	9:00:00	10:00:00	5	202	457	2700	0.17
3030	TF1-HK-05 ถ.ประชาอุทิศ - ปากซอยลิ้มทอง	13.769973	100.586409	bma	working	2022-06-09T00:00:00	10:00:00	11:00:00	4	201	469	2700	0.17
3031	TF1-HK-05 ถ.ประชาอุทิศ - ปากซอยลิ้มทอง	13.769973	100.586409	bma	working	2022-06-09T00:00:00	11:00:00	12:00:00	14	197	1123	2700	0.42
3032	TF1-HK-05 ถ.ประชาอุทิศ - ปากซอยลิ้มทอง	13.769973	100.586409	bma	working	2022-06-09T00:00:00	12:00:00	13:00:00	4	201	529	2700	0.20
3033	TF1-HK-05 ถ.ประชาอุทิศ - ปากซอยลิ้มทอง	13.769973	100.586409	bma	working	2022-06-09T00:00:00	13:00:00	14:00:00	4	201	466	2700	0.17
3034	TF1-HK-05 ถ.ประชาอุทิศ - ปากซอยลิ้มทอง	13.769973	100.586409	bma	working	2022-06-09T00:00:00	14:00:00	15:00:00	3	201	454	2700	0.17
3035	TF1-HK-05 ถ.ประชาอุทิศ - ปากซอยลิ้มทอง	13.769973	100.586409	bma	working	2022-06-09T00:00:00	15:00:00	16:00:00	4	201	445	2700	0.16
3036	TF1-HK-05 ถ.ประชาอุทิศ - ปากซอยลิ้มทอง	13.769973	100.586409	bma	working	2022-06-09T00:00:00	16:00:00	17:00:00	17	131	1233	2700	0.46
3037	TF1-HK-05 ถ.ประชาอุทิศ - ปากซอยลิ้มทอง	13.769973	100.586409	bma	working	2022-06-09T00:00:00	17:00:00	18:00:00	15	202	896	2700	0.33
3038	TF1-HK-05 ถ.ประชาอุทิศ - ปากซอยลิ้มทอง	13.769973	100.586409	bma	working	2022-06-09T00:00:00	18:00:00	19:00:00	12	112	1820	2700	0.67
3039	TF1-HK-05 ถ.ประชาอุทิศ - ปากซอยลิ้มทอง	13.769973	100.586409	bma	working	2022-07-09T00:00:00	5:00:00	6:00:00	15	53	417	2700	0.15
3040	TF1-HK-05 ถ.ประชาอุทิศ - ปากซอยลิ้มทอง	13.769973	100.586409	bma	working	2022-07-09T00:00:00	6:00:00	7:00:00	11	170	1274	2700	0.47
3041	TF1-HK-05 ถ.ประชาอุทิศ - ปากซอยลิ้มทอง	13.769973	100.586409	bma	working	2022-07-09T00:00:00	7:00:00	8:00:00	6	202	557	2700	0.21
3042	TF1-HK-05 ถ.ประชาอุทิศ - ปากซอยลิ้มทอง	13.769973	100.586409	bma	working	2022-07-09T00:00:00	8:00:00	9:00:00	9	202	293	2700	0.11
3043	TF1-HK-05 ถ.ประชาอุทิศ - ปากซอยลิ้มทอง	13.769973	100.586409	bma	working	2022-07-09T00:00:00	9:00:00	10:00:00	9	201	163	2700	0.06
3044	TF1-HK-05 ถ.ประชาอุทิศ - ปากซอยลิ้มทอง	13.769973	100.586409	bma	working	2022-07-09T00:00:00	10:00:00	11:00:00	8	202	131	2700	0.05
3045	TF1-HK-05 ถ.ประชาอุทิศ - ปากซอยลิ้มทอง	13.769973	100.586409	bma	working	2022-07-09T00:00:00	11:00:00	12:00:00	13	201	754	2700	0.28
3046	TF1-HK-05 ถ.ประชาอุทิศ - ปากซอยลิ้มทอง	13.769973	100.586409	bma	working	2022-07-09T00:00:00	12:00:00	13:00:00	8	201	265	2700	0.10
3047	TF1-HK-05 ถ.ประชาอุทิศ - ปากซอยลิ้มทอง	13.769973	100.586409	bma	working	2022-07-09T00:00:00	13:00:00	14:00:00	8	202	208	2700	0.08
3048	TF1-HK-05 ถ.ประชาอุทิศ - ปากซอยลิ้มทอง	13.769973	100.586409	bma	working	2022-07-09T00:00:00	14:00:00	15:00:00	5	202	190	2700	0.07
3049	TF1-HK-05 ถ.ประชาอุทิศ - ปากซอยลิ้มทอง	13.769973	100.586409	bma	working	2022-07-09T00:00:00	15:00:00	16:00:00	7	202	174	2700	0.06
3050	TF1-HK-05 ถ.ประชาอุทิศ - ปากซอยลิ้มทอง	13.769973	100.586409	bma	working	2022-07-09T00:00:00	16:00:00	17:00:00	15	137	1798	2700	0.67
3051	TF1-HK-05 ถ.ประชาอุทิศ - ปากซอยลิ้มทอง	13.769973	100.586409	bma	working	2022-07-09T00:00:00	17:00:00	18:00:00	22	191	1065	2700	0.39
3052	TF1-HK-05 ถ.ประชาอุทิศ - ปากซอยลิ้มทอง	13.769973	100.586409	bma	working	2022-07-09T00:00:00	18:00:00	19:00:00	13	82	926	2700	0.34
3053	TF1-HK-05 ถ.ประชาอุทิศ - ปากซอยลิ้มทอง	13.769973	100.586409	bma	working	2022-08-09T00:00:00	5:00:00	6:00:00	16	58	289	2700	0.11
3054	TF1-HK-05 ถ.ประชาอุทิศ - ปากซอยลิ้มทอง	13.769973	100.586409	bma	working	2022-08-09T00:00:00	6:00:00	7:00:00	12	172	866	2700	0.32
3055	TF1-HK-05 ถ.ประชาอุทิศ - ปากซอยลิ้มทอง	13.769973	100.586409	bma	working	2022-08-09T00:00:00	7:00:00	8:00:00	7	202	602	2700	0.22
3056	TF1-HK-05 ถ.ประชาอุทิศ - ปากซอยลิ้มทอง	13.769973	100.586409	bma	working	2022-08-09T00:00:00	8:00:00	9:00:00	12	201	875	2700	0.32
3057	TF1-HK-05 ถ.ประชาอุทิศ - ปากซอยลิ้มทอง	13.769973	100.586409	bma	working	2022-08-09T00:00:00	9:00:00	10:00:00	10	202	805	2700	0.30
3058	TF1-HK-05 ถ.ประชาอุทิศ - ปากซอยลิ้มทอง	13.769973	100.586409	bma	working	2022-08-09T00:00:00	10:00:00	11:00:00	9	202	805	2700	0.30
3059	TF1-HK-05 ถ.ประชาอุทิศ - ปากซอยลิ้มทอง	13.769973	100.586409	bma	working	2022-08-09T00:00:00	11:00:00	12:00:00	16	201	882	2700	0.33
3060	TF1-HK-05 ถ.ประชาอุทิศ - ปากซอยลิ้มทอง	13.769973	100.586409	bma	working	2022-08-09T00:00:00	12:00:00	13:00:00	10	202	798	2700	0.30
3061	TF1-HK-05 ถ.ประชาอุทิศ - ปากซอยลิ้มทอง	13.769973	100.586409	bma	working	2022-08-09T00:00:00	13:00:00	14:00:00	11	201	822	2700	0.30
3062	TF1-HK-05 ถ.ประชาอุทิศ - ปากซอยลิ้มทอง	13.769973	100.586409	bma	working	2022-08-09T00:00:00	14:00:00	15:00:00	7	202	879	2700	0.33
3063	TF1-HK-05 ถ.ประชาอุทิศ - ปากซอยลิ้มทอง	13.769973	100.586409	bma	working	2022-08-09T00:00:00	15:00:00	16:00:00	9	202	831	2700	0.31
3064	TF1-HK-05 ถ.ประชาอุทิศ - ปากซอยลิ้มทอง	13.769973	100.586409	bma	working	2022-08-09T00:00:00	16:00:00	17:00:00	15	201	1544	2700	0.57
3065	TF1-HK-05 ถ.ประชาอุทิศ - ปากซอยลิ้มทอง	13.769973	100.586409	bma	working	2022-08-09T00:00:00	17:00:00	18:00:00	17	169	1134	2700	0.42
3066	TF1-HK-05 ถ.ประชาอุทิศ - ปากซอยลิ้มทอง	13.769973	100.586409	bma	working	2022-08-09T00:00:00	18:00:00	19:00:00	16	125	1091	2700	0.40
3067	TF1-HK-05 ถ.ประชาอุทิศ - ปากซอยลิ้มทอง	13.769973	100.586409	bma	working	2022-09-09T00:00:00	5:00:00	6:00:00	21	56	161	2700	0.06
3068	TF1-HK-05 ถ.ประชาอุทิศ - ปากซอยลิ้มทอง	13.769973	100.586409	bma	working	2022-09-09T00:00:00	6:00:00	7:00:00	15	166	464	2700	0.17
3069	TF1-HK-05 ถ.ประชาอุทิศ - ปากซอยลิ้มทอง	13.769973	100.586409	bma	working	2022-09-09T00:00:00	7:00:00	8:00:00	8	201	592	2700	0.22
3070	TF1-HK-05 ถ.ประชาอุทิศ - ปากซอยลิ้มทอง	13.769973	100.586409	bma	working	2022-09-09T00:00:00	8:00:00	9:00:00	14	202	1477	2700	0.55
3071	TF1-HK-05 ถ.ประชาอุทิศ - ปากซอยลิ้มทอง	13.769973	100.586409	bma	working	2022-09-09T00:00:00	9:00:00	10:00:00	9	202	1432	2700	0.53
3072	TF1-HK-05 ถ.ประชาอุทิศ - ปากซอยลิ้มทอง	13.769973	100.586409	bma	working	2022-09-09T00:00:00	10:00:00	11:00:00	9	201	1321	2700	0.49
3073	TF1-HK-05 ถ.ประชาอุทิศ - ปากซอยลิ้มทอง	13.769973	100.586409	bma	working	2022-09-09T00:00:00	11:00:00	12:00:00	19	191	968	2700	0.36
3074	TF1-HK-05 ถ.ประชาอุทิศ - ปากซอยลิ้มทอง	13.769973	100.586409	bma	working	2022-09-09T00:00:00	12:00:00	13:00:00	12	202	1338	2700	0.50
3075	TF1-HK-05 ถ.ประชาอุทิศ - ปากซอยลิ้มทอง	13.769973	100.586409	bma	working	2022-09-09T00:00:00	13:00:00	14:00:00	13	202	1400	2700	0.52
3076	TF1-HK-05 ถ.ประชาอุทิศ - ปากซอยลิ้มทอง	13.769973	100.586409	bma	working	2022-09-09T00:00:00	14:00:00	15:00:00	10	202	1386	2700	0.51
3077	TF1-HK-05 ถ.ประชาอุทิศ - ปากซอยลิ้มทอง	13.769973	100.586409	bma	working	2022-09-09T00:00:00	15:00:00	16:00:00	11	201	1390	2700	0.51
3078	TF1-HK-05 ถ.ประชาอุทิศ - ปากซอยลิ้มทอง	13.769973	100.586409	bma	working	2022-09-09T00:00:00	16:00:00	17:00:00	14	201	1344	2700	0.50
3079	TF1-HK-05 ถ.ประชาอุทิศ - ปากซอยลิ้มทอง	13.769973	100.586409	bma	working	2022-09-09T00:00:00	17:00:00	18:00:00	13	162	1170	2700	0.43
3080	TF1-HK-05 ถ.ประชาอุทิศ - ปากซอยลิ้มทอง	13.769973	100.586409	bma	working	2022-09-09T00:00:00	18:00:00	19:00:00	18	155	1274	2700	0.47
3081	TF1-HK-05 ถ.ประชาอุทิศ - ปากซอยลิ้มทอง	13.769973	100.586409	bma	working	2022-10-09T00:00:00	5:00:00	6:00:00	15	69	816	2700	0.30
3082	TF1-HK-05 ถ.ประชาอุทิศ - ปากซอยลิ้มทอง	13.769973	100.586409	bma	holiday	2022-10-09T00:00:00	6:00:00	7:00:00	11	202	2394	2700	0.89
3083	TF1-HK-05 ถ.ประชาอุทิศ - ปากซอยลิ้มทอง	13.769973	100.586409	bma	holiday	2022-10-09T00:00:00	7:00:00	8:00:00	11	202	2398	2700	0.89
3084	TF1-HK-05 ถ.ประชาอุทิศ - ปากซอยลิ้มทอง	13.769973	100.586409	bma	holiday	2022-10-09T00:00:00	8:00:00	9:00:00	7	201	1054	2700	0.39
3085	TF1-HK-05 ถ.ประชาอุทิศ - ปากซอยลิ้มทอง	13.769973	100.586409	bma	working	2022-10-09T00:00:00	9:00:00	10:00:00	5	202	945	2700	0.35
3086	TF1-HK-05 ถ.ประชาอุทิศ - ปากซอยลิ้มทอง	13.769973	100.586409	bma	working	2022-10-09T00:00:00	10:00:00	11:00:00	0	201	1019	2700	0.38
3087	TF1-HK-05 ถ.ประชาอุทิศ - ปากซอยลิ้มทอง	13.769973	100.586409	bma	holiday	2022-10-09T00:00:00	11:00:00	12:00:00	15	202	601	2700	0.22
3088	TF1-HK-05 ถ.ประชาอุทิศ - ปากซอยลิ้มทอง	13.769973	100.586409	bma	working	2022-10-09T00:00:00	12:00:00	13:00:00	5	201	1047	2700	0.39
3089	TF1-HK-05 ถ.ประชาอุทิศ - ปากซอยลิ้มทอง	13.769973	100.586409	bma	working	2022-10-09T00:00:00	13:00:00	14:00:00	2	201	991	2700	0.37
3090	TF1-HK-05 ถ.ประชาอุทิศ - ปากซอยลิ้มทอง	13.769973	100.586409	bma	holiday	2022-10-09T00:00:00	14:00:00	15:00:00	12	201	508	2700	0.19
3091	TF1-HK-05 ถ.ประชาอุทิศ - ปากซอยลิ้มทอง	13.769973	100.586409	bma	holiday	2022-10-09T00:00:00	15:00:00	16:00:00	20	91	1399	2700	0.52
3092	TF1-HK-05 ถ.ประชาอุทิศ - ปากซอยลิ้มทอง	13.769973	100.586409	bma	holiday	2022-10-09T00:00:00	16:00:00	17:00:00	8	201	830	2700	0.31
3093	TF1-HK-05 ถ.ประชาอุทิศ - ปากซอยลิ้มทอง	13.769973	100.586409	bma	holiday	2022-10-09T00:00:00	17:00:00	18:00:00	7	201	1307	2700	0.48
3094	TF1-HK-05 ถ.ประชาอุทิศ - ปากซอยลิ้มทอง	13.769973	100.586409	bma	holiday	2022-10-09T00:00:00	18:00:00	19:00:00	7	201	1308	2700	0.48
3095	TF1-HK-05 ถ.ประชาอุทิศ - ปากซอยลิ้มทอง	13.769973	100.586409	bma	working	2022-11-09T00:00:00	5:00:00	6:00:00	9	64	453	2700	0.17
3096	TF1-HK-05 ถ.ประชาอุทิศ - ปากซอยลิ้มทอง	13.769973	100.586409	bma	holiday	2022-11-09T00:00:00	6:00:00	7:00:00	7	201	1428	2700	0.53
3097	TF1-HK-05 ถ.ประชาอุทิศ - ปากซอยลิ้มทอง	13.769973	100.586409	bma	holiday	2022-11-09T00:00:00	7:00:00	8:00:00	7	202	1441	2700	0.53
3098	TF1-HK-05 ถ.ประชาอุทิศ - ปากซอยลิ้มทอง	13.769973	100.586409	bma	holiday	2022-11-09T00:00:00	8:00:00	9:00:00	4	138	647	2700	0.24
3099	TF1-HK-05 ถ.ประชาอุทิศ - ปากซอยลิ้มทอง	13.769973	100.586409	bma	working	2022-11-09T00:00:00	9:00:00	10:00:00	3	133	604	2700	0.22
3100	TF1-HK-05 ถ.ประชาอุทิศ - ปากซอยลิ้มทอง	13.769973	100.586409	bma	working	2022-11-09T00:00:00	10:00:00	11:00:00	0	136	641	2700	0.24
3101	TF1-HK-05 ถ.ประชาอุทิศ - ปากซอยลิ้มทอง	13.769973	100.586409	bma	holiday	2022-11-09T00:00:00	11:00:00	12:00:00	9	151	392	2700	0.15
3102	TF1-HK-05 ถ.ประชาอุทิศ - ปากซอยลิ้มทอง	13.769973	100.586409	bma	working	2022-11-09T00:00:00	12:00:00	13:00:00	3	145	640	2700	0.24
3103	TF1-HK-05 ถ.ประชาอุทิศ - ปากซอยลิ้มทอง	13.769973	100.586409	bma	working	2022-11-09T00:00:00	13:00:00	14:00:00	2	139	590	2700	0.22
3104	TF1-HK-05 ถ.ประชาอุทิศ - ปากซอยลิ้มทอง	13.769973	100.586409	bma	working	2022-11-09T00:00:00	14:00:00	15:00:00	2	142	622	2700	0.23
3105	TF1-HK-05 ถ.ประชาอุทิศ - ปากซอยลิ้มทอง	13.769973	100.586409	bma	holiday	2022-11-09T00:00:00	15:00:00	16:00:00	12	55	890	2700	0.33
3106	TF1-HK-05 ถ.ประชาอุทิศ - ปากซอยลิ้มทอง	13.769973	100.586409	bma	holiday	2022-11-09T00:00:00	16:00:00	17:00:00	5	192	512	2700	0.19
3107	TF1-HK-05 ถ.ประชาอุทิศ - ปากซอยลิ้มทอง	13.769973	100.586409	bma	holiday	2022-11-09T00:00:00	17:00:00	18:00:00	4	125	801	2700	0.30
3108	TF1-HK-05 ถ.ประชาอุทิศ - ปากซอยลิ้มทอง	13.769973	100.586409	bma	holiday	2022-11-09T00:00:00	18:00:00	19:00:00	4	125	795	2700	0.29
3109	TF1-JJ-02 ถ.วิภาวดีรังสิต - ถ.งามวงศ์วาน	13.8475	100.561278	bma	working	2022-05-09T00:00:00	5:00:00	6:00:00	32	3	138	1800	0.08
3110	TF1-JJ-02 ถ.วิภาวดีรังสิต - ถ.งามวงศ์วาน	13.8475	100.561278	bma	working	2022-05-09T00:00:00	6:00:00	7:00:00	23	10	435	1800	0.24
3111	TF1-JJ-02 ถ.วิภาวดีรังสิต - ถ.งามวงศ์วาน	13.8475	100.561278	bma	working	2022-05-09T00:00:00	7:00:00	8:00:00	44	20	1947	1800	1.08
3112	TF1-JJ-02 ถ.วิภาวดีรังสิต - ถ.งามวงศ์วาน	13.8475	100.561278	bma	working	2022-05-09T00:00:00	8:00:00	9:00:00	45	19	2336	1800	1.30
3113	TF1-JJ-02 ถ.วิภาวดีรังสิต - ถ.งามวงศ์วาน	13.8475	100.561278	bma	working	2022-05-09T00:00:00	9:00:00	10:00:00	40	13	2224	1800	1.24
3114	TF1-JJ-02 ถ.วิภาวดีรังสิต - ถ.งามวงศ์วาน	13.8475	100.561278	bma	working	2022-05-09T00:00:00	10:00:00	11:00:00	38	13	2122	1800	1.18
3115	TF1-JJ-02 ถ.วิภาวดีรังสิต - ถ.งามวงศ์วาน	13.8475	100.561278	bma	working	2022-05-09T00:00:00	11:00:00	12:00:00	55	28	2339	1800	1.30
3116	TF1-JJ-02 ถ.วิภาวดีรังสิต - ถ.งามวงศ์วาน	13.8475	100.561278	bma	working	2022-05-09T00:00:00	12:00:00	13:00:00	41	15	2143	1800	1.19
3117	TF1-JJ-02 ถ.วิภาวดีรังสิต - ถ.งามวงศ์วาน	13.8475	100.561278	bma	working	2022-05-09T00:00:00	13:00:00	14:00:00	44	17	2074	1800	1.15
3118	TF1-JJ-02 ถ.วิภาวดีรังสิต - ถ.งามวงศ์วาน	13.8475	100.561278	bma	working	2022-05-09T00:00:00	14:00:00	15:00:00	41	18	2082	1800	1.16
3119	TF1-JJ-02 ถ.วิภาวดีรังสิต - ถ.งามวงศ์วาน	13.8475	100.561278	bma	working	2022-05-09T00:00:00	15:00:00	16:00:00	40	14	2044	1800	1.14
3120	TF1-JJ-02 ถ.วิภาวดีรังสิต - ถ.งามวงศ์วาน	13.8475	100.561278	bma	working	2022-05-09T00:00:00	16:00:00	17:00:00	76	40	2736	1800	1.52
3121	TF1-JJ-02 ถ.วิภาวดีรังสิต - ถ.งามวงศ์วาน	13.8475	100.561278	bma	working	2022-05-09T00:00:00	17:00:00	18:00:00	79	65	1910	1800	1.06
3122	TF1-JJ-02 ถ.วิภาวดีรังสิต - ถ.งามวงศ์วาน	13.8475	100.561278	bma	working	2022-05-09T00:00:00	18:00:00	19:00:00	78	55	2464	1800	1.37
3123	TF1-JJ-02 ถ.วิภาวดีรังสิต - ถ.งามวงศ์วาน	13.8475	100.561278	bma	working	2022-06-09T00:00:00	5:00:00	6:00:00	45	4	311	1800	0.17
3124	TF1-JJ-02 ถ.วิภาวดีรังสิต - ถ.งามวงศ์วาน	13.8475	100.561278	bma	working	2022-06-09T00:00:00	6:00:00	7:00:00	32	12	810	1800	0.45
3125	TF1-JJ-02 ถ.วิภาวดีรังสิต - ถ.งามวงศ์วาน	13.8475	100.561278	bma	working	2022-06-09T00:00:00	7:00:00	8:00:00	40	16	1827	1800	1.02
3126	TF1-JJ-02 ถ.วิภาวดีรังสิต - ถ.งามวงศ์วาน	13.8475	100.561278	bma	working	2022-06-09T00:00:00	8:00:00	9:00:00	50	18	2200	1800	1.22
3127	TF1-JJ-02 ถ.วิภาวดีรังสิต - ถ.งามวงศ์วาน	13.8475	100.561278	bma	working	2022-06-09T00:00:00	9:00:00	10:00:00	50	15	2105	1800	1.17
3128	TF1-JJ-02 ถ.วิภาวดีรังสิต - ถ.งามวงศ์วาน	13.8475	100.561278	bma	working	2022-06-09T00:00:00	10:00:00	11:00:00	50	14	1962	1800	1.09
3129	TF1-JJ-02 ถ.วิภาวดีรังสิต - ถ.งามวงศ์วาน	13.8475	100.561278	bma	working	2022-06-09T00:00:00	11:00:00	12:00:00	60	28	2384	1800	1.32
3130	TF1-JJ-02 ถ.วิภาวดีรังสิต - ถ.งามวงศ์วาน	13.8475	100.561278	bma	working	2022-06-09T00:00:00	12:00:00	13:00:00	49	15	2023	1800	1.12
3131	TF1-JJ-02 ถ.วิภาวดีรังสิต - ถ.งามวงศ์วาน	13.8475	100.561278	bma	working	2022-06-09T00:00:00	13:00:00	14:00:00	51	16	1991	1800	1.11
3132	TF1-JJ-02 ถ.วิภาวดีรังสิต - ถ.งามวงศ์วาน	13.8475	100.561278	bma	working	2022-06-09T00:00:00	14:00:00	15:00:00	45	16	1986	1800	1.10
3133	TF1-JJ-02 ถ.วิภาวดีรังสิต - ถ.งามวงศ์วาน	13.8475	100.561278	bma	working	2022-06-09T00:00:00	15:00:00	16:00:00	49	15	1901	1800	1.06
3134	TF1-JJ-02 ถ.วิภาวดีรังสิต - ถ.งามวงศ์วาน	13.8475	100.561278	bma	working	2022-06-09T00:00:00	16:00:00	17:00:00	81	30	2258	1800	1.25
3135	TF1-JJ-02 ถ.วิภาวดีรังสิต - ถ.งามวงศ์วาน	13.8475	100.561278	bma	working	2022-06-09T00:00:00	17:00:00	18:00:00	75	64	2297	1800	1.28
3136	TF1-JJ-02 ถ.วิภาวดีรังสิต - ถ.งามวงศ์วาน	13.8475	100.561278	bma	working	2022-06-09T00:00:00	18:00:00	19:00:00	66	51	2295	1800	1.28
3137	TF1-JJ-02 ถ.วิภาวดีรังสิต - ถ.งามวงศ์วาน	13.8475	100.561278	bma	working	2022-07-09T00:00:00	5:00:00	6:00:00	63	5	403	1800	0.22
3138	TF1-JJ-02 ถ.วิภาวดีรังสิต - ถ.งามวงศ์วาน	13.8475	100.561278	bma	working	2022-07-09T00:00:00	6:00:00	7:00:00	44	13	1163	1800	0.65
3139	TF1-JJ-02 ถ.วิภาวดีรังสิต - ถ.งามวงศ์วาน	13.8475	100.561278	bma	working	2022-07-09T00:00:00	7:00:00	8:00:00	36	14	1452	1800	0.81
3140	TF1-JJ-02 ถ.วิภาวดีรังสิต - ถ.งามวงศ์วาน	13.8475	100.561278	bma	working	2022-07-09T00:00:00	8:00:00	9:00:00	60	20	2037	1800	1.13
3141	TF1-JJ-02 ถ.วิภาวดีรังสิต - ถ.งามวงศ์วาน	13.8475	100.561278	bma	working	2022-07-09T00:00:00	9:00:00	10:00:00	58	17	1976	1800	1.10
3142	TF1-JJ-02 ถ.วิภาวดีรังสิต - ถ.งามวงศ์วาน	13.8475	100.561278	bma	working	2022-07-09T00:00:00	10:00:00	11:00:00	56	14	1890	1800	1.05
3143	TF1-JJ-02 ถ.วิภาวดีรังสิต - ถ.งามวงศ์วาน	13.8475	100.561278	bma	working	2022-07-09T00:00:00	11:00:00	12:00:00	62	24	2528	1800	1.40
3144	TF1-JJ-02 ถ.วิภาวดีรังสิต - ถ.งามวงศ์วาน	13.8475	100.561278	bma	working	2022-07-09T00:00:00	12:00:00	13:00:00	58	15	1842	1800	1.02
3145	TF1-JJ-02 ถ.วิภาวดีรังสิต - ถ.งามวงศ์วาน	13.8475	100.561278	bma	working	2022-07-09T00:00:00	13:00:00	14:00:00	55	15	1849	1800	1.03
3146	TF1-JJ-02 ถ.วิภาวดีรังสิต - ถ.งามวงศ์วาน	13.8475	100.561278	bma	working	2022-07-09T00:00:00	14:00:00	15:00:00	54	14	1902	1800	1.06
3147	TF1-JJ-02 ถ.วิภาวดีรังสิต - ถ.งามวงศ์วาน	13.8475	100.561278	bma	working	2022-07-09T00:00:00	15:00:00	16:00:00	57	15	1803	1800	1.00
3148	TF1-JJ-02 ถ.วิภาวดีรังสิต - ถ.งามวงศ์วาน	13.8475	100.561278	bma	working	2022-07-09T00:00:00	16:00:00	17:00:00	82	16	1654	1800	0.92
3149	TF1-JJ-02 ถ.วิภาวดีรังสิต - ถ.งามวงศ์วาน	13.8475	100.561278	bma	working	2022-07-09T00:00:00	17:00:00	18:00:00	68	58	2551	1800	1.42
3150	TF1-JJ-02 ถ.วิภาวดีรังสิต - ถ.งามวงศ์วาน	13.8475	100.561278	bma	working	2022-07-09T00:00:00	18:00:00	19:00:00	56	49	2339	1800	1.30
3151	TF1-JJ-02 ถ.วิภาวดีรังสิต - ถ.งามวงศ์วาน	13.8475	100.561278	bma	working	2022-08-09T00:00:00	5:00:00	6:00:00	37	5	418	1800	0.23
3152	TF1-JJ-02 ถ.วิภาวดีรังสิต - ถ.งามวงศ์วาน	13.8475	100.561278	bma	working	2022-08-09T00:00:00	6:00:00	7:00:00	26	13	1211	1800	0.67
3153	TF1-JJ-02 ถ.วิภาวดีรังสิต - ถ.งามวงศ์วาน	13.8475	100.561278	bma	working	2022-08-09T00:00:00	7:00:00	8:00:00	38	17	1715	1800	0.95
3154	TF1-JJ-02 ถ.วิภาวดีรังสิต - ถ.งามวงศ์วาน	13.8475	100.561278	bma	working	2022-08-09T00:00:00	8:00:00	9:00:00	45	19	2139	1800	1.19
3155	TF1-JJ-02 ถ.วิภาวดีรังสิต - ถ.งามวงศ์วาน	13.8475	100.561278	bma	working	2022-08-09T00:00:00	9:00:00	10:00:00	42	16	1893	1800	1.05
3156	TF1-JJ-02 ถ.วิภาวดีรังสิต - ถ.งามวงศ์วาน	13.8475	100.561278	bma	working	2022-08-09T00:00:00	10:00:00	11:00:00	41	16	1832	1800	1.02
3157	TF1-JJ-02 ถ.วิภาวดีรังสิต - ถ.งามวงศ์วาน	13.8475	100.561278	bma	working	2022-08-09T00:00:00	11:00:00	12:00:00	51	23	2650	1800	1.47
3158	TF1-JJ-02 ถ.วิภาวดีรังสิต - ถ.งามวงศ์วาน	13.8475	100.561278	bma	working	2022-08-09T00:00:00	12:00:00	13:00:00	42	17	1832	1800	1.02
3159	TF1-JJ-02 ถ.วิภาวดีรังสิต - ถ.งามวงศ์วาน	13.8475	100.561278	bma	working	2022-08-09T00:00:00	13:00:00	14:00:00	41	16	1848	1800	1.03
3160	TF1-JJ-02 ถ.วิภาวดีรังสิต - ถ.งามวงศ์วาน	13.8475	100.561278	bma	working	2022-08-09T00:00:00	14:00:00	15:00:00	42	15	1820	1800	1.01
3161	TF1-JJ-02 ถ.วิภาวดีรังสิต - ถ.งามวงศ์วาน	13.8475	100.561278	bma	working	2022-08-09T00:00:00	15:00:00	16:00:00	43	15	1861	1800	1.03
3162	TF1-JJ-02 ถ.วิภาวดีรังสิต - ถ.งามวงศ์วาน	13.8475	100.561278	bma	working	2022-08-09T00:00:00	16:00:00	17:00:00	81	29	1976	1800	1.10
3163	TF1-JJ-02 ถ.วิภาวดีรังสิต - ถ.งามวงศ์วาน	13.8475	100.561278	bma	working	2022-08-09T00:00:00	17:00:00	18:00:00	69	55	2302	1800	1.28
3164	TF1-JJ-02 ถ.วิภาวดีรังสิต - ถ.งามวงศ์วาน	13.8475	100.561278	bma	working	2022-08-09T00:00:00	18:00:00	19:00:00	72	52	2220	1800	1.23
3165	TF1-JJ-02 ถ.วิภาวดีรังสิต - ถ.งามวงศ์วาน	13.8475	100.561278	bma	working	2022-09-09T00:00:00	5:00:00	6:00:00	18	4	466	1800	0.26
3166	TF1-JJ-02 ถ.วิภาวดีรังสิต - ถ.งามวงศ์วาน	13.8475	100.561278	bma	working	2022-09-09T00:00:00	6:00:00	7:00:00	13	13	1333	1800	0.74
3167	TF1-JJ-02 ถ.วิภาวดีรังสิต - ถ.งามวงศ์วาน	13.8475	100.561278	bma	working	2022-09-09T00:00:00	7:00:00	8:00:00	36	21	1915	1800	1.06
3168	TF1-JJ-02 ถ.วิภาวดีรังสิต - ถ.งามวงศ์วาน	13.8475	100.561278	bma	working	2022-09-09T00:00:00	8:00:00	9:00:00	28	19	1942	1800	1.08
3169	TF1-JJ-02 ถ.วิภาวดีรังสิต - ถ.งามวงศ์วาน	13.8475	100.561278	bma	working	2022-09-09T00:00:00	9:00:00	10:00:00	24	16	1957	1800	1.09
3170	TF1-JJ-02 ถ.วิภาวดีรังสิต - ถ.งามวงศ์วาน	13.8475	100.561278	bma	working	2022-09-09T00:00:00	10:00:00	11:00:00	27	19	1872	1800	1.04
3171	TF1-JJ-02 ถ.วิภาวดีรังสิต - ถ.งามวงศ์วาน	13.8475	100.561278	bma	working	2022-09-09T00:00:00	11:00:00	12:00:00	42	21	2765	1800	1.54
3172	TF1-JJ-02 ถ.วิภาวดีรังสิต - ถ.งามวงศ์วาน	13.8475	100.561278	bma	working	2022-09-09T00:00:00	12:00:00	13:00:00	24	19	1825	1800	1.01
3173	TF1-JJ-02 ถ.วิภาวดีรังสิต - ถ.งามวงศ์วาน	13.8475	100.561278	bma	working	2022-09-09T00:00:00	13:00:00	14:00:00	23	19	1880	1800	1.04
3174	TF1-JJ-02 ถ.วิภาวดีรังสิต - ถ.งามวงศ์วาน	13.8475	100.561278	bma	working	2022-09-09T00:00:00	14:00:00	15:00:00	29	18	1745	1800	0.97
3175	TF1-JJ-02 ถ.วิภาวดีรังสิต - ถ.งามวงศ์วาน	13.8475	100.561278	bma	working	2022-09-09T00:00:00	15:00:00	16:00:00	24	14	1902	1800	1.06
3176	TF1-JJ-02 ถ.วิภาวดีรังสิต - ถ.งามวงศ์วาน	13.8475	100.561278	bma	working	2022-09-09T00:00:00	16:00:00	17:00:00	81	41	2371	1800	1.32
3177	TF1-JJ-02 ถ.วิภาวดีรังสิต - ถ.งามวงศ์วาน	13.8475	100.561278	bma	working	2022-09-09T00:00:00	17:00:00	18:00:00	73	49	2221	1800	1.23
3178	TF1-JJ-02 ถ.วิภาวดีรังสิต - ถ.งามวงศ์วาน	13.8475	100.561278	bma	working	2022-09-09T00:00:00	18:00:00	19:00:00	83	54	2179	1800	1.21
3179	TF1-JJ-02 ถ.วิภาวดีรังสิต - ถ.งามวงศ์วาน	13.8475	100.561278	bma	working	2022-10-09T00:00:00	5:00:00	6:00:00	82	7	638	1800	0.35
3180	TF1-JJ-02 ถ.วิภาวดีรังสิต - ถ.งามวงศ์วาน	13.8475	100.561278	bma	holiday	2022-10-09T00:00:00	6:00:00	7:00:00	58	19	1933	1800	1.07
3181	TF1-JJ-02 ถ.วิภาวดีรังสิต - ถ.งามวงศ์วาน	13.8475	100.561278	bma	holiday	2022-10-09T00:00:00	7:00:00	8:00:00	58	19	1932	1800	1.07
3182	TF1-JJ-02 ถ.วิภาวดีรังสิต - ถ.งามวงศ์วาน	13.8475	100.561278	bma	holiday	2022-10-09T00:00:00	8:00:00	9:00:00	52	17	2128	1800	1.18
3183	TF1-JJ-02 ถ.วิภาวดีรังสิต - ถ.งามวงศ์วาน	13.8475	100.561278	bma	working	2022-10-09T00:00:00	9:00:00	10:00:00	47	13	2038	1800	1.13
3184	TF1-JJ-02 ถ.วิภาวดีรังสิต - ถ.งามวงศ์วาน	13.8475	100.561278	bma	working	2022-10-09T00:00:00	10:00:00	11:00:00	53	13	2206	1800	1.23
3185	TF1-JJ-02 ถ.วิภาวดีรังสิต - ถ.งามวงศ์วาน	13.8475	100.561278	bma	holiday	2022-10-09T00:00:00	11:00:00	12:00:00	94	21	2386	1800	1.33
3186	TF1-JJ-02 ถ.วิภาวดีรังสิต - ถ.งามวงศ์วาน	13.8475	100.561278	bma	working	2022-10-09T00:00:00	12:00:00	13:00:00	48	16	2062	1800	1.15
3187	TF1-JJ-02 ถ.วิภาวดีรังสิต - ถ.งามวงศ์วาน	13.8475	100.561278	bma	working	2022-10-09T00:00:00	13:00:00	14:00:00	51	15	2125	1800	1.18
3188	TF1-JJ-02 ถ.วิภาวดีรังสิต - ถ.งามวงศ์วาน	13.8475	100.561278	bma	working	2022-10-09T00:00:00	14:00:00	15:00:00	48	17	2018	1800	1.12
3189	TF1-JJ-02 ถ.วิภาวดีรังสิต - ถ.งามวงศ์วาน	13.8475	100.561278	bma	working	2022-10-09T00:00:00	15:00:00	16:00:00	48	17	1967	1800	1.09
3190	TF1-JJ-02 ถ.วิภาวดีรังสิต - ถ.งามวงศ์วาน	13.8475	100.561278	bma	holiday	2022-10-09T00:00:00	16:00:00	17:00:00	86	28	2359	1800	1.31
3191	TF1-JJ-02 ถ.วิภาวดีรังสิต - ถ.งามวงศ์วาน	13.8475	100.561278	bma	holiday	2022-10-09T00:00:00	17:00:00	18:00:00	90	38	2515	1800	1.40
3192	TF1-JJ-02 ถ.วิภาวดีรังสิต - ถ.งามวงศ์วาน	13.8475	100.561278	bma	holiday	2022-10-09T00:00:00	18:00:00	19:00:00	35	13	1253	1800	0.70
3193	TF1-JJ-02 ถ.วิภาวดีรังสิต - ถ.งามวงศ์วาน	13.8475	100.561278	bma	working	2022-11-09T00:00:00	5:00:00	6:00:00	47	4	439	1800	0.24
3194	TF1-JJ-02 ถ.วิภาวดีรังสิต - ถ.งามวงศ์วาน	13.8475	100.561278	bma	holiday	2022-11-09T00:00:00	6:00:00	7:00:00	33	11	1246	1800	0.69
3195	TF1-JJ-02 ถ.วิภาวดีรังสิต - ถ.งามวงศ์วาน	13.8475	100.561278	bma	holiday	2022-11-09T00:00:00	7:00:00	8:00:00	33	11	1403	1800	0.78
3196	TF1-JJ-02 ถ.วิภาวดีรังสิต - ถ.งามวงศ์วาน	13.8475	100.561278	bma	holiday	2022-11-09T00:00:00	8:00:00	9:00:00	31	11	1325	1800	0.74
3197	TF1-JJ-02 ถ.วิภาวดีรังสิต - ถ.งามวงศ์วาน	13.8475	100.561278	bma	working	2022-11-09T00:00:00	9:00:00	10:00:00	30	9	1213	1800	0.67
3198	TF1-JJ-02 ถ.วิภาวดีรังสิต - ถ.งามวงศ์วาน	13.8475	100.561278	bma	working	2022-11-09T00:00:00	10:00:00	11:00:00	31	8	1394	1800	0.77
3199	TF1-JJ-02 ถ.วิภาวดีรังสิต - ถ.งามวงศ์วาน	13.8475	100.561278	bma	holiday	2022-11-09T00:00:00	11:00:00	12:00:00	58	12	1471	1800	0.82
3200	TF1-JJ-02 ถ.วิภาวดีรังสิต - ถ.งามวงศ์วาน	13.8475	100.561278	bma	working	2022-11-09T00:00:00	12:00:00	13:00:00	30	10	1240	1800	0.69
3201	TF1-JJ-02 ถ.วิภาวดีรังสิต - ถ.งามวงศ์วาน	13.8475	100.561278	bma	working	2022-11-09T00:00:00	13:00:00	14:00:00	30	8	1273	1800	0.71
3202	TF1-JJ-02 ถ.วิภาวดีรังสิต - ถ.งามวงศ์วาน	13.8475	100.561278	bma	working	2022-11-09T00:00:00	14:00:00	15:00:00	30	11	1264	1800	0.70
3203	TF1-JJ-02 ถ.วิภาวดีรังสิต - ถ.งามวงศ์วาน	13.8475	100.561278	bma	working	2022-11-09T00:00:00	15:00:00	16:00:00	28	10	1235	1800	0.69
3204	TF1-JJ-02 ถ.วิภาวดีรังสิต - ถ.งามวงศ์วาน	13.8475	100.561278	bma	holiday	2022-11-09T00:00:00	16:00:00	17:00:00	52	18	1512	1800	0.84
3205	TF1-JJ-02 ถ.วิภาวดีรังสิต - ถ.งามวงศ์วาน	13.8475	100.561278	bma	holiday	2022-11-09T00:00:00	17:00:00	18:00:00	54	24	1663	1800	0.92
3206	TF1-JJ-02 ถ.วิภาวดีรังสิต - ถ.งามวงศ์วาน	13.8475	100.561278	bma	holiday	2022-11-09T00:00:00	18:00:00	19:00:00	22	9	767	1800	0.43
3207	TF1-LK-02 ถ.ร่มเกล้า - ถ.เจ้าคุณทหาร	13.754419	100.746239	bma	working	2022-05-09T00:00:00	5:00:00	6:00:00	69	13	90	2700	0.03
3208	TF1-LK-02 ถ.ร่มเกล้า - ถ.เจ้าคุณทหาร	13.754419	100.746239	bma	working	2022-05-09T00:00:00	6:00:00	7:00:00	48	38	265	2700	0.10
3209	TF1-LK-02 ถ.ร่มเกล้า - ถ.เจ้าคุณทหาร	13.754419	100.746239	bma	working	2022-05-09T00:00:00	7:00:00	8:00:00	62	45	674	2700	0.25
3210	TF1-LK-02 ถ.ร่มเกล้า - ถ.เจ้าคุณทหาร	13.754419	100.746239	bma	working	2022-05-09T00:00:00	8:00:00	9:00:00	64	34	1132	2700	0.42
3211	TF1-LK-02 ถ.ร่มเกล้า - ถ.เจ้าคุณทหาร	13.754419	100.746239	bma	working	2022-05-09T00:00:00	9:00:00	10:00:00	54	33	1008	2700	0.37
3212	TF1-LK-02 ถ.ร่มเกล้า - ถ.เจ้าคุณทหาร	13.754419	100.746239	bma	working	2022-05-09T00:00:00	10:00:00	11:00:00	62	35	975	2700	0.36
3213	TF1-LK-02 ถ.ร่มเกล้า - ถ.เจ้าคุณทหาร	13.754419	100.746239	bma	working	2022-05-09T00:00:00	11:00:00	12:00:00	58	36	968	2700	0.36
3214	TF1-LK-02 ถ.ร่มเกล้า - ถ.เจ้าคุณทหาร	13.754419	100.746239	bma	working	2022-05-09T00:00:00	12:00:00	13:00:00	59	29	1027	2700	0.38
3215	TF1-LK-02 ถ.ร่มเกล้า - ถ.เจ้าคุณทหาร	13.754419	100.746239	bma	working	2022-05-09T00:00:00	13:00:00	14:00:00	56	31	1029	2700	0.38
3216	TF1-LK-02 ถ.ร่มเกล้า - ถ.เจ้าคุณทหาร	13.754419	100.746239	bma	working	2022-05-09T00:00:00	14:00:00	15:00:00	53	32	997	2700	0.37
3217	TF1-LK-02 ถ.ร่มเกล้า - ถ.เจ้าคุณทหาร	13.754419	100.746239	bma	working	2022-05-09T00:00:00	15:00:00	16:00:00	55	29	1050	2700	0.39
3218	TF1-LK-02 ถ.ร่มเกล้า - ถ.เจ้าคุณทหาร	13.754419	100.746239	bma	working	2022-05-09T00:00:00	16:00:00	17:00:00	60	44	1240	2700	0.46
3219	TF1-LK-02 ถ.ร่มเกล้า - ถ.เจ้าคุณทหาร	13.754419	100.746239	bma	working	2022-05-09T00:00:00	17:00:00	18:00:00	61	47	1829	2700	0.68
3220	TF1-LK-02 ถ.ร่มเกล้า - ถ.เจ้าคุณทหาร	13.754419	100.746239	bma	working	2022-05-09T00:00:00	18:00:00	19:00:00	31	50	1154	2700	0.43
3221	TF1-LK-02 ถ.ร่มเกล้า - ถ.เจ้าคุณทหาร	13.754419	100.746239	bma	working	2022-06-09T00:00:00	5:00:00	6:00:00	34	9	110	2700	0.04
3222	TF1-LK-02 ถ.ร่มเกล้า - ถ.เจ้าคุณทหาร	13.754419	100.746239	bma	working	2022-06-09T00:00:00	6:00:00	7:00:00	24	27	310	2700	0.11
3223	TF1-LK-02 ถ.ร่มเกล้า - ถ.เจ้าคุณทหาร	13.754419	100.746239	bma	working	2022-06-09T00:00:00	7:00:00	8:00:00	31	36	562	2700	0.21
3224	TF1-LK-02 ถ.ร่มเกล้า - ถ.เจ้าคุณทหาร	13.754419	100.746239	bma	working	2022-06-09T00:00:00	8:00:00	9:00:00	30	30	815	2700	0.30
3225	TF1-LK-02 ถ.ร่มเกล้า - ถ.เจ้าคุณทหาร	13.754419	100.746239	bma	working	2022-06-09T00:00:00	9:00:00	10:00:00	28	27	703	2700	0.26
3226	TF1-LK-02 ถ.ร่มเกล้า - ถ.เจ้าคุณทหาร	13.754419	100.746239	bma	working	2022-06-09T00:00:00	10:00:00	11:00:00	31	26	652	2700	0.24
3227	TF1-LK-02 ถ.ร่มเกล้า - ถ.เจ้าคุณทหาร	13.754419	100.746239	bma	working	2022-06-09T00:00:00	11:00:00	12:00:00	32	30	714	2700	0.26
3228	TF1-LK-02 ถ.ร่มเกล้า - ถ.เจ้าคุณทหาร	13.754419	100.746239	bma	working	2022-06-09T00:00:00	12:00:00	13:00:00	29	24	693	2700	0.26
3229	TF1-LK-02 ถ.ร่มเกล้า - ถ.เจ้าคุณทหาร	13.754419	100.746239	bma	working	2022-06-09T00:00:00	13:00:00	14:00:00	28	24	734	2700	0.27
3230	TF1-LK-02 ถ.ร่มเกล้า - ถ.เจ้าคุณทหาร	13.754419	100.746239	bma	working	2022-06-09T00:00:00	14:00:00	15:00:00	29	27	730	2700	0.27
3231	TF1-LK-02 ถ.ร่มเกล้า - ถ.เจ้าคุณทหาร	13.754419	100.746239	bma	working	2022-06-09T00:00:00	15:00:00	16:00:00	30	24	771	2700	0.29
3232	TF1-LK-02 ถ.ร่มเกล้า - ถ.เจ้าคุณทหาร	13.754419	100.746239	bma	working	2022-06-09T00:00:00	16:00:00	17:00:00	44	35	915	2700	0.34
3233	TF1-LK-02 ถ.ร่มเกล้า - ถ.เจ้าคุณทหาร	13.754419	100.746239	bma	working	2022-06-09T00:00:00	17:00:00	18:00:00	60	47	1400	2700	0.52
3234	TF1-LK-02 ถ.ร่มเกล้า - ถ.เจ้าคุณทหาร	13.754419	100.746239	bma	working	2022-06-09T00:00:00	18:00:00	19:00:00	44	39	1279	2700	0.47
3235	TF1-LK-02 ถ.ร่มเกล้า - ถ.เจ้าคุณทหาร	13.754419	100.746239	bma	working	2022-07-09T00:00:00	5:00:00	6:00:00	0	6	111	2700	0.04
3236	TF1-LK-02 ถ.ร่มเกล้า - ถ.เจ้าคุณทหาร	13.754419	100.746239	bma	working	2022-07-09T00:00:00	6:00:00	7:00:00	0	16	304	2700	0.11
3237	TF1-LK-02 ถ.ร่มเกล้า - ถ.เจ้าคุณทหาร	13.754419	100.746239	bma	working	2022-07-09T00:00:00	7:00:00	8:00:00	0	26	423	2700	0.16
3238	TF1-LK-02 ถ.ร่มเกล้า - ถ.เจ้าคุณทหาร	13.754419	100.746239	bma	working	2022-07-09T00:00:00	8:00:00	9:00:00	0	23	472	2700	0.17
3239	TF1-LK-02 ถ.ร่มเกล้า - ถ.เจ้าคุณทหาร	13.754419	100.746239	bma	working	2022-07-09T00:00:00	9:00:00	10:00:00	0	20	408	2700	0.15
3240	TF1-LK-02 ถ.ร่มเกล้า - ถ.เจ้าคุณทหาร	13.754419	100.746239	bma	working	2022-07-09T00:00:00	10:00:00	11:00:00	0	18	415	2700	0.15
3241	TF1-LK-02 ถ.ร่มเกล้า - ถ.เจ้าคุณทหาร	13.754419	100.746239	bma	working	2022-07-09T00:00:00	11:00:00	12:00:00	0	23	434	2700	0.16
3242	TF1-LK-02 ถ.ร่มเกล้า - ถ.เจ้าคุณทหาร	13.754419	100.746239	bma	working	2022-07-09T00:00:00	12:00:00	13:00:00	0	20	360	2700	0.13
3243	TF1-LK-02 ถ.ร่มเกล้า - ถ.เจ้าคุณทหาร	13.754419	100.746239	bma	working	2022-07-09T00:00:00	13:00:00	14:00:00	0	20	435	2700	0.16
3244	TF1-LK-02 ถ.ร่มเกล้า - ถ.เจ้าคุณทหาร	13.754419	100.746239	bma	working	2022-07-09T00:00:00	14:00:00	15:00:00	0	21	450	2700	0.17
3245	TF1-LK-02 ถ.ร่มเกล้า - ถ.เจ้าคุณทหาร	13.754419	100.746239	bma	working	2022-07-09T00:00:00	15:00:00	16:00:00	0	20	460	2700	0.17
3246	TF1-LK-02 ถ.ร่มเกล้า - ถ.เจ้าคุณทหาร	13.754419	100.746239	bma	working	2022-07-09T00:00:00	16:00:00	17:00:00	31	27	561	2700	0.21
3247	TF1-LK-02 ถ.ร่มเกล้า - ถ.เจ้าคุณทหาร	13.754419	100.746239	bma	working	2022-07-09T00:00:00	17:00:00	18:00:00	60	48	1211	2700	0.45
3248	TF1-LK-02 ถ.ร่มเกล้า - ถ.เจ้าคุณทหาร	13.754419	100.746239	bma	working	2022-07-09T00:00:00	18:00:00	19:00:00	62	27	1470	2700	0.54
3249	TF1-LK-02 ถ.ร่มเกล้า - ถ.เจ้าคุณทหาร	13.754419	100.746239	bma	working	2022-08-09T00:00:00	5:00:00	6:00:00	42	7	147	2700	0.05
3250	TF1-LK-02 ถ.ร่มเกล้า - ถ.เจ้าคุณทหาร	13.754419	100.746239	bma	working	2022-08-09T00:00:00	6:00:00	7:00:00	30	21	417	2700	0.15
3251	TF1-LK-02 ถ.ร่มเกล้า - ถ.เจ้าคุณทหาร	13.754419	100.746239	bma	working	2022-08-09T00:00:00	7:00:00	8:00:00	23	29	700	2700	0.26
3252	TF1-LK-02 ถ.ร่มเกล้า - ถ.เจ้าคุณทหาร	13.754419	100.746239	bma	working	2022-08-09T00:00:00	8:00:00	9:00:00	16	32	883	2700	0.33
3253	TF1-LK-02 ถ.ร่มเกล้า - ถ.เจ้าคุณทหาร	13.754419	100.746239	bma	working	2022-08-09T00:00:00	9:00:00	10:00:00	14	27	801	2700	0.30
3254	TF1-LK-02 ถ.ร่มเกล้า - ถ.เจ้าคุณทหาร	13.754419	100.746239	bma	working	2022-08-09T00:00:00	10:00:00	11:00:00	13	28	788	2700	0.29
3255	TF1-LK-02 ถ.ร่มเกล้า - ถ.เจ้าคุณทหาร	13.754419	100.746239	bma	working	2022-08-09T00:00:00	11:00:00	12:00:00	19	33	570	2700	0.21
3256	TF1-LK-02 ถ.ร่มเกล้า - ถ.เจ้าคุณทหาร	13.754419	100.746239	bma	working	2022-08-09T00:00:00	12:00:00	13:00:00	13	27	782	2700	0.29
3257	TF1-LK-02 ถ.ร่มเกล้า - ถ.เจ้าคุณทหาร	13.754419	100.746239	bma	working	2022-08-09T00:00:00	13:00:00	14:00:00	15	27	808	2700	0.30
3258	TF1-LK-02 ถ.ร่มเกล้า - ถ.เจ้าคุณทหาร	13.754419	100.746239	bma	working	2022-08-09T00:00:00	14:00:00	15:00:00	15	28	819	2700	0.30
3259	TF1-LK-02 ถ.ร่มเกล้า - ถ.เจ้าคุณทหาร	13.754419	100.746239	bma	working	2022-08-09T00:00:00	15:00:00	16:00:00	15	28	799	2700	0.30
3260	TF1-LK-02 ถ.ร่มเกล้า - ถ.เจ้าคุณทหาร	13.754419	100.746239	bma	working	2022-08-09T00:00:00	16:00:00	17:00:00	24	32	566	2700	0.21
3261	TF1-LK-02 ถ.ร่มเกล้า - ถ.เจ้าคุณทหาร	13.754419	100.746239	bma	working	2022-08-09T00:00:00	17:00:00	18:00:00	31	46	1299	2700	0.48
3262	TF1-LK-02 ถ.ร่มเกล้า - ถ.เจ้าคุณทหาร	13.754419	100.746239	bma	working	2022-08-09T00:00:00	18:00:00	19:00:00	32	30	1324	2700	0.49
3263	TF1-LK-02 ถ.ร่มเกล้า - ถ.เจ้าคุณทหาร	13.754419	100.746239	bma	working	2022-09-09T00:00:00	5:00:00	6:00:00	89	8	190	2700	0.07
3264	TF1-LK-02 ถ.ร่มเกล้า - ถ.เจ้าคุณทหาร	13.754419	100.746239	bma	working	2022-09-09T00:00:00	6:00:00	7:00:00	62	26	520	2700	0.19
3265	TF1-LK-02 ถ.ร่มเกล้า - ถ.เจ้าคุณทหาร	13.754419	100.746239	bma	working	2022-09-09T00:00:00	7:00:00	8:00:00	48	30	971	2700	0.36
3266	TF1-LK-02 ถ.ร่มเกล้า - ถ.เจ้าคุณทหาร	13.754419	100.746239	bma	working	2022-09-09T00:00:00	8:00:00	9:00:00	30	38	1242	2700	0.46
3267	TF1-LK-02 ถ.ร่มเกล้า - ถ.เจ้าคุณทหาร	13.754419	100.746239	bma	working	2022-09-09T00:00:00	9:00:00	10:00:00	28	35	1049	2700	0.39
3268	TF1-LK-02 ถ.ร่มเกล้า - ถ.เจ้าคุณทหาร	13.754419	100.746239	bma	working	2022-09-09T00:00:00	10:00:00	11:00:00	28	38	1066	2700	0.39
3269	TF1-LK-02 ถ.ร่มเกล้า - ถ.เจ้าคุณทหาร	13.754419	100.746239	bma	working	2022-09-09T00:00:00	11:00:00	12:00:00	38	44	691	2700	0.26
3270	TF1-LK-02 ถ.ร่มเกล้า - ถ.เจ้าคุณทหาร	13.754419	100.746239	bma	working	2022-09-09T00:00:00	12:00:00	13:00:00	25	35	1113	2700	0.41
3271	TF1-LK-02 ถ.ร่มเกล้า - ถ.เจ้าคุณทหาร	13.754419	100.746239	bma	working	2022-09-09T00:00:00	13:00:00	14:00:00	30	34	1085	2700	0.40
3272	TF1-LK-02 ถ.ร่มเกล้า - ถ.เจ้าคุณทหาร	13.754419	100.746239	bma	working	2022-09-09T00:00:00	14:00:00	15:00:00	29	35	1188	2700	0.44
3273	TF1-LK-02 ถ.ร่มเกล้า - ถ.เจ้าคุณทหาร	13.754419	100.746239	bma	working	2022-09-09T00:00:00	15:00:00	16:00:00	30	35	1078	2700	0.40
3274	TF1-LK-02 ถ.ร่มเกล้า - ถ.เจ้าคุณทหาร	13.754419	100.746239	bma	working	2022-09-09T00:00:00	16:00:00	17:00:00	18	37	591	2700	0.22
3275	TF1-LK-02 ถ.ร่มเกล้า - ถ.เจ้าคุณทหาร	13.754419	100.746239	bma	working	2022-09-09T00:00:00	17:00:00	18:00:00	2	51	1623	2700	0.60
3276	TF1-LK-02 ถ.ร่มเกล้า - ถ.เจ้าคุณทหาร	13.754419	100.746239	bma	working	2022-09-09T00:00:00	18:00:00	19:00:00	4	30	1010	2700	0.37
3277	TF1-LK-02 ถ.ร่มเกล้า - ถ.เจ้าคุณทหาร	13.754419	100.746239	bma	working	2022-10-09T00:00:00	5:00:00	6:00:00	48	19	269	2700	0.10
3278	TF1-LK-02 ถ.ร่มเกล้า - ถ.เจ้าคุณทหาร	13.754419	100.746239	bma	holiday	2022-10-09T00:00:00	6:00:00	7:00:00	34	54	844	2700	0.31
3279	TF1-LK-02 ถ.ร่มเกล้า - ถ.เจ้าคุณทหาร	13.754419	100.746239	bma	holiday	2022-10-09T00:00:00	7:00:00	8:00:00	34	54	871	2700	0.32
3280	TF1-LK-02 ถ.ร่มเกล้า - ถ.เจ้าคุณทหาร	13.754419	100.746239	bma	holiday	2022-10-09T00:00:00	8:00:00	9:00:00	18	33	475	2700	0.18
3281	TF1-LK-02 ถ.ร่มเกล้า - ถ.เจ้าคุณทหาร	13.754419	100.746239	bma	working	2022-10-09T00:00:00	9:00:00	10:00:00	14	28	355	2700	0.13
3282	TF1-LK-02 ถ.ร่มเกล้า - ถ.เจ้าคุณทหาร	13.754419	100.746239	bma	working	2022-10-09T00:00:00	10:00:00	11:00:00	13	29	439	2700	0.16
3283	TF1-LK-02 ถ.ร่มเกล้า - ถ.เจ้าคุณทหาร	13.754419	100.746239	bma	holiday	2022-10-09T00:00:00	11:00:00	12:00:00	0	32	1428	2700	0.53
3284	TF1-LK-02 ถ.ร่มเกล้า - ถ.เจ้าคุณทหาร	13.754419	100.746239	bma	working	2022-10-09T00:00:00	12:00:00	13:00:00	14	29	460	2700	0.17
3285	TF1-LK-02 ถ.ร่มเกล้า - ถ.เจ้าคุณทหาร	13.754419	100.746239	bma	working	2022-10-09T00:00:00	13:00:00	14:00:00	14	27	464	2700	0.17
3286	TF1-LK-02 ถ.ร่มเกล้า - ถ.เจ้าคุณทหาร	13.754419	100.746239	bma	working	2022-10-09T00:00:00	14:00:00	15:00:00	13	31	432	2700	0.16
3287	TF1-LK-02 ถ.ร่มเกล้า - ถ.เจ้าคุณทหาร	13.754419	100.746239	bma	working	2022-10-09T00:00:00	15:00:00	16:00:00	12	34	424	2700	0.16
3288	TF1-LK-02 ถ.ร่มเกล้า - ถ.เจ้าคุณทหาร	13.754419	100.746239	bma	holiday	2022-10-09T00:00:00	16:00:00	17:00:00	31	34	1160	2700	0.43
3289	TF1-LK-02 ถ.ร่มเกล้า - ถ.เจ้าคุณทหาร	13.754419	100.746239	bma	holiday	2022-10-09T00:00:00	17:00:00	18:00:00	7	48	1212	2700	0.45
3290	TF1-LK-02 ถ.ร่มเกล้า - ถ.เจ้าคุณทหาร	13.754419	100.746239	bma	holiday	2022-10-09T00:00:00	18:00:00	19:00:00	13	17	518	2700	0.19
3291	TF1-LK-02 ถ.ร่มเกล้า - ถ.เจ้าคุณทหาร	13.754419	100.746239	bma	working	2022-11-09T00:00:00	5:00:00	6:00:00	31	11	178	2700	0.07
3292	TF1-LK-02 ถ.ร่มเกล้า - ถ.เจ้าคุณทหาร	13.754419	100.746239	bma	holiday	2022-11-09T00:00:00	6:00:00	7:00:00	22	34	517	2700	0.19
3293	TF1-LK-02 ถ.ร่มเกล้า - ถ.เจ้าคุณทหาร	13.754419	100.746239	bma	holiday	2022-11-09T00:00:00	7:00:00	8:00:00	22	34	548	2700	0.20
3294	TF1-LK-02 ถ.ร่มเกล้า - ถ.เจ้าคุณทหาร	13.754419	100.746239	bma	holiday	2022-11-09T00:00:00	8:00:00	9:00:00	11	21	304	2700	0.11
3295	TF1-LK-02 ถ.ร่มเกล้า - ถ.เจ้าคุณทหาร	13.754419	100.746239	bma	working	2022-11-09T00:00:00	9:00:00	10:00:00	8	17	266	2700	0.10
3296	TF1-LK-02 ถ.ร่มเกล้า - ถ.เจ้าคุณทหาร	13.754419	100.746239	bma	working	2022-11-09T00:00:00	10:00:00	11:00:00	8	17	259	2700	0.10
3297	TF1-LK-02 ถ.ร่มเกล้า - ถ.เจ้าคุณทหาร	13.754419	100.746239	bma	holiday	2022-11-09T00:00:00	11:00:00	12:00:00	0	19	880	2700	0.33
3298	TF1-LK-02 ถ.ร่มเกล้า - ถ.เจ้าคุณทหาร	13.754419	100.746239	bma	working	2022-11-09T00:00:00	12:00:00	13:00:00	9	18	267	2700	0.10
3299	TF1-LK-02 ถ.ร่มเกล้า - ถ.เจ้าคุณทหาร	13.754419	100.746239	bma	working	2022-11-09T00:00:00	13:00:00	14:00:00	9	17	265	2700	0.10
3300	TF1-LK-02 ถ.ร่มเกล้า - ถ.เจ้าคุณทหาร	13.754419	100.746239	bma	working	2022-11-09T00:00:00	14:00:00	15:00:00	8	17	262	2700	0.10
3301	TF1-LK-02 ถ.ร่มเกล้า - ถ.เจ้าคุณทหาร	13.754419	100.746239	bma	working	2022-11-09T00:00:00	15:00:00	16:00:00	8	21	277	2700	0.10
3302	TF1-LK-02 ถ.ร่มเกล้า - ถ.เจ้าคุณทหาร	13.754419	100.746239	bma	holiday	2022-11-09T00:00:00	16:00:00	17:00:00	18	20	709	2700	0.26
3303	TF1-LK-02 ถ.ร่มเกล้า - ถ.เจ้าคุณทหาร	13.754419	100.746239	bma	holiday	2022-11-09T00:00:00	17:00:00	18:00:00	4	28	745	2700	0.28
3304	TF1-LK-02 ถ.ร่มเกล้า - ถ.เจ้าคุณทหาร	13.754419	100.746239	bma	holiday	2022-11-09T00:00:00	18:00:00	19:00:00	8	10	347	2700	0.13
3305	TF1-LS-01 ถ.แจ้งวัฒนะ-ถ.กำแพงเพชร 6	13.891961	100.564306	bma	working	2022-05-09T00:00:00	5:00:00	6:00:00	30	12	179	900	0.20
3306	TF1-LS-01 ถ.แจ้งวัฒนะ-ถ.กำแพงเพชร 6	13.891961	100.564306	bma	working	2022-05-09T00:00:00	6:00:00	7:00:00	22	37	493	900	0.55
3307	TF1-LS-01 ถ.แจ้งวัฒนะ-ถ.กำแพงเพชร 6	13.891961	100.564306	bma	working	2022-05-09T00:00:00	7:00:00	8:00:00	22	37	282	900	0.31
3308	TF1-LS-01 ถ.แจ้งวัฒนะ-ถ.กำแพงเพชร 6	13.891961	100.564306	bma	working	2022-05-09T00:00:00	8:00:00	9:00:00	8	81	815	900	0.91
3309	TF1-LS-01 ถ.แจ้งวัฒนะ-ถ.กำแพงเพชร 6	13.891961	100.564306	bma	working	2022-05-09T00:00:00	9:00:00	10:00:00	6	73	694	900	0.77
3310	TF1-LS-01 ถ.แจ้งวัฒนะ-ถ.กำแพงเพชร 6	13.891961	100.564306	bma	working	2022-05-09T00:00:00	10:00:00	11:00:00	2	75	712	900	0.79
3311	TF1-LS-01 ถ.แจ้งวัฒนะ-ถ.กำแพงเพชร 6	13.891961	100.564306	bma	working	2022-05-09T00:00:00	11:00:00	12:00:00	16	111	797	900	0.89
3312	TF1-LS-01 ถ.แจ้งวัฒนะ-ถ.กำแพงเพชร 6	13.891961	100.564306	bma	working	2022-05-09T00:00:00	12:00:00	13:00:00	4	72	667	900	0.74
3313	TF1-LS-01 ถ.แจ้งวัฒนะ-ถ.กำแพงเพชร 6	13.891961	100.564306	bma	working	2022-05-09T00:00:00	13:00:00	14:00:00	6	74	639	900	0.71
3314	TF1-LS-01 ถ.แจ้งวัฒนะ-ถ.กำแพงเพชร 6	13.891961	100.564306	bma	working	2022-05-09T00:00:00	14:00:00	15:00:00	5	75	742	900	0.82
3315	TF1-LS-01 ถ.แจ้งวัฒนะ-ถ.กำแพงเพชร 6	13.891961	100.564306	bma	working	2022-05-09T00:00:00	15:00:00	16:00:00	6	71	709	900	0.79
3316	TF1-LS-01 ถ.แจ้งวัฒนะ-ถ.กำแพงเพชร 6	13.891961	100.564306	bma	working	2022-05-09T00:00:00	16:00:00	17:00:00	31	109	304	900	0.34
3317	TF1-LS-01 ถ.แจ้งวัฒนะ-ถ.กำแพงเพชร 6	13.891961	100.564306	bma	working	2022-05-09T00:00:00	17:00:00	18:00:00	22	89	798	900	0.89
3318	TF1-LS-01 ถ.แจ้งวัฒนะ-ถ.กำแพงเพชร 6	13.891961	100.564306	bma	working	2022-05-09T00:00:00	18:00:00	19:00:00	28	106	236	900	0.26
3319	TF1-LS-01 ถ.แจ้งวัฒนะ-ถ.กำแพงเพชร 6	13.891961	100.564306	bma	working	2022-06-09T00:00:00	5:00:00	6:00:00	31	14	188	900	0.21
3320	TF1-LS-01 ถ.แจ้งวัฒนะ-ถ.กำแพงเพชร 6	13.891961	100.564306	bma	working	2022-06-09T00:00:00	6:00:00	7:00:00	22	39	488	900	0.54
3321	TF1-LS-01 ถ.แจ้งวัฒนะ-ถ.กำแพงเพชร 6	13.891961	100.564306	bma	working	2022-06-09T00:00:00	7:00:00	8:00:00	23	37	236	900	0.26
3322	TF1-LS-01 ถ.แจ้งวัฒนะ-ถ.กำแพงเพชร 6	13.891961	100.564306	bma	working	2022-06-09T00:00:00	8:00:00	9:00:00	7	78	784	900	0.87
3323	TF1-LS-01 ถ.แจ้งวัฒนะ-ถ.กำแพงเพชร 6	13.891961	100.564306	bma	working	2022-06-09T00:00:00	9:00:00	10:00:00	6	75	704	900	0.78
3324	TF1-LS-01 ถ.แจ้งวัฒนะ-ถ.กำแพงเพชร 6	13.891961	100.564306	bma	working	2022-06-09T00:00:00	10:00:00	11:00:00	2	72	643	900	0.71
3325	TF1-LS-01 ถ.แจ้งวัฒนะ-ถ.กำแพงเพชร 6	13.891961	100.564306	bma	working	2022-06-09T00:00:00	11:00:00	12:00:00	26	100	514	900	0.57
3326	TF1-LS-01 ถ.แจ้งวัฒนะ-ถ.กำแพงเพชร 6	13.891961	100.564306	bma	working	2022-06-09T00:00:00	12:00:00	13:00:00	3	79	673	900	0.75
3327	TF1-LS-01 ถ.แจ้งวัฒนะ-ถ.กำแพงเพชร 6	13.891961	100.564306	bma	working	2022-06-09T00:00:00	13:00:00	14:00:00	5	77	692	900	0.77
3328	TF1-LS-01 ถ.แจ้งวัฒนะ-ถ.กำแพงเพชร 6	13.891961	100.564306	bma	working	2022-06-09T00:00:00	14:00:00	15:00:00	4	73	674	900	0.75
3329	TF1-LS-01 ถ.แจ้งวัฒนะ-ถ.กำแพงเพชร 6	13.891961	100.564306	bma	working	2022-06-09T00:00:00	15:00:00	16:00:00	6	72	674	900	0.75
3330	TF1-LS-01 ถ.แจ้งวัฒนะ-ถ.กำแพงเพชร 6	13.891961	100.564306	bma	working	2022-06-09T00:00:00	16:00:00	17:00:00	32	72	237	900	0.26
3331	TF1-LS-01 ถ.แจ้งวัฒนะ-ถ.กำแพงเพชร 6	13.891961	100.564306	bma	working	2022-06-09T00:00:00	17:00:00	18:00:00	23	58	474	900	0.53
3332	TF1-LS-01 ถ.แจ้งวัฒนะ-ถ.กำแพงเพชร 6	13.891961	100.564306	bma	working	2022-06-09T00:00:00	18:00:00	19:00:00	37	65	228	900	0.25
3333	TF1-LS-01 ถ.แจ้งวัฒนะ-ถ.กำแพงเพชร 6	13.891961	100.564306	bma	working	2022-07-09T00:00:00	5:00:00	6:00:00	33	14	168	900	0.19
3334	TF1-LS-01 ถ.แจ้งวัฒนะ-ถ.กำแพงเพชร 6	13.891961	100.564306	bma	working	2022-07-09T00:00:00	6:00:00	7:00:00	24	41	466	900	0.52
3335	TF1-LS-01 ถ.แจ้งวัฒนะ-ถ.กำแพงเพชร 6	13.891961	100.564306	bma	working	2022-07-09T00:00:00	7:00:00	8:00:00	23	36	238	900	0.26
3336	TF1-LS-01 ถ.แจ้งวัฒนะ-ถ.กำแพงเพชร 6	13.891961	100.564306	bma	working	2022-07-09T00:00:00	8:00:00	9:00:00	7	77	841	900	0.93
3337	TF1-LS-01 ถ.แจ้งวัฒนะ-ถ.กำแพงเพชร 6	13.891961	100.564306	bma	working	2022-07-09T00:00:00	9:00:00	10:00:00	6	75	821	900	0.91
3338	TF1-LS-01 ถ.แจ้งวัฒนะ-ถ.กำแพงเพชร 6	13.891961	100.564306	bma	working	2022-07-09T00:00:00	10:00:00	11:00:00	3	71	697	900	0.77
3339	TF1-LS-01 ถ.แจ้งวัฒนะ-ถ.กำแพงเพชร 6	13.891961	100.564306	bma	working	2022-07-09T00:00:00	11:00:00	12:00:00	34	101	147	900	0.16
3340	TF1-LS-01 ถ.แจ้งวัฒนะ-ถ.กำแพงเพชร 6	13.891961	100.564306	bma	working	2022-07-09T00:00:00	12:00:00	13:00:00	2	77	639	900	0.71
3341	TF1-LS-01 ถ.แจ้งวัฒนะ-ถ.กำแพงเพชร 6	13.891961	100.564306	bma	working	2022-07-09T00:00:00	13:00:00	14:00:00	4	74	733	900	0.81
3342	TF1-LS-01 ถ.แจ้งวัฒนะ-ถ.กำแพงเพชร 6	13.891961	100.564306	bma	working	2022-07-09T00:00:00	14:00:00	15:00:00	3	77	635	900	0.71
3343	TF1-LS-01 ถ.แจ้งวัฒนะ-ถ.กำแพงเพชร 6	13.891961	100.564306	bma	working	2022-07-09T00:00:00	15:00:00	16:00:00	5	76	662	900	0.74
3344	TF1-LS-01 ถ.แจ้งวัฒนะ-ถ.กำแพงเพชร 6	13.891961	100.564306	bma	working	2022-07-09T00:00:00	16:00:00	17:00:00	32	28	184	900	0.20
3345	TF1-LS-01 ถ.แจ้งวัฒนะ-ถ.กำแพงเพชร 6	13.891961	100.564306	bma	working	2022-07-09T00:00:00	17:00:00	18:00:00	29	27	84	900	0.09
3346	TF1-LS-01 ถ.แจ้งวัฒนะ-ถ.กำแพงเพชร 6	13.891961	100.564306	bma	working	2022-07-09T00:00:00	18:00:00	19:00:00	46	26	148	900	0.16
3347	TF1-LS-01 ถ.แจ้งวัฒนะ-ถ.กำแพงเพชร 6	13.891961	100.564306	bma	working	2022-08-09T00:00:00	5:00:00	6:00:00	38	10	133	900	0.15
3348	TF1-LS-01 ถ.แจ้งวัฒนะ-ถ.กำแพงเพชร 6	13.891961	100.564306	bma	working	2022-08-09T00:00:00	6:00:00	7:00:00	27	32	354	900	0.39
3349	TF1-LS-01 ถ.แจ้งวัฒนะ-ถ.กำแพงเพชร 6	13.891961	100.564306	bma	working	2022-08-09T00:00:00	7:00:00	8:00:00	23	42	207	900	0.23
3350	TF1-LS-01 ถ.แจ้งวัฒนะ-ถ.กำแพงเพชร 6	13.891961	100.564306	bma	working	2022-08-09T00:00:00	8:00:00	9:00:00	26	71	595	900	0.66
3351	TF1-LS-01 ถ.แจ้งวัฒนะ-ถ.กำแพงเพชร 6	13.891961	100.564306	bma	working	2022-08-09T00:00:00	9:00:00	10:00:00	24	64	527	900	0.59
3352	TF1-LS-01 ถ.แจ้งวัฒนะ-ถ.กำแพงเพชร 6	13.891961	100.564306	bma	working	2022-08-09T00:00:00	10:00:00	11:00:00	21	65	445	900	0.49
3353	TF1-LS-01 ถ.แจ้งวัฒนะ-ถ.กำแพงเพชร 6	13.891961	100.564306	bma	working	2022-08-09T00:00:00	11:00:00	12:00:00	43	62	295	900	0.33
3354	TF1-LS-01 ถ.แจ้งวัฒนะ-ถ.กำแพงเพชร 6	13.891961	100.564306	bma	working	2022-08-09T00:00:00	12:00:00	13:00:00	21	67	415	900	0.46
3355	TF1-LS-01 ถ.แจ้งวัฒนะ-ถ.กำแพงเพชร 6	13.891961	100.564306	bma	working	2022-08-09T00:00:00	13:00:00	14:00:00	24	69	514	900	0.57
3356	TF1-LS-01 ถ.แจ้งวัฒนะ-ถ.กำแพงเพชร 6	13.891961	100.564306	bma	working	2022-08-09T00:00:00	14:00:00	15:00:00	22	65	459	900	0.51
3357	TF1-LS-01 ถ.แจ้งวัฒนะ-ถ.กำแพงเพชร 6	13.891961	100.564306	bma	working	2022-08-09T00:00:00	15:00:00	16:00:00	24	70	462	900	0.51
3358	TF1-LS-01 ถ.แจ้งวัฒนะ-ถ.กำแพงเพชร 6	13.891961	100.564306	bma	working	2022-08-09T00:00:00	16:00:00	17:00:00	32	27	178	900	0.20
3359	TF1-LS-01 ถ.แจ้งวัฒนะ-ถ.กำแพงเพชร 6	13.891961	100.564306	bma	working	2022-08-09T00:00:00	17:00:00	18:00:00	27	28	101	900	0.11
3360	TF1-LS-01 ถ.แจ้งวัฒนะ-ถ.กำแพงเพชร 6	13.891961	100.564306	bma	working	2022-08-09T00:00:00	18:00:00	19:00:00	42	28	160	900	0.18
3361	TF1-LS-01 ถ.แจ้งวัฒนะ-ถ.กำแพงเพชร 6	13.891961	100.564306	bma	working	2022-09-09T00:00:00	5:00:00	6:00:00	41	10	55	900	0.06
3362	TF1-LS-01 ถ.แจ้งวัฒนะ-ถ.กำแพงเพชร 6	13.891961	100.564306	bma	working	2022-09-09T00:00:00	6:00:00	7:00:00	29	28	157	900	0.17
3363	TF1-LS-01 ถ.แจ้งวัฒนะ-ถ.กำแพงเพชร 6	13.891961	100.564306	bma	working	2022-09-09T00:00:00	7:00:00	8:00:00	25	53	181	900	0.20
3364	TF1-LS-01 ถ.แจ้งวัฒนะ-ถ.กำแพงเพชร 6	13.891961	100.564306	bma	working	2022-09-09T00:00:00	8:00:00	9:00:00	47	65	225	900	0.25
3365	TF1-LS-01 ถ.แจ้งวัฒนะ-ถ.กำแพงเพชร 6	13.891961	100.564306	bma	working	2022-09-09T00:00:00	9:00:00	10:00:00	44	56	173	900	0.19
3366	TF1-LS-01 ถ.แจ้งวัฒนะ-ถ.กำแพงเพชร 6	13.891961	100.564306	bma	working	2022-09-09T00:00:00	10:00:00	11:00:00	44	58	109	900	0.12
3367	TF1-LS-01 ถ.แจ้งวัฒนะ-ถ.กำแพงเพชร 6	13.891961	100.564306	bma	working	2022-09-09T00:00:00	11:00:00	12:00:00	49	27	249	900	0.28
3368	TF1-LS-01 ถ.แจ้งวัฒนะ-ถ.กำแพงเพชร 6	13.891961	100.564306	bma	working	2022-09-09T00:00:00	12:00:00	13:00:00	42	60	100	900	0.11
3369	TF1-LS-01 ถ.แจ้งวัฒนะ-ถ.กำแพงเพชร 6	13.891961	100.564306	bma	working	2022-09-09T00:00:00	13:00:00	14:00:00	45	60	201	900	0.22
3370	TF1-LS-01 ถ.แจ้งวัฒนะ-ถ.กำแพงเพชร 6	13.891961	100.564306	bma	working	2022-09-09T00:00:00	14:00:00	15:00:00	42	58	196	900	0.22
3371	TF1-LS-01 ถ.แจ้งวัฒนะ-ถ.กำแพงเพชร 6	13.891961	100.564306	bma	working	2022-09-09T00:00:00	15:00:00	16:00:00	43	58	93	900	0.10
3372	TF1-LS-01 ถ.แจ้งวัฒนะ-ถ.กำแพงเพชร 6	13.891961	100.564306	bma	working	2022-09-09T00:00:00	16:00:00	17:00:00	30	26	159	900	0.18
3373	TF1-LS-01 ถ.แจ้งวัฒนะ-ถ.กำแพงเพชร 6	13.891961	100.564306	bma	working	2022-09-09T00:00:00	17:00:00	18:00:00	28	27	80	900	0.09
3374	TF1-LS-01 ถ.แจ้งวัฒนะ-ถ.กำแพงเพชร 6	13.891961	100.564306	bma	working	2022-09-09T00:00:00	18:00:00	19:00:00	43	27	236	900	0.26
3375	TF1-LS-01 ถ.แจ้งวัฒนะ-ถ.กำแพงเพชร 6	13.891961	100.564306	bma	working	2022-10-09T00:00:00	5:00:00	6:00:00	60	13	79	900	0.09
3376	TF1-LS-01 ถ.แจ้งวัฒนะ-ถ.กำแพงเพชร 6	13.891961	100.564306	bma	holiday	2022-10-09T00:00:00	6:00:00	7:00:00	43	39	218	900	0.24
3377	TF1-LS-01 ถ.แจ้งวัฒนะ-ถ.กำแพงเพชร 6	13.891961	100.564306	bma	holiday	2022-10-09T00:00:00	7:00:00	8:00:00	43	39	233	900	0.26
3378	TF1-LS-01 ถ.แจ้งวัฒนะ-ถ.กำแพงเพชร 6	13.891961	100.564306	bma	holiday	2022-10-09T00:00:00	8:00:00	9:00:00	34	30	235	900	0.26
3379	TF1-LS-01 ถ.แจ้งวัฒนะ-ถ.กำแพงเพชร 6	13.891961	100.564306	bma	working	2022-10-09T00:00:00	9:00:00	10:00:00	31	27	192	900	0.21
3380	TF1-LS-01 ถ.แจ้งวัฒนะ-ถ.กำแพงเพชร 6	13.891961	100.564306	bma	working	2022-10-09T00:00:00	10:00:00	11:00:00	31	24	90	900	0.10
3381	TF1-LS-01 ถ.แจ้งวัฒนะ-ถ.กำแพงเพชร 6	13.891961	100.564306	bma	holiday	2022-10-09T00:00:00	11:00:00	12:00:00	32	26	100	900	0.11
3382	TF1-LS-01 ถ.แจ้งวัฒนะ-ถ.กำแพงเพชร 6	13.891961	100.564306	bma	working	2022-10-09T00:00:00	12:00:00	13:00:00	35	29	166	900	0.18
3383	TF1-LS-01 ถ.แจ้งวัฒนะ-ถ.กำแพงเพชร 6	13.891961	100.564306	bma	holiday	2022-10-09T00:00:00	13:00:00	14:00:00	28	27	193	900	0.21
3384	TF1-LS-01 ถ.แจ้งวัฒนะ-ถ.กำแพงเพชร 6	13.891961	100.564306	bma	holiday	2022-10-09T00:00:00	14:00:00	15:00:00	57	31	179	900	0.20
3385	TF1-LS-01 ถ.แจ้งวัฒนะ-ถ.กำแพงเพชร 6	13.891961	100.564306	bma	working	2022-10-09T00:00:00	15:00:00	16:00:00	31	26	158	900	0.18
3386	TF1-LS-01 ถ.แจ้งวัฒนะ-ถ.กำแพงเพชร 6	13.891961	100.564306	bma	holiday	2022-10-09T00:00:00	16:00:00	17:00:00	41	29	105	900	0.12
3387	TF1-LS-01 ถ.แจ้งวัฒนะ-ถ.กำแพงเพชร 6	13.891961	100.564306	bma	holiday	2022-10-09T00:00:00	17:00:00	18:00:00	56	32	86	900	0.10
3388	TF1-LS-01 ถ.แจ้งวัฒนะ-ถ.กำแพงเพชร 6	13.891961	100.564306	bma	holiday	2022-10-09T00:00:00	18:00:00	19:00:00	43	27	236	900	0.26
3389	TF1-LS-01 ถ.แจ้งวัฒนะ-ถ.กำแพงเพชร 6	13.891961	100.564306	bma	working	2022-11-09T00:00:00	5:00:00	6:00:00	35	8	54	900	0.06
3390	TF1-LS-01 ถ.แจ้งวัฒนะ-ถ.กำแพงเพชร 6	13.891961	100.564306	bma	holiday	2022-11-09T00:00:00	6:00:00	7:00:00	25	23	170	900	0.19
3391	TF1-LS-01 ถ.แจ้งวัฒนะ-ถ.กำแพงเพชร 6	13.891961	100.564306	bma	holiday	2022-11-09T00:00:00	7:00:00	8:00:00	25	23	171	900	0.19
3392	TF1-LS-01 ถ.แจ้งวัฒนะ-ถ.กำแพงเพชร 6	13.891961	100.564306	bma	holiday	2022-11-09T00:00:00	8:00:00	9:00:00	21	18	152	900	0.17
3393	TF1-LS-01 ถ.แจ้งวัฒนะ-ถ.กำแพงเพชร 6	13.891961	100.564306	bma	working	2022-11-09T00:00:00	9:00:00	10:00:00	18	17	101	900	0.11
3394	TF1-LS-01 ถ.แจ้งวัฒนะ-ถ.กำแพงเพชร 6	13.891961	100.564306	bma	working	2022-11-09T00:00:00	10:00:00	11:00:00	19	15	42	900	0.05
3395	TF1-LS-01 ถ.แจ้งวัฒนะ-ถ.กำแพงเพชร 6	13.891961	100.564306	bma	holiday	2022-11-09T00:00:00	11:00:00	12:00:00	19	16	76	900	0.08
3396	TF1-LS-01 ถ.แจ้งวัฒนะ-ถ.กำแพงเพชร 6	13.891961	100.564306	bma	working	2022-11-09T00:00:00	12:00:00	13:00:00	20	18	96	900	0.11
3397	TF1-LS-01 ถ.แจ้งวัฒนะ-ถ.กำแพงเพชร 6	13.891961	100.564306	bma	working	2022-11-09T00:00:00	13:00:00	14:00:00	22	15	70	900	0.08
3398	TF1-LS-01 ถ.แจ้งวัฒนะ-ถ.กำแพงเพชร 6	13.891961	100.564306	bma	working	2022-11-09T00:00:00	14:00:00	15:00:00	20	17	88	900	0.10
3399	TF1-LS-01 ถ.แจ้งวัฒนะ-ถ.กำแพงเพชร 6	13.891961	100.564306	bma	working	2022-11-09T00:00:00	15:00:00	16:00:00	19	15	77	900	0.09
3400	TF1-LS-01 ถ.แจ้งวัฒนะ-ถ.กำแพงเพชร 6	13.891961	100.564306	bma	holiday	2022-11-09T00:00:00	16:00:00	17:00:00	24	17	61	900	0.07
3401	TF1-LS-01 ถ.แจ้งวัฒนะ-ถ.กำแพงเพชร 6	13.891961	100.564306	bma	holiday	2022-11-09T00:00:00	17:00:00	18:00:00	35	18	84	900	0.09
3402	TF1-LS-01 ถ.แจ้งวัฒนะ-ถ.กำแพงเพชร 6	13.891961	100.564306	bma	holiday	2022-10-09T00:00:00	18:00:00	19:00:00	43	27	236	900	0.26
3403	TF1-PC-01 ถ.เพชรเกษม-ถ.ราชพฤกษ์	13.712537	100.428889	bma	working	2022-05-09T00:00:00	5:00:00	6:00:00	54	68	3392	2700	1.26
3404	TF1-PC-01 ถ.เพชรเกษม-ถ.ราชพฤกษ์	13.712537	100.428889	bma	working	2022-05-09T00:00:00	6:00:00	7:00:00	39	202	10107	2700	3.74
3405	TF1-PC-01 ถ.เพชรเกษม-ถ.ราชพฤกษ์	13.712537	100.428889	bma	working	2022-05-09T00:00:00	7:00:00	8:00:00	31	202	7037	2700	2.61
3406	TF1-PC-01 ถ.เพชรเกษม-ถ.ราชพฤกษ์	13.712537	100.428889	bma	working	2022-05-09T00:00:00	8:00:00	9:00:00	32	202	8077	2700	2.99
3407	TF1-PC-01 ถ.เพชรเกษม-ถ.ราชพฤกษ์	13.712537	100.428889	bma	working	2022-05-09T00:00:00	9:00:00	10:00:00	27	202	8275	2700	3.06
3408	TF1-PC-01 ถ.เพชรเกษม-ถ.ราชพฤกษ์	13.712537	100.428889	bma	working	2022-05-09T00:00:00	10:00:00	11:00:00	28	202	8404	2700	3.11
3409	TF1-PC-01 ถ.เพชรเกษม-ถ.ราชพฤกษ์	13.712537	100.428889	bma	working	2022-05-09T00:00:00	11:00:00	12:00:00	34	201	5232	2700	1.94
3410	TF1-PC-01 ถ.เพชรเกษม-ถ.ราชพฤกษ์	13.712537	100.428889	bma	working	2022-05-09T00:00:00	12:00:00	13:00:00	30	201	7823	2700	2.90
3411	TF1-PC-01 ถ.เพชรเกษม-ถ.ราชพฤกษ์	13.712537	100.428889	bma	working	2022-05-09T00:00:00	13:00:00	14:00:00	26	202	8171	2700	3.03
3412	TF1-PC-01 ถ.เพชรเกษม-ถ.ราชพฤกษ์	13.712537	100.428889	bma	working	2022-05-09T00:00:00	14:00:00	15:00:00	27	202	7734	2700	2.86
3413	TF1-PC-01 ถ.เพชรเกษม-ถ.ราชพฤกษ์	13.712537	100.428889	bma	working	2022-05-09T00:00:00	15:00:00	16:00:00	26	202	7741	2700	2.87
3414	TF1-PC-01 ถ.เพชรเกษม-ถ.ราชพฤกษ์	13.712537	100.428889	bma	working	2022-05-09T00:00:00	16:00:00	17:00:00	23	201	4884	2700	1.81
3415	TF1-PC-01 ถ.เพชรเกษม-ถ.ราชพฤกษ์	13.712537	100.428889	bma	working	2022-05-09T00:00:00	17:00:00	18:00:00	30	202	7589	2700	2.81
3416	TF1-PC-01 ถ.เพชรเกษม-ถ.ราชพฤกษ์	13.712537	100.428889	bma	working	2022-05-09T00:00:00	18:00:00	19:00:00	30	202	7559	2700	2.80
3417	TF1-PC-01 ถ.เพชรเกษม-ถ.ราชพฤกษ์	13.712537	100.428889	bma	working	2022-06-09T00:00:00	5:00:00	6:00:00	55	65	3097	2700	1.15
3418	TF1-PC-01 ถ.เพชรเกษม-ถ.ราชพฤกษ์	13.712537	100.428889	bma	working	2022-06-09T00:00:00	6:00:00	7:00:00	39	202	9660	2700	3.58
3419	TF1-PC-01 ถ.เพชรเกษม-ถ.ราชพฤกษ์	13.712537	100.428889	bma	working	2022-06-09T00:00:00	7:00:00	8:00:00	32	202	8075	2700	2.99
3420	TF1-PC-01 ถ.เพชรเกษม-ถ.ราชพฤกษ์	13.712537	100.428889	bma	working	2022-06-09T00:00:00	8:00:00	9:00:00	28	201	7649	2700	2.83
3421	TF1-PC-01 ถ.เพชรเกษม-ถ.ราชพฤกษ์	13.712537	100.428889	bma	working	2022-06-09T00:00:00	9:00:00	10:00:00	25	202	7734	2700	2.86
3422	TF1-PC-01 ถ.เพชรเกษม-ถ.ราชพฤกษ์	13.712537	100.428889	bma	working	2022-06-09T00:00:00	10:00:00	11:00:00	27	202	7540	2700	2.79
3423	TF1-PC-01 ถ.เพชรเกษม-ถ.ราชพฤกษ์	13.712537	100.428889	bma	working	2022-06-09T00:00:00	11:00:00	12:00:00	31	201	6185	2700	2.29
3424	TF1-PC-01 ถ.เพชรเกษม-ถ.ราชพฤกษ์	13.712537	100.428889	bma	working	2022-06-09T00:00:00	12:00:00	13:00:00	25	201	7612	2700	2.82
3425	TF1-PC-01 ถ.เพชรเกษม-ถ.ราชพฤกษ์	13.712537	100.428889	bma	working	2022-06-09T00:00:00	13:00:00	14:00:00	25	202	7354	2700	2.72
3426	TF1-PC-01 ถ.เพชรเกษม-ถ.ราชพฤกษ์	13.712537	100.428889	bma	working	2022-06-09T00:00:00	14:00:00	15:00:00	25	201	7745	2700	2.87
3427	TF1-PC-01 ถ.เพชรเกษม-ถ.ราชพฤกษ์	13.712537	100.428889	bma	working	2022-06-09T00:00:00	15:00:00	16:00:00	24	201	7618	2700	2.82
3428	TF1-PC-01 ถ.เพชรเกษม-ถ.ราชพฤกษ์	13.712537	100.428889	bma	working	2022-06-09T00:00:00	16:00:00	17:00:00	26	201	5189	2700	1.92
3429	TF1-PC-01 ถ.เพชรเกษม-ถ.ราชพฤกษ์	13.712537	100.428889	bma	working	2022-06-09T00:00:00	17:00:00	18:00:00	30	201	6983	2700	2.59
3430	TF1-PC-01 ถ.เพชรเกษม-ถ.ราชพฤกษ์	13.712537	100.428889	bma	working	2022-06-09T00:00:00	18:00:00	19:00:00	27	201	7292	2700	2.70
3431	TF1-PC-01 ถ.เพชรเกษม-ถ.ราชพฤกษ์	13.712537	100.428889	bma	working	2022-07-09T00:00:00	5:00:00	6:00:00	51	62	3520	2700	1.30
3432	TF1-PC-01 ถ.เพชรเกษม-ถ.ราชพฤกษ์	13.712537	100.428889	bma	working	2022-07-09T00:00:00	6:00:00	7:00:00	37	202	9801	2700	3.63
3433	TF1-PC-01 ถ.เพชรเกษม-ถ.ราชพฤกษ์	13.712537	100.428889	bma	working	2022-07-09T00:00:00	7:00:00	8:00:00	31	201	8517	2700	3.15
3434	TF1-PC-01 ถ.เพชรเกษม-ถ.ราชพฤกษ์	13.712537	100.428889	bma	working	2022-07-09T00:00:00	8:00:00	9:00:00	27	202	7469	2700	2.77
3435	TF1-PC-01 ถ.เพชรเกษม-ถ.ราชพฤกษ์	13.712537	100.428889	bma	working	2022-07-09T00:00:00	9:00:00	10:00:00	21	201	7175	2700	2.66
3436	TF1-PC-01 ถ.เพชรเกษม-ถ.ราชพฤกษ์	13.712537	100.428889	bma	working	2022-07-09T00:00:00	10:00:00	11:00:00	25	202	7166	2700	2.65
3437	TF1-PC-01 ถ.เพชรเกษม-ถ.ราชพฤกษ์	13.712537	100.428889	bma	working	2022-07-09T00:00:00	11:00:00	12:00:00	30	201	7257	2700	2.69
3438	TF1-PC-01 ถ.เพชรเกษม-ถ.ราชพฤกษ์	13.712537	100.428889	bma	working	2022-07-09T00:00:00	12:00:00	13:00:00	20	201	7040	2700	2.61
3439	TF1-PC-01 ถ.เพชรเกษม-ถ.ราชพฤกษ์	13.712537	100.428889	bma	working	2022-07-09T00:00:00	13:00:00	14:00:00	25	202	7170	2700	2.66
3440	TF1-PC-01 ถ.เพชรเกษม-ถ.ราชพฤกษ์	13.712537	100.428889	bma	working	2022-07-09T00:00:00	14:00:00	15:00:00	21	201	6958	2700	2.58
3441	TF1-PC-01 ถ.เพชรเกษม-ถ.ราชพฤกษ์	13.712537	100.428889	bma	working	2022-07-09T00:00:00	15:00:00	16:00:00	23	201	6993	2700	2.59
3442	TF1-PC-01 ถ.เพชรเกษม-ถ.ราชพฤกษ์	13.712537	100.428889	bma	working	2022-07-09T00:00:00	16:00:00	17:00:00	32	201	5782	2700	2.14
3443	TF1-PC-01 ถ.เพชรเกษม-ถ.ราชพฤกษ์	13.712537	100.428889	bma	working	2022-07-09T00:00:00	17:00:00	18:00:00	28	201	6650	2700	2.46
3444	TF1-PC-01 ถ.เพชรเกษม-ถ.ราชพฤกษ์	13.712537	100.428889	bma	working	2022-07-09T00:00:00	18:00:00	19:00:00	25	201	7435	2700	2.75
3445	TF1-PC-01 ถ.เพชรเกษม-ถ.ราชพฤกษ์	13.712537	100.428889	bma	working	2022-08-09T00:00:00	5:00:00	6:00:00	52	67	3099	2700	1.15
3446	TF1-PC-01 ถ.เพชรเกษม-ถ.ราชพฤกษ์	13.712537	100.428889	bma	working	2022-08-09T00:00:00	6:00:00	7:00:00	37	201	9082	2700	3.36
3447	TF1-PC-01 ถ.เพชรเกษม-ถ.ราชพฤกษ์	13.712537	100.428889	bma	working	2022-08-09T00:00:00	7:00:00	8:00:00	35	201	8015	2700	2.97
3448	TF1-PC-01 ถ.เพชรเกษม-ถ.ราชพฤกษ์	13.712537	100.428889	bma	working	2022-08-09T00:00:00	8:00:00	9:00:00	30	201	6958	2700	2.58
3449	TF1-PC-01 ถ.เพชรเกษม-ถ.ราชพฤกษ์	13.712537	100.428889	bma	working	2022-08-09T00:00:00	9:00:00	10:00:00	26	201	6749	2700	2.50
3450	TF1-PC-01 ถ.เพชรเกษม-ถ.ราชพฤกษ์	13.712537	100.428889	bma	working	2022-08-09T00:00:00	10:00:00	11:00:00	28	201	6584	2700	2.44
3451	TF1-PC-01 ถ.เพชรเกษม-ถ.ราชพฤกษ์	13.712537	100.428889	bma	working	2022-08-09T00:00:00	11:00:00	12:00:00	33	202	7278	2700	2.70
3452	TF1-PC-01 ถ.เพชรเกษม-ถ.ราชพฤกษ์	13.712537	100.428889	bma	working	2022-08-09T00:00:00	12:00:00	13:00:00	26	201	6851	2700	2.54
3453	TF1-PC-01 ถ.เพชรเกษม-ถ.ราชพฤกษ์	13.712537	100.428889	bma	working	2022-08-09T00:00:00	13:00:00	14:00:00	28	201	6605	2700	2.45
3454	TF1-PC-01 ถ.เพชรเกษม-ถ.ราชพฤกษ์	13.712537	100.428889	bma	working	2022-08-09T00:00:00	14:00:00	15:00:00	29	201	6975	2700	2.58
3455	TF1-PC-01 ถ.เพชรเกษม-ถ.ราชพฤกษ์	13.712537	100.428889	bma	working	2022-08-09T00:00:00	15:00:00	16:00:00	27	202	6567	2700	2.43
3456	TF1-PC-01 ถ.เพชรเกษม-ถ.ราชพฤกษ์	13.712537	100.428889	bma	working	2022-08-09T00:00:00	16:00:00	17:00:00	26	201	5122	2700	1.90
3457	TF1-PC-01 ถ.เพชรเกษม-ถ.ราชพฤกษ์	13.712537	100.428889	bma	working	2022-08-09T00:00:00	17:00:00	18:00:00	31	201	6981	2700	2.59
3458	TF1-PC-01 ถ.เพชรเกษม-ถ.ราชพฤกษ์	13.712537	100.428889	bma	working	2022-08-09T00:00:00	18:00:00	19:00:00	22	202	6384	2700	2.36
3459	TF1-PC-01 ถ.เพชรเกษม-ถ.ราชพฤกษ์	13.712537	100.428889	bma	working	2022-09-09T00:00:00	5:00:00	6:00:00	47	69	2939	2700	1.09
3460	TF1-PC-01 ถ.เพชรเกษม-ถ.ราชพฤกษ์	13.712537	100.428889	bma	working	2022-09-09T00:00:00	6:00:00	7:00:00	33	202	8759	2700	3.24
3461	TF1-PC-01 ถ.เพชรเกษม-ถ.ราชพฤกษ์	13.712537	100.428889	bma	working	2022-09-09T00:00:00	7:00:00	8:00:00	37	202	7544	2700	2.79
3462	TF1-PC-01 ถ.เพชรเกษม-ถ.ราชพฤกษ์	13.712537	100.428889	bma	working	2022-09-09T00:00:00	8:00:00	9:00:00	37	201	7267	2700	2.69
3463	TF1-PC-01 ถ.เพชรเกษม-ถ.ราชพฤกษ์	13.712537	100.428889	bma	working	2022-09-09T00:00:00	9:00:00	10:00:00	33	202	6405	2700	2.37
3464	TF1-PC-01 ถ.เพชรเกษม-ถ.ราชพฤกษ์	13.712537	100.428889	bma	working	2022-09-09T00:00:00	10:00:00	11:00:00	29	202	6751	2700	2.50
3465	TF1-PC-01 ถ.เพชรเกษม-ถ.ราชพฤกษ์	13.712537	100.428889	bma	working	2022-09-09T00:00:00	11:00:00	12:00:00	32	201	7508	2700	2.78
3466	TF1-PC-01 ถ.เพชรเกษม-ถ.ราชพฤกษ์	13.712537	100.428889	bma	working	2022-09-09T00:00:00	12:00:00	13:00:00	33	202	6448	2700	2.39
3467	TF1-PC-01 ถ.เพชรเกษม-ถ.ราชพฤกษ์	13.712537	100.428889	bma	working	2022-09-09T00:00:00	13:00:00	14:00:00	31	202	6400	2700	2.37
3468	TF1-PC-01 ถ.เพชรเกษม-ถ.ราชพฤกษ์	13.712537	100.428889	bma	working	2022-09-09T00:00:00	14:00:00	15:00:00	34	201	6856	2700	2.54
3469	TF1-PC-01 ถ.เพชรเกษม-ถ.ราชพฤกษ์	13.712537	100.428889	bma	working	2022-09-09T00:00:00	15:00:00	16:00:00	34	202	6757	2700	2.50
3470	TF1-PC-01 ถ.เพชรเกษม-ถ.ราชพฤกษ์	13.712537	100.428889	bma	working	2022-09-09T00:00:00	16:00:00	17:00:00	25	202	4769	2700	1.77
3471	TF1-PC-01 ถ.เพชรเกษม-ถ.ราชพฤกษ์	13.712537	100.428889	bma	working	2022-09-09T00:00:00	17:00:00	18:00:00	33	202	7572	2700	2.80
3472	TF1-PC-01 ถ.เพชรเกษม-ถ.ราชพฤกษ์	13.712537	100.428889	bma	working	2022-09-09T00:00:00	18:00:00	19:00:00	18	202	5580	2700	2.07
3473	TF1-PC-01 ถ.เพชรเกษม-ถ.ราชพฤกษ์	13.712537	100.428889	bma	working	2022-10-09T00:00:00	5:00:00	6:00:00	49	62	1690	2700	0.63
3474	TF1-PC-01 ถ.เพชรเกษม-ถ.ราชพฤกษ์	13.712537	100.428889	bma	holiday	2022-10-09T00:00:00	6:00:00	7:00:00	35	202	5308	2700	1.97
3475	TF1-PC-01 ถ.เพชรเกษม-ถ.ราชพฤกษ์	13.712537	100.428889	bma	holiday	2022-10-09T00:00:00	7:00:00	8:00:00	35	202	5332	2700	1.97
3476	TF1-PC-01 ถ.เพชรเกษม-ถ.ราชพฤกษ์	13.712537	100.428889	bma	holiday	2022-10-09T00:00:00	8:00:00	9:00:00	36	202	8373	2700	3.10
3477	TF1-PC-01 ถ.เพชรเกษม-ถ.ราชพฤกษ์	13.712537	100.428889	bma	working	2022-10-09T00:00:00	9:00:00	10:00:00	33	201	8618	2700	3.19
3478	TF1-PC-01 ถ.เพชรเกษม-ถ.ราชพฤกษ์	13.712537	100.428889	bma	working	2022-10-09T00:00:00	10:00:00	11:00:00	33	202	8279	2700	3.07
3479	TF1-PC-01 ถ.เพชรเกษม-ถ.ราชพฤกษ์	13.712537	100.428889	bma	holiday	2022-10-09T00:00:00	11:00:00	12:00:00	34	201	8036	2700	2.98
3480	TF1-PC-01 ถ.เพชรเกษม-ถ.ราชพฤกษ์	13.712537	100.428889	bma	working	2022-10-09T00:00:00	12:00:00	13:00:00	37	201	8366	2700	3.10
3481	TF1-PC-01 ถ.เพชรเกษม-ถ.ราชพฤกษ์	13.712537	100.428889	bma	working	2022-10-09T00:00:00	13:00:00	14:00:00	36	202	8371	2700	3.10
3482	TF1-PC-01 ถ.เพชรเกษม-ถ.ราชพฤกษ์	13.712537	100.428889	bma	working	2022-10-09T00:00:00	14:00:00	15:00:00	32	201	8322	2700	3.08
3483	TF1-PC-01 ถ.เพชรเกษม-ถ.ราชพฤกษ์	13.712537	100.428889	bma	working	2022-10-09T00:00:00	15:00:00	16:00:00	31	201	8327	2700	3.08
3484	TF1-PC-01 ถ.เพชรเกษม-ถ.ราชพฤกษ์	13.712537	100.428889	bma	holiday	2022-10-09T00:00:00	16:00:00	17:00:00	33	201	8366	2700	3.10
3485	TF1-PC-01 ถ.เพชรเกษม-ถ.ราชพฤกษ์	13.712537	100.428889	bma	holiday	2022-10-09T00:00:00	17:00:00	18:00:00	28	201	8245	2700	3.05
3486	TF1-PC-01 ถ.เพชรเกษม-ถ.ราชพฤกษ์	13.712537	100.428889	bma	holiday	2022-10-09T00:00:00	18:00:00	19:00:00	18	202	5360	2700	1.99
3487	TF1-PC-01 ถ.เพชรเกษม-ถ.ราชพฤกษ์	13.712537	100.428889	bma	working	2022-11-09T00:00:00	5:00:00	6:00:00	29	40	1146	2700	0.42
3488	TF1-PC-01 ถ.เพชรเกษม-ถ.ราชพฤกษ์	13.712537	100.428889	bma	holiday	2022-11-09T00:00:00	6:00:00	7:00:00	21	133	3133	2700	1.16
3489	TF1-PC-01 ถ.เพชรเกษม-ถ.ราชพฤกษ์	13.712537	100.428889	bma	holiday	2022-11-09T00:00:00	7:00:00	8:00:00	21	133	3310	2700	1.23
3490	TF1-PC-01 ถ.เพชรเกษม-ถ.ราชพฤกษ์	13.712537	100.428889	bma	holiday	2022-11-09T00:00:00	8:00:00	9:00:00	22	202	5329	2700	1.97
3491	TF1-PC-01 ถ.เพชรเกษม-ถ.ราชพฤกษ์	13.712537	100.428889	bma	working	2022-11-09T00:00:00	9:00:00	10:00:00	19	201	5400	2700	2.00
3492	TF1-PC-01 ถ.เพชรเกษม-ถ.ราชพฤกษ์	13.712537	100.428889	bma	working	2022-11-09T00:00:00	10:00:00	11:00:00	20	202	5193	2700	1.92
3493	TF1-PC-01 ถ.เพชรเกษม-ถ.ราชพฤกษ์	13.712537	100.428889	bma	holiday	2022-11-09T00:00:00	11:00:00	12:00:00	20	202	4847	2700	1.80
3494	TF1-PC-01 ถ.เพชรเกษม-ถ.ราชพฤกษ์	13.712537	100.428889	bma	working	2022-11-09T00:00:00	12:00:00	13:00:00	21	202	5054	2700	1.87
3495	TF1-PC-01 ถ.เพชรเกษม-ถ.ราชพฤกษ์	13.712537	100.428889	bma	working	2022-11-09T00:00:00	13:00:00	14:00:00	21	201	5103	2700	1.89
3496	TF1-PC-01 ถ.เพชรเกษม-ถ.ราชพฤกษ์	13.712537	100.428889	bma	working	2022-11-09T00:00:00	14:00:00	15:00:00	19	201	5036	2700	1.87
3497	TF1-PC-01 ถ.เพชรเกษม-ถ.ราชพฤกษ์	13.712537	100.428889	bma	working	2022-11-09T00:00:00	15:00:00	16:00:00	19	202	5016	2700	1.86
3498	TF1-PC-01 ถ.เพชรเกษม-ถ.ราชพฤกษ์	13.712537	100.428889	bma	holiday	2022-11-09T00:00:00	16:00:00	17:00:00	20	201	5096	2700	1.89
3499	TF1-PC-01 ถ.เพชรเกษม-ถ.ราชพฤกษ์	13.712537	100.428889	bma	holiday	2022-11-09T00:00:00	17:00:00	18:00:00	17	201	5095	2700	1.89
3500	TF1-PC-01 ถ.เพชรเกษม-ถ.ราชพฤกษ์	13.712537	100.428889	bma	holiday	2022-11-09T00:00:00	18:00:00	19:00:00	18	202	5335	2700	1.98
3501	TF1-RW-02 ถ.จตุรทิศ-ถ.อโศก-ดินแดง	13.756727	100.548484	bma	working	2022-05-09T00:00:00	5:00:00	6:00:00	32	41	1036	2700	0.38
3502	TF1-RW-02 ถ.จตุรทิศ-ถ.อโศก-ดินแดง	13.756727	100.548484	bma	working	2022-05-09T00:00:00	6:00:00	7:00:00	23	127	3068	2700	1.14
3503	TF1-RW-02 ถ.จตุรทิศ-ถ.อโศก-ดินแดง	13.756727	100.548484	bma	working	2022-05-09T00:00:00	7:00:00	8:00:00	26	77	1862	2700	0.69
3504	TF1-RW-02 ถ.จตุรทิศ-ถ.อโศก-ดินแดง	13.756727	100.548484	bma	working	2022-05-09T00:00:00	8:00:00	9:00:00	21	195	4148	2700	1.54
3505	TF1-RW-02 ถ.จตุรทิศ-ถ.อโศก-ดินแดง	13.756727	100.548484	bma	working	2022-05-09T00:00:00	9:00:00	10:00:00	20	201	4185	2700	1.55
3506	TF1-RW-02 ถ.จตุรทิศ-ถ.อโศก-ดินแดง	13.756727	100.548484	bma	working	2022-05-09T00:00:00	10:00:00	11:00:00	18	185	4204	2700	1.56
3507	TF1-RW-02 ถ.จตุรทิศ-ถ.อโศก-ดินแดง	13.756727	100.548484	bma	working	2022-05-09T00:00:00	11:00:00	12:00:00	26	126	3082	2700	1.14
3508	TF1-RW-02 ถ.จตุรทิศ-ถ.อโศก-ดินแดง	13.756727	100.548484	bma	working	2022-05-09T00:00:00	12:00:00	13:00:00	18	184	4012	2700	1.49
3509	TF1-RW-02 ถ.จตุรทิศ-ถ.อโศก-ดินแดง	13.756727	100.548484	bma	working	2022-05-09T00:00:00	13:00:00	14:00:00	17	182	4146	2700	1.54
3510	TF1-RW-02 ถ.จตุรทิศ-ถ.อโศก-ดินแดง	13.756727	100.548484	bma	working	2022-05-09T00:00:00	14:00:00	15:00:00	18	174	4203	2700	1.56
3511	TF1-RW-02 ถ.จตุรทิศ-ถ.อโศก-ดินแดง	13.756727	100.548484	bma	working	2022-05-09T00:00:00	15:00:00	16:00:00	20	181	4158	2700	1.54
3512	TF1-RW-02 ถ.จตุรทิศ-ถ.อโศก-ดินแดง	13.756727	100.548484	bma	working	2022-05-09T00:00:00	16:00:00	17:00:00	11	202	3589	2700	1.33
3513	TF1-RW-02 ถ.จตุรทิศ-ถ.อโศก-ดินแดง	13.756727	100.548484	bma	working	2022-05-09T00:00:00	17:00:00	18:00:00	13	201	3916	2700	1.45
3514	TF1-RW-02 ถ.จตุรทิศ-ถ.อโศก-ดินแดง	13.756727	100.548484	bma	working	2022-05-09T00:00:00	18:00:00	19:00:00	8	202	2744	2700	1.02
3515	TF1-RW-02 ถ.จตุรทิศ-ถ.อโศก-ดินแดง	13.756727	100.548484	bma	working	2022-06-09T00:00:00	5:00:00	6:00:00	31	35	677	2700	0.25
3516	TF1-RW-02 ถ.จตุรทิศ-ถ.อโศก-ดินแดง	13.756727	100.548484	bma	working	2022-06-09T00:00:00	6:00:00	7:00:00	22	108	2202	2700	0.82
3517	TF1-RW-02 ถ.จตุรทิศ-ถ.อโศก-ดินแดง	13.756727	100.548484	bma	working	2022-06-09T00:00:00	7:00:00	8:00:00	21	201	1530	2700	0.57
3518	TF1-RW-02 ถ.จตุรทิศ-ถ.อโศก-ดินแดง	13.756727	100.548484	bma	working	2022-06-09T00:00:00	8:00:00	9:00:00	18	199	3238	2700	1.20
3519	TF1-RW-02 ถ.จตุรทิศ-ถ.อโศก-ดินแดง	13.756727	100.548484	bma	working	2022-06-09T00:00:00	9:00:00	10:00:00	16	200	3248	2700	1.20
3520	TF1-RW-02 ถ.จตุรทิศ-ถ.อโศก-ดินแดง	13.756727	100.548484	bma	working	2022-06-09T00:00:00	10:00:00	11:00:00	15	201	3185	2700	1.18
3521	TF1-RW-02 ถ.จตุรทิศ-ถ.อโศก-ดินแดง	13.756727	100.548484	bma	working	2022-06-09T00:00:00	11:00:00	12:00:00	19	164	2875	2700	1.06
3522	TF1-RW-02 ถ.จตุรทิศ-ถ.อโศก-ดินแดง	13.756727	100.548484	bma	working	2022-06-09T00:00:00	12:00:00	13:00:00	13	192	3187	2700	1.18
3523	TF1-RW-02 ถ.จตุรทิศ-ถ.อโศก-ดินแดง	13.756727	100.548484	bma	working	2022-06-09T00:00:00	13:00:00	14:00:00	13	198	3162	2700	1.17
3524	TF1-RW-02 ถ.จตุรทิศ-ถ.อโศก-ดินแดง	13.756727	100.548484	bma	working	2022-06-09T00:00:00	14:00:00	15:00:00	15	185	3264	2700	1.21
3525	TF1-RW-02 ถ.จตุรทิศ-ถ.อโศก-ดินแดง	13.756727	100.548484	bma	working	2022-06-09T00:00:00	15:00:00	16:00:00	14	195	3280	2700	1.21
3526	TF1-RW-02 ถ.จตุรทิศ-ถ.อโศก-ดินแดง	13.756727	100.548484	bma	working	2022-06-09T00:00:00	16:00:00	17:00:00	10	202	2654	2700	0.98
3527	TF1-RW-02 ถ.จตุรทิศ-ถ.อโศก-ดินแดง	13.756727	100.548484	bma	working	2022-06-09T00:00:00	17:00:00	18:00:00	9	201	3346	2700	1.24
3528	TF1-RW-02 ถ.จตุรทิศ-ถ.อโศก-ดินแดง	13.756727	100.548484	bma	working	2022-06-09T00:00:00	18:00:00	19:00:00	7	202	2697	2700	1.00
3529	TF1-RW-02 ถ.จตุรทิศ-ถ.อโศก-ดินแดง	13.756727	100.548484	bma	working	2022-07-09T00:00:00	5:00:00	6:00:00	29	33	415	2700	0.15
3530	TF1-RW-02 ถ.จตุรทิศ-ถ.อโศก-ดินแดง	13.756727	100.548484	bma	working	2022-07-09T00:00:00	6:00:00	7:00:00	21	100	1230	2700	0.46
3531	TF1-RW-02 ถ.จตุรทิศ-ถ.อโศก-ดินแดง	13.756727	100.548484	bma	working	2022-07-09T00:00:00	7:00:00	8:00:00	15	201	1028	2700	0.38
3532	TF1-RW-02 ถ.จตุรทิศ-ถ.อโศก-ดินแดง	13.756727	100.548484	bma	working	2022-07-09T00:00:00	8:00:00	9:00:00	14	201	2401	2700	0.89
3533	TF1-RW-02 ถ.จตุรทิศ-ถ.อโศก-ดินแดง	13.756727	100.548484	bma	working	2022-07-09T00:00:00	9:00:00	10:00:00	12	194	2329	2700	0.86
3534	TF1-RW-02 ถ.จตุรทิศ-ถ.อโศก-ดินแดง	13.756727	100.548484	bma	working	2022-07-09T00:00:00	10:00:00	11:00:00	12	202	2241	2700	0.83
3535	TF1-RW-02 ถ.จตุรทิศ-ถ.อโศก-ดินแดง	13.756727	100.548484	bma	working	2022-07-09T00:00:00	11:00:00	12:00:00	12	201	2490	2700	0.92
3536	TF1-RW-02 ถ.จตุรทิศ-ถ.อโศก-ดินแดง	13.756727	100.548484	bma	working	2022-07-09T00:00:00	12:00:00	13:00:00	9	202	2317	2700	0.86
3537	TF1-RW-02 ถ.จตุรทิศ-ถ.อโศก-ดินแดง	13.756727	100.548484	bma	working	2022-07-09T00:00:00	13:00:00	14:00:00	10	202	2226	2700	0.82
3538	TF1-RW-02 ถ.จตุรทิศ-ถ.อโศก-ดินแดง	13.756727	100.548484	bma	working	2022-07-09T00:00:00	14:00:00	15:00:00	12	202	2342	2700	0.87
3539	TF1-RW-02 ถ.จตุรทิศ-ถ.อโศก-ดินแดง	13.756727	100.548484	bma	working	2022-07-09T00:00:00	15:00:00	16:00:00	8	202	2392	2700	0.89
3540	TF1-RW-02 ถ.จตุรทิศ-ถ.อโศก-ดินแดง	13.756727	100.548484	bma	working	2022-07-09T00:00:00	16:00:00	17:00:00	8	201	1662	2700	0.62
3541	TF1-RW-02 ถ.จตุรทิศ-ถ.อโศก-ดินแดง	13.756727	100.548484	bma	working	2022-07-09T00:00:00	17:00:00	18:00:00	6	202	2849	2700	1.06
3542	TF1-RW-02 ถ.จตุรทิศ-ถ.อโศก-ดินแดง	13.756727	100.548484	bma	working	2022-07-09T00:00:00	18:00:00	19:00:00	6	202	2643	2700	0.98
3543	TF1-RW-02 ถ.จตุรทิศ-ถ.อโศก-ดินแดง	13.756727	100.548484	bma	working	2022-08-09T00:00:00	5:00:00	6:00:00	26	36	460	2700	0.17
3544	TF1-RW-02 ถ.จตุรทิศ-ถ.อโศก-ดินแดง	13.756727	100.548484	bma	working	2022-08-09T00:00:00	6:00:00	7:00:00	19	108	1380	2700	0.51
3545	TF1-RW-02 ถ.จตุรทิศ-ถ.อโศก-ดินแดง	13.756727	100.548484	bma	working	2022-08-09T00:00:00	7:00:00	8:00:00	17	202	1012	2700	0.37
3546	TF1-RW-02 ถ.จตุรทิศ-ถ.อโศก-ดินแดง	13.756727	100.548484	bma	working	2022-08-09T00:00:00	8:00:00	9:00:00	16	159	1851	2700	0.69
3547	TF1-RW-02 ถ.จตุรทิศ-ถ.อโศก-ดินแดง	13.756727	100.548484	bma	working	2022-08-09T00:00:00	9:00:00	10:00:00	12	162	1711	2700	0.63
3548	TF1-RW-02 ถ.จตุรทิศ-ถ.อโศก-ดินแดง	13.756727	100.548484	bma	working	2022-08-09T00:00:00	10:00:00	11:00:00	13	167	1642	2700	0.61
3549	TF1-RW-02 ถ.จตุรทิศ-ถ.อโศก-ดินแดง	13.756727	100.548484	bma	working	2022-08-09T00:00:00	11:00:00	12:00:00	15	167	2397	2700	0.89
3550	TF1-RW-02 ถ.จตุรทิศ-ถ.อโศก-ดินแดง	13.756727	100.548484	bma	working	2022-08-09T00:00:00	12:00:00	13:00:00	12	161	1717	2700	0.64
3551	TF1-RW-02 ถ.จตุรทิศ-ถ.อโศก-ดินแดง	13.756727	100.548484	bma	working	2022-08-09T00:00:00	13:00:00	14:00:00	11	161	1701	2700	0.63
3552	TF1-RW-02 ถ.จตุรทิศ-ถ.อโศก-ดินแดง	13.756727	100.548484	bma	working	2022-08-09T00:00:00	14:00:00	15:00:00	12	157	1672	2700	0.62
3553	TF1-RW-02 ถ.จตุรทิศ-ถ.อโศก-ดินแดง	13.756727	100.548484	bma	working	2022-08-09T00:00:00	15:00:00	16:00:00	11	166	1710	2700	0.63
3554	TF1-RW-02 ถ.จตุรทิศ-ถ.อโศก-ดินแดง	13.756727	100.548484	bma	working	2022-08-09T00:00:00	16:00:00	17:00:00	8	201	2876	2700	1.07
3555	TF1-RW-02 ถ.จตุรทิศ-ถ.อโศก-ดินแดง	13.756727	100.548484	bma	working	2022-08-09T00:00:00	17:00:00	18:00:00	5	202	2710	2700	1.00
3556	TF1-RW-02 ถ.จตุรทิศ-ถ.อโศก-ดินแดง	13.756727	100.548484	bma	working	2022-08-09T00:00:00	18:00:00	19:00:00	6	202	2731	2700	1.01
3557	TF1-RW-02 ถ.จตุรทิศ-ถ.อโศก-ดินแดง	13.756727	100.548484	bma	working	2022-09-09T00:00:00	5:00:00	6:00:00	23	37	505	2700	0.19
3558	TF1-RW-02 ถ.จตุรทิศ-ถ.อโศก-ดินแดง	13.756727	100.548484	bma	working	2022-09-09T00:00:00	6:00:00	7:00:00	17	113	1484	2700	0.55
3559	TF1-RW-02 ถ.จตุรทิศ-ถ.อโศก-ดินแดง	13.756727	100.548484	bma	working	2022-09-09T00:00:00	7:00:00	8:00:00	20	75	1020	2700	0.38
3560	TF1-RW-02 ถ.จตุรทิศ-ถ.อโศก-ดินแดง	13.756727	100.548484	bma	working	2022-09-09T00:00:00	8:00:00	9:00:00	17	125	1228	2700	0.45
3561	TF1-RW-02 ถ.จตุรทิศ-ถ.อโศก-ดินแดง	13.756727	100.548484	bma	working	2022-09-09T00:00:00	9:00:00	10:00:00	11	117	1102	2700	0.41
3562	TF1-RW-02 ถ.จตุรทิศ-ถ.อโศก-ดินแดง	13.756727	100.548484	bma	working	2022-09-09T00:00:00	10:00:00	11:00:00	13	123	1141	2700	0.42
3563	TF1-RW-02 ถ.จตุรทิศ-ถ.อโศก-ดินแดง	13.756727	100.548484	bma	working	2022-09-09T00:00:00	11:00:00	12:00:00	17	119	2227	2700	0.82
3564	TF1-RW-02 ถ.จตุรทิศ-ถ.อโศก-ดินแดง	13.756727	100.548484	bma	working	2022-09-09T00:00:00	12:00:00	13:00:00	13	121	1159	2700	0.43
3565	TF1-RW-02 ถ.จตุรทิศ-ถ.อโศก-ดินแดง	13.756727	100.548484	bma	working	2022-09-09T00:00:00	13:00:00	14:00:00	13	123	1135	2700	0.42
3566	TF1-RW-02 ถ.จตุรทิศ-ถ.อโศก-ดินแดง	13.756727	100.548484	bma	working	2022-09-09T00:00:00	14:00:00	15:00:00	13	125	1078	2700	0.40
3567	TF1-RW-02 ถ.จตุรทิศ-ถ.อโศก-ดินแดง	13.756727	100.548484	bma	working	2022-09-09T00:00:00	15:00:00	16:00:00	14	115	1115	2700	0.41
3568	TF1-RW-02 ถ.จตุรทิศ-ถ.อโศก-ดินแดง	13.756727	100.548484	bma	working	2022-09-09T00:00:00	16:00:00	17:00:00	9	201	4035	2700	1.49
3569	TF1-RW-02 ถ.จตุรทิศ-ถ.อโศก-ดินแดง	13.756727	100.548484	bma	working	2022-09-09T00:00:00	17:00:00	18:00:00	5	201	2550	2700	0.94
3570	TF1-RW-02 ถ.จตุรทิศ-ถ.อโศก-ดินแดง	13.756727	100.548484	bma	working	2022-09-09T00:00:00	18:00:00	19:00:00	6	202	2797	2700	1.04
3571	TF1-RW-02 ถ.จตุรทิศ-ถ.อโศก-ดินแดง	13.756727	100.548484	bma	working	2022-10-09T00:00:00	5:00:00	6:00:00	26	20	253	2700	0.09
3572	TF1-RW-02 ถ.จตุรทิศ-ถ.อโศก-ดินแดง	13.756727	100.548484	bma	holiday	2022-10-09T00:00:00	6:00:00	7:00:00	19	65	756	2700	0.28
3573	TF1-RW-02 ถ.จตุรทิศ-ถ.อโศก-ดินแดง	13.756727	100.548484	bma	holiday	2022-10-09T00:00:00	7:00:00	8:00:00	19	65	980	2700	0.36
3574	TF1-RW-02 ถ.จตุรทิศ-ถ.อโศก-ดินแดง	13.756727	100.548484	bma	holiday	2022-10-09T00:00:00	8:00:00	9:00:00	19	65	1216	2700	0.45
3575	TF1-RW-02 ถ.จตุรทิศ-ถ.อโศก-ดินแดง	13.756727	100.548484	bma	working	2022-10-09T00:00:00	9:00:00	10:00:00	18	59	1031	2700	0.38
3576	TF1-RW-02 ถ.จตุรทิศ-ถ.อโศก-ดินแดง	13.756727	100.548484	bma	working	2022-10-09T00:00:00	10:00:00	11:00:00	15	58	1112	2700	0.41
3577	TF1-RW-02 ถ.จตุรทิศ-ถ.อโศก-ดินแดง	13.756727	100.548484	bma	holiday	2022-10-09T00:00:00	11:00:00	12:00:00	15	137	2059	2700	0.76
3578	TF1-RW-02 ถ.จตุรทิศ-ถ.อโศก-ดินแดง	13.756727	100.548484	bma	working	2022-10-09T00:00:00	12:00:00	13:00:00	18	63	998	2700	0.37
3579	TF1-RW-02 ถ.จตุรทิศ-ถ.อโศก-ดินแดง	13.756727	100.548484	bma	working	2022-10-09T00:00:00	13:00:00	14:00:00	16	65	1048	2700	0.39
3580	TF1-RW-02 ถ.จตุรทิศ-ถ.อโศก-ดินแดง	13.756727	100.548484	bma	working	2022-10-09T00:00:00	14:00:00	15:00:00	14	57	1008	2700	0.37
3581	TF1-RW-02 ถ.จตุรทิศ-ถ.อโศก-ดินแดง	13.756727	100.548484	bma	working	2022-10-09T00:00:00	15:00:00	16:00:00	18	62	1180	2700	0.44
3582	TF1-RW-02 ถ.จตุรทิศ-ถ.อโศก-ดินแดง	13.756727	100.548484	bma	holiday	2022-10-09T00:00:00	16:00:00	17:00:00	16	169	2746	2700	1.02
3583	TF1-RW-02 ถ.จตุรทิศ-ถ.อโศก-ดินแดง	13.756727	100.548484	bma	holiday	2022-10-09T00:00:00	17:00:00	18:00:00	11	201	3318	2700	1.23
3584	TF1-RW-02 ถ.จตุรทิศ-ถ.อโศก-ดินแดง	13.756727	100.548484	bma	holiday	2022-10-09T00:00:00	18:00:00	19:00:00	14	102	974	2700	0.36
3585	TF1-RW-02 ถ.จตุรทิศ-ถ.อโศก-ดินแดง	13.756727	100.548484	bma	working	2022-11-09T00:00:00	5:00:00	6:00:00	16	12	172	2700	0.06
3586	TF1-RW-02 ถ.จตุรทิศ-ถ.อโศก-ดินแดง	13.756727	100.548484	bma	holiday	2022-11-09T00:00:00	6:00:00	7:00:00	12	38	482	2700	0.18
3587	TF1-RW-02 ถ.จตุรทิศ-ถ.อโศก-ดินแดง	13.756727	100.548484	bma	holiday	2022-11-09T00:00:00	7:00:00	8:00:00	12	38	621	2700	0.23
3588	TF1-RW-02 ถ.จตุรทิศ-ถ.อโศก-ดินแดง	13.756727	100.548484	bma	holiday	2022-11-09T00:00:00	8:00:00	9:00:00	12	38	768	2700	0.28
3589	TF1-RW-02 ถ.จตุรทิศ-ถ.อโศก-ดินแดง	13.756727	100.548484	bma	working	2022-11-09T00:00:00	9:00:00	10:00:00	11	37	664	2700	0.25
3590	TF1-RW-02 ถ.จตุรทิศ-ถ.อโศก-ดินแดง	13.756727	100.548484	bma	working	2022-11-09T00:00:00	10:00:00	11:00:00	9	37	703	2700	0.26
3591	TF1-RW-02 ถ.จตุรทิศ-ถ.อโศก-ดินแดง	13.756727	100.548484	bma	holiday	2022-11-09T00:00:00	11:00:00	12:00:00	9	81	1298	2700	0.48
3592	TF1-RW-02 ถ.จตุรทิศ-ถ.อโศก-ดินแดง	13.756727	100.548484	bma	working	2022-11-09T00:00:00	12:00:00	13:00:00	10	38	637	2700	0.24
3593	TF1-RW-02 ถ.จตุรทิศ-ถ.อโศก-ดินแดง	13.756727	100.548484	bma	working	2022-11-09T00:00:00	13:00:00	14:00:00	10	38	662	2700	0.25
3594	TF1-RW-02 ถ.จตุรทิศ-ถ.อโศก-ดินแดง	13.756727	100.548484	bma	working	2022-11-09T00:00:00	14:00:00	15:00:00	9	36	666	2700	0.25
3595	TF1-RW-02 ถ.จตุรทิศ-ถ.อโศก-ดินแดง	13.756727	100.548484	bma	working	2022-11-09T00:00:00	15:00:00	16:00:00	11	35	744	2700	0.28
3596	TF1-RW-02 ถ.จตุรทิศ-ถ.อโศก-ดินแดง	13.756727	100.548484	bma	holiday	2022-11-09T00:00:00	16:00:00	17:00:00	9	98	1714	2700	0.63
3597	TF1-RW-02 ถ.จตุรทิศ-ถ.อโศก-ดินแดง	13.756727	100.548484	bma	holiday	2022-11-09T00:00:00	17:00:00	18:00:00	7	122	2006	2700	0.74
3598	TF1-RW-02 ถ.จตุรทิศ-ถ.อโศก-ดินแดง	13.756727	100.548484	bma	holiday	2022-11-09T00:00:00	18:00:00	19:00:00	8	57	664	2700	0.25
3599	TF1-TW-02 ถ.คลองทวีวัฒนา - ถ.อักษะ	13.777117	100.340343	bma	working	2022-05-09T00:00:00	5:00:00	6:00:00	42	13	47	2700	0.02
3600	TF1-TW-02 ถ.คลองทวีวัฒนา - ถ.อักษะ	13.777117	100.340343	bma	working	2022-05-09T00:00:00	6:00:00	7:00:00	30	42	123	2700	0.05
3601	TF1-TW-02 ถ.คลองทวีวัฒนา - ถ.อักษะ	13.777117	100.340343	bma	working	2022-05-09T00:00:00	7:00:00	8:00:00	30	42	136	2700	0.05
3602	TF1-TW-02 ถ.คลองทวีวัฒนา - ถ.อักษะ	13.777117	100.340343	bma	working	2022-05-09T00:00:00	8:00:00	9:00:00	27	30	287	2700	0.11
3603	TF1-TW-02 ถ.คลองทวีวัฒนา - ถ.อักษะ	13.777117	100.340343	bma	working	2022-05-09T00:00:00	9:00:00	10:00:00	25	26	267	2700	0.10
3604	TF1-TW-02 ถ.คลองทวีวัฒนา - ถ.อักษะ	13.777117	100.340343	bma	working	2022-05-09T00:00:00	10:00:00	11:00:00	25	25	244	2700	0.09
3605	TF1-TW-02 ถ.คลองทวีวัฒนา - ถ.อักษะ	13.777117	100.340343	bma	working	2022-05-09T00:00:00	11:00:00	12:00:00	32	31	114	2700	0.04
3606	TF1-TW-02 ถ.คลองทวีวัฒนา - ถ.อักษะ	13.777117	100.340343	bma	working	2022-05-09T00:00:00	12:00:00	13:00:00	21	29	108	2700	0.04
3607	TF1-TW-02 ถ.คลองทวีวัฒนา - ถ.อักษะ	13.777117	100.340343	bma	working	2022-05-09T00:00:00	13:00:00	14:00:00	20	31	172	2700	0.06
3608	TF1-TW-02 ถ.คลองทวีวัฒนา - ถ.อักษะ	13.777117	100.340343	bma	working	2022-05-09T00:00:00	14:00:00	15:00:00	24	27	143	2700	0.05
3609	TF1-TW-02 ถ.คลองทวีวัฒนา - ถ.อักษะ	13.777117	100.340343	bma	working	2022-05-09T00:00:00	15:00:00	16:00:00	21	29	208	2700	0.08
3610	TF1-TW-02 ถ.คลองทวีวัฒนา - ถ.อักษะ	13.777117	100.340343	bma	working	2022-05-09T00:00:00	16:00:00	17:00:00	57	30	72	2700	0.03
3611	TF1-TW-02 ถ.คลองทวีวัฒนา - ถ.อักษะ	13.777117	100.340343	bma	working	2022-05-09T00:00:00	17:00:00	18:00:00	30	35	211	2700	0.08
3612	TF1-TW-02 ถ.คลองทวีวัฒนา - ถ.อักษะ	13.777117	100.340343	bma	working	2022-05-09T00:00:00	18:00:00	19:00:00	24	39	425	2700	0.16
3613	TF1-TW-02 ถ.คลองทวีวัฒนา - ถ.อักษะ	13.777117	100.340343	bma	working	2022-06-09T00:00:00	5:00:00	6:00:00	41	15	46	2700	0.02
3614	TF1-TW-02 ถ.คลองทวีวัฒนา - ถ.อักษะ	13.777117	100.340343	bma	working	2022-06-09T00:00:00	6:00:00	7:00:00	30	42	125	2700	0.05
3615	TF1-TW-02 ถ.คลองทวีวัฒนา - ถ.อักษะ	13.777117	100.340343	bma	working	2022-06-09T00:00:00	7:00:00	8:00:00	30	42	130	2700	0.05
3616	TF1-TW-02 ถ.คลองทวีวัฒนา - ถ.อักษะ	13.777117	100.340343	bma	working	2022-06-09T00:00:00	8:00:00	9:00:00	28	35	284	2700	0.11
3617	TF1-TW-02 ถ.คลองทวีวัฒนา - ถ.อักษะ	13.777117	100.340343	bma	working	2022-06-09T00:00:00	9:00:00	10:00:00	27	33	264	2700	0.10
3618	TF1-TW-02 ถ.คลองทวีวัฒนา - ถ.อักษะ	13.777117	100.340343	bma	working	2022-06-09T00:00:00	10:00:00	11:00:00	27	31	217	2700	0.08
3619	TF1-TW-02 ถ.คลองทวีวัฒนา - ถ.อักษะ	13.777117	100.340343	bma	working	2022-06-09T00:00:00	11:00:00	12:00:00	38	30	119	2700	0.04
3620	TF1-TW-02 ถ.คลองทวีวัฒนา - ถ.อักษะ	13.777117	100.340343	bma	working	2022-06-09T00:00:00	12:00:00	13:00:00	24	34	181	2700	0.07
3621	TF1-TW-02 ถ.คลองทวีวัฒนา - ถ.อักษะ	13.777117	100.340343	bma	working	2022-06-09T00:00:00	13:00:00	14:00:00	25	33	187	2700	0.07
3622	TF1-TW-02 ถ.คลองทวีวัฒนา - ถ.อักษะ	13.777117	100.340343	bma	working	2022-06-09T00:00:00	14:00:00	15:00:00	27	34	210	2700	0.08
3623	TF1-TW-02 ถ.คลองทวีวัฒนา - ถ.อักษะ	13.777117	100.340343	bma	working	2022-06-09T00:00:00	15:00:00	16:00:00	24	35	205	2700	0.08
3624	TF1-TW-02 ถ.คลองทวีวัฒนา - ถ.อักษะ	13.777117	100.340343	bma	working	2022-06-09T00:00:00	16:00:00	17:00:00	36	42	174	2700	0.06
3625	TF1-TW-02 ถ.คลองทวีวัฒนา - ถ.อักษะ	13.777117	100.340343	bma	working	2022-06-09T00:00:00	17:00:00	18:00:00	30	34	291	2700	0.11
3626	TF1-TW-02 ถ.คลองทวีวัฒนา - ถ.อักษะ	13.777117	100.340343	bma	working	2022-06-09T00:00:00	18:00:00	19:00:00	23	83	294	2700	0.11
3627	TF1-TW-02 ถ.คลองทวีวัฒนา - ถ.อักษะ	13.777117	100.340343	bma	working	2022-07-09T00:00:00	5:00:00	6:00:00	44	13	83	2700	0.03
3628	TF1-TW-02 ถ.คลองทวีวัฒนา - ถ.อักษะ	13.777117	100.340343	bma	working	2022-07-09T00:00:00	6:00:00	7:00:00	31	43	249	2700	0.09
3629	TF1-TW-02 ถ.คลองทวีวัฒนา - ถ.อักษะ	13.777117	100.340343	bma	working	2022-07-09T00:00:00	7:00:00	8:00:00	31	43	260	2700	0.10
3630	TF1-TW-02 ถ.คลองทวีวัฒนา - ถ.อักษะ	13.777117	100.340343	bma	working	2022-07-09T00:00:00	8:00:00	9:00:00	31	43	313	2700	0.12
3631	TF1-TW-02 ถ.คลองทวีวัฒนา - ถ.อักษะ	13.777117	100.340343	bma	working	2022-07-09T00:00:00	9:00:00	10:00:00	29	37	297	2700	0.11
3632	TF1-TW-02 ถ.คลองทวีวัฒนา - ถ.อักษะ	13.777117	100.340343	bma	working	2022-07-09T00:00:00	10:00:00	11:00:00	30	37	237	2700	0.09
3633	TF1-TW-02 ถ.คลองทวีวัฒนา - ถ.อักษะ	13.777117	100.340343	bma	working	2022-07-09T00:00:00	11:00:00	12:00:00	39	29	121	2700	0.04
3634	TF1-TW-02 ถ.คลองทวีวัฒนา - ถ.อักษะ	13.777117	100.340343	bma	working	2022-07-09T00:00:00	12:00:00	13:00:00	25	37	244	2700	0.09
3635	TF1-TW-02 ถ.คลองทวีวัฒนา - ถ.อักษะ	13.777117	100.340343	bma	working	2022-07-09T00:00:00	13:00:00	14:00:00	29	38	193	2700	0.07
3636	TF1-TW-02 ถ.คลองทวีวัฒนา - ถ.อักษะ	13.777117	100.340343	bma	working	2022-07-09T00:00:00	14:00:00	15:00:00	27	38	253	2700	0.09
3637	TF1-TW-02 ถ.คลองทวีวัฒนา - ถ.อักษะ	13.777117	100.340343	bma	working	2022-07-09T00:00:00	15:00:00	16:00:00	28	35	218	2700	0.08
3638	TF1-TW-02 ถ.คลองทวีวัฒนา - ถ.อักษะ	13.777117	100.340343	bma	working	2022-07-09T00:00:00	16:00:00	17:00:00	19	49	271	2700	0.10
3639	TF1-TW-02 ถ.คลองทวีวัฒนา - ถ.อักษะ	13.777117	100.340343	bma	working	2022-07-09T00:00:00	17:00:00	18:00:00	29	32	384	2700	0.14
3640	TF1-TW-02 ถ.คลองทวีวัฒนา - ถ.อักษะ	13.777117	100.340343	bma	working	2022-07-09T00:00:00	18:00:00	19:00:00	23	118	100	2700	0.04
3641	TF1-TW-02 ถ.คลองทวีวัฒนา - ถ.อักษะ	13.777117	100.340343	bma	working	2022-08-09T00:00:00	5:00:00	6:00:00	44	14	82	2700	0.03
3642	TF1-TW-02 ถ.คลองทวีวัฒนา - ถ.อักษะ	13.777117	100.340343	bma	working	2022-08-09T00:00:00	6:00:00	7:00:00	31	43	249	2700	0.09
3643	TF1-TW-02 ถ.คลองทวีวัฒนา - ถ.อักษะ	13.777117	100.340343	bma	working	2022-08-09T00:00:00	7:00:00	8:00:00	31	43	252	2700	0.09
3644	TF1-TW-02 ถ.คลองทวีวัฒนา - ถ.อักษะ	13.777117	100.340343	bma	working	2022-08-09T00:00:00	8:00:00	9:00:00	29	43	339	2700	0.13
3645	TF1-TW-02 ถ.คลองทวีวัฒนา - ถ.อักษะ	13.777117	100.340343	bma	working	2022-08-09T00:00:00	9:00:00	10:00:00	30	40	305	2700	0.11
3646	TF1-TW-02 ถ.คลองทวีวัฒนา - ถ.อักษะ	13.777117	100.340343	bma	working	2022-08-09T00:00:00	10:00:00	11:00:00	28	38	245	2700	0.09
3647	TF1-TW-02 ถ.คลองทวีวัฒนา - ถ.อักษะ	13.777117	100.340343	bma	working	2022-08-09T00:00:00	11:00:00	12:00:00	40	30	132	2700	0.05
3648	TF1-TW-02 ถ.คลองทวีวัฒนา - ถ.อักษะ	13.777117	100.340343	bma	working	2022-08-09T00:00:00	12:00:00	13:00:00	25	37	273	2700	0.10
3649	TF1-TW-02 ถ.คลองทวีวัฒนา - ถ.อักษะ	13.777117	100.340343	bma	working	2022-08-09T00:00:00	13:00:00	14:00:00	31	40	185	2700	0.07
3650	TF1-TW-02 ถ.คลองทวีวัฒนา - ถ.อักษะ	13.777117	100.340343	bma	working	2022-08-09T00:00:00	14:00:00	15:00:00	27	42	253	2700	0.09
3651	TF1-TW-02 ถ.คลองทวีวัฒนา - ถ.อักษะ	13.777117	100.340343	bma	working	2022-08-09T00:00:00	15:00:00	16:00:00	26	35	213	2700	0.08
3652	TF1-TW-02 ถ.คลองทวีวัฒนา - ถ.อักษะ	13.777117	100.340343	bma	working	2022-08-09T00:00:00	16:00:00	17:00:00	20	49	279	2700	0.10
3653	TF1-TW-02 ถ.คลองทวีวัฒนา - ถ.อักษะ	13.777117	100.340343	bma	working	2022-08-09T00:00:00	17:00:00	18:00:00	29	33	375	2700	0.14
3654	TF1-TW-02 ถ.คลองทวีวัฒนา - ถ.อักษะ	13.777117	100.340343	bma	working	2022-08-09T00:00:00	18:00:00	19:00:00	23	121	111	2700	0.04
3655	TF1-TW-03 ถ.ทางคู่ขนานบรมราชชนนี-ถ.พุทธมณฑลสาย 2	13.784222	100.394883	bma	working	2022-05-09T00:00:00	5:00:00	6:00:00	102	3	147	1800	0.08
3656	TF1-TW-03 ถ.ทางคู่ขนานบรมราชชนนี-ถ.พุทธมณฑลสาย 2	13.784222	100.394883	bma	working	2022-05-09T00:00:00	6:00:00	7:00:00	73	8	384	1800	0.21
3657	TF1-TW-03 ถ.ทางคู่ขนานบรมราชชนนี-ถ.พุทธมณฑลสาย 2	13.784222	100.394883	bma	working	2022-05-09T00:00:00	7:00:00	8:00:00	117	7	754	1800	0.42
3658	TF1-TW-03 ถ.ทางคู่ขนานบรมราชชนนี-ถ.พุทธมณฑลสาย 2	13.784222	100.394883	bma	working	2022-05-09T00:00:00	8:00:00	9:00:00	121	7	884	1800	0.49
3659	TF1-TW-03 ถ.ทางคู่ขนานบรมราชชนนี-ถ.พุทธมณฑลสาย 2	13.784222	100.394883	bma	working	2022-05-09T00:00:00	9:00:00	10:00:00	119	0	820	1800	0.46
3660	TF1-TW-03 ถ.ทางคู่ขนานบรมราชชนนี-ถ.พุทธมณฑลสาย 2	13.784222	100.394883	bma	working	2022-05-09T00:00:00	10:00:00	11:00:00	110	5	844	1800	0.47
3661	TF1-TW-03 ถ.ทางคู่ขนานบรมราชชนนี-ถ.พุทธมณฑลสาย 2	13.784222	100.394883	bma	working	2022-05-09T00:00:00	11:00:00	12:00:00	117	9	553	1800	0.31
3662	TF1-TW-03 ถ.ทางคู่ขนานบรมราชชนนี-ถ.พุทธมณฑลสาย 2	13.784222	100.394883	bma	working	2022-05-09T00:00:00	12:00:00	13:00:00	119	0	824	1800	0.46
3663	TF1-TW-03 ถ.ทางคู่ขนานบรมราชชนนี-ถ.พุทธมณฑลสาย 2	13.784222	100.394883	bma	working	2022-05-09T00:00:00	13:00:00	14:00:00	116	2	710	1800	0.39
3664	TF1-TW-03 ถ.ทางคู่ขนานบรมราชชนนี-ถ.พุทธมณฑลสาย 2	13.784222	100.394883	bma	working	2022-05-09T00:00:00	14:00:00	15:00:00	121	0	840	1800	0.47
3665	TF1-TW-03 ถ.ทางคู่ขนานบรมราชชนนี-ถ.พุทธมณฑลสาย 2	13.784222	100.394883	bma	working	2022-05-09T00:00:00	15:00:00	16:00:00	119	5	700	1800	0.39
3666	TF1-TW-03 ถ.ทางคู่ขนานบรมราชชนนี-ถ.พุทธมณฑลสาย 2	13.784222	100.394883	bma	working	2022-05-09T00:00:00	16:00:00	17:00:00	114	8	904	1800	0.50
3667	TF1-TW-03 ถ.ทางคู่ขนานบรมราชชนนี-ถ.พุทธมณฑลสาย 2	13.784222	100.394883	bma	working	2022-05-09T00:00:00	17:00:00	18:00:00	112	7	1298	1800	0.72
3668	TF1-TW-03 ถ.ทางคู่ขนานบรมราชชนนี-ถ.พุทธมณฑลสาย 2	13.784222	100.394883	bma	working	2022-05-09T00:00:00	18:00:00	19:00:00	119	8	1385	1800	0.77
3669	TF1-TW-03 ถ.ทางคู่ขนานบรมราชชนนี-ถ.พุทธมณฑลสาย 2	13.784222	100.394883	bma	working	2022-06-09T00:00:00	5:00:00	6:00:00	129	2	213	1800	0.12
3670	TF1-TW-03 ถ.ทางคู่ขนานบรมราชชนนี-ถ.พุทธมณฑลสาย 2	13.784222	100.394883	bma	working	2022-06-09T00:00:00	6:00:00	7:00:00	91	7	591	1800	0.33
3671	TF1-TW-03 ถ.ทางคู่ขนานบรมราชชนนี-ถ.พุทธมณฑลสาย 2	13.784222	100.394883	bma	working	2022-06-09T00:00:00	7:00:00	8:00:00	120	7	740	1800	0.41
3672	TF1-TW-03 ถ.ทางคู่ขนานบรมราชชนนี-ถ.พุทธมณฑลสาย 2	13.784222	100.394883	bma	working	2022-06-09T00:00:00	8:00:00	9:00:00	62	6	739	1800	0.41
3673	TF1-TW-03 ถ.ทางคู่ขนานบรมราชชนนี-ถ.พุทธมณฑลสาย 2	13.784222	100.394883	bma	working	2022-06-09T00:00:00	9:00:00	10:00:00	64	2	785	1800	0.44
3674	TF1-TW-03 ถ.ทางคู่ขนานบรมราชชนนี-ถ.พุทธมณฑลสาย 2	13.784222	100.394883	bma	working	2022-06-09T00:00:00	10:00:00	11:00:00	59	5	753	1800	0.42
3675	TF1-TW-03 ถ.ทางคู่ขนานบรมราชชนนี-ถ.พุทธมณฑลสาย 2	13.784222	100.394883	bma	working	2022-06-09T00:00:00	11:00:00	12:00:00	111	11	846	1800	0.47
3676	TF1-TW-03 ถ.ทางคู่ขนานบรมราชชนนี-ถ.พุทธมณฑลสาย 2	13.784222	100.394883	bma	working	2022-06-09T00:00:00	12:00:00	13:00:00	63	3	690	1800	0.38
3677	TF1-TW-03 ถ.ทางคู่ขนานบรมราชชนนี-ถ.พุทธมณฑลสาย 2	13.784222	100.394883	bma	working	2022-06-09T00:00:00	13:00:00	14:00:00	60	2	611	1800	0.34
3678	TF1-TW-03 ถ.ทางคู่ขนานบรมราชชนนี-ถ.พุทธมณฑลสาย 2	13.784222	100.394883	bma	working	2022-06-09T00:00:00	14:00:00	15:00:00	60	0	721	1800	0.40
3679	TF1-TW-03 ถ.ทางคู่ขนานบรมราชชนนี-ถ.พุทธมณฑลสาย 2	13.784222	100.394883	bma	working	2022-06-09T00:00:00	15:00:00	16:00:00	60	4	583	1800	0.32
3680	TF1-TW-03 ถ.ทางคู่ขนานบรมราชชนนี-ถ.พุทธมณฑลสาย 2	13.784222	100.394883	bma	working	2022-06-09T00:00:00	16:00:00	17:00:00	122	9	994	1800	0.55
3681	TF1-TW-03 ถ.ทางคู่ขนานบรมราชชนนี-ถ.พุทธมณฑลสาย 2	13.784222	100.394883	bma	working	2022-06-09T00:00:00	17:00:00	18:00:00	83	6	1225	1800	0.68
3682	TF1-TW-03 ถ.ทางคู่ขนานบรมราชชนนี-ถ.พุทธมณฑลสาย 2	13.784222	100.394883	bma	working	2022-06-09T00:00:00	18:00:00	19:00:00	78	8	1503	1800	0.84
3683	TF1-TW-03 ถ.ทางคู่ขนานบรมราชชนนี-ถ.พุทธมณฑลสาย 2	13.784222	100.394883	bma	working	2022-07-09T00:00:00	5:00:00	6:00:00	173	2	276	1800	0.15
3684	TF1-TW-03 ถ.ทางคู่ขนานบรมราชชนนี-ถ.พุทธมณฑลสาย 2	13.784222	100.394883	bma	working	2022-07-09T00:00:00	6:00:00	7:00:00	121	6	806	1800	0.45
3685	TF1-TW-03 ถ.ทางคู่ขนานบรมราชชนนี-ถ.พุทธมณฑลสาย 2	13.784222	100.394883	bma	working	2022-07-09T00:00:00	7:00:00	8:00:00	117	6	566	1800	0.31
3686	TF1-TW-03 ถ.ทางคู่ขนานบรมราชชนนี-ถ.พุทธมณฑลสาย 2	13.784222	100.394883	bma	working	2022-07-09T00:00:00	8:00:00	9:00:00	9	6	675	1800	0.38
3687	TF1-TW-03 ถ.ทางคู่ขนานบรมราชชนนี-ถ.พุทธมณฑลสาย 2	13.784222	100.394883	bma	working	2022-07-09T00:00:00	9:00:00	10:00:00	7	3	672	1800	0.37
3688	TF1-TW-03 ถ.ทางคู่ขนานบรมราชชนนี-ถ.พุทธมณฑลสาย 2	13.784222	100.394883	bma	working	2022-07-09T00:00:00	10:00:00	11:00:00	6	5	653	1800	0.36
3689	TF1-TW-03 ถ.ทางคู่ขนานบรมราชชนนี-ถ.พุทธมณฑลสาย 2	13.784222	100.394883	bma	working	2022-07-09T00:00:00	11:00:00	12:00:00	100	13	1177	1800	0.65
3690	TF1-TW-03 ถ.ทางคู่ขนานบรมราชชนนี-ถ.พุทธมณฑลสาย 2	13.784222	100.394883	bma	working	2022-07-09T00:00:00	12:00:00	13:00:00	8	5	520	1800	0.29
3691	TF1-TW-03 ถ.ทางคู่ขนานบรมราชชนนี-ถ.พุทธมณฑลสาย 2	13.784222	100.394883	bma	working	2022-07-09T00:00:00	13:00:00	14:00:00	5	2	481	1800	0.27
3692	TF1-TW-03 ถ.ทางคู่ขนานบรมราชชนนี-ถ.พุทธมณฑลสาย 2	13.784222	100.394883	bma	working	2022-07-09T00:00:00	14:00:00	15:00:00	8	2	610	1800	0.34
3693	TF1-TW-03 ถ.ทางคู่ขนานบรมราชชนนี-ถ.พุทธมณฑลสาย 2	13.784222	100.394883	bma	working	2022-07-09T00:00:00	15:00:00	16:00:00	4	3	524	1800	0.29
3694	TF1-TW-03 ถ.ทางคู่ขนานบรมราชชนนี-ถ.พุทธมณฑลสาย 2	13.784222	100.394883	bma	working	2022-07-09T00:00:00	16:00:00	17:00:00	116	10	1013	1800	0.56
3695	TF1-TW-03 ถ.ทางคู่ขนานบรมราชชนนี-ถ.พุทธมณฑลสาย 2	13.784222	100.394883	bma	working	2022-07-09T00:00:00	17:00:00	18:00:00	60	5	1137	1800	0.63
3696	TF1-TW-03 ถ.ทางคู่ขนานบรมราชชนนี-ถ.พุทธมณฑลสาย 2	13.784222	100.394883	bma	working	2022-07-09T00:00:00	18:00:00	19:00:00	30	7	1650	1800	0.92
3697	TF1-TW-03 ถ.ทางคู่ขนานบรมราชชนนี-ถ.พุทธมณฑลสาย 2	13.784222	100.394883	bma	working	2022-08-09T00:00:00	5:00:00	6:00:00	164	2	237	1800	0.13
3698	TF1-TW-03 ถ.ทางคู่ขนานบรมราชชนนี-ถ.พุทธมณฑลสาย 2	13.784222	100.394883	bma	working	2022-08-09T00:00:00	6:00:00	7:00:00	114	6	723	1800	0.40
3699	TF1-TW-03 ถ.ทางคู่ขนานบรมราชชนนี-ถ.พุทธมณฑลสาย 2	13.784222	100.394883	bma	working	2022-08-09T00:00:00	7:00:00	8:00:00	115	6	568	1800	0.32
3700	TF1-TW-03 ถ.ทางคู่ขนานบรมราชชนนี-ถ.พุทธมณฑลสาย 2	13.784222	100.394883	bma	working	2022-08-09T00:00:00	8:00:00	9:00:00	9	6	677	1800	0.38
3701	TF1-TW-03 ถ.ทางคู่ขนานบรมราชชนนี-ถ.พุทธมณฑลสาย 2	13.784222	100.394883	bma	working	2022-08-09T00:00:00	9:00:00	10:00:00	7	3	726	1800	0.40
3702	TF1-TW-03 ถ.ทางคู่ขนานบรมราชชนนี-ถ.พุทธมณฑลสาย 2	13.784222	100.394883	bma	working	2022-08-09T00:00:00	10:00:00	11:00:00	6	5	659	1800	0.37
3703	TF1-TW-03 ถ.ทางคู่ขนานบรมราชชนนี-ถ.พุทธมณฑลสาย 2	13.784222	100.394883	bma	working	2022-08-09T00:00:00	11:00:00	12:00:00	101	14	1163	1800	0.65
3704	TF1-TW-03 ถ.ทางคู่ขนานบรมราชชนนี-ถ.พุทธมณฑลสาย 2	13.784222	100.394883	bma	working	2022-08-09T00:00:00	12:00:00	13:00:00	8	5	534	1800	0.30
3705	TF1-TW-03 ถ.ทางคู่ขนานบรมราชชนนี-ถ.พุทธมณฑลสาย 2	13.784222	100.394883	bma	working	2022-08-09T00:00:00	13:00:00	14:00:00	5	2	508	1800	0.28
3706	TF1-TW-03 ถ.ทางคู่ขนานบรมราชชนนี-ถ.พุทธมณฑลสาย 2	13.784222	100.394883	bma	working	2022-08-09T00:00:00	14:00:00	15:00:00	8	2	613	1800	0.34
3707	TF1-TW-03 ถ.ทางคู่ขนานบรมราชชนนี-ถ.พุทธมณฑลสาย 2	13.784222	100.394883	bma	working	2022-08-09T00:00:00	15:00:00	16:00:00	4	3	503	1800	0.28
3708	TF1-TW-03 ถ.ทางคู่ขนานบรมราชชนนี-ถ.พุทธมณฑลสาย 2	13.784222	100.394883	bma	working	2022-08-09T00:00:00	16:00:00	17:00:00	122	10	1033	1800	0.57
3709	TF1-TW-03 ถ.ทางคู่ขนานบรมราชชนนี-ถ.พุทธมณฑลสาย 2	13.784222	100.394883	bma	working	2022-08-09T00:00:00	17:00:00	18:00:00	60	5	1122	1800	0.62
3710	TF1-TW-03 ถ.ทางคู่ขนานบรมราชชนนี-ถ.พุทธมณฑลสาย 2	13.784222	100.394883	bma	working	2022-08-09T00:00:00	18:00:00	19:00:00	31	7	1662	1800	0.92
3711	TF1-TW-04 ถ.เพชรเกษม - ถ.เพชรเกษม 69	13.708085	100.373659	bma	working	2022-05-09T00:00:00	5:00:00	6:00:00	90	29	938	4500	0.21
3712	TF1-TW-04 ถ.เพชรเกษม - ถ.เพชรเกษม 69	13.708085	100.373659	bma	working	2022-05-09T00:00:00	6:00:00	7:00:00	64	84	2795	4500	0.62
3713	TF1-TW-04 ถ.เพชรเกษม - ถ.เพชรเกษม 69	13.708085	100.373659	bma	working	2022-05-09T00:00:00	7:00:00	8:00:00	89	76	3349	4500	0.74
3714	TF1-TW-04 ถ.เพชรเกษม - ถ.เพชรเกษม 69	13.708085	100.373659	bma	working	2022-05-09T00:00:00	8:00:00	9:00:00	106	85	2088	4500	0.46
3715	TF1-TW-04 ถ.เพชรเกษม - ถ.เพชรเกษม 69	13.708085	100.373659	bma	working	2022-05-09T00:00:00	9:00:00	10:00:00	102	85	1890	4500	0.42
3716	TF1-TW-04 ถ.เพชรเกษม - ถ.เพชรเกษม 69	13.708085	100.373659	bma	working	2022-05-09T00:00:00	10:00:00	11:00:00	102	85	1901	4500	0.42
3717	TF1-TW-04 ถ.เพชรเกษม - ถ.เพชรเกษม 69	13.708085	100.373659	bma	working	2022-05-09T00:00:00	11:00:00	12:00:00	67	42	2851	4500	0.63
3718	TF1-TW-04 ถ.เพชรเกษม - ถ.เพชรเกษม 69	13.708085	100.373659	bma	working	2022-05-09T00:00:00	12:00:00	13:00:00	101	86	1920	4500	0.43
3719	TF1-TW-04 ถ.เพชรเกษม - ถ.เพชรเกษม 69	13.708085	100.373659	bma	working	2022-05-09T00:00:00	13:00:00	14:00:00	104	83	1874	4500	0.42
3720	TF1-TW-04 ถ.เพชรเกษม - ถ.เพชรเกษม 69	13.708085	100.373659	bma	working	2022-05-09T00:00:00	14:00:00	15:00:00	99	82	1921	4500	0.43
3721	TF1-TW-04 ถ.เพชรเกษม - ถ.เพชรเกษม 69	13.708085	100.373659	bma	working	2022-05-09T00:00:00	15:00:00	16:00:00	104	85	1767	4500	0.39
3722	TF1-TW-04 ถ.เพชรเกษม - ถ.เพชรเกษม 69	13.708085	100.373659	bma	working	2022-05-09T00:00:00	16:00:00	17:00:00	78	101	3771	4500	0.84
3723	TF1-TW-04 ถ.เพชรเกษม - ถ.เพชรเกษม 69	13.708085	100.373659	bma	working	2022-05-09T00:00:00	17:00:00	18:00:00	80	104	2989	4500	0.66
3724	TF1-TW-04 ถ.เพชรเกษม - ถ.เพชรเกษม 69	13.708085	100.373659	bma	working	2022-05-09T00:00:00	18:00:00	19:00:00	92	97	1503	4500	0.33
3725	TF1-TW-04 ถ.เพชรเกษม - ถ.เพชรเกษม 69	13.708085	100.373659	bma	working	2022-06-09T00:00:00	5:00:00	6:00:00	117	20	835	4500	0.19
3726	TF1-TW-04 ถ.เพชรเกษม - ถ.เพชรเกษม 69	13.708085	100.373659	bma	working	2022-06-09T00:00:00	6:00:00	7:00:00	82	65	2450	4500	0.54
3727	TF1-TW-04 ถ.เพชรเกษม - ถ.เพชรเกษม 69	13.708085	100.373659	bma	working	2022-06-09T00:00:00	7:00:00	8:00:00	97	93	2757	4500	0.61
3728	TF1-TW-04 ถ.เพชรเกษม - ถ.เพชรเกษม 69	13.708085	100.373659	bma	working	2022-06-09T00:00:00	8:00:00	9:00:00	97	125	1837	4500	0.41
3729	TF1-TW-04 ถ.เพชรเกษม - ถ.เพชรเกษม 69	13.708085	100.373659	bma	working	2022-06-09T00:00:00	9:00:00	10:00:00	87	116	1713	4500	0.38
3730	TF1-TW-04 ถ.เพชรเกษม - ถ.เพชรเกษม 69	13.708085	100.373659	bma	working	2022-06-09T00:00:00	10:00:00	11:00:00	90	119	1580	4500	0.35
3731	TF1-TW-04 ถ.เพชรเกษม - ถ.เพชรเกษม 69	13.708085	100.373659	bma	working	2022-06-09T00:00:00	11:00:00	12:00:00	72	45	2725	4500	0.61
3732	TF1-TW-04 ถ.เพชรเกษม - ถ.เพชรเกษม 69	13.708085	100.373659	bma	working	2022-06-09T00:00:00	12:00:00	13:00:00	93	117	1536	4500	0.34
3733	TF1-TW-04 ถ.เพชรเกษม - ถ.เพชรเกษม 69	13.708085	100.373659	bma	working	2022-06-09T00:00:00	13:00:00	14:00:00	90	125	1673	4500	0.37
3734	TF1-TW-04 ถ.เพชรเกษม - ถ.เพชรเกษม 69	13.708085	100.373659	bma	working	2022-06-09T00:00:00	14:00:00	15:00:00	95	114	1713	4500	0.38
3735	TF1-TW-04 ถ.เพชรเกษม - ถ.เพชรเกษม 69	13.708085	100.373659	bma	working	2022-06-09T00:00:00	15:00:00	16:00:00	90	118	1595	4500	0.35
3736	TF1-TW-04 ถ.เพชรเกษม - ถ.เพชรเกษม 69	13.708085	100.373659	bma	working	2022-06-09T00:00:00	16:00:00	17:00:00	86	85	3093	4500	0.69
3737	TF1-TW-04 ถ.เพชรเกษม - ถ.เพชรเกษม 69	13.708085	100.373659	bma	working	2022-06-09T00:00:00	17:00:00	18:00:00	98	66	2624	4500	0.58
3738	TF1-TW-04 ถ.เพชรเกษม - ถ.เพชรเกษม 69	13.708085	100.373659	bma	working	2022-06-09T00:00:00	18:00:00	19:00:00	100	81	1637	4500	0.36
3739	TF1-TW-04 ถ.เพชรเกษม - ถ.เพชรเกษม 69	13.708085	100.373659	bma	working	2022-07-09T00:00:00	5:00:00	6:00:00	154	17	602	4500	0.13
3740	TF1-TW-04 ถ.เพชรเกษม - ถ.เพชรเกษม 69	13.708085	100.373659	bma	working	2022-07-09T00:00:00	6:00:00	7:00:00	108	53	1789	4500	0.40
3741	TF1-TW-04 ถ.เพชรเกษม - ถ.เพชรเกษม 69	13.708085	100.373659	bma	working	2022-07-09T00:00:00	7:00:00	8:00:00	102	103	2250	4500	0.50
3742	TF1-TW-04 ถ.เพชรเกษม - ถ.เพชรเกษม 69	13.708085	100.373659	bma	working	2022-07-09T00:00:00	8:00:00	9:00:00	89	155	1331	4500	0.30
3743	TF1-TW-04 ถ.เพชรเกษม - ถ.เพชรเกษม 69	13.708085	100.373659	bma	working	2022-07-09T00:00:00	9:00:00	10:00:00	79	162	1409	4500	0.31
3744	TF1-TW-04 ถ.เพชรเกษม - ถ.เพชรเกษม 69	13.708085	100.373659	bma	working	2022-07-09T00:00:00	10:00:00	11:00:00	81	152	1110	4500	0.25
3745	TF1-TW-04 ถ.เพชรเกษม - ถ.เพชรเกษม 69	13.708085	100.373659	bma	working	2022-07-09T00:00:00	11:00:00	12:00:00	84	50	2732	4500	0.61
3746	TF1-TW-04 ถ.เพชรเกษม - ถ.เพชรเกษม 69	13.708085	100.373659	bma	working	2022-07-09T00:00:00	12:00:00	13:00:00	82	160	1019	4500	0.23
3747	TF1-TW-04 ถ.เพชรเกษม - ถ.เพชรเกษม 69	13.708085	100.373659	bma	working	2022-07-09T00:00:00	13:00:00	14:00:00	77	160	1369	4500	0.30
3748	TF1-TW-04 ถ.เพชรเกษม - ถ.เพชรเกษม 69	13.708085	100.373659	bma	working	2022-07-09T00:00:00	14:00:00	15:00:00	84	159	1392	4500	0.31
3749	TF1-TW-04 ถ.เพชรเกษม - ถ.เพชรเกษม 69	13.708085	100.373659	bma	working	2022-07-09T00:00:00	15:00:00	16:00:00	83	155	1272	4500	0.28
3750	TF1-TW-04 ถ.เพชรเกษม - ถ.เพชรเกษม 69	13.708085	100.373659	bma	working	2022-07-09T00:00:00	16:00:00	17:00:00	103	78	2436	4500	0.54
3751	TF1-TW-04 ถ.เพชรเกษม - ถ.เพชรเกษม 69	13.708085	100.373659	bma	working	2022-07-09T00:00:00	17:00:00	18:00:00	113	28	2551	4500	0.57
3752	TF1-TW-04 ถ.เพชรเกษม - ถ.เพชรเกษม 69	13.708085	100.373659	bma	working	2022-07-09T00:00:00	18:00:00	19:00:00	107	69	1526	4500	0.34
3753	TF1-TW-04 ถ.เพชรเกษม - ถ.เพชรเกษม 69	13.708085	100.373659	bma	working	2022-08-09T00:00:00	5:00:00	6:00:00	148	19	606	4500	0.13
3754	TF1-TW-04 ถ.เพชรเกษม - ถ.เพชรเกษม 69	13.708085	100.373659	bma	working	2022-08-09T00:00:00	6:00:00	7:00:00	105	54	1786	4500	0.40
3755	TF1-TW-04 ถ.เพชรเกษม - ถ.เพชรเกษม 69	13.708085	100.373659	bma	working	2022-08-09T00:00:00	7:00:00	8:00:00	107	107	2426	4500	0.54
3756	TF1-TW-04 ถ.เพชรเกษม - ถ.เพชรเกษม 69	13.708085	100.373659	bma	working	2022-08-09T00:00:00	8:00:00	9:00:00	87	159	1294	4500	0.29
3757	TF1-TW-04 ถ.เพชรเกษม - ถ.เพชรเกษม 69	13.708085	100.373659	bma	working	2022-08-09T00:00:00	9:00:00	10:00:00	76	159	1400	4500	0.31
3758	TF1-TW-04 ถ.เพชรเกษม - ถ.เพชรเกษม 69	13.708085	100.373659	bma	working	2022-08-09T00:00:00	10:00:00	11:00:00	77	160	1125	4500	0.25
3759	TF1-TW-04 ถ.เพชรเกษม - ถ.เพชรเกษม 69	13.708085	100.373659	bma	working	2022-08-09T00:00:00	11:00:00	12:00:00	79	51	2756	4500	0.61
3760	TF1-TW-04 ถ.เพชรเกษม - ถ.เพชรเกษม 69	13.708085	100.373659	bma	working	2022-08-09T00:00:00	12:00:00	13:00:00	87	152	991	4500	0.22
3761	TF1-TW-04 ถ.เพชรเกษม - ถ.เพชรเกษม 69	13.708085	100.373659	bma	working	2022-08-09T00:00:00	13:00:00	14:00:00	81	163	1331	4500	0.30
3762	TF1-TW-04 ถ.เพชรเกษม - ถ.เพชรเกษม 69	13.708085	100.373659	bma	working	2022-08-09T00:00:00	14:00:00	15:00:00	79	157	1351	4500	0.30
3763	TF1-TW-04 ถ.เพชรเกษม - ถ.เพชรเกษม 69	13.708085	100.373659	bma	working	2022-08-09T00:00:00	15:00:00	16:00:00	85	159	1258	4500	0.28
3764	TF1-TW-04 ถ.เพชรเกษม - ถ.เพชรเกษม 69	13.708085	100.373659	bma	working	2022-08-09T00:00:00	16:00:00	17:00:00	98	75	2618	4500	0.58
3765	TF1-TW-04 ถ.เพชรเกษม - ถ.เพชรเกษม 69	13.708085	100.373659	bma	working	2022-08-09T00:00:00	17:00:00	18:00:00	115	29	2496	4500	0.55
3766	TF1-TW-04 ถ.เพชรเกษม - ถ.เพชรเกษม 69	13.708085	100.373659	bma	working	2022-08-09T00:00:00	18:00:00	19:00:00	107	69	1584	4500	0.35
3767	TF1-WL-01 ถ. ประดิษฐ์มนูธรรม-ปากซอยรามคำแหง 21	13.76684	100.602283	bma	working	2022-05-09T00:00:00	5:00:00	6:00:00	154	5	1039	3600	0.29
3768	TF1-WL-01 ถ. ประดิษฐ์มนูธรรม-ปากซอยรามคำแหง 21	13.76684	100.602283	bma	working	2022-05-09T00:00:00	6:00:00	7:00:00	110	14	3171	3600	0.88
3769	TF1-WL-01 ถ. ประดิษฐ์มนูธรรม-ปากซอยรามคำแหง 21	13.76684	100.602283	bma	working	2022-05-09T00:00:00	7:00:00	8:00:00	101	92	2144	3600	0.60
3770	TF1-WL-01 ถ. ประดิษฐ์มนูธรรม-ปากซอยรามคำแหง 21	13.76684	100.602283	bma	working	2022-05-09T00:00:00	8:00:00	9:00:00	84	201	2150	3600	0.60
3771	TF1-WL-01 ถ. ประดิษฐ์มนูธรรม-ปากซอยรามคำแหง 21	13.76684	100.602283	bma	working	2022-05-09T00:00:00	9:00:00	10:00:00	76	201	3090	3600	0.86
3772	TF1-WL-01 ถ. ประดิษฐ์มนูธรรม-ปากซอยรามคำแหง 21	13.76684	100.602283	bma	working	2022-05-09T00:00:00	10:00:00	11:00:00	78	201	2426	3600	0.67
3773	TF1-WL-01 ถ. ประดิษฐ์มนูธรรม-ปากซอยรามคำแหง 21	13.76684	100.602283	bma	working	2022-05-09T00:00:00	11:00:00	12:00:00	99	167	3238	3600	0.90
3774	TF1-WL-01 ถ. ประดิษฐ์มนูธรรม-ปากซอยรามคำแหง 21	13.76684	100.602283	bma	working	2022-05-09T00:00:00	12:00:00	13:00:00	80	197	2265	3600	0.63
3775	TF1-WL-01 ถ. ประดิษฐ์มนูธรรม-ปากซอยรามคำแหง 21	13.76684	100.602283	bma	working	2022-05-09T00:00:00	13:00:00	14:00:00	80	202	3095	3600	0.86
3776	TF1-WL-01 ถ. ประดิษฐ์มนูธรรม-ปากซอยรามคำแหง 21	13.76684	100.602283	bma	working	2022-05-09T00:00:00	14:00:00	15:00:00	77	202	3031	3600	0.84
3777	TF1-WL-01 ถ. ประดิษฐ์มนูธรรม-ปากซอยรามคำแหง 21	13.76684	100.602283	bma	working	2022-05-09T00:00:00	15:00:00	16:00:00	78	202	2053	3600	0.57
3778	TF1-WL-01 ถ. ประดิษฐ์มนูธรรม-ปากซอยรามคำแหง 21	13.76684	100.602283	bma	working	2022-05-09T00:00:00	16:00:00	17:00:00	87	68	2906	3600	0.81
3779	TF1-WL-01 ถ. ประดิษฐ์มนูธรรม-ปากซอยรามคำแหง 21	13.76684	100.602283	bma	working	2022-05-09T00:00:00	17:00:00	18:00:00	110	135	810	3600	0.23
3780	TF1-WL-01 ถ. ประดิษฐ์มนูธรรม-ปากซอยรามคำแหง 21	13.76684	100.602283	bma	working	2022-05-09T00:00:00	18:00:00	19:00:00	70	68	4619	3600	1.28
3781	TF1-WL-01 ถ. ประดิษฐ์มนูธรรม-ปากซอยรามคำแหง 21	13.76684	100.602283	bma	working	2022-06-09T00:00:00	5:00:00	6:00:00	144	10	809	3600	0.22
3782	TF1-WL-01 ถ. ประดิษฐ์มนูธรรม-ปากซอยรามคำแหง 21	13.76684	100.602283	bma	working	2022-06-09T00:00:00	6:00:00	7:00:00	100	33	2502	3600	0.70
3783	TF1-WL-01 ถ. ประดิษฐ์มนูธรรม-ปากซอยรามคำแหง 21	13.76684	100.602283	bma	working	2022-06-09T00:00:00	7:00:00	8:00:00	107	112	1858	3600	0.52
3784	TF1-WL-01 ถ. ประดิษฐ์มนูธรรม-ปากซอยรามคำแหง 21	13.76684	100.602283	bma	working	2022-06-09T00:00:00	8:00:00	9:00:00	91	201	2551	3600	0.71
3785	TF1-WL-01 ถ. ประดิษฐ์มนูธรรม-ปากซอยรามคำแหง 21	13.76684	100.602283	bma	working	2022-06-09T00:00:00	9:00:00	10:00:00	90	202	3481	3600	0.97
3786	TF1-WL-01 ถ. ประดิษฐ์มนูธรรม-ปากซอยรามคำแหง 21	13.76684	100.602283	bma	working	2022-06-09T00:00:00	10:00:00	11:00:00	89	202	2560	3600	0.71
3787	TF1-WL-01 ถ. ประดิษฐ์มนูธรรม-ปากซอยรามคำแหง 21	13.76684	100.602283	bma	working	2022-06-09T00:00:00	11:00:00	12:00:00	101	105	3345	3600	0.93
3788	TF1-WL-01 ถ. ประดิษฐ์มนูธรรม-ปากซอยรามคำแหง 21	13.76684	100.602283	bma	working	2022-06-09T00:00:00	12:00:00	13:00:00	93	199	2483	3600	0.69
3789	TF1-WL-01 ถ. ประดิษฐ์มนูธรรม-ปากซอยรามคำแหง 21	13.76684	100.602283	bma	working	2022-06-09T00:00:00	13:00:00	14:00:00	91	200	3420	3600	0.95
3790	TF1-WL-01 ถ. ประดิษฐ์มนูธรรม-ปากซอยรามคำแหง 21	13.76684	100.602283	bma	working	2022-06-09T00:00:00	14:00:00	15:00:00	88	195	3369	3600	0.94
3791	TF1-WL-01 ถ. ประดิษฐ์มนูธรรม-ปากซอยรามคำแหง 21	13.76684	100.602283	bma	working	2022-06-09T00:00:00	15:00:00	16:00:00	90	201	2386	3600	0.66
3792	TF1-WL-01 ถ. ประดิษฐ์มนูธรรม-ปากซอยรามคำแหง 21	13.76684	100.602283	bma	working	2022-06-09T00:00:00	16:00:00	17:00:00	86	66	2918	3600	0.81
3793	TF1-WL-01 ถ. ประดิษฐ์มนูธรรม-ปากซอยรามคำแหง 21	13.76684	100.602283	bma	working	2022-06-09T00:00:00	17:00:00	18:00:00	84	102	1344	3600	0.37
3794	TF1-WL-01 ถ. ประดิษฐ์มนูธรรม-ปากซอยรามคำแหง 21	13.76684	100.602283	bma	working	2022-06-09T00:00:00	18:00:00	19:00:00	89	76	3508	3600	0.97
3795	TF1-WL-01 ถ. ประดิษฐ์มนูธรรม-ปากซอยรามคำแหง 21	13.76684	100.602283	bma	working	2022-07-09T00:00:00	5:00:00	6:00:00	127	18	436	3600	0.12
3796	TF1-WL-01 ถ. ประดิษฐ์มนูธรรม-ปากซอยรามคำแหง 21	13.76684	100.602283	bma	working	2022-07-09T00:00:00	6:00:00	7:00:00	89	56	1391	3600	0.39
3797	TF1-WL-01 ถ. ประดิษฐ์มนูธรรม-ปากซอยรามคำแหง 21	13.76684	100.602283	bma	working	2022-07-09T00:00:00	7:00:00	8:00:00	108	137	1611	3600	0.45
3798	TF1-WL-01 ถ. ประดิษฐ์มนูธรรม-ปากซอยรามคำแหง 21	13.76684	100.602283	bma	working	2022-07-09T00:00:00	8:00:00	9:00:00	98	202	2865	3600	0.80
3799	TF1-WL-01 ถ. ประดิษฐ์มนูธรรม-ปากซอยรามคำแหง 21	13.76684	100.602283	bma	working	2022-07-09T00:00:00	9:00:00	10:00:00	102	192	3734	3600	1.04
3800	TF1-WL-01 ถ. ประดิษฐ์มนูธรรม-ปากซอยรามคำแหง 21	13.76684	100.602283	bma	working	2022-07-09T00:00:00	10:00:00	11:00:00	95	202	2561	3600	0.71
3801	TF1-WL-01 ถ. ประดิษฐ์มนูธรรม-ปากซอยรามคำแหง 21	13.76684	100.602283	bma	working	2022-07-09T00:00:00	11:00:00	12:00:00	103	53	3482	3600	0.97
3802	TF1-WL-01 ถ. ประดิษฐ์มนูธรรม-ปากซอยรามคำแหง 21	13.76684	100.602283	bma	working	2022-07-09T00:00:00	12:00:00	13:00:00	104	194	2603	3600	0.72
3803	TF1-WL-01 ถ. ประดิษฐ์มนูธรรม-ปากซอยรามคำแหง 21	13.76684	100.602283	bma	working	2022-07-09T00:00:00	13:00:00	14:00:00	103	201	3660	3600	1.02
3804	TF1-WL-01 ถ. ประดิษฐ์มนูธรรม-ปากซอยรามคำแหง 21	13.76684	100.602283	bma	working	2022-07-09T00:00:00	14:00:00	15:00:00	99	189	3676	3600	1.02
3805	TF1-WL-01 ถ. ประดิษฐ์มนูธรรม-ปากซอยรามคำแหง 21	13.76684	100.602283	bma	working	2022-07-09T00:00:00	15:00:00	16:00:00	103	198	2701	3600	0.75
3806	TF1-WL-01 ถ. ประดิษฐ์มนูธรรม-ปากซอยรามคำแหง 21	13.76684	100.602283	bma	working	2022-07-09T00:00:00	16:00:00	17:00:00	81	70	2894	3600	0.80
3807	TF1-WL-01 ถ. ประดิษฐ์มนูธรรม-ปากซอยรามคำแหง 21	13.76684	100.602283	bma	working	2022-07-09T00:00:00	17:00:00	18:00:00	58	72	1868	3600	0.52
3808	TF1-WL-01 ถ. ประดิษฐ์มนูธรรม-ปากซอยรามคำแหง 21	13.76684	100.602283	bma	working	2022-07-09T00:00:00	18:00:00	19:00:00	108	90	2408	3600	0.67
3809	TF1-WL-01 ถ. ประดิษฐ์มนูธรรม-ปากซอยรามคำแหง 21	13.76684	100.602283	bma	working	2022-08-09T00:00:00	5:00:00	6:00:00	136	17	1235	3600	0.34
3810	TF1-WL-01 ถ. ประดิษฐ์มนูธรรม-ปากซอยรามคำแหง 21	13.76684	100.602283	bma	working	2022-08-09T00:00:00	6:00:00	7:00:00	96	48	3826	3600	1.06
3811	TF1-WL-01 ถ. ประดิษฐ์มนูธรรม-ปากซอยรามคำแหง 21	13.76684	100.602283	bma	working	2022-08-09T00:00:00	7:00:00	8:00:00	86	153	1813	3600	0.50
3812	TF1-WL-01 ถ. ประดิษฐ์มนูธรรม-ปากซอยรามคำแหง 21	13.76684	100.602283	bma	working	2022-08-09T00:00:00	8:00:00	9:00:00	100	149	4061	3600	1.13
3813	TF1-WL-01 ถ. ประดิษฐ์มนูธรรม-ปากซอยรามคำแหง 21	13.76684	100.602283	bma	working	2022-08-09T00:00:00	9:00:00	10:00:00	96	148	4634	3600	1.29
3814	TF1-WL-01 ถ. ประดิษฐ์มนูธรรม-ปากซอยรามคำแหง 21	13.76684	100.602283	bma	working	2022-08-09T00:00:00	10:00:00	11:00:00	90	145	3700	3600	1.03
3815	TF1-WL-01 ถ. ประดิษฐ์มนูธรรม-ปากซอยรามคำแหง 21	13.76684	100.602283	bma	working	2022-08-09T00:00:00	11:00:00	12:00:00	84	92	2947	3600	0.82
3816	TF1-WL-01 ถ. ประดิษฐ์มนูธรรม-ปากซอยรามคำแหง 21	13.76684	100.602283	bma	working	2022-08-09T00:00:00	12:00:00	13:00:00	96	143	3619	3600	1.01
3817	TF1-WL-01 ถ. ประดิษฐ์มนูธรรม-ปากซอยรามคำแหง 21	13.76684	100.602283	bma	working	2022-08-09T00:00:00	13:00:00	14:00:00	94	145	4598	3600	1.28
3818	TF1-WL-01 ถ. ประดิษฐ์มนูธรรม-ปากซอยรามคำแหง 21	13.76684	100.602283	bma	working	2022-08-09T00:00:00	14:00:00	15:00:00	93	152	4535	3600	1.26
3819	TF1-WL-01 ถ. ประดิษฐ์มนูธรรม-ปากซอยรามคำแหง 21	13.76684	100.602283	bma	working	2022-08-09T00:00:00	15:00:00	16:00:00	97	155	3700	3600	1.03
3820	TF1-WL-01 ถ. ประดิษฐ์มนูธรรม-ปากซอยรามคำแหง 21	13.76684	100.602283	bma	working	2022-08-09T00:00:00	16:00:00	17:00:00	92	106	2169	3600	0.60
3821	TF1-WL-01 ถ. ประดิษฐ์มนูธรรม-ปากซอยรามคำแหง 21	13.76684	100.602283	bma	working	2022-08-09T00:00:00	17:00:00	18:00:00	86	69	3154	3600	0.88
3822	TF1-WL-01 ถ. ประดิษฐ์มนูธรรม-ปากซอยรามคำแหง 21	13.76684	100.602283	bma	working	2022-08-09T00:00:00	18:00:00	19:00:00	90	82	2449	3600	0.68
3823	TF1-WL-01 ถ. ประดิษฐ์มนูธรรม-ปากซอยรามคำแหง 21	13.76684	100.602283	bma	working	2022-09-09T00:00:00	5:00:00	6:00:00	134	14	2011	3600	0.56
3824	TF1-WL-01 ถ. ประดิษฐ์มนูธรรม-ปากซอยรามคำแหง 21	13.76684	100.602283	bma	working	2022-09-09T00:00:00	6:00:00	7:00:00	95	40	6229	3600	1.73
3825	TF1-WL-01 ถ. ประดิษฐ์มนูธรรม-ปากซอยรามคำแหง 21	13.76684	100.602283	bma	working	2022-09-09T00:00:00	7:00:00	8:00:00	80	171	2003	3600	0.56
3826	TF1-WL-01 ถ. ประดิษฐ์มนูธรรม-ปากซอยรามคำแหง 21	13.76684	100.602283	bma	working	2022-09-09T00:00:00	8:00:00	9:00:00	89	95	5238	3600	1.46
3827	TF1-WL-01 ถ. ประดิษฐ์มนูธรรม-ปากซอยรามคำแหง 21	13.76684	100.602283	bma	working	2022-09-09T00:00:00	9:00:00	10:00:00	85	92	5474	3600	1.52
3828	TF1-WL-01 ถ. ประดิษฐ์มนูธรรม-ปากซอยรามคำแหง 21	13.76684	100.602283	bma	working	2022-09-09T00:00:00	10:00:00	11:00:00	89	92	4687	3600	1.30
3829	TF1-WL-01 ถ. ประดิษฐ์มนูธรรม-ปากซอยรามคำแหง 21	13.76684	100.602283	bma	working	2022-09-09T00:00:00	11:00:00	12:00:00	70	122	2413	3600	0.67
3830	TF1-WL-01 ถ. ประดิษฐ์มนูธรรม-ปากซอยรามคำแหง 21	13.76684	100.602283	bma	working	2022-09-09T00:00:00	12:00:00	13:00:00	90	95	4579	3600	1.27
3831	TF1-WL-01 ถ. ประดิษฐ์มนูธรรม-ปากซอยรามคำแหง 21	13.76684	100.602283	bma	working	2022-09-09T00:00:00	13:00:00	14:00:00	92	93	5447	3600	1.51
3832	TF1-WL-01 ถ. ประดิษฐ์มนูธรรม-ปากซอยรามคำแหง 21	13.76684	100.602283	bma	working	2022-09-09T00:00:00	14:00:00	15:00:00	84	91	5331	3600	1.48
3833	TF1-WL-01 ถ. ประดิษฐ์มนูธรรม-ปากซอยรามคำแหง 21	13.76684	100.602283	bma	working	2022-09-09T00:00:00	15:00:00	16:00:00	89	98	4708	3600	1.31
3834	TF1-WL-01 ถ. ประดิษฐ์มนูธรรม-ปากซอยรามคำแหง 21	13.76684	100.602283	bma	working	2022-09-09T00:00:00	16:00:00	17:00:00	103	143	1373	3600	0.38
3835	TF1-WL-01 ถ. ประดิษฐ์มนูธรรม-ปากซอยรามคำแหง 21	13.76684	100.602283	bma	working	2022-09-09T00:00:00	17:00:00	18:00:00	104	66	4321	3600	1.20
3836	TF1-WL-01 ถ. ประดิษฐ์มนูธรรม-ปากซอยรามคำแหง 21	13.76684	100.602283	bma	working	2022-09-09T00:00:00	18:00:00	19:00:00	78	74	2352	3600	0.65
3837	TF1-WL-01 ถ. ประดิษฐ์มนูธรรม-ปากซอยรามคำแหง 21	13.76684	100.602283	bma	working	2022-10-09T00:00:00	5:00:00	6:00:00	142	4	270	3600	0.08
3838	TF1-WL-01 ถ. ประดิษฐ์มนูธรรม-ปากซอยรามคำแหง 21	13.76684	100.602283	bma	holiday	2022-10-09T00:00:00	6:00:00	7:00:00	98	13	793	3600	0.22
3839	TF1-WL-01 ถ. ประดิษฐ์มนูธรรม-ปากซอยรามคำแหง 21	13.76684	100.602283	bma	holiday	2022-10-09T00:00:00	7:00:00	8:00:00	80	20	2398	3600	0.67
3840	TF1-WL-01 ถ. ประดิษฐ์มนูธรรม-ปากซอยรามคำแหง 21	13.76684	100.602283	bma	holiday	2022-10-09T00:00:00	8:00:00	9:00:00	71	71	2908	3600	0.81
3841	TF1-WL-01 ถ. ประดิษฐ์มนูธรรม-ปากซอยรามคำแหง 21	13.76684	100.602283	bma	working	2022-10-09T00:00:00	9:00:00	10:00:00	68	69	2890	3600	0.80
3842	TF1-WL-01 ถ. ประดิษฐ์มนูธรรม-ปากซอยรามคำแหง 21	13.76684	100.602283	bma	working	2022-10-09T00:00:00	10:00:00	11:00:00	65	67	3098	3600	0.86
3843	TF1-WL-01 ถ. ประดิษฐ์มนูธรรม-ปากซอยรามคำแหง 21	13.76684	100.602283	bma	holiday	2022-10-09T00:00:00	11:00:00	12:00:00	87	155	1092	3600	0.30
3844	TF1-WL-01 ถ. ประดิษฐ์มนูธรรม-ปากซอยรามคำแหง 21	13.76684	100.602283	bma	working	2022-10-09T00:00:00	12:00:00	13:00:00	66	65	3063	3600	0.85
3845	TF1-WL-01 ถ. ประดิษฐ์มนูธรรม-ปากซอยรามคำแหง 21	13.76684	100.602283	bma	working	2022-10-09T00:00:00	13:00:00	14:00:00	62	65	3046	3600	0.85
3846	TF1-WL-01 ถ. ประดิษฐ์มนูธรรม-ปากซอยรามคำแหง 21	13.76684	100.602283	bma	working	2022-10-09T00:00:00	14:00:00	15:00:00	67	63	2868	3600	0.80
3847	TF1-WL-01 ถ. ประดิษฐ์มนูธรรม-ปากซอยรามคำแหง 21	13.76684	100.602283	bma	working	2022-10-09T00:00:00	15:00:00	16:00:00	67	64	2734	3600	0.76
3848	TF1-WL-01 ถ. ประดิษฐ์มนูธรรม-ปากซอยรามคำแหง 21	13.76684	100.602283	bma	holiday	2022-10-09T00:00:00	16:00:00	17:00:00	104	67	3204	3600	0.89
3849	TF1-WL-01 ถ. ประดิษฐ์มนูธรรม-ปากซอยรามคำแหง 21	13.76684	100.602283	bma	holiday	2022-10-09T00:00:00	17:00:00	18:00:00	89	71	2657	3600	0.74
3850	TF1-WL-01 ถ. ประดิษฐ์มนูธรรม-ปากซอยรามคำแหง 21	13.76684	100.602283	bma	holiday	2022-10-09T00:00:00	18:00:00	19:00:00	103	32	884	3600	0.25
3851	TF1-WL-01 ถ. ประดิษฐ์มนูธรรม-ปากซอยรามคำแหง 21	13.76684	100.602283	bma	working	2022-11-09T00:00:00	5:00:00	6:00:00	82	3	133	3600	0.04
3852	TF1-WL-01 ถ. ประดิษฐ์มนูธรรม-ปากซอยรามคำแหง 21	13.76684	100.602283	bma	holiday	2022-11-09T00:00:00	6:00:00	7:00:00	59	8	375	3600	0.10
3853	TF1-WL-01 ถ. ประดิษฐ์มนูธรรม-ปากซอยรามคำแหง 21	13.76684	100.602283	bma	holiday	2022-11-09T00:00:00	7:00:00	8:00:00	50	13	1475	3600	0.41
3854	TF1-WL-01 ถ. ประดิษฐ์มนูธรรม-ปากซอยรามคำแหง 21	13.76684	100.602283	bma	holiday	2022-11-09T00:00:00	8:00:00	9:00:00	41	43	1782	3600	0.50
3855	TF1-WL-01 ถ. ประดิษฐ์มนูธรรม-ปากซอยรามคำแหง 21	13.76684	100.602283	bma	working	2022-11-09T00:00:00	9:00:00	10:00:00	40	41	1791	3600	0.50
3856	TF1-WL-01 ถ. ประดิษฐ์มนูธรรม-ปากซอยรามคำแหง 21	13.76684	100.602283	bma	working	2022-11-09T00:00:00	10:00:00	11:00:00	39	38	1913	3600	0.53
3857	TF1-WL-01 ถ. ประดิษฐ์มนูธรรม-ปากซอยรามคำแหง 21	13.76684	100.602283	bma	holiday	2022-11-09T00:00:00	11:00:00	12:00:00	52	88	662	3600	0.18
3858	TF1-WL-01 ถ. ประดิษฐ์มนูธรรม-ปากซอยรามคำแหง 21	13.76684	100.602283	bma	working	2022-11-09T00:00:00	12:00:00	13:00:00	42	40	1811	3600	0.50
3859	TF1-WL-01 ถ. ประดิษฐ์มนูธรรม-ปากซอยรามคำแหง 21	13.76684	100.602283	bma	working	2022-11-09T00:00:00	13:00:00	14:00:00	40	40	1814	3600	0.50
3860	TF1-WL-01 ถ. ประดิษฐ์มนูธรรม-ปากซอยรามคำแหง 21	13.76684	100.602283	bma	working	2022-11-09T00:00:00	14:00:00	15:00:00	38	40	1737	3600	0.48
3861	TF1-WL-01 ถ. ประดิษฐ์มนูธรรม-ปากซอยรามคำแหง 21	13.76684	100.602283	bma	working	2022-11-09T00:00:00	15:00:00	16:00:00	39	40	1676	3600	0.47
3862	TF1-WL-01 ถ. ประดิษฐ์มนูธรรม-ปากซอยรามคำแหง 21	13.76684	100.602283	bma	holiday	2022-11-09T00:00:00	16:00:00	17:00:00	59	39	1961	3600	0.54
3863	TF1-WL-01 ถ. ประดิษฐ์มนูธรรม-ปากซอยรามคำแหง 21	13.76684	100.602283	bma	holiday	2022-11-09T00:00:00	17:00:00	18:00:00	55	44	1654	3600	0.46
3864	TF1-WL-01 ถ. ประดิษฐ์มนูธรรม-ปากซอยรามคำแหง 21	13.76684	100.602283	bma	holiday	2022-11-09T00:00:00	18:00:00	19:00:00	64	19	597	3600	0.17
3865	TF1-WL-02 ถ.ลาดพร้าว -ปากซอยลาดพร้าว 81	13.786418	100.609083	bma	working	2022-05-09T00:00:00	5:00:00	6:00:00	72	15	579	2700	0.21
3866	TF1-WL-02 ถ.ลาดพร้าว -ปากซอยลาดพร้าว 81	13.786418	100.609083	bma	working	2022-05-09T00:00:00	6:00:00	7:00:00	50	46	1555	2700	0.58
3867	TF1-WL-02 ถ.ลาดพร้าว -ปากซอยลาดพร้าว 81	13.786418	100.609083	bma	working	2022-05-09T00:00:00	7:00:00	8:00:00	19	202	1923	2700	0.71
3868	TF1-WL-02 ถ.ลาดพร้าว -ปากซอยลาดพร้าว 81	13.786418	100.609083	bma	working	2022-05-09T00:00:00	8:00:00	9:00:00	18	202	864	2700	0.32
3869	TF1-WL-02 ถ.ลาดพร้าว -ปากซอยลาดพร้าว 81	13.786418	100.609083	bma	working	2022-05-09T00:00:00	9:00:00	10:00:00	15	201	788	2700	0.29
3870	TF1-WL-02 ถ.ลาดพร้าว -ปากซอยลาดพร้าว 81	13.786418	100.609083	bma	working	2022-05-09T00:00:00	10:00:00	11:00:00	16	201	575	2700	0.21
3871	TF1-WL-02 ถ.ลาดพร้าว -ปากซอยลาดพร้าว 81	13.786418	100.609083	bma	working	2022-05-09T00:00:00	11:00:00	12:00:00	56	42	1495	2700	0.55
3872	TF1-WL-02 ถ.ลาดพร้าว -ปากซอยลาดพร้าว 81	13.786418	100.609083	bma	working	2022-05-09T00:00:00	12:00:00	13:00:00	16	202	634	2700	0.23
3873	TF1-WL-02 ถ.ลาดพร้าว -ปากซอยลาดพร้าว 81	13.786418	100.609083	bma	working	2022-05-09T00:00:00	13:00:00	14:00:00	17	201	885	2700	0.33
3874	TF1-WL-02 ถ.ลาดพร้าว -ปากซอยลาดพร้าว 81	13.786418	100.609083	bma	working	2022-05-09T00:00:00	14:00:00	15:00:00	18	201	830	2700	0.31
3875	TF1-WL-02 ถ.ลาดพร้าว -ปากซอยลาดพร้าว 81	13.786418	100.609083	bma	working	2022-05-09T00:00:00	15:00:00	16:00:00	16	202	869	2700	0.32
3876	TF1-WL-02 ถ.ลาดพร้าว -ปากซอยลาดพร้าว 81	13.786418	100.609083	bma	working	2022-05-09T00:00:00	16:00:00	17:00:00	26	164	1957	2700	0.72
3877	TF1-WL-02 ถ.ลาดพร้าว -ปากซอยลาดพร้าว 81	13.786418	100.609083	bma	working	2022-05-09T00:00:00	17:00:00	18:00:00	28	97	1828	2700	0.68
3878	TF1-WL-02 ถ.ลาดพร้าว -ปากซอยลาดพร้าว 81	13.786418	100.609083	bma	working	2022-05-09T00:00:00	18:00:00	19:00:00	40	133	2094	2700	0.78
3879	TF1-WL-02 ถ.ลาดพร้าว -ปากซอยลาดพร้าว 81	13.786418	100.609083	bma	working	2022-06-09T00:00:00	5:00:00	6:00:00	72	18	659	2700	0.24
3880	TF1-WL-02 ถ.ลาดพร้าว -ปากซอยลาดพร้าว 81	13.786418	100.609083	bma	working	2022-06-09T00:00:00	6:00:00	7:00:00	51	58	1878	2700	0.70
3881	TF1-WL-02 ถ.ลาดพร้าว -ปากซอยลาดพร้าว 81	13.786418	100.609083	bma	working	2022-06-09T00:00:00	7:00:00	8:00:00	20	202	1649	2700	0.61
3882	TF1-WL-02 ถ.ลาดพร้าว -ปากซอยลาดพร้าว 81	13.786418	100.609083	bma	working	2022-06-09T00:00:00	8:00:00	9:00:00	36	186	1033	2700	0.38
3883	TF1-WL-02 ถ.ลาดพร้าว -ปากซอยลาดพร้าว 81	13.786418	100.609083	bma	working	2022-06-09T00:00:00	9:00:00	10:00:00	30	182	826	2700	0.31
3884	TF1-WL-02 ถ.ลาดพร้าว -ปากซอยลาดพร้าว 81	13.786418	100.609083	bma	working	2022-06-09T00:00:00	10:00:00	11:00:00	32	173	671	2700	0.25
3885	TF1-WL-02 ถ.ลาดพร้าว -ปากซอยลาดพร้าว 81	13.786418	100.609083	bma	working	2022-06-09T00:00:00	11:00:00	12:00:00	52	66	1282	2700	0.47
3886	TF1-WL-02 ถ.ลาดพร้าว -ปากซอยลาดพร้าว 81	13.786418	100.609083	bma	working	2022-06-09T00:00:00	12:00:00	13:00:00	35	178	685	2700	0.25
3887	TF1-WL-02 ถ.ลาดพร้าว -ปากซอยลาดพร้าว 81	13.786418	100.609083	bma	working	2022-06-09T00:00:00	13:00:00	14:00:00	34	174	845	2700	0.31
3888	TF1-WL-02 ถ.ลาดพร้าว -ปากซอยลาดพร้าว 81	13.786418	100.609083	bma	working	2022-06-09T00:00:00	14:00:00	15:00:00	32	179	815	2700	0.30
3889	TF1-WL-02 ถ.ลาดพร้าว -ปากซอยลาดพร้าว 81	13.786418	100.609083	bma	working	2022-06-09T00:00:00	15:00:00	16:00:00	31	169	883	2700	0.33
3890	TF1-WL-02 ถ.ลาดพร้าว -ปากซอยลาดพร้าว 81	13.786418	100.609083	bma	working	2022-06-09T00:00:00	16:00:00	17:00:00	37	118	1527	2700	0.57
3891	TF1-WL-02 ถ.ลาดพร้าว -ปากซอยลาดพร้าว 81	13.786418	100.609083	bma	working	2022-06-09T00:00:00	17:00:00	18:00:00	28	126	1687	2700	0.62
3892	TF1-WL-02 ถ.ลาดพร้าว -ปากซอยลาดพร้าว 81	13.786418	100.609083	bma	working	2022-06-09T00:00:00	18:00:00	19:00:00	28	167	1502	2700	0.56
3893	TF1-WL-02 ถ.ลาดพร้าว -ปากซอยลาดพร้าว 81	13.786418	100.609083	bma	working	2022-07-09T00:00:00	5:00:00	6:00:00	67	25	686	2700	0.25
3894	TF1-WL-02 ถ.ลาดพร้าว -ปากซอยลาดพร้าว 81	13.786418	100.609083	bma	working	2022-07-09T00:00:00	6:00:00	7:00:00	48	75	1983	2700	0.73
3895	TF1-WL-02 ถ.ลาดพร้าว -ปากซอยลาดพร้าว 81	13.786418	100.609083	bma	working	2022-07-09T00:00:00	7:00:00	8:00:00	20	202	1346	2700	0.50
3896	TF1-WL-02 ถ.ลาดพร้าว -ปากซอยลาดพร้าว 81	13.786418	100.609083	bma	working	2022-07-09T00:00:00	8:00:00	9:00:00	52	51	1126	2700	0.42
3897	TF1-WL-02 ถ.ลาดพร้าว -ปากซอยลาดพร้าว 81	13.786418	100.609083	bma	working	2022-07-09T00:00:00	9:00:00	10:00:00	47	50	780	2700	0.29
3898	TF1-WL-02 ถ.ลาดพร้าว -ปากซอยลาดพร้าว 81	13.786418	100.609083	bma	working	2022-07-09T00:00:00	10:00:00	11:00:00	46	48	744	2700	0.28
3899	TF1-WL-02 ถ.ลาดพร้าว -ปากซอยลาดพร้าว 81	13.786418	100.609083	bma	working	2022-07-09T00:00:00	11:00:00	12:00:00	49	87	1130	2700	0.42
3900	TF1-WL-02 ถ.ลาดพร้าว -ปากซอยลาดพร้าว 81	13.786418	100.609083	bma	working	2022-07-09T00:00:00	12:00:00	13:00:00	49	51	739	2700	0.27
3901	TF1-WL-02 ถ.ลาดพร้าว -ปากซอยลาดพร้าว 81	13.786418	100.609083	bma	working	2022-07-09T00:00:00	13:00:00	14:00:00	50	50	764	2700	0.28
3902	TF1-WL-02 ถ.ลาดพร้าว -ปากซอยลาดพร้าว 81	13.786418	100.609083	bma	working	2022-07-09T00:00:00	14:00:00	15:00:00	49	49	819	2700	0.30
3903	TF1-WL-02 ถ.ลาดพร้าว -ปากซอยลาดพร้าว 81	13.786418	100.609083	bma	working	2022-07-09T00:00:00	15:00:00	16:00:00	49	47	851	2700	0.32
3904	TF1-WL-02 ถ.ลาดพร้าว -ปากซอยลาดพร้าว 81	13.786418	100.609083	bma	working	2022-07-09T00:00:00	16:00:00	17:00:00	47	78	975	2700	0.36
3905	TF1-WL-02 ถ.ลาดพร้าว -ปากซอยลาดพร้าว 81	13.786418	100.609083	bma	working	2022-07-09T00:00:00	17:00:00	18:00:00	28	161	1478	2700	0.55
3906	TF1-WL-02 ถ.ลาดพร้าว -ปากซอยลาดพร้าว 81	13.786418	100.609083	bma	working	2022-07-09T00:00:00	18:00:00	19:00:00	17	199	687	2700	0.25
3907	TF1-WL-02 ถ.ลาดพร้าว -ปากซอยลาดพร้าว 81	13.786418	100.609083	bma	working	2022-08-09T00:00:00	5:00:00	6:00:00	73	22	756	2700	0.28
3908	TF1-WL-02 ถ.ลาดพร้าว -ปากซอยลาดพร้าว 81	13.786418	100.609083	bma	working	2022-08-09T00:00:00	6:00:00	7:00:00	51	72	2091	2700	0.77
3909	TF1-WL-02 ถ.ลาดพร้าว -ปากซอยลาดพร้าว 81	13.786418	100.609083	bma	working	2022-08-09T00:00:00	7:00:00	8:00:00	20	202	1353	2700	0.50
3910	TF1-WL-02 ถ.ลาดพร้าว -ปากซอยลาดพร้าว 81	13.786418	100.609083	bma	working	2022-08-09T00:00:00	8:00:00	9:00:00	48	50	1141	2700	0.42
3911	TF1-WL-02 ถ.ลาดพร้าว -ปากซอยลาดพร้าว 81	13.786418	100.609083	bma	working	2022-08-09T00:00:00	9:00:00	10:00:00	46	52	793	2700	0.29
3912	TF1-WL-02 ถ.ลาดพร้าว -ปากซอยลาดพร้าว 81	13.786418	100.609083	bma	working	2022-08-09T00:00:00	10:00:00	11:00:00	49	49	762	2700	0.28
3913	TF1-WL-02 ถ.ลาดพร้าว -ปากซอยลาดพร้าว 81	13.786418	100.609083	bma	working	2022-08-09T00:00:00	11:00:00	12:00:00	51	84	1201	2700	0.44
3914	TF1-WL-02 ถ.ลาดพร้าว -ปากซอยลาดพร้าว 81	13.786418	100.609083	bma	working	2022-08-09T00:00:00	12:00:00	13:00:00	49	51	703	2700	0.26
3915	TF1-WL-02 ถ.ลาดพร้าว -ปากซอยลาดพร้าว 81	13.786418	100.609083	bma	working	2022-08-09T00:00:00	13:00:00	14:00:00	51	48	780	2700	0.29
3916	TF1-WL-02 ถ.ลาดพร้าว -ปากซอยลาดพร้าว 81	13.786418	100.609083	bma	working	2022-08-09T00:00:00	14:00:00	15:00:00	50	48	758	2700	0.28
3917	TF1-WL-02 ถ.ลาดพร้าว -ปากซอยลาดพร้าว 81	13.786418	100.609083	bma	working	2022-08-09T00:00:00	15:00:00	16:00:00	47	47	818	2700	0.30
3918	TF1-WL-02 ถ.ลาดพร้าว -ปากซอยลาดพร้าว 81	13.786418	100.609083	bma	working	2022-08-09T00:00:00	16:00:00	17:00:00	49	80	1063	2700	0.39
3919	TF1-WL-02 ถ.ลาดพร้าว -ปากซอยลาดพร้าว 81	13.786418	100.609083	bma	working	2022-08-09T00:00:00	17:00:00	18:00:00	29	157	1528	2700	0.57
3920	TF1-WL-02 ถ.ลาดพร้าว -ปากซอยลาดพร้าว 81	13.786418	100.609083	bma	working	2022-08-09T00:00:00	18:00:00	19:00:00	16	197	707	2700	0.26
3921	TF2-DD-S10-02 ถ.วิภาวดีรังสิต - ถ.สุทธิสารวินิจฉัย	13.789353	100.561856	bma	working	2022-05-09T00:00:00	5:00:00	6:00:00	49	17	337	3600	0.09
3922	TF2-DD-S10-02 ถ.วิภาวดีรังสิต - ถ.สุทธิสารวินิจฉัย	13.789353	100.561856	bma	working	2022-05-09T00:00:00	6:00:00	7:00:00	34	53	975	3600	0.27
3923	TF2-DD-S10-02 ถ.วิภาวดีรังสิต - ถ.สุทธิสารวินิจฉัย	13.789353	100.561856	bma	working	2022-05-09T00:00:00	7:00:00	8:00:00	20	111	1020	3600	0.28
3924	TF2-DD-S10-02 ถ.วิภาวดีรังสิต - ถ.สุทธิสารวินิจฉัย	13.789353	100.561856	bma	working	2022-05-09T00:00:00	8:00:00	9:00:00	13	202	2557	3600	0.71
3925	TF2-DD-S10-02 ถ.วิภาวดีรังสิต - ถ.สุทธิสารวินิจฉัย	13.789353	100.561856	bma	working	2022-05-09T00:00:00	9:00:00	10:00:00	12	202	2499	3600	0.69
3926	TF2-DD-S10-02 ถ.วิภาวดีรังสิต - ถ.สุทธิสารวินิจฉัย	13.789353	100.561856	bma	working	2022-05-09T00:00:00	10:00:00	11:00:00	13	202	2518	3600	0.70
3927	TF2-DD-S10-02 ถ.วิภาวดีรังสิต - ถ.สุทธิสารวินิจฉัย	13.789353	100.561856	bma	working	2022-05-09T00:00:00	11:00:00	12:00:00	14	146	1200	3600	0.33
3928	TF2-DD-S10-02 ถ.วิภาวดีรังสิต - ถ.สุทธิสารวินิจฉัย	13.789353	100.561856	bma	working	2022-05-09T00:00:00	12:00:00	13:00:00	10	202	2449	3600	0.68
3929	TF2-DD-S10-02 ถ.วิภาวดีรังสิต - ถ.สุทธิสารวินิจฉัย	13.789353	100.561856	bma	working	2022-05-09T00:00:00	13:00:00	14:00:00	8	202	2464	3600	0.68
3930	TF2-DD-S10-02 ถ.วิภาวดีรังสิต - ถ.สุทธิสารวินิจฉัย	13.789353	100.561856	bma	working	2022-05-09T00:00:00	14:00:00	15:00:00	13	202	2486	3600	0.69
3931	TF2-DD-S10-02 ถ.วิภาวดีรังสิต - ถ.สุทธิสารวินิจฉัย	13.789353	100.561856	bma	working	2022-05-09T00:00:00	15:00:00	16:00:00	12	202	2521	3600	0.70
3932	TF2-DD-S10-02 ถ.วิภาวดีรังสิต - ถ.สุทธิสารวินิจฉัย	13.789353	100.561856	bma	working	2022-05-09T00:00:00	16:00:00	17:00:00	21	119	1064	3600	0.30
3933	TF2-DD-S10-02 ถ.วิภาวดีรังสิต - ถ.สุทธิสารวินิจฉัย	13.789353	100.561856	bma	working	2022-05-09T00:00:00	17:00:00	18:00:00	20	164	1571	3600	0.44
3934	TF2-DD-S10-02 ถ.วิภาวดีรังสิต - ถ.สุทธิสารวินิจฉัย	13.789353	100.561856	bma	working	2022-05-09T00:00:00	18:00:00	19:00:00	24	201	1054	3600	0.29
3935	TF2-DD-S10-02 ถ.วิภาวดีรังสิต - ถ.สุทธิสารวินิจฉัย	13.789353	100.561856	bma	working	2022-06-09T00:00:00	5:00:00	6:00:00	44	16	359	3600	0.10
3936	TF2-DD-S10-02 ถ.วิภาวดีรังสิต - ถ.สุทธิสารวินิจฉัย	13.789353	100.561856	bma	working	2022-06-09T00:00:00	6:00:00	7:00:00	31	50	1041	3600	0.29
3937	TF2-DD-S10-02 ถ.วิภาวดีรังสิต - ถ.สุทธิสารวินิจฉัย	13.789353	100.561856	bma	working	2022-06-09T00:00:00	7:00:00	8:00:00	21	114	918	3600	0.26
3938	TF2-DD-S10-02 ถ.วิภาวดีรังสิต - ถ.สุทธิสารวินิจฉัย	13.789353	100.561856	bma	working	2022-06-09T00:00:00	8:00:00	9:00:00	15	202	1959	3600	0.54
3939	TF2-DD-S10-02 ถ.วิภาวดีรังสิต - ถ.สุทธิสารวินิจฉัย	13.789353	100.561856	bma	working	2022-06-09T00:00:00	9:00:00	10:00:00	13	202	1879	3600	0.52
3940	TF2-DD-S10-02 ถ.วิภาวดีรังสิต - ถ.สุทธิสารวินิจฉัย	13.789353	100.561856	bma	working	2022-06-09T00:00:00	10:00:00	11:00:00	12	202	2031	3600	0.56
3941	TF2-DD-S10-02 ถ.วิภาวดีรังสิต - ถ.สุทธิสารวินิจฉัย	13.789353	100.561856	bma	working	2022-06-09T00:00:00	11:00:00	12:00:00	15	144	1119	3600	0.31
3942	TF2-DD-S10-02 ถ.วิภาวดีรังสิต - ถ.สุทธิสารวินิจฉัย	13.789353	100.561856	bma	working	2022-06-09T00:00:00	12:00:00	13:00:00	10	201	2018	3600	0.56
3943	TF2-DD-S10-02 ถ.วิภาวดีรังสิต - ถ.สุทธิสารวินิจฉัย	13.789353	100.561856	bma	working	2022-06-09T00:00:00	13:00:00	14:00:00	11	201	1800	3600	0.50
3944	TF2-DD-S10-02 ถ.วิภาวดีรังสิต - ถ.สุทธิสารวินิจฉัย	13.789353	100.561856	bma	working	2022-06-09T00:00:00	14:00:00	15:00:00	14	202	1797	3600	0.50
3945	TF2-DD-S10-02 ถ.วิภาวดีรังสิต - ถ.สุทธิสารวินิจฉัย	13.789353	100.561856	bma	working	2022-06-09T00:00:00	15:00:00	16:00:00	13	201	1812	3600	0.50
3946	TF2-DD-S10-02 ถ.วิภาวดีรังสิต - ถ.สุทธิสารวินิจฉัย	13.789353	100.561856	bma	working	2022-06-09T00:00:00	16:00:00	17:00:00	17	201	1175	3600	0.33
3947	TF2-DD-S10-02 ถ.วิภาวดีรังสิต - ถ.สุทธิสารวินิจฉัย	13.789353	100.561856	bma	working	2022-06-09T00:00:00	17:00:00	18:00:00	17	201	1706	3600	0.47
3948	TF2-DD-S10-02 ถ.วิภาวดีรังสิต - ถ.สุทธิสารวินิจฉัย	13.789353	100.561856	bma	working	2022-06-09T00:00:00	18:00:00	19:00:00	17	202	1490	3600	0.41
3949	TF2-DD-S10-02 ถ.วิภาวดีรังสิต - ถ.สุทธิสารวินิจฉัย	13.789353	100.561856	bma	working	2022-07-09T00:00:00	5:00:00	6:00:00	46	16	405	3600	0.11
3950	TF2-DD-S10-02 ถ.วิภาวดีรังสิต - ถ.สุทธิสารวินิจฉัย	13.789353	100.561856	bma	working	2022-07-09T00:00:00	6:00:00	7:00:00	33	49	1130	3600	0.31
3951	TF2-DD-S10-02 ถ.วิภาวดีรังสิต - ถ.สุทธิสารวินิจฉัย	13.789353	100.561856	bma	working	2022-07-09T00:00:00	7:00:00	8:00:00	19	116	912	3600	0.25
3952	TF2-DD-S10-02 ถ.วิภาวดีรังสิต - ถ.สุทธิสารวินิจฉัย	13.789353	100.561856	bma	working	2022-07-09T00:00:00	8:00:00	9:00:00	16	102	1363	3600	0.38
3953	TF2-DD-S10-02 ถ.วิภาวดีรังสิต - ถ.สุทธิสารวินิจฉัย	13.789353	100.561856	bma	working	2022-07-09T00:00:00	9:00:00	10:00:00	14	95	1183	3600	0.33
3954	TF2-DD-S10-02 ถ.วิภาวดีรังสิต - ถ.สุทธิสารวินิจฉัย	13.789353	100.561856	bma	working	2022-07-09T00:00:00	10:00:00	11:00:00	12	96	1330	3600	0.37
3955	TF2-DD-S10-02 ถ.วิภาวดีรังสิต - ถ.สุทธิสารวินิจฉัย	13.789353	100.561856	bma	working	2022-07-09T00:00:00	11:00:00	12:00:00	14	152	1038	3600	0.29
3956	TF2-DD-S10-02 ถ.วิภาวดีรังสิต - ถ.สุทธิสารวินิจฉัย	13.789353	100.561856	bma	working	2022-07-09T00:00:00	12:00:00	13:00:00	11	91	1287	3600	0.36
3957	TF2-DD-S10-02 ถ.วิภาวดีรังสิต - ถ.สุทธิสารวินิจฉัย	13.789353	100.561856	bma	working	2022-07-09T00:00:00	13:00:00	14:00:00	15	100	1152	3600	0.32
3958	TF2-DD-S10-02 ถ.วิภาวดีรังสิต - ถ.สุทธิสารวินิจฉัย	13.789353	100.561856	bma	working	2022-07-09T00:00:00	14:00:00	15:00:00	14	97	1071	3600	0.30
3959	TF2-DD-S10-02 ถ.วิภาวดีรังสิต - ถ.สุทธิสารวินิจฉัย	13.789353	100.561856	bma	working	2022-07-09T00:00:00	15:00:00	16:00:00	14	95	1110	3600	0.31
3960	TF2-DD-S10-02 ถ.วิภาวดีรังสิต - ถ.สุทธิสารวินิจฉัย	13.789353	100.561856	bma	working	2022-07-09T00:00:00	16:00:00	17:00:00	15	202	1270	3600	0.35
3961	TF2-DD-S10-02 ถ.วิภาวดีรังสิต - ถ.สุทธิสารวินิจฉัย	13.789353	100.561856	bma	working	2022-07-09T00:00:00	17:00:00	18:00:00	13	201	1635	3600	0.45
3962	TF2-DD-S10-02 ถ.วิภาวดีรังสิต - ถ.สุทธิสารวินิจฉัย	13.789353	100.561856	bma	working	2022-07-09T00:00:00	18:00:00	19:00:00	12	202	1867	3600	0.52
3963	TF2-DD-S10-02 ถ.วิภาวดีรังสิต - ถ.สุทธิสารวินิจฉัย	13.789353	100.561856	bma	working	2022-08-09T00:00:00	5:00:00	6:00:00	48	17	344	3600	0.10
3964	TF2-DD-S10-02 ถ.วิภาวดีรังสิต - ถ.สุทธิสารวินิจฉัย	13.789353	100.561856	bma	working	2022-08-09T00:00:00	6:00:00	7:00:00	35	53	965	3600	0.27
3965	TF2-DD-S10-02 ถ.วิภาวดีรังสิต - ถ.สุทธิสารวินิจฉัย	13.789353	100.561856	bma	working	2022-08-09T00:00:00	7:00:00	8:00:00	18	129	1014	3600	0.28
3966	TF2-DD-S10-02 ถ.วิภาวดีรังสิต - ถ.สุทธิสารวินิจฉัย	13.789353	100.561856	bma	working	2022-08-09T00:00:00	8:00:00	9:00:00	18	202	1394	3600	0.39
3967	TF2-DD-S10-02 ถ.วิภาวดีรังสิต - ถ.สุทธิสารวินิจฉัย	13.789353	100.561856	bma	working	2022-08-09T00:00:00	9:00:00	10:00:00	15	202	1029	3600	0.29
3968	TF2-DD-S10-02 ถ.วิภาวดีรังสิต - ถ.สุทธิสารวินิจฉัย	13.789353	100.561856	bma	working	2022-08-09T00:00:00	10:00:00	11:00:00	14	202	1197	3600	0.33
3969	TF2-DD-S10-02 ถ.วิภาวดีรังสิต - ถ.สุทธิสารวินิจฉัย	13.789353	100.561856	bma	working	2022-08-09T00:00:00	11:00:00	12:00:00	17	110	1139	3600	0.32
3970	TF2-DD-S10-02 ถ.วิภาวดีรังสิต - ถ.สุทธิสารวินิจฉัย	13.789353	100.561856	bma	working	2022-08-09T00:00:00	12:00:00	13:00:00	14	202	1287	3600	0.36
3971	TF2-DD-S10-02 ถ.วิภาวดีรังสิต - ถ.สุทธิสารวินิจฉัย	13.789353	100.561856	bma	working	2022-08-09T00:00:00	13:00:00	14:00:00	17	201	1111	3600	0.31
3972	TF2-DD-S10-02 ถ.วิภาวดีรังสิต - ถ.สุทธิสารวินิจฉัย	13.789353	100.561856	bma	working	2022-08-09T00:00:00	14:00:00	15:00:00	14	201	1079	3600	0.30
3973	TF2-DD-S10-02 ถ.วิภาวดีรังสิต - ถ.สุทธิสารวินิจฉัย	13.789353	100.561856	bma	working	2022-08-09T00:00:00	15:00:00	16:00:00	16	202	1036	3600	0.29
3974	TF2-DD-S10-02 ถ.วิภาวดีรังสิต - ถ.สุทธิสารวินิจฉัย	13.789353	100.561856	bma	working	2022-08-09T00:00:00	16:00:00	17:00:00	17	202	1304	3600	0.36
3975	TF2-DD-S10-02 ถ.วิภาวดีรังสิต - ถ.สุทธิสารวินิจฉัย	13.789353	100.561856	bma	working	2022-08-09T00:00:00	17:00:00	18:00:00	17	201	1418	3600	0.39
3976	TF2-DD-S10-02 ถ.วิภาวดีรังสิต - ถ.สุทธิสารวินิจฉัย	13.789353	100.561856	bma	working	2022-08-09T00:00:00	18:00:00	19:00:00	12	202	1506	3600	0.42
3977	TF2-DD-S10-02 ถ.วิภาวดีรังสิต - ถ.สุทธิสารวินิจฉัย	13.789353	100.561856	bma	working	2022-09-09T00:00:00	5:00:00	6:00:00	49	18	276	3600	0.08
3978	TF2-DD-S10-02 ถ.วิภาวดีรังสิต - ถ.สุทธิสารวินิจฉัย	13.789353	100.561856	bma	working	2022-09-09T00:00:00	6:00:00	7:00:00	35	55	790	3600	0.22
3979	TF2-DD-S10-02 ถ.วิภาวดีรังสิต - ถ.สุทธิสารวินิจฉัย	13.789353	100.561856	bma	working	2022-09-09T00:00:00	7:00:00	8:00:00	20	141	1057	3600	0.29
3980	TF2-DD-S10-02 ถ.วิภาวดีรังสิต - ถ.สุทธิสารวินิจฉัย	13.789353	100.561856	bma	working	2022-09-09T00:00:00	8:00:00	9:00:00	19	202	1462	3600	0.41
3981	TF2-DD-S10-02 ถ.วิภาวดีรังสิต - ถ.สุทธิสารวินิจฉัย	13.789353	100.561856	bma	working	2022-09-09T00:00:00	9:00:00	10:00:00	15	201	1198	3600	0.33
3982	TF2-DD-S10-02 ถ.วิภาวดีรังสิต - ถ.สุทธิสารวินิจฉัย	13.789353	100.561856	bma	working	2022-09-09T00:00:00	10:00:00	11:00:00	15	201	1064	3600	0.30
3983	TF2-DD-S10-02 ถ.วิภาวดีรังสิต - ถ.สุทธิสารวินิจฉัย	13.789353	100.561856	bma	working	2022-09-09T00:00:00	11:00:00	12:00:00	18	77	1205	3600	0.33
3984	TF2-DD-S10-02 ถ.วิภาวดีรังสิต - ถ.สุทธิสารวินิจฉัย	13.789353	100.561856	bma	working	2022-09-09T00:00:00	12:00:00	13:00:00	17	201	1028	3600	0.29
3985	TF2-DD-S10-02 ถ.วิภาวดีรังสิต - ถ.สุทธิสารวินิจฉัย	13.789353	100.561856	bma	working	2022-09-09T00:00:00	13:00:00	14:00:00	18	201	1175	3600	0.33
3986	TF2-DD-S10-02 ถ.วิภาวดีรังสิต - ถ.สุทธิสารวินิจฉัย	13.789353	100.561856	bma	working	2022-09-09T00:00:00	14:00:00	15:00:00	14	202	1190	3600	0.33
3987	TF2-DD-S10-02 ถ.วิภาวดีรังสิต - ถ.สุทธิสารวินิจฉัย	13.789353	100.561856	bma	working	2022-09-09T00:00:00	15:00:00	16:00:00	17	201	1211	3600	0.34
3988	TF2-DD-S10-02 ถ.วิภาวดีรังสิต - ถ.สุทธิสารวินิจฉัย	13.789353	100.561856	bma	working	2022-09-09T00:00:00	16:00:00	17:00:00	18	128	1481	3600	0.41
3989	TF2-DD-S10-02 ถ.วิภาวดีรังสิต - ถ.สุทธิสารวินิจฉัย	13.789353	100.561856	bma	working	2022-09-09T00:00:00	17:00:00	18:00:00	21	202	1266	3600	0.35
3990	TF2-DD-S10-02 ถ.วิภาวดีรังสิต - ถ.สุทธิสารวินิจฉัย	13.789353	100.561856	bma	working	2022-09-09T00:00:00	18:00:00	19:00:00	12	201	1060	3600	0.29
3991	TF2-DD-S10-02 ถ.วิภาวดีรังสิต - ถ.สุทธิสารวินิจฉัย	13.789353	100.561856	bma	working	2022-10-09T00:00:00	5:00:00	6:00:00	16	12	249	3600	0.07
3992	TF2-DD-S10-02 ถ.วิภาวดีรังสิต - ถ.สุทธิสารวินิจฉัย	13.789353	100.561856	bma	holiday	2022-10-09T00:00:00	6:00:00	7:00:00	12	38	693	3600	0.19
3993	TF2-DD-S10-02 ถ.วิภาวดีรังสิต - ถ.สุทธิสารวินิจฉัย	13.789353	100.561856	bma	holiday	2022-10-09T00:00:00	7:00:00	8:00:00	20	73	574	3600	0.16
3994	TF2-DD-S10-02 ถ.วิภาวดีรังสิต - ถ.สุทธิสารวินิจฉัย	13.789353	100.561856	bma	holiday	2022-10-09T00:00:00	8:00:00	9:00:00	16	73	839	3600	0.23
3995	TF2-DD-S10-02 ถ.วิภาวดีรังสิต - ถ.สุทธิสารวินิจฉัย	13.789353	100.561856	bma	working	2022-10-09T00:00:00	9:00:00	10:00:00	16	72	813	3600	0.23
3996	TF2-DD-S10-02 ถ.วิภาวดีรังสิต - ถ.สุทธิสารวินิจฉัย	13.789353	100.561856	bma	working	2022-10-09T00:00:00	10:00:00	11:00:00	12	69	808	3600	0.22
3997	TF2-DD-S10-02 ถ.วิภาวดีรังสิต - ถ.สุทธิสารวินิจฉัย	13.789353	100.561856	bma	holiday	2022-10-09T00:00:00	11:00:00	12:00:00	19	100	1208	3600	0.34
3998	TF2-DD-S10-02 ถ.วิภาวดีรังสิต - ถ.สุทธิสารวินิจฉัย	13.789353	100.561856	bma	working	2022-10-09T00:00:00	12:00:00	13:00:00	12	75	805	3600	0.22
3999	TF2-DD-S10-02 ถ.วิภาวดีรังสิต - ถ.สุทธิสารวินิจฉัย	13.789353	100.561856	bma	working	2022-10-09T00:00:00	13:00:00	14:00:00	12	75	852	3600	0.24
4000	TF2-DD-S10-02 ถ.วิภาวดีรังสิต - ถ.สุทธิสารวินิจฉัย	13.789353	100.561856	bma	working	2022-10-09T00:00:00	14:00:00	15:00:00	15	73	794	3600	0.22
4001	TF2-DD-S10-02 ถ.วิภาวดีรังสิต - ถ.สุทธิสารวินิจฉัย	13.789353	100.561856	bma	working	2022-10-09T00:00:00	15:00:00	16:00:00	16	73	762	3600	0.21
4002	TF2-DD-S10-02 ถ.วิภาวดีรังสิต - ถ.สุทธิสารวินิจฉัย	13.789353	100.561856	bma	holiday	2022-10-09T00:00:00	16:00:00	17:00:00	17	146	1879	3600	0.52
4003	TF2-DD-S10-02 ถ.วิภาวดีรังสิต - ถ.สุทธิสารวินิจฉัย	13.789353	100.561856	bma	holiday	2022-10-09T00:00:00	17:00:00	18:00:00	15	160	1161	3600	0.32
4004	TF2-DD-S10-02 ถ.วิภาวดีรังสิต - ถ.สุทธิสารวินิจฉัย	13.789353	100.561856	bma	holiday	2022-10-09T00:00:00	18:00:00	19:00:00	18	80	1085	3600	0.30
4005	TF2-DD-S10-02 ถ.วิภาวดีรังสิต - ถ.สุทธิสารวินิจฉัย	13.789353	100.561856	bma	working	2022-11-09T00:00:00	5:00:00	6:00:00	10	8	141	3600	0.04
4006	TF2-DD-S10-02 ถ.วิภาวดีรังสิต - ถ.สุทธิสารวินิจฉัย	13.789353	100.561856	bma	holiday	2022-11-09T00:00:00	6:00:00	7:00:00	8	22	375	3600	0.10
4007	TF2-DD-S10-02 ถ.วิภาวดีรังสิต - ถ.สุทธิสารวินิจฉัย	13.789353	100.561856	bma	holiday	2022-11-09T00:00:00	7:00:00	8:00:00	13	45	403	3600	0.11
4008	TF2-DD-S10-02 ถ.วิภาวดีรังสิต - ถ.สุทธิสารวินิจฉัย	13.789353	100.561856	bma	holiday	2022-11-09T00:00:00	8:00:00	9:00:00	11	43	560	3600	0.16
4009	TF2-DD-S10-02 ถ.วิภาวดีรังสิต - ถ.สุทธิสารวินิจฉัย	13.789353	100.561856	bma	working	2022-11-09T00:00:00	9:00:00	10:00:00	9	41	514	3600	0.14
4010	TF2-DD-S10-02 ถ.วิภาวดีรังสิต - ถ.สุทธิสารวินิจฉัย	13.789353	100.561856	bma	working	2022-11-09T00:00:00	10:00:00	11:00:00	8	42	500	3600	0.14
4011	TF2-DD-S10-02 ถ.วิภาวดีรังสิต - ถ.สุทธิสารวินิจฉัย	13.789353	100.561856	bma	holiday	2022-11-09T00:00:00	11:00:00	12:00:00	12	58	752	3600	0.21
4012	TF2-DD-S10-02 ถ.วิภาวดีรังสิต - ถ.สุทธิสารวินิจฉัย	13.789353	100.561856	bma	working	2022-11-09T00:00:00	12:00:00	13:00:00	8	44	502	3600	0.14
4013	TF2-DD-S10-02 ถ.วิภาวดีรังสิต - ถ.สุทธิสารวินิจฉัย	13.789353	100.561856	bma	working	2022-11-09T00:00:00	13:00:00	14:00:00	8	44	520	3600	0.14
4014	TF2-DD-S10-02 ถ.วิภาวดีรังสิต - ถ.สุทธิสารวินิจฉัย	13.789353	100.561856	bma	working	2022-11-09T00:00:00	14:00:00	15:00:00	9	41	517	3600	0.14
4015	TF2-DD-S10-02 ถ.วิภาวดีรังสิต - ถ.สุทธิสารวินิจฉัย	13.789353	100.561856	bma	working	2022-11-09T00:00:00	15:00:00	16:00:00	9	45	445	3600	0.12
4016	TF2-DD-S10-02 ถ.วิภาวดีรังสิต - ถ.สุทธิสารวินิจฉัย	13.789353	100.561856	bma	holiday	2022-11-09T00:00:00	16:00:00	17:00:00	10	87	1161	3600	0.32
4017	TF2-DD-S10-02 ถ.วิภาวดีรังสิต - ถ.สุทธิสารวินิจฉัย	13.789353	100.561856	bma	holiday	2022-11-09T00:00:00	17:00:00	18:00:00	10	97	739	3600	0.21
4018	TF2-DD-S10-02 ถ.วิภาวดีรังสิต - ถ.สุทธิสารวินิจฉัย	13.789353	100.561856	bma	holiday	2022-11-09T00:00:00	18:00:00	19:00:00	11	49	743	3600	0.21
4019	TF2-DD-S9-01 ถ.สุทธิสารวินิจฉัย- ถ.วิภาวดีรังสิต 	13.789338	100.561159	bma	working	2022-05-09T00:00:00	5:00:00	6:00:00	52	14	120	2700	0.04
4020	TF2-DD-S9-01 ถ.สุทธิสารวินิจฉัย- ถ.วิภาวดีรังสิต 	13.789338	100.561159	bma	working	2022-05-09T00:00:00	6:00:00	7:00:00	37	43	374	2700	0.14
4021	TF2-DD-S9-01 ถ.สุทธิสารวินิจฉัย- ถ.วิภาวดีรังสิต 	13.789338	100.561159	bma	working	2022-05-09T00:00:00	7:00:00	8:00:00	32	107	871	2700	0.32
4022	TF2-DD-S9-01 ถ.สุทธิสารวินิจฉัย- ถ.วิภาวดีรังสิต 	13.789338	100.561159	bma	working	2022-05-09T00:00:00	8:00:00	9:00:00	30	89	975	2700	0.36
4023	TF2-DD-S9-01 ถ.สุทธิสารวินิจฉัย- ถ.วิภาวดีรังสิต 	13.789338	100.561159	bma	working	2022-05-09T00:00:00	9:00:00	10:00:00	25	82	821	2700	0.30
4024	TF2-DD-S9-01 ถ.สุทธิสารวินิจฉัย- ถ.วิภาวดีรังสิต 	13.789338	100.561159	bma	working	2022-05-09T00:00:00	10:00:00	11:00:00	25	83	1076	2700	0.40
4025	TF2-DD-S9-01 ถ.สุทธิสารวินิจฉัย- ถ.วิภาวดีรังสิต 	13.789338	100.561159	bma	working	2022-05-09T00:00:00	11:00:00	12:00:00	36	166	1000	2700	0.37
4026	TF2-DD-S9-01 ถ.สุทธิสารวินิจฉัย- ถ.วิภาวดีรังสิต 	13.789338	100.561159	bma	working	2022-05-09T00:00:00	12:00:00	13:00:00	24	81	1004	2700	0.37
4027	TF2-DD-S9-01 ถ.สุทธิสารวินิจฉัย- ถ.วิภาวดีรังสิต 	13.789338	100.561159	bma	working	2022-05-09T00:00:00	13:00:00	14:00:00	24	78	848	2700	0.31
4028	TF2-DD-S9-01 ถ.สุทธิสารวินิจฉัย- ถ.วิภาวดีรังสิต 	13.789338	100.561159	bma	working	2022-05-09T00:00:00	14:00:00	15:00:00	25	79	764	2700	0.28
4029	TF2-DD-S9-01 ถ.สุทธิสารวินิจฉัย- ถ.วิภาวดีรังสิต 	13.789338	100.561159	bma	working	2022-05-09T00:00:00	15:00:00	16:00:00	26	87	595	2700	0.22
4030	TF2-DD-S9-01 ถ.สุทธิสารวินิจฉัย- ถ.วิภาวดีรังสิต 	13.789338	100.561159	bma	working	2022-05-09T00:00:00	16:00:00	17:00:00	32	79	1183	2700	0.44
4031	TF2-DD-S9-01 ถ.สุทธิสารวินิจฉัย- ถ.วิภาวดีรังสิต 	13.789338	100.561159	bma	working	2022-05-09T00:00:00	17:00:00	18:00:00	34	48	1183	2700	0.44
4032	TF2-DD-S9-01 ถ.สุทธิสารวินิจฉัย- ถ.วิภาวดีรังสิต 	13.789338	100.561159	bma	working	2022-05-09T00:00:00	18:00:00	19:00:00	42	82	949	2700	0.35
4033	TF2-DD-S9-01 ถ.สุทธิสารวินิจฉัย- ถ.วิภาวดีรังสิต 	13.789338	100.561159	bma	working	2022-06-09T00:00:00	5:00:00	6:00:00	41	17	247	2700	0.09
4034	TF2-DD-S9-01 ถ.สุทธิสารวินิจฉัย- ถ.วิภาวดีรังสิต 	13.789338	100.561159	bma	working	2022-06-09T00:00:00	6:00:00	7:00:00	29	50	768	2700	0.28
4035	TF2-DD-S9-01 ถ.สุทธิสารวินิจฉัย- ถ.วิภาวดีรังสิต 	13.789338	100.561159	bma	working	2022-06-09T00:00:00	7:00:00	8:00:00	30	88	692	2700	0.26
4036	TF2-DD-S9-01 ถ.สุทธิสารวินิจฉัย- ถ.วิภาวดีรังสิต 	13.789338	100.561159	bma	working	2022-06-09T00:00:00	8:00:00	9:00:00	29	77	843	2700	0.31
4037	TF2-DD-S9-01 ถ.สุทธิสารวินิจฉัย- ถ.วิภาวดีรังสิต 	13.789338	100.561159	bma	working	2022-06-09T00:00:00	9:00:00	10:00:00	25	73	786	2700	0.29
4038	TF2-DD-S9-01 ถ.สุทธิสารวินิจฉัย- ถ.วิภาวดีรังสิต 	13.789338	100.561159	bma	working	2022-06-09T00:00:00	10:00:00	11:00:00	27	73	801	2700	0.30
4039	TF2-DD-S9-01 ถ.สุทธิสารวินิจฉัย- ถ.วิภาวดีรังสิต 	13.789338	100.561159	bma	working	2022-06-09T00:00:00	11:00:00	12:00:00	33	145	1065	2700	0.39
4040	TF2-DD-S9-01 ถ.สุทธิสารวินิจฉัย- ถ.วิภาวดีรังสิต 	13.789338	100.561159	bma	working	2022-06-09T00:00:00	12:00:00	13:00:00	26	70	812	2700	0.30
4041	TF2-DD-S9-01 ถ.สุทธิสารวินิจฉัย- ถ.วิภาวดีรังสิต 	13.789338	100.561159	bma	working	2022-06-09T00:00:00	13:00:00	14:00:00	26	73	740	2700	0.27
4042	TF2-DD-S9-01 ถ.สุทธิสารวินิจฉัย- ถ.วิภาวดีรังสิต 	13.789338	100.561159	bma	working	2022-06-09T00:00:00	14:00:00	15:00:00	26	73	667	2700	0.25
4043	TF2-DD-S9-01 ถ.สุทธิสารวินิจฉัย- ถ.วิภาวดีรังสิต 	13.789338	100.561159	bma	working	2022-06-09T00:00:00	15:00:00	16:00:00	26	73	656	2700	0.24
4044	TF2-DD-S9-01 ถ.สุทธิสารวินิจฉัย- ถ.วิภาวดีรังสิต 	13.789338	100.561159	bma	working	2022-06-09T00:00:00	16:00:00	17:00:00	34	86	1226	2700	0.45
4045	TF2-DD-S9-01 ถ.สุทธิสารวินิจฉัย- ถ.วิภาวดีรังสิต 	13.789338	100.561159	bma	working	2022-06-09T00:00:00	17:00:00	18:00:00	29	105	1021	2700	0.38
4046	TF2-DD-S9-01 ถ.สุทธิสารวินิจฉัย- ถ.วิภาวดีรังสิต 	13.789338	100.561159	bma	working	2022-06-09T00:00:00	18:00:00	19:00:00	33	115	1151	2700	0.43
4047	TF2-DD-S9-01 ถ.สุทธิสารวินิจฉัย- ถ.วิภาวดีรังสิต 	13.789338	100.561159	bma	working	2022-07-09T00:00:00	5:00:00	6:00:00	27	18	301	2700	0.11
4048	TF2-DD-S9-01 ถ.สุทธิสารวินิจฉัย- ถ.วิภาวดีรังสิต 	13.789338	100.561159	bma	working	2022-07-09T00:00:00	6:00:00	7:00:00	20	53	880	2700	0.33
4049	TF2-DD-S9-01 ถ.สุทธิสารวินิจฉัย- ถ.วิภาวดีรังสิต 	13.789338	100.561159	bma	working	2022-07-09T00:00:00	7:00:00	8:00:00	32	71	448	2700	0.17
4050	TF2-DD-S9-01 ถ.สุทธิสารวินิจฉัย- ถ.วิภาวดีรังสิต 	13.789338	100.561159	bma	working	2022-07-09T00:00:00	8:00:00	9:00:00	30	70	720	2700	0.27
4051	TF2-DD-S9-01 ถ.สุทธิสารวินิจฉัย- ถ.วิภาวดีรังสิต 	13.789338	100.561159	bma	working	2022-07-09T00:00:00	9:00:00	10:00:00	25	66	625	2700	0.23
4052	TF2-DD-S9-01 ถ.สุทธิสารวินิจฉัย- ถ.วิภาวดีรังสิต 	13.789338	100.561159	bma	working	2022-07-09T00:00:00	10:00:00	11:00:00	26	60	598	2700	0.22
4053	TF2-DD-S9-01 ถ.สุทธิสารวินิจฉัย- ถ.วิภาวดีรังสิต 	13.789338	100.561159	bma	working	2022-07-09T00:00:00	11:00:00	12:00:00	30	131	1221	2700	0.45
4054	TF2-DD-S9-01 ถ.สุทธิสารวินิจฉัย- ถ.วิภาวดีรังสิต 	13.789338	100.561159	bma	working	2022-07-09T00:00:00	12:00:00	13:00:00	29	62	597	2700	0.22
4055	TF2-DD-S9-01 ถ.สุทธิสารวินิจฉัย- ถ.วิภาวดีรังสิต 	13.789338	100.561159	bma	working	2022-07-09T00:00:00	13:00:00	14:00:00	28	65	631	2700	0.23
4056	TF2-DD-S9-01 ถ.สุทธิสารวินิจฉัย- ถ.วิภาวดีรังสิต 	13.789338	100.561159	bma	working	2022-07-09T00:00:00	14:00:00	15:00:00	27	64	537	2700	0.20
4057	TF2-DD-S9-01 ถ.สุทธิสารวินิจฉัย- ถ.วิภาวดีรังสิต 	13.789338	100.561159	bma	working	2022-07-09T00:00:00	15:00:00	16:00:00	25	61	677	2700	0.25
4058	TF2-DD-S9-01 ถ.สุทธิสารวินิจฉัย- ถ.วิภาวดีรังสิต 	13.789338	100.561159	bma	working	2022-07-09T00:00:00	16:00:00	17:00:00	40	81	1099	2700	0.41
4059	TF2-DD-S9-01 ถ.สุทธิสารวินิจฉัย- ถ.วิภาวดีรังสิต 	13.789338	100.561159	bma	working	2022-07-09T00:00:00	17:00:00	18:00:00	23	164	841	2700	0.31
4060	TF2-DD-S9-01 ถ.สุทธิสารวินิจฉัย- ถ.วิภาวดีรังสิต 	13.789338	100.561159	bma	working	2022-07-09T00:00:00	18:00:00	19:00:00	22	157	1453	2700	0.54
4061	TF2-DD-S9-01 ถ.สุทธิสารวินิจฉัย- ถ.วิภาวดีรังสิต 	13.789338	100.561159	bma	working	2022-08-09T00:00:00	5:00:00	6:00:00	32	20	282	2700	0.10
4062	TF2-DD-S9-01 ถ.สุทธิสารวินิจฉัย- ถ.วิภาวดีรังสิต 	13.789338	100.561159	bma	working	2022-08-09T00:00:00	6:00:00	7:00:00	23	60	760	2700	0.28
4063	TF2-DD-S9-01 ถ.สุทธิสารวินิจฉัย- ถ.วิภาวดีรังสิต 	13.789338	100.561159	bma	working	2022-08-09T00:00:00	7:00:00	8:00:00	25	107	661	2700	0.24
4064	TF2-DD-S9-01 ถ.สุทธิสารวินิจฉัย- ถ.วิภาวดีรังสิต 	13.789338	100.561159	bma	working	2022-08-09T00:00:00	8:00:00	9:00:00	35	69	968	2700	0.36
4065	TF2-DD-S9-01 ถ.สุทธิสารวินิจฉัย- ถ.วิภาวดีรังสิต 	13.789338	100.561159	bma	working	2022-08-09T00:00:00	9:00:00	10:00:00	30	68	878	2700	0.33
4066	TF2-DD-S9-01 ถ.สุทธิสารวินิจฉัย- ถ.วิภาวดีรังสิต 	13.789338	100.561159	bma	working	2022-08-09T00:00:00	10:00:00	11:00:00	29	65	974	2700	0.36
4067	TF2-DD-S9-01 ถ.สุทธิสารวินิจฉัย- ถ.วิภาวดีรังสิต 	13.789338	100.561159	bma	working	2022-08-09T00:00:00	11:00:00	12:00:00	30	159	1114	2700	0.41
4068	TF2-DD-S9-01 ถ.สุทธิสารวินิจฉัย- ถ.วิภาวดีรังสิต 	13.789338	100.561159	bma	working	2022-08-09T00:00:00	12:00:00	13:00:00	32	67	899	2700	0.33
4069	TF2-DD-S9-01 ถ.สุทธิสารวินิจฉัย- ถ.วิภาวดีรังสิต 	13.789338	100.561159	bma	working	2022-08-09T00:00:00	13:00:00	14:00:00	30	68	874	2700	0.32
4070	TF2-DD-S9-01 ถ.สุทธิสารวินิจฉัย- ถ.วิภาวดีรังสิต 	13.789338	100.561159	bma	working	2022-08-09T00:00:00	14:00:00	15:00:00	32	67	825	2700	0.31
4071	TF2-DD-S9-01 ถ.สุทธิสารวินิจฉัย- ถ.วิภาวดีรังสิต 	13.789338	100.561159	bma	working	2022-08-09T00:00:00	15:00:00	16:00:00	31	66	853	2700	0.32
4072	TF2-DD-S9-01 ถ.สุทธิสารวินิจฉัย- ถ.วิภาวดีรังสิต 	13.789338	100.561159	bma	working	2022-08-09T00:00:00	16:00:00	17:00:00	33	107	1194	2700	0.44
4073	TF2-DD-S9-01 ถ.สุทธิสารวินิจฉัย- ถ.วิภาวดีรังสิต 	13.789338	100.561159	bma	working	2022-08-09T00:00:00	17:00:00	18:00:00	29	119	850	2700	0.31
4074	TF2-DD-S9-01 ถ.สุทธิสารวินิจฉัย- ถ.วิภาวดีรังสิต 	13.789338	100.561159	bma	working	2022-08-09T00:00:00	18:00:00	19:00:00	22	179	1462	2700	0.54
4075	TF2-DD-S9-01 ถ.สุทธิสารวินิจฉัย- ถ.วิภาวดีรังสิต 	13.789338	100.561159	bma	working	2022-09-09T00:00:00	5:00:00	6:00:00	35	23	210	2700	0.08
4076	TF2-DD-S9-01 ถ.สุทธิสารวินิจฉัย- ถ.วิภาวดีรังสิต 	13.789338	100.561159	bma	working	2022-09-09T00:00:00	6:00:00	7:00:00	25	67	623	2700	0.23
4077	TF2-DD-S9-01 ถ.สุทธิสารวินิจฉัย- ถ.วิภาวดีรังสิต 	13.789338	100.561159	bma	working	2022-09-09T00:00:00	7:00:00	8:00:00	20	135	847	2700	0.31
4078	TF2-DD-S9-01 ถ.สุทธิสารวินิจฉัย- ถ.วิภาวดีรังสิต 	13.789338	100.561159	bma	working	2022-09-09T00:00:00	8:00:00	9:00:00	37	69	1082	2700	0.40
4079	TF2-DD-S9-01 ถ.สุทธิสารวินิจฉัย- ถ.วิภาวดีรังสิต 	13.789338	100.561159	bma	working	2022-09-09T00:00:00	9:00:00	10:00:00	33	64	1111	2700	0.41
4080	TF2-DD-S9-01 ถ.สุทธิสารวินิจฉัย- ถ.วิภาวดีรังสิต 	13.789338	100.561159	bma	working	2022-09-09T00:00:00	10:00:00	11:00:00	33	67	1180	2700	0.44
4081	TF2-DD-S9-01 ถ.สุทธิสารวินิจฉัย- ถ.วิภาวดีรังสิต 	13.789338	100.561159	bma	working	2022-09-09T00:00:00	11:00:00	12:00:00	27	184	1134	2700	0.42
4082	TF2-DD-S9-01 ถ.สุทธิสารวินิจฉัย- ถ.วิภาวดีรังสิต 	13.789338	100.561159	bma	working	2022-09-09T00:00:00	12:00:00	13:00:00	35	70	1155	2700	0.43
4083	TF2-DD-S9-01 ถ.สุทธิสารวินิจฉัย- ถ.วิภาวดีรังสิต 	13.789338	100.561159	bma	working	2022-09-09T00:00:00	13:00:00	14:00:00	32	71	1068	2700	0.40
4084	TF2-DD-S9-01 ถ.สุทธิสารวินิจฉัย- ถ.วิภาวดีรังสิต 	13.789338	100.561159	bma	working	2022-09-09T00:00:00	14:00:00	15:00:00	34	71	1047	2700	0.39
4085	TF2-DD-S9-01 ถ.สุทธิสารวินิจฉัย- ถ.วิภาวดีรังสิต 	13.789338	100.561159	bma	working	2022-09-09T00:00:00	15:00:00	16:00:00	36	74	917	2700	0.34
4086	TF2-DD-S9-01 ถ.สุทธิสารวินิจฉัย- ถ.วิภาวดีรังสิต 	13.789338	100.561159	bma	working	2022-09-09T00:00:00	16:00:00	17:00:00	28	126	1120	2700	0.41
4087	TF2-DD-S9-01 ถ.สุทธิสารวินิจฉัย- ถ.วิภาวดีรังสิต 	13.789338	100.561159	bma	working	2022-09-09T00:00:00	17:00:00	18:00:00	34	68	816	2700	0.30
4088	TF2-DD-S9-01 ถ.สุทธิสารวินิจฉัย- ถ.วิภาวดีรังสิต 	13.789338	100.561159	bma	working	2022-09-09T00:00:00	18:00:00	19:00:00	25	202	1473	2700	0.55
4089	TF2-DD-S9-01 ถ.สุทธิสารวินิจฉัย- ถ.วิภาวดีรังสิต 	13.789338	100.561159	bma	working	2022-10-09T00:00:00	5:00:00	6:00:00	52	14	172	2700	0.06
4090	TF2-DD-S9-01 ถ.สุทธิสารวินิจฉัย- ถ.วิภาวดีรังสิต 	13.789338	100.561159	bma	holiday	2022-10-09T00:00:00	6:00:00	7:00:00	37	43	494	2700	0.18
4091	TF2-DD-S9-01 ถ.สุทธิสารวินิจฉัย- ถ.วิภาวดีรังสิต 	13.789338	100.561159	bma	holiday	2022-10-09T00:00:00	7:00:00	8:00:00	40	136	980	2700	0.36
4092	TF2-DD-S9-01 ถ.สุทธิสารวินิจฉัย- ถ.วิภาวดีรังสิต 	13.789338	100.561159	bma	holiday	2022-10-09T00:00:00	8:00:00	9:00:00	39	70	1030	2700	0.38
4093	TF2-DD-S9-01 ถ.สุทธิสารวินิจฉัย- ถ.วิภาวดีรังสิต 	13.789338	100.561159	bma	working	2022-10-09T00:00:00	9:00:00	10:00:00	35	68	878	2700	0.33
4094	TF2-DD-S9-01 ถ.สุทธิสารวินิจฉัย- ถ.วิภาวดีรังสิต 	13.789338	100.561159	bma	working	2022-10-09T00:00:00	10:00:00	11:00:00	37	69	1091	2700	0.40
4095	TF2-DD-S9-01 ถ.สุทธิสารวินิจฉัย- ถ.วิภาวดีรังสิต 	13.789338	100.561159	bma	holiday	2022-10-09T00:00:00	11:00:00	12:00:00	30	76	734	2700	0.27
4096	TF2-DD-S9-01 ถ.สุทธิสารวินิจฉัย- ถ.วิภาวดีรังสิต 	13.789338	100.561159	bma	working	2022-10-09T00:00:00	12:00:00	13:00:00	36	68	1048	2700	0.39
4097	TF2-DD-S9-01 ถ.สุทธิสารวินิจฉัย- ถ.วิภาวดีรังสิต 	13.789338	100.561159	bma	working	2022-10-09T00:00:00	13:00:00	14:00:00	37	75	835	2700	0.31
4098	TF2-DD-S9-01 ถ.สุทธิสารวินิจฉัย- ถ.วิภาวดีรังสิต 	13.789338	100.561159	bma	working	2022-10-09T00:00:00	14:00:00	15:00:00	35	72	909	2700	0.34
4099	TF2-DD-S9-01 ถ.สุทธิสารวินิจฉัย- ถ.วิภาวดีรังสิต 	13.789338	100.561159	bma	working	2022-10-09T00:00:00	15:00:00	16:00:00	37	65	916	2700	0.34
4100	TF2-DD-S9-01 ถ.สุทธิสารวินิจฉัย- ถ.วิภาวดีรังสิต 	13.789338	100.561159	bma	holiday	2022-10-09T00:00:00	16:00:00	17:00:00	41	115	1412	2700	0.52
4101	TF2-DD-S9-01 ถ.สุทธิสารวินิจฉัย- ถ.วิภาวดีรังสิต 	13.789338	100.561159	bma	holiday	2022-10-09T00:00:00	17:00:00	18:00:00	34	72	769	2700	0.28
4102	TF2-DD-S9-01 ถ.สุทธิสารวินิจฉัย- ถ.วิภาวดีรังสิต 	13.789338	100.561159	bma	holiday	2022-10-09T00:00:00	18:00:00	19:00:00	28	70	1145	2700	0.42
4103	TF2-DD-S9-01 ถ.สุทธิสารวินิจฉัย- ถ.วิภาวดีรังสิต 	13.789338	100.561159	bma	working	2022-11-09T00:00:00	5:00:00	6:00:00	30	8	87	2700	0.03
4104	TF2-DD-S9-01 ถ.สุทธิสารวินิจฉัย- ถ.วิภาวดีรังสิต 	13.789338	100.561159	bma	holiday	2022-11-09T00:00:00	6:00:00	7:00:00	22	26	237	2700	0.09
4105	TF2-DD-S9-01 ถ.สุทธิสารวินิจฉัย- ถ.วิภาวดีรังสิต 	13.789338	100.561159	bma	holiday	2022-11-09T00:00:00	7:00:00	8:00:00	23	79	623	2700	0.23
4106	TF2-DD-S9-01 ถ.สุทธิสารวินิจฉัย- ถ.วิภาวดีรังสิต 	13.789338	100.561159	bma	holiday	2022-11-09T00:00:00	8:00:00	9:00:00	24	45	657	2700	0.24
4107	TF2-DD-S9-01 ถ.สุทธิสารวินิจฉัย- ถ.วิภาวดีรังสิต 	13.789338	100.561159	bma	working	2022-11-09T00:00:00	9:00:00	10:00:00	23	41	587	2700	0.22
4108	TF2-DD-S9-01 ถ.สุทธิสารวินิจฉัย- ถ.วิภาวดีรังสิต 	13.789338	100.561159	bma	working	2022-11-09T00:00:00	10:00:00	11:00:00	20	42	678	2700	0.25
4109	TF2-DD-S9-01 ถ.สุทธิสารวินิจฉัย- ถ.วิภาวดีรังสิต 	13.789338	100.561159	bma	holiday	2022-11-09T00:00:00	11:00:00	12:00:00	19	47	471	2700	0.17
4110	TF2-DD-S9-01 ถ.สุทธิสารวินิจฉัย- ถ.วิภาวดีรังสิต 	13.789338	100.561159	bma	working	2022-11-09T00:00:00	12:00:00	13:00:00	20	41	648	2700	0.24
4111	TF2-DD-S9-01 ถ.สุทธิสารวินิจฉัย- ถ.วิภาวดีรังสิต 	13.789338	100.561159	bma	working	2022-11-09T00:00:00	13:00:00	14:00:00	22	43	546	2700	0.20
4112	TF2-DD-S9-01 ถ.สุทธิสารวินิจฉัย- ถ.วิภาวดีรังสิต 	13.789338	100.561159	bma	working	2022-11-09T00:00:00	14:00:00	15:00:00	22	44	604	2700	0.22
4113	TF2-DD-S9-01 ถ.สุทธิสารวินิจฉัย- ถ.วิภาวดีรังสิต 	13.789338	100.561159	bma	working	2022-11-09T00:00:00	15:00:00	16:00:00	22	41	624	2700	0.23
4114	TF2-DD-S9-01 ถ.สุทธิสารวินิจฉัย- ถ.วิภาวดีรังสิต 	13.789338	100.561159	bma	holiday	2022-11-09T00:00:00	16:00:00	17:00:00	24	65	942	2700	0.35
4115	TF2-DD-S9-01 ถ.สุทธิสารวินิจฉัย- ถ.วิภาวดีรังสิต 	13.789338	100.561159	bma	holiday	2022-11-09T00:00:00	17:00:00	18:00:00	22	47	592	2700	0.22
4116	TF2-DD-S9-01 ถ.สุทธิสารวินิจฉัย- ถ.วิภาวดีรังสิต 	13.789338	100.561159	bma	holiday	2022-11-09T00:00:00	18:00:00	19:00:00	17	40	656	2700	0.24
4117	TF2-DS-S14-01 ถ.พระรามที่ 5 -ถ. อำนวยสงคราม	13.783423	100.524415	bma	working	2022-05-09T00:00:00	5:00:00	6:00:00	30	8	125	1800	0.07
4118	TF2-DS-S14-01 ถ.พระรามที่ 5 -ถ. อำนวยสงคราม	13.783423	100.524415	bma	working	2022-05-09T00:00:00	6:00:00	7:00:00	22	23	383	1800	0.21
4119	TF2-DS-S14-01 ถ.พระรามที่ 5 -ถ. อำนวยสงคราม	13.783423	100.524415	bma	working	2022-05-09T00:00:00	7:00:00	8:00:00	10	150	3047	1800	1.69
4120	TF2-DS-S14-01 ถ.พระรามที่ 5 -ถ. อำนวยสงคราม	13.783423	100.524415	bma	working	2022-05-09T00:00:00	8:00:00	9:00:00	16	135	1312	1800	0.73
4121	TF2-DS-S14-01 ถ.พระรามที่ 5 -ถ. อำนวยสงคราม	13.783423	100.524415	bma	working	2022-05-09T00:00:00	9:00:00	10:00:00	11	130	1491	1800	0.83
4122	TF2-DS-S14-01 ถ.พระรามที่ 5 -ถ. อำนวยสงคราม	13.783423	100.524415	bma	working	2022-05-09T00:00:00	10:00:00	11:00:00	10	131	1289	1800	0.72
4123	TF2-DS-S14-01 ถ.พระรามที่ 5 -ถ. อำนวยสงคราม	13.783423	100.524415	bma	working	2022-05-09T00:00:00	11:00:00	12:00:00	15	63	1305	1800	0.73
4124	TF2-DS-S14-01 ถ.พระรามที่ 5 -ถ. อำนวยสงคราม	13.783423	100.524415	bma	working	2022-05-09T00:00:00	12:00:00	13:00:00	13	130	1196	1800	0.66
4125	TF2-DS-S14-01 ถ.พระรามที่ 5 -ถ. อำนวยสงคราม	13.783423	100.524415	bma	working	2022-05-09T00:00:00	13:00:00	14:00:00	15	129	1430	1800	0.79
4126	TF2-DS-S14-01 ถ.พระรามที่ 5 -ถ. อำนวยสงคราม	13.783423	100.524415	bma	working	2022-05-09T00:00:00	14:00:00	15:00:00	14	136	1495	1800	0.83
4127	TF2-DS-S14-01 ถ.พระรามที่ 5 -ถ. อำนวยสงคราม	13.783423	100.524415	bma	working	2022-05-09T00:00:00	15:00:00	16:00:00	13	125	1351	1800	0.75
4128	TF2-DS-S14-01 ถ.พระรามที่ 5 -ถ. อำนวยสงคราม	13.783423	100.524415	bma	working	2022-05-09T00:00:00	16:00:00	17:00:00	16	58	1434	1800	0.80
4129	TF2-DS-S14-01 ถ.พระรามที่ 5 -ถ. อำนวยสงคราม	13.783423	100.524415	bma	working	2022-05-09T00:00:00	17:00:00	18:00:00	13	100	776	1800	0.43
4130	TF2-DS-S14-01 ถ.พระรามที่ 5 -ถ. อำนวยสงคราม	13.783423	100.524415	bma	working	2022-05-09T00:00:00	18:00:00	19:00:00	14	111	474	1800	0.26
4131	TF2-DS-S14-01 ถ.พระรามที่ 5 -ถ. อำนวยสงคราม	13.783423	100.524415	bma	working	2022-06-09T00:00:00	5:00:00	6:00:00	33	9	236	1800	0.13
4132	TF2-DS-S14-01 ถ.พระรามที่ 5 -ถ. อำนวยสงคราม	13.783423	100.524415	bma	working	2022-06-09T00:00:00	6:00:00	7:00:00	24	26	658	1800	0.37
4133	TF2-DS-S14-01 ถ.พระรามที่ 5 -ถ. อำนวยสงคราม	13.783423	100.524415	bma	working	2022-06-09T00:00:00	7:00:00	8:00:00	10	173	1891	1800	1.05
4134	TF2-DS-S14-01 ถ.พระรามที่ 5 -ถ. อำนวยสงคราม	13.783423	100.524415	bma	working	2022-06-09T00:00:00	8:00:00	9:00:00	11	188	1474	1800	0.82
4135	TF2-DS-S14-01 ถ.พระรามที่ 5 -ถ. อำนวยสงคราม	13.783423	100.524415	bma	working	2022-06-09T00:00:00	9:00:00	10:00:00	7	183	1668	1800	0.93
4136	TF2-DS-S14-01 ถ.พระรามที่ 5 -ถ. อำนวยสงคราม	13.783423	100.524415	bma	working	2022-06-09T00:00:00	10:00:00	11:00:00	7	197	1502	1800	0.83
4137	TF2-DS-S14-01 ถ.พระรามที่ 5 -ถ. อำนวยสงคราม	13.783423	100.524415	bma	working	2022-06-09T00:00:00	11:00:00	12:00:00	9	122	1644	1800	0.91
4138	TF2-DS-S14-01 ถ.พระรามที่ 5 -ถ. อำนวยสงคราม	13.783423	100.524415	bma	working	2022-06-09T00:00:00	12:00:00	13:00:00	8	188	1508	1800	0.84
4139	TF2-DS-S14-01 ถ.พระรามที่ 5 -ถ. อำนวยสงคราม	13.783423	100.524415	bma	working	2022-06-09T00:00:00	13:00:00	14:00:00	9	183	1653	1800	0.92
4140	TF2-DS-S14-01 ถ.พระรามที่ 5 -ถ. อำนวยสงคราม	13.783423	100.524415	bma	working	2022-06-09T00:00:00	14:00:00	15:00:00	8	194	1697	1800	0.94
4141	TF2-DS-S14-01 ถ.พระรามที่ 5 -ถ. อำนวยสงคราม	13.783423	100.524415	bma	working	2022-06-09T00:00:00	15:00:00	16:00:00	8	190	1485	1800	0.83
4142	TF2-DS-S14-01 ถ.พระรามที่ 5 -ถ. อำนวยสงคราม	13.783423	100.524415	bma	working	2022-06-09T00:00:00	16:00:00	17:00:00	12	109	1426	1800	0.79
4143	TF2-DS-S14-01 ถ.พระรามที่ 5 -ถ. อำนวยสงคราม	13.783423	100.524415	bma	working	2022-06-09T00:00:00	17:00:00	18:00:00	14	111	731	1800	0.41
4144	TF2-DS-S14-01 ถ.พระรามที่ 5 -ถ. อำนวยสงคราม	13.783423	100.524415	bma	working	2022-06-09T00:00:00	18:00:00	19:00:00	11	106	616	1800	0.34
4145	TF2-DS-S14-01 ถ.พระรามที่ 5 -ถ. อำนวยสงคราม	13.783423	100.524415	bma	working	2022-07-09T00:00:00	5:00:00	6:00:00	36	10	252	1800	0.14
4146	TF2-DS-S14-01 ถ.พระรามที่ 5 -ถ. อำนวยสงคราม	13.783423	100.524415	bma	working	2022-07-09T00:00:00	6:00:00	7:00:00	26	30	754	1800	0.42
4147	TF2-DS-S14-01 ถ.พระรามที่ 5 -ถ. อำนวยสงคราม	13.783423	100.524415	bma	working	2022-07-09T00:00:00	7:00:00	8:00:00	11	201	695	1800	0.39
4148	TF2-DS-S14-01 ถ.พระรามที่ 5 -ถ. อำนวยสงคราม	13.783423	100.524415	bma	working	2022-07-09T00:00:00	8:00:00	9:00:00	7	202	1532	1800	0.85
4149	TF2-DS-S14-01 ถ.พระรามที่ 5 -ถ. อำนวยสงคราม	13.783423	100.524415	bma	working	2022-07-09T00:00:00	9:00:00	10:00:00	4	202	1816	1800	1.01
4150	TF2-DS-S14-01 ถ.พระรามที่ 5 -ถ. อำนวยสงคราม	13.783423	100.524415	bma	working	2022-07-09T00:00:00	10:00:00	11:00:00	3	202	1577	1800	0.88
4151	TF2-DS-S14-01 ถ.พระรามที่ 5 -ถ. อำนวยสงคราม	13.783423	100.524415	bma	working	2022-07-09T00:00:00	11:00:00	12:00:00	3	182	1949	1800	1.08
4152	TF2-DS-S14-01 ถ.พระรามที่ 5 -ถ. อำนวยสงคราม	13.783423	100.524415	bma	working	2022-07-09T00:00:00	12:00:00	13:00:00	2	202	1715	1800	0.95
4153	TF2-DS-S14-01 ถ.พระรามที่ 5 -ถ. อำนวยสงคราม	13.783423	100.524415	bma	working	2022-07-09T00:00:00	13:00:00	14:00:00	3	201	1817	1800	1.01
4154	TF2-DS-S14-01 ถ.พระรามที่ 5 -ถ. อำนวยสงคราม	13.783423	100.524415	bma	working	2022-07-09T00:00:00	14:00:00	15:00:00	0	201	1839	1800	1.02
4155	TF2-DS-S14-01 ถ.พระรามที่ 5 -ถ. อำนวยสงคราม	13.783423	100.524415	bma	working	2022-07-09T00:00:00	15:00:00	16:00:00	5	202	1553	1800	0.86
4156	TF2-DS-S14-01 ถ.พระรามที่ 5 -ถ. อำนวยสงคราม	13.783423	100.524415	bma	working	2022-07-09T00:00:00	16:00:00	17:00:00	8	150	1266	1800	0.70
4157	TF2-DS-S14-01 ถ.พระรามที่ 5 -ถ. อำนวยสงคราม	13.783423	100.524415	bma	working	2022-07-09T00:00:00	17:00:00	18:00:00	14	117	712	1800	0.40
4158	TF2-DS-S14-01 ถ.พระรามที่ 5 -ถ. อำนวยสงคราม	13.783423	100.524415	bma	working	2022-07-09T00:00:00	18:00:00	19:00:00	8	106	782	1800	0.43
4159	TF2-DS-S14-01 ถ.พระรามที่ 5 -ถ. อำนวยสงคราม	13.783423	100.524415	bma	working	2022-08-09T00:00:00	5:00:00	6:00:00	22	23	335	1800	0.19
4160	TF2-DS-S14-01 ถ.พระรามที่ 5 -ถ. อำนวยสงคราม	13.783423	100.524415	bma	working	2022-08-09T00:00:00	6:00:00	7:00:00	16	67	1006	1800	0.56
4161	TF2-DS-S14-01 ถ.พระรามที่ 5 -ถ. อำนวยสงคราม	13.783423	100.524415	bma	working	2022-08-09T00:00:00	7:00:00	8:00:00	11	181	1635	1800	0.91
4162	TF2-DS-S14-01 ถ.พระรามที่ 5 -ถ. อำนวยสงคราม	13.783423	100.524415	bma	working	2022-08-09T00:00:00	8:00:00	9:00:00	9	193	1651	1800	0.92
4163	TF2-DS-S14-01 ถ.พระรามที่ 5 -ถ. อำนวยสงคราม	13.783423	100.524415	bma	working	2022-08-09T00:00:00	9:00:00	10:00:00	6	194	1803	1800	1.00
4164	TF2-DS-S14-01 ถ.พระรามที่ 5 -ถ. อำนวยสงคราม	13.783423	100.524415	bma	working	2022-08-09T00:00:00	10:00:00	11:00:00	5	192	1782	1800	0.99
4165	TF2-DS-S14-01 ถ.พระรามที่ 5 -ถ. อำนวยสงคราม	13.783423	100.524415	bma	working	2022-08-09T00:00:00	11:00:00	12:00:00	8	192	1666	1800	0.93
4166	TF2-DS-S14-01 ถ.พระรามที่ 5 -ถ. อำนวยสงคราม	13.783423	100.524415	bma	working	2022-08-09T00:00:00	12:00:00	13:00:00	6	202	1806	1800	1.00
4167	TF2-DS-S14-01 ถ.พระรามที่ 5 -ถ. อำนวยสงคราม	13.783423	100.524415	bma	working	2022-08-09T00:00:00	13:00:00	14:00:00	7	195	1864	1800	1.04
4168	TF2-DS-S14-01 ถ.พระรามที่ 5 -ถ. อำนวยสงคราม	13.783423	100.524415	bma	working	2022-08-09T00:00:00	14:00:00	15:00:00	4	201	1795	1800	1.00
4169	TF2-DS-S14-01 ถ.พระรามที่ 5 -ถ. อำนวยสงคราม	13.783423	100.524415	bma	working	2022-08-09T00:00:00	15:00:00	16:00:00	8	195	1658	1800	0.92
4170	TF2-DS-S14-01 ถ.พระรามที่ 5 -ถ. อำนวยสงคราม	13.783423	100.524415	bma	working	2022-08-09T00:00:00	16:00:00	17:00:00	7	178	1459	1800	0.81
4171	TF2-DS-S14-01 ถ.พระรามที่ 5 -ถ. อำนวยสงคราม	13.783423	100.524415	bma	working	2022-08-09T00:00:00	17:00:00	18:00:00	13	138	927	1800	0.52
4172	TF2-DS-S14-01 ถ.พระรามที่ 5 -ถ. อำนวยสงคราม	13.783423	100.524415	bma	working	2022-08-09T00:00:00	18:00:00	19:00:00	7	135	768	1800	0.43
4173	TF2-DS-S14-01 ถ.พระรามที่ 5 -ถ. อำนวยสงคราม	13.783423	100.524415	bma	working	2022-09-09T00:00:00	5:00:00	6:00:00	8	33	351	1800	0.20
4174	TF2-DS-S14-01 ถ.พระรามที่ 5 -ถ. อำนวยสงคราม	13.783423	100.524415	bma	working	2022-09-09T00:00:00	6:00:00	7:00:00	6	108	1129	1800	0.63
4175	TF2-DS-S14-01 ถ.พระรามที่ 5 -ถ. อำนวยสงคราม	13.783423	100.524415	bma	working	2022-09-09T00:00:00	7:00:00	8:00:00	11	137	2576	1800	1.43
4176	TF2-DS-S14-01 ถ.พระรามที่ 5 -ถ. อำนวยสงคราม	13.783423	100.524415	bma	working	2022-09-09T00:00:00	8:00:00	9:00:00	11	144	1632	1800	0.91
4177	TF2-DS-S14-01 ถ.พระรามที่ 5 -ถ. อำนวยสงคราม	13.783423	100.524415	bma	working	2022-09-09T00:00:00	9:00:00	10:00:00	9	145	1737	1800	0.97
4178	TF2-DS-S14-01 ถ.พระรามที่ 5 -ถ. อำนวยสงคราม	13.783423	100.524415	bma	working	2022-09-09T00:00:00	10:00:00	11:00:00	8	139	1868	1800	1.04
4179	TF2-DS-S14-01 ถ.พระรามที่ 5 -ถ. อำนวยสงคราม	13.783423	100.524415	bma	working	2022-09-09T00:00:00	11:00:00	12:00:00	13	193	1363	1800	0.76
4180	TF2-DS-S14-01 ถ.พระรามที่ 5 -ถ. อำนวยสงคราม	13.783423	100.524415	bma	working	2022-09-09T00:00:00	12:00:00	13:00:00	11	149	1847	1800	1.03
4181	TF2-DS-S14-01 ถ.พระรามที่ 5 -ถ. อำนวยสงคราม	13.783423	100.524415	bma	working	2022-09-09T00:00:00	13:00:00	14:00:00	10	150	1854	1800	1.03
4182	TF2-DS-S14-01 ถ.พระรามที่ 5 -ถ. อำนวยสงคราม	13.783423	100.524415	bma	working	2022-09-09T00:00:00	14:00:00	15:00:00	6	148	1682	1800	0.93
4183	TF2-DS-S14-01 ถ.พระรามที่ 5 -ถ. อำนวยสงคราม	13.783423	100.524415	bma	working	2022-09-09T00:00:00	15:00:00	16:00:00	11	148	1704	1800	0.95
4184	TF2-DS-S14-01 ถ.พระรามที่ 5 -ถ. อำนวยสงคราม	13.783423	100.524415	bma	working	2022-09-09T00:00:00	16:00:00	17:00:00	5	196	1711	1800	0.95
4185	TF2-DS-S14-01 ถ.พระรามที่ 5 -ถ. อำนวยสงคราม	13.783423	100.524415	bma	working	2022-09-09T00:00:00	17:00:00	18:00:00	11	142	1145	1800	0.64
4186	TF2-DS-S14-01 ถ.พระรามที่ 5 -ถ. อำนวยสงคราม	13.783423	100.524415	bma	working	2022-09-09T00:00:00	18:00:00	19:00:00	6	169	757	1800	0.42
4187	TF2-DS-S14-01 ถ.พระรามที่ 5 -ถ. อำนวยสงคราม	13.783423	100.524415	bma	working	2022-10-09T00:00:00	5:00:00	6:00:00	43	12	147	1800	0.08
4188	TF2-DS-S14-01 ถ.พระรามที่ 5 -ถ. อำนวยสงคราม	13.783423	100.524415	bma	holiday	2022-10-09T00:00:00	6:00:00	7:00:00	31	36	434	1800	0.24
4189	TF2-DS-S14-01 ถ.พระรามที่ 5 -ถ. อำนวยสงคราม	13.783423	100.524415	bma	holiday	2022-10-09T00:00:00	7:00:00	8:00:00	16	65	1217	1800	0.68
4190	TF2-DS-S14-01 ถ.พระรามที่ 5 -ถ. อำนวยสงคราม	13.783423	100.524415	bma	holiday	2022-10-09T00:00:00	8:00:00	9:00:00	17	91	1480	1800	0.82
4191	TF2-DS-S14-01 ถ.พระรามที่ 5 -ถ. อำนวยสงคราม	13.783423	100.524415	bma	working	2022-10-09T00:00:00	9:00:00	10:00:00	14	83	1469	1800	0.82
4192	TF2-DS-S14-01 ถ.พระรามที่ 5 -ถ. อำนวยสงคราม	13.783423	100.524415	bma	working	2022-10-09T00:00:00	10:00:00	11:00:00	13	91	1349	1800	0.75
4193	TF2-DS-S14-01 ถ.พระรามที่ 5 -ถ. อำนวยสงคราม	13.783423	100.524415	bma	holiday	2022-10-09T00:00:00	11:00:00	12:00:00	23	95	1182	1800	0.66
4194	TF2-DS-S14-01 ถ.พระรามที่ 5 -ถ. อำนวยสงคราม	13.783423	100.524415	bma	working	2022-10-09T00:00:00	12:00:00	13:00:00	14	88	1445	1800	0.80
4195	TF2-DS-S14-01 ถ.พระรามที่ 5 -ถ. อำนวยสงคราม	13.783423	100.524415	bma	working	2022-10-09T00:00:00	13:00:00	14:00:00	14	82	1366	1800	0.76
4196	TF2-DS-S14-01 ถ.พระรามที่ 5 -ถ. อำนวยสงคราม	13.783423	100.524415	bma	working	2022-10-09T00:00:00	14:00:00	15:00:00	13	86	1488	1800	0.83
4197	TF2-DS-S14-01 ถ.พระรามที่ 5 -ถ. อำนวยสงคราม	13.783423	100.524415	bma	working	2022-10-09T00:00:00	15:00:00	16:00:00	16	89	1503	1800	0.84
4198	TF2-DS-S14-01 ถ.พระรามที่ 5 -ถ. อำนวยสงคราม	13.783423	100.524415	bma	holiday	2022-10-09T00:00:00	16:00:00	17:00:00	10	136	1283	1800	0.71
4199	TF2-DS-S14-01 ถ.พระรามที่ 5 -ถ. อำนวยสงคราม	13.783423	100.524415	bma	holiday	2022-10-09T00:00:00	17:00:00	18:00:00	5	201	1099	1800	0.61
4200	TF2-DS-S14-01 ถ.พระรามที่ 5 -ถ. อำนวยสงคราม	13.783423	100.524415	bma	holiday	2022-10-09T00:00:00	18:00:00	19:00:00	7	73	1537	1800	0.85
4201	TF2-DS-S14-01 ถ.พระรามที่ 5 -ถ. อำนวยสงคราม	13.783423	100.524415	bma	working	2022-11-09T00:00:00	5:00:00	6:00:00	26	7	84	1800	0.05
4202	TF2-DS-S14-01 ถ.พระรามที่ 5 -ถ. อำนวยสงคราม	13.783423	100.524415	bma	holiday	2022-11-09T00:00:00	6:00:00	7:00:00	19	21	236	1800	0.13
4203	TF2-DS-S14-01 ถ.พระรามที่ 5 -ถ. อำนวยสงคราม	13.783423	100.524415	bma	holiday	2022-11-09T00:00:00	7:00:00	8:00:00	10	39	781	1800	0.43
4204	TF2-DS-S14-01 ถ.พระรามที่ 5 -ถ. อำนวยสงคราม	13.783423	100.524415	bma	holiday	2022-11-09T00:00:00	8:00:00	9:00:00	11	56	950	1800	0.53
4205	TF2-DS-S14-01 ถ.พระรามที่ 5 -ถ. อำนวยสงคราม	13.783423	100.524415	bma	working	2022-11-09T00:00:00	9:00:00	10:00:00	9	53	978	1800	0.54
4206	TF2-DS-S14-01 ถ.พระรามที่ 5 -ถ. อำนวยสงคราม	13.783423	100.524415	bma	working	2022-11-09T00:00:00	10:00:00	11:00:00	7	54	854	1800	0.47
4207	TF2-DS-S14-01 ถ.พระรามที่ 5 -ถ. อำนวยสงคราม	13.783423	100.524415	bma	holiday	2022-11-09T00:00:00	11:00:00	12:00:00	14	57	759	1800	0.42
4208	TF2-DS-S14-01 ถ.พระรามที่ 5 -ถ. อำนวยสงคราม	13.783423	100.524415	bma	working	2022-11-09T00:00:00	12:00:00	13:00:00	8	51	897	1800	0.50
4209	TF2-DS-S14-01 ถ.พระรามที่ 5 -ถ. อำนวยสงคราม	13.783423	100.524415	bma	working	2022-11-09T00:00:00	13:00:00	14:00:00	9	51	904	1800	0.50
4210	TF2-DS-S14-01 ถ.พระรามที่ 5 -ถ. อำนวยสงคราม	13.783423	100.524415	bma	working	2022-11-09T00:00:00	14:00:00	15:00:00	9	51	952	1800	0.53
4211	TF2-DS-S14-01 ถ.พระรามที่ 5 -ถ. อำนวยสงคราม	13.783423	100.524415	bma	working	2022-11-09T00:00:00	15:00:00	16:00:00	9	52	921	1800	0.51
4212	TF2-DS-S14-01 ถ.พระรามที่ 5 -ถ. อำนวยสงคราม	13.783423	100.524415	bma	holiday	2022-11-09T00:00:00	16:00:00	17:00:00	6	86	822	1800	0.46
4213	TF2-DS-S14-01 ถ.พระรามที่ 5 -ถ. อำนวยสงคราม	13.783423	100.524415	bma	holiday	2022-11-09T00:00:00	17:00:00	18:00:00	4	163	656	1800	0.36
4214	TF2-DS-S14-01 ถ.พระรามที่ 5 -ถ. อำนวยสงคราม	13.783423	100.524415	bma	holiday	2022-11-09T00:00:00	18:00:00	19:00:00	4	44	1027	1800	0.57
4215	TF2-DS-S15-01 ถ.ประดิพัทธ์-ถ.พระรามที่ 5	13.79328609	100.5299149	bma	working	2022-05-09T00:00:00	5:00:00	6:00:00	22	21	389	1800	0.22
4216	TF2-DS-S15-01 ถ.ประดิพัทธ์-ถ.พระรามที่ 5	13.79328609	100.5299149	bma	working	2022-05-09T00:00:00	6:00:00	7:00:00	16	66	1157	1800	0.64
4217	TF2-DS-S15-01 ถ.ประดิพัทธ์-ถ.พระรามที่ 5	13.79328609	100.5299149	bma	working	2022-05-09T00:00:00	7:00:00	8:00:00	17	136	2307	1800	1.28
4218	TF2-DS-S15-01 ถ.ประดิพัทธ์-ถ.พระรามที่ 5	13.79328609	100.5299149	bma	working	2022-05-09T00:00:00	8:00:00	9:00:00	17	117	1845	1800	1.03
4219	TF2-DS-S15-01 ถ.ประดิพัทธ์-ถ.พระรามที่ 5	13.79328609	100.5299149	bma	working	2022-05-09T00:00:00	9:00:00	10:00:00	15	112	1748	1800	0.97
4220	TF2-DS-S15-01 ถ.ประดิพัทธ์-ถ.พระรามที่ 5	13.79328609	100.5299149	bma	working	2022-05-09T00:00:00	10:00:00	11:00:00	13	116	1611	1800	0.90
4221	TF2-DS-S15-01 ถ.ประดิพัทธ์-ถ.พระรามที่ 5	13.79328609	100.5299149	bma	working	2022-05-09T00:00:00	11:00:00	12:00:00	25	72	1382	1800	0.77
4222	TF2-DS-S15-01 ถ.ประดิพัทธ์-ถ.พระรามที่ 5	13.79328609	100.5299149	bma	working	2022-05-09T00:00:00	12:00:00	13:00:00	14	117	1521	1800	0.85
4223	TF2-DS-S15-01 ถ.ประดิพัทธ์-ถ.พระรามที่ 5	13.79328609	100.5299149	bma	working	2022-05-09T00:00:00	13:00:00	14:00:00	12	117	1693	1800	0.94
4224	TF2-DS-S15-01 ถ.ประดิพัทธ์-ถ.พระรามที่ 5	13.79328609	100.5299149	bma	working	2022-05-09T00:00:00	14:00:00	15:00:00	11	112	1662	1800	0.92
4225	TF2-DS-S15-01 ถ.ประดิพัทธ์-ถ.พระรามที่ 5	13.79328609	100.5299149	bma	working	2022-05-09T00:00:00	15:00:00	16:00:00	13	118	1563	1800	0.87
4226	TF2-DS-S15-01 ถ.ประดิพัทธ์-ถ.พระรามที่ 5	13.79328609	100.5299149	bma	working	2022-05-09T00:00:00	16:00:00	17:00:00	18	157	2314	1800	1.29
4227	TF2-DS-S15-01 ถ.ประดิพัทธ์-ถ.พระรามที่ 5	13.79328609	100.5299149	bma	working	2022-05-09T00:00:00	17:00:00	18:00:00	15	45	602	1800	0.33
4228	TF2-DS-S15-01 ถ.ประดิพัทธ์-ถ.พระรามที่ 5	13.79328609	100.5299149	bma	working	2022-05-09T00:00:00	18:00:00	19:00:00	14	46	411	1800	0.23
4229	TF2-DS-S15-01 ถ.ประดิพัทธ์-ถ.พระรามที่ 5	13.79328609	100.5299149	bma	working	2022-06-09T00:00:00	5:00:00	6:00:00	24	25	262	1800	0.15
4230	TF2-DS-S15-01 ถ.ประดิพัทธ์-ถ.พระรามที่ 5	13.79328609	100.5299149	bma	working	2022-06-09T00:00:00	6:00:00	7:00:00	18	76	816	1800	0.45
4231	TF2-DS-S15-01 ถ.ประดิพัทธ์-ถ.พระรามที่ 5	13.79328609	100.5299149	bma	working	2022-06-09T00:00:00	7:00:00	8:00:00	15	117	2341	1800	1.30
4232	TF2-DS-S15-01 ถ.ประดิพัทธ์-ถ.พระรามที่ 5	13.79328609	100.5299149	bma	working	2022-06-09T00:00:00	8:00:00	9:00:00	16	121	1693	1800	0.94
4233	TF2-DS-S15-01 ถ.ประดิพัทธ์-ถ.พระรามที่ 5	13.79328609	100.5299149	bma	working	2022-06-09T00:00:00	9:00:00	10:00:00	14	110	1752	1800	0.97
4234	TF2-DS-S15-01 ถ.ประดิพัทธ์-ถ.พระรามที่ 5	13.79328609	100.5299149	bma	working	2022-06-09T00:00:00	10:00:00	11:00:00	13	117	1522	1800	0.85
4235	TF2-DS-S15-01 ถ.ประดิพัทธ์-ถ.พระรามที่ 5	13.79328609	100.5299149	bma	working	2022-06-09T00:00:00	11:00:00	12:00:00	26	73	1319	1800	0.73
4236	TF2-DS-S15-01 ถ.ประดิพัทธ์-ถ.พระรามที่ 5	13.79328609	100.5299149	bma	working	2022-06-09T00:00:00	12:00:00	13:00:00	14	117	1511	1800	0.84
4237	TF2-DS-S15-01 ถ.ประดิพัทธ์-ถ.พระรามที่ 5	13.79328609	100.5299149	bma	working	2022-06-09T00:00:00	13:00:00	14:00:00	13	113	1666	1800	0.93
4238	TF2-DS-S15-01 ถ.ประดิพัทธ์-ถ.พระรามที่ 5	13.79328609	100.5299149	bma	working	2022-06-09T00:00:00	14:00:00	15:00:00	13	114	1712	1800	0.95
4239	TF2-DS-S15-01 ถ.ประดิพัทธ์-ถ.พระรามที่ 5	13.79328609	100.5299149	bma	working	2022-06-09T00:00:00	15:00:00	16:00:00	14	115	1573	1800	0.87
4240	TF2-DS-S15-01 ถ.ประดิพัทธ์-ถ.พระรามที่ 5	13.79328609	100.5299149	bma	working	2022-06-09T00:00:00	16:00:00	17:00:00	15	134	1704	1800	0.95
4241	TF2-DS-S15-01 ถ.ประดิพัทธ์-ถ.พระรามที่ 5	13.79328609	100.5299149	bma	working	2022-06-09T00:00:00	17:00:00	18:00:00	16	50	555	1800	0.31
4242	TF2-DS-S15-01 ถ.ประดิพัทธ์-ถ.พระรามที่ 5	13.79328609	100.5299149	bma	working	2022-06-09T00:00:00	18:00:00	19:00:00	15	67	382	1800	0.21
4243	TF2-DS-S15-01 ถ.ประดิพัทธ์-ถ.พระรามที่ 5	13.79328609	100.5299149	bma	working	2022-07-09T00:00:00	5:00:00	6:00:00	32	26	188	1800	0.10
4244	TF2-DS-S15-01 ถ.ประดิพัทธ์-ถ.พระรามที่ 5	13.79328609	100.5299149	bma	working	2022-07-09T00:00:00	6:00:00	7:00:00	23	82	537	1800	0.30
4245	TF2-DS-S15-01 ถ.ประดิพัทธ์-ถ.พระรามที่ 5	13.79328609	100.5299149	bma	working	2022-07-09T00:00:00	7:00:00	8:00:00	15	101	2319	1800	1.29
4246	TF2-DS-S15-01 ถ.ประดิพัทธ์-ถ.พระรามที่ 5	13.79328609	100.5299149	bma	working	2022-07-09T00:00:00	8:00:00	9:00:00	17	116	1575	1800	0.88
4247	TF2-DS-S15-01 ถ.ประดิพัทธ์-ถ.พระรามที่ 5	13.79328609	100.5299149	bma	working	2022-07-09T00:00:00	9:00:00	10:00:00	15	109	1781	1800	0.99
4248	TF2-DS-S15-01 ถ.ประดิพัทธ์-ถ.พระรามที่ 5	13.79328609	100.5299149	bma	working	2022-07-09T00:00:00	10:00:00	11:00:00	15	116	1446	1800	0.80
4249	TF2-DS-S15-01 ถ.ประดิพัทธ์-ถ.พระรามที่ 5	13.79328609	100.5299149	bma	working	2022-07-09T00:00:00	11:00:00	12:00:00	25	75	1331	1800	0.74
4250	TF2-DS-S15-01 ถ.ประดิพัทธ์-ถ.พระรามที่ 5	13.79328609	100.5299149	bma	working	2022-07-09T00:00:00	12:00:00	13:00:00	14	113	1518	1800	0.84
4251	TF2-DS-S15-01 ถ.ประดิพัทธ์-ถ.พระรามที่ 5	13.79328609	100.5299149	bma	working	2022-07-09T00:00:00	13:00:00	14:00:00	13	109	1673	1800	0.93
4252	TF2-DS-S15-01 ถ.ประดิพัทธ์-ถ.พระรามที่ 5	13.79328609	100.5299149	bma	working	2022-07-09T00:00:00	14:00:00	15:00:00	13	119	1725	1800	0.96
4253	TF2-DS-S15-01 ถ.ประดิพัทธ์-ถ.พระรามที่ 5	13.79328609	100.5299149	bma	working	2022-07-09T00:00:00	15:00:00	16:00:00	16	110	1614	1800	0.90
4254	TF2-DS-S15-01 ถ.ประดิพัทธ์-ถ.พระรามที่ 5	13.79328609	100.5299149	bma	working	2022-07-09T00:00:00	16:00:00	17:00:00	13	102	1045	1800	0.58
4255	TF2-DS-S15-01 ถ.ประดิพัทธ์-ถ.พระรามที่ 5	13.79328609	100.5299149	bma	working	2022-07-09T00:00:00	17:00:00	18:00:00	18	57	591	1800	0.33
4256	TF2-DS-S15-01 ถ.ประดิพัทธ์-ถ.พระรามที่ 5	13.79328609	100.5299149	bma	working	2022-07-09T00:00:00	18:00:00	19:00:00	15	94	434	1800	0.24
4257	TF2-DS-S15-01 ถ.ประดิพัทธ์-ถ.พระรามที่ 5	13.79328609	100.5299149	bma	working	2022-08-09T00:00:00	5:00:00	6:00:00	26	31	446	1800	0.25
4258	TF2-DS-S15-01 ถ.ประดิพัทธ์-ถ.พระรามที่ 5	13.79328609	100.5299149	bma	working	2022-08-09T00:00:00	6:00:00	7:00:00	19	92	1414	1800	0.79
4259	TF2-DS-S15-01 ถ.ประดิพัทธ์-ถ.พระรามที่ 5	13.79328609	100.5299149	bma	working	2022-08-09T00:00:00	7:00:00	8:00:00	16	85	1943	1800	1.08
4260	TF2-DS-S15-01 ถ.ประดิพัทธ์-ถ.พระรามที่ 5	13.79328609	100.5299149	bma	working	2022-08-09T00:00:00	8:00:00	9:00:00	15	83	1143	1800	0.64
4261	TF2-DS-S15-01 ถ.ประดิพัทธ์-ถ.พระรามที่ 5	13.79328609	100.5299149	bma	working	2022-08-09T00:00:00	9:00:00	10:00:00	13	80	1160	1800	0.64
4262	TF2-DS-S15-01 ถ.ประดิพัทธ์-ถ.พระรามที่ 5	13.79328609	100.5299149	bma	working	2022-08-09T00:00:00	10:00:00	11:00:00	12	79	987	1800	0.55
4263	TF2-DS-S15-01 ถ.ประดิพัทธ์-ถ.พระรามที่ 5	13.79328609	100.5299149	bma	working	2022-08-09T00:00:00	11:00:00	12:00:00	17	65	811	1800	0.45
4264	TF2-DS-S15-01 ถ.ประดิพัทธ์-ถ.พระรามที่ 5	13.79328609	100.5299149	bma	working	2022-08-09T00:00:00	12:00:00	13:00:00	12	76	1074	1800	0.60
4265	TF2-DS-S15-01 ถ.ประดิพัทธ์-ถ.พระรามที่ 5	13.79328609	100.5299149	bma	working	2022-08-09T00:00:00	13:00:00	14:00:00	13	76	1058	1800	0.59
4266	TF2-DS-S15-01 ถ.ประดิพัทธ์-ถ.พระรามที่ 5	13.79328609	100.5299149	bma	working	2022-08-09T00:00:00	14:00:00	15:00:00	12	81	1144	1800	0.64
4267	TF2-DS-S15-01 ถ.ประดิพัทธ์-ถ.พระรามที่ 5	13.79328609	100.5299149	bma	working	2022-08-09T00:00:00	15:00:00	16:00:00	12	81	1076	1800	0.60
4268	TF2-DS-S15-01 ถ.ประดิพัทธ์-ถ.พระรามที่ 5	13.79328609	100.5299149	bma	working	2022-08-09T00:00:00	16:00:00	17:00:00	15	79	656	1800	0.36
4269	TF2-DS-S15-01 ถ.ประดิพัทธ์-ถ.พระรามที่ 5	13.79328609	100.5299149	bma	working	2022-08-09T00:00:00	17:00:00	18:00:00	15	82	1099	1800	0.61
4270	TF2-DS-S15-01 ถ.ประดิพัทธ์-ถ.พระรามที่ 5	13.79328609	100.5299149	bma	working	2022-08-09T00:00:00	18:00:00	19:00:00	19	68	486	1800	0.27
4271	TF2-DS-S15-01 ถ.ประดิพัทธ์-ถ.พระรามที่ 5	13.79328609	100.5299149	bma	working	2022-09-09T00:00:00	5:00:00	6:00:00	22	33	705	1800	0.39
4272	TF2-DS-S15-01 ถ.ประดิพัทธ์-ถ.พระรามที่ 5	13.79328609	100.5299149	bma	working	2022-09-09T00:00:00	6:00:00	7:00:00	16	96	2098	1800	1.17
4273	TF2-DS-S15-01 ถ.ประดิพัทธ์-ถ.พระรามที่ 5	13.79328609	100.5299149	bma	working	2022-09-09T00:00:00	7:00:00	8:00:00	17	72	1578	1800	0.88
4274	TF2-DS-S15-01 ถ.ประดิพัทธ์-ถ.พระรามที่ 5	13.79328609	100.5299149	bma	working	2022-09-09T00:00:00	8:00:00	9:00:00	12	45	643	1800	0.36
4275	TF2-DS-S15-01 ถ.ประดิพัทธ์-ถ.พระรามที่ 5	13.79328609	100.5299149	bma	working	2022-09-09T00:00:00	9:00:00	10:00:00	10	47	524	1800	0.29
4276	TF2-DS-S15-01 ถ.ประดิพัทธ์-ถ.พระรามที่ 5	13.79328609	100.5299149	bma	working	2022-09-09T00:00:00	10:00:00	11:00:00	9	40	620	1800	0.34
4277	TF2-DS-S15-01 ถ.ประดิพัทธ์-ถ.พระรามที่ 5	13.79328609	100.5299149	bma	working	2022-09-09T00:00:00	11:00:00	12:00:00	9	55	211	1800	0.12
4278	TF2-DS-S15-01 ถ.ประดิพัทธ์-ถ.พระรามที่ 5	13.79328609	100.5299149	bma	working	2022-09-09T00:00:00	12:00:00	13:00:00	10	41	641	1800	0.36
4279	TF2-DS-S15-01 ถ.ประดิพัทธ์-ถ.พระรามที่ 5	13.79328609	100.5299149	bma	working	2022-09-09T00:00:00	13:00:00	14:00:00	12	44	484	1800	0.27
4280	TF2-DS-S15-01 ถ.ประดิพัทธ์-ถ.พระรามที่ 5	13.79328609	100.5299149	bma	working	2022-09-09T00:00:00	14:00:00	15:00:00	12	47	570	1800	0.32
4281	TF2-DS-S15-01 ถ.ประดิพัทธ์-ถ.พระรามที่ 5	13.79328609	100.5299149	bma	working	2022-09-09T00:00:00	15:00:00	16:00:00	8	42	522	1800	0.29
4282	TF2-DS-S15-01 ถ.ประดิพัทธ์-ถ.พระรามที่ 5	13.79328609	100.5299149	bma	working	2022-09-09T00:00:00	16:00:00	17:00:00	15	43	343	1800	0.19
4283	TF2-DS-S15-01 ถ.ประดิพัทธ์-ถ.พระรามที่ 5	13.79328609	100.5299149	bma	working	2022-09-09T00:00:00	17:00:00	18:00:00	11	111	1593	1800	0.89
4284	TF2-DS-S15-01 ถ.ประดิพัทธ์-ถ.พระรามที่ 5	13.79328609	100.5299149	bma	working	2022-09-09T00:00:00	18:00:00	19:00:00	21	45	254	1800	0.14
4285	TF2-DS-S15-01 ถ.ประดิพัทธ์-ถ.พระรามที่ 5	13.79328609	100.5299149	bma	working	2022-10-09T00:00:00	5:00:00	6:00:00	16	9	119	1800	0.07
4286	TF2-DS-S15-01 ถ.ประดิพัทธ์-ถ.พระรามที่ 5	13.79328609	100.5299149	bma	holiday	2022-10-09T00:00:00	6:00:00	7:00:00	12	26	312	1800	0.17
4287	TF2-DS-S15-01 ถ.ประดิพัทธ์-ถ.พระรามที่ 5	13.79328609	100.5299149	bma	holiday	2022-10-09T00:00:00	7:00:00	8:00:00	16	43	228	1800	0.13
4288	TF2-DS-S15-01 ถ.ประดิพัทธ์-ถ.พระรามที่ 5	13.79328609	100.5299149	bma	holiday	2022-10-09T00:00:00	8:00:00	9:00:00	18	45	428	1800	0.24
4289	TF2-DS-S15-01 ถ.ประดิพัทธ์-ถ.พระรามที่ 5	13.79328609	100.5299149	bma	working	2022-10-09T00:00:00	9:00:00	10:00:00	14	46	438	1800	0.24
4290	TF2-DS-S15-01 ถ.ประดิพัทธ์-ถ.พระรามที่ 5	13.79328609	100.5299149	bma	working	2022-10-09T00:00:00	10:00:00	11:00:00	17	47	463	1800	0.26
4291	TF2-DS-S15-01 ถ.ประดิพัทธ์-ถ.พระรามที่ 5	13.79328609	100.5299149	bma	holiday	2022-10-09T00:00:00	11:00:00	12:00:00	12	61	213	1800	0.12
4292	TF2-DS-S15-01 ถ.ประดิพัทธ์-ถ.พระรามที่ 5	13.79328609	100.5299149	bma	working	2022-10-09T00:00:00	12:00:00	13:00:00	18	44	514	1800	0.29
4293	TF2-DS-S15-01 ถ.ประดิพัทธ์-ถ.พระรามที่ 5	13.79328609	100.5299149	bma	working	2022-10-09T00:00:00	13:00:00	14:00:00	16	43	352	1800	0.20
4294	TF2-DS-S15-01 ถ.ประดิพัทธ์-ถ.พระรามที่ 5	13.79328609	100.5299149	bma	working	2022-10-09T00:00:00	14:00:00	15:00:00	14	45	426	1800	0.24
4295	TF2-DS-S15-01 ถ.ประดิพัทธ์-ถ.พระรามที่ 5	13.79328609	100.5299149	bma	working	2022-10-09T00:00:00	15:00:00	16:00:00	15	44	275	1800	0.15
4296	TF2-DS-S15-01 ถ.ประดิพัทธ์-ถ.พระรามที่ 5	13.79328609	100.5299149	bma	holiday	2022-10-09T00:00:00	16:00:00	17:00:00	18	68	682	1800	0.38
4297	TF2-DS-S15-01 ถ.ประดิพัทธ์-ถ.พระรามที่ 5	13.79328609	100.5299149	bma	holiday	2022-10-09T00:00:00	17:00:00	18:00:00	15	33	534	1800	0.30
4298	TF2-DS-S15-01 ถ.ประดิพัทธ์-ถ.พระรามที่ 5	13.79328609	100.5299149	bma	holiday	2022-10-09T00:00:00	18:00:00	19:00:00	17	14	143	1800	0.08
4299	TF2-DS-S15-01 ถ.ประดิพัทธ์-ถ.พระรามที่ 5	13.79328609	100.5299149	bma	working	2022-11-09T00:00:00	5:00:00	6:00:00	11	5	62	1800	0.03
4300	TF2-DS-S15-01 ถ.ประดิพัทธ์-ถ.พระรามที่ 5	13.79328609	100.5299149	bma	holiday	2022-11-09T00:00:00	6:00:00	7:00:00	8	16	177	1800	0.10
4301	TF2-DS-S15-01 ถ.ประดิพัทธ์-ถ.พระรามที่ 5	13.79328609	100.5299149	bma	holiday	2022-11-09T00:00:00	7:00:00	8:00:00	9	27	133	1800	0.07
4302	TF2-DS-S15-01 ถ.ประดิพัทธ์-ถ.พระรามที่ 5	13.79328609	100.5299149	bma	holiday	2022-11-09T00:00:00	8:00:00	9:00:00	11	30	331	1800	0.18
4303	TF2-DS-S15-01 ถ.ประดิพัทธ์-ถ.พระรามที่ 5	13.79328609	100.5299149	bma	working	2022-11-09T00:00:00	9:00:00	10:00:00	9	26	309	1800	0.17
4304	TF2-DS-S15-01 ถ.ประดิพัทธ์-ถ.พระรามที่ 5	13.79328609	100.5299149	bma	working	2022-11-09T00:00:00	10:00:00	11:00:00	11	29	324	1800	0.18
4305	TF2-DS-S15-01 ถ.ประดิพัทธ์-ถ.พระรามที่ 5	13.79328609	100.5299149	bma	holiday	2022-11-09T00:00:00	11:00:00	12:00:00	8	37	150	1800	0.08
4306	TF2-DS-S15-01 ถ.ประดิพัทธ์-ถ.พระรามที่ 5	13.79328609	100.5299149	bma	working	2022-11-09T00:00:00	12:00:00	13:00:00	11	25	338	1800	0.19
4307	TF2-DS-S15-01 ถ.ประดิพัทธ์-ถ.พระรามที่ 5	13.79328609	100.5299149	bma	working	2022-11-09T00:00:00	13:00:00	14:00:00	10	28	245	1800	0.14
4308	TF2-DS-S15-01 ถ.ประดิพัทธ์-ถ.พระรามที่ 5	13.79328609	100.5299149	bma	working	2022-11-09T00:00:00	14:00:00	15:00:00	8	28	297	1800	0.17
4309	TF2-DS-S15-01 ถ.ประดิพัทธ์-ถ.พระรามที่ 5	13.79328609	100.5299149	bma	working	2022-11-09T00:00:00	15:00:00	16:00:00	9	27	232	1800	0.13
4310	TF2-DS-S15-01 ถ.ประดิพัทธ์-ถ.พระรามที่ 5	13.79328609	100.5299149	bma	holiday	2022-11-09T00:00:00	16:00:00	17:00:00	11	41	416	1800	0.23
4311	TF2-DS-S15-01 ถ.ประดิพัทธ์-ถ.พระรามที่ 5	13.79328609	100.5299149	bma	holiday	2022-11-09T00:00:00	17:00:00	18:00:00	9	21	329	1800	0.18
4312	TF2-DS-S15-01 ถ.ประดิพัทธ์-ถ.พระรามที่ 5	13.79328609	100.5299149	bma	holiday	2022-11-09T00:00:00	18:00:00	19:00:00	11	9	55	1800	0.03
4313	TF2-DS-S15-02 ถ.ประดิพัทธ์-ถ.ทหาร	13.79351061	100.5298111	bma	working	2022-05-09T00:00:00	5:00:00	6:00:00	27	39	344	2700	0.13
4314	TF2-DS-S15-02 ถ.ประดิพัทธ์-ถ.ทหาร	13.79351061	100.5298111	bma	working	2022-05-09T00:00:00	6:00:00	7:00:00	20	112	982	2700	0.36
4315	TF2-DS-S15-02 ถ.ประดิพัทธ์-ถ.ทหาร	13.79351061	100.5298111	bma	working	2022-05-09T00:00:00	7:00:00	8:00:00	17	197	1043	2700	0.39
4316	TF2-DS-S15-02 ถ.ประดิพัทธ์-ถ.ทหาร	13.79351061	100.5298111	bma	working	2022-05-09T00:00:00	8:00:00	9:00:00	16	201	1816	2700	0.67
4317	TF2-DS-S15-02 ถ.ประดิพัทธ์-ถ.ทหาร	13.79351061	100.5298111	bma	working	2022-05-09T00:00:00	9:00:00	10:00:00	14	201	1788	2700	0.66
4318	TF2-DS-S15-02 ถ.ประดิพัทธ์-ถ.ทหาร	13.79351061	100.5298111	bma	working	2022-05-09T00:00:00	10:00:00	11:00:00	12	201	1620	2700	0.60
4319	TF2-DS-S15-02 ถ.ประดิพัทธ์-ถ.ทหาร	13.79351061	100.5298111	bma	working	2022-05-09T00:00:00	11:00:00	12:00:00	21	202	648	2700	0.24
4320	TF2-DS-S15-02 ถ.ประดิพัทธ์-ถ.ทหาร	13.79351061	100.5298111	bma	working	2022-05-09T00:00:00	12:00:00	13:00:00	15	202	1656	2700	0.61
4321	TF2-DS-S15-02 ถ.ประดิพัทธ์-ถ.ทหาร	13.79351061	100.5298111	bma	working	2022-05-09T00:00:00	13:00:00	14:00:00	13	201	1694	2700	0.63
4322	TF2-DS-S15-02 ถ.ประดิพัทธ์-ถ.ทหาร	13.79351061	100.5298111	bma	working	2022-05-09T00:00:00	14:00:00	15:00:00	12	201	1682	2700	0.62
4323	TF2-DS-S15-02 ถ.ประดิพัทธ์-ถ.ทหาร	13.79351061	100.5298111	bma	working	2022-05-09T00:00:00	15:00:00	16:00:00	15	202	1627	2700	0.60
4324	TF2-DS-S15-02 ถ.ประดิพัทธ์-ถ.ทหาร	13.79351061	100.5298111	bma	working	2022-05-09T00:00:00	16:00:00	17:00:00	53	201	389	2700	0.14
4325	TF2-DS-S15-02 ถ.ประดิพัทธ์-ถ.ทหาร	13.79351061	100.5298111	bma	working	2022-05-09T00:00:00	17:00:00	18:00:00	19	201	1404	2700	0.52
4326	TF2-DS-S15-02 ถ.ประดิพัทธ์-ถ.ทหาร	13.79351061	100.5298111	bma	working	2022-05-09T00:00:00	18:00:00	19:00:00	18	127	1020	2700	0.38
4327	TF2-DS-S15-02 ถ.ประดิพัทธ์-ถ.ทหาร	13.79351061	100.5298111	bma	working	2022-06-09T00:00:00	5:00:00	6:00:00	22	56	320	2700	0.12
4328	TF2-DS-S15-02 ถ.ประดิพัทธ์-ถ.ทหาร	13.79351061	100.5298111	bma	working	2022-06-09T00:00:00	6:00:00	7:00:00	16	164	879	2700	0.33
4329	TF2-DS-S15-02 ถ.ประดิพัทธ์-ถ.ทหาร	13.79351061	100.5298111	bma	working	2022-06-09T00:00:00	7:00:00	8:00:00	18	174	1600	2700	0.59
4330	TF2-DS-S15-02 ถ.ประดิพัทธ์-ถ.ทหาร	13.79351061	100.5298111	bma	working	2022-06-09T00:00:00	8:00:00	9:00:00	10	201	1106	2700	0.41
4331	TF2-DS-S15-02 ถ.ประดิพัทธ์-ถ.ทหาร	13.79351061	100.5298111	bma	working	2022-06-09T00:00:00	9:00:00	10:00:00	8	201	1032	2700	0.38
4332	TF2-DS-S15-02 ถ.ประดิพัทธ์-ถ.ทหาร	13.79351061	100.5298111	bma	working	2022-06-09T00:00:00	10:00:00	11:00:00	7	202	975	2700	0.36
4333	TF2-DS-S15-02 ถ.ประดิพัทธ์-ถ.ทหาร	13.79351061	100.5298111	bma	working	2022-06-09T00:00:00	11:00:00	12:00:00	19	202	886	2700	0.33
4334	TF2-DS-S15-02 ถ.ประดิพัทธ์-ถ.ทหาร	13.79351061	100.5298111	bma	working	2022-06-09T00:00:00	12:00:00	13:00:00	8	202	989	2700	0.37
4335	TF2-DS-S15-02 ถ.ประดิพัทธ์-ถ.ทหาร	13.79351061	100.5298111	bma	working	2022-06-09T00:00:00	13:00:00	14:00:00	7	202	993	2700	0.37
4336	TF2-DS-S15-02 ถ.ประดิพัทธ์-ถ.ทหาร	13.79351061	100.5298111	bma	working	2022-06-09T00:00:00	14:00:00	15:00:00	6	202	996	2700	0.37
4337	TF2-DS-S15-02 ถ.ประดิพัทธ์-ถ.ทหาร	13.79351061	100.5298111	bma	working	2022-06-09T00:00:00	15:00:00	16:00:00	8	201	950	2700	0.35
4338	TF2-DS-S15-02 ถ.ประดิพัทธ์-ถ.ทหาร	13.79351061	100.5298111	bma	working	2022-06-09T00:00:00	16:00:00	17:00:00	57	202	422	2700	0.16
4339	TF2-DS-S15-02 ถ.ประดิพัทธ์-ถ.ทหาร	13.79351061	100.5298111	bma	working	2022-06-09T00:00:00	17:00:00	18:00:00	36	201	855	2700	0.32
4340	TF2-DS-S15-02 ถ.ประดิพัทธ์-ถ.ทหาร	13.79351061	100.5298111	bma	working	2022-06-09T00:00:00	18:00:00	19:00:00	16	189	1167	2700	0.43
4341	TF2-DS-S15-02 ถ.ประดิพัทธ์-ถ.ทหาร	13.79351061	100.5298111	bma	working	2022-07-09T00:00:00	5:00:00	6:00:00	16	68	232	2700	0.09
4342	TF2-DS-S15-02 ถ.ประดิพัทธ์-ถ.ทหาร	13.79351061	100.5298111	bma	working	2022-07-09T00:00:00	6:00:00	7:00:00	12	196	644	2700	0.24
4343	TF2-DS-S15-02 ถ.ประดิพัทธ์-ถ.ทหาร	13.79351061	100.5298111	bma	working	2022-07-09T00:00:00	7:00:00	8:00:00	16	169	2094	2700	0.78
4344	TF2-DS-S15-02 ถ.ประดิพัทธ์-ถ.ทหาร	13.79351061	100.5298111	bma	working	2022-07-09T00:00:00	8:00:00	9:00:00	4	201	495	2700	0.18
4345	TF2-DS-S15-02 ถ.ประดิพัทธ์-ถ.ทหาร	13.79351061	100.5298111	bma	working	2022-07-09T00:00:00	9:00:00	10:00:00	0	202	341	2700	0.13
4346	TF2-DS-S15-02 ถ.ประดิพัทธ์-ถ.ทหาร	13.79351061	100.5298111	bma	working	2022-07-09T00:00:00	10:00:00	11:00:00	2	201	348	2700	0.13
4347	TF2-DS-S15-02 ถ.ประดิพัทธ์-ถ.ทหาร	13.79351061	100.5298111	bma	working	2022-07-09T00:00:00	11:00:00	12:00:00	19	195	950	2700	0.35
4348	TF2-DS-S15-02 ถ.ประดิพัทธ์-ถ.ทหาร	13.79351061	100.5298111	bma	working	2022-07-09T00:00:00	12:00:00	13:00:00	0	202	325	2700	0.12
4349	TF2-DS-S15-02 ถ.ประดิพัทธ์-ถ.ทหาร	13.79351061	100.5298111	bma	working	2022-07-09T00:00:00	13:00:00	14:00:00	0	202	292	2700	0.11
4350	TF2-DS-S15-02 ถ.ประดิพัทธ์-ถ.ทหาร	13.79351061	100.5298111	bma	working	2022-07-09T00:00:00	14:00:00	15:00:00	0	202	295	2700	0.11
4351	TF2-DS-S15-02 ถ.ประดิพัทธ์-ถ.ทหาร	13.79351061	100.5298111	bma	working	2022-07-09T00:00:00	15:00:00	16:00:00	2	202	204	2700	0.08
4352	TF2-DS-S15-02 ถ.ประดิพัทธ์-ถ.ทหาร	13.79351061	100.5298111	bma	working	2022-07-09T00:00:00	16:00:00	17:00:00	56	202	445	2700	0.16
4353	TF2-DS-S15-02 ถ.ประดิพัทธ์-ถ.ทหาร	13.79351061	100.5298111	bma	working	2022-07-09T00:00:00	17:00:00	18:00:00	56	201	335	2700	0.12
4354	TF2-DS-S15-02 ถ.ประดิพัทธ์-ถ.ทหาร	13.79351061	100.5298111	bma	working	2022-07-09T00:00:00	18:00:00	19:00:00	15	201	1274	2700	0.47
4355	TF2-DS-S15-02 ถ.ประดิพัทธ์-ถ.ทหาร	13.79351061	100.5298111	bma	working	2022-08-09T00:00:00	5:00:00	6:00:00	15	56	135	2700	0.05
4356	TF2-DS-S15-02 ถ.ประดิพัทธ์-ถ.ทหาร	13.79351061	100.5298111	bma	working	2022-08-09T00:00:00	6:00:00	7:00:00	11	182	389	2700	0.14
4357	TF2-DS-S15-02 ถ.ประดิพัทธ์-ถ.ทหาร	13.79351061	100.5298111	bma	working	2022-08-09T00:00:00	7:00:00	8:00:00	37	177	1670	2700	0.62
4358	TF2-DS-S15-02 ถ.ประดิพัทธ์-ถ.ทหาร	13.79351061	100.5298111	bma	working	2022-08-09T00:00:00	8:00:00	9:00:00	6	202	1185	2700	0.44
4359	TF2-DS-S15-02 ถ.ประดิพัทธ์-ถ.ทหาร	13.79351061	100.5298111	bma	working	2022-08-09T00:00:00	9:00:00	10:00:00	2	202	1198	2700	0.44
4360	TF2-DS-S15-02 ถ.ประดิพัทธ์-ถ.ทหาร	13.79351061	100.5298111	bma	working	2022-08-09T00:00:00	10:00:00	11:00:00	5	202	1203	2700	0.45
4361	TF2-DS-S15-02 ถ.ประดิพัทธ์-ถ.ทหาร	13.79351061	100.5298111	bma	working	2022-08-09T00:00:00	11:00:00	12:00:00	19	201	985	2700	0.36
4362	TF2-DS-S15-02 ถ.ประดิพัทธ์-ถ.ทหาร	13.79351061	100.5298111	bma	working	2022-08-09T00:00:00	12:00:00	13:00:00	4	201	1046	2700	0.39
4363	TF2-DS-S15-02 ถ.ประดิพัทธ์-ถ.ทหาร	13.79351061	100.5298111	bma	working	2022-08-09T00:00:00	13:00:00	14:00:00	4	201	1041	2700	0.39
4364	TF2-DS-S15-02 ถ.ประดิพัทธ์-ถ.ทหาร	13.79351061	100.5298111	bma	working	2022-08-09T00:00:00	14:00:00	15:00:00	2	202	1040	2700	0.39
4365	TF2-DS-S15-02 ถ.ประดิพัทธ์-ถ.ทหาร	13.79351061	100.5298111	bma	working	2022-08-09T00:00:00	15:00:00	16:00:00	5	201	1003	2700	0.37
4366	TF2-DS-S15-02 ถ.ประดิพัทธ์-ถ.ทหาร	13.79351061	100.5298111	bma	working	2022-08-09T00:00:00	16:00:00	17:00:00	35	202	427	2700	0.16
4367	TF2-DS-S15-02 ถ.ประดิพัทธ์-ถ.ทหาร	13.79351061	100.5298111	bma	working	2022-08-09T00:00:00	17:00:00	18:00:00	45	201	364	2700	0.13
4368	TF2-DS-S15-02 ถ.ประดิพัทธ์-ถ.ทหาร	13.79351061	100.5298111	bma	working	2022-08-09T00:00:00	18:00:00	19:00:00	36	201	886	2700	0.33
4369	TF2-DS-S15-02 ถ.ประดิพัทธ์-ถ.ทหาร	13.79351061	100.5298111	bma	working	2022-09-09T00:00:00	5:00:00	6:00:00	12	49	55	2700	0.02
4370	TF2-DS-S15-02 ถ.ประดิพัทธ์-ถ.ทหาร	13.79351061	100.5298111	bma	working	2022-09-09T00:00:00	6:00:00	7:00:00	9	150	157	2700	0.06
4371	TF2-DS-S15-02 ถ.ประดิพัทธ์-ถ.ทหาร	13.79351061	100.5298111	bma	working	2022-09-09T00:00:00	7:00:00	8:00:00	54	199	1156	2700	0.43
4372	TF2-DS-S15-02 ถ.ประดิพัทธ์-ถ.ทหาร	13.79351061	100.5298111	bma	working	2022-09-09T00:00:00	8:00:00	9:00:00	9	202	1859	2700	0.69
4373	TF2-DS-S15-02 ถ.ประดิพัทธ์-ถ.ทหาร	13.79351061	100.5298111	bma	working	2022-09-09T00:00:00	9:00:00	10:00:00	4	201	2034	2700	0.75
4374	TF2-DS-S15-02 ถ.ประดิพัทธ์-ถ.ทหาร	13.79351061	100.5298111	bma	working	2022-09-09T00:00:00	10:00:00	11:00:00	7	202	1861	2700	0.69
4375	TF2-DS-S15-02 ถ.ประดิพัทธ์-ถ.ทหาร	13.79351061	100.5298111	bma	working	2022-09-09T00:00:00	11:00:00	12:00:00	19	202	912	2700	0.34
4376	TF2-DS-S15-02 ถ.ประดิพัทธ์-ถ.ทหาร	13.79351061	100.5298111	bma	working	2022-09-09T00:00:00	12:00:00	13:00:00	8	202	1750	2700	0.65
4377	TF2-DS-S15-02 ถ.ประดิพัทธ์-ถ.ทหาร	13.79351061	100.5298111	bma	working	2022-09-09T00:00:00	13:00:00	14:00:00	7	201	1839	2700	0.68
4378	TF2-DS-S15-02 ถ.ประดิพัทธ์-ถ.ทหาร	13.79351061	100.5298111	bma	working	2022-09-09T00:00:00	14:00:00	15:00:00	4	202	1797	2700	0.67
4379	TF2-DS-S15-02 ถ.ประดิพัทธ์-ถ.ทหาร	13.79351061	100.5298111	bma	working	2022-09-09T00:00:00	15:00:00	16:00:00	7	202	1748	2700	0.65
4380	TF2-DS-S15-02 ถ.ประดิพัทธ์-ถ.ทหาร	13.79351061	100.5298111	bma	working	2022-09-09T00:00:00	16:00:00	17:00:00	15	172	470	2700	0.17
4381	TF2-DS-S15-02 ถ.ประดิพัทธ์-ถ.ทหาร	13.79351061	100.5298111	bma	working	2022-09-09T00:00:00	17:00:00	18:00:00	35	201	376	2700	0.14
4382	TF2-DS-S15-02 ถ.ประดิพัทธ์-ถ.ทหาร	13.79351061	100.5298111	bma	working	2022-09-09T00:00:00	18:00:00	19:00:00	56	202	256	2700	0.09
4383	TF2-DS-S15-02 ถ.ประดิพัทธ์-ถ.ทหาร	13.79351061	100.5298111	bma	working	2022-10-09T00:00:00	5:00:00	6:00:00	34	13	69	2700	0.03
4384	TF2-DS-S15-02 ถ.ประดิพัทธ์-ถ.ทหาร	13.79351061	100.5298111	bma	holiday	2022-10-09T00:00:00	6:00:00	7:00:00	25	38	204	2700	0.08
4385	TF2-DS-S15-02 ถ.ประดิพัทธ์-ถ.ทหาร	13.79351061	100.5298111	bma	holiday	2022-10-09T00:00:00	7:00:00	8:00:00	12	178	1151	2700	0.43
4386	TF2-DS-S15-02 ถ.ประดิพัทธ์-ถ.ทหาร	13.79351061	100.5298111	bma	holiday	2022-10-09T00:00:00	8:00:00	9:00:00	22	137	656	2700	0.24
4387	TF2-DS-S15-02 ถ.ประดิพัทธ์-ถ.ทหาร	13.79351061	100.5298111	bma	working	2022-10-09T00:00:00	9:00:00	10:00:00	18	132	603	2700	0.22
4388	TF2-DS-S15-02 ถ.ประดิพัทธ์-ถ.ทหาร	13.79351061	100.5298111	bma	working	2022-10-09T00:00:00	10:00:00	11:00:00	20	135	609	2700	0.23
4389	TF2-DS-S15-02 ถ.ประดิพัทธ์-ถ.ทหาร	13.79351061	100.5298111	bma	holiday	2022-10-09T00:00:00	11:00:00	12:00:00	10	173	1147	2700	0.42
4390	TF2-DS-S15-02 ถ.ประดิพัทธ์-ถ.ทหาร	13.79351061	100.5298111	bma	working	2022-10-09T00:00:00	12:00:00	13:00:00	20	125	556	2700	0.21
4391	TF2-DS-S15-02 ถ.ประดิพัทธ์-ถ.ทหาร	13.79351061	100.5298111	bma	working	2022-10-09T00:00:00	13:00:00	14:00:00	20	126	709	2700	0.26
4392	TF2-DS-S15-02 ถ.ประดิพัทธ์-ถ.ทหาร	13.79351061	100.5298111	bma	working	2022-10-09T00:00:00	14:00:00	15:00:00	15	126	565	2700	0.21
4393	TF2-DS-S15-02 ถ.ประดิพัทธ์-ถ.ทหาร	13.79351061	100.5298111	bma	working	2022-10-09T00:00:00	15:00:00	16:00:00	16	126	516	2700	0.19
4394	TF2-DS-S15-02 ถ.ประดิพัทธ์-ถ.ทหาร	13.79351061	100.5298111	bma	holiday	2022-10-09T00:00:00	16:00:00	17:00:00	39	202	981	2700	0.36
4395	TF2-DS-S15-02 ถ.ประดิพัทธ์-ถ.ทหาร	13.79351061	100.5298111	bma	holiday	2022-10-09T00:00:00	17:00:00	18:00:00	12	201	1243	2700	0.46
4396	TF2-DS-S15-02 ถ.ประดิพัทธ์-ถ.ทหาร	13.79351061	100.5298111	bma	holiday	2022-10-09T00:00:00	18:00:00	19:00:00	23	68	228	2700	0.08
4397	TF2-DS-S15-02 ถ.ประดิพัทธ์-ถ.ทหาร	13.79351061	100.5298111	bma	working	2022-11-09T00:00:00	5:00:00	6:00:00	22	8	43	2700	0.02
4398	TF2-DS-S15-02 ถ.ประดิพัทธ์-ถ.ทหาร	13.79351061	100.5298111	bma	holiday	2022-11-09T00:00:00	6:00:00	7:00:00	16	24	119	2700	0.04
4399	TF2-DS-S15-02 ถ.ประดิพัทธ์-ถ.ทหาร	13.79351061	100.5298111	bma	holiday	2022-11-09T00:00:00	7:00:00	8:00:00	7	105	782	2700	0.29
4400	TF2-DS-S15-02 ถ.ประดิพัทธ์-ถ.ทหาร	13.79351061	100.5298111	bma	holiday	2022-11-09T00:00:00	8:00:00	9:00:00	13	76	422	2700	0.16
4401	TF2-DS-S15-02 ถ.ประดิพัทธ์-ถ.ทหาร	13.79351061	100.5298111	bma	working	2022-11-09T00:00:00	9:00:00	10:00:00	10	77	377	2700	0.14
4402	TF2-DS-S15-02 ถ.ประดิพัทธ์-ถ.ทหาร	13.79351061	100.5298111	bma	working	2022-11-09T00:00:00	10:00:00	11:00:00	12	81	361	2700	0.13
4403	TF2-DS-S15-02 ถ.ประดิพัทธ์-ถ.ทหาร	13.79351061	100.5298111	bma	holiday	2022-11-09T00:00:00	11:00:00	12:00:00	6	109	699	2700	0.26
4404	TF2-DS-S15-02 ถ.ประดิพัทธ์-ถ.ทหาร	13.79351061	100.5298111	bma	working	2022-11-09T00:00:00	12:00:00	13:00:00	12	75	365	2700	0.14
4405	TF2-DS-S15-02 ถ.ประดิพัทธ์-ถ.ทหาร	13.79351061	100.5298111	bma	working	2022-11-09T00:00:00	13:00:00	14:00:00	11	79	429	2700	0.16
4406	TF2-DS-S15-02 ถ.ประดิพัทธ์-ถ.ทหาร	13.79351061	100.5298111	bma	working	2022-11-09T00:00:00	14:00:00	15:00:00	9	76	360	2700	0.13
4407	TF2-DS-S15-02 ถ.ประดิพัทธ์-ถ.ทหาร	13.79351061	100.5298111	bma	working	2022-11-09T00:00:00	15:00:00	16:00:00	10	72	295	2700	0.11
4408	TF2-DS-S15-02 ถ.ประดิพัทธ์-ถ.ทหาร	13.79351061	100.5298111	bma	holiday	2022-11-09T00:00:00	16:00:00	17:00:00	24	162	608	2700	0.23
4409	TF2-DS-S15-02 ถ.ประดิพัทธ์-ถ.ทหาร	13.79351061	100.5298111	bma	holiday	2022-11-09T00:00:00	17:00:00	18:00:00	7	140	823	2700	0.30
4410	TF2-DS-S15-02 ถ.ประดิพัทธ์-ถ.ทหาร	13.79351061	100.5298111	bma	holiday	2022-11-09T00:00:00	18:00:00	19:00:00	14	41	208	2700	0.08
4411	TF2-DS-S17-01 ถ.ทหาร - ถ.ประชาราษฎร์ สาย 1	13.797499	100.5213	bma	working	2022-05-09T00:00:00	5:00:00	6:00:00	26	52	902	3600	0.25
4412	TF2-DS-S17-01 ถ.ทหาร - ถ.ประชาราษฎร์ สาย 1	13.797499	100.5213	bma	working	2022-05-09T00:00:00	6:00:00	7:00:00	19	162	2543	3600	0.71
4413	TF2-DS-S17-01 ถ.ทหาร - ถ.ประชาราษฎร์ สาย 1	13.797499	100.5213	bma	working	2022-05-09T00:00:00	7:00:00	8:00:00	22	201	1193	3600	0.33
4414	TF2-DS-S17-01 ถ.ทหาร - ถ.ประชาราษฎร์ สาย 1	13.797499	100.5213	bma	working	2022-05-09T00:00:00	8:00:00	9:00:00	17	201	1882	3600	0.52
4415	TF2-DS-S17-01 ถ.ทหาร - ถ.ประชาราษฎร์ สาย 1	13.797499	100.5213	bma	working	2022-05-09T00:00:00	9:00:00	10:00:00	13	201	1903	3600	0.53
4416	TF2-DS-S17-01 ถ.ทหาร - ถ.ประชาราษฎร์ สาย 1	13.797499	100.5213	bma	working	2022-05-09T00:00:00	10:00:00	11:00:00	13	201	1649	3600	0.46
4417	TF2-DS-S17-01 ถ.ทหาร - ถ.ประชาราษฎร์ สาย 1	13.797499	100.5213	bma	working	2022-05-09T00:00:00	11:00:00	12:00:00	20	201	2108	3600	0.59
4418	TF2-DS-S17-01 ถ.ทหาร - ถ.ประชาราษฎร์ สาย 1	13.797499	100.5213	bma	working	2022-05-09T00:00:00	12:00:00	13:00:00	12	202	1562	3600	0.43
4419	TF2-DS-S17-01 ถ.ทหาร - ถ.ประชาราษฎร์ สาย 1	13.797499	100.5213	bma	working	2022-05-09T00:00:00	13:00:00	14:00:00	15	201	1794	3600	0.50
4420	TF2-DS-S17-01 ถ.ทหาร - ถ.ประชาราษฎร์ สาย 1	13.797499	100.5213	bma	working	2022-05-09T00:00:00	14:00:00	15:00:00	15	202	1771	3600	0.49
4421	TF2-DS-S17-01 ถ.ทหาร - ถ.ประชาราษฎร์ สาย 1	13.797499	100.5213	bma	working	2022-05-09T00:00:00	15:00:00	16:00:00	15	201	1549	3600	0.43
4422	TF2-DS-S17-01 ถ.ทหาร - ถ.ประชาราษฎร์ สาย 1	13.797499	100.5213	bma	working	2022-05-09T00:00:00	16:00:00	17:00:00	20	96	2235	3600	0.62
4423	TF2-DS-S17-01 ถ.ทหาร - ถ.ประชาราษฎร์ สาย 1	13.797499	100.5213	bma	working	2022-05-09T00:00:00	17:00:00	18:00:00	17	201	1480	3600	0.41
4424	TF2-DS-S17-01 ถ.ทหาร - ถ.ประชาราษฎร์ สาย 1	13.797499	100.5213	bma	working	2022-05-09T00:00:00	18:00:00	19:00:00	19	202	1938	3600	0.54
4425	TF2-DS-S17-01 ถ.ทหาร - ถ.ประชาราษฎร์ สาย 1	13.797499	100.5213	bma	working	2022-06-09T00:00:00	5:00:00	6:00:00	27	63	976	3600	0.27
4426	TF2-DS-S17-01 ถ.ทหาร - ถ.ประชาราษฎร์ สาย 1	13.797499	100.5213	bma	working	2022-06-09T00:00:00	6:00:00	7:00:00	19	201	2960	3600	0.82
4427	TF2-DS-S17-01 ถ.ทหาร - ถ.ประชาราษฎร์ สาย 1	13.797499	100.5213	bma	working	2022-06-09T00:00:00	7:00:00	8:00:00	22	202	2528	3600	0.70
4428	TF2-DS-S17-01 ถ.ทหาร - ถ.ประชาราษฎร์ สาย 1	13.797499	100.5213	bma	working	2022-06-09T00:00:00	8:00:00	9:00:00	17	201	1626	3600	0.45
4429	TF2-DS-S17-01 ถ.ทหาร - ถ.ประชาราษฎร์ สาย 1	13.797499	100.5213	bma	working	2022-06-09T00:00:00	9:00:00	10:00:00	12	202	1563	3600	0.43
4430	TF2-DS-S17-01 ถ.ทหาร - ถ.ประชาราษฎร์ สาย 1	13.797499	100.5213	bma	working	2022-06-09T00:00:00	10:00:00	11:00:00	13	201	1440	3600	0.40
4431	TF2-DS-S17-01 ถ.ทหาร - ถ.ประชาราษฎร์ สาย 1	13.797499	100.5213	bma	working	2022-06-09T00:00:00	11:00:00	12:00:00	21	201	1915	3600	0.53
4432	TF2-DS-S17-01 ถ.ทหาร - ถ.ประชาราษฎร์ สาย 1	13.797499	100.5213	bma	working	2022-06-09T00:00:00	12:00:00	13:00:00	11	202	1316	3600	0.37
4433	TF2-DS-S17-01 ถ.ทหาร - ถ.ประชาราษฎร์ สาย 1	13.797499	100.5213	bma	working	2022-06-09T00:00:00	13:00:00	14:00:00	14	202	1431	3600	0.40
4434	TF2-DS-S17-01 ถ.ทหาร - ถ.ประชาราษฎร์ สาย 1	13.797499	100.5213	bma	working	2022-06-09T00:00:00	14:00:00	15:00:00	15	202	1424	3600	0.40
4435	TF2-DS-S17-01 ถ.ทหาร - ถ.ประชาราษฎร์ สาย 1	13.797499	100.5213	bma	working	2022-06-09T00:00:00	15:00:00	16:00:00	14	201	1299	3600	0.36
4436	TF2-DS-S17-01 ถ.ทหาร - ถ.ประชาราษฎร์ สาย 1	13.797499	100.5213	bma	working	2022-06-09T00:00:00	16:00:00	17:00:00	19	201	1612	3600	0.45
4437	TF2-DS-S17-01 ถ.ทหาร - ถ.ประชาราษฎร์ สาย 1	13.797499	100.5213	bma	working	2022-06-09T00:00:00	17:00:00	18:00:00	20	201	1605	3600	0.45
4438	TF2-DS-S17-01 ถ.ทหาร - ถ.ประชาราษฎร์ สาย 1	13.797499	100.5213	bma	working	2022-06-09T00:00:00	18:00:00	19:00:00	21	202	1530	3600	0.43
4439	TF2-DS-S17-01 ถ.ทหาร - ถ.ประชาราษฎร์ สาย 1	13.797499	100.5213	bma	working	2022-07-09T00:00:00	5:00:00	6:00:00	26	62	1034	3600	0.29
4440	TF2-DS-S17-01 ถ.ทหาร - ถ.ประชาราษฎร์ สาย 1	13.797499	100.5213	bma	working	2022-07-09T00:00:00	6:00:00	7:00:00	19	201	2892	3600	0.80
4441	TF2-DS-S17-01 ถ.ทหาร - ถ.ประชาราษฎร์ สาย 1	13.797499	100.5213	bma	working	2022-07-09T00:00:00	7:00:00	8:00:00	22	201	3646	3600	1.01
4442	TF2-DS-S17-01 ถ.ทหาร - ถ.ประชาราษฎร์ สาย 1	13.797499	100.5213	bma	working	2022-07-09T00:00:00	8:00:00	9:00:00	16	202	1229	3600	0.34
4443	TF2-DS-S17-01 ถ.ทหาร - ถ.ประชาราษฎร์ สาย 1	13.797499	100.5213	bma	working	2022-07-09T00:00:00	9:00:00	10:00:00	11	202	1136	3600	0.32
4444	TF2-DS-S17-01 ถ.ทหาร - ถ.ประชาราษฎร์ สาย 1	13.797499	100.5213	bma	working	2022-07-09T00:00:00	10:00:00	11:00:00	13	202	1177	3600	0.33
4445	TF2-DS-S17-01 ถ.ทหาร - ถ.ประชาราษฎร์ สาย 1	13.797499	100.5213	bma	working	2022-07-09T00:00:00	11:00:00	12:00:00	22	202	1623	3600	0.45
4446	TF2-DS-S17-01 ถ.ทหาร - ถ.ประชาราษฎร์ สาย 1	13.797499	100.5213	bma	working	2022-07-09T00:00:00	12:00:00	13:00:00	11	201	1093	3600	0.30
4447	TF2-DS-S17-01 ถ.ทหาร - ถ.ประชาราษฎร์ สาย 1	13.797499	100.5213	bma	working	2022-07-09T00:00:00	13:00:00	14:00:00	13	201	1066	3600	0.30
4448	TF2-DS-S17-01 ถ.ทหาร - ถ.ประชาราษฎร์ สาย 1	13.797499	100.5213	bma	working	2022-07-09T00:00:00	14:00:00	15:00:00	13	202	1060	3600	0.29
4449	TF2-DS-S17-01 ถ.ทหาร - ถ.ประชาราษฎร์ สาย 1	13.797499	100.5213	bma	working	2022-07-09T00:00:00	15:00:00	16:00:00	12	202	1032	3600	0.29
4450	TF2-DS-S17-01 ถ.ทหาร - ถ.ประชาราษฎร์ สาย 1	13.797499	100.5213	bma	working	2022-07-09T00:00:00	16:00:00	17:00:00	19	201	1038	3600	0.29
4451	TF2-DS-S17-01 ถ.ทหาร - ถ.ประชาราษฎร์ สาย 1	13.797499	100.5213	bma	working	2022-07-09T00:00:00	17:00:00	18:00:00	22	202	1486	3600	0.41
4452	TF2-DS-S17-01 ถ.ทหาร - ถ.ประชาราษฎร์ สาย 1	13.797499	100.5213	bma	working	2022-07-09T00:00:00	18:00:00	19:00:00	24	158	1029	3600	0.29
4453	TF2-DS-S17-01 ถ.ทหาร - ถ.ประชาราษฎร์ สาย 1	13.797499	100.5213	bma	working	2022-08-09T00:00:00	5:00:00	6:00:00	26	64	836	3600	0.23
4454	TF2-DS-S17-01 ถ.ทหาร - ถ.ประชาราษฎร์ สาย 1	13.797499	100.5213	bma	working	2022-08-09T00:00:00	6:00:00	7:00:00	19	201	2434	3600	0.68
4455	TF2-DS-S17-01 ถ.ทหาร - ถ.ประชาราษฎร์ สาย 1	13.797499	100.5213	bma	working	2022-08-09T00:00:00	7:00:00	8:00:00	22	200	3547	3600	0.99
4456	TF2-DS-S17-01 ถ.ทหาร - ถ.ประชาราษฎร์ สาย 1	13.797499	100.5213	bma	working	2022-08-09T00:00:00	8:00:00	9:00:00	21	202	1926	3600	0.54
4457	TF2-DS-S17-01 ถ.ทหาร - ถ.ประชาราษฎร์ สาย 1	13.797499	100.5213	bma	working	2022-08-09T00:00:00	9:00:00	10:00:00	16	202	1845	3600	0.51
4458	TF2-DS-S17-01 ถ.ทหาร - ถ.ประชาราษฎร์ สาย 1	13.797499	100.5213	bma	working	2022-08-09T00:00:00	10:00:00	11:00:00	19	202	1640	3600	0.46
4459	TF2-DS-S17-01 ถ.ทหาร - ถ.ประชาราษฎร์ สาย 1	13.797499	100.5213	bma	working	2022-08-09T00:00:00	11:00:00	12:00:00	23	151	1853	3600	0.51
4460	TF2-DS-S17-01 ถ.ทหาร - ถ.ประชาราษฎร์ สาย 1	13.797499	100.5213	bma	working	2022-08-09T00:00:00	12:00:00	13:00:00	17	202	1545	3600	0.43
4461	TF2-DS-S17-01 ถ.ทหาร - ถ.ประชาราษฎร์ สาย 1	13.797499	100.5213	bma	working	2022-08-09T00:00:00	13:00:00	14:00:00	16	202	1646	3600	0.46
4462	TF2-DS-S17-01 ถ.ทหาร - ถ.ประชาราษฎร์ สาย 1	13.797499	100.5213	bma	working	2022-08-09T00:00:00	14:00:00	15:00:00	16	201	1626	3600	0.45
4463	TF2-DS-S17-01 ถ.ทหาร - ถ.ประชาราษฎร์ สาย 1	13.797499	100.5213	bma	working	2022-08-09T00:00:00	15:00:00	16:00:00	17	202	1597	3600	0.44
4464	TF2-DS-S17-01 ถ.ทหาร - ถ.ประชาราษฎร์ สาย 1	13.797499	100.5213	bma	working	2022-08-09T00:00:00	16:00:00	17:00:00	21	202	1373	3600	0.38
4465	TF2-DS-S17-01 ถ.ทหาร - ถ.ประชาราษฎร์ สาย 1	13.797499	100.5213	bma	working	2022-08-09T00:00:00	17:00:00	18:00:00	29	201	1107	3600	0.31
4466	TF2-DS-S17-01 ถ.ทหาร - ถ.ประชาราษฎร์ สาย 1	13.797499	100.5213	bma	working	2022-08-09T00:00:00	18:00:00	19:00:00	23	144	701	3600	0.19
4467	TF2-DS-S17-01 ถ.ทหาร - ถ.ประชาราษฎร์ สาย 1	13.797499	100.5213	bma	working	2022-09-09T00:00:00	5:00:00	6:00:00	29	64	734	3600	0.20
4468	TF2-DS-S17-01 ถ.ทหาร - ถ.ประชาราษฎร์ สาย 1	13.797499	100.5213	bma	working	2022-09-09T00:00:00	6:00:00	7:00:00	21	201	2200	3600	0.61
4469	TF2-DS-S17-01 ถ.ทหาร - ถ.ประชาราษฎร์ สาย 1	13.797499	100.5213	bma	working	2022-09-09T00:00:00	7:00:00	8:00:00	22	200	3682	3600	1.02
4470	TF2-DS-S17-01 ถ.ทหาร - ถ.ประชาราษฎร์ สาย 1	13.797499	100.5213	bma	working	2022-09-09T00:00:00	8:00:00	9:00:00	25	158	2165	3600	0.60
4471	TF2-DS-S17-01 ถ.ทหาร - ถ.ประชาราษฎร์ สาย 1	13.797499	100.5213	bma	working	2022-09-09T00:00:00	9:00:00	10:00:00	21	157	2298	3600	0.64
4472	TF2-DS-S17-01 ถ.ทหาร - ถ.ประชาราษฎร์ สาย 1	13.797499	100.5213	bma	working	2022-09-09T00:00:00	10:00:00	11:00:00	22	150	1937	3600	0.54
4473	TF2-DS-S17-01 ถ.ทหาร - ถ.ประชาราษฎร์ สาย 1	13.797499	100.5213	bma	working	2022-09-09T00:00:00	11:00:00	12:00:00	25	89	1899	3600	0.53
4474	TF2-DS-S17-01 ถ.ทหาร - ถ.ประชาราษฎร์ สาย 1	13.797499	100.5213	bma	working	2022-09-09T00:00:00	12:00:00	13:00:00	22	156	1907	3600	0.53
4475	TF2-DS-S17-01 ถ.ทหาร - ถ.ประชาราษฎร์ สาย 1	13.797499	100.5213	bma	working	2022-09-09T00:00:00	13:00:00	14:00:00	19	149	2171	3600	0.60
4476	TF2-DS-S17-01 ถ.ทหาร - ถ.ประชาราษฎร์ สาย 1	13.797499	100.5213	bma	working	2022-09-09T00:00:00	14:00:00	15:00:00	20	145	2173	3600	0.60
4477	TF2-DS-S17-01 ถ.ทหาร - ถ.ประชาราษฎร์ สาย 1	13.797499	100.5213	bma	working	2022-09-09T00:00:00	15:00:00	16:00:00	21	157	2085	3600	0.58
4478	TF2-DS-S17-01 ถ.ทหาร - ถ.ประชาราษฎร์ สาย 1	13.797499	100.5213	bma	working	2022-09-09T00:00:00	16:00:00	17:00:00	24	101	1556	3600	0.43
4479	TF2-DS-S17-01 ถ.ทหาร - ถ.ประชาราษฎร์ สาย 1	13.797499	100.5213	bma	working	2022-09-09T00:00:00	17:00:00	18:00:00	36	201	946	3600	0.26
4480	TF2-DS-S17-01 ถ.ทหาร - ถ.ประชาราษฎร์ สาย 1	13.797499	100.5213	bma	working	2022-09-09T00:00:00	18:00:00	19:00:00	24	115	281	3600	0.08
4481	TF2-DS-S17-01 ถ.ทหาร - ถ.ประชาราษฎร์ สาย 1	13.797499	100.5213	bma	working	2022-10-09T00:00:00	5:00:00	6:00:00	16	62	227	3600	0.06
4482	TF2-DS-S17-01 ถ.ทหาร - ถ.ประชาราษฎร์ สาย 1	13.797499	100.5213	bma	holiday	2022-10-09T00:00:00	6:00:00	7:00:00	12	202	634	3600	0.18
4483	TF2-DS-S17-01 ถ.ทหาร - ถ.ประชาราษฎร์ สาย 1	13.797499	100.5213	bma	holiday	2022-10-09T00:00:00	7:00:00	8:00:00	12	89	861	3600	0.24
4484	TF2-DS-S17-01 ถ.ทหาร - ถ.ประชาราษฎร์ สาย 1	13.797499	100.5213	bma	holiday	2022-10-09T00:00:00	8:00:00	9:00:00	21	162	743	3600	0.21
4485	TF2-DS-S17-01 ถ.ทหาร - ถ.ประชาราษฎร์ สาย 1	13.797499	100.5213	bma	working	2022-10-09T00:00:00	9:00:00	10:00:00	19	170	725	3600	0.20
4486	TF2-DS-S17-01 ถ.ทหาร - ถ.ประชาราษฎร์ สาย 1	13.797499	100.5213	bma	working	2022-10-09T00:00:00	10:00:00	11:00:00	19	157	761	3600	0.21
4487	TF2-DS-S17-01 ถ.ทหาร - ถ.ประชาราษฎร์ สาย 1	13.797499	100.5213	bma	holiday	2022-10-09T00:00:00	11:00:00	12:00:00	27	175	1345	3600	0.37
4488	TF2-DS-S17-01 ถ.ทหาร - ถ.ประชาราษฎร์ สาย 1	13.797499	100.5213	bma	working	2022-10-09T00:00:00	12:00:00	13:00:00	17	154	666	3600	0.19
4489	TF2-DS-S17-01 ถ.ทหาร - ถ.ประชาราษฎร์ สาย 1	13.797499	100.5213	bma	working	2022-10-09T00:00:00	13:00:00	14:00:00	20	157	728	3600	0.20
4490	TF2-DS-S17-01 ถ.ทหาร - ถ.ประชาราษฎร์ สาย 1	13.797499	100.5213	bma	working	2022-10-09T00:00:00	14:00:00	15:00:00	20	167	632	3600	0.18
4491	TF2-DS-S17-01 ถ.ทหาร - ถ.ประชาราษฎร์ สาย 1	13.797499	100.5213	bma	working	2022-10-09T00:00:00	15:00:00	16:00:00	20	166	731	3600	0.20
4492	TF2-DS-S17-01 ถ.ทหาร - ถ.ประชาราษฎร์ สาย 1	13.797499	100.5213	bma	holiday	2022-10-09T00:00:00	16:00:00	17:00:00	17	202	1267	3600	0.35
4493	TF2-DS-S17-01 ถ.ทหาร - ถ.ประชาราษฎร์ สาย 1	13.797499	100.5213	bma	holiday	2022-10-09T00:00:00	17:00:00	18:00:00	19	202	499	3600	0.14
4494	TF2-DS-S17-01 ถ.ทหาร - ถ.ประชาราษฎร์ สาย 1	13.797499	100.5213	bma	holiday	2022-10-09T00:00:00	18:00:00	19:00:00	21	47	839	3600	0.23
4495	TF2-DS-S17-01 ถ.ทหาร - ถ.ประชาราษฎร์ สาย 1	13.797499	100.5213	bma	working	2022-11-09T00:00:00	5:00:00	6:00:00	9	42	162	3600	0.05
4496	TF2-DS-S17-01 ถ.ทหาร - ถ.ประชาราษฎร์ สาย 1	13.797499	100.5213	bma	holiday	2022-11-09T00:00:00	6:00:00	7:00:00	7	121	500	3600	0.14
4497	TF2-DS-S17-01 ถ.ทหาร - ถ.ประชาราษฎร์ สาย 1	13.797499	100.5213	bma	holiday	2022-11-09T00:00:00	7:00:00	8:00:00	7	52	520	3600	0.14
4498	TF2-DS-S17-01 ถ.ทหาร - ถ.ประชาราษฎร์ สาย 1	13.797499	100.5213	bma	holiday	2022-11-09T00:00:00	8:00:00	9:00:00	13	101	424	3600	0.12
4499	TF2-DS-S17-01 ถ.ทหาร - ถ.ประชาราษฎร์ สาย 1	13.797499	100.5213	bma	working	2022-11-09T00:00:00	9:00:00	10:00:00	11	96	429	3600	0.12
4500	TF2-DS-S17-01 ถ.ทหาร - ถ.ประชาราษฎร์ สาย 1	13.797499	100.5213	bma	working	2022-11-09T00:00:00	10:00:00	11:00:00	12	99	454	3600	0.13
4501	TF2-DS-S17-01 ถ.ทหาร - ถ.ประชาราษฎร์ สาย 1	13.797499	100.5213	bma	holiday	2022-11-09T00:00:00	11:00:00	12:00:00	17	103	947	3600	0.26
4502	TF2-DS-S17-01 ถ.ทหาร - ถ.ประชาราษฎร์ สาย 1	13.797499	100.5213	bma	working	2022-11-09T00:00:00	12:00:00	13:00:00	11	93	426	3600	0.12
4503	TF2-DS-S17-01 ถ.ทหาร - ถ.ประชาราษฎร์ สาย 1	13.797499	100.5213	bma	working	2022-11-09T00:00:00	13:00:00	14:00:00	12	100	465	3600	0.13
4504	TF2-DS-S17-01 ถ.ทหาร - ถ.ประชาราษฎร์ สาย 1	13.797499	100.5213	bma	working	2022-11-09T00:00:00	14:00:00	15:00:00	11	100	389	3600	0.11
4505	TF2-DS-S17-01 ถ.ทหาร - ถ.ประชาราษฎร์ สาย 1	13.797499	100.5213	bma	working	2022-11-09T00:00:00	15:00:00	16:00:00	12	99	459	3600	0.13
4506	TF2-DS-S17-01 ถ.ทหาร - ถ.ประชาราษฎร์ สาย 1	13.797499	100.5213	bma	holiday	2022-11-09T00:00:00	16:00:00	17:00:00	11	202	802	3600	0.22
4507	TF2-DS-S17-01 ถ.ทหาร - ถ.ประชาราษฎร์ สาย 1	13.797499	100.5213	bma	holiday	2022-11-09T00:00:00	17:00:00	18:00:00	11	125	296	3600	0.08
4508	TF2-DS-S17-01 ถ.ทหาร - ถ.ประชาราษฎร์ สาย 1	13.797499	100.5213	bma	holiday	2022-11-09T00:00:00	18:00:00	19:00:00	13	29	543	3600	0.15
4509	TF2-DS-S18-01 ถ.นครไชยศรี - ถ.ร่วมจิตต์	13.782932	100.516103	bma	working	2022-05-09T00:00:00	5:00:00	6:00:00	39	40	175	1800	0.10
4510	TF2-DS-S18-01 ถ.นครไชยศรี - ถ.ร่วมจิตต์	13.782932	100.516103	bma	working	2022-05-09T00:00:00	6:00:00	7:00:00	28	122	512	1800	0.28
4511	TF2-DS-S18-01 ถ.นครไชยศรี - ถ.ร่วมจิตต์	13.782932	100.516103	bma	working	2022-05-09T00:00:00	7:00:00	8:00:00	27	70	694	1800	0.39
4512	TF2-DS-S18-01 ถ.นครไชยศรี - ถ.ร่วมจิตต์	13.782932	100.516103	bma	working	2022-05-09T00:00:00	8:00:00	9:00:00	20	114	644	1800	0.36
4513	TF2-DS-S18-01 ถ.นครไชยศรี - ถ.ร่วมจิตต์	13.782932	100.516103	bma	working	2022-05-09T00:00:00	9:00:00	10:00:00	17	114	685	1800	0.38
4514	TF2-DS-S18-01 ถ.นครไชยศรี - ถ.ร่วมจิตต์	13.782932	100.516103	bma	working	2022-05-09T00:00:00	10:00:00	11:00:00	18	113	415	1800	0.23
4515	TF2-DS-S18-01 ถ.นครไชยศรี - ถ.ร่วมจิตต์	13.782932	100.516103	bma	working	2022-05-09T00:00:00	11:00:00	12:00:00	21	83	677	1800	0.38
4516	TF2-DS-S18-01 ถ.นครไชยศรี - ถ.ร่วมจิตต์	13.782932	100.516103	bma	working	2022-05-09T00:00:00	12:00:00	13:00:00	19	119	542	1800	0.30
4517	TF2-DS-S18-01 ถ.นครไชยศรี - ถ.ร่วมจิตต์	13.782932	100.516103	bma	working	2022-05-09T00:00:00	13:00:00	14:00:00	19	118	617	1800	0.34
4518	TF2-DS-S18-01 ถ.นครไชยศรี - ถ.ร่วมจิตต์	13.782932	100.516103	bma	working	2022-05-09T00:00:00	14:00:00	15:00:00	19	122	611	1800	0.34
4519	TF2-DS-S18-01 ถ.นครไชยศรี - ถ.ร่วมจิตต์	13.782932	100.516103	bma	working	2022-05-09T00:00:00	15:00:00	16:00:00	19	112	471	1800	0.26
4520	TF2-DS-S18-01 ถ.นครไชยศรี - ถ.ร่วมจิตต์	13.782932	100.516103	bma	working	2022-05-09T00:00:00	16:00:00	17:00:00	25	84	889	1800	0.49
4521	TF2-DS-S18-01 ถ.นครไชยศรี - ถ.ร่วมจิตต์	13.782932	100.516103	bma	working	2022-05-09T00:00:00	17:00:00	18:00:00	18	132	1186	1800	0.66
4522	TF2-DS-S18-01 ถ.นครไชยศรี - ถ.ร่วมจิตต์	13.782932	100.516103	bma	working	2022-05-09T00:00:00	18:00:00	19:00:00	15	190	521	1800	0.29
4523	TF2-DS-S18-01 ถ.นครไชยศรี - ถ.ร่วมจิตต์	13.782932	100.516103	bma	working	2022-06-09T00:00:00	5:00:00	6:00:00	36	29	233	1800	0.13
4524	TF2-DS-S18-01 ถ.นครไชยศรี - ถ.ร่วมจิตต์	13.782932	100.516103	bma	working	2022-06-09T00:00:00	6:00:00	7:00:00	26	88	684	1800	0.38
4525	TF2-DS-S18-01 ถ.นครไชยศรี - ถ.ร่วมจิตต์	13.782932	100.516103	bma	working	2022-06-09T00:00:00	7:00:00	8:00:00	26	76	545	1800	0.30
4526	TF2-DS-S18-01 ถ.นครไชยศรี - ถ.ร่วมจิตต์	13.782932	100.516103	bma	working	2022-06-09T00:00:00	8:00:00	9:00:00	23	108	809	1800	0.45
4527	TF2-DS-S18-01 ถ.นครไชยศรี - ถ.ร่วมจิตต์	13.782932	100.516103	bma	working	2022-06-09T00:00:00	9:00:00	10:00:00	22	103	735	1800	0.41
4528	TF2-DS-S18-01 ถ.นครไชยศรี - ถ.ร่วมจิตต์	13.782932	100.516103	bma	working	2022-06-09T00:00:00	10:00:00	11:00:00	20	102	581	1800	0.32
4529	TF2-DS-S18-01 ถ.นครไชยศรี - ถ.ร่วมจิตต์	13.782932	100.516103	bma	working	2022-06-09T00:00:00	11:00:00	12:00:00	23	75	554	1800	0.31
4530	TF2-DS-S18-01 ถ.นครไชยศรี - ถ.ร่วมจิตต์	13.782932	100.516103	bma	working	2022-06-09T00:00:00	12:00:00	13:00:00	21	100	620	1800	0.34
4531	TF2-DS-S18-01 ถ.นครไชยศรี - ถ.ร่วมจิตต์	13.782932	100.516103	bma	working	2022-06-09T00:00:00	13:00:00	14:00:00	22	103	770	1800	0.43
4532	TF2-DS-S18-01 ถ.นครไชยศรี - ถ.ร่วมจิตต์	13.782932	100.516103	bma	working	2022-06-09T00:00:00	14:00:00	15:00:00	22	107	693	1800	0.39
4533	TF2-DS-S18-01 ถ.นครไชยศรี - ถ.ร่วมจิตต์	13.782932	100.516103	bma	working	2022-06-09T00:00:00	15:00:00	16:00:00	19	98	657	1800	0.37
4534	TF2-DS-S18-01 ถ.นครไชยศรี - ถ.ร่วมจิตต์	13.782932	100.516103	bma	working	2022-06-09T00:00:00	16:00:00	17:00:00	24	71	718	1800	0.40
4535	TF2-DS-S18-01 ถ.นครไชยศรี - ถ.ร่วมจิตต์	13.782932	100.516103	bma	working	2022-06-09T00:00:00	17:00:00	18:00:00	18	128	855	1800	0.48
4536	TF2-DS-S18-01 ถ.นครไชยศรี - ถ.ร่วมจิตต์	13.782932	100.516103	bma	working	2022-06-09T00:00:00	18:00:00	19:00:00	21	201	794	1800	0.44
4537	TF2-DS-S18-01 ถ.นครไชยศรี - ถ.ร่วมจิตต์	13.782932	100.516103	bma	working	2022-07-09T00:00:00	5:00:00	6:00:00	34	23	151	1800	0.08
4538	TF2-DS-S18-01 ถ.นครไชยศรี - ถ.ร่วมจิตต์	13.782932	100.516103	bma	working	2022-07-09T00:00:00	6:00:00	7:00:00	24	66	438	1800	0.24
4539	TF2-DS-S18-01 ถ.นครไชยศรี - ถ.ร่วมจิตต์	13.782932	100.516103	bma	working	2022-07-09T00:00:00	7:00:00	8:00:00	26	79	437	1800	0.24
4540	TF2-DS-S18-01 ถ.นครไชยศรี - ถ.ร่วมจิตต์	13.782932	100.516103	bma	working	2022-07-09T00:00:00	8:00:00	9:00:00	26	94	997	1800	0.55
4541	TF2-DS-S18-01 ถ.นครไชยศรี - ถ.ร่วมจิตต์	13.782932	100.516103	bma	working	2022-07-09T00:00:00	9:00:00	10:00:00	27	85	800	1800	0.44
4542	TF2-DS-S18-01 ถ.นครไชยศรี - ถ.ร่วมจิตต์	13.782932	100.516103	bma	working	2022-07-09T00:00:00	10:00:00	11:00:00	22	88	714	1800	0.40
4543	TF2-DS-S18-01 ถ.นครไชยศรี - ถ.ร่วมจิตต์	13.782932	100.516103	bma	working	2022-07-09T00:00:00	11:00:00	12:00:00	26	73	326	1800	0.18
4544	TF2-DS-S18-01 ถ.นครไชยศรี - ถ.ร่วมจิตต์	13.782932	100.516103	bma	working	2022-07-09T00:00:00	12:00:00	13:00:00	24	89	711	1800	0.40
4545	TF2-DS-S18-01 ถ.นครไชยศรี - ถ.ร่วมจิตต์	13.782932	100.516103	bma	working	2022-07-09T00:00:00	13:00:00	14:00:00	25	90	877	1800	0.49
4546	TF2-DS-S18-01 ถ.นครไชยศรี - ถ.ร่วมจิตต์	13.782932	100.516103	bma	working	2022-07-09T00:00:00	14:00:00	15:00:00	21	87	745	1800	0.41
4547	TF2-DS-S18-01 ถ.นครไชยศรี - ถ.ร่วมจิตต์	13.782932	100.516103	bma	working	2022-07-09T00:00:00	15:00:00	16:00:00	21	86	832	1800	0.46
4548	TF2-DS-S18-01 ถ.นครไชยศรี - ถ.ร่วมจิตต์	13.782932	100.516103	bma	working	2022-07-09T00:00:00	16:00:00	17:00:00	24	62	620	1800	0.34
4549	TF2-DS-S18-01 ถ.นครไชยศรี - ถ.ร่วมจิตต์	13.782932	100.516103	bma	working	2022-07-09T00:00:00	17:00:00	18:00:00	17	134	544	1800	0.30
4550	TF2-DS-S18-01 ถ.นครไชยศรี - ถ.ร่วมจิตต์	13.782932	100.516103	bma	working	2022-07-09T00:00:00	18:00:00	19:00:00	28	202	986	1800	0.55
4551	TF2-DS-S18-01 ถ.นครไชยศรี - ถ.ร่วมจิตต์	13.782932	100.516103	bma	working	2022-08-09T00:00:00	5:00:00	6:00:00	41	32	111	1800	0.06
4552	TF2-DS-S18-01 ถ.นครไชยศรี - ถ.ร่วมจิตต์	13.782932	100.516103	bma	working	2022-08-09T00:00:00	6:00:00	7:00:00	29	103	351	1800	0.20
4553	TF2-DS-S18-01 ถ.นครไชยศรี - ถ.ร่วมจิตต์	13.782932	100.516103	bma	working	2022-08-09T00:00:00	7:00:00	8:00:00	29	66	572	1800	0.32
4554	TF2-DS-S18-01 ถ.นครไชยศรี - ถ.ร่วมจิตต์	13.782932	100.516103	bma	working	2022-08-09T00:00:00	8:00:00	9:00:00	27	92	911	1800	0.51
4555	TF2-DS-S18-01 ถ.นครไชยศรี - ถ.ร่วมจิตต์	13.782932	100.516103	bma	working	2022-08-09T00:00:00	9:00:00	10:00:00	24	85	894	1800	0.50
4556	TF2-DS-S18-01 ถ.นครไชยศรี - ถ.ร่วมจิตต์	13.782932	100.516103	bma	working	2022-08-09T00:00:00	10:00:00	11:00:00	23	83	735	1800	0.41
4557	TF2-DS-S18-01 ถ.นครไชยศรี - ถ.ร่วมจิตต์	13.782932	100.516103	bma	working	2022-08-09T00:00:00	11:00:00	12:00:00	27	80	697	1800	0.39
4558	TF2-DS-S18-01 ถ.นครไชยศรี - ถ.ร่วมจิตต์	13.782932	100.516103	bma	working	2022-08-09T00:00:00	12:00:00	13:00:00	24	87	798	1800	0.44
4559	TF2-DS-S18-01 ถ.นครไชยศรี - ถ.ร่วมจิตต์	13.782932	100.516103	bma	working	2022-08-09T00:00:00	13:00:00	14:00:00	24	90	854	1800	0.47
4560	TF2-DS-S18-01 ถ.นครไชยศรี - ถ.ร่วมจิตต์	13.782932	100.516103	bma	working	2022-08-09T00:00:00	14:00:00	15:00:00	22	83	828	1800	0.46
4561	TF2-DS-S18-01 ถ.นครไชยศรี - ถ.ร่วมจิตต์	13.782932	100.516103	bma	working	2022-08-09T00:00:00	15:00:00	16:00:00	22	85	792	1800	0.44
4562	TF2-DS-S18-01 ถ.นครไชยศรี - ถ.ร่วมจิตต์	13.782932	100.516103	bma	working	2022-08-09T00:00:00	16:00:00	17:00:00	23	111	685	1800	0.38
4563	TF2-DS-S18-01 ถ.นครไชยศรี - ถ.ร่วมจิตต์	13.782932	100.516103	bma	working	2022-08-09T00:00:00	17:00:00	18:00:00	25	119	584	1800	0.32
4564	TF2-DS-S18-01 ถ.นครไชยศรี - ถ.ร่วมจิตต์	13.782932	100.516103	bma	working	2022-08-09T00:00:00	18:00:00	19:00:00	28	201	1068	1800	0.59
4565	TF2-DS-S18-01 ถ.นครไชยศรี - ถ.ร่วมจิตต์	13.782932	100.516103	bma	working	2022-09-09T00:00:00	5:00:00	6:00:00	49	47	143	1800	0.08
4566	TF2-DS-S18-01 ถ.นครไชยศรี - ถ.ร่วมจิตต์	13.782932	100.516103	bma	working	2022-09-09T00:00:00	6:00:00	7:00:00	35	140	413	1800	0.23
4567	TF2-DS-S18-01 ถ.นครไชยศรี - ถ.ร่วมจิตต์	13.782932	100.516103	bma	working	2022-09-09T00:00:00	7:00:00	8:00:00	30	51	748	1800	0.42
4568	TF2-DS-S18-01 ถ.นครไชยศรี - ถ.ร่วมจิตต์	13.782932	100.516103	bma	working	2022-09-09T00:00:00	8:00:00	9:00:00	24	85	829	1800	0.46
4569	TF2-DS-S18-01 ถ.นครไชยศรี - ถ.ร่วมจิตต์	13.782932	100.516103	bma	working	2022-09-09T00:00:00	9:00:00	10:00:00	24	82	1039	1800	0.58
4570	TF2-DS-S18-01 ถ.นครไชยศรี - ถ.ร่วมจิตต์	13.782932	100.516103	bma	working	2022-09-09T00:00:00	10:00:00	11:00:00	23	79	753	1800	0.42
4571	TF2-DS-S18-01 ถ.นครไชยศรี - ถ.ร่วมจิตต์	13.782932	100.516103	bma	working	2022-09-09T00:00:00	11:00:00	12:00:00	27	89	1103	1800	0.61
4572	TF2-DS-S18-01 ถ.นครไชยศรี - ถ.ร่วมจิตต์	13.782932	100.516103	bma	working	2022-09-09T00:00:00	12:00:00	13:00:00	24	77	893	1800	0.50
4573	TF2-DS-S18-01 ถ.นครไชยศรี - ถ.ร่วมจิตต์	13.782932	100.516103	bma	working	2022-09-09T00:00:00	13:00:00	14:00:00	21	80	861	1800	0.48
4574	TF2-DS-S18-01 ถ.นครไชยศรี - ถ.ร่วมจิตต์	13.782932	100.516103	bma	working	2022-09-09T00:00:00	14:00:00	15:00:00	23	77	946	1800	0.53
4575	TF2-DS-S18-01 ถ.นครไชยศรี - ถ.ร่วมจิตต์	13.782932	100.516103	bma	working	2022-09-09T00:00:00	15:00:00	16:00:00	21	80	777	1800	0.43
4576	TF2-DS-S18-01 ถ.นครไชยศรี - ถ.ร่วมจิตต์	13.782932	100.516103	bma	working	2022-09-09T00:00:00	16:00:00	17:00:00	22	151	779	1800	0.43
4577	TF2-DS-S18-01 ถ.นครไชยศรี - ถ.ร่วมจิตต์	13.782932	100.516103	bma	working	2022-09-09T00:00:00	17:00:00	18:00:00	32	101	490	1800	0.27
4578	TF2-DS-S18-01 ถ.นครไชยศรี - ถ.ร่วมจิตต์	13.782932	100.516103	bma	holiday	2022-09-09T00:00:00	18:00:00	19:00:00	31	155	439	1800	0.24
4579	TF2-DS-S18-01 ถ.นครไชยศรี - ถ.ร่วมจิตต์	13.782932	100.516103	bma	working	2022-10-09T00:00:00	5:00:00	6:00:00	27	53	115	1800	0.06
4580	TF2-DS-S18-01 ถ.นครไชยศรี - ถ.ร่วมจิตต์	13.782932	100.516103	bma	holiday	2022-10-09T00:00:00	6:00:00	7:00:00	20	161	354	1800	0.20
4581	TF2-DS-S18-01 ถ.นครไชยศรี - ถ.ร่วมจิตต์	13.782932	100.516103	bma	holiday	2022-10-09T00:00:00	7:00:00	8:00:00	23	200	538	1800	0.30
4582	TF2-DS-S18-01 ถ.นครไชยศรี - ถ.ร่วมจิตต์	13.782932	100.516103	bma	holiday	2022-10-09T00:00:00	8:00:00	9:00:00	25	188	387	1800	0.22
4583	TF2-DS-S18-01 ถ.นครไชยศรี - ถ.ร่วมจิตต์	13.782932	100.516103	bma	working	2022-10-09T00:00:00	9:00:00	10:00:00	21	185	338	1800	0.19
4584	TF2-DS-S18-01 ถ.นครไชยศรี - ถ.ร่วมจิตต์	13.782932	100.516103	bma	working	2022-10-09T00:00:00	10:00:00	11:00:00	23	184	312	1800	0.17
4585	TF2-DS-S18-01 ถ.นครไชยศรี - ถ.ร่วมจิตต์	13.782932	100.516103	bma	holiday	2022-10-09T00:00:00	11:00:00	12:00:00	19	182	641	1800	0.36
4586	TF2-DS-S18-01 ถ.นครไชยศรี - ถ.ร่วมจิตต์	13.782932	100.516103	bma	working	2022-10-09T00:00:00	12:00:00	13:00:00	23	188	236	1800	0.13
4587	TF2-DS-S18-01 ถ.นครไชยศรี - ถ.ร่วมจิตต์	13.782932	100.516103	bma	working	2022-10-09T00:00:00	13:00:00	14:00:00	24	176	315	1800	0.18
4588	TF2-DS-S18-01 ถ.นครไชยศรี - ถ.ร่วมจิตต์	13.782932	100.516103	bma	working	2022-10-09T00:00:00	14:00:00	15:00:00	23	188	312	1800	0.17
4589	TF2-DS-S18-01 ถ.นครไชยศรี - ถ.ร่วมจิตต์	13.782932	100.516103	bma	working	2022-10-09T00:00:00	15:00:00	16:00:00	25	189	379	1800	0.21
4590	TF2-DS-S18-01 ถ.นครไชยศรี - ถ.ร่วมจิตต์	13.782932	100.516103	bma	holiday	2022-10-09T00:00:00	16:00:00	17:00:00	29	202	950	1800	0.53
4591	TF2-DS-S18-01 ถ.นครไชยศรี - ถ.ร่วมจิตต์	13.782932	100.516103	bma	holiday	2022-10-09T00:00:00	17:00:00	18:00:00	19	202	564	1800	0.31
4592	TF2-DS-S18-01 ถ.นครไชยศรี - ถ.ร่วมจิตต์	13.782932	100.516103	bma	holiday	2022-10-09T00:00:00	18:00:00	19:00:00	31	155	434	1800	0.24
4593	TF2-DS-S18-01 ถ.นครไชยศรี - ถ.ร่วมจิตต์	13.782932	100.516103	bma	working	2022-11-09T00:00:00	5:00:00	6:00:00	16	31	48	1800	0.03
4594	TF2-DS-S18-01 ถ.นครไชยศรี - ถ.ร่วมจิตต์	13.782932	100.516103	bma	holiday	2022-11-09T00:00:00	6:00:00	7:00:00	12	98	141	1800	0.08
4595	TF2-DS-S18-01 ถ.นครไชยศรี - ถ.ร่วมจิตต์	13.782932	100.516103	bma	holiday	2022-11-09T00:00:00	7:00:00	8:00:00	14	116	365	1800	0.20
4596	TF2-DS-S18-01 ถ.นครไชยศรี - ถ.ร่วมจิตต์	13.782932	100.516103	bma	holiday	2022-11-09T00:00:00	8:00:00	9:00:00	16	115	221	1800	0.12
4597	TF2-DS-S18-01 ถ.นครไชยศรี - ถ.ร่วมจิตต์	13.782932	100.516103	bma	working	2022-11-09T00:00:00	9:00:00	10:00:00	12	109	215	1800	0.12
4598	TF2-DS-S18-01 ถ.นครไชยศรี - ถ.ร่วมจิตต์	13.782932	100.516103	bma	working	2022-11-09T00:00:00	10:00:00	11:00:00	15	115	187	1800	0.10
4599	TF2-DS-S18-01 ถ.นครไชยศรี - ถ.ร่วมจิตต์	13.782932	100.516103	bma	holiday	2022-11-09T00:00:00	11:00:00	12:00:00	12	112	389	1800	0.22
4600	TF2-DS-S18-01 ถ.นครไชยศรี - ถ.ร่วมจิตต์	13.782932	100.516103	bma	working	2022-11-09T00:00:00	12:00:00	13:00:00	13	109	149	1800	0.08
4601	TF2-DS-S18-01 ถ.นครไชยศรี - ถ.ร่วมจิตต์	13.782932	100.516103	bma	working	2022-11-09T00:00:00	13:00:00	14:00:00	15	110	187	1800	0.10
4602	TF2-DS-S18-01 ถ.นครไชยศรี - ถ.ร่วมจิตต์	13.782932	100.516103	bma	working	2022-11-09T00:00:00	14:00:00	15:00:00	14	111	209	1800	0.12
4603	TF2-DS-S18-01 ถ.นครไชยศรี - ถ.ร่วมจิตต์	13.782932	100.516103	bma	working	2022-11-09T00:00:00	15:00:00	16:00:00	15	108	210	1800	0.12
4604	TF2-DS-S18-01 ถ.นครไชยศรี - ถ.ร่วมจิตต์	13.782932	100.516103	bma	holiday	2022-11-09T00:00:00	16:00:00	17:00:00	18	202	603	1800	0.34
4605	TF2-DS-S18-01 ถ.นครไชยศรี - ถ.ร่วมจิตต์	13.782932	100.516103	bma	holiday	2022-11-09T00:00:00	17:00:00	18:00:00	11	190	323	1800	0.18
4606	TF2-DS-S18-01 ถ.นครไชยศรี - ถ.ร่วมจิตต์	13.782932	100.516103	bma	holiday	2022-11-09T00:00:00	18:00:00	19:00:00	19	93	341	1800	0.19
4607	TF2-HK-S63-01 ถ.รัชดาภิเษก - ถ.พระราม 9	13.769468	100.572877	bma	working	2022-05-09T00:00:00	5:00:00	6:00:00	24	33	1089	3600	0.30
4608	TF2-HK-S63-01 ถ.รัชดาภิเษก - ถ.พระราม 9	13.769468	100.572877	bma	working	2022-05-09T00:00:00	6:00:00	7:00:00	18	98	3227	3600	0.90
4609	TF2-HK-S63-01 ถ.รัชดาภิเษก - ถ.พระราม 9	13.769468	100.572877	bma	working	2022-05-09T00:00:00	7:00:00	8:00:00	10	202	2304	3600	0.64
4610	TF2-HK-S63-01 ถ.รัชดาภิเษก - ถ.พระราม 9	13.769468	100.572877	bma	working	2022-05-09T00:00:00	8:00:00	9:00:00	27	201	4097	3600	1.14
4611	TF2-HK-S63-01 ถ.รัชดาภิเษก - ถ.พระราม 9	13.769468	100.572877	bma	working	2022-05-09T00:00:00	9:00:00	10:00:00	18	201	4003	3600	1.11
4612	TF2-HK-S63-01 ถ.รัชดาภิเษก - ถ.พระราม 9	13.769468	100.572877	bma	working	2022-05-09T00:00:00	10:00:00	11:00:00	19	201	3974	3600	1.10
4613	TF2-HK-S63-01 ถ.รัชดาภิเษก - ถ.พระราม 9	13.769468	100.572877	bma	working	2022-05-09T00:00:00	11:00:00	12:00:00	14	201	2654	3600	0.74
4614	TF2-HK-S63-01 ถ.รัชดาภิเษก - ถ.พระราม 9	13.769468	100.572877	bma	working	2022-05-09T00:00:00	12:00:00	13:00:00	25	202	3811	3600	1.06
4615	TF2-HK-S63-01 ถ.รัชดาภิเษก - ถ.พระราม 9	13.769468	100.572877	bma	working	2022-05-09T00:00:00	13:00:00	14:00:00	19	201	3839	3600	1.07
4616	TF2-HK-S63-01 ถ.รัชดาภิเษก - ถ.พระราม 9	13.769468	100.572877	bma	working	2022-05-09T00:00:00	14:00:00	15:00:00	18	202	3877	3600	1.08
4617	TF2-HK-S63-01 ถ.รัชดาภิเษก - ถ.พระราม 9	13.769468	100.572877	bma	working	2022-05-09T00:00:00	15:00:00	16:00:00	23	202	3868	3600	1.07
4618	TF2-HK-S63-01 ถ.รัชดาภิเษก - ถ.พระราม 9	13.769468	100.572877	bma	working	2022-05-09T00:00:00	16:00:00	17:00:00	9	201	769	3600	0.21
4619	TF2-HK-S63-01 ถ.รัชดาภิเษก - ถ.พระราม 9	13.769468	100.572877	bma	working	2022-05-09T00:00:00	17:00:00	18:00:00	0	202	1015	3600	0.28
4620	TF2-HK-S63-01 ถ.รัชดาภิเษก - ถ.พระราม 9	13.769468	100.572877	bma	working	2022-05-09T00:00:00	18:00:00	19:00:00	14	201	2055	3600	0.57
4621	TF2-HK-S63-01 ถ.รัชดาภิเษก - ถ.พระราม 9	13.769468	100.572877	bma	working	2022-06-09T00:00:00	5:00:00	6:00:00	23	37	787	3600	0.22
4622	TF2-HK-S63-01 ถ.รัชดาภิเษก - ถ.พระราม 9	13.769468	100.572877	bma	working	2022-06-09T00:00:00	6:00:00	7:00:00	17	106	2186	3600	0.61
4623	TF2-HK-S63-01 ถ.รัชดาภิเษก - ถ.พระราม 9	13.769468	100.572877	bma	working	2022-06-09T00:00:00	7:00:00	8:00:00	10	202	2050	3600	0.57
4624	TF2-HK-S63-01 ถ.รัชดาภิเษก - ถ.พระราม 9	13.769468	100.572877	bma	working	2022-06-09T00:00:00	8:00:00	9:00:00	17	201	2877	3600	0.80
4625	TF2-HK-S63-01 ถ.รัชดาภิเษก - ถ.พระราม 9	13.769468	100.572877	bma	working	2022-06-09T00:00:00	9:00:00	10:00:00	15	201	2717	3600	0.75
4626	TF2-HK-S63-01 ถ.รัชดาภิเษก - ถ.พระราม 9	13.769468	100.572877	bma	working	2022-06-09T00:00:00	10:00:00	11:00:00	17	201	2874	3600	0.80
4627	TF2-HK-S63-01 ถ.รัชดาภิเษก - ถ.พระราม 9	13.769468	100.572877	bma	working	2022-06-09T00:00:00	11:00:00	12:00:00	8	202	1732	3600	0.48
4628	TF2-HK-S63-01 ถ.รัชดาภิเษก - ถ.พระราม 9	13.769468	100.572877	bma	working	2022-06-09T00:00:00	12:00:00	13:00:00	19	201	2681	3600	0.74
4629	TF2-HK-S63-01 ถ.รัชดาภิเษก - ถ.พระราม 9	13.769468	100.572877	bma	working	2022-06-09T00:00:00	13:00:00	14:00:00	12	201	2690	3600	0.75
4630	TF2-HK-S63-01 ถ.รัชดาภิเษก - ถ.พระราม 9	13.769468	100.572877	bma	working	2022-06-09T00:00:00	14:00:00	15:00:00	15	201	2741	3600	0.76
4631	TF2-HK-S63-01 ถ.รัชดาภิเษก - ถ.พระราม 9	13.769468	100.572877	bma	working	2022-06-09T00:00:00	15:00:00	16:00:00	19	201	2698	3600	0.75
4632	TF2-HK-S63-01 ถ.รัชดาภิเษก - ถ.พระราม 9	13.769468	100.572877	bma	working	2022-06-09T00:00:00	16:00:00	17:00:00	10	202	758	3600	0.21
4633	TF2-HK-S63-01 ถ.รัชดาภิเษก - ถ.พระราม 9	13.769468	100.572877	bma	working	2022-06-09T00:00:00	17:00:00	18:00:00	8	202	2913	3600	0.81
4634	TF2-HK-S63-01 ถ.รัชดาภิเษก - ถ.พระราม 9	13.769468	100.572877	bma	working	2022-06-09T00:00:00	18:00:00	19:00:00	32	201	1173	3600	0.33
4635	TF2-HK-S63-01 ถ.รัชดาภิเษก - ถ.พระราม 9	13.769468	100.572877	bma	working	2022-07-09T00:00:00	5:00:00	6:00:00	19	39	378	3600	0.11
4636	TF2-HK-S63-01 ถ.รัชดาภิเษก - ถ.พระราม 9	13.769468	100.572877	bma	working	2022-07-09T00:00:00	6:00:00	7:00:00	14	120	1154	3600	0.32
4637	TF2-HK-S63-01 ถ.รัชดาภิเษก - ถ.พระราม 9	13.769468	100.572877	bma	working	2022-07-09T00:00:00	7:00:00	8:00:00	16	201	1793	3600	0.50
4638	TF2-HK-S63-01 ถ.รัชดาภิเษก - ถ.พระราม 9	13.769468	100.572877	bma	working	2022-07-09T00:00:00	8:00:00	9:00:00	12	201	1651	3600	0.46
4639	TF2-HK-S63-01 ถ.รัชดาภิเษก - ถ.พระราม 9	13.769468	100.572877	bma	working	2022-07-09T00:00:00	9:00:00	10:00:00	11	202	1561	3600	0.43
4640	TF2-HK-S63-01 ถ.รัชดาภิเษก - ถ.พระราม 9	13.769468	100.572877	bma	working	2022-07-09T00:00:00	10:00:00	11:00:00	10	202	1567	3600	0.44
4641	TF2-HK-S63-01 ถ.รัชดาภิเษก - ถ.พระราม 9	13.769468	100.572877	bma	working	2022-07-09T00:00:00	11:00:00	12:00:00	5	201	802	3600	0.22
4642	TF2-HK-S63-01 ถ.รัชดาภิเษก - ถ.พระราม 9	13.769468	100.572877	bma	working	2022-07-09T00:00:00	12:00:00	13:00:00	12	201	1509	3600	0.42
4643	TF2-HK-S63-01 ถ.รัชดาภิเษก - ถ.พระราม 9	13.769468	100.572877	bma	working	2022-07-09T00:00:00	13:00:00	14:00:00	9	201	1503	3600	0.42
4644	TF2-HK-S63-01 ถ.รัชดาภิเษก - ถ.พระราม 9	13.769468	100.572877	bma	working	2022-07-09T00:00:00	14:00:00	15:00:00	9	202	1571	3600	0.44
4645	TF2-HK-S63-01 ถ.รัชดาภิเษก - ถ.พระราม 9	13.769468	100.572877	bma	working	2022-07-09T00:00:00	15:00:00	16:00:00	11	201	1486	3600	0.41
4646	TF2-HK-S63-01 ถ.รัชดาภิเษก - ถ.พระราม 9	13.769468	100.572877	bma	working	2022-07-09T00:00:00	16:00:00	17:00:00	11	201	807	3600	0.22
4647	TF2-HK-S63-01 ถ.รัชดาภิเษก - ถ.พระราม 9	13.769468	100.572877	bma	working	2022-07-09T00:00:00	17:00:00	18:00:00	20	201	4868	3600	1.35
4648	TF2-HK-S63-01 ถ.รัชดาภิเษก - ถ.พระราม 9	13.769468	100.572877	bma	working	2022-07-09T00:00:00	18:00:00	19:00:00	53	202	425	3600	0.12
4649	TF2-HK-S63-01 ถ.รัชดาภิเษก - ถ.พระราม 9	13.769468	100.572877	bma	working	2022-08-09T00:00:00	5:00:00	6:00:00	22	50	469	3600	0.13
4650	TF2-HK-S63-01 ถ.รัชดาภิเษก - ถ.พระราม 9	13.769468	100.572877	bma	working	2022-08-09T00:00:00	6:00:00	7:00:00	16	160	1309	3600	0.36
4651	TF2-HK-S63-01 ถ.รัชดาภิเษก - ถ.พระราม 9	13.769468	100.572877	bma	working	2022-08-09T00:00:00	7:00:00	8:00:00	17	202	1377	3600	0.38
4652	TF2-HK-S63-01 ถ.รัชดาภิเษก - ถ.พระราม 9	13.769468	100.572877	bma	working	2022-08-09T00:00:00	8:00:00	9:00:00	19	202	2750	3600	0.76
4653	TF2-HK-S63-01 ถ.รัชดาภิเษก - ถ.พระราม 9	13.769468	100.572877	bma	working	2022-08-09T00:00:00	9:00:00	10:00:00	16	201	2614	3600	0.73
4654	TF2-HK-S63-01 ถ.รัชดาภิเษก - ถ.พระราม 9	13.769468	100.572877	bma	working	2022-08-09T00:00:00	10:00:00	11:00:00	17	202	2582	3600	0.72
4655	TF2-HK-S63-01 ถ.รัชดาภิเษก - ถ.พระราม 9	13.769468	100.572877	bma	working	2022-08-09T00:00:00	11:00:00	12:00:00	15	201	2777	3600	0.77
4656	TF2-HK-S63-01 ถ.รัชดาภิเษก - ถ.พระราม 9	13.769468	100.572877	bma	working	2022-08-09T00:00:00	12:00:00	13:00:00	16	202	2635	3600	0.73
4657	TF2-HK-S63-01 ถ.รัชดาภิเษก - ถ.พระราม 9	13.769468	100.572877	bma	working	2022-08-09T00:00:00	13:00:00	14:00:00	13	202	2646	3600	0.74
4658	TF2-HK-S63-01 ถ.รัชดาภิเษก - ถ.พระราม 9	13.769468	100.572877	bma	working	2022-08-09T00:00:00	14:00:00	15:00:00	17	202	2635	3600	0.73
4659	TF2-HK-S63-01 ถ.รัชดาภิเษก - ถ.พระราม 9	13.769468	100.572877	bma	working	2022-08-09T00:00:00	15:00:00	16:00:00	18	201	2646	3600	0.74
4660	TF2-HK-S63-01 ถ.รัชดาภิเษก - ถ.พระราม 9	13.769468	100.572877	bma	working	2022-08-09T00:00:00	16:00:00	17:00:00	17	202	1816	3600	0.50
4661	TF2-HK-S63-01 ถ.รัชดาภิเษก - ถ.พระราม 9	13.769468	100.572877	bma	working	2022-08-09T00:00:00	17:00:00	18:00:00	13	202	2884	3600	0.80
4662	TF2-HK-S63-01 ถ.รัชดาภิเษก - ถ.พระราม 9	13.769468	100.572877	bma	working	2022-08-09T00:00:00	18:00:00	19:00:00	35	201	1129	3600	0.31
4663	TF2-HK-S63-01 ถ.รัชดาภิเษก - ถ.พระราม 9	13.769468	100.572877	bma	working	2022-09-09T00:00:00	5:00:00	6:00:00	25	67	533	3600	0.15
4664	TF2-HK-S63-01 ถ.รัชดาภิเษก - ถ.พระราม 9	13.769468	100.572877	bma	working	2022-09-09T00:00:00	6:00:00	7:00:00	18	201	1441	3600	0.40
4665	TF2-HK-S63-01 ถ.รัชดาภิเษก - ถ.พระราม 9	13.769468	100.572877	bma	working	2022-09-09T00:00:00	7:00:00	8:00:00	18	202	927	3600	0.26
4666	TF2-HK-S63-01 ถ.รัชดาภิเษก - ถ.พระราม 9	13.769468	100.572877	bma	working	2022-09-09T00:00:00	8:00:00	9:00:00	25	189	3791	3600	1.05
4667	TF2-HK-S63-01 ถ.รัชดาภิเษก - ถ.พระราม 9	13.769468	100.572877	bma	working	2022-09-09T00:00:00	9:00:00	10:00:00	22	183	3782	3600	1.05
4668	TF2-HK-S63-01 ถ.รัชดาภิเษก - ถ.พระราม 9	13.769468	100.572877	bma	working	2022-09-09T00:00:00	10:00:00	11:00:00	19	184	3719	3600	1.03
4669	TF2-HK-S63-01 ถ.รัชดาภิเษก - ถ.พระราม 9	13.769468	100.572877	bma	working	2022-09-09T00:00:00	11:00:00	12:00:00	26	200	4690	3600	1.30
4670	TF2-HK-S63-01 ถ.รัชดาภิเษก - ถ.พระราม 9	13.769468	100.572877	bma	working	2022-09-09T00:00:00	12:00:00	13:00:00	25	187	3729	3600	1.04
4671	TF2-HK-S63-01 ถ.รัชดาภิเษก - ถ.พระราม 9	13.769468	100.572877	bma	working	2022-09-09T00:00:00	13:00:00	14:00:00	23	185	3763	3600	1.05
4672	TF2-HK-S63-01 ถ.รัชดาภิเษก - ถ.พระราม 9	13.769468	100.572877	bma	working	2022-09-09T00:00:00	14:00:00	15:00:00	24	190	3750	3600	1.04
4673	TF2-HK-S63-01 ถ.รัชดาภิเษก - ถ.พระราม 9	13.769468	100.572877	bma	working	2022-09-09T00:00:00	15:00:00	16:00:00	25	188	3769	3600	1.05
4674	TF2-HK-S63-01 ถ.รัชดาภิเษก - ถ.พระราม 9	13.769468	100.572877	bma	working	2022-09-09T00:00:00	16:00:00	17:00:00	23	201	2652	3600	0.74
4675	TF2-HK-S63-01 ถ.รัชดาภิเษก - ถ.พระราม 9	13.769468	100.572877	bma	working	2022-09-09T00:00:00	17:00:00	18:00:00	11	202	667	3600	0.19
4676	TF2-HK-S63-01 ถ.รัชดาภิเษก - ถ.พระราม 9	13.769468	100.572877	bma	working	2022-09-09T00:00:00	18:00:00	19:00:00	15	202	1801	3600	0.50
4677	TF2-HK-S63-01 ถ.รัชดาภิเษก - ถ.พระราม 9	13.769468	100.572877	bma	working	2022-10-09T00:00:00	5:00:00	6:00:00	44	14	429	3600	0.12
4678	TF2-HK-S63-01 ถ.รัชดาภิเษก - ถ.พระราม 9	13.769468	100.572877	bma	holiday	2022-10-09T00:00:00	6:00:00	7:00:00	31	40	1113	3600	0.31
4679	TF2-HK-S63-01 ถ.รัชดาภิเษก - ถ.พระราม 9	13.769468	100.572877	bma	holiday	2022-10-09T00:00:00	7:00:00	8:00:00	13	202	1509	3600	0.42
4680	TF2-HK-S63-01 ถ.รัชดาภิเษก - ถ.พระราม 9	13.769468	100.572877	bma	holiday	2022-10-09T00:00:00	8:00:00	9:00:00	18	202	1745	3600	0.48
4681	TF2-HK-S63-01 ถ.รัชดาภิเษก - ถ.พระราม 9	13.769468	100.572877	bma	working	2022-10-09T00:00:00	9:00:00	10:00:00	13	201	1589	3600	0.44
4682	TF2-HK-S63-01 ถ.รัชดาภิเษก - ถ.พระราม 9	13.769468	100.572877	bma	working	2022-10-09T00:00:00	10:00:00	11:00:00	17	202	1569	3600	0.44
4683	TF2-HK-S63-01 ถ.รัชดาภิเษก - ถ.พระราม 9	13.769468	100.572877	bma	holiday	2022-10-09T00:00:00	11:00:00	12:00:00	22	202	4616	3600	1.28
4684	TF2-HK-S63-01 ถ.รัชดาภิเษก - ถ.พระราม 9	13.769468	100.572877	bma	working	2022-10-09T00:00:00	12:00:00	13:00:00	14	202	1532	3600	0.43
4685	TF2-HK-S63-01 ถ.รัชดาภิเษก - ถ.พระราม 9	13.769468	100.572877	bma	working	2022-10-09T00:00:00	13:00:00	14:00:00	14	202	1575	3600	0.44
4686	TF2-HK-S63-01 ถ.รัชดาภิเษก - ถ.พระราม 9	13.769468	100.572877	bma	working	2022-10-09T00:00:00	14:00:00	15:00:00	14	201	1566	3600	0.44
4687	TF2-HK-S63-01 ถ.รัชดาภิเษก - ถ.พระราม 9	13.769468	100.572877	bma	working	2022-10-09T00:00:00	15:00:00	16:00:00	14	202	1558	3600	0.43
4688	TF2-HK-S63-01 ถ.รัชดาภิเษก - ถ.พระราม 9	13.769468	100.572877	bma	holiday	2022-10-09T00:00:00	16:00:00	17:00:00	8	201	828	3600	0.23
4689	TF2-HK-S63-01 ถ.รัชดาภิเษก - ถ.พระราม 9	13.769468	100.572877	bma	holiday	2022-10-09T00:00:00	17:00:00	18:00:00	17	201	4075	3600	1.13
4690	TF2-HK-S63-01 ถ.รัชดาภิเษก - ถ.พระราม 9	13.769468	100.572877	bma	holiday	2022-10-09T00:00:00	18:00:00	19:00:00	15	177	3569	3600	0.99
4691	TF2-HK-S63-01 ถ.รัชดาภิเษก - ถ.พระราม 9	13.769468	100.572877	bma	working	2022-11-09T00:00:00	5:00:00	6:00:00	20	7	275	3600	0.08
4692	TF2-HK-S63-01 ถ.รัชดาภิเษก - ถ.พระราม 9	13.769468	100.572877	bma	holiday	2022-11-09T00:00:00	6:00:00	7:00:00	15	22	696	3600	0.19
4693	TF2-HK-S63-01 ถ.รัชดาภิเษก - ถ.พระราม 9	13.769468	100.572877	bma	holiday	2022-11-09T00:00:00	7:00:00	8:00:00	7	202	981	3600	0.27
4694	TF2-HK-S63-01 ถ.รัชดาภิเษก - ถ.พระราม 9	13.769468	100.572877	bma	holiday	2022-11-09T00:00:00	8:00:00	9:00:00	9	177	1017	3600	0.28
4695	TF2-HK-S63-01 ถ.รัชดาภิเษก - ถ.พระราม 9	13.769468	100.572877	bma	working	2022-11-09T00:00:00	9:00:00	10:00:00	6	179	998	3600	0.28
4696	TF2-HK-S63-01 ถ.รัชดาภิเษก - ถ.พระราม 9	13.769468	100.572877	bma	working	2022-11-09T00:00:00	10:00:00	11:00:00	9	177	958	3600	0.27
4697	TF2-HK-S63-01 ถ.รัชดาภิเษก - ถ.พระราม 9	13.769468	100.572877	bma	holiday	2022-11-09T00:00:00	11:00:00	12:00:00	15	132	2744	3600	0.76
4698	TF2-HK-S63-01 ถ.รัชดาภิเษก - ถ.พระราม 9	13.769468	100.572877	bma	working	2022-11-09T00:00:00	12:00:00	13:00:00	7	173	942	3600	0.26
4699	TF2-HK-S63-01 ถ.รัชดาภิเษก - ถ.พระราม 9	13.769468	100.572877	bma	working	2022-11-09T00:00:00	13:00:00	14:00:00	7	177	975	3600	0.27
4700	TF2-HK-S63-01 ถ.รัชดาภิเษก - ถ.พระราม 9	13.769468	100.572877	bma	working	2022-11-09T00:00:00	14:00:00	15:00:00	11	178	979	3600	0.27
4701	TF2-HK-S63-01 ถ.รัชดาภิเษก - ถ.พระราม 9	13.769468	100.572877	bma	working	2022-11-09T00:00:00	15:00:00	16:00:00	8	174	973	3600	0.27
4702	TF2-HK-S63-01 ถ.รัชดาภิเษก - ถ.พระราม 9	13.769468	100.572877	bma	holiday	2022-11-09T00:00:00	16:00:00	17:00:00	5	202	481	3600	0.13
4703	TF2-HK-S63-01 ถ.รัชดาภิเษก - ถ.พระราม 9	13.769468	100.572877	bma	holiday	2022-11-09T00:00:00	17:00:00	18:00:00	13	127	2561	3600	0.71
4704	TF2-HK-S63-01 ถ.รัชดาภิเษก - ถ.พระราม 9	13.769468	100.572877	bma	holiday	2022-11-09T00:00:00	18:00:00	19:00:00	10	108	2158	3600	0.60
4705	TF2-HK-S67-06 ถ.ประชาราษฎร์บำเพ็ญ - ถ.รัชดาภิเษก	13.778459	100.573785	bma	working	2022-05-09T00:00:00	5:00:00	6:00:00	34	54	218	2700	0.08
4706	TF2-HK-S67-06 ถ.ประชาราษฎร์บำเพ็ญ - ถ.รัชดาภิเษก	13.778459	100.573785	bma	working	2022-05-09T00:00:00	6:00:00	7:00:00	24	174	618	2700	0.23
4707	TF2-HK-S67-06 ถ.ประชาราษฎร์บำเพ็ญ - ถ.รัชดาภิเษก	13.778459	100.573785	bma	working	2022-05-09T00:00:00	7:00:00	8:00:00	12	138	1069	2700	0.40
4708	TF2-HK-S67-06 ถ.ประชาราษฎร์บำเพ็ญ - ถ.รัชดาภิเษก	13.778459	100.573785	bma	working	2022-05-09T00:00:00	8:00:00	9:00:00	15	202	639	2700	0.24
4709	TF2-HK-S67-06 ถ.ประชาราษฎร์บำเพ็ญ - ถ.รัชดาภิเษก	13.778459	100.573785	bma	working	2022-05-09T00:00:00	9:00:00	10:00:00	11	201	465	2700	0.17
4710	TF2-HK-S67-06 ถ.ประชาราษฎร์บำเพ็ญ - ถ.รัชดาภิเษก	13.778459	100.573785	bma	working	2022-05-09T00:00:00	10:00:00	11:00:00	13	201	617	2700	0.23
4711	TF2-HK-S67-06 ถ.ประชาราษฎร์บำเพ็ญ - ถ.รัชดาภิเษก	13.778459	100.573785	bma	working	2022-05-09T00:00:00	11:00:00	12:00:00	17	201	794	2700	0.29
4712	TF2-HK-S67-06 ถ.ประชาราษฎร์บำเพ็ญ - ถ.รัชดาภิเษก	13.778459	100.573785	bma	working	2022-05-09T00:00:00	12:00:00	13:00:00	14	201	513	2700	0.19
4713	TF2-HK-S67-06 ถ.ประชาราษฎร์บำเพ็ญ - ถ.รัชดาภิเษก	13.778459	100.573785	bma	working	2022-05-09T00:00:00	13:00:00	14:00:00	11	202	497	2700	0.18
4714	TF2-HK-S67-06 ถ.ประชาราษฎร์บำเพ็ญ - ถ.รัชดาภิเษก	13.778459	100.573785	bma	working	2022-05-09T00:00:00	14:00:00	15:00:00	14	201	521	2700	0.19
4715	TF2-HK-S67-06 ถ.ประชาราษฎร์บำเพ็ญ - ถ.รัชดาภิเษก	13.778459	100.573785	bma	working	2022-05-09T00:00:00	15:00:00	16:00:00	10	202	444	2700	0.16
4716	TF2-HK-S67-06 ถ.ประชาราษฎร์บำเพ็ญ - ถ.รัชดาภิเษก	13.778459	100.573785	bma	working	2022-05-09T00:00:00	16:00:00	17:00:00	13	201	1227	2700	0.45
4717	TF2-HK-S67-06 ถ.ประชาราษฎร์บำเพ็ญ - ถ.รัชดาภิเษก	13.778459	100.573785	bma	working	2022-05-09T00:00:00	17:00:00	18:00:00	14	202	975	2700	0.36
4718	TF2-HK-S67-06 ถ.ประชาราษฎร์บำเพ็ญ - ถ.รัชดาภิเษก	13.778459	100.573785	bma	working	2022-05-09T00:00:00	18:00:00	19:00:00	13	202	1386	2700	0.51
4719	TF2-HK-S67-06 ถ.ประชาราษฎร์บำเพ็ญ - ถ.รัชดาภิเษก	13.778459	100.573785	bma	working	2022-06-09T00:00:00	5:00:00	6:00:00	48	40	156	2700	0.06
4720	TF2-HK-S67-06 ถ.ประชาราษฎร์บำเพ็ญ - ถ.รัชดาภิเษก	13.778459	100.573785	bma	working	2022-06-09T00:00:00	6:00:00	7:00:00	34	124	428	2700	0.16
4721	TF2-HK-S67-06 ถ.ประชาราษฎร์บำเพ็ญ - ถ.รัชดาภิเษก	13.778459	100.573785	bma	working	2022-06-09T00:00:00	7:00:00	8:00:00	13	128	1195	2700	0.44
4722	TF2-HK-S67-06 ถ.ประชาราษฎร์บำเพ็ญ - ถ.รัชดาภิเษก	13.778459	100.573785	bma	working	2022-06-09T00:00:00	8:00:00	9:00:00	12	202	817	2700	0.30
4723	TF2-HK-S67-06 ถ.ประชาราษฎร์บำเพ็ญ - ถ.รัชดาภิเษก	13.778459	100.573785	bma	working	2022-06-09T00:00:00	9:00:00	10:00:00	10	201	679	2700	0.25
4724	TF2-HK-S67-06 ถ.ประชาราษฎร์บำเพ็ญ - ถ.รัชดาภิเษก	13.778459	100.573785	bma	working	2022-06-09T00:00:00	10:00:00	11:00:00	11	202	712	2700	0.26
4725	TF2-HK-S67-06 ถ.ประชาราษฎร์บำเพ็ญ - ถ.รัชดาภิเษก	13.778459	100.573785	bma	working	2022-06-09T00:00:00	11:00:00	12:00:00	16	202	702	2700	0.26
4726	TF2-HK-S67-06 ถ.ประชาราษฎร์บำเพ็ญ - ถ.รัชดาภิเษก	13.778459	100.573785	bma	working	2022-06-09T00:00:00	12:00:00	13:00:00	12	201	644	2700	0.24
4727	TF2-HK-S67-06 ถ.ประชาราษฎร์บำเพ็ญ - ถ.รัชดาภิเษก	13.778459	100.573785	bma	working	2022-06-09T00:00:00	13:00:00	14:00:00	11	201	639	2700	0.24
4728	TF2-HK-S67-06 ถ.ประชาราษฎร์บำเพ็ญ - ถ.รัชดาภิเษก	13.778459	100.573785	bma	working	2022-06-09T00:00:00	14:00:00	15:00:00	9	201	641	2700	0.24
4729	TF2-HK-S67-06 ถ.ประชาราษฎร์บำเพ็ญ - ถ.รัชดาภิเษก	13.778459	100.573785	bma	working	2022-06-09T00:00:00	15:00:00	16:00:00	9	202	583	2700	0.22
4730	TF2-HK-S67-06 ถ.ประชาราษฎร์บำเพ็ญ - ถ.รัชดาภิเษก	13.778459	100.573785	bma	working	2022-06-09T00:00:00	16:00:00	17:00:00	12	202	1799	2700	0.67
4731	TF2-HK-S67-06 ถ.ประชาราษฎร์บำเพ็ญ - ถ.รัชดาภิเษก	13.778459	100.573785	bma	working	2022-06-09T00:00:00	17:00:00	18:00:00	17	201	803	2700	0.30
4732	TF2-HK-S67-06 ถ.ประชาราษฎร์บำเพ็ญ - ถ.รัชดาภิเษก	13.778459	100.573785	bma	working	2022-06-09T00:00:00	18:00:00	19:00:00	16	202	1052	2700	0.39
4733	TF2-HK-S67-06 ถ.ประชาราษฎร์บำเพ็ญ - ถ.รัชดาภิเษก	13.778459	100.573785	bma	working	2022-07-09T00:00:00	5:00:00	6:00:00	67	24	82	2700	0.03
4734	TF2-HK-S67-06 ถ.ประชาราษฎร์บำเพ็ญ - ถ.รัชดาภิเษก	13.778459	100.573785	bma	working	2022-07-09T00:00:00	6:00:00	7:00:00	47	72	250	2700	0.09
4735	TF2-HK-S67-06 ถ.ประชาราษฎร์บำเพ็ญ - ถ.รัชดาภิเษก	13.778459	100.573785	bma	working	2022-07-09T00:00:00	7:00:00	8:00:00	19	113	1166	2700	0.43
4736	TF2-HK-S67-06 ถ.ประชาราษฎร์บำเพ็ญ - ถ.รัชดาภิเษก	13.778459	100.573785	bma	working	2022-07-09T00:00:00	8:00:00	9:00:00	12	201	1002	2700	0.37
4737	TF2-HK-S67-06 ถ.ประชาราษฎร์บำเพ็ญ - ถ.รัชดาภิเษก	13.778459	100.573785	bma	working	2022-07-09T00:00:00	9:00:00	10:00:00	8	202	952	2700	0.35
4738	TF2-HK-S67-06 ถ.ประชาราษฎร์บำเพ็ญ - ถ.รัชดาภิเษก	13.778459	100.573785	bma	working	2022-07-09T00:00:00	10:00:00	11:00:00	10	202	766	2700	0.28
4739	TF2-HK-S67-06 ถ.ประชาราษฎร์บำเพ็ญ - ถ.รัชดาภิเษก	13.778459	100.573785	bma	working	2022-07-09T00:00:00	11:00:00	12:00:00	17	202	631	2700	0.23
4740	TF2-HK-S67-06 ถ.ประชาราษฎร์บำเพ็ญ - ถ.รัชดาภิเษก	13.778459	100.573785	bma	working	2022-07-09T00:00:00	12:00:00	13:00:00	8	201	789	2700	0.29
4741	TF2-HK-S67-06 ถ.ประชาราษฎร์บำเพ็ญ - ถ.รัชดาภิเษก	13.778459	100.573785	bma	working	2022-07-09T00:00:00	13:00:00	14:00:00	5	201	773	2700	0.29
4742	TF2-HK-S67-06 ถ.ประชาราษฎร์บำเพ็ญ - ถ.รัชดาภิเษก	13.778459	100.573785	bma	working	2022-07-09T00:00:00	14:00:00	15:00:00	6	201	742	2700	0.27
4743	TF2-HK-S67-06 ถ.ประชาราษฎร์บำเพ็ญ - ถ.รัชดาภิเษก	13.778459	100.573785	bma	working	2022-07-09T00:00:00	15:00:00	16:00:00	7	201	728	2700	0.27
4744	TF2-HK-S67-06 ถ.ประชาราษฎร์บำเพ็ญ - ถ.รัชดาภิเษก	13.778459	100.573785	bma	working	2022-07-09T00:00:00	16:00:00	17:00:00	15	201	2250	2700	0.83
4745	TF2-HK-S67-06 ถ.ประชาราษฎร์บำเพ็ญ - ถ.รัชดาภิเษก	13.778459	100.573785	bma	working	2022-07-09T00:00:00	17:00:00	18:00:00	20	201	646	2700	0.24
4746	TF2-HK-S67-06 ถ.ประชาราษฎร์บำเพ็ญ - ถ.รัชดาภิเษก	13.778459	100.573785	bma	working	2022-07-09T00:00:00	18:00:00	19:00:00	17	201	745	2700	0.28
4747	TF2-HK-S67-06 ถ.ประชาราษฎร์บำเพ็ญ - ถ.รัชดาภิเษก	13.778459	100.573785	bma	working	2022-08-09T00:00:00	5:00:00	6:00:00	69	39	107	2700	0.04
4748	TF2-HK-S67-06 ถ.ประชาราษฎร์บำเพ็ญ - ถ.รัชดาภิเษก	13.778459	100.573785	bma	working	2022-08-09T00:00:00	6:00:00	7:00:00	48	112	339	2700	0.13
4749	TF2-HK-S67-06 ถ.ประชาราษฎร์บำเพ็ญ - ถ.รัชดาภิเษก	13.778459	100.573785	bma	working	2022-08-09T00:00:00	7:00:00	8:00:00	18	172	1108	2700	0.41
4750	TF2-HK-S67-06 ถ.ประชาราษฎร์บำเพ็ญ - ถ.รัชดาภิเษก	13.778459	100.573785	bma	working	2022-08-09T00:00:00	8:00:00	9:00:00	20	201	768	2700	0.28
4751	TF2-HK-S67-06 ถ.ประชาราษฎร์บำเพ็ญ - ถ.รัชดาภิเษก	13.778459	100.573785	bma	working	2022-08-09T00:00:00	9:00:00	10:00:00	14	201	649	2700	0.24
4752	TF2-HK-S67-06 ถ.ประชาราษฎร์บำเพ็ญ - ถ.รัชดาภิเษก	13.778459	100.573785	bma	working	2022-08-09T00:00:00	10:00:00	11:00:00	17	202	649	2700	0.24
4753	TF2-HK-S67-06 ถ.ประชาราษฎร์บำเพ็ญ - ถ.รัชดาภิเษก	13.778459	100.573785	bma	working	2022-08-09T00:00:00	11:00:00	12:00:00	22	187	868	2700	0.32
4754	TF2-HK-S67-06 ถ.ประชาราษฎร์บำเพ็ญ - ถ.รัชดาภิเษก	13.778459	100.573785	bma	working	2022-08-09T00:00:00	12:00:00	13:00:00	16	201	575	2700	0.21
4755	TF2-HK-S67-06 ถ.ประชาราษฎร์บำเพ็ญ - ถ.รัชดาภิเษก	13.778459	100.573785	bma	working	2022-08-09T00:00:00	13:00:00	14:00:00	15	201	587	2700	0.22
4756	TF2-HK-S67-06 ถ.ประชาราษฎร์บำเพ็ญ - ถ.รัชดาภิเษก	13.778459	100.573785	bma	working	2022-08-09T00:00:00	14:00:00	15:00:00	13	202	615	2700	0.23
4757	TF2-HK-S67-06 ถ.ประชาราษฎร์บำเพ็ญ - ถ.รัชดาภิเษก	13.778459	100.573785	bma	working	2022-08-09T00:00:00	15:00:00	16:00:00	17	202	531	2700	0.20
4758	TF2-HK-S67-06 ถ.ประชาราษฎร์บำเพ็ญ - ถ.รัชดาภิเษก	13.778459	100.573785	bma	working	2022-08-09T00:00:00	16:00:00	17:00:00	13	202	1620	2700	0.60
4759	TF2-HK-S67-06 ถ.ประชาราษฎร์บำเพ็ญ - ถ.รัชดาภิเษก	13.778459	100.573785	bma	working	2022-08-09T00:00:00	17:00:00	18:00:00	13	202	717	2700	0.27
4760	TF2-HK-S67-06 ถ.ประชาราษฎร์บำเพ็ญ - ถ.รัชดาภิเษก	13.778459	100.573785	bma	working	2022-08-09T00:00:00	18:00:00	19:00:00	16	202	834	2700	0.31
4761	TF2-HK-S67-06 ถ.ประชาราษฎร์บำเพ็ญ - ถ.รัชดาภิเษก	13.778459	100.573785	bma	working	2022-09-09T00:00:00	5:00:00	6:00:00	71	47	142	2700	0.05
4762	TF2-HK-S67-06 ถ.ประชาราษฎร์บำเพ็ญ - ถ.รัชดาภิเษก	13.778459	100.573785	bma	working	2022-09-09T00:00:00	6:00:00	7:00:00	50	154	401	2700	0.15
4763	TF2-HK-S67-06 ถ.ประชาราษฎร์บำเพ็ญ - ถ.รัชดาภิเษก	13.778459	100.573785	bma	working	2022-09-09T00:00:00	7:00:00	8:00:00	14	201	1117	2700	0.41
4764	TF2-HK-S67-06 ถ.ประชาราษฎร์บำเพ็ญ - ถ.รัชดาภิเษก	13.778459	100.573785	bma	working	2022-09-09T00:00:00	8:00:00	9:00:00	28	202	541	2700	0.20
4765	TF2-HK-S67-06 ถ.ประชาราษฎร์บำเพ็ญ - ถ.รัชดาภิเษก	13.778459	100.573785	bma	working	2022-09-09T00:00:00	9:00:00	10:00:00	25	202	384	2700	0.14
4766	TF2-HK-S67-06 ถ.ประชาราษฎร์บำเพ็ญ - ถ.รัชดาภิเษก	13.778459	100.573785	bma	working	2022-09-09T00:00:00	10:00:00	11:00:00	27	201	478	2700	0.18
4767	TF2-HK-S67-06 ถ.ประชาราษฎร์บำเพ็ญ - ถ.รัชดาภิเษก	13.778459	100.573785	bma	working	2022-09-09T00:00:00	11:00:00	12:00:00	20	146	1109	2700	0.41
4768	TF2-HK-S67-06 ถ.ประชาราษฎร์บำเพ็ญ - ถ.รัชดาภิเษก	13.778459	100.573785	bma	working	2022-09-09T00:00:00	12:00:00	13:00:00	27	201	358	2700	0.13
4769	TF2-HK-S67-06 ถ.ประชาราษฎร์บำเพ็ญ - ถ.รัชดาภิเษก	13.778459	100.573785	bma	working	2022-09-09T00:00:00	13:00:00	14:00:00	26	201	422	2700	0.16
4770	TF2-HK-S67-06 ถ.ประชาราษฎร์บำเพ็ญ - ถ.รัชดาภิเษก	13.778459	100.573785	bma	working	2022-09-09T00:00:00	14:00:00	15:00:00	23	201	497	2700	0.18
4771	TF2-HK-S67-06 ถ.ประชาราษฎร์บำเพ็ญ - ถ.รัชดาภิเษก	13.778459	100.573785	bma	working	2022-09-09T00:00:00	15:00:00	16:00:00	26	202	404	2700	0.15
4772	TF2-HK-S67-06 ถ.ประชาราษฎร์บำเพ็ญ - ถ.รัชดาภิเษก	13.778459	100.573785	bma	working	2022-09-09T00:00:00	16:00:00	17:00:00	7	201	1003	2700	0.37
4773	TF2-HK-S67-06 ถ.ประชาราษฎร์บำเพ็ญ - ถ.รัชดาภิเษก	13.778459	100.573785	bma	working	2022-09-09T00:00:00	17:00:00	18:00:00	8	201	761	2700	0.28
4774	TF2-HK-S67-06 ถ.ประชาราษฎร์บำเพ็ญ - ถ.รัชดาภิเษก	13.778459	100.573785	bma	working	2022-09-09T00:00:00	18:00:00	19:00:00	13	195	906	2700	0.34
4775	TF2-HK-S67-06 ถ.ประชาราษฎร์บำเพ็ญ - ถ.รัชดาภิเษก	13.778459	100.573785	bma	working	2022-10-09T00:00:00	5:00:00	6:00:00	20	46	327	2700	0.12
4776	TF2-HK-S67-06 ถ.ประชาราษฎร์บำเพ็ญ - ถ.รัชดาภิเษก	13.778459	100.573785	bma	holiday	2022-10-09T00:00:00	6:00:00	7:00:00	15	151	926	2700	0.34
4777	TF2-HK-S67-06 ถ.ประชาราษฎร์บำเพ็ญ - ถ.รัชดาภิเษก	13.778459	100.573785	bma	holiday	2022-10-09T00:00:00	7:00:00	8:00:00	19	201	745	2700	0.28
4778	TF2-HK-S67-06 ถ.ประชาราษฎร์บำเพ็ญ - ถ.รัชดาภิเษก	13.778459	100.573785	bma	holiday	2022-10-09T00:00:00	8:00:00	9:00:00	14	140	945	2700	0.35
4779	TF2-HK-S67-06 ถ.ประชาราษฎร์บำเพ็ญ - ถ.รัชดาภิเษก	13.778459	100.573785	bma	working	2022-10-09T00:00:00	9:00:00	10:00:00	10	140	902	2700	0.33
4780	TF2-HK-S67-06 ถ.ประชาราษฎร์บำเพ็ญ - ถ.รัชดาภิเษก	13.778459	100.573785	bma	working	2022-10-09T00:00:00	10:00:00	11:00:00	7	133	785	2700	0.29
4781	TF2-HK-S67-06 ถ.ประชาราษฎร์บำเพ็ญ - ถ.รัชดาภิเษก	13.778459	100.573785	bma	holiday	2022-10-09T00:00:00	11:00:00	12:00:00	16	190	1087	2700	0.40
4782	TF2-HK-S67-06 ถ.ประชาราษฎร์บำเพ็ญ - ถ.รัชดาภิเษก	13.778459	100.573785	bma	working	2022-10-09T00:00:00	12:00:00	13:00:00	8	139	724	2700	0.27
4783	TF2-HK-S67-06 ถ.ประชาราษฎร์บำเพ็ญ - ถ.รัชดาภิเษก	13.778459	100.573785	bma	working	2022-10-09T00:00:00	13:00:00	14:00:00	7	132	742	2700	0.27
4784	TF2-HK-S67-06 ถ.ประชาราษฎร์บำเพ็ญ - ถ.รัชดาภิเษก	13.778459	100.573785	bma	working	2022-10-09T00:00:00	14:00:00	15:00:00	7	136	699	2700	0.26
4785	TF2-HK-S67-06 ถ.ประชาราษฎร์บำเพ็ญ - ถ.รัชดาภิเษก	13.778459	100.573785	bma	working	2022-10-09T00:00:00	15:00:00	16:00:00	10	135	782	2700	0.29
4786	TF2-HK-S67-06 ถ.ประชาราษฎร์บำเพ็ญ - ถ.รัชดาภิเษก	13.778459	100.573785	bma	holiday	2022-10-09T00:00:00	16:00:00	17:00:00	12	202	1463	2700	0.54
4787	TF2-HK-S67-06 ถ.ประชาราษฎร์บำเพ็ญ - ถ.รัชดาภิเษก	13.778459	100.573785	bma	holiday	2022-10-09T00:00:00	17:00:00	18:00:00	7	201	908	2700	0.34
4788	TF2-HK-S67-06 ถ.ประชาราษฎร์บำเพ็ญ - ถ.รัชดาภิเษก	13.778459	100.573785	bma	holiday	2022-10-09T00:00:00	18:00:00	19:00:00	12	137	1354	2700	0.50
4789	TF2-HK-S67-06 ถ.ประชาราษฎร์บำเพ็ญ - ถ.รัชดาภิเษก	13.778459	100.573785	bma	working	2022-11-09T00:00:00	5:00:00	6:00:00	12	31	205	2700	0.08
4790	TF2-HK-S67-06 ถ.ประชาราษฎร์บำเพ็ญ - ถ.รัชดาภิเษก	13.778459	100.573785	bma	holiday	2022-11-09T00:00:00	6:00:00	7:00:00	9	89	602	2700	0.22
4791	TF2-HK-S67-06 ถ.ประชาราษฎร์บำเพ็ญ - ถ.รัชดาภิเษก	13.778459	100.573785	bma	holiday	2022-11-09T00:00:00	7:00:00	8:00:00	11	158	474	2700	0.18
4792	TF2-HK-S67-06 ถ.ประชาราษฎร์บำเพ็ญ - ถ.รัชดาภิเษก	13.778459	100.573785	bma	holiday	2022-11-09T00:00:00	8:00:00	9:00:00	8	84	571	2700	0.21
4793	TF2-HK-S67-06 ถ.ประชาราษฎร์บำเพ็ญ - ถ.รัชดาภิเษก	13.778459	100.573785	bma	working	2022-11-09T00:00:00	9:00:00	10:00:00	5	83	548	2700	0.20
4794	TF2-HK-S67-06 ถ.ประชาราษฎร์บำเพ็ญ - ถ.รัชดาภิเษก	13.778459	100.573785	bma	working	2022-11-09T00:00:00	10:00:00	11:00:00	4	78	501	2700	0.19
4795	TF2-HK-S67-06 ถ.ประชาราษฎร์บำเพ็ญ - ถ.รัชดาภิเษก	13.778459	100.573785	bma	holiday	2022-11-09T00:00:00	11:00:00	12:00:00	9	114	695	2700	0.26
4796	TF2-HK-S67-06 ถ.ประชาราษฎร์บำเพ็ญ - ถ.รัชดาภิเษก	13.778459	100.573785	bma	working	2022-11-09T00:00:00	12:00:00	13:00:00	5	81	470	2700	0.17
4797	TF2-HK-S67-06 ถ.ประชาราษฎร์บำเพ็ญ - ถ.รัชดาภิเษก	13.778459	100.573785	bma	working	2022-11-09T00:00:00	13:00:00	14:00:00	8	79	444	2700	0.16
4798	TF2-HK-S67-06 ถ.ประชาราษฎร์บำเพ็ญ - ถ.รัชดาภิเษก	13.778459	100.573785	bma	working	2022-11-09T00:00:00	14:00:00	15:00:00	4	82	421	2700	0.16
4799	TF2-HK-S67-06 ถ.ประชาราษฎร์บำเพ็ญ - ถ.รัชดาภิเษก	13.778459	100.573785	bma	working	2022-11-09T00:00:00	15:00:00	16:00:00	6	83	485	2700	0.18
4800	TF2-HK-S67-06 ถ.ประชาราษฎร์บำเพ็ญ - ถ.รัชดาภิเษก	13.778459	100.573785	bma	holiday	2022-11-09T00:00:00	16:00:00	17:00:00	7	141	876	2700	0.32
4801	TF2-HK-S67-06 ถ.ประชาราษฎร์บำเพ็ญ - ถ.รัชดาภิเษก	13.778459	100.573785	bma	holiday	2022-11-09T00:00:00	17:00:00	18:00:00	8	180	614	2700	0.23
4802	TF2-HK-S67-06 ถ.ประชาราษฎร์บำเพ็ญ - ถ.รัชดาภิเษก	13.778459	100.573785	bma	holiday	2022-11-09T00:00:00	18:00:00	19:00:00	8	84	911	2700	0.34
4803	TF2-JJ-S39-01 ถ.กำแพงเพชร - ถ. พหลโยธิน	13.798006	100.550908	bma	working	2022-05-09T00:00:00	5:00:00	6:00:00	35	27	136	3600	0.04
4804	TF2-JJ-S39-01 ถ.กำแพงเพชร - ถ. พหลโยธิน	13.798006	100.550908	bma	working	2022-05-09T00:00:00	6:00:00	7:00:00	25	85	388	3600	0.11
4805	TF2-JJ-S39-01 ถ.กำแพงเพชร - ถ. พหลโยธิน	13.798006	100.550908	bma	working	2022-05-09T00:00:00	7:00:00	8:00:00	13	71	1057	3600	0.29
4806	TF2-JJ-S39-01 ถ.กำแพงเพชร - ถ. พหลโยธิน	13.798006	100.550908	bma	working	2022-05-09T00:00:00	8:00:00	9:00:00	16	137	1004	3600	0.28
4807	TF2-JJ-S39-01 ถ.กำแพงเพชร - ถ. พหลโยธิน	13.798006	100.550908	bma	working	2022-05-09T00:00:00	9:00:00	10:00:00	11	129	951	3600	0.26
4808	TF2-JJ-S39-01 ถ.กำแพงเพชร - ถ. พหลโยธิน	13.798006	100.550908	bma	working	2022-05-09T00:00:00	10:00:00	11:00:00	12	129	1041	3600	0.29
4809	TF2-JJ-S39-01 ถ.กำแพงเพชร - ถ. พหลโยธิน	13.798006	100.550908	bma	working	2022-05-09T00:00:00	11:00:00	12:00:00	13	201	2631	3600	0.73
4810	TF2-JJ-S39-01 ถ.กำแพงเพชร - ถ. พหลโยธิน	13.798006	100.550908	bma	working	2022-05-09T00:00:00	12:00:00	13:00:00	8	130	868	3600	0.24
4811	TF2-JJ-S39-01 ถ.กำแพงเพชร - ถ. พหลโยธิน	13.798006	100.550908	bma	working	2022-05-09T00:00:00	13:00:00	14:00:00	14	132	816	3600	0.23
4812	TF2-JJ-S39-01 ถ.กำแพงเพชร - ถ. พหลโยธิน	13.798006	100.550908	bma	working	2022-05-09T00:00:00	14:00:00	15:00:00	12	134	813	3600	0.23
4813	TF2-JJ-S39-01 ถ.กำแพงเพชร - ถ. พหลโยธิน	13.798006	100.550908	bma	working	2022-05-09T00:00:00	15:00:00	16:00:00	13	133	910	3600	0.25
4814	TF2-JJ-S39-01 ถ.กำแพงเพชร - ถ. พหลโยธิน	13.798006	100.550908	bma	working	2022-05-09T00:00:00	16:00:00	17:00:00	22	202	1058	3600	0.29
4815	TF2-JJ-S39-01 ถ.กำแพงเพชร - ถ. พหลโยธิน	13.798006	100.550908	bma	working	2022-05-09T00:00:00	17:00:00	18:00:00	20	127	478	3600	0.13
4816	TF2-JJ-S39-01 ถ.กำแพงเพชร - ถ. พหลโยธิน	13.798006	100.550908	bma	working	2022-05-09T00:00:00	18:00:00	19:00:00	13	93	586	3600	0.16
4817	TF2-JJ-S39-01 ถ.กำแพงเพชร - ถ. พหลโยธิน	13.798006	100.550908	bma	working	2022-06-09T00:00:00	5:00:00	6:00:00	35	24	106	3600	0.03
4818	TF2-JJ-S39-01 ถ.กำแพงเพชร - ถ. พหลโยธิน	13.798006	100.550908	bma	working	2022-06-09T00:00:00	6:00:00	7:00:00	25	73	313	3600	0.09
4819	TF2-JJ-S39-01 ถ.กำแพงเพชร - ถ. พหลโยธิน	13.798006	100.550908	bma	working	2022-06-09T00:00:00	7:00:00	8:00:00	12	73	860	3600	0.24
4820	TF2-JJ-S39-01 ถ.กำแพงเพชร - ถ. พหลโยธิน	13.798006	100.550908	bma	working	2022-06-09T00:00:00	8:00:00	9:00:00	16	189	2332	3600	0.65
4821	TF2-JJ-S39-01 ถ.กำแพงเพชร - ถ. พหลโยธิน	13.798006	100.550908	bma	working	2022-06-09T00:00:00	9:00:00	10:00:00	13	187	2250	3600	0.63
4822	TF2-JJ-S39-01 ถ.กำแพงเพชร - ถ. พหลโยธิน	13.798006	100.550908	bma	working	2022-06-09T00:00:00	10:00:00	11:00:00	15	186	2315	3600	0.64
4823	TF2-JJ-S39-01 ถ.กำแพงเพชร - ถ. พหลโยธิน	13.798006	100.550908	bma	working	2022-06-09T00:00:00	11:00:00	12:00:00	21	201	2721	3600	0.76
4824	TF2-JJ-S39-01 ถ.กำแพงเพชร - ถ. พหลโยธิน	13.798006	100.550908	bma	working	2022-06-09T00:00:00	12:00:00	13:00:00	13	186	2223	3600	0.62
4825	TF2-JJ-S39-01 ถ.กำแพงเพชร - ถ. พหลโยธิน	13.798006	100.550908	bma	working	2022-06-09T00:00:00	13:00:00	14:00:00	14	188	2208	3600	0.61
4826	TF2-JJ-S39-01 ถ.กำแพงเพชร - ถ. พหลโยธิน	13.798006	100.550908	bma	working	2022-06-09T00:00:00	14:00:00	15:00:00	17	185	2175	3600	0.60
4827	TF2-JJ-S39-01 ถ.กำแพงเพชร - ถ. พหลโยธิน	13.798006	100.550908	bma	working	2022-06-09T00:00:00	15:00:00	16:00:00	15	186	2226	3600	0.62
4828	TF2-JJ-S39-01 ถ.กำแพงเพชร - ถ. พหลโยธิน	13.798006	100.550908	bma	working	2022-06-09T00:00:00	16:00:00	17:00:00	21	172	678	3600	0.19
4829	TF2-JJ-S39-01 ถ.กำแพงเพชร - ถ. พหลโยธิน	13.798006	100.550908	bma	working	2022-06-09T00:00:00	17:00:00	18:00:00	18	152	737	3600	0.20
4830	TF2-JJ-S39-01 ถ.กำแพงเพชร - ถ. พหลโยธิน	13.798006	100.550908	bma	working	2022-06-09T00:00:00	18:00:00	19:00:00	10	149	623	3600	0.17
4831	TF2-JJ-S39-01 ถ.กำแพงเพชร - ถ. พหลโยธิน	13.798006	100.550908	bma	working	2022-07-09T00:00:00	5:00:00	6:00:00	32	20	77	3600	0.02
4832	TF2-JJ-S39-01 ถ.กำแพงเพชร - ถ. พหลโยธิน	13.798006	100.550908	bma	working	2022-07-09T00:00:00	6:00:00	7:00:00	23	56	226	3600	0.06
4833	TF2-JJ-S39-01 ถ.กำแพงเพชร - ถ. พหลโยธิน	13.798006	100.550908	bma	working	2022-07-09T00:00:00	7:00:00	8:00:00	15	74	684	3600	0.19
4834	TF2-JJ-S39-01 ถ.กำแพงเพชร - ถ. พหลโยธิน	13.798006	100.550908	bma	working	2022-07-09T00:00:00	8:00:00	9:00:00	19	202	3667	3600	1.02
4835	TF2-JJ-S39-01 ถ.กำแพงเพชร - ถ. พหลโยธิน	13.798006	100.550908	bma	working	2022-07-09T00:00:00	9:00:00	10:00:00	18	202	3596	3600	1.00
4836	TF2-JJ-S39-01 ถ.กำแพงเพชร - ถ. พหลโยธิน	13.798006	100.550908	bma	working	2022-07-09T00:00:00	10:00:00	11:00:00	16	201	3543	3600	0.98
4837	TF2-JJ-S39-01 ถ.กำแพงเพชร - ถ. พหลโยธิน	13.798006	100.550908	bma	working	2022-07-09T00:00:00	11:00:00	12:00:00	28	164	2867	3600	0.80
4838	TF2-JJ-S39-01 ถ.กำแพงเพชร - ถ. พหลโยธิน	13.798006	100.550908	bma	working	2022-07-09T00:00:00	12:00:00	13:00:00	13	202	3589	3600	1.00
4839	TF2-JJ-S39-01 ถ.กำแพงเพชร - ถ. พหลโยธิน	13.798006	100.550908	bma	working	2022-07-09T00:00:00	13:00:00	14:00:00	18	201	3635	3600	1.01
4840	TF2-JJ-S39-01 ถ.กำแพงเพชร - ถ. พหลโยธิน	13.798006	100.550908	bma	working	2022-07-09T00:00:00	14:00:00	15:00:00	20	201	3514	3600	0.98
4841	TF2-JJ-S39-01 ถ.กำแพงเพชร - ถ. พหลโยธิน	13.798006	100.550908	bma	working	2022-07-09T00:00:00	15:00:00	16:00:00	17	202	3534	3600	0.98
4842	TF2-JJ-S39-01 ถ.กำแพงเพชร - ถ. พหลโยธิน	13.798006	100.550908	bma	working	2022-07-09T00:00:00	16:00:00	17:00:00	21	133	393	3600	0.11
4843	TF2-JJ-S39-01 ถ.กำแพงเพชร - ถ. พหลโยธิน	13.798006	100.550908	bma	working	2022-07-09T00:00:00	17:00:00	18:00:00	21	171	1103	3600	0.31
4844	TF2-JJ-S39-01 ถ.กำแพงเพชร - ถ. พหลโยธิน	13.798006	100.550908	bma	working	2022-07-09T00:00:00	18:00:00	19:00:00	12	202	635	3600	0.18
4845	TF2-JJ-S39-01 ถ.กำแพงเพชร - ถ. พหลโยธิน	13.798006	100.550908	bma	working	2022-08-09T00:00:00	5:00:00	6:00:00	33	27	145	3600	0.04
4846	TF2-JJ-S39-01 ถ.กำแพงเพชร - ถ. พหลโยธิน	13.798006	100.550908	bma	working	2022-08-09T00:00:00	6:00:00	7:00:00	24	77	385	3600	0.11
4847	TF2-JJ-S39-01 ถ.กำแพงเพชร - ถ. พหลโยธิน	13.798006	100.550908	bma	working	2022-08-09T00:00:00	7:00:00	8:00:00	20	93	1275	3600	0.35
4848	TF2-JJ-S39-01 ถ.กำแพงเพชร - ถ. พหลโยธิน	13.798006	100.550908	bma	working	2022-08-09T00:00:00	8:00:00	9:00:00	19	202	2666	3600	0.74
4849	TF2-JJ-S39-01 ถ.กำแพงเพชร - ถ. พหลโยธิน	13.798006	100.550908	bma	working	2022-08-09T00:00:00	9:00:00	10:00:00	16	201	2624	3600	0.73
4850	TF2-JJ-S39-01 ถ.กำแพงเพชร - ถ. พหลโยธิน	13.798006	100.550908	bma	working	2022-08-09T00:00:00	10:00:00	11:00:00	19	201	2561	3600	0.71
4851	TF2-JJ-S39-01 ถ.กำแพงเพชร - ถ. พหลโยธิน	13.798006	100.550908	bma	working	2022-08-09T00:00:00	11:00:00	12:00:00	20	168	1995	3600	0.55
4852	TF2-JJ-S39-01 ถ.กำแพงเพชร - ถ. พหลโยธิน	13.798006	100.550908	bma	working	2022-08-09T00:00:00	12:00:00	13:00:00	18	202	2568	3600	0.71
4853	TF2-JJ-S39-01 ถ.กำแพงเพชร - ถ. พหลโยธิน	13.798006	100.550908	bma	working	2022-08-09T00:00:00	13:00:00	14:00:00	22	202	2609	3600	0.72
4854	TF2-JJ-S39-01 ถ.กำแพงเพชร - ถ. พหลโยธิน	13.798006	100.550908	bma	working	2022-08-09T00:00:00	14:00:00	15:00:00	18	202	2484	3600	0.69
4855	TF2-JJ-S39-01 ถ.กำแพงเพชร - ถ. พหลโยธิน	13.798006	100.550908	bma	working	2022-08-09T00:00:00	15:00:00	16:00:00	18	202	2544	3600	0.71
4856	TF2-JJ-S39-01 ถ.กำแพงเพชร - ถ. พหลโยธิน	13.798006	100.550908	bma	working	2022-08-09T00:00:00	16:00:00	17:00:00	22	192	1074	3600	0.30
4857	TF2-JJ-S39-01 ถ.กำแพงเพชร - ถ. พหลโยธิน	13.798006	100.550908	bma	working	2022-08-09T00:00:00	17:00:00	18:00:00	20	159	1601	3600	0.44
4858	TF2-JJ-S39-01 ถ.กำแพงเพชร - ถ. พหลโยธิน	13.798006	100.550908	bma	working	2022-08-09T00:00:00	18:00:00	19:00:00	12	201	1725	3600	0.48
4859	TF2-JJ-S39-01 ถ.กำแพงเพชร - ถ. พหลโยธิน	13.798006	100.550908	bma	working	2022-09-09T00:00:00	5:00:00	6:00:00	35	30	203	3600	0.06
4860	TF2-JJ-S39-01 ถ.กำแพงเพชร - ถ. พหลโยธิน	13.798006	100.550908	bma	working	2022-09-09T00:00:00	6:00:00	7:00:00	25	95	581	3600	0.16
4861	TF2-JJ-S39-01 ถ.กำแพงเพชร - ถ. พหลโยธิน	13.798006	100.550908	bma	working	2022-09-09T00:00:00	7:00:00	8:00:00	18	113	1771	3600	0.49
4862	TF2-JJ-S39-01 ถ.กำแพงเพชร - ถ. พหลโยธิน	13.798006	100.550908	bma	working	2022-09-09T00:00:00	8:00:00	9:00:00	22	185	1706	3600	0.47
4863	TF2-JJ-S39-01 ถ.กำแพงเพชร - ถ. พหลโยธิน	13.798006	100.550908	bma	working	2022-09-09T00:00:00	9:00:00	10:00:00	16	182	1565	3600	0.43
4864	TF2-JJ-S39-01 ถ.กำแพงเพชร - ถ. พหลโยธิน	13.798006	100.550908	bma	working	2022-09-09T00:00:00	10:00:00	11:00:00	19	181	1620	3600	0.45
4865	TF2-JJ-S39-01 ถ.กำแพงเพชร - ถ. พหลโยธิน	13.798006	100.550908	bma	working	2022-09-09T00:00:00	11:00:00	12:00:00	17	167	1177	3600	0.33
4866	TF2-JJ-S39-01 ถ.กำแพงเพชร - ถ. พหลโยธิน	13.798006	100.550908	bma	working	2022-09-09T00:00:00	12:00:00	13:00:00	20	179	1526	3600	0.42
4867	TF2-JJ-S39-01 ถ.กำแพงเพชร - ถ. พหลโยธิน	13.798006	100.550908	bma	working	2022-09-09T00:00:00	13:00:00	14:00:00	21	177	1598	3600	0.44
4868	TF2-JJ-S39-01 ถ.กำแพงเพชร - ถ. พหลโยธิน	13.798006	100.550908	bma	working	2022-09-09T00:00:00	14:00:00	15:00:00	17	181	1501	3600	0.42
4869	TF2-JJ-S39-01 ถ.กำแพงเพชร - ถ. พหลโยธิน	13.798006	100.550908	bma	working	2022-09-09T00:00:00	15:00:00	16:00:00	20	181	1513	3600	0.42
4870	TF2-JJ-S39-01 ถ.กำแพงเพชร - ถ. พหลโยธิน	13.798006	100.550908	bma	working	2022-09-09T00:00:00	16:00:00	17:00:00	18	202	1839	3600	0.51
4871	TF2-JJ-S39-01 ถ.กำแพงเพชร - ถ. พหลโยธิน	13.798006	100.550908	bma	working	2022-09-09T00:00:00	17:00:00	18:00:00	19	141	2222	3600	0.62
4872	TF2-JJ-S39-01 ถ.กำแพงเพชร - ถ. พหลโยธิน	13.798006	100.550908	bma	working	2022-09-09T00:00:00	18:00:00	19:00:00	13	201	2736	3600	0.76
4873	TF2-JJ-S39-01 ถ.กำแพงเพชร - ถ. พหลโยธิน	13.798006	100.550908	bma	working	2022-10-09T00:00:00	5:00:00	6:00:00	25	28	239	3600	0.07
4874	TF2-JJ-S39-01 ถ.กำแพงเพชร - ถ. พหลโยธิน	13.798006	100.550908	bma	holiday	2022-10-09T00:00:00	6:00:00	7:00:00	18	81	615	3600	0.17
4875	TF2-JJ-S39-01 ถ.กำแพงเพชร - ถ. พหลโยธิน	13.798006	100.550908	bma	holiday	2022-10-09T00:00:00	7:00:00	8:00:00	21	111	1833	3600	0.51
4876	TF2-JJ-S39-01 ถ.กำแพงเพชร - ถ. พหลโยธิน	13.798006	100.550908	bma	holiday	2022-10-09T00:00:00	8:00:00	9:00:00	24	184	1690	3600	0.47
4877	TF2-JJ-S39-01 ถ.กำแพงเพชร - ถ. พหลโยธิน	13.798006	100.550908	bma	working	2022-10-09T00:00:00	9:00:00	10:00:00	19	181	1646	3600	0.46
4878	TF2-JJ-S39-01 ถ.กำแพงเพชร - ถ. พหลโยธิน	13.798006	100.550908	bma	working	2022-10-09T00:00:00	10:00:00	11:00:00	22	180	1672	3600	0.46
4879	TF2-JJ-S39-01 ถ.กำแพงเพชร - ถ. พหลโยธิน	13.798006	100.550908	bma	holiday	2022-10-09T00:00:00	11:00:00	12:00:00	13	201	1215	3600	0.34
4880	TF2-JJ-S39-01 ถ.กำแพงเพชร - ถ. พหลโยธิน	13.798006	100.550908	bma	working	2022-10-09T00:00:00	12:00:00	13:00:00	23	183	1591	3600	0.44
4881	TF2-JJ-S39-01 ถ.กำแพงเพชร - ถ. พหลโยธิน	13.798006	100.550908	bma	working	2022-10-09T00:00:00	13:00:00	14:00:00	17	184	1550	3600	0.43
4882	TF2-JJ-S39-01 ถ.กำแพงเพชร - ถ. พหลโยธิน	13.798006	100.550908	bma	working	2022-10-09T00:00:00	14:00:00	15:00:00	19	179	1650	3600	0.46
4883	TF2-JJ-S39-01 ถ.กำแพงเพชร - ถ. พหลโยธิน	13.798006	100.550908	bma	working	2022-10-09T00:00:00	15:00:00	16:00:00	21	181	1535	3600	0.43
4884	TF2-JJ-S39-01 ถ.กำแพงเพชร - ถ. พหลโยธิน	13.798006	100.550908	bma	holiday	2022-10-09T00:00:00	16:00:00	17:00:00	28	69	250	3600	0.07
4885	TF2-JJ-S39-01 ถ.กำแพงเพชร - ถ. พหลโยธิน	13.798006	100.550908	bma	holiday	2022-10-09T00:00:00	17:00:00	18:00:00	18	201	2351	3600	0.65
4886	TF2-JJ-S39-01 ถ.กำแพงเพชร - ถ. พหลโยธิน	13.798006	100.550908	bma	holiday	2022-10-09T00:00:00	18:00:00	19:00:00	19	133	1068	3600	0.30
4887	TF2-JJ-S39-01 ถ.กำแพงเพชร - ถ. พหลโยธิน	13.798006	100.550908	bma	working	2022-11-09T00:00:00	5:00:00	6:00:00	13	17	137	3600	0.04
4888	TF2-JJ-S39-01 ถ.กำแพงเพชร - ถ. พหลโยธิน	13.798006	100.550908	bma	holiday	2022-11-09T00:00:00	6:00:00	7:00:00	10	51	381	3600	0.11
4889	TF2-JJ-S39-01 ถ.กำแพงเพชร - ถ. พหลโยธิน	13.798006	100.550908	bma	holiday	2022-11-09T00:00:00	7:00:00	8:00:00	12	65	1139	3600	0.32
4890	TF2-JJ-S39-01 ถ.กำแพงเพชร - ถ. พหลโยธิน	13.798006	100.550908	bma	holiday	2022-11-09T00:00:00	8:00:00	9:00:00	13	112	1068	3600	0.30
4891	TF2-JJ-S39-01 ถ.กำแพงเพชร - ถ. พหลโยธิน	13.798006	100.550908	bma	working	2022-11-09T00:00:00	9:00:00	10:00:00	10	111	989	3600	0.27
4892	TF2-JJ-S39-01 ถ.กำแพงเพชร - ถ. พหลโยธิน	13.798006	100.550908	bma	working	2022-11-09T00:00:00	10:00:00	11:00:00	14	107	1089	3600	0.30
4893	TF2-JJ-S39-01 ถ.กำแพงเพชร - ถ. พหลโยธิน	13.798006	100.550908	bma	holiday	2022-11-09T00:00:00	11:00:00	12:00:00	10	143	757	3600	0.21
4894	TF2-JJ-S39-01 ถ.กำแพงเพชร - ถ. พหลโยธิน	13.798006	100.550908	bma	working	2022-11-09T00:00:00	12:00:00	13:00:00	12	110	988	3600	0.27
4895	TF2-JJ-S39-01 ถ.กำแพงเพชร - ถ. พหลโยธิน	13.798006	100.550908	bma	working	2022-11-09T00:00:00	13:00:00	14:00:00	9	110	927	3600	0.26
4896	TF2-JJ-S39-01 ถ.กำแพงเพชร - ถ. พหลโยธิน	13.798006	100.550908	bma	working	2022-11-09T00:00:00	14:00:00	15:00:00	9	108	962	3600	0.27
4897	TF2-JJ-S39-01 ถ.กำแพงเพชร - ถ. พหลโยธิน	13.798006	100.550908	bma	working	2022-11-09T00:00:00	15:00:00	16:00:00	13	107	919	3600	0.26
4898	TF2-JJ-S39-01 ถ.กำแพงเพชร - ถ. พหลโยธิน	13.798006	100.550908	bma	holiday	2022-11-09T00:00:00	16:00:00	17:00:00	17	42	138	3600	0.04
4899	TF2-JJ-S39-01 ถ.กำแพงเพชร - ถ. พหลโยธิน	13.798006	100.550908	bma	holiday	2022-11-09T00:00:00	17:00:00	18:00:00	13	136	1460	3600	0.41
4900	TF2-JJ-S39-01 ถ.กำแพงเพชร - ถ. พหลโยธิน	13.798006	100.550908	bma	holiday	2022-11-09T00:00:00	18:00:00	19:00:00	10	78	741	3600	0.21
4901	TF2-JJ-S40-03 ปากซอยพหลโยธิน 18 - ถ. พหลโยธิน	13.797896	100.551208	bma	working	2022-05-09T00:00:00	5:00:00	6:00:00	51	48	149	2700	0.06
4902	TF2-JJ-S40-03 ปากซอยพหลโยธิน 18 - ถ. พหลโยธิน	13.797896	100.551208	bma	working	2022-05-09T00:00:00	6:00:00	7:00:00	36	144	432	2700	0.16
4903	TF2-JJ-S40-03 ปากซอยพหลโยธิน 18 - ถ. พหลโยธิน	13.797896	100.551208	bma	working	2022-05-09T00:00:00	7:00:00	8:00:00	12	202	916	2700	0.34
4904	TF2-JJ-S40-03 ปากซอยพหลโยธิน 18 - ถ. พหลโยธิน	13.797896	100.551208	bma	working	2022-05-09T00:00:00	8:00:00	9:00:00	21	142	1397	2700	0.52
4905	TF2-JJ-S40-03 ปากซอยพหลโยธิน 18 - ถ. พหลโยธิน	13.797896	100.551208	bma	working	2022-05-09T00:00:00	9:00:00	10:00:00	22	138	1355	2700	0.50
4906	TF2-JJ-S40-03 ปากซอยพหลโยธิน 18 - ถ. พหลโยธิน	13.797896	100.551208	bma	working	2022-05-09T00:00:00	10:00:00	11:00:00	22	142	1280	2700	0.47
4907	TF2-JJ-S40-03 ปากซอยพหลโยธิน 18 - ถ. พหลโยธิน	13.797896	100.551208	bma	working	2022-05-09T00:00:00	11:00:00	12:00:00	19	103	1512	2700	0.56
4908	TF2-JJ-S40-03 ปากซอยพหลโยธิน 18 - ถ. พหลโยธิน	13.797896	100.551208	bma	working	2022-05-09T00:00:00	12:00:00	13:00:00	21	139	1196	2700	0.44
4909	TF2-JJ-S40-03 ปากซอยพหลโยธิน 18 - ถ. พหลโยธิน	13.797896	100.551208	bma	working	2022-05-09T00:00:00	13:00:00	14:00:00	23	144	1179	2700	0.44
4910	TF2-JJ-S40-03 ปากซอยพหลโยธิน 18 - ถ. พหลโยธิน	13.797896	100.551208	bma	working	2022-05-09T00:00:00	14:00:00	15:00:00	19	141	1213	2700	0.45
4911	TF2-JJ-S40-03 ปากซอยพหลโยธิน 18 - ถ. พหลโยธิน	13.797896	100.551208	bma	working	2022-05-09T00:00:00	15:00:00	16:00:00	17	138	1157	2700	0.43
4912	TF2-JJ-S40-03 ปากซอยพหลโยธิน 18 - ถ. พหลโยธิน	13.797896	100.551208	bma	working	2022-05-09T00:00:00	16:00:00	17:00:00	23	139	912	2700	0.34
4913	TF2-JJ-S40-03 ปากซอยพหลโยธิน 18 - ถ. พหลโยธิน	13.797896	100.551208	bma	working	2022-05-09T00:00:00	17:00:00	18:00:00	16	148	1768	2700	0.65
4914	TF2-JJ-S40-03 ปากซอยพหลโยธิน 18 - ถ. พหลโยธิน	13.797896	100.551208	bma	working	2022-05-09T00:00:00	18:00:00	19:00:00	18	201	638	2700	0.24
4915	TF2-JJ-S40-03 ปากซอยพหลโยธิน 18 - ถ. พหลโยธิน	13.797896	100.551208	bma	working	2022-06-09T00:00:00	5:00:00	6:00:00	52	42	206	2700	0.08
4916	TF2-JJ-S40-03 ปากซอยพหลโยธิน 18 - ถ. พหลโยธิน	13.797896	100.551208	bma	working	2022-06-09T00:00:00	6:00:00	7:00:00	37	136	513	2700	0.19
4917	TF2-JJ-S40-03 ปากซอยพหลโยธิน 18 - ถ. พหลโยธิน	13.797896	100.551208	bma	working	2022-06-09T00:00:00	7:00:00	8:00:00	14	201	1143	2700	0.42
4918	TF2-JJ-S40-03 ปากซอยพหลโยธิน 18 - ถ. พหลโยธิน	13.797896	100.551208	bma	working	2022-06-09T00:00:00	8:00:00	9:00:00	16	202	1186	2700	0.44
4919	TF2-JJ-S40-03 ปากซอยพหลโยธิน 18 - ถ. พหลโยธิน	13.797896	100.551208	bma	working	2022-06-09T00:00:00	9:00:00	10:00:00	13	201	1099	2700	0.41
4920	TF2-JJ-S40-03 ปากซอยพหลโยธิน 18 - ถ. พหลโยธิน	13.797896	100.551208	bma	working	2022-06-09T00:00:00	10:00:00	11:00:00	11	202	1042	2700	0.39
4921	TF2-JJ-S40-03 ปากซอยพหลโยธิน 18 - ถ. พหลโยธิน	13.797896	100.551208	bma	working	2022-06-09T00:00:00	11:00:00	12:00:00	18	151	1708	2700	0.63
4922	TF2-JJ-S40-03 ปากซอยพหลโยธิน 18 - ถ. พหลโยธิน	13.797896	100.551208	bma	working	2022-06-09T00:00:00	12:00:00	13:00:00	13	201	933	2700	0.35
4923	TF2-JJ-S40-03 ปากซอยพหลโยธิน 18 - ถ. พหลโยธิน	13.797896	100.551208	bma	working	2022-06-09T00:00:00	13:00:00	14:00:00	11	201	918	2700	0.34
4924	TF2-JJ-S40-03 ปากซอยพหลโยธิน 18 - ถ. พหลโยธิน	13.797896	100.551208	bma	working	2022-06-09T00:00:00	14:00:00	15:00:00	12	201	1039	2700	0.38
4925	TF2-JJ-S40-03 ปากซอยพหลโยธิน 18 - ถ. พหลโยธิน	13.797896	100.551208	bma	working	2022-06-09T00:00:00	15:00:00	16:00:00	14	201	933	2700	0.35
4926	TF2-JJ-S40-03 ปากซอยพหลโยธิน 18 - ถ. พหลโยธิน	13.797896	100.551208	bma	working	2022-06-09T00:00:00	16:00:00	17:00:00	24	143	1116	2700	0.41
4927	TF2-JJ-S40-03 ปากซอยพหลโยธิน 18 - ถ. พหลโยธิน	13.797896	100.551208	bma	working	2022-06-09T00:00:00	17:00:00	18:00:00	19	202	938	2700	0.35
4928	TF2-JJ-S40-03 ปากซอยพหลโยธิน 18 - ถ. พหลโยธิน	13.797896	100.551208	bma	working	2022-06-09T00:00:00	18:00:00	19:00:00	18	201	1275	2700	0.47
4929	TF2-JJ-S40-03 ปากซอยพหลโยธิน 18 - ถ. พหลโยธิน	13.797896	100.551208	bma	working	2022-07-09T00:00:00	5:00:00	6:00:00	52	43	240	2700	0.09
4930	TF2-JJ-S40-03 ปากซอยพหลโยธิน 18 - ถ. พหลโยธิน	13.797896	100.551208	bma	working	2022-07-09T00:00:00	6:00:00	7:00:00	37	132	622	2700	0.23
4931	TF2-JJ-S40-03 ปากซอยพหลโยธิน 18 - ถ. พหลโยธิน	13.797896	100.551208	bma	working	2022-07-09T00:00:00	7:00:00	8:00:00	22	180	1307	2700	0.48
4932	TF2-JJ-S40-03 ปากซอยพหลโยธิน 18 - ถ. พหลโยธิน	13.797896	100.551208	bma	working	2022-07-09T00:00:00	8:00:00	9:00:00	6	202	917	2700	0.34
4933	TF2-JJ-S40-03 ปากซอยพหลโยธิน 18 - ถ. พหลโยธิน	13.797896	100.551208	bma	working	2022-07-09T00:00:00	9:00:00	10:00:00	0	201	808	2700	0.30
4934	TF2-JJ-S40-03 ปากซอยพหลโยธิน 18 - ถ. พหลโยธิน	13.797896	100.551208	bma	working	2022-07-09T00:00:00	10:00:00	11:00:00	3	201	744	2700	0.28
4935	TF2-JJ-S40-03 ปากซอยพหลโยธิน 18 - ถ. พหลโยธิน	13.797896	100.551208	bma	working	2022-07-09T00:00:00	11:00:00	12:00:00	19	198	1942	2700	0.72
4936	TF2-JJ-S40-03 ปากซอยพหลโยธิน 18 - ถ. พหลโยธิน	13.797896	100.551208	bma	working	2022-07-09T00:00:00	12:00:00	13:00:00	4	202	683	2700	0.25
4937	TF2-JJ-S40-03 ปากซอยพหลโยธิน 18 - ถ. พหลโยธิน	13.797896	100.551208	bma	working	2022-07-09T00:00:00	13:00:00	14:00:00	6	202	717	2700	0.27
4938	TF2-JJ-S40-03 ปากซอยพหลโยธิน 18 - ถ. พหลโยธิน	13.797896	100.551208	bma	working	2022-07-09T00:00:00	14:00:00	15:00:00	3	201	793	2700	0.29
4939	TF2-JJ-S40-03 ปากซอยพหลโยธิน 18 - ถ. พหลโยธิน	13.797896	100.551208	bma	working	2022-07-09T00:00:00	15:00:00	16:00:00	5	201	688	2700	0.25
4940	TF2-JJ-S40-03 ปากซอยพหลโยธิน 18 - ถ. พหลโยธิน	13.797896	100.551208	bma	working	2022-07-09T00:00:00	16:00:00	17:00:00	25	146	1419	2700	0.53
4941	TF2-JJ-S40-03 ปากซอยพหลโยธิน 18 - ถ. พหลโยธิน	13.797896	100.551208	bma	working	2022-07-09T00:00:00	17:00:00	18:00:00	25	202	191	2700	0.07
4942	TF2-JJ-S40-03 ปากซอยพหลโยธิน 18 - ถ. พหลโยธิน	13.797896	100.551208	bma	working	2022-07-09T00:00:00	18:00:00	19:00:00	20	186	1978	2700	0.73
4943	TF2-JJ-S40-03 ปากซอยพหลโยธิน 18 - ถ. พหลโยธิน	13.797896	100.551208	bma	working	2022-08-09T00:00:00	5:00:00	6:00:00	48	30	265	2700	0.10
4944	TF2-JJ-S40-03 ปากซอยพหลโยธิน 18 - ถ. พหลโยธิน	13.797896	100.551208	bma	working	2022-08-09T00:00:00	6:00:00	7:00:00	34	98	733	2700	0.27
4945	TF2-JJ-S40-03 ปากซอยพหลโยธิน 18 - ถ. พหลโยธิน	13.797896	100.551208	bma	working	2022-08-09T00:00:00	7:00:00	8:00:00	18	158	1204	2700	0.45
4946	TF2-JJ-S40-03 ปากซอยพหลโยธิน 18 - ถ. พหลโยธิน	13.797896	100.551208	bma	working	2022-08-09T00:00:00	8:00:00	9:00:00	10	201	1471	2700	0.54
4947	TF2-JJ-S40-03 ปากซอยพหลโยธิน 18 - ถ. พหลโยธิน	13.797896	100.551208	bma	working	2022-08-09T00:00:00	9:00:00	10:00:00	4	202	1374	2700	0.51
4948	TF2-JJ-S40-03 ปากซอยพหลโยธิน 18 - ถ. พหลโยธิน	13.797896	100.551208	bma	working	2022-08-09T00:00:00	10:00:00	11:00:00	2	202	1274	2700	0.47
4949	TF2-JJ-S40-03 ปากซอยพหลโยธิน 18 - ถ. พหลโยธิน	13.797896	100.551208	bma	working	2022-08-09T00:00:00	11:00:00	12:00:00	20	147	1565	2700	0.58
4950	TF2-JJ-S40-03 ปากซอยพหลโยธิน 18 - ถ. พหลโยธิน	13.797896	100.551208	bma	working	2022-08-09T00:00:00	12:00:00	13:00:00	4	201	1307	2700	0.48
4951	TF2-JJ-S40-03 ปากซอยพหลโยธิน 18 - ถ. พหลโยธิน	13.797896	100.551208	bma	working	2022-08-09T00:00:00	13:00:00	14:00:00	8	202	1262	2700	0.47
4952	TF2-JJ-S40-03 ปากซอยพหลโยธิน 18 - ถ. พหลโยธิน	13.797896	100.551208	bma	working	2022-08-09T00:00:00	14:00:00	15:00:00	6	202	1360	2700	0.50
4953	TF2-JJ-S40-03 ปากซอยพหลโยธิน 18 - ถ. พหลโยธิน	13.797896	100.551208	bma	working	2022-08-09T00:00:00	15:00:00	16:00:00	6	201	1319	2700	0.49
4954	TF2-JJ-S40-03 ปากซอยพหลโยธิน 18 - ถ. พหลโยธิน	13.797896	100.551208	bma	working	2022-08-09T00:00:00	16:00:00	17:00:00	25	126	1378	2700	0.51
4955	TF2-JJ-S40-03 ปากซอยพหลโยธิน 18 - ถ. พหลโยธิน	13.797896	100.551208	bma	working	2022-08-09T00:00:00	17:00:00	18:00:00	21	202	865	2700	0.32
4956	TF2-JJ-S40-03 ปากซอยพหลโยธิน 18 - ถ. พหลโยธิน	13.797896	100.551208	bma	working	2022-08-09T00:00:00	18:00:00	19:00:00	16	202	1376	2700	0.51
4957	TF2-JJ-S40-03 ปากซอยพหลโยธิน 18 - ถ. พหลโยธิน	13.797896	100.551208	bma	working	2022-09-09T00:00:00	5:00:00	6:00:00	41	24	300	2700	0.11
4958	TF2-JJ-S40-03 ปากซอยพหลโยธิน 18 - ถ. พหลโยธิน	13.797896	100.551208	bma	working	2022-09-09T00:00:00	6:00:00	7:00:00	29	69	823	2700	0.30
4959	TF2-JJ-S40-03 ปากซอยพหลโยธิน 18 - ถ. พหลโยธิน	13.797896	100.551208	bma	working	2022-09-09T00:00:00	7:00:00	8:00:00	11	134	986	2700	0.37
4960	TF2-JJ-S40-03 ปากซอยพหลโยธิน 18 - ถ. พหลโยธิน	13.797896	100.551208	bma	working	2022-09-09T00:00:00	8:00:00	9:00:00	12	201	1984	2700	0.73
4961	TF2-JJ-S40-03 ปากซอยพหลโยธิน 18 - ถ. พหลโยธิน	13.797896	100.551208	bma	working	2022-09-09T00:00:00	9:00:00	10:00:00	10	202	1981	2700	0.73
4962	TF2-JJ-S40-03 ปากซอยพหลโยธิน 18 - ถ. พหลโยธิน	13.797896	100.551208	bma	working	2022-09-09T00:00:00	10:00:00	11:00:00	9	201	1905	2700	0.71
4963	TF2-JJ-S40-03 ปากซอยพหลโยธิน 18 - ถ. พหลโยธิน	13.797896	100.551208	bma	working	2022-09-09T00:00:00	11:00:00	12:00:00	23	98	1224	2700	0.45
4964	TF2-JJ-S40-03 ปากซอยพหลโยธิน 18 - ถ. พหลโยธิน	13.797896	100.551208	bma	working	2022-09-09T00:00:00	12:00:00	13:00:00	9	201	1910	2700	0.71
4965	TF2-JJ-S40-03 ปากซอยพหลโยธิน 18 - ถ. พหลโยธิน	13.797896	100.551208	bma	working	2022-09-09T00:00:00	13:00:00	14:00:00	10	201	1871	2700	0.69
4966	TF2-JJ-S40-03 ปากซอยพหลโยธิน 18 - ถ. พหลโยธิน	13.797896	100.551208	bma	working	2022-09-09T00:00:00	14:00:00	15:00:00	10	202	1947	2700	0.72
4967	TF2-JJ-S40-03 ปากซอยพหลโยธิน 18 - ถ. พหลโยธิน	13.797896	100.551208	bma	working	2022-09-09T00:00:00	15:00:00	16:00:00	8	202	1920	2700	0.71
4968	TF2-JJ-S40-03 ปากซอยพหลโยธิน 18 - ถ. พหลโยธิน	13.797896	100.551208	bma	working	2022-09-09T00:00:00	16:00:00	17:00:00	25	109	1293	2700	0.48
4969	TF2-JJ-S40-03 ปากซอยพหลโยธิน 18 - ถ. พหลโยธิน	13.797896	100.551208	bma	working	2022-09-09T00:00:00	17:00:00	18:00:00	14	164	1478	2700	0.55
4970	TF2-JJ-S40-03 ปากซอยพหลโยธิน 18 - ถ. พหลโยธิน	13.797896	100.551208	bma	working	2022-09-09T00:00:00	18:00:00	19:00:00	13	201	945	2700	0.35
4971	TF2-JJ-S40-03 ปากซอยพหลโยธิน 18 - ถ. พหลโยธิน	13.797896	100.551208	bma	working	2022-10-09T00:00:00	5:00:00	6:00:00	67	36	45	2700	0.02
4972	TF2-JJ-S40-03 ปากซอยพหลโยธิน 18 - ถ. พหลโยธิน	13.797896	100.551208	bma	holiday	2022-10-09T00:00:00	6:00:00	7:00:00	47	112	138	2700	0.05
4973	TF2-JJ-S40-03 ปากซอยพหลโยธิน 18 - ถ. พหลโยธิน	13.797896	100.551208	bma	holiday	2022-10-09T00:00:00	7:00:00	8:00:00	18	82	1049	2700	0.39
4974	TF2-JJ-S40-03 ปากซอยพหลโยธิน 18 - ถ. พหลโยธิน	13.797896	100.551208	bma	holiday	2022-10-09T00:00:00	8:00:00	9:00:00	24	76	1023	2700	0.38
4975	TF2-JJ-S40-03 ปากซอยพหลโยธิน 18 - ถ. พหลโยธิน	13.797896	100.551208	bma	working	2022-10-09T00:00:00	9:00:00	10:00:00	25	71	1072	2700	0.40
4976	TF2-JJ-S40-03 ปากซอยพหลโยธิน 18 - ถ. พหลโยธิน	13.797896	100.551208	bma	working	2022-10-09T00:00:00	10:00:00	11:00:00	24	72	938	2700	0.35
4977	TF2-JJ-S40-03 ปากซอยพหลโยธิน 18 - ถ. พหลโยธิน	13.797896	100.551208	bma	holiday	2022-10-09T00:00:00	11:00:00	12:00:00	18	97	1536	2700	0.57
4978	TF2-JJ-S40-03 ปากซอยพหลโยธิน 18 - ถ. พหลโยธิน	13.797896	100.551208	bma	working	2022-10-09T00:00:00	12:00:00	13:00:00	21	73	909	2700	0.34
4979	TF2-JJ-S40-03 ปากซอยพหลโยธิน 18 - ถ. พหลโยธิน	13.797896	100.551208	bma	working	2022-10-09T00:00:00	13:00:00	14:00:00	17	76	832	2700	0.31
4980	TF2-JJ-S40-03 ปากซอยพหลโยธิน 18 - ถ. พหลโยธิน	13.797896	100.551208	bma	working	2022-10-09T00:00:00	14:00:00	15:00:00	17	72	849	2700	0.31
4981	TF2-JJ-S40-03 ปากซอยพหลโยธิน 18 - ถ. พหลโยธิน	13.797896	100.551208	bma	working	2022-10-09T00:00:00	15:00:00	16:00:00	24	73	949	2700	0.35
4982	TF2-JJ-S40-03 ปากซอยพหลโยธิน 18 - ถ. พหลโยธิน	13.797896	100.551208	bma	holiday	2022-10-09T00:00:00	16:00:00	17:00:00	24	104	1421	2700	0.53
4983	TF2-JJ-S40-03 ปากซอยพหลโยธิน 18 - ถ. พหลโยธิน	13.797896	100.551208	bma	holiday	2022-10-09T00:00:00	17:00:00	18:00:00	23	125	1876	2700	0.69
4984	TF2-JJ-S40-03 ปากซอยพหลโยธิน 18 - ถ. พหลโยธิน	13.797896	100.551208	bma	holiday	2022-10-09T00:00:00	18:00:00	19:00:00	30	85	747	2700	0.28
4985	TF2-JJ-S40-03 ปากซอยพหลโยธิน 18 - ถ. พหลโยธิน	13.797896	100.551208	bma	working	2022-11-09T00:00:00	5:00:00	6:00:00	39	22	37	2700	0.01
4986	TF2-JJ-S40-03 ปากซอยพหลโยธิน 18 - ถ. พหลโยธิน	13.797896	100.551208	bma	holiday	2022-11-09T00:00:00	6:00:00	7:00:00	28	67	110	2700	0.04
4987	TF2-JJ-S40-03 ปากซอยพหลโยธิน 18 - ถ. พหลโยธิน	13.797896	100.551208	bma	holiday	2022-11-09T00:00:00	7:00:00	8:00:00	10	51	672	2700	0.25
4988	TF2-JJ-S40-03 ปากซอยพหลโยธิน 18 - ถ. พหลโยธิน	13.797896	100.551208	bma	holiday	2022-11-09T00:00:00	8:00:00	9:00:00	16	47	644	2700	0.24
4989	TF2-JJ-S40-03 ปากซอยพหลโยธิน 18 - ถ. พหลโยธิน	13.797896	100.551208	bma	working	2022-11-09T00:00:00	9:00:00	10:00:00	12	41	622	2700	0.23
4990	TF2-JJ-S40-03 ปากซอยพหลโยธิน 18 - ถ. พหลโยธิน	13.797896	100.551208	bma	working	2022-11-09T00:00:00	10:00:00	11:00:00	15	43	583	2700	0.22
4991	TF2-JJ-S40-03 ปากซอยพหลโยธิน 18 - ถ. พหลโยธิน	13.797896	100.551208	bma	holiday	2022-11-09T00:00:00	11:00:00	12:00:00	13	56	944	2700	0.35
4992	TF2-JJ-S40-03 ปากซอยพหลโยธิน 18 - ถ. พหลโยธิน	13.797896	100.551208	bma	working	2022-11-09T00:00:00	12:00:00	13:00:00	14	43	593	2700	0.22
4993	TF2-JJ-S40-03 ปากซอยพหลโยธิน 18 - ถ. พหลโยธิน	13.797896	100.551208	bma	working	2022-11-09T00:00:00	13:00:00	14:00:00	12	45	513	2700	0.19
4994	TF2-JJ-S40-03 ปากซอยพหลโยธิน 18 - ถ. พหลโยธิน	13.797896	100.551208	bma	working	2022-11-09T00:00:00	14:00:00	15:00:00	12	40	501	2700	0.19
4995	TF2-JJ-S40-03 ปากซอยพหลโยธิน 18 - ถ. พหลโยธิน	13.797896	100.551208	bma	working	2022-11-09T00:00:00	15:00:00	16:00:00	14	43	612	2700	0.23
4996	TF2-JJ-S40-03 ปากซอยพหลโยธิน 18 - ถ. พหลโยธิน	13.797896	100.551208	bma	holiday	2022-11-09T00:00:00	16:00:00	17:00:00	16	62	918	2700	0.34
4997	TF2-JJ-S40-03 ปากซอยพหลโยธิน 18 - ถ. พหลโยธิน	13.797896	100.551208	bma	holiday	2022-11-09T00:00:00	17:00:00	18:00:00	12	73	1200	2700	0.44
4998	TF2-JJ-S40-03 ปากซอยพหลโยธิน 18 - ถ. พหลโยธิน	13.797896	100.551208	bma	holiday	2022-11-09T00:00:00	18:00:00	19:00:00	16	52	480	2700	0.18
4999	TF2-JJ-S66-04 ถ.รัชดาภิเษก - ปากซอยข้างศาลอาญา	13.810199	100.575098	bma	working	2022-05-09T00:00:00	5:00:00	6:00:00	67	64	431	3600	0.12
5000	TF2-JJ-S66-04 ถ.รัชดาภิเษก - ปากซอยข้างศาลอาญา	13.810199	100.575098	bma	working	2022-05-09T00:00:00	6:00:00	7:00:00	47	184	1279	3600	0.36
5001	TF2-JJ-S66-04 ถ.รัชดาภิเษก - ปากซอยข้างศาลอาญา	13.810199	100.575098	bma	working	2022-05-09T00:00:00	7:00:00	8:00:00	62	194	3296	3600	0.92
5002	TF2-JJ-S66-04 ถ.รัชดาภิเษก - ปากซอยข้างศาลอาญา	13.810199	100.575098	bma	working	2022-05-09T00:00:00	8:00:00	9:00:00	29	202	3515	3600	0.98
5003	TF2-JJ-S66-04 ถ.รัชดาภิเษก - ปากซอยข้างศาลอาญา	13.810199	100.575098	bma	working	2022-05-09T00:00:00	9:00:00	10:00:00	27	202	3467	3600	0.96
5004	TF2-JJ-S66-04 ถ.รัชดาภิเษก - ปากซอยข้างศาลอาญา	13.810199	100.575098	bma	working	2022-05-09T00:00:00	10:00:00	11:00:00	27	201	3467	3600	0.96
5005	TF2-JJ-S66-04 ถ.รัชดาภิเษก - ปากซอยข้างศาลอาญา	13.810199	100.575098	bma	working	2022-05-09T00:00:00	11:00:00	12:00:00	53	201	3412	3600	0.95
5006	TF2-JJ-S66-04 ถ.รัชดาภิเษก - ปากซอยข้างศาลอาญา	13.810199	100.575098	bma	working	2022-05-09T00:00:00	12:00:00	13:00:00	29	202	3296	3600	0.92
5007	TF2-JJ-S66-04 ถ.รัชดาภิเษก - ปากซอยข้างศาลอาญา	13.810199	100.575098	bma	working	2022-05-09T00:00:00	13:00:00	14:00:00	28	201	3388	3600	0.94
5008	TF2-JJ-S66-04 ถ.รัชดาภิเษก - ปากซอยข้างศาลอาญา	13.810199	100.575098	bma	working	2022-05-09T00:00:00	14:00:00	15:00:00	31	201	3389	3600	0.94
5009	TF2-JJ-S66-04 ถ.รัชดาภิเษก - ปากซอยข้างศาลอาญา	13.810199	100.575098	bma	working	2022-05-09T00:00:00	15:00:00	16:00:00	27	202	3419	3600	0.95
5010	TF2-JJ-S66-04 ถ.รัชดาภิเษก - ปากซอยข้างศาลอาญา	13.810199	100.575098	bma	working	2022-05-09T00:00:00	16:00:00	17:00:00	55	146	2455	3600	0.68
5011	TF2-JJ-S66-04 ถ.รัชดาภิเษก - ปากซอยข้างศาลอาญา	13.810199	100.575098	bma	working	2022-05-09T00:00:00	17:00:00	18:00:00	47	202	2519	3600	0.70
5012	TF2-JJ-S66-04 ถ.รัชดาภิเษก - ปากซอยข้างศาลอาญา	13.810199	100.575098	bma	working	2022-05-09T00:00:00	18:00:00	19:00:00	59	167	2002	3600	0.56
5013	TF2-JJ-S66-04 ถ.รัชดาภิเษก - ปากซอยข้างศาลอาญา	13.810199	100.575098	bma	working	2022-06-09T00:00:00	5:00:00	6:00:00	70	58	485	3600	0.13
5014	TF2-JJ-S66-04 ถ.รัชดาภิเษก - ปากซอยข้างศาลอาญา	13.810199	100.575098	bma	working	2022-06-09T00:00:00	6:00:00	7:00:00	49	183	1287	3600	0.36
5015	TF2-JJ-S66-04 ถ.รัชดาภิเษก - ปากซอยข้างศาลอาญา	13.810199	100.575098	bma	working	2022-06-09T00:00:00	7:00:00	8:00:00	63	193	3328	3600	0.92
5016	TF2-JJ-S66-04 ถ.รัชดาภิเษก - ปากซอยข้างศาลอาญา	13.810199	100.575098	bma	working	2022-06-09T00:00:00	8:00:00	9:00:00	30	201	3507	3600	0.97
5017	TF2-JJ-S66-04 ถ.รัชดาภิเษก - ปากซอยข้างศาลอาญา	13.810199	100.575098	bma	working	2022-06-09T00:00:00	9:00:00	10:00:00	27	202	3367	3600	0.94
5018	TF2-JJ-S66-04 ถ.รัชดาภิเษก - ปากซอยข้างศาลอาญา	13.810199	100.575098	bma	working	2022-06-09T00:00:00	10:00:00	11:00:00	25	202	3516	3600	0.98
5019	TF2-JJ-S66-04 ถ.รัชดาภิเษก - ปากซอยข้างศาลอาญา	13.810199	100.575098	bma	working	2022-06-09T00:00:00	11:00:00	12:00:00	52	202	3352	3600	0.93
5020	TF2-JJ-S66-04 ถ.รัชดาภิเษก - ปากซอยข้างศาลอาญา	13.810199	100.575098	bma	working	2022-06-09T00:00:00	12:00:00	13:00:00	32	201	3295	3600	0.92
5021	TF2-JJ-S66-04 ถ.รัชดาภิเษก - ปากซอยข้างศาลอาญา	13.810199	100.575098	bma	working	2022-06-09T00:00:00	13:00:00	14:00:00	31	201	3380	3600	0.94
5022	TF2-JJ-S66-04 ถ.รัชดาภิเษก - ปากซอยข้างศาลอาญา	13.810199	100.575098	bma	working	2022-06-09T00:00:00	14:00:00	15:00:00	27	202	3352	3600	0.93
5023	TF2-JJ-S66-04 ถ.รัชดาภิเษก - ปากซอยข้างศาลอาญา	13.810199	100.575098	bma	working	2022-06-09T00:00:00	15:00:00	16:00:00	31	202	3391	3600	0.94
5024	TF2-JJ-S66-04 ถ.รัชดาภิเษก - ปากซอยข้างศาลอาญา	13.810199	100.575098	bma	working	2022-06-09T00:00:00	16:00:00	17:00:00	55	162	2470	3600	0.69
5025	TF2-JJ-S66-04 ถ.รัชดาภิเษก - ปากซอยข้างศาลอาญา	13.810199	100.575098	bma	working	2022-06-09T00:00:00	17:00:00	18:00:00	47	201	3287	3600	0.91
5026	TF2-JJ-S66-04 ถ.รัชดาภิเษก - ปากซอยข้างศาลอาญา	13.810199	100.575098	bma	working	2022-06-09T00:00:00	18:00:00	19:00:00	56	201	1933	3600	0.54
5027	TF2-JJ-S66-04 ถ.รัชดาภิเษก - ปากซอยข้างศาลอาญา	13.810199	100.575098	bma	working	2022-07-09T00:00:00	5:00:00	6:00:00	70	57	479	3600	0.13
5028	TF2-JJ-S66-04 ถ.รัชดาภิเษก - ปากซอยข้างศาลอาญา	13.810199	100.575098	bma	working	2022-07-09T00:00:00	6:00:00	7:00:00	49	184	1283	3600	0.36
5029	TF2-JJ-S66-04 ถ.รัชดาภิเษก - ปากซอยข้างศาลอาญา	13.810199	100.575098	bma	working	2022-07-09T00:00:00	7:00:00	8:00:00	59	196	3317	3600	0.92
5030	TF2-JJ-S66-04 ถ.รัชดาภิเษก - ปากซอยข้างศาลอาญา	13.810199	100.575098	bma	working	2022-07-09T00:00:00	8:00:00	9:00:00	30	201	3543	3600	0.98
5031	TF2-JJ-S66-04 ถ.รัชดาภิเษก - ปากซอยข้างศาลอาญา	13.810199	100.575098	bma	working	2022-07-09T00:00:00	9:00:00	10:00:00	31	201	3422	3600	0.95
5032	TF2-JJ-S66-04 ถ.รัชดาภิเษก - ปากซอยข้างศาลอาญา	13.810199	100.575098	bma	working	2022-07-09T00:00:00	10:00:00	11:00:00	27	201	3443	3600	0.96
5033	TF2-JJ-S66-04 ถ.รัชดาภิเษก - ปากซอยข้างศาลอาญา	13.810199	100.575098	bma	working	2022-07-09T00:00:00	11:00:00	12:00:00	53	202	3403	3600	0.95
5034	TF2-JJ-S66-04 ถ.รัชดาภิเษก - ปากซอยข้างศาลอาญา	13.810199	100.575098	bma	working	2022-07-09T00:00:00	12:00:00	13:00:00	29	201	3315	3600	0.92
5035	TF2-JJ-S66-04 ถ.รัชดาภิเษก - ปากซอยข้างศาลอาญา	13.810199	100.575098	bma	working	2022-07-09T00:00:00	13:00:00	14:00:00	28	201	3370	3600	0.94
5036	TF2-JJ-S66-04 ถ.รัชดาภิเษก - ปากซอยข้างศาลอาญา	13.810199	100.575098	bma	working	2022-07-09T00:00:00	14:00:00	15:00:00	27	202	3281	3600	0.91
5037	TF2-JJ-S66-04 ถ.รัชดาภิเษก - ปากซอยข้างศาลอาญา	13.810199	100.575098	bma	working	2022-07-09T00:00:00	15:00:00	16:00:00	28	201	3363	3600	0.93
5038	TF2-JJ-S66-04 ถ.รัชดาภิเษก - ปากซอยข้างศาลอาญา	13.810199	100.575098	bma	working	2022-07-09T00:00:00	16:00:00	17:00:00	52	179	2355	3600	0.65
5039	TF2-JJ-S66-04 ถ.รัชดาภิเษก - ปากซอยข้างศาลอาญา	13.810199	100.575098	bma	working	2022-07-09T00:00:00	17:00:00	18:00:00	44	201	4126	3600	1.15
5040	TF2-JJ-S66-04 ถ.รัชดาภิเษก - ปากซอยข้างศาลอาญา	13.810199	100.575098	bma	working	2022-07-09T00:00:00	18:00:00	19:00:00	57	202	1682	3600	0.47
5041	TF2-JJ-S66-04 ถ.รัชดาภิเษก - ปากซอยข้างศาลอาญา	13.810199	100.575098	bma	working	2022-08-09T00:00:00	5:00:00	6:00:00	78	63	470	3600	0.13
5042	TF2-JJ-S66-04 ถ.รัชดาภิเษก - ปากซอยข้างศาลอาญา	13.810199	100.575098	bma	working	2022-08-09T00:00:00	6:00:00	7:00:00	56	201	1447	3600	0.40
5043	TF2-JJ-S66-04 ถ.รัชดาภิเษก - ปากซอยข้างศาลอาญา	13.810199	100.575098	bma	working	2022-08-09T00:00:00	7:00:00	8:00:00	63	202	3297	3600	0.92
5044	TF2-JJ-S66-04 ถ.รัชดาภิเษก - ปากซอยข้างศาลอาญา	13.810199	100.575098	bma	working	2022-08-09T00:00:00	8:00:00	9:00:00	42	202	3599	3600	1.00
5045	TF2-JJ-S66-04 ถ.รัชดาภิเษก - ปากซอยข้างศาลอาญา	13.810199	100.575098	bma	working	2022-08-09T00:00:00	9:00:00	10:00:00	35	201	3536	3600	0.98
5046	TF2-JJ-S66-04 ถ.รัชดาภิเษก - ปากซอยข้างศาลอาญา	13.810199	100.575098	bma	working	2022-08-09T00:00:00	10:00:00	11:00:00	35	201	3600	3600	1.00
5047	TF2-JJ-S66-04 ถ.รัชดาภิเษก - ปากซอยข้างศาลอาญา	13.810199	100.575098	bma	working	2022-08-09T00:00:00	11:00:00	12:00:00	59	201	3140	3600	0.87
5048	TF2-JJ-S66-04 ถ.รัชดาภิเษก - ปากซอยข้างศาลอาญา	13.810199	100.575098	bma	working	2022-08-09T00:00:00	12:00:00	13:00:00	39	201	3337	3600	0.93
5049	TF2-JJ-S66-04 ถ.รัชดาภิเษก - ปากซอยข้างศาลอาญา	13.810199	100.575098	bma	working	2022-08-09T00:00:00	13:00:00	14:00:00	39	201	3383	3600	0.94
5050	TF2-JJ-S66-04 ถ.รัชดาภิเษก - ปากซอยข้างศาลอาญา	13.810199	100.575098	bma	working	2022-08-09T00:00:00	14:00:00	15:00:00	39	202	3382	3600	0.94
5051	TF2-JJ-S66-04 ถ.รัชดาภิเษก - ปากซอยข้างศาลอาญา	13.810199	100.575098	bma	working	2022-08-09T00:00:00	15:00:00	16:00:00	40	201	3372	3600	0.94
5052	TF2-JJ-S66-04 ถ.รัชดาภิเษก - ปากซอยข้างศาลอาญา	13.810199	100.575098	bma	working	2022-08-09T00:00:00	16:00:00	17:00:00	56	175	2214	3600	0.62
5053	TF2-JJ-S66-04 ถ.รัชดาภิเษก - ปากซอยข้างศาลอาญา	13.810199	100.575098	bma	working	2022-08-09T00:00:00	17:00:00	18:00:00	60	202	3189	3600	0.89
5054	TF2-JJ-S66-04 ถ.รัชดาภิเษก - ปากซอยข้างศาลอาญา	13.810199	100.575098	bma	working	2022-08-09T00:00:00	18:00:00	19:00:00	60	202	2207	3600	0.61
5055	TF2-JJ-S66-04 ถ.รัชดาภิเษก - ปากซอยข้างศาลอาญา	13.810199	100.575098	bma	working	2022-09-09T00:00:00	5:00:00	6:00:00	97	62	552	3600	0.15
5056	TF2-JJ-S66-04 ถ.รัชดาภิเษก - ปากซอยข้างศาลอาญา	13.810199	100.575098	bma	working	2022-09-09T00:00:00	6:00:00	7:00:00	68	202	1558	3600	0.43
5057	TF2-JJ-S66-04 ถ.รัชดาภิเษก - ปากซอยข้างศาลอาญา	13.810199	100.575098	bma	working	2022-09-09T00:00:00	7:00:00	8:00:00	68	202	3349	3600	0.93
5058	TF2-JJ-S66-04 ถ.รัชดาภิเษก - ปากซอยข้างศาลอาญา	13.810199	100.575098	bma	working	2022-09-09T00:00:00	8:00:00	9:00:00	50	202	3581	3600	0.99
5059	TF2-JJ-S66-04 ถ.รัชดาภิเษก - ปากซอยข้างศาลอาญา	13.810199	100.575098	bma	working	2022-09-09T00:00:00	9:00:00	10:00:00	47	202	3558	3600	0.99
5060	TF2-JJ-S66-04 ถ.รัชดาภิเษก - ปากซอยข้างศาลอาญา	13.810199	100.575098	bma	working	2022-09-09T00:00:00	10:00:00	11:00:00	44	202	3561	3600	0.99
5061	TF2-JJ-S66-04 ถ.รัชดาภิเษก - ปากซอยข้างศาลอาญา	13.810199	100.575098	bma	working	2022-09-09T00:00:00	11:00:00	12:00:00	65	202	2830	3600	0.79
5062	TF2-JJ-S66-04 ถ.รัชดาภิเษก - ปากซอยข้างศาลอาญา	13.810199	100.575098	bma	working	2022-09-09T00:00:00	12:00:00	13:00:00	50	202	3402	3600	0.95
5063	TF2-JJ-S66-04 ถ.รัชดาภิเษก - ปากซอยข้างศาลอาญา	13.810199	100.575098	bma	working	2022-09-09T00:00:00	13:00:00	14:00:00	50	202	3425	3600	0.95
5064	TF2-JJ-S66-04 ถ.รัชดาภิเษก - ปากซอยข้างศาลอาญา	13.810199	100.575098	bma	working	2022-09-09T00:00:00	14:00:00	15:00:00	48	201	3485	3600	0.97
5065	TF2-JJ-S66-04 ถ.รัชดาภิเษก - ปากซอยข้างศาลอาญา	13.810199	100.575098	bma	working	2022-09-09T00:00:00	15:00:00	16:00:00	51	201	3416	3600	0.95
5066	TF2-JJ-S66-04 ถ.รัชดาภิเษก - ปากซอยข้างศาลอาญา	13.810199	100.575098	bma	working	2022-09-09T00:00:00	16:00:00	17:00:00	53	167	1968	3600	0.55
5067	TF2-JJ-S66-04 ถ.รัชดาภิเษก - ปากซอยข้างศาลอาญา	13.810199	100.575098	bma	working	2022-09-09T00:00:00	17:00:00	18:00:00	70	186	2323	3600	0.65
5068	TF2-JJ-S66-04 ถ.รัชดาภิเษก - ปากซอยข้างศาลอาญา	13.810199	100.575098	bma	working	2022-09-09T00:00:00	18:00:00	19:00:00	64	201	2692	3600	0.75
5069	TF2-JJ-S66-04 ถ.รัชดาภิเษก - ปากซอยข้างศาลอาญา	13.810199	100.575098	bma	working	2022-10-09T00:00:00	5:00:00	6:00:00	118	48	401	3600	0.11
5070	TF2-JJ-S66-04 ถ.รัชดาภิเษก - ปากซอยข้างศาลอาญา	13.810199	100.575098	bma	holiday	2022-10-09T00:00:00	6:00:00	7:00:00	82	158	1132	3600	0.31
5071	TF2-JJ-S66-04 ถ.รัชดาภิเษก - ปากซอยข้างศาลอาญา	13.810199	100.575098	bma	holiday	2022-10-09T00:00:00	7:00:00	8:00:00	73	172	2028	3600	0.56
5072	TF2-JJ-S66-04 ถ.รัชดาภิเษก - ปากซอยข้างศาลอาญา	13.810199	100.575098	bma	holiday	2022-10-09T00:00:00	8:00:00	9:00:00	64	202	2722	3600	0.76
5073	TF2-JJ-S66-04 ถ.รัชดาภิเษก - ปากซอยข้างศาลอาญา	13.810199	100.575098	bma	working	2022-10-09T00:00:00	9:00:00	10:00:00	60	202	2507	3600	0.70
5074	TF2-JJ-S66-04 ถ.รัชดาภิเษก - ปากซอยข้างศาลอาญา	13.810199	100.575098	bma	working	2022-10-09T00:00:00	10:00:00	11:00:00	64	202	2600	3600	0.72
5075	TF2-JJ-S66-04 ถ.รัชดาภิเษก - ปากซอยข้างศาลอาญา	13.810199	100.575098	bma	holiday	2022-10-09T00:00:00	11:00:00	12:00:00	69	202	2695	3600	0.75
5076	TF2-JJ-S66-04 ถ.รัชดาภิเษก - ปากซอยข้างศาลอาญา	13.810199	100.575098	bma	working	2022-10-09T00:00:00	12:00:00	13:00:00	64	202	2506	3600	0.70
5077	TF2-JJ-S66-04 ถ.รัชดาภิเษก - ปากซอยข้างศาลอาญา	13.810199	100.575098	bma	working	2022-10-09T00:00:00	13:00:00	14:00:00	60	202	2533	3600	0.70
5078	TF2-JJ-S66-04 ถ.รัชดาภิเษก - ปากซอยข้างศาลอาญา	13.810199	100.575098	bma	working	2022-10-09T00:00:00	14:00:00	15:00:00	64	201	2505	3600	0.70
5079	TF2-JJ-S66-04 ถ.รัชดาภิเษก - ปากซอยข้างศาลอาญา	13.810199	100.575098	bma	working	2022-10-09T00:00:00	15:00:00	16:00:00	60	201	2451	3600	0.68
5080	TF2-JJ-S66-04 ถ.รัชดาภิเษก - ปากซอยข้างศาลอาญา	13.810199	100.575098	bma	holiday	2022-10-09T00:00:00	16:00:00	17:00:00	64	173	2737	3600	0.76
5081	TF2-JJ-S66-04 ถ.รัชดาภิเษก - ปากซอยข้างศาลอาญา	13.810199	100.575098	bma	holiday	2022-10-09T00:00:00	17:00:00	18:00:00	61	142	2342	3600	0.65
5082	TF2-JJ-S66-04 ถ.รัชดาภิเษก - ปากซอยข้างศาลอาญา	13.810199	100.575098	bma	holiday	2022-10-09T00:00:00	18:00:00	19:00:00	47	200	2350	3600	0.65
5083	TF2-JJ-S66-04 ถ.รัชดาภิเษก - ปากซอยข้างศาลอาญา	13.810199	100.575098	bma	working	2022-11-09T00:00:00	5:00:00	6:00:00	73	33	263	3600	0.07
5084	TF2-JJ-S66-04 ถ.รัชดาภิเษก - ปากซอยข้างศาลอาญา	13.810199	100.575098	bma	holiday	2022-11-09T00:00:00	6:00:00	7:00:00	51	97	694	3600	0.19
5085	TF2-JJ-S66-04 ถ.รัชดาภิเษก - ปากซอยข้างศาลอาญา	13.810199	100.575098	bma	holiday	2022-11-09T00:00:00	7:00:00	8:00:00	44	103	1270	3600	0.35
5086	TF2-JJ-S66-04 ถ.รัชดาภิเษก - ปากซอยข้างศาลอาญา	13.810199	100.575098	bma	holiday	2022-11-09T00:00:00	8:00:00	9:00:00	38	134	1695	3600	0.47
5087	TF2-JJ-S66-04 ถ.รัชดาภิเษก - ปากซอยข้างศาลอาญา	13.810199	100.575098	bma	working	2022-11-09T00:00:00	9:00:00	10:00:00	36	136	1533	3600	0.43
5088	TF2-JJ-S66-04 ถ.รัชดาภิเษก - ปากซอยข้างศาลอาญา	13.810199	100.575098	bma	working	2022-11-09T00:00:00	10:00:00	11:00:00	37	133	1596	3600	0.44
5089	TF2-JJ-S66-04 ถ.รัชดาภิเษก - ปากซอยข้างศาลอาญา	13.810199	100.575098	bma	holiday	2022-11-09T00:00:00	11:00:00	12:00:00	42	139	1683	3600	0.47
5090	TF2-JJ-S66-04 ถ.รัชดาภิเษก - ปากซอยข้างศาลอาญา	13.810199	100.575098	bma	working	2022-11-09T00:00:00	12:00:00	13:00:00	36	133	1533	3600	0.43
5091	TF2-JJ-S66-04 ถ.รัชดาภิเษก - ปากซอยข้างศาลอาญา	13.810199	100.575098	bma	working	2022-11-09T00:00:00	13:00:00	14:00:00	38	133	1562	3600	0.43
5092	TF2-JJ-S66-04 ถ.รัชดาภิเษก - ปากซอยข้างศาลอาญา	13.810199	100.575098	bma	working	2022-11-09T00:00:00	14:00:00	15:00:00	37	133	1528	3600	0.42
5093	TF2-JJ-S66-04 ถ.รัชดาภิเษก - ปากซอยข้างศาลอาญา	13.810199	100.575098	bma	working	2022-11-09T00:00:00	15:00:00	16:00:00	37	133	1514	3600	0.42
5094	TF2-JJ-S66-04 ถ.รัชดาภิเษก - ปากซอยข้างศาลอาญา	13.810199	100.575098	bma	holiday	2022-11-09T00:00:00	16:00:00	17:00:00	40	102	1769	3600	0.49
5095	TF2-JJ-S66-04 ถ.รัชดาภิเษก - ปากซอยข้างศาลอาญา	13.810199	100.575098	bma	holiday	2022-11-09T00:00:00	17:00:00	18:00:00	38	85	1379	3600	0.38
5096	TF2-JJ-S66-04 ถ.รัชดาภิเษก - ปากซอยข้างศาลอาญา	13.810199	100.575098	bma	holiday	2022-11-09T00:00:00	18:00:00	19:00:00	29	118	1531	3600	0.43
5097	TF2-JJ-S7-02 ถ.พหลโยธิน - ถ.รัชดาภิเษก	13.826893	100.568133	bma	working	2022-05-09T00:00:00	5:00:00	6:00:00	10	28	131	3600	0.04
5098	TF2-JJ-S7-02 ถ.พหลโยธิน - ถ.รัชดาภิเษก	13.826893	100.568133	bma	working	2022-05-09T00:00:00	6:00:00	7:00:00	8	90	331	3600	0.09
5099	TF2-JJ-S7-02 ถ.พหลโยธิน - ถ.รัชดาภิเษก	13.826893	100.568133	bma	working	2022-05-09T00:00:00	7:00:00	8:00:00	26	201	838	3600	0.23
5100	TF2-JJ-S7-02 ถ.พหลโยธิน - ถ.รัชดาภิเษก	13.826893	100.568133	bma	working	2022-05-09T00:00:00	8:00:00	9:00:00	17	202	755	3600	0.21
5101	TF2-JJ-S7-02 ถ.พหลโยธิน - ถ.รัชดาภิเษก	13.826893	100.568133	bma	working	2022-05-09T00:00:00	9:00:00	10:00:00	13	202	698	3600	0.19
5102	TF2-JJ-S7-02 ถ.พหลโยธิน - ถ.รัชดาภิเษก	13.826893	100.568133	bma	working	2022-05-09T00:00:00	10:00:00	11:00:00	16	201	787	3600	0.22
5103	TF2-JJ-S7-02 ถ.พหลโยธิน - ถ.รัชดาภิเษก	13.826893	100.568133	bma	working	2022-05-09T00:00:00	11:00:00	12:00:00	23	88	472	3600	0.13
5104	TF2-JJ-S7-02 ถ.พหลโยธิน - ถ.รัชดาภิเษก	13.826893	100.568133	bma	working	2022-05-09T00:00:00	12:00:00	13:00:00	17	202	570	3600	0.16
5105	TF2-JJ-S7-02 ถ.พหลโยธิน - ถ.รัชดาภิเษก	13.826893	100.568133	bma	working	2022-05-09T00:00:00	13:00:00	14:00:00	16	202	603	3600	0.17
5106	TF2-JJ-S7-02 ถ.พหลโยธิน - ถ.รัชดาภิเษก	13.826893	100.568133	bma	working	2022-05-09T00:00:00	14:00:00	15:00:00	14	202	668	3600	0.19
5107	TF2-JJ-S7-02 ถ.พหลโยธิน - ถ.รัชดาภิเษก	13.826893	100.568133	bma	working	2022-05-09T00:00:00	15:00:00	16:00:00	13	202	629	3600	0.17
5108	TF2-JJ-S7-02 ถ.พหลโยธิน - ถ.รัชดาภิเษก	13.826893	100.568133	bma	working	2022-05-09T00:00:00	16:00:00	17:00:00	19	201	2271	3600	0.63
5109	TF2-JJ-S7-02 ถ.พหลโยธิน - ถ.รัชดาภิเษก	13.826893	100.568133	bma	working	2022-05-09T00:00:00	17:00:00	18:00:00	52	202	669	3600	0.19
5110	TF2-JJ-S7-02 ถ.พหลโยธิน - ถ.รัชดาภิเษก	13.826893	100.568133	bma	working	2022-05-09T00:00:00	18:00:00	19:00:00	32	201	561	3600	0.16
5111	TF2-JJ-S7-02 ถ.พหลโยธิน - ถ.รัชดาภิเษก	13.826893	100.568133	bma	working	2022-06-09T00:00:00	5:00:00	6:00:00	23	65	275	3600	0.08
5112	TF2-JJ-S7-02 ถ.พหลโยธิน - ถ.รัชดาภิเษก	13.826893	100.568133	bma	working	2022-06-09T00:00:00	6:00:00	7:00:00	17	201	784	3600	0.22
5113	TF2-JJ-S7-02 ถ.พหลโยธิน - ถ.รัชดาภิเษก	13.826893	100.568133	bma	working	2022-06-09T00:00:00	7:00:00	8:00:00	27	201	827	3600	0.23
5114	TF2-JJ-S7-02 ถ.พหลโยธิน - ถ.รัชดาภิเษก	13.826893	100.568133	bma	working	2022-06-09T00:00:00	8:00:00	9:00:00	19	201	739	3600	0.21
5115	TF2-JJ-S7-02 ถ.พหลโยธิน - ถ.รัชดาภิเษก	13.826893	100.568133	bma	working	2022-06-09T00:00:00	9:00:00	10:00:00	17	202	651	3600	0.18
5116	TF2-JJ-S7-02 ถ.พหลโยธิน - ถ.รัชดาภิเษก	13.826893	100.568133	bma	working	2022-06-09T00:00:00	10:00:00	11:00:00	16	202	647	3600	0.18
5117	TF2-JJ-S7-02 ถ.พหลโยธิน - ถ.รัชดาภิเษก	13.826893	100.568133	bma	working	2022-06-09T00:00:00	11:00:00	12:00:00	25	126	1027	3600	0.29
5118	TF2-JJ-S7-02 ถ.พหลโยธิน - ถ.รัชดาภิเษก	13.826893	100.568133	bma	working	2022-06-09T00:00:00	12:00:00	13:00:00	15	202	623	3600	0.17
5119	TF2-JJ-S7-02 ถ.พหลโยธิน - ถ.รัชดาภิเษก	13.826893	100.568133	bma	working	2022-06-09T00:00:00	13:00:00	14:00:00	17	202	615	3600	0.17
5120	TF2-JJ-S7-02 ถ.พหลโยธิน - ถ.รัชดาภิเษก	13.826893	100.568133	bma	working	2022-06-09T00:00:00	14:00:00	15:00:00	13	202	636	3600	0.18
5121	TF2-JJ-S7-02 ถ.พหลโยธิน - ถ.รัชดาภิเษก	13.826893	100.568133	bma	working	2022-06-09T00:00:00	15:00:00	16:00:00	19	201	619	3600	0.17
5122	TF2-JJ-S7-02 ถ.พหลโยธิน - ถ.รัชดาภิเษก	13.826893	100.568133	bma	working	2022-06-09T00:00:00	16:00:00	17:00:00	19	202	1557	3600	0.43
5123	TF2-JJ-S7-02 ถ.พหลโยธิน - ถ.รัชดาภิเษก	13.826893	100.568133	bma	working	2022-06-09T00:00:00	17:00:00	18:00:00	41	201	742	3600	0.21
5124	TF2-JJ-S7-02 ถ.พหลโยธิน - ถ.รัชดาภิเษก	13.826893	100.568133	bma	working	2022-06-09T00:00:00	18:00:00	19:00:00	25	202	1559	3600	0.43
5125	TF2-JJ-S7-02 ถ.พหลโยธิน - ถ.รัชดาภิเษก	13.826893	100.568133	bma	working	2022-07-09T00:00:00	5:00:00	6:00:00	35	70	432	3600	0.12
5126	TF2-JJ-S7-02 ถ.พหลโยธิน - ถ.รัชดาภิเษก	13.826893	100.568133	bma	working	2022-07-09T00:00:00	6:00:00	7:00:00	25	202	1295	3600	0.36
5127	TF2-JJ-S7-02 ถ.พหลโยธิน - ถ.รัชดาภิเษก	13.826893	100.568133	bma	working	2022-07-09T00:00:00	7:00:00	8:00:00	33	201	848	3600	0.24
5128	TF2-JJ-S7-02 ถ.พหลโยธิน - ถ.รัชดาภิเษก	13.826893	100.568133	bma	working	2022-07-09T00:00:00	8:00:00	9:00:00	20	202	706	3600	0.20
5129	TF2-JJ-S7-02 ถ.พหลโยธิน - ถ.รัชดาภิเษก	13.826893	100.568133	bma	working	2022-07-09T00:00:00	9:00:00	10:00:00	17	201	589	3600	0.16
5130	TF2-JJ-S7-02 ถ.พหลโยธิน - ถ.รัชดาภิเษก	13.826893	100.568133	bma	working	2022-07-09T00:00:00	10:00:00	11:00:00	18	202	690	3600	0.19
5131	TF2-JJ-S7-02 ถ.พหลโยธิน - ถ.รัชดาภิเษก	13.826893	100.568133	bma	working	2022-07-09T00:00:00	11:00:00	12:00:00	22	156	1607	3600	0.45
5132	TF2-JJ-S7-02 ถ.พหลโยธิน - ถ.รัชดาภิเษก	13.826893	100.568133	bma	working	2022-07-09T00:00:00	12:00:00	13:00:00	13	202	644	3600	0.18
5133	TF2-JJ-S7-02 ถ.พหลโยธิน - ถ.รัชดาภิเษก	13.826893	100.568133	bma	working	2022-07-09T00:00:00	13:00:00	14:00:00	15	201	610	3600	0.17
5134	TF2-JJ-S7-02 ถ.พหลโยธิน - ถ.รัชดาภิเษก	13.826893	100.568133	bma	working	2022-07-09T00:00:00	14:00:00	15:00:00	16	201	612	3600	0.17
5135	TF2-JJ-S7-02 ถ.พหลโยธิน - ถ.รัชดาภิเษก	13.826893	100.568133	bma	working	2022-07-09T00:00:00	15:00:00	16:00:00	20	201	594	3600	0.17
5136	TF2-JJ-S7-02 ถ.พหลโยธิน - ถ.รัชดาภิเษก	13.826893	100.568133	bma	working	2022-07-09T00:00:00	16:00:00	17:00:00	15	202	828	3600	0.23
5137	TF2-JJ-S7-02 ถ.พหลโยธิน - ถ.รัชดาภิเษก	13.826893	100.568133	bma	working	2022-07-09T00:00:00	17:00:00	18:00:00	25	85	843	3600	0.23
5138	TF2-JJ-S7-02 ถ.พหลโยธิน - ถ.รัชดาภิเษก	13.826893	100.568133	bma	working	2022-07-09T00:00:00	18:00:00	19:00:00	13	201	2509	3600	0.70
5139	TF2-JJ-S7-02 ถ.พหลโยธิน - ถ.รัชดาภิเษก	13.826893	100.568133	bma	working	2022-08-09T00:00:00	5:00:00	6:00:00	28	67	277	3600	0.08
5140	TF2-JJ-S7-02 ถ.พหลโยธิน - ถ.รัชดาภิเษก	13.826893	100.568133	bma	working	2022-08-09T00:00:00	6:00:00	7:00:00	20	202	760	3600	0.21
5141	TF2-JJ-S7-02 ถ.พหลโยธิน - ถ.รัชดาภิเษก	13.826893	100.568133	bma	working	2022-08-09T00:00:00	7:00:00	8:00:00	22	201	828	3600	0.23
5142	TF2-JJ-S7-02 ถ.พหลโยธิน - ถ.รัชดาภิเษก	13.826893	100.568133	bma	working	2022-08-09T00:00:00	8:00:00	9:00:00	18	202	1357	3600	0.38
5143	TF2-JJ-S7-02 ถ.พหลโยธิน - ถ.รัชดาภิเษก	13.826893	100.568133	bma	working	2022-08-09T00:00:00	9:00:00	10:00:00	14	202	1284	3600	0.36
5144	TF2-JJ-S7-02 ถ.พหลโยธิน - ถ.รัชดาภิเษก	13.826893	100.568133	bma	working	2022-08-09T00:00:00	10:00:00	11:00:00	11	202	1322	3600	0.37
5145	TF2-JJ-S7-02 ถ.พหลโยธิน - ถ.รัชดาภิเษก	13.826893	100.568133	bma	working	2022-08-09T00:00:00	11:00:00	12:00:00	29	202	1143	3600	0.32
5146	TF2-JJ-S7-02 ถ.พหลโยธิน - ถ.รัชดาภิเษก	13.826893	100.568133	bma	working	2022-08-09T00:00:00	12:00:00	13:00:00	11	201	1311	3600	0.36
5147	TF2-JJ-S7-02 ถ.พหลโยธิน - ถ.รัชดาภิเษก	13.826893	100.568133	bma	working	2022-08-09T00:00:00	13:00:00	14:00:00	13	201	1238	3600	0.34
5148	TF2-JJ-S7-02 ถ.พหลโยธิน - ถ.รัชดาภิเษก	13.826893	100.568133	bma	working	2022-08-09T00:00:00	14:00:00	15:00:00	17	202	1208	3600	0.34
5149	TF2-JJ-S7-02 ถ.พหลโยธิน - ถ.รัชดาภิเษก	13.826893	100.568133	bma	working	2022-08-09T00:00:00	15:00:00	16:00:00	18	202	1248	3600	0.35
5150	TF2-JJ-S7-02 ถ.พหลโยธิน - ถ.รัชดาภิเษก	13.826893	100.568133	bma	working	2022-08-09T00:00:00	16:00:00	17:00:00	21	202	864	3600	0.24
5151	TF2-JJ-S7-02 ถ.พหลโยธิน - ถ.รัชดาภิเษก	13.826893	100.568133	bma	working	2022-08-09T00:00:00	17:00:00	18:00:00	21	201	952	3600	0.26
5152	TF2-JJ-S7-02 ถ.พหลโยธิน - ถ.รัชดาภิเษก	13.826893	100.568133	bma	working	2022-08-09T00:00:00	18:00:00	19:00:00	11	201	2521	3600	0.70
5153	TF2-JJ-S7-02 ถ.พหลโยธิน - ถ.รัชดาภิเษก	13.826893	100.568133	bma	working	2022-09-09T00:00:00	5:00:00	6:00:00	30	13	85	3600	0.02
5154	TF2-JJ-S7-02 ถ.พหลโยธิน - ถ.รัชดาภิเษก	13.826893	100.568133	bma	working	2022-09-09T00:00:00	6:00:00	7:00:00	21	40	231	3600	0.06
5155	TF2-JJ-S7-02 ถ.พหลโยธิน - ถ.รัชดาภิเษก	13.826893	100.568133	bma	working	2022-09-09T00:00:00	7:00:00	8:00:00	18	160	886	3600	0.25
5156	TF2-JJ-S7-02 ถ.พหลโยธิน - ถ.รัชดาภิเษก	13.826893	100.568133	bma	working	2022-09-09T00:00:00	8:00:00	9:00:00	13	202	1951	3600	0.54
5157	TF2-JJ-S7-02 ถ.พหลโยธิน - ถ.รัชดาภิเษก	13.826893	100.568133	bma	working	2022-09-09T00:00:00	9:00:00	10:00:00	15	201	1973	3600	0.55
5158	TF2-JJ-S7-02 ถ.พหลโยธิน - ถ.รัชดาภิเษก	13.826893	100.568133	bma	working	2022-09-09T00:00:00	10:00:00	11:00:00	8	202	1967	3600	0.55
5159	TF2-JJ-S7-02 ถ.พหลโยธิน - ถ.รัชดาภิเษก	13.826893	100.568133	bma	working	2022-09-09T00:00:00	11:00:00	12:00:00	31	202	695	3600	0.19
5160	TF2-JJ-S7-02 ถ.พหลโยธิน - ถ.รัชดาภิเษก	13.826893	100.568133	bma	working	2022-09-09T00:00:00	12:00:00	13:00:00	11	201	1945	3600	0.54
5161	TF2-JJ-S7-02 ถ.พหลโยธิน - ถ.รัชดาภิเษก	13.826893	100.568133	bma	working	2022-09-09T00:00:00	13:00:00	14:00:00	14	202	1843	3600	0.51
5162	TF2-JJ-S7-02 ถ.พหลโยธิน - ถ.รัชดาภิเษก	13.826893	100.568133	bma	working	2022-09-09T00:00:00	14:00:00	15:00:00	13	201	1869	3600	0.52
5163	TF2-JJ-S7-02 ถ.พหลโยธิน - ถ.รัชดาภิเษก	13.826893	100.568133	bma	working	2022-09-09T00:00:00	15:00:00	16:00:00	11	201	1901	3600	0.53
5164	TF2-JJ-S7-02 ถ.พหลโยธิน - ถ.รัชดาภิเษก	13.826893	100.568133	bma	working	2022-09-09T00:00:00	16:00:00	17:00:00	25	201	906	3600	0.25
5165	TF2-JJ-S7-02 ถ.พหลโยธิน - ถ.รัชดาภิเษก	13.826893	100.568133	bma	working	2022-09-09T00:00:00	17:00:00	18:00:00	17	202	1057	3600	0.29
5166	TF2-JJ-S7-02 ถ.พหลโยธิน - ถ.รัชดาภิเษก	13.826893	100.568133	bma	working	2022-09-09T00:00:00	18:00:00	19:00:00	14	202	2594	3600	0.72
5167	TF2-JJ-S7-02 ถ.พหลโยธิน - ถ.รัชดาภิเษก	13.826893	100.568133	bma	working	2022-10-09T00:00:00	5:00:00	6:00:00	47	28	121	3600	0.03
5168	TF2-JJ-S7-02 ถ.พหลโยธิน - ถ.รัชดาภิเษก	13.826893	100.568133	bma	holiday	2022-10-09T00:00:00	6:00:00	7:00:00	33	83	314	3600	0.09
5169	TF2-JJ-S7-02 ถ.พหลโยธิน - ถ.รัชดาภิเษก	13.826893	100.568133	bma	holiday	2022-10-09T00:00:00	7:00:00	8:00:00	20	201	529	3600	0.15
5170	TF2-JJ-S7-02 ถ.พหลโยธิน - ถ.รัชดาภิเษก	13.826893	100.568133	bma	holiday	2022-10-09T00:00:00	8:00:00	9:00:00	20	166	825	3600	0.23
5171	TF2-JJ-S7-02 ถ.พหลโยธิน - ถ.รัชดาภิเษก	13.826893	100.568133	bma	working	2022-10-09T00:00:00	9:00:00	10:00:00	16	165	637	3600	0.18
5172	TF2-JJ-S7-02 ถ.พหลโยธิน - ถ.รัชดาภิเษก	13.826893	100.568133	bma	working	2022-10-09T00:00:00	10:00:00	11:00:00	19	160	699	3600	0.19
5173	TF2-JJ-S7-02 ถ.พหลโยธิน - ถ.รัชดาภิเษก	13.826893	100.568133	bma	holiday	2022-10-09T00:00:00	11:00:00	12:00:00	18	117	652	3600	0.18
5174	TF2-JJ-S7-02 ถ.พหลโยธิน - ถ.รัชดาภิเษก	13.826893	100.568133	bma	working	2022-10-09T00:00:00	12:00:00	13:00:00	17	163	711	3600	0.20
5175	TF2-JJ-S7-02 ถ.พหลโยธิน - ถ.รัชดาภิเษก	13.826893	100.568133	bma	working	2022-10-09T00:00:00	13:00:00	14:00:00	15	161	714	3600	0.20
5176	TF2-JJ-S7-02 ถ.พหลโยธิน - ถ.รัชดาภิเษก	13.826893	100.568133	bma	working	2022-10-09T00:00:00	14:00:00	15:00:00	13	163	608	3600	0.17
5177	TF2-JJ-S7-02 ถ.พหลโยธิน - ถ.รัชดาภิเษก	13.826893	100.568133	bma	working	2022-10-09T00:00:00	15:00:00	16:00:00	16	163	624	3600	0.17
5178	TF2-JJ-S7-02 ถ.พหลโยธิน - ถ.รัชดาภิเษก	13.826893	100.568133	bma	holiday	2022-10-09T00:00:00	16:00:00	17:00:00	23	135	987	3600	0.27
5179	TF2-JJ-S7-02 ถ.พหลโยธิน - ถ.รัชดาภิเษก	13.826893	100.568133	bma	holiday	2022-10-09T00:00:00	17:00:00	18:00:00	16	202	988	3600	0.27
5180	TF2-JJ-S7-02 ถ.พหลโยธิน - ถ.รัชดาภิเษก	13.826893	100.568133	bma	holiday	2022-10-09T00:00:00	18:00:00	19:00:00	23	201	895	3600	0.25
5181	TF2-JJ-S7-02 ถ.พหลโยธิน - ถ.รัชดาภิเษก	13.826893	100.568133	bma	working	2022-11-09T00:00:00	5:00:00	6:00:00	25	17	64	3600	0.02
5182	TF2-JJ-S7-02 ถ.พหลโยธิน - ถ.รัชดาภิเษก	13.826893	100.568133	bma	holiday	2022-11-09T00:00:00	6:00:00	7:00:00	18	49	184	3600	0.05
5183	TF2-JJ-S7-02 ถ.พหลโยธิน - ถ.รัชดาภิเษก	13.826893	100.568133	bma	holiday	2022-11-09T00:00:00	7:00:00	8:00:00	15	131	342	3600	0.10
5184	TF2-JJ-S7-02 ถ.พหลโยธิน - ถ.รัชดาภิเษก	13.826893	100.568133	bma	holiday	2022-11-09T00:00:00	8:00:00	9:00:00	10	97	486	3600	0.14
5185	TF2-JJ-S7-02 ถ.พหลโยธิน - ถ.รัชดาภิเษก	13.826893	100.568133	bma	working	2022-11-09T00:00:00	9:00:00	10:00:00	11	97	402	3600	0.11
5186	TF2-JJ-S7-02 ถ.พหลโยธิน - ถ.รัชดาภิเษก	13.826893	100.568133	bma	working	2022-11-09T00:00:00	10:00:00	11:00:00	12	95	427	3600	0.12
5187	TF2-JJ-S7-02 ถ.พหลโยธิน - ถ.รัชดาภิเษก	13.826893	100.568133	bma	holiday	2022-11-09T00:00:00	11:00:00	12:00:00	10	70	418	3600	0.12
5188	TF2-JJ-S7-02 ถ.พหลโยธิน - ถ.รัชดาภิเษก	13.826893	100.568133	bma	working	2022-11-09T00:00:00	12:00:00	13:00:00	9	95	462	3600	0.13
5189	TF2-JJ-S7-02 ถ.พหลโยธิน - ถ.รัชดาภิเษก	13.826893	100.568133	bma	working	2022-11-09T00:00:00	13:00:00	14:00:00	6	98	419	3600	0.12
5190	TF2-JJ-S7-02 ถ.พหลโยธิน - ถ.รัชดาภิเษก	13.826893	100.568133	bma	working	2022-11-09T00:00:00	14:00:00	15:00:00	11	96	388	3600	0.11
5191	TF2-JJ-S7-02 ถ.พหลโยธิน - ถ.รัชดาภิเษก	13.826893	100.568133	bma	working	2022-11-09T00:00:00	15:00:00	16:00:00	12	100	370	3600	0.10
5192	TF2-JJ-S7-02 ถ.พหลโยธิน - ถ.รัชดาภิเษก	13.826893	100.568133	bma	holiday	2022-11-09T00:00:00	16:00:00	17:00:00	15	83	593	3600	0.16
5193	TF2-JJ-S7-02 ถ.พหลโยธิน - ถ.รัชดาภิเษก	13.826893	100.568133	bma	holiday	2022-11-09T00:00:00	17:00:00	18:00:00	8	201	604	3600	0.17
5194	TF2-JJ-S7-02 ถ.พหลโยธิน - ถ.รัชดาภิเษก	13.826893	100.568133	bma	holiday	2022-11-09T00:00:00	18:00:00	19:00:00	15	201	533	3600	0.15
5195	TF2-KL-S59-01 ถ.เจริญกรุง - ปากซอยเจริญกรุง 74 แยก 3	13.701495	100.50124	bma	working	2022-05-09T00:00:00	5:00:00	6:00:00	32	27	127	1800	0.07
5196	TF2-KL-S59-01 ถ.เจริญกรุง - ปากซอยเจริญกรุง 74 แยก 3	13.701495	100.50124	bma	working	2022-05-09T00:00:00	6:00:00	7:00:00	23	86	360	1800	0.20
5197	TF2-KL-S59-01 ถ.เจริญกรุง - ปากซอยเจริญกรุง 74 แยก 3	13.701495	100.50124	bma	working	2022-05-09T00:00:00	7:00:00	8:00:00	17	201	907	1800	0.50
5198	TF2-KL-S59-01 ถ.เจริญกรุง - ปากซอยเจริญกรุง 74 แยก 3	13.701495	100.50124	bma	working	2022-05-09T00:00:00	8:00:00	9:00:00	15	202	875	1800	0.49
5199	TF2-KL-S59-01 ถ.เจริญกรุง - ปากซอยเจริญกรุง 74 แยก 3	13.701495	100.50124	bma	working	2022-05-09T00:00:00	9:00:00	10:00:00	11	202	793	1800	0.44
5200	TF2-KL-S59-01 ถ.เจริญกรุง - ปากซอยเจริญกรุง 74 แยก 3	13.701495	100.50124	bma	working	2022-05-09T00:00:00	10:00:00	11:00:00	8	201	826	1800	0.46
5201	TF2-KL-S59-01 ถ.เจริญกรุง - ปากซอยเจริญกรุง 74 แยก 3	13.701495	100.50124	bma	working	2022-05-09T00:00:00	11:00:00	12:00:00	21	202	546	1800	0.30
5202	TF2-KL-S59-01 ถ.เจริญกรุง - ปากซอยเจริญกรุง 74 แยก 3	13.701495	100.50124	bma	working	2022-05-09T00:00:00	12:00:00	13:00:00	12	201	760	1800	0.42
5203	TF2-KL-S59-01 ถ.เจริญกรุง - ปากซอยเจริญกรุง 74 แยก 3	13.701495	100.50124	bma	working	2022-05-09T00:00:00	13:00:00	14:00:00	11	202	742	1800	0.41
5204	TF2-KL-S59-01 ถ.เจริญกรุง - ปากซอยเจริญกรุง 74 แยก 3	13.701495	100.50124	bma	working	2022-05-09T00:00:00	14:00:00	15:00:00	14	202	668	1800	0.37
5205	TF2-KL-S59-01 ถ.เจริญกรุง - ปากซอยเจริญกรุง 74 แยก 3	13.701495	100.50124	bma	working	2022-05-09T00:00:00	15:00:00	16:00:00	8	201	729	1800	0.41
5206	TF2-KL-S59-01 ถ.เจริญกรุง - ปากซอยเจริญกรุง 74 แยก 3	13.701495	100.50124	bma	working	2022-05-09T00:00:00	16:00:00	17:00:00	25	202	799	1800	0.44
5207	TF2-KL-S59-01 ถ.เจริญกรุง - ปากซอยเจริญกรุง 74 แยก 3	13.701495	100.50124	bma	working	2022-05-09T00:00:00	17:00:00	18:00:00	19	201	959	1800	0.53
5208	TF2-KL-S59-01 ถ.เจริญกรุง - ปากซอยเจริญกรุง 74 แยก 3	13.701495	100.50124	bma	working	2022-05-09T00:00:00	18:00:00	19:00:00	23	142	916	1800	0.51
5209	TF2-KL-S59-01 ถ.เจริญกรุง - ปากซอยเจริญกรุง 74 แยก 3	13.701495	100.50124	bma	working	2022-06-09T00:00:00	5:00:00	6:00:00	32	29	125	1800	0.07
5210	TF2-KL-S59-01 ถ.เจริญกรุง - ปากซอยเจริญกรุง 74 แยก 3	13.701495	100.50124	bma	working	2022-06-09T00:00:00	6:00:00	7:00:00	23	86	382	1800	0.21
5211	TF2-KL-S59-01 ถ.เจริญกรุง - ปากซอยเจริญกรุง 74 แยก 3	13.701495	100.50124	bma	working	2022-06-09T00:00:00	7:00:00	8:00:00	13	202	1041	1800	0.58
5212	TF2-KL-S59-01 ถ.เจริญกรุง - ปากซอยเจริญกรุง 74 แยก 3	13.701495	100.50124	bma	working	2022-06-09T00:00:00	8:00:00	9:00:00	15	201	971	1800	0.54
5213	TF2-KL-S59-01 ถ.เจริญกรุง - ปากซอยเจริญกรุง 74 แยก 3	13.701495	100.50124	bma	working	2022-06-09T00:00:00	9:00:00	10:00:00	10	201	883	1800	0.49
5214	TF2-KL-S59-01 ถ.เจริญกรุง - ปากซอยเจริญกรุง 74 แยก 3	13.701495	100.50124	bma	working	2022-06-09T00:00:00	10:00:00	11:00:00	10	202	880	1800	0.49
5215	TF2-KL-S59-01 ถ.เจริญกรุง - ปากซอยเจริญกรุง 74 แยก 3	13.701495	100.50124	bma	working	2022-06-09T00:00:00	11:00:00	12:00:00	20	202	719	1800	0.40
5216	TF2-KL-S59-01 ถ.เจริญกรุง - ปากซอยเจริญกรุง 74 แยก 3	13.701495	100.50124	bma	working	2022-06-09T00:00:00	12:00:00	13:00:00	15	202	876	1800	0.49
5217	TF2-KL-S59-01 ถ.เจริญกรุง - ปากซอยเจริญกรุง 74 แยก 3	13.701495	100.50124	bma	working	2022-06-09T00:00:00	13:00:00	14:00:00	8	201	800	1800	0.44
5218	TF2-KL-S59-01 ถ.เจริญกรุง - ปากซอยเจริญกรุง 74 แยก 3	13.701495	100.50124	bma	working	2022-06-09T00:00:00	14:00:00	15:00:00	12	202	767	1800	0.43
5219	TF2-KL-S59-01 ถ.เจริญกรุง - ปากซอยเจริญกรุง 74 แยก 3	13.701495	100.50124	bma	working	2022-06-09T00:00:00	15:00:00	16:00:00	14	201	785	1800	0.44
5220	TF2-KL-S59-01 ถ.เจริญกรุง - ปากซอยเจริญกรุง 74 แยก 3	13.701495	100.50124	bma	working	2022-06-09T00:00:00	16:00:00	17:00:00	25	145	917	1800	0.51
5221	TF2-KL-S59-01 ถ.เจริญกรุง - ปากซอยเจริญกรุง 74 แยก 3	13.701495	100.50124	bma	working	2022-06-09T00:00:00	17:00:00	18:00:00	18	201	1082	1800	0.60
5222	TF2-KL-S59-01 ถ.เจริญกรุง - ปากซอยเจริญกรุง 74 แยก 3	13.701495	100.50124	bma	working	2022-06-09T00:00:00	18:00:00	19:00:00	23	142	916	1800	0.51
5223	TF2-KL-S59-01 ถ.เจริญกรุง - ปากซอยเจริญกรุง 74 แยก 3	13.701495	100.50124	bma	working	2022-07-09T00:00:00	5:00:00	6:00:00	27	28	127	1800	0.07
5224	TF2-KL-S59-01 ถ.เจริญกรุง - ปากซอยเจริญกรุง 74 แยก 3	13.701495	100.50124	bma	working	2022-07-09T00:00:00	6:00:00	7:00:00	20	89	359	1800	0.20
5225	TF2-KL-S59-01 ถ.เจริญกรุง - ปากซอยเจริญกรุง 74 แยก 3	13.701495	100.50124	bma	working	2022-07-09T00:00:00	7:00:00	8:00:00	10	170	1068	1800	0.59
5226	TF2-KL-S59-01 ถ.เจริญกรุง - ปากซอยเจริญกรุง 74 แยก 3	13.701495	100.50124	bma	working	2022-07-09T00:00:00	8:00:00	9:00:00	15	202	1002	1800	0.56
5227	TF2-KL-S59-01 ถ.เจริญกรุง - ปากซอยเจริญกรุง 74 แยก 3	13.701495	100.50124	bma	working	2022-07-09T00:00:00	9:00:00	10:00:00	12	201	911	1800	0.51
5228	TF2-KL-S59-01 ถ.เจริญกรุง - ปากซอยเจริญกรุง 74 แยก 3	13.701495	100.50124	bma	working	2022-07-09T00:00:00	10:00:00	11:00:00	10	201	923	1800	0.51
5229	TF2-KL-S59-01 ถ.เจริญกรุง - ปากซอยเจริญกรุง 74 แยก 3	13.701495	100.50124	bma	working	2022-07-09T00:00:00	11:00:00	12:00:00	24	202	922	1800	0.51
5230	TF2-KL-S59-01 ถ.เจริญกรุง - ปากซอยเจริญกรุง 74 แยก 3	13.701495	100.50124	bma	working	2022-07-09T00:00:00	12:00:00	13:00:00	12	202	936	1800	0.52
5231	TF2-KL-S59-01 ถ.เจริญกรุง - ปากซอยเจริญกรุง 74 แยก 3	13.701495	100.50124	bma	working	2022-07-09T00:00:00	13:00:00	14:00:00	10	202	880	1800	0.49
5232	TF2-KL-S59-01 ถ.เจริญกรุง - ปากซอยเจริญกรุง 74 แยก 3	13.701495	100.50124	bma	working	2022-07-09T00:00:00	14:00:00	15:00:00	12	202	846	1800	0.47
5233	TF2-KL-S59-01 ถ.เจริญกรุง - ปากซอยเจริญกรุง 74 แยก 3	13.701495	100.50124	bma	working	2022-07-09T00:00:00	15:00:00	16:00:00	16	201	877	1800	0.49
5234	TF2-KL-S59-01 ถ.เจริญกรุง - ปากซอยเจริญกรุง 74 แยก 3	13.701495	100.50124	bma	working	2022-07-09T00:00:00	16:00:00	17:00:00	22	76	958	1800	0.53
5235	TF2-KL-S59-01 ถ.เจริญกรุง - ปากซอยเจริญกรุง 74 แยก 3	13.701495	100.50124	bma	working	2022-07-09T00:00:00	17:00:00	18:00:00	12	202	1166	1800	0.65
5236	TF2-KL-S59-01 ถ.เจริญกรุง - ปากซอยเจริญกรุง 74 แยก 3	13.701495	100.50124	bma	working	2022-07-09T00:00:00	18:00:00	19:00:00	20	144	944	1800	0.52
5237	TF2-KL-S59-01 ถ.เจริญกรุง - ปากซอยเจริญกรุง 74 แยก 3	13.701495	100.50124	bma	working	2022-08-09T00:00:00	5:00:00	6:00:00	23	28	161	1800	0.09
5238	TF2-KL-S59-01 ถ.เจริญกรุง - ปากซอยเจริญกรุง 74 แยก 3	13.701495	100.50124	bma	working	2022-08-09T00:00:00	6:00:00	7:00:00	17	87	446	1800	0.25
5239	TF2-KL-S59-01 ถ.เจริญกรุง - ปากซอยเจริญกรุง 74 แยก 3	13.701495	100.50124	bma	working	2022-08-09T00:00:00	7:00:00	8:00:00	13	184	896	1800	0.50
5240	TF2-KL-S59-01 ถ.เจริญกรุง - ปากซอยเจริญกรุง 74 แยก 3	13.701495	100.50124	bma	working	2022-08-09T00:00:00	8:00:00	9:00:00	22	201	896	1800	0.50
5241	TF2-KL-S59-01 ถ.เจริญกรุง - ปากซอยเจริญกรุง 74 แยก 3	13.701495	100.50124	bma	working	2022-08-09T00:00:00	9:00:00	10:00:00	18	201	786	1800	0.44
5242	TF2-KL-S59-01 ถ.เจริญกรุง - ปากซอยเจริญกรุง 74 แยก 3	13.701495	100.50124	bma	working	2022-08-09T00:00:00	10:00:00	11:00:00	17	202	766	1800	0.43
5243	TF2-KL-S59-01 ถ.เจริญกรุง - ปากซอยเจริญกรุง 74 แยก 3	13.701495	100.50124	bma	working	2022-08-09T00:00:00	11:00:00	12:00:00	17	201	906	1800	0.50
5244	TF2-KL-S59-01 ถ.เจริญกรุง - ปากซอยเจริญกรุง 74 แยก 3	13.701495	100.50124	bma	working	2022-08-09T00:00:00	12:00:00	13:00:00	18	202	734	1800	0.41
5245	TF2-KL-S59-01 ถ.เจริญกรุง - ปากซอยเจริญกรุง 74 แยก 3	13.701495	100.50124	bma	working	2022-08-09T00:00:00	13:00:00	14:00:00	18	202	786	1800	0.44
5246	TF2-KL-S59-01 ถ.เจริญกรุง - ปากซอยเจริญกรุง 74 แยก 3	13.701495	100.50124	bma	working	2022-08-09T00:00:00	14:00:00	15:00:00	18	201	776	1800	0.43
5247	TF2-KL-S59-01 ถ.เจริญกรุง - ปากซอยเจริญกรุง 74 แยก 3	13.701495	100.50124	bma	working	2022-08-09T00:00:00	15:00:00	16:00:00	21	202	697	1800	0.39
5248	TF2-KL-S59-01 ถ.เจริญกรุง - ปากซอยเจริญกรุง 74 แยก 3	13.701495	100.50124	bma	working	2022-08-09T00:00:00	16:00:00	17:00:00	14	132	853	1800	0.47
5249	TF2-KL-S59-01 ถ.เจริญกรุง - ปากซอยเจริญกรุง 74 แยก 3	13.701495	100.50124	bma	working	2022-08-09T00:00:00	17:00:00	18:00:00	12	201	974	1800	0.54
5250	TF2-KL-S59-01 ถ.เจริญกรุง - ปากซอยเจริญกรุง 74 แยก 3	13.701495	100.50124	bma	working	2022-08-09T00:00:00	18:00:00	19:00:00	20	160	939	1800	0.52
5251	TF2-KL-S59-01 ถ.เจริญกรุง - ปากซอยเจริญกรุง 74 แยก 3	13.701495	100.50124	bma	working	2022-09-09T00:00:00	5:00:00	6:00:00	22	26	203	1800	0.11
5252	TF2-KL-S59-01 ถ.เจริญกรุง - ปากซอยเจริญกรุง 74 แยก 3	13.701495	100.50124	bma	working	2022-09-09T00:00:00	6:00:00	7:00:00	16	85	549	1800	0.31
5253	TF2-KL-S59-01 ถ.เจริญกรุง - ปากซอยเจริญกรุง 74 แยก 3	13.701495	100.50124	bma	working	2022-09-09T00:00:00	7:00:00	8:00:00	14	199	667	1800	0.37
5254	TF2-KL-S59-01 ถ.เจริญกรุง - ปากซอยเจริญกรุง 74 แยก 3	13.701495	100.50124	bma	working	2022-09-09T00:00:00	8:00:00	9:00:00	27	198	693	1800	0.39
5255	TF2-KL-S59-01 ถ.เจริญกรุง - ปากซอยเจริญกรุง 74 แยก 3	13.701495	100.50124	bma	working	2022-09-09T00:00:00	9:00:00	10:00:00	26	196	549	1800	0.31
5256	TF2-KL-S59-01 ถ.เจริญกรุง - ปากซอยเจริญกรุง 74 แยก 3	13.701495	100.50124	bma	working	2022-09-09T00:00:00	10:00:00	11:00:00	25	190	620	1800	0.34
5257	TF2-KL-S59-01 ถ.เจริญกรุง - ปากซอยเจริญกรุง 74 แยก 3	13.701495	100.50124	bma	working	2022-09-09T00:00:00	11:00:00	12:00:00	13	202	880	1800	0.49
5258	TF2-KL-S59-01 ถ.เจริญกรุง - ปากซอยเจริญกรุง 74 แยก 3	13.701495	100.50124	bma	working	2022-09-09T00:00:00	12:00:00	13:00:00	25	198	555	1800	0.31
5259	TF2-KL-S59-01 ถ.เจริญกรุง - ปากซอยเจริญกรุง 74 แยก 3	13.701495	100.50124	bma	working	2022-09-09T00:00:00	13:00:00	14:00:00	25	198	670	1800	0.37
5260	TF2-KL-S59-01 ถ.เจริญกรุง - ปากซอยเจริญกรุง 74 แยก 3	13.701495	100.50124	bma	working	2022-09-09T00:00:00	14:00:00	15:00:00	20	198	679	1800	0.38
5261	TF2-KL-S59-01 ถ.เจริญกรุง - ปากซอยเจริญกรุง 74 แยก 3	13.701495	100.50124	bma	working	2022-09-09T00:00:00	15:00:00	16:00:00	22	198	560	1800	0.31
5262	TF2-KL-S59-01 ถ.เจริญกรุง - ปากซอยเจริญกรุง 74 แยก 3	13.701495	100.50124	bma	working	2022-09-09T00:00:00	16:00:00	17:00:00	3	192	765	1800	0.43
5263	TF2-KL-S59-01 ถ.เจริญกรุง - ปากซอยเจริญกรุง 74 แยก 3	13.701495	100.50124	bma	working	2022-09-09T00:00:00	17:00:00	18:00:00	10	201	890	1800	0.49
5264	TF2-KL-S59-01 ถ.เจริญกรุง - ปากซอยเจริญกรุง 74 แยก 3	13.701495	100.50124	bma	working	2022-09-09T00:00:00	18:00:00	19:00:00	15	179	866	1800	0.48
5265	TF2-KL-S59-01 ถ.เจริญกรุง - ปากซอยเจริญกรุง 74 แยก 3	13.701495	100.50124	bma	working	2022-10-09T00:00:00	5:00:00	6:00:00	47	70	113	1800	0.06
5266	TF2-KL-S59-01 ถ.เจริญกรุง - ปากซอยเจริญกรุง 74 แยก 3	13.701495	100.50124	bma	holiday	2022-10-09T00:00:00	6:00:00	7:00:00	33	201	336	1800	0.19
5267	TF2-KL-S59-01 ถ.เจริญกรุง - ปากซอยเจริญกรุง 74 แยก 3	13.701495	100.50124	bma	holiday	2022-10-09T00:00:00	7:00:00	8:00:00	18	201	696	1800	0.39
5268	TF2-KL-S59-01 ถ.เจริญกรุง - ปากซอยเจริญกรุง 74 แยก 3	13.701495	100.50124	bma	holiday	2022-10-09T00:00:00	8:00:00	9:00:00	13	202	749	1800	0.42
5269	TF2-KL-S59-01 ถ.เจริญกรุง - ปากซอยเจริญกรุง 74 แยก 3	13.701495	100.50124	bma	working	2022-10-09T00:00:00	9:00:00	10:00:00	12	202	741	1800	0.41
5270	TF2-KL-S59-01 ถ.เจริญกรุง - ปากซอยเจริญกรุง 74 แยก 3	13.701495	100.50124	bma	working	2022-10-09T00:00:00	10:00:00	11:00:00	10	202	589	1800	0.33
5271	TF2-KL-S59-01 ถ.เจริญกรุง - ปากซอยเจริญกรุง 74 แยก 3	13.701495	100.50124	bma	holiday	2022-10-09T00:00:00	11:00:00	12:00:00	26	186	985	1800	0.55
5272	TF2-KL-S59-01 ถ.เจริญกรุง - ปากซอยเจริญกรุง 74 แยก 3	13.701495	100.50124	bma	working	2022-10-09T00:00:00	12:00:00	13:00:00	10	202	671	1800	0.37
5273	TF2-KL-S59-01 ถ.เจริญกรุง - ปากซอยเจริญกรุง 74 แยก 3	13.701495	100.50124	bma	working	2022-10-09T00:00:00	13:00:00	14:00:00	16	202	677	1800	0.38
5274	TF2-KL-S59-01 ถ.เจริญกรุง - ปากซอยเจริญกรุง 74 แยก 3	13.701495	100.50124	bma	working	2022-10-09T00:00:00	14:00:00	15:00:00	14	201	559	1800	0.31
5275	TF2-KL-S59-01 ถ.เจริญกรุง - ปากซอยเจริญกรุง 74 แยก 3	13.701495	100.50124	bma	working	2022-10-09T00:00:00	15:00:00	16:00:00	9	201	640	1800	0.36
5276	TF2-KL-S59-01 ถ.เจริญกรุง - ปากซอยเจริญกรุง 74 แยก 3	13.701495	100.50124	bma	holiday	2022-10-09T00:00:00	16:00:00	17:00:00	15	167	998	1800	0.55
5277	TF2-KL-S59-01 ถ.เจริญกรุง - ปากซอยเจริญกรุง 74 แยก 3	13.701495	100.50124	bma	holiday	2022-10-09T00:00:00	17:00:00	18:00:00	27	201	702	1800	0.39
5278	TF2-KL-S59-01 ถ.เจริญกรุง - ปากซอยเจริญกรุง 74 แยก 3	13.701495	100.50124	bma	holiday	2022-10-09T00:00:00	18:00:00	19:00:00	17	109	856	1800	0.48
5279	TF2-KL-S59-01 ถ.เจริญกรุง - ปากซอยเจริญกรุง 74 แยก 3	13.701495	100.50124	bma	working	2022-11-09T00:00:00	5:00:00	6:00:00	27	65	70	1800	0.04
5280	TF2-KL-S59-01 ถ.เจริญกรุง - ปากซอยเจริญกรุง 74 แยก 3	13.701495	100.50124	bma	holiday	2022-11-09T00:00:00	6:00:00	7:00:00	20	191	203	1800	0.11
5281	TF2-KL-S59-01 ถ.เจริญกรุง - ปากซอยเจริญกรุง 74 แยก 3	13.701495	100.50124	bma	holiday	2022-11-09T00:00:00	7:00:00	8:00:00	12	145	427	1800	0.24
5282	TF2-KL-S59-01 ถ.เจริญกรุง - ปากซอยเจริญกรุง 74 แยก 3	13.701495	100.50124	bma	holiday	2022-11-09T00:00:00	8:00:00	9:00:00	9	186	455	1800	0.25
5283	TF2-KL-S59-01 ถ.เจริญกรุง - ปากซอยเจริญกรุง 74 แยก 3	13.701495	100.50124	bma	working	2022-11-09T00:00:00	9:00:00	10:00:00	9	183	430	1800	0.24
5284	TF2-KL-S59-01 ถ.เจริญกรุง - ปากซอยเจริญกรุง 74 แยก 3	13.701495	100.50124	bma	working	2022-11-09T00:00:00	10:00:00	11:00:00	5	188	364	1800	0.20
5285	TF2-KL-S59-01 ถ.เจริญกรุง - ปากซอยเจริญกรุง 74 แยก 3	13.701495	100.50124	bma	holiday	2022-11-09T00:00:00	11:00:00	12:00:00	15	115	595	1800	0.33
5286	TF2-KL-S59-01 ถ.เจริญกรุง - ปากซอยเจริญกรุง 74 แยก 3	13.701495	100.50124	bma	working	2022-11-09T00:00:00	12:00:00	13:00:00	5	181	438	1800	0.24
5287	TF2-KL-S59-01 ถ.เจริญกรุง - ปากซอยเจริญกรุง 74 แยก 3	13.701495	100.50124	bma	working	2022-11-09T00:00:00	13:00:00	14:00:00	8	187	404	1800	0.22
5288	TF2-KL-S59-01 ถ.เจริญกรุง - ปากซอยเจริญกรุง 74 แยก 3	13.701495	100.50124	bma	working	2022-11-09T00:00:00	14:00:00	15:00:00	8	185	347	1800	0.19
5289	TF2-KL-S59-01 ถ.เจริญกรุง - ปากซอยเจริญกรุง 74 แยก 3	13.701495	100.50124	bma	working	2022-11-09T00:00:00	15:00:00	16:00:00	9	182	409	1800	0.23
5290	TF2-KL-S59-01 ถ.เจริญกรุง - ปากซอยเจริญกรุง 74 แยก 3	13.701495	100.50124	bma	holiday	2022-11-09T00:00:00	16:00:00	17:00:00	11	98	639	1800	0.36
5291	TF2-KL-S59-01 ถ.เจริญกรุง - ปากซอยเจริญกรุง 74 แยก 3	13.701495	100.50124	bma	holiday	2022-11-09T00:00:00	17:00:00	18:00:00	13	161	401	1800	0.22
5292	TF2-KL-S59-01 ถ.เจริญกรุง - ปากซอยเจริญกรุง 74 แยก 3	13.701495	100.50124	bma	holiday	2022-11-09T00:00:00	18:00:00	19:00:00	11	67	545	1800	0.30
5293	TF2-KL-S60-01 ถ.เจริญกรุง - ปากซอยเจริญกรุง 72/3	13.706941	100.507255	bma	working	2022-05-09T00:00:00	5:00:00	6:00:00	37	9	36	1800	0.02
5294	TF2-KL-S60-01 ถ.เจริญกรุง - ปากซอยเจริญกรุง 72/3	13.706941	100.507255	bma	working	2022-05-09T00:00:00	6:00:00	7:00:00	27	26	103	1800	0.06
5295	TF2-KL-S60-01 ถ.เจริญกรุง - ปากซอยเจริญกรุง 72/3	13.706941	100.507255	bma	working	2022-05-09T00:00:00	7:00:00	8:00:00	36	72	1057	1800	0.59
5296	TF2-KL-S60-01 ถ.เจริญกรุง - ปากซอยเจริญกรุง 72/3	13.706941	100.507255	bma	working	2022-05-09T00:00:00	8:00:00	9:00:00	15	125	1234	1800	0.69
5297	TF2-KL-S60-01 ถ.เจริญกรุง - ปากซอยเจริญกรุง 72/3	13.706941	100.507255	bma	working	2022-05-09T00:00:00	9:00:00	10:00:00	16	125	1153	1800	0.64
5298	TF2-KL-S60-01 ถ.เจริญกรุง - ปากซอยเจริญกรุง 72/3	13.706941	100.507255	bma	working	2022-05-09T00:00:00	10:00:00	11:00:00	11	128	1041	1800	0.58
5299	TF2-KL-S60-01 ถ.เจริญกรุง - ปากซอยเจริญกรุง 72/3	13.706941	100.507255	bma	working	2022-05-09T00:00:00	11:00:00	12:00:00	38	75	569	1800	0.32
5300	TF2-KL-S60-01 ถ.เจริญกรุง - ปากซอยเจริญกรุง 72/3	13.706941	100.507255	bma	working	2022-05-09T00:00:00	12:00:00	13:00:00	15	121	1013	1800	0.56
5301	TF2-KL-S60-01 ถ.เจริญกรุง - ปากซอยเจริญกรุง 72/3	13.706941	100.507255	bma	working	2022-05-09T00:00:00	13:00:00	14:00:00	15	127	939	1800	0.52
5302	TF2-KL-S60-01 ถ.เจริญกรุง - ปากซอยเจริญกรุง 72/3	13.706941	100.507255	bma	working	2022-05-09T00:00:00	14:00:00	15:00:00	15	125	1012	1800	0.56
5303	TF2-KL-S60-01 ถ.เจริญกรุง - ปากซอยเจริญกรุง 72/3	13.706941	100.507255	bma	working	2022-05-09T00:00:00	15:00:00	16:00:00	16	123	1080	1800	0.60
5304	TF2-KL-S60-01 ถ.เจริญกรุง - ปากซอยเจริญกรุง 72/3	13.706941	100.507255	bma	working	2022-05-09T00:00:00	16:00:00	17:00:00	38	67	722	1800	0.40
5305	TF2-KL-S60-01 ถ.เจริญกรุง - ปากซอยเจริญกรุง 72/3	13.706941	100.507255	bma	working	2022-05-09T00:00:00	17:00:00	18:00:00	31	95	770	1800	0.43
5306	TF2-KL-S60-01 ถ.เจริญกรุง - ปากซอยเจริญกรุง 72/3	13.706941	100.507255	bma	working	2022-05-09T00:00:00	18:00:00	19:00:00	25	108	1142	1800	0.63
5307	TF2-KL-S60-01 ถ.เจริญกรุง - ปากซอยเจริญกรุง 72/3	13.706941	100.507255	bma	working	2022-06-09T00:00:00	5:00:00	6:00:00	32	12	35	1800	0.02
5308	TF2-KL-S60-01 ถ.เจริญกรุง - ปากซอยเจริญกรุง 72/3	13.706941	100.507255	bma	working	2022-06-09T00:00:00	6:00:00	7:00:00	23	34	99	1800	0.06
5309	TF2-KL-S60-01 ถ.เจริญกรุง - ปากซอยเจริญกรุง 72/3	13.706941	100.507255	bma	working	2022-06-09T00:00:00	7:00:00	8:00:00	31	100	840	1800	0.47
5310	TF2-KL-S60-01 ถ.เจริญกรุง - ปากซอยเจริญกรุง 72/3	13.706941	100.507255	bma	working	2022-06-09T00:00:00	8:00:00	9:00:00	22	117	1002	1800	0.56
5311	TF2-KL-S60-01 ถ.เจริญกรุง - ปากซอยเจริญกรุง 72/3	13.706941	100.507255	bma	working	2022-06-09T00:00:00	9:00:00	10:00:00	23	115	944	1800	0.52
5312	TF2-KL-S60-01 ถ.เจริญกรุง - ปากซอยเจริญกรุง 72/3	13.706941	100.507255	bma	working	2022-06-09T00:00:00	10:00:00	11:00:00	20	115	860	1800	0.48
5313	TF2-KL-S60-01 ถ.เจริญกรุง - ปากซอยเจริญกรุง 72/3	13.706941	100.507255	bma	working	2022-06-09T00:00:00	11:00:00	12:00:00	35	83	612	1800	0.34
5314	TF2-KL-S60-01 ถ.เจริญกรุง - ปากซอยเจริญกรุง 72/3	13.706941	100.507255	bma	working	2022-06-09T00:00:00	12:00:00	13:00:00	19	114	868	1800	0.48
5315	TF2-KL-S60-01 ถ.เจริญกรุง - ปากซอยเจริญกรุง 72/3	13.706941	100.507255	bma	working	2022-06-09T00:00:00	13:00:00	14:00:00	22	116	795	1800	0.44
5316	TF2-KL-S60-01 ถ.เจริญกรุง - ปากซอยเจริญกรุง 72/3	13.706941	100.507255	bma	working	2022-06-09T00:00:00	14:00:00	15:00:00	23	119	870	1800	0.48
5317	TF2-KL-S60-01 ถ.เจริญกรุง - ปากซอยเจริญกรุง 72/3	13.706941	100.507255	bma	working	2022-06-09T00:00:00	15:00:00	16:00:00	23	117	888	1800	0.49
5318	TF2-KL-S60-01 ถ.เจริญกรุง - ปากซอยเจริญกรุง 72/3	13.706941	100.507255	bma	working	2022-06-09T00:00:00	16:00:00	17:00:00	32	74	931	1800	0.52
5319	TF2-KL-S60-01 ถ.เจริญกรุง - ปากซอยเจริญกรุง 72/3	13.706941	100.507255	bma	working	2022-06-09T00:00:00	17:00:00	18:00:00	24	88	820	1800	0.46
5320	TF2-KL-S60-01 ถ.เจริญกรุง - ปากซอยเจริญกรุง 72/3	13.706941	100.507255	bma	working	2022-06-09T00:00:00	18:00:00	19:00:00	23	81	917	1800	0.51
5321	TF2-KL-S60-01 ถ.เจริญกรุง - ปากซอยเจริญกรุง 72/3	13.706941	100.507255	bma	working	2022-07-09T00:00:00	5:00:00	6:00:00	30	12	57	1800	0.03
5322	TF2-KL-S60-01 ถ.เจริญกรุง - ปากซอยเจริญกรุง 72/3	13.706941	100.507255	bma	working	2022-07-09T00:00:00	6:00:00	7:00:00	22	39	174	1800	0.10
5323	TF2-KL-S60-01 ถ.เจริญกรุง - ปากซอยเจริญกรุง 72/3	13.706941	100.507255	bma	working	2022-07-09T00:00:00	7:00:00	8:00:00	26	128	712	1800	0.40
5324	TF2-KL-S60-01 ถ.เจริญกรุง - ปากซอยเจริญกรุง 72/3	13.706941	100.507255	bma	working	2022-07-09T00:00:00	8:00:00	9:00:00	29	111	874	1800	0.49
5325	TF2-KL-S60-01 ถ.เจริญกรุง - ปากซอยเจริญกรุง 72/3	13.706941	100.507255	bma	working	2022-07-09T00:00:00	9:00:00	10:00:00	26	107	703	1800	0.39
5326	TF2-KL-S60-01 ถ.เจริญกรุง - ปากซอยเจริญกรุง 72/3	13.706941	100.507255	bma	working	2022-07-09T00:00:00	10:00:00	11:00:00	24	108	764	1800	0.42
5327	TF2-KL-S60-01 ถ.เจริญกรุง - ปากซอยเจริญกรุง 72/3	13.706941	100.507255	bma	working	2022-07-09T00:00:00	11:00:00	12:00:00	34	93	679	1800	0.38
5328	TF2-KL-S60-01 ถ.เจริญกรุง - ปากซอยเจริญกรุง 72/3	13.706941	100.507255	bma	working	2022-07-09T00:00:00	12:00:00	13:00:00	28	104	773	1800	0.43
5329	TF2-KL-S60-01 ถ.เจริญกรุง - ปากซอยเจริญกรุง 72/3	13.706941	100.507255	bma	working	2022-07-09T00:00:00	13:00:00	14:00:00	28	105	636	1800	0.35
5330	TF2-KL-S60-01 ถ.เจริญกรุง - ปากซอยเจริญกรุง 72/3	13.706941	100.507255	bma	working	2022-07-09T00:00:00	14:00:00	15:00:00	28	107	752	1800	0.42
5331	TF2-KL-S60-01 ถ.เจริญกรุง - ปากซอยเจริญกรุง 72/3	13.706941	100.507255	bma	working	2022-07-09T00:00:00	15:00:00	16:00:00	25	108	744	1800	0.41
5332	TF2-KL-S60-01 ถ.เจริญกรุง - ปากซอยเจริญกรุง 72/3	13.706941	100.507255	bma	working	2022-07-09T00:00:00	16:00:00	17:00:00	30	86	1186	1800	0.66
5333	TF2-KL-S60-01 ถ.เจริญกรุง - ปากซอยเจริญกรุง 72/3	13.706941	100.507255	bma	working	2022-07-09T00:00:00	17:00:00	18:00:00	24	76	799	1800	0.44
5334	TF2-KL-S60-01 ถ.เจริญกรุง - ปากซอยเจริญกรุง 72/3	13.706941	100.507255	bma	working	2022-07-09T00:00:00	18:00:00	19:00:00	18	52	606	1800	0.34
5335	TF2-KL-S60-01 ถ.เจริญกรุง - ปากซอยเจริญกรุง 72/3	13.706941	100.507255	bma	working	2022-08-09T00:00:00	5:00:00	6:00:00	41	16	47	1800	0.03
5336	TF2-KL-S60-01 ถ.เจริญกรุง - ปากซอยเจริญกรุง 72/3	13.706941	100.507255	bma	working	2022-08-09T00:00:00	6:00:00	7:00:00	29	47	141	1800	0.08
5337	TF2-KL-S60-01 ถ.เจริญกรุง - ปากซอยเจริญกรุง 72/3	13.706941	100.507255	bma	working	2022-08-09T00:00:00	7:00:00	8:00:00	20	114	622	1800	0.35
5338	TF2-KL-S60-01 ถ.เจริญกรุง - ปากซอยเจริญกรุง 72/3	13.706941	100.507255	bma	working	2022-08-09T00:00:00	8:00:00	9:00:00	26	93	763	1800	0.42
5339	TF2-KL-S60-01 ถ.เจริญกรุง - ปากซอยเจริญกรุง 72/3	13.706941	100.507255	bma	working	2022-08-09T00:00:00	9:00:00	10:00:00	27	87	623	1800	0.35
5340	TF2-KL-S60-01 ถ.เจริญกรุง - ปากซอยเจริญกรุง 72/3	13.706941	100.507255	bma	working	2022-08-09T00:00:00	10:00:00	11:00:00	23	89	654	1800	0.36
5341	TF2-KL-S60-01 ถ.เจริญกรุง - ปากซอยเจริญกรุง 72/3	13.706941	100.507255	bma	working	2022-08-09T00:00:00	11:00:00	12:00:00	31	134	737	1800	0.41
5342	TF2-KL-S60-01 ถ.เจริญกรุง - ปากซอยเจริญกรุง 72/3	13.706941	100.507255	bma	working	2022-08-09T00:00:00	12:00:00	13:00:00	26	90	684	1800	0.38
5343	TF2-KL-S60-01 ถ.เจริญกรุง - ปากซอยเจริญกรุง 72/3	13.706941	100.507255	bma	working	2022-08-09T00:00:00	13:00:00	14:00:00	26	91	608	1800	0.34
5344	TF2-KL-S60-01 ถ.เจริญกรุง - ปากซอยเจริญกรุง 72/3	13.706941	100.507255	bma	working	2022-08-09T00:00:00	14:00:00	15:00:00	25	89	661	1800	0.37
5345	TF2-KL-S60-01 ถ.เจริญกรุง - ปากซอยเจริญกรุง 72/3	13.706941	100.507255	bma	working	2022-08-09T00:00:00	15:00:00	16:00:00	22	90	630	1800	0.35
5346	TF2-KL-S60-01 ถ.เจริญกรุง - ปากซอยเจริญกรุง 72/3	13.706941	100.507255	bma	working	2022-08-09T00:00:00	16:00:00	17:00:00	20	119	1139	1800	0.63
5347	TF2-KL-S60-01 ถ.เจริญกรุง - ปากซอยเจริญกรุง 72/3	13.706941	100.507255	bma	working	2022-08-09T00:00:00	17:00:00	18:00:00	23	160	1112	1800	0.62
5348	TF2-KL-S60-01 ถ.เจริญกรุง - ปากซอยเจริญกรุง 72/3	13.706941	100.507255	bma	working	2022-08-09T00:00:00	18:00:00	19:00:00	24	84	797	1800	0.44
5349	TF2-KL-S60-01 ถ.เจริญกรุง - ปากซอยเจริญกรุง 72/3	13.706941	100.507255	bma	working	2022-09-09T00:00:00	5:00:00	6:00:00	42	17	43	1800	0.02
5350	TF2-KL-S60-01 ถ.เจริญกรุง - ปากซอยเจริญกรุง 72/3	13.706941	100.507255	bma	working	2022-09-09T00:00:00	6:00:00	7:00:00	30	55	136	1800	0.08
5351	TF2-KL-S60-01 ถ.เจริญกรุง - ปากซอยเจริญกรุง 72/3	13.706941	100.507255	bma	working	2022-09-09T00:00:00	7:00:00	8:00:00	14	100	494	1800	0.27
5352	TF2-KL-S60-01 ถ.เจริญกรุง - ปากซอยเจริญกรุง 72/3	13.706941	100.507255	bma	working	2022-09-09T00:00:00	8:00:00	9:00:00	25	75	606	1800	0.34
5353	TF2-KL-S60-01 ถ.เจริญกรุง - ปากซอยเจริญกรุง 72/3	13.706941	100.507255	bma	working	2022-09-09T00:00:00	9:00:00	10:00:00	24	74	471	1800	0.26
5354	TF2-KL-S60-01 ถ.เจริญกรุง - ปากซอยเจริญกรุง 72/3	13.706941	100.507255	bma	working	2022-09-09T00:00:00	10:00:00	11:00:00	18	72	581	1800	0.32
5355	TF2-KL-S60-01 ถ.เจริญกรุง - ปากซอยเจริญกรุง 72/3	13.706941	100.507255	bma	working	2022-09-09T00:00:00	11:00:00	12:00:00	32	170	771	1800	0.43
5356	TF2-KL-S60-01 ถ.เจริญกรุง - ปากซอยเจริญกรุง 72/3	13.706941	100.507255	bma	working	2022-09-09T00:00:00	12:00:00	13:00:00	18	72	562	1800	0.31
5357	TF2-KL-S60-01 ถ.เจริญกรุง - ปากซอยเจริญกรุง 72/3	13.706941	100.507255	bma	working	2022-09-09T00:00:00	13:00:00	14:00:00	21	74	591	1800	0.33
5358	TF2-KL-S60-01 ถ.เจริญกรุง - ปากซอยเจริญกรุง 72/3	13.706941	100.507255	bma	working	2022-09-09T00:00:00	14:00:00	15:00:00	21	77	611	1800	0.34
5359	TF2-KL-S60-01 ถ.เจริญกรุง - ปากซอยเจริญกรุง 72/3	13.706941	100.507255	bma	working	2022-09-09T00:00:00	15:00:00	16:00:00	19	73	550	1800	0.31
5360	TF2-KL-S60-01 ถ.เจริญกรุง - ปากซอยเจริญกรุง 72/3	13.706941	100.507255	bma	working	2022-09-09T00:00:00	16:00:00	17:00:00	16	149	1060	1800	0.59
5361	TF2-KL-S60-01 ถ.เจริญกรุง - ปากซอยเจริญกรุง 72/3	13.706941	100.507255	bma	working	2022-09-09T00:00:00	17:00:00	18:00:00	18	201	1303	1800	0.72
5362	TF2-KL-S60-01 ถ.เจริญกรุง - ปากซอยเจริญกรุง 72/3	13.706941	100.507255	bma	working	2022-09-09T00:00:00	18:00:00	19:00:00	26	117	941	1800	0.52
5363	TF2-KL-S60-01 ถ.เจริญกรุง - ปากซอยเจริญกรุง 72/3	13.706941	100.507255	bma	working	2022-10-09T00:00:00	5:00:00	6:00:00	45	9	26	1800	0.01
5364	TF2-KL-S60-01 ถ.เจริญกรุง - ปากซอยเจริญกรุง 72/3	13.706941	100.507255	bma	holiday	2022-10-09T00:00:00	6:00:00	7:00:00	32	26	77	1800	0.04
5365	TF2-KL-S60-01 ถ.เจริญกรุง - ปากซอยเจริญกรุง 72/3	13.706941	100.507255	bma	holiday	2022-10-09T00:00:00	7:00:00	8:00:00	39	73	634	1800	0.35
5366	TF2-KL-S60-01 ถ.เจริญกรุง - ปากซอยเจริญกรุง 72/3	13.706941	100.507255	bma	holiday	2022-10-09T00:00:00	8:00:00	9:00:00	31	98	839	1800	0.47
5367	TF2-KL-S60-01 ถ.เจริญกรุง - ปากซอยเจริญกรุง 72/3	13.706941	100.507255	bma	working	2022-10-09T00:00:00	9:00:00	10:00:00	27	93	693	1800	0.39
5368	TF2-KL-S60-01 ถ.เจริญกรุง - ปากซอยเจริญกรุง 72/3	13.706941	100.507255	bma	working	2022-10-09T00:00:00	10:00:00	11:00:00	31	92	779	1800	0.43
5369	TF2-KL-S60-01 ถ.เจริญกรุง - ปากซอยเจริญกรุง 72/3	13.706941	100.507255	bma	holiday	2022-10-09T00:00:00	11:00:00	12:00:00	32	76	448	1800	0.25
5370	TF2-KL-S60-01 ถ.เจริญกรุง - ปากซอยเจริญกรุง 72/3	13.706941	100.507255	bma	working	2022-10-09T00:00:00	12:00:00	13:00:00	29	93	673	1800	0.37
5371	TF2-KL-S60-01 ถ.เจริญกรุง - ปากซอยเจริญกรุง 72/3	13.706941	100.507255	bma	working	2022-10-09T00:00:00	13:00:00	14:00:00	29	91	650	1800	0.36
5372	TF2-KL-S60-01 ถ.เจริญกรุง - ปากซอยเจริญกรุง 72/3	13.706941	100.507255	bma	working	2022-10-09T00:00:00	14:00:00	15:00:00	27	95	647	1800	0.36
5373	TF2-KL-S60-01 ถ.เจริญกรุง - ปากซอยเจริญกรุง 72/3	13.706941	100.507255	bma	working	2022-10-09T00:00:00	15:00:00	16:00:00	30	96	642	1800	0.36
5374	TF2-KL-S60-01 ถ.เจริญกรุง - ปากซอยเจริญกรุง 72/3	13.706941	100.507255	bma	holiday	2022-10-09T00:00:00	16:00:00	17:00:00	25	201	978	1800	0.54
5375	TF2-KL-S60-01 ถ.เจริญกรุง - ปากซอยเจริญกรุง 72/3	13.706941	100.507255	bma	holiday	2022-10-09T00:00:00	17:00:00	18:00:00	24	98	771	1800	0.43
5376	TF2-KL-S60-01 ถ.เจริญกรุง - ปากซอยเจริญกรุง 72/3	13.706941	100.507255	bma	holiday	2022-10-09T00:00:00	18:00:00	19:00:00	16	94	613	1800	0.34
5377	TF2-KL-S60-01 ถ.เจริญกรุง - ปากซอยเจริญกรุง 72/3	13.706941	100.507255	bma	working	2022-11-09T00:00:00	5:00:00	6:00:00	29	6	20	1800	0.01
5378	TF2-KL-S60-01 ถ.เจริญกรุง - ปากซอยเจริญกรุง 72/3	13.706941	100.507255	bma	holiday	2022-11-09T00:00:00	6:00:00	7:00:00	21	18	44	1800	0.02
5379	TF2-KL-S60-01 ถ.เจริญกรุง - ปากซอยเจริญกรุง 72/3	13.706941	100.507255	bma	holiday	2022-11-09T00:00:00	7:00:00	8:00:00	20	41	399	1800	0.22
5380	TF2-KL-S60-01 ถ.เจริญกรุง - ปากซอยเจริญกรุง 72/3	13.706941	100.507255	bma	holiday	2022-11-09T00:00:00	8:00:00	9:00:00	18	59	522	1800	0.29
5381	TF2-KL-S60-01 ถ.เจริญกรุง - ปากซอยเจริญกรุง 72/3	13.706941	100.507255	bma	working	2022-11-09T00:00:00	9:00:00	10:00:00	14	55	393	1800	0.22
5382	TF2-KL-S60-01 ถ.เจริญกรุง - ปากซอยเจริญกรุง 72/3	13.706941	100.507255	bma	working	2022-11-09T00:00:00	10:00:00	11:00:00	16	58	454	1800	0.25
5383	TF2-KL-S60-01 ถ.เจริญกรุง - ปากซอยเจริญกรุง 72/3	13.706941	100.507255	bma	holiday	2022-11-09T00:00:00	11:00:00	12:00:00	19	46	307	1800	0.17
5384	TF2-KL-S60-01 ถ.เจริญกรุง - ปากซอยเจริญกรุง 72/3	13.706941	100.507255	bma	working	2022-11-09T00:00:00	12:00:00	13:00:00	19	55	389	1800	0.22
5385	TF2-KL-S60-01 ถ.เจริญกรุง - ปากซอยเจริญกรุง 72/3	13.706941	100.507255	bma	working	2022-11-09T00:00:00	13:00:00	14:00:00	18	57	423	1800	0.24
5386	TF2-KL-S60-01 ถ.เจริญกรุง - ปากซอยเจริญกรุง 72/3	13.706941	100.507255	bma	working	2022-11-09T00:00:00	14:00:00	15:00:00	15	55	384	1800	0.21
5387	TF2-KL-S60-01 ถ.เจริญกรุง - ปากซอยเจริญกรุง 72/3	13.706941	100.507255	bma	working	2022-11-09T00:00:00	15:00:00	16:00:00	16	55	380	1800	0.21
5388	TF2-KL-S60-01 ถ.เจริญกรุง - ปากซอยเจริญกรุง 72/3	13.706941	100.507255	bma	holiday	2022-11-09T00:00:00	16:00:00	17:00:00	15	119	571	1800	0.32
5389	TF2-KL-S60-01 ถ.เจริญกรุง - ปากซอยเจริญกรุง 72/3	13.706941	100.507255	bma	holiday	2022-11-09T00:00:00	17:00:00	18:00:00	17	60	460	1800	0.26
5390	TF2-KL-S60-01 ถ.เจริญกรุง - ปากซอยเจริญกรุง 72/3	13.706941	100.507255	bma	holiday	2022-11-09T00:00:00	18:00:00	19:00:00	9	56	386	1800	0.21
5391	TF2-KS-S5-02 ถ.เจริญนคร - ปากซอยเจริญนคร 12	13.723788	100.509033	bma	working	2022-05-09T00:00:00	5:00:00	6:00:00	47	15	272	2700	0.10
5392	TF2-KS-S5-02 ถ.เจริญนคร - ปากซอยเจริญนคร 12	13.723788	100.509033	bma	working	2022-05-09T00:00:00	6:00:00	7:00:00	33	47	724	2700	0.27
5393	TF2-KS-S5-02 ถ.เจริญนคร - ปากซอยเจริญนคร 12	13.723788	100.509033	bma	working	2022-05-09T00:00:00	7:00:00	8:00:00	21	171	3047	2700	1.13
5394	TF2-KS-S5-02 ถ.เจริญนคร - ปากซอยเจริญนคร 12	13.723788	100.509033	bma	working	2022-05-09T00:00:00	8:00:00	9:00:00	18	130	967	2700	0.36
5395	TF2-KS-S5-02 ถ.เจริญนคร - ปากซอยเจริญนคร 12	13.723788	100.509033	bma	working	2022-05-09T00:00:00	9:00:00	10:00:00	18	122	865	2700	0.32
5396	TF2-KS-S5-02 ถ.เจริญนคร - ปากซอยเจริญนคร 12	13.723788	100.509033	bma	working	2022-05-09T00:00:00	10:00:00	11:00:00	15	126	829	2700	0.31
5397	TF2-KS-S5-02 ถ.เจริญนคร - ปากซอยเจริญนคร 12	13.723788	100.509033	bma	working	2022-05-09T00:00:00	11:00:00	12:00:00	33	168	2290	2700	0.85
5398	TF2-KS-S5-02 ถ.เจริญนคร - ปากซอยเจริญนคร 12	13.723788	100.509033	bma	working	2022-05-09T00:00:00	12:00:00	13:00:00	21	125	794	2700	0.29
5399	TF2-KS-S5-02 ถ.เจริญนคร - ปากซอยเจริญนคร 12	13.723788	100.509033	bma	working	2022-05-09T00:00:00	13:00:00	14:00:00	21	130	822	2700	0.30
5400	TF2-KS-S5-02 ถ.เจริญนคร - ปากซอยเจริญนคร 12	13.723788	100.509033	bma	working	2022-05-09T00:00:00	14:00:00	15:00:00	15	128	856	2700	0.32
5401	TF2-KS-S5-02 ถ.เจริญนคร - ปากซอยเจริญนคร 12	13.723788	100.509033	bma	working	2022-05-09T00:00:00	15:00:00	16:00:00	17	126	748	2700	0.28
5402	TF2-KS-S5-02 ถ.เจริญนคร - ปากซอยเจริญนคร 12	13.723788	100.509033	bma	working	2022-05-09T00:00:00	16:00:00	17:00:00	24	130	764	2700	0.28
5403	TF2-KS-S5-02 ถ.เจริญนคร - ปากซอยเจริญนคร 12	13.723788	100.509033	bma	working	2022-05-09T00:00:00	17:00:00	18:00:00	28	102	1753	2700	0.65
5404	TF2-KS-S5-02 ถ.เจริญนคร - ปากซอยเจริญนคร 12	13.723788	100.509033	bma	working	2022-05-09T00:00:00	18:00:00	19:00:00	27	54	949	2700	0.35
5405	TF2-KS-S5-02 ถ.เจริญนคร - ปากซอยเจริญนคร 12	13.723788	100.509033	bma	working	2022-06-09T00:00:00	5:00:00	6:00:00	40	16	261	2700	0.10
5406	TF2-KS-S5-02 ถ.เจริญนคร - ปากซอยเจริญนคร 12	13.723788	100.509033	bma	working	2022-06-09T00:00:00	6:00:00	7:00:00	29	46	724	2700	0.27
5407	TF2-KS-S5-02 ถ.เจริญนคร - ปากซอยเจริญนคร 12	13.723788	100.509033	bma	working	2022-06-09T00:00:00	7:00:00	8:00:00	22	168	3186	2700	1.18
5408	TF2-KS-S5-02 ถ.เจริญนคร - ปากซอยเจริญนคร 12	13.723788	100.509033	bma	working	2022-06-09T00:00:00	8:00:00	9:00:00	19	131	992	2700	0.37
5409	TF2-KS-S5-02 ถ.เจริญนคร - ปากซอยเจริญนคร 12	13.723788	100.509033	bma	working	2022-06-09T00:00:00	9:00:00	10:00:00	17	128	801	2700	0.30
5410	TF2-KS-S5-02 ถ.เจริญนคร - ปากซอยเจริญนคร 12	13.723788	100.509033	bma	working	2022-06-09T00:00:00	10:00:00	11:00:00	15	128	865	2700	0.32
5411	TF2-KS-S5-02 ถ.เจริญนคร - ปากซอยเจริญนคร 12	13.723788	100.509033	bma	working	2022-06-09T00:00:00	11:00:00	12:00:00	33	129	2040	2700	0.76
5412	TF2-KS-S5-02 ถ.เจริญนคร - ปากซอยเจริญนคร 12	13.723788	100.509033	bma	working	2022-06-09T00:00:00	12:00:00	13:00:00	20	128	853	2700	0.32
5413	TF2-KS-S5-02 ถ.เจริญนคร - ปากซอยเจริญนคร 12	13.723788	100.509033	bma	working	2022-06-09T00:00:00	13:00:00	14:00:00	19	127	847	2700	0.31
5414	TF2-KS-S5-02 ถ.เจริญนคร - ปากซอยเจริญนคร 12	13.723788	100.509033	bma	working	2022-06-09T00:00:00	14:00:00	15:00:00	16	128	891	2700	0.33
5415	TF2-KS-S5-02 ถ.เจริญนคร - ปากซอยเจริญนคร 12	13.723788	100.509033	bma	working	2022-06-09T00:00:00	15:00:00	16:00:00	20	128	798	2700	0.30
5416	TF2-KS-S5-02 ถ.เจริญนคร - ปากซอยเจริญนคร 12	13.723788	100.509033	bma	working	2022-06-09T00:00:00	16:00:00	17:00:00	23	121	1400	2700	0.52
5417	TF2-KS-S5-02 ถ.เจริญนคร - ปากซอยเจริญนคร 12	13.723788	100.509033	bma	working	2022-06-09T00:00:00	17:00:00	18:00:00	29	121	1571	2700	0.58
5418	TF2-KS-S5-02 ถ.เจริญนคร - ปากซอยเจริญนคร 12	13.723788	100.509033	bma	working	2022-06-09T00:00:00	18:00:00	19:00:00	28	69	1038	2700	0.38
5419	TF2-KS-S5-02 ถ.เจริญนคร - ปากซอยเจริญนคร 12	13.723788	100.509033	bma	working	2022-07-09T00:00:00	5:00:00	6:00:00	44	18	263	2700	0.10
5420	TF2-KS-S5-02 ถ.เจริญนคร - ปากซอยเจริญนคร 12	13.723788	100.509033	bma	working	2022-07-09T00:00:00	6:00:00	7:00:00	31	50	751	2700	0.28
5421	TF2-KS-S5-02 ถ.เจริญนคร - ปากซอยเจริญนคร 12	13.723788	100.509033	bma	working	2022-07-09T00:00:00	7:00:00	8:00:00	22	169	3097	2700	1.15
5422	TF2-KS-S5-02 ถ.เจริญนคร - ปากซอยเจริญนคร 12	13.723788	100.509033	bma	working	2022-07-09T00:00:00	8:00:00	9:00:00	18	128	971	2700	0.36
5423	TF2-KS-S5-02 ถ.เจริญนคร - ปากซอยเจริญนคร 12	13.723788	100.509033	bma	working	2022-07-09T00:00:00	9:00:00	10:00:00	15	127	758	2700	0.28
5424	TF2-KS-S5-02 ถ.เจริญนคร - ปากซอยเจริญนคร 12	13.723788	100.509033	bma	working	2022-07-09T00:00:00	10:00:00	11:00:00	17	130	936	2700	0.35
5425	TF2-KS-S5-02 ถ.เจริญนคร - ปากซอยเจริญนคร 12	13.723788	100.509033	bma	working	2022-07-09T00:00:00	11:00:00	12:00:00	33	95	1752	2700	0.65
5426	TF2-KS-S5-02 ถ.เจริญนคร - ปากซอยเจริญนคร 12	13.723788	100.509033	bma	working	2022-07-09T00:00:00	12:00:00	13:00:00	20	127	841	2700	0.31
5427	TF2-KS-S5-02 ถ.เจริญนคร - ปากซอยเจริญนคร 12	13.723788	100.509033	bma	working	2022-07-09T00:00:00	13:00:00	14:00:00	16	127	850	2700	0.31
5428	TF2-KS-S5-02 ถ.เจริญนคร - ปากซอยเจริญนคร 12	13.723788	100.509033	bma	working	2022-07-09T00:00:00	14:00:00	15:00:00	17	126	868	2700	0.32
5429	TF2-KS-S5-02 ถ.เจริญนคร - ปากซอยเจริญนคร 12	13.723788	100.509033	bma	working	2022-07-09T00:00:00	15:00:00	16:00:00	19	125	789	2700	0.29
5430	TF2-KS-S5-02 ถ.เจริญนคร - ปากซอยเจริญนคร 12	13.723788	100.509033	bma	working	2022-07-09T00:00:00	16:00:00	17:00:00	23	118	2042	2700	0.76
5431	TF2-KS-S5-02 ถ.เจริญนคร - ปากซอยเจริญนคร 12	13.723788	100.509033	bma	working	2022-07-09T00:00:00	17:00:00	18:00:00	23	137	1271	2700	0.47
5432	TF2-KS-S5-02 ถ.เจริญนคร - ปากซอยเจริญนคร 12	13.723788	100.509033	bma	working	2022-07-09T00:00:00	18:00:00	19:00:00	25	80	1181	2700	0.44
5433	TF2-KS-S5-02 ถ.เจริญนคร - ปากซอยเจริญนคร 12	13.723788	100.509033	bma	working	2022-08-09T00:00:00	5:00:00	6:00:00	43	16	268	2700	0.10
5434	TF2-KS-S5-02 ถ.เจริญนคร - ปากซอยเจริญนคร 12	13.723788	100.509033	bma	working	2022-08-09T00:00:00	6:00:00	7:00:00	31	49	712	2700	0.26
5435	TF2-KS-S5-02 ถ.เจริญนคร - ปากซอยเจริญนคร 12	13.723788	100.509033	bma	working	2022-08-09T00:00:00	7:00:00	8:00:00	25	172	3095	2700	1.15
5436	TF2-KS-S5-02 ถ.เจริญนคร - ปากซอยเจริญนคร 12	13.723788	100.509033	bma	working	2022-08-09T00:00:00	8:00:00	9:00:00	22	129	966	2700	0.36
5437	TF2-KS-S5-02 ถ.เจริญนคร - ปากซอยเจริญนคร 12	13.723788	100.509033	bma	working	2022-08-09T00:00:00	9:00:00	10:00:00	17	123	839	2700	0.31
5438	TF2-KS-S5-02 ถ.เจริญนคร - ปากซอยเจริญนคร 12	13.723788	100.509033	bma	working	2022-08-09T00:00:00	10:00:00	11:00:00	18	130	861	2700	0.32
5439	TF2-KS-S5-02 ถ.เจริญนคร - ปากซอยเจริญนคร 12	13.723788	100.509033	bma	working	2022-08-09T00:00:00	11:00:00	12:00:00	34	132	2033	2700	0.75
5440	TF2-KS-S5-02 ถ.เจริญนคร - ปากซอยเจริญนคร 12	13.723788	100.509033	bma	working	2022-08-09T00:00:00	12:00:00	13:00:00	17	125	852	2700	0.32
5441	TF2-KS-S5-02 ถ.เจริญนคร - ปากซอยเจริญนคร 12	13.723788	100.509033	bma	working	2022-08-09T00:00:00	13:00:00	14:00:00	18	128	859	2700	0.32
5442	TF2-KS-S5-02 ถ.เจริญนคร - ปากซอยเจริญนคร 12	13.723788	100.509033	bma	working	2022-08-09T00:00:00	14:00:00	15:00:00	15	124	848	2700	0.31
5443	TF2-KS-S5-02 ถ.เจริญนคร - ปากซอยเจริญนคร 12	13.723788	100.509033	bma	working	2022-08-09T00:00:00	15:00:00	16:00:00	16	130	818	2700	0.30
5444	TF2-KS-S5-02 ถ.เจริญนคร - ปากซอยเจริญนคร 12	13.723788	100.509033	bma	working	2022-08-09T00:00:00	16:00:00	17:00:00	26	120	1332	2700	0.49
5445	TF2-KS-S5-02 ถ.เจริญนคร - ปากซอยเจริญนคร 12	13.723788	100.509033	bma	working	2022-08-09T00:00:00	17:00:00	18:00:00	29	120	1491	2700	0.55
5446	TF2-KS-S5-02 ถ.เจริญนคร - ปากซอยเจริญนคร 12	13.723788	100.509033	bma	working	2022-08-09T00:00:00	18:00:00	19:00:00	28	67	1069	2700	0.40
5447	TF2-KS-S5-02 ถ.เจริญนคร - ปากซอยเจริญนคร 12	13.723788	100.509033	bma	working	2022-09-09T00:00:00	5:00:00	6:00:00	43	16	262	2700	0.10
5448	TF2-KS-S5-02 ถ.เจริญนคร - ปากซอยเจริญนคร 12	13.723788	100.509033	bma	working	2022-09-09T00:00:00	6:00:00	7:00:00	31	50	706	2700	0.26
5449	TF2-KS-S5-02 ถ.เจริญนคร - ปากซอยเจริญนคร 12	13.723788	100.509033	bma	working	2022-09-09T00:00:00	7:00:00	8:00:00	25	170	3064	2700	1.13
5450	TF2-KS-S5-02 ถ.เจริญนคร - ปากซอยเจริญนคร 12	13.723788	100.509033	bma	working	2022-09-09T00:00:00	8:00:00	9:00:00	19	128	985	2700	0.36
5451	TF2-KS-S5-02 ถ.เจริญนคร - ปากซอยเจริญนคร 12	13.723788	100.509033	bma	working	2022-09-09T00:00:00	9:00:00	10:00:00	15	126	904	2700	0.33
5452	TF2-KS-S5-02 ถ.เจริญนคร - ปากซอยเจริญนคร 12	13.723788	100.509033	bma	working	2022-09-09T00:00:00	10:00:00	11:00:00	19	126	771	2700	0.29
5453	TF2-KS-S5-02 ถ.เจริญนคร - ปากซอยเจริญนคร 12	13.723788	100.509033	bma	working	2022-09-09T00:00:00	11:00:00	12:00:00	33	166	2283	2700	0.85
5454	TF2-KS-S5-02 ถ.เจริญนคร - ปากซอยเจริญนคร 12	13.723788	100.509033	bma	working	2022-09-09T00:00:00	12:00:00	13:00:00	16	123	866	2700	0.32
5455	TF2-KS-S5-02 ถ.เจริญนคร - ปากซอยเจริญนคร 12	13.723788	100.509033	bma	working	2022-09-09T00:00:00	13:00:00	14:00:00	19	127	846	2700	0.31
5456	TF2-KS-S5-02 ถ.เจริญนคร - ปากซอยเจริญนคร 12	13.723788	100.509033	bma	working	2022-09-09T00:00:00	14:00:00	15:00:00	15	127	830	2700	0.31
5457	TF2-KS-S5-02 ถ.เจริญนคร - ปากซอยเจริญนคร 12	13.723788	100.509033	bma	working	2022-09-09T00:00:00	15:00:00	16:00:00	17	127	887	2700	0.33
5458	TF2-KS-S5-02 ถ.เจริญนคร - ปากซอยเจริญนคร 12	13.723788	100.509033	bma	working	2022-09-09T00:00:00	16:00:00	17:00:00	26	130	781	2700	0.29
5459	TF2-KS-S5-02 ถ.เจริญนคร - ปากซอยเจริญนคร 12	13.723788	100.509033	bma	working	2022-09-09T00:00:00	17:00:00	18:00:00	28	100	1691	2700	0.63
5460	TF2-KS-S5-02 ถ.เจริญนคร - ปากซอยเจริญนคร 12	13.723788	100.509033	bma	working	2022-09-09T00:00:00	18:00:00	19:00:00	31	55	941	2700	0.35
5461	TF2-KS-S5-02 ถ.เจริญนคร - ปากซอยเจริญนคร 12	13.723788	100.509033	bma	working	2022-10-09T00:00:00	5:00:00	6:00:00	43	17	282	2700	0.10
5462	TF2-KS-S5-02 ถ.เจริญนคร - ปากซอยเจริญนคร 12	13.723788	100.509033	bma	working	2022-10-09T00:00:00	6:00:00	7:00:00	30	48	750	2700	0.28
5463	TF2-KS-S5-02 ถ.เจริญนคร - ปากซอยเจริญนคร 12	13.723788	100.509033	bma	working	2022-10-09T00:00:00	7:00:00	8:00:00	22	171	3083	2700	1.14
5464	TF2-KS-S5-02 ถ.เจริญนคร - ปากซอยเจริญนคร 12	13.723788	100.509033	bma	working	2022-10-09T00:00:00	8:00:00	9:00:00	19	127	988	2700	0.37
5465	TF2-KS-S5-02 ถ.เจริญนคร - ปากซอยเจริญนคร 12	13.723788	100.509033	bma	working	2022-10-09T00:00:00	9:00:00	10:00:00	15	128	913	2700	0.34
5466	TF2-KS-S5-02 ถ.เจริญนคร - ปากซอยเจริญนคร 12	13.723788	100.509033	bma	working	2022-10-09T00:00:00	10:00:00	11:00:00	17	124	960	2700	0.36
5467	TF2-KS-S5-02 ถ.เจริญนคร - ปากซอยเจริญนคร 12	13.723788	100.509033	bma	working	2022-10-09T00:00:00	11:00:00	12:00:00	31	165	2272	2700	0.84
5468	TF2-KS-S5-02 ถ.เจริญนคร - ปากซอยเจริญนคร 12	13.723788	100.509033	bma	working	2022-10-09T00:00:00	12:00:00	13:00:00	16	124	803	2700	0.30
5469	TF2-KS-S5-02 ถ.เจริญนคร - ปากซอยเจริญนคร 12	13.723788	100.509033	bma	working	2022-10-09T00:00:00	13:00:00	14:00:00	19	127	822	2700	0.30
5470	TF2-KS-S5-02 ถ.เจริญนคร - ปากซอยเจริญนคร 12	13.723788	100.509033	bma	working	2022-10-09T00:00:00	14:00:00	15:00:00	13	130	921	2700	0.34
5471	TF2-KS-S5-02 ถ.เจริญนคร - ปากซอยเจริญนคร 12	13.723788	100.509033	bma	working	2022-10-09T00:00:00	15:00:00	16:00:00	18	129	901	2700	0.33
5472	TF2-KS-S5-02 ถ.เจริญนคร - ปากซอยเจริญนคร 12	13.723788	100.509033	bma	holiday	2022-10-09T00:00:00	16:00:00	17:00:00	22	85	1275	2700	0.47
5473	TF2-KS-S5-02 ถ.เจริญนคร - ปากซอยเจริญนคร 12	13.723788	100.509033	bma	holiday	2022-10-09T00:00:00	17:00:00	18:00:00	6	201	1024	2700	0.38
5474	TF2-KS-S5-02 ถ.เจริญนคร - ปากซอยเจริญนคร 12	13.723788	100.509033	bma	holiday	2022-10-09T00:00:00	18:00:00	19:00:00	6	201	847	2700	0.31
5475	TF2-KS-S5-02 ถ.เจริญนคร - ปากซอยเจริญนคร 12	13.723788	100.509033	bma	working	2022-11-09T00:00:00	5:00:00	6:00:00	27	10	176	2700	0.07
5476	TF2-KS-S5-02 ถ.เจริญนคร - ปากซอยเจริญนคร 12	13.723788	100.509033	bma	working	2022-11-09T00:00:00	6:00:00	7:00:00	19	29	473	2700	0.18
5477	TF2-KS-S5-02 ถ.เจริญนคร - ปากซอยเจริญนคร 12	13.723788	100.509033	bma	working	2022-11-09T00:00:00	7:00:00	8:00:00	14	103	1905	2700	0.71
5478	TF2-KS-S5-02 ถ.เจริญนคร - ปากซอยเจริญนคร 12	13.723788	100.509033	bma	working	2022-11-09T00:00:00	8:00:00	9:00:00	12	76	607	2700	0.22
5479	TF2-KS-S5-02 ถ.เจริญนคร - ปากซอยเจริญนคร 12	13.723788	100.509033	bma	working	2022-11-09T00:00:00	9:00:00	10:00:00	9	75	533	2700	0.20
5480	TF2-KS-S5-02 ถ.เจริญนคร - ปากซอยเจริญนคร 12	13.723788	100.509033	bma	working	2022-11-09T00:00:00	10:00:00	11:00:00	8	78	549	2700	0.20
5481	TF2-KS-S5-02 ถ.เจริญนคร - ปากซอยเจริญนคร 12	13.723788	100.509033	bma	working	2022-11-09T00:00:00	11:00:00	12:00:00	18	101	1416	2700	0.52
5482	TF2-KS-S5-02 ถ.เจริญนคร - ปากซอยเจริญนคร 12	13.723788	100.509033	bma	working	2022-11-09T00:00:00	12:00:00	13:00:00	9	77	510	2700	0.19
5483	TF2-KS-S5-02 ถ.เจริญนคร - ปากซอยเจริญนคร 12	13.723788	100.509033	bma	working	2022-11-09T00:00:00	13:00:00	14:00:00	12	75	522	2700	0.19
5484	TF2-KS-S5-02 ถ.เจริญนคร - ปากซอยเจริญนคร 12	13.723788	100.509033	bma	working	2022-11-09T00:00:00	14:00:00	15:00:00	7	76	592	2700	0.22
5485	TF2-KS-S5-02 ถ.เจริญนคร - ปากซอยเจริญนคร 12	13.723788	100.509033	bma	working	2022-11-09T00:00:00	15:00:00	16:00:00	12	79	546	2700	0.20
5486	TF2-KS-S5-02 ถ.เจริญนคร - ปากซอยเจริญนคร 12	13.723788	100.509033	bma	holiday	2022-11-09T00:00:00	16:00:00	17:00:00	15	51	807	2700	0.30
5487	TF2-KS-S5-02 ถ.เจริญนคร - ปากซอยเจริญนคร 12	13.723788	100.509033	bma	holiday	2022-11-09T00:00:00	17:00:00	18:00:00	0	144	683	2700	0.25
5488	TF2-KS-S5-02 ถ.เจริญนคร - ปากซอยเจริญนคร 12	13.723788	100.509033	bma	holiday	2022-11-09T00:00:00	18:00:00	19:00:00	5	166	513	2700	0.19
5489	TF2-PP-S1-01 ถ.กรุงเกษม - ถ. วังเจ้าสาย	13.742948	100.51573	bma	working	2022-05-09T00:00:00	5:00:00	6:00:00	68	20	264	2700	0.10
5490	TF2-PP-S1-01 ถ.กรุงเกษม - ถ. วังเจ้าสาย	13.742948	100.51573	bma	working	2022-05-09T00:00:00	6:00:00	7:00:00	48	63	746	2700	0.28
5491	TF2-PP-S1-01 ถ.กรุงเกษม - ถ. วังเจ้าสาย	13.742948	100.51573	bma	working	2022-05-09T00:00:00	7:00:00	8:00:00	38	193	1109	2700	0.41
5492	TF2-PP-S1-01 ถ.กรุงเกษม - ถ. วังเจ้าสาย	13.742948	100.51573	bma	working	2022-05-09T00:00:00	8:00:00	9:00:00	45	106	1096	2700	0.41
5493	TF2-PP-S1-01 ถ.กรุงเกษม - ถ. วังเจ้าสาย	13.742948	100.51573	bma	working	2022-05-09T00:00:00	9:00:00	10:00:00	44	98	1077	2700	0.40
5494	TF2-PP-S1-01 ถ.กรุงเกษม - ถ. วังเจ้าสาย	13.742948	100.51573	bma	working	2022-05-09T00:00:00	10:00:00	11:00:00	43	101	989	2700	0.37
5495	TF2-PP-S1-01 ถ.กรุงเกษม - ถ. วังเจ้าสาย	13.742948	100.51573	bma	working	2022-05-09T00:00:00	11:00:00	12:00:00	51	200	1342	2700	0.50
5496	TF2-PP-S1-01 ถ.กรุงเกษม - ถ. วังเจ้าสาย	13.742948	100.51573	bma	working	2022-05-09T00:00:00	12:00:00	13:00:00	41	96	950	2700	0.35
5497	TF2-PP-S1-01 ถ.กรุงเกษม - ถ. วังเจ้าสาย	13.742948	100.51573	bma	working	2022-05-09T00:00:00	13:00:00	14:00:00	42	94	981	2700	0.36
5498	TF2-PP-S1-01 ถ.กรุงเกษม - ถ. วังเจ้าสาย	13.742948	100.51573	bma	working	2022-05-09T00:00:00	14:00:00	15:00:00	41	94	1006	2700	0.37
5499	TF2-PP-S1-01 ถ.กรุงเกษม - ถ. วังเจ้าสาย	13.742948	100.51573	bma	working	2022-05-09T00:00:00	15:00:00	16:00:00	42	104	906	2700	0.34
5500	TF2-PP-S1-01 ถ.กรุงเกษม - ถ. วังเจ้าสาย	13.742948	100.51573	bma	working	2022-05-09T00:00:00	16:00:00	17:00:00	46	201	786	2700	0.29
5501	TF2-PP-S1-01 ถ.กรุงเกษม - ถ. วังเจ้าสาย	13.742948	100.51573	bma	working	2022-05-09T00:00:00	17:00:00	18:00:00	42	201	740	2700	0.27
5502	TF2-PP-S1-01 ถ.กรุงเกษม - ถ. วังเจ้าสาย	13.742948	100.51573	bma	working	2022-05-09T00:00:00	18:00:00	19:00:00	22	201	105	2700	0.04
5503	TF2-PP-S1-01 ถ.กรุงเกษม - ถ. วังเจ้าสาย	13.742948	100.51573	bma	working	2022-06-09T00:00:00	5:00:00	6:00:00	70	31	204	2700	0.08
5504	TF2-PP-S1-01 ถ.กรุงเกษม - ถ. วังเจ้าสาย	13.742948	100.51573	bma	working	2022-06-09T00:00:00	6:00:00	7:00:00	49	95	595	2700	0.22
5505	TF2-PP-S1-01 ถ.กรุงเกษม - ถ. วังเจ้าสาย	13.742948	100.51573	bma	working	2022-06-09T00:00:00	7:00:00	8:00:00	34	202	815	2700	0.30
5506	TF2-PP-S1-01 ถ.กรุงเกษม - ถ. วังเจ้าสาย	13.742948	100.51573	bma	working	2022-06-09T00:00:00	8:00:00	9:00:00	43	124	734	2700	0.27
5507	TF2-PP-S1-01 ถ.กรุงเกษม - ถ. วังเจ้าสาย	13.742948	100.51573	bma	working	2022-06-09T00:00:00	9:00:00	10:00:00	41	122	673	2700	0.25
5508	TF2-PP-S1-01 ถ.กรุงเกษม - ถ. วังเจ้าสาย	13.742948	100.51573	bma	working	2022-06-09T00:00:00	10:00:00	11:00:00	41	122	628	2700	0.23
5509	TF2-PP-S1-01 ถ.กรุงเกษม - ถ. วังเจ้าสาย	13.742948	100.51573	bma	working	2022-06-09T00:00:00	11:00:00	12:00:00	47	191	1195	2700	0.44
5510	TF2-PP-S1-01 ถ.กรุงเกษม - ถ. วังเจ้าสาย	13.742948	100.51573	bma	working	2022-06-09T00:00:00	12:00:00	13:00:00	42	122	603	2700	0.22
5511	TF2-PP-S1-01 ถ.กรุงเกษม - ถ. วังเจ้าสาย	13.742948	100.51573	bma	working	2022-06-09T00:00:00	13:00:00	14:00:00	42	120	601	2700	0.22
5512	TF2-PP-S1-01 ถ.กรุงเกษม - ถ. วังเจ้าสาย	13.742948	100.51573	bma	working	2022-06-09T00:00:00	14:00:00	15:00:00	39	120	651	2700	0.24
5513	TF2-PP-S1-01 ถ.กรุงเกษม - ถ. วังเจ้าสาย	13.742948	100.51573	bma	working	2022-06-09T00:00:00	15:00:00	16:00:00	38	120	568	2700	0.21
5514	TF2-PP-S1-01 ถ.กรุงเกษม - ถ. วังเจ้าสาย	13.742948	100.51573	bma	working	2022-06-09T00:00:00	16:00:00	17:00:00	43	202	578	2700	0.21
5515	TF2-PP-S1-01 ถ.กรุงเกษม - ถ. วังเจ้าสาย	13.742948	100.51573	bma	working	2022-06-09T00:00:00	17:00:00	18:00:00	42	202	686	2700	0.25
5516	TF2-PP-S1-01 ถ.กรุงเกษม - ถ. วังเจ้าสาย	13.742948	100.51573	bma	working	2022-06-09T00:00:00	18:00:00	19:00:00	34	202	533	2700	0.20
5517	TF2-PP-S1-01 ถ.กรุงเกษม - ถ. วังเจ้าสาย	13.742948	100.51573	bma	working	2022-07-09T00:00:00	5:00:00	6:00:00	77	42	183	2700	0.07
5518	TF2-PP-S1-01 ถ.กรุงเกษม - ถ. วังเจ้าสาย	13.742948	100.51573	bma	working	2022-07-09T00:00:00	6:00:00	7:00:00	54	126	492	2700	0.18
5519	TF2-PP-S1-01 ถ.กรุงเกษม - ถ. วังเจ้าสาย	13.742948	100.51573	bma	working	2022-07-09T00:00:00	7:00:00	8:00:00	25	202	445	2700	0.16
5520	TF2-PP-S1-01 ถ.กรุงเกษม - ถ. วังเจ้าสาย	13.742948	100.51573	bma	working	2022-07-09T00:00:00	8:00:00	9:00:00	43	143	405	2700	0.15
5521	TF2-PP-S1-01 ถ.กรุงเกษม - ถ. วังเจ้าสาย	13.742948	100.51573	bma	working	2022-07-09T00:00:00	9:00:00	10:00:00	42	147	250	2700	0.09
5522	TF2-PP-S1-01 ถ.กรุงเกษม - ถ. วังเจ้าสาย	13.742948	100.51573	bma	working	2022-07-09T00:00:00	10:00:00	11:00:00	37	142	248	2700	0.09
5523	TF2-PP-S1-01 ถ.กรุงเกษม - ถ. วังเจ้าสาย	13.742948	100.51573	bma	working	2022-07-09T00:00:00	11:00:00	12:00:00	46	182	1027	2700	0.38
5524	TF2-PP-S1-01 ถ.กรุงเกษม - ถ. วังเจ้าสาย	13.742948	100.51573	bma	working	2022-07-09T00:00:00	12:00:00	13:00:00	39	143	301	2700	0.11
5525	TF2-PP-S1-01 ถ.กรุงเกษม - ถ. วังเจ้าสาย	13.742948	100.51573	bma	working	2022-07-09T00:00:00	13:00:00	14:00:00	36	144	237	2700	0.09
5526	TF2-PP-S1-01 ถ.กรุงเกษม - ถ. วังเจ้าสาย	13.742948	100.51573	bma	working	2022-07-09T00:00:00	14:00:00	15:00:00	40	139	293	2700	0.11
5527	TF2-PP-S1-01 ถ.กรุงเกษม - ถ. วังเจ้าสาย	13.742948	100.51573	bma	working	2022-07-09T00:00:00	15:00:00	16:00:00	39	144	243	2700	0.09
5528	TF2-PP-S1-01 ถ.กรุงเกษม - ถ. วังเจ้าสาย	13.742948	100.51573	bma	working	2022-07-09T00:00:00	16:00:00	17:00:00	38	201	353	2700	0.13
5529	TF2-PP-S1-01 ถ.กรุงเกษม - ถ. วังเจ้าสาย	13.742948	100.51573	bma	working	2022-07-09T00:00:00	17:00:00	18:00:00	43	201	616	2700	0.23
5530	TF2-PP-S1-01 ถ.กรุงเกษม - ถ. วังเจ้าสาย	13.742948	100.51573	bma	working	2022-07-09T00:00:00	18:00:00	19:00:00	46	201	1037	2700	0.38
5531	TF2-PP-S1-01 ถ.กรุงเกษม - ถ. วังเจ้าสาย	13.742948	100.51573	bma	working	2022-08-09T00:00:00	5:00:00	6:00:00	71	47	209	2700	0.08
5532	TF2-PP-S1-01 ถ.กรุงเกษม - ถ. วังเจ้าสาย	13.742948	100.51573	bma	working	2022-08-09T00:00:00	6:00:00	7:00:00	50	135	585	2700	0.22
5533	TF2-PP-S1-01 ถ.กรุงเกษม - ถ. วังเจ้าสาย	13.742948	100.51573	bma	working	2022-08-09T00:00:00	7:00:00	8:00:00	29	191	357	2700	0.13
5534	TF2-PP-S1-01 ถ.กรุงเกษม - ถ. วังเจ้าสาย	13.742948	100.51573	bma	working	2022-08-09T00:00:00	8:00:00	9:00:00	34	119	306	2700	0.11
5535	TF2-PP-S1-01 ถ.กรุงเกษม - ถ. วังเจ้าสาย	13.742948	100.51573	bma	working	2022-08-09T00:00:00	9:00:00	10:00:00	32	116	226	2700	0.08
5536	TF2-PP-S1-01 ถ.กรุงเกษม - ถ. วังเจ้าสาย	13.742948	100.51573	bma	working	2022-08-09T00:00:00	10:00:00	11:00:00	32	115	225	2700	0.08
5537	TF2-PP-S1-01 ถ.กรุงเกษม - ถ. วังเจ้าสาย	13.742948	100.51573	bma	working	2022-08-09T00:00:00	11:00:00	12:00:00	39	177	925	2700	0.34
5538	TF2-PP-S1-01 ถ.กรุงเกษม - ถ. วังเจ้าสาย	13.742948	100.51573	bma	working	2022-08-09T00:00:00	12:00:00	13:00:00	34	115	254	2700	0.09
5539	TF2-PP-S1-01 ถ.กรุงเกษม - ถ. วังเจ้าสาย	13.742948	100.51573	bma	working	2022-08-09T00:00:00	13:00:00	14:00:00	31	115	245	2700	0.09
5540	TF2-PP-S1-01 ถ.กรุงเกษม - ถ. วังเจ้าสาย	13.742948	100.51573	bma	working	2022-08-09T00:00:00	14:00:00	15:00:00	33	113	200	2700	0.07
5541	TF2-PP-S1-01 ถ.กรุงเกษม - ถ. วังเจ้าสาย	13.742948	100.51573	bma	working	2022-08-09T00:00:00	15:00:00	16:00:00	35	113	243	2700	0.09
5542	TF2-PP-S1-01 ถ.กรุงเกษม - ถ. วังเจ้าสาย	13.742948	100.51573	bma	working	2022-08-09T00:00:00	16:00:00	17:00:00	40	201	525	2700	0.19
5543	TF2-PP-S1-01 ถ.กรุงเกษม - ถ. วังเจ้าสาย	13.742948	100.51573	bma	working	2022-08-09T00:00:00	17:00:00	18:00:00	42	202	597	2700	0.22
5544	TF2-PP-S1-01 ถ.กรุงเกษม - ถ. วังเจ้าสาย	13.742948	100.51573	bma	working	2022-08-09T00:00:00	18:00:00	19:00:00	49	202	708	2700	0.26
5545	TF2-PP-S1-01 ถ.กรุงเกษม - ถ. วังเจ้าสาย	13.742948	100.51573	bma	working	2022-09-09T00:00:00	5:00:00	6:00:00	75	47	216	2700	0.08
5546	TF2-PP-S1-01 ถ.กรุงเกษม - ถ. วังเจ้าสาย	13.742948	100.51573	bma	working	2022-09-09T00:00:00	6:00:00	7:00:00	53	147	637	2700	0.24
5547	TF2-PP-S1-01 ถ.กรุงเกษม - ถ. วังเจ้าสาย	13.742948	100.51573	bma	working	2022-09-09T00:00:00	7:00:00	8:00:00	33	148	236	2700	0.09
5548	TF2-PP-S1-01 ถ.กรุงเกษม - ถ. วังเจ้าสาย	13.742948	100.51573	bma	working	2022-09-09T00:00:00	8:00:00	9:00:00	29	93	304	2700	0.11
5549	TF2-PP-S1-01 ถ.กรุงเกษม - ถ. วังเจ้าสาย	13.742948	100.51573	bma	working	2022-09-09T00:00:00	9:00:00	10:00:00	28	84	241	2700	0.09
5550	TF2-PP-S1-01 ถ.กรุงเกษม - ถ. วังเจ้าสาย	13.742948	100.51573	bma	working	2022-09-09T00:00:00	10:00:00	11:00:00	24	89	192	2700	0.07
5551	TF2-PP-S1-01 ถ.กรุงเกษม - ถ. วังเจ้าสาย	13.742948	100.51573	bma	working	2022-09-09T00:00:00	11:00:00	12:00:00	37	169	846	2700	0.31
5552	TF2-PP-S1-01 ถ.กรุงเกษม - ถ. วังเจ้าสาย	13.742948	100.51573	bma	working	2022-09-09T00:00:00	12:00:00	13:00:00	27	87	146	2700	0.05
5553	TF2-PP-S1-01 ถ.กรุงเกษม - ถ. วังเจ้าสาย	13.742948	100.51573	bma	working	2022-09-09T00:00:00	13:00:00	14:00:00	26	87	251	2700	0.09
5554	TF2-PP-S1-01 ถ.กรุงเกษม - ถ. วังเจ้าสาย	13.742948	100.51573	bma	working	2022-09-09T00:00:00	14:00:00	15:00:00	25	85	111	2700	0.04
5555	TF2-PP-S1-01 ถ.กรุงเกษม - ถ. วังเจ้าสาย	13.742948	100.51573	bma	working	2022-09-09T00:00:00	15:00:00	16:00:00	29	85	229	2700	0.08
5556	TF2-PP-S1-01 ถ.กรุงเกษม - ถ. วังเจ้าสาย	13.742948	100.51573	bma	working	2022-09-09T00:00:00	16:00:00	17:00:00	42	202	633	2700	0.23
5557	TF2-PP-S1-01 ถ.กรุงเกษม - ถ. วังเจ้าสาย	13.742948	100.51573	bma	working	2022-09-09T00:00:00	17:00:00	18:00:00	41	202	585	2700	0.22
5558	TF2-PP-S1-01 ถ.กรุงเกษม - ถ. วังเจ้าสาย	13.742948	100.51573	bma	working	2022-09-09T00:00:00	18:00:00	19:00:00	49	202	382	2700	0.14
5559	TF2-PP-S1-01 ถ.กรุงเกษม - ถ. วังเจ้าสาย	13.742948	100.51573	bma	working	2022-10-09T00:00:00	5:00:00	6:00:00	72	58	23	2700	0.01
5560	TF2-PP-S1-01 ถ.กรุงเกษม - ถ. วังเจ้าสาย	13.742948	100.51573	bma	holiday	2022-10-09T00:00:00	6:00:00	7:00:00	50	178	56	2700	0.02
5561	TF2-PP-S1-01 ถ.กรุงเกษม - ถ. วังเจ้าสาย	13.742948	100.51573	bma	holiday	2022-10-09T00:00:00	7:00:00	8:00:00	48	117	597	2700	0.22
5562	TF2-PP-S1-01 ถ.กรุงเกษม - ถ. วังเจ้าสาย	13.742948	100.51573	bma	holiday	2022-10-09T00:00:00	8:00:00	9:00:00	47	202	976	2700	0.36
5563	TF2-PP-S1-01 ถ.กรุงเกษม - ถ. วังเจ้าสาย	13.742948	100.51573	bma	working	2022-10-09T00:00:00	9:00:00	10:00:00	45	201	840	2700	0.31
5564	TF2-PP-S1-01 ถ.กรุงเกษม - ถ. วังเจ้าสาย	13.742948	100.51573	bma	working	2022-10-09T00:00:00	10:00:00	11:00:00	42	202	874	2700	0.32
5565	TF2-PP-S1-01 ถ.กรุงเกษม - ถ. วังเจ้าสาย	13.742948	100.51573	bma	holiday	2022-10-09T00:00:00	11:00:00	12:00:00	34	198	714	2700	0.26
5566	TF2-PP-S1-01 ถ.กรุงเกษม - ถ. วังเจ้าสาย	13.742948	100.51573	bma	working	2022-10-09T00:00:00	12:00:00	13:00:00	47	202	914	2700	0.34
5567	TF2-PP-S1-01 ถ.กรุงเกษม - ถ. วังเจ้าสาย	13.742948	100.51573	bma	working	2022-10-09T00:00:00	13:00:00	14:00:00	40	201	903	2700	0.33
5568	TF2-PP-S1-01 ถ.กรุงเกษม - ถ. วังเจ้าสาย	13.742948	100.51573	bma	working	2022-10-09T00:00:00	14:00:00	15:00:00	47	202	824	2700	0.31
5569	TF2-PP-S1-01 ถ.กรุงเกษม - ถ. วังเจ้าสาย	13.742948	100.51573	bma	working	2022-10-09T00:00:00	15:00:00	16:00:00	45	202	857	2700	0.32
5570	TF2-PP-S1-01 ถ.กรุงเกษม - ถ. วังเจ้าสาย	13.742948	100.51573	bma	holiday	2022-10-09T00:00:00	16:00:00	17:00:00	41	152	627	2700	0.23
5571	TF2-PP-S1-01 ถ.กรุงเกษม - ถ. วังเจ้าสาย	13.742948	100.51573	bma	holiday	2022-10-09T00:00:00	17:00:00	18:00:00	50	167	716	2700	0.27
5572	TF2-PP-S1-01 ถ.กรุงเกษม - ถ. วังเจ้าสาย	13.742948	100.51573	bma	holiday	2022-10-09T00:00:00	18:00:00	19:00:00	45	176	542	2700	0.20
5573	TF2-PP-S1-01 ถ.กรุงเกษม - ถ. วังเจ้าสาย	13.742948	100.51573	bma	working	2022-11-09T00:00:00	5:00:00	6:00:00	44	37	27	2700	0.01
5574	TF2-PP-S1-01 ถ.กรุงเกษม - ถ. วังเจ้าสาย	13.742948	100.51573	bma	holiday	2022-11-09T00:00:00	6:00:00	7:00:00	31	108	73	2700	0.03
5575	TF2-PP-S1-01 ถ.กรุงเกษม - ถ. วังเจ้าสาย	13.742948	100.51573	bma	holiday	2022-11-09T00:00:00	7:00:00	8:00:00	27	71	399	2700	0.15
5576	TF2-PP-S1-01 ถ.กรุงเกษม - ถ. วังเจ้าสาย	13.742948	100.51573	bma	holiday	2022-11-09T00:00:00	8:00:00	9:00:00	27	159	596	2700	0.22
5577	TF2-PP-S1-01 ถ.กรุงเกษม - ถ. วังเจ้าสาย	13.742948	100.51573	bma	working	2022-11-09T00:00:00	9:00:00	10:00:00	26	158	554	2700	0.21
5578	TF2-PP-S1-01 ถ.กรุงเกษม - ถ. วังเจ้าสาย	13.742948	100.51573	bma	working	2022-11-09T00:00:00	10:00:00	11:00:00	24	160	517	2700	0.19
5579	TF2-PP-S1-01 ถ.กรุงเกษม - ถ. วังเจ้าสาย	13.742948	100.51573	bma	holiday	2022-11-09T00:00:00	11:00:00	12:00:00	24	119	438	2700	0.16
5580	TF2-PP-S1-01 ถ.กรุงเกษม - ถ. วังเจ้าสาย	13.742948	100.51573	bma	working	2022-11-09T00:00:00	12:00:00	13:00:00	28	160	562	2700	0.21
5581	TF2-PP-S1-01 ถ.กรุงเกษม - ถ. วังเจ้าสาย	13.742948	100.51573	bma	working	2022-11-09T00:00:00	13:00:00	14:00:00	27	161	564	2700	0.21
5582	TF2-PP-S1-01 ถ.กรุงเกษม - ถ. วังเจ้าสาย	13.742948	100.51573	bma	working	2022-11-09T00:00:00	14:00:00	15:00:00	27	160	517	2700	0.19
5583	TF2-PP-S1-01 ถ.กรุงเกษม - ถ. วังเจ้าสาย	13.742948	100.51573	bma	working	2022-11-09T00:00:00	15:00:00	16:00:00	25	158	547	2700	0.20
5584	TF2-PP-S1-01 ถ.กรุงเกษม - ถ. วังเจ้าสาย	13.742948	100.51573	bma	holiday	2022-11-09T00:00:00	16:00:00	17:00:00	26	90	396	2700	0.15
5585	TF2-PP-S1-01 ถ.กรุงเกษม - ถ. วังเจ้าสาย	13.742948	100.51573	bma	holiday	2022-11-09T00:00:00	17:00:00	18:00:00	32	98	439	2700	0.16
5586	TF2-PP-S1-01 ถ.กรุงเกษม - ถ. วังเจ้าสาย	13.742948	100.51573	bma	holiday	2022-11-09T00:00:00	18:00:00	19:00:00	26	105	367	2700	0.14
5587	TF2-PP-S3-04  ถ.ดำรงรักษ์ - ถ. จักรพรรดิพงษ์	13.754913	100.509578	bma	working	2022-05-09T00:00:00	5:00:00	6:00:00	29	38	33	1800	0.02
5588	TF2-PP-S3-04  ถ.ดำรงรักษ์ - ถ. จักรพรรดิพงษ์	13.754913	100.509578	bma	working	2022-05-09T00:00:00	6:00:00	7:00:00	21	114	100	1800	0.06
5589	TF2-PP-S3-04  ถ.ดำรงรักษ์ - ถ. จักรพรรดิพงษ์	13.754913	100.509578	bma	working	2022-05-09T00:00:00	7:00:00	8:00:00	31	70	621	1800	0.35
5590	TF2-PP-S3-04  ถ.ดำรงรักษ์ - ถ. จักรพรรดิพงษ์	13.754913	100.509578	bma	working	2022-05-09T00:00:00	8:00:00	9:00:00	15	103	802	1800	0.45
5591	TF2-PP-S3-04  ถ.ดำรงรักษ์ - ถ. จักรพรรดิพงษ์	13.754913	100.509578	bma	working	2022-05-09T00:00:00	9:00:00	10:00:00	9	102	712	1800	0.40
5592	TF2-PP-S3-04  ถ.ดำรงรักษ์ - ถ. จักรพรรดิพงษ์	13.754913	100.509578	bma	working	2022-05-09T00:00:00	10:00:00	11:00:00	8	100	737	1800	0.41
5593	TF2-PP-S3-04  ถ.ดำรงรักษ์ - ถ. จักรพรรดิพงษ์	13.754913	100.509578	bma	working	2022-05-09T00:00:00	11:00:00	12:00:00	18	121	964	1800	0.54
5594	TF2-PP-S3-04  ถ.ดำรงรักษ์ - ถ. จักรพรรดิพงษ์	13.754913	100.509578	bma	working	2022-05-09T00:00:00	12:00:00	13:00:00	11	103	712	1800	0.40
5595	TF2-PP-S3-04  ถ.ดำรงรักษ์ - ถ. จักรพรรดิพงษ์	13.754913	100.509578	bma	working	2022-05-09T00:00:00	13:00:00	14:00:00	14	99	663	1800	0.37
5596	TF2-PP-S3-04  ถ.ดำรงรักษ์ - ถ. จักรพรรดิพงษ์	13.754913	100.509578	bma	working	2022-05-09T00:00:00	14:00:00	15:00:00	11	101	728	1800	0.40
5597	TF2-PP-S3-04  ถ.ดำรงรักษ์ - ถ. จักรพรรดิพงษ์	13.754913	100.509578	bma	working	2022-05-09T00:00:00	15:00:00	16:00:00	14	104	629	1800	0.35
5598	TF2-PP-S3-04  ถ.ดำรงรักษ์ - ถ. จักรพรรดิพงษ์	13.754913	100.509578	bma	working	2022-05-09T00:00:00	16:00:00	17:00:00	18	78	884	1800	0.49
5599	TF2-PP-S3-04  ถ.ดำรงรักษ์ - ถ. จักรพรรดิพงษ์	13.754913	100.509578	bma	working	2022-05-09T00:00:00	17:00:00	18:00:00	21	202	384	1800	0.21
5600	TF2-PP-S3-04  ถ.ดำรงรักษ์ - ถ. จักรพรรดิพงษ์	13.754913	100.509578	bma	working	2022-05-09T00:00:00	18:00:00	19:00:00	24	149	341	1800	0.19
5601	TF2-PP-S3-04  ถ.ดำรงรักษ์ - ถ. จักรพรรดิพงษ์	13.754913	100.509578	bma	working	2022-06-09T00:00:00	5:00:00	6:00:00	29	39	34	1800	0.02
5602	TF2-PP-S3-04  ถ.ดำรงรักษ์ - ถ. จักรพรรดิพงษ์	13.754913	100.509578	bma	working	2022-06-09T00:00:00	6:00:00	7:00:00	21	114	100	1800	0.06
5603	TF2-PP-S3-04  ถ.ดำรงรักษ์ - ถ. จักรพรรดิพงษ์	13.754913	100.509578	bma	working	2022-06-09T00:00:00	7:00:00	8:00:00	26	102	468	1800	0.26
5604	TF2-PP-S3-04  ถ.ดำรงรักษ์ - ถ. จักรพรรดิพงษ์	13.754913	100.509578	bma	working	2022-06-09T00:00:00	8:00:00	9:00:00	18	113	630	1800	0.35
5605	TF2-PP-S3-04  ถ.ดำรงรักษ์ - ถ. จักรพรรดิพงษ์	13.754913	100.509578	bma	working	2022-06-09T00:00:00	9:00:00	10:00:00	14	113	506	1800	0.28
5606	TF2-PP-S3-04  ถ.ดำรงรักษ์ - ถ. จักรพรรดิพงษ์	13.754913	100.509578	bma	working	2022-06-09T00:00:00	10:00:00	11:00:00	12	113	482	1800	0.27
5607	TF2-PP-S3-04  ถ.ดำรงรักษ์ - ถ. จักรพรรดิพงษ์	13.754913	100.509578	bma	working	2022-06-09T00:00:00	11:00:00	12:00:00	21	102	910	1800	0.51
5608	TF2-PP-S3-04  ถ.ดำรงรักษ์ - ถ. จักรพรรดิพงษ์	13.754913	100.509578	bma	working	2022-06-09T00:00:00	12:00:00	13:00:00	18	110	478	1800	0.27
5609	TF2-PP-S3-04  ถ.ดำรงรักษ์ - ถ. จักรพรรดิพงษ์	13.754913	100.509578	bma	working	2022-06-09T00:00:00	13:00:00	14:00:00	15	111	471	1800	0.26
5610	TF2-PP-S3-04  ถ.ดำรงรักษ์ - ถ. จักรพรรดิพงษ์	13.754913	100.509578	bma	working	2022-06-09T00:00:00	14:00:00	15:00:00	17	109	532	1800	0.30
5611	TF2-PP-S3-04  ถ.ดำรงรักษ์ - ถ. จักรพรรดิพงษ์	13.754913	100.509578	bma	working	2022-06-09T00:00:00	15:00:00	16:00:00	17	111	471	1800	0.26
5612	TF2-PP-S3-04  ถ.ดำรงรักษ์ - ถ. จักรพรรดิพงษ์	13.754913	100.509578	bma	working	2022-06-09T00:00:00	16:00:00	17:00:00	23	69	635	1800	0.35
5613	TF2-PP-S3-04  ถ.ดำรงรักษ์ - ถ. จักรพรรดิพงษ์	13.754913	100.509578	bma	working	2022-06-09T00:00:00	17:00:00	18:00:00	18	189	546	1800	0.30
5614	TF2-PP-S3-04  ถ.ดำรงรักษ์ - ถ. จักรพรรดิพงษ์	13.754913	100.509578	bma	working	2022-06-09T00:00:00	18:00:00	19:00:00	17	113	527	1800	0.29
5615	TF2-PP-S3-04  ถ.ดำรงรักษ์ - ถ. จักรพรรดิพงษ์	13.754913	100.509578	bma	working	2022-07-09T00:00:00	5:00:00	6:00:00	29	38	33	1800	0.02
5616	TF2-PP-S3-04  ถ.ดำรงรักษ์ - ถ. จักรพรรดิพงษ์	13.754913	100.509578	bma	working	2022-07-09T00:00:00	6:00:00	7:00:00	21	113	89	1800	0.05
5617	TF2-PP-S3-04  ถ.ดำรงรักษ์ - ถ. จักรพรรดิพงษ์	13.754913	100.509578	bma	working	2022-07-09T00:00:00	7:00:00	8:00:00	21	137	386	1800	0.21
5618	TF2-PP-S3-04  ถ.ดำรงรักษ์ - ถ. จักรพรรดิพงษ์	13.754913	100.509578	bma	working	2022-07-09T00:00:00	8:00:00	9:00:00	20	125	419	1800	0.23
5619	TF2-PP-S3-04  ถ.ดำรงรักษ์ - ถ. จักรพรรดิพงษ์	13.754913	100.509578	bma	working	2022-07-09T00:00:00	9:00:00	10:00:00	17	122	314	1800	0.17
5620	TF2-PP-S3-04  ถ.ดำรงรักษ์ - ถ. จักรพรรดิพงษ์	13.754913	100.509578	bma	working	2022-07-09T00:00:00	10:00:00	11:00:00	21	122	212	1800	0.12
5621	TF2-PP-S3-04  ถ.ดำรงรักษ์ - ถ. จักรพรรดิพงษ์	13.754913	100.509578	bma	working	2022-07-09T00:00:00	11:00:00	12:00:00	21	83	831	1800	0.46
5622	TF2-PP-S3-04  ถ.ดำรงรักษ์ - ถ. จักรพรรดิพงษ์	13.754913	100.509578	bma	working	2022-07-09T00:00:00	12:00:00	13:00:00	22	122	252	1800	0.14
5623	TF2-PP-S3-04  ถ.ดำรงรักษ์ - ถ. จักรพรรดิพงษ์	13.754913	100.509578	bma	working	2022-07-09T00:00:00	13:00:00	14:00:00	20	121	223	1800	0.12
5624	TF2-PP-S3-04  ถ.ดำรงรักษ์ - ถ. จักรพรรดิพงษ์	13.754913	100.509578	bma	working	2022-07-09T00:00:00	14:00:00	15:00:00	18	122	313	1800	0.17
5625	TF2-PP-S3-04  ถ.ดำรงรักษ์ - ถ. จักรพรรดิพงษ์	13.754913	100.509578	bma	working	2022-07-09T00:00:00	15:00:00	16:00:00	20	121	306	1800	0.17
5626	TF2-PP-S3-04  ถ.ดำรงรักษ์ - ถ. จักรพรรดิพงษ์	13.754913	100.509578	bma	working	2022-07-09T00:00:00	16:00:00	17:00:00	28	60	309	1800	0.17
5627	TF2-PP-S3-04  ถ.ดำรงรักษ์ - ถ. จักรพรรดิพงษ์	13.754913	100.509578	bma	working	2022-07-09T00:00:00	17:00:00	18:00:00	22	92	698	1800	0.39
5628	TF2-PP-S3-04  ถ.ดำรงรักษ์ - ถ. จักรพรรดิพงษ์	13.754913	100.509578	bma	working	2022-07-09T00:00:00	18:00:00	19:00:00	17	77	709	1800	0.39
5629	TF2-PP-S3-04  ถ.ดำรงรักษ์ - ถ. จักรพรรดิพงษ์	13.754913	100.509578	bma	working	2022-08-09T00:00:00	5:00:00	6:00:00	49	23	36	1800	0.02
5630	TF2-PP-S3-04  ถ.ดำรงรักษ์ - ถ. จักรพรรดิพงษ์	13.754913	100.509578	bma	working	2022-08-09T00:00:00	6:00:00	7:00:00	35	71	108	1800	0.06
5631	TF2-PP-S3-04  ถ.ดำรงรักษ์ - ถ. จักรพรรดิพงษ์	13.754913	100.509578	bma	working	2022-08-09T00:00:00	7:00:00	8:00:00	17	110	296	1800	0.16
5632	TF2-PP-S3-04  ถ.ดำรงรักษ์ - ถ. จักรพรรดิพงษ์	13.754913	100.509578	bma	working	2022-08-09T00:00:00	8:00:00	9:00:00	24	101	708	1800	0.39
5633	TF2-PP-S3-04  ถ.ดำรงรักษ์ - ถ. จักรพรรดิพงษ์	13.754913	100.509578	bma	working	2022-08-09T00:00:00	9:00:00	10:00:00	26	95	632	1800	0.35
5634	TF2-PP-S3-04  ถ.ดำรงรักษ์ - ถ. จักรพรรดิพงษ์	13.754913	100.509578	bma	working	2022-08-09T00:00:00	10:00:00	11:00:00	24	95	570	1800	0.32
5635	TF2-PP-S3-04  ถ.ดำรงรักษ์ - ถ. จักรพรรดิพงษ์	13.754913	100.509578	bma	working	2022-08-09T00:00:00	11:00:00	12:00:00	20	93	602	1800	0.33
5636	TF2-PP-S3-04  ถ.ดำรงรักษ์ - ถ. จักรพรรดิพงษ์	13.754913	100.509578	bma	working	2022-08-09T00:00:00	12:00:00	13:00:00	22	93	537	1800	0.30
5637	TF2-PP-S3-04  ถ.ดำรงรักษ์ - ถ. จักรพรรดิพงษ์	13.754913	100.509578	bma	working	2022-08-09T00:00:00	13:00:00	14:00:00	24	92	537	1800	0.30
5638	TF2-PP-S3-04  ถ.ดำรงรักษ์ - ถ. จักรพรรดิพงษ์	13.754913	100.509578	bma	working	2022-08-09T00:00:00	14:00:00	15:00:00	21	99	589	1800	0.33
5639	TF2-PP-S3-04  ถ.ดำรงรักษ์ - ถ. จักรพรรดิพงษ์	13.754913	100.509578	bma	working	2022-08-09T00:00:00	15:00:00	16:00:00	25	97	582	1800	0.32
5640	TF2-PP-S3-04  ถ.ดำรงรักษ์ - ถ. จักรพรรดิพงษ์	13.754913	100.509578	bma	working	2022-08-09T00:00:00	16:00:00	17:00:00	23	68	502	1800	0.28
5641	TF2-PP-S3-04  ถ.ดำรงรักษ์ - ถ. จักรพรรดิพงษ์	13.754913	100.509578	bma	working	2022-08-09T00:00:00	17:00:00	18:00:00	13	173	579	1800	0.32
5642	TF2-PP-S3-04  ถ.ดำรงรักษ์ - ถ. จักรพรรดิพงษ์	13.754913	100.509578	bma	working	2022-08-09T00:00:00	18:00:00	19:00:00	19	148	1012	1800	0.56
5643	TF2-PP-S3-04  ถ.ดำรงรักษ์ - ถ. จักรพรรดิพงษ์	13.754913	100.509578	bma	working	2022-09-09T00:00:00	5:00:00	6:00:00	71	10	57	1800	0.03
5644	TF2-PP-S3-04  ถ.ดำรงรักษ์ - ถ. จักรพรรดิพงษ์	13.754913	100.509578	bma	working	2022-09-09T00:00:00	6:00:00	7:00:00	51	30	162	1800	0.09
5645	TF2-PP-S3-04  ถ.ดำรงรักษ์ - ถ. จักรพรรดิพงษ์	13.754913	100.509578	bma	working	2022-09-09T00:00:00	7:00:00	8:00:00	15	81	205	1800	0.11
5646	TF2-PP-S3-04  ถ.ดำรงรักษ์ - ถ. จักรพรรดิพงษ์	13.754913	100.509578	bma	working	2022-09-09T00:00:00	8:00:00	9:00:00	31	74	963	1800	0.54
5647	TF2-PP-S3-04  ถ.ดำรงรักษ์ - ถ. จักรพรรดิพงษ์	13.754913	100.509578	bma	working	2022-09-09T00:00:00	9:00:00	10:00:00	27	71	911	1800	0.51
5648	TF2-PP-S3-04  ถ.ดำรงรักษ์ - ถ. จักรพรรดิพงษ์	13.754913	100.509578	bma	working	2022-09-09T00:00:00	10:00:00	11:00:00	28	69	951	1800	0.53
5649	TF2-PP-S3-04  ถ.ดำรงรักษ์ - ถ. จักรพรรดิพงษ์	13.754913	100.509578	bma	working	2022-09-09T00:00:00	11:00:00	12:00:00	18	102	376	1800	0.21
5650	TF2-PP-S3-04  ถ.ดำรงรักษ์ - ถ. จักรพรรดิพงษ์	13.754913	100.509578	bma	working	2022-09-09T00:00:00	12:00:00	13:00:00	25	69	799	1800	0.44
5651	TF2-PP-S3-04  ถ.ดำรงรักษ์ - ถ. จักรพรรดิพงษ์	13.754913	100.509578	bma	working	2022-09-09T00:00:00	13:00:00	14:00:00	26	69	822	1800	0.46
5652	TF2-PP-S3-04  ถ.ดำรงรักษ์ - ถ. จักรพรรดิพงษ์	13.754913	100.509578	bma	working	2022-09-09T00:00:00	14:00:00	15:00:00	28	74	865	1800	0.48
5653	TF2-PP-S3-04  ถ.ดำรงรักษ์ - ถ. จักรพรรดิพงษ์	13.754913	100.509578	bma	working	2022-09-09T00:00:00	15:00:00	16:00:00	27	70	866	1800	0.48
5654	TF2-PP-S3-04  ถ.ดำรงรักษ์ - ถ. จักรพรรดิพงษ์	13.754913	100.509578	bma	working	2022-09-09T00:00:00	16:00:00	17:00:00	20	77	755	1800	0.42
5655	TF2-PP-S3-04  ถ.ดำรงรักษ์ - ถ. จักรพรรดิพงษ์	13.754913	100.509578	bma	working	2022-09-09T00:00:00	17:00:00	18:00:00	5	201	435	1800	0.24
5656	TF2-PP-S3-04  ถ.ดำรงรักษ์ - ถ. จักรพรรดิพงษ์	13.754913	100.509578	bma	working	2022-09-09T00:00:00	18:00:00	19:00:00	22	201	1288	1800	0.72
5657	TF2-PP-S3-04  ถ.ดำรงรักษ์ - ถ. จักรพรรดิพงษ์	13.754913	100.509578	bma	working	2022-10-09T00:00:00	5:00:00	6:00:00	72	9	26	1800	0.01
5658	TF2-PP-S3-04  ถ.ดำรงรักษ์ - ถ. จักรพรรดิพงษ์	13.754913	100.509578	bma	holiday	2022-10-09T00:00:00	6:00:00	7:00:00	52	27	74	1800	0.04
5659	TF2-PP-S3-04  ถ.ดำรงรักษ์ - ถ. จักรพรรดิพงษ์	13.754913	100.509578	bma	holiday	2022-10-09T00:00:00	7:00:00	8:00:00	19	57	493	1800	0.27
5660	TF2-PP-S3-04  ถ.ดำรงรักษ์ - ถ. จักรพรรดิพงษ์	13.754913	100.509578	bma	holiday	2022-10-09T00:00:00	8:00:00	9:00:00	21	63	519	1800	0.29
5661	TF2-PP-S3-04  ถ.ดำรงรักษ์ - ถ. จักรพรรดิพงษ์	13.754913	100.509578	bma	working	2022-10-09T00:00:00	9:00:00	10:00:00	21	59	467	1800	0.26
5662	TF2-PP-S3-04  ถ.ดำรงรักษ์ - ถ. จักรพรรดิพงษ์	13.754913	100.509578	bma	working	2022-10-09T00:00:00	10:00:00	11:00:00	21	62	484	1800	0.27
5663	TF2-PP-S3-04  ถ.ดำรงรักษ์ - ถ. จักรพรรดิพงษ์	13.754913	100.509578	bma	holiday	2022-10-09T00:00:00	11:00:00	12:00:00	25	67	847	1800	0.47
5664	TF2-PP-S3-04  ถ.ดำรงรักษ์ - ถ. จักรพรรดิพงษ์	13.754913	100.509578	bma	working	2022-10-09T00:00:00	12:00:00	13:00:00	21	60	349	1800	0.19
5665	TF2-PP-S3-04  ถ.ดำรงรักษ์ - ถ. จักรพรรดิพงษ์	13.754913	100.509578	bma	working	2022-10-09T00:00:00	13:00:00	14:00:00	21	62	406	1800	0.23
5666	TF2-PP-S3-04  ถ.ดำรงรักษ์ - ถ. จักรพรรดิพงษ์	13.754913	100.509578	bma	working	2022-10-09T00:00:00	14:00:00	15:00:00	18	64	302	1800	0.17
5667	TF2-PP-S3-04  ถ.ดำรงรักษ์ - ถ. จักรพรรดิพงษ์	13.754913	100.509578	bma	working	2022-10-09T00:00:00	15:00:00	16:00:00	20	60	338	1800	0.19
5668	TF2-PP-S3-04  ถ.ดำรงรักษ์ - ถ. จักรพรรดิพงษ์	13.754913	100.509578	bma	holiday	2022-10-09T00:00:00	16:00:00	17:00:00	19	83	735	1800	0.41
5669	TF2-PP-S3-04  ถ.ดำรงรักษ์ - ถ. จักรพรรดิพงษ์	13.754913	100.509578	bma	holiday	2022-10-09T00:00:00	17:00:00	18:00:00	21	84	203	1800	0.11
5670	TF2-PP-S3-04  ถ.ดำรงรักษ์ - ถ. จักรพรรดิพงษ์	13.754913	100.509578	bma	holiday	2022-10-09T00:00:00	18:00:00	19:00:00	12	161	805	1800	0.45
5671	TF2-PP-S3-04  ถ.ดำรงรักษ์ - ถ. จักรพรรดิพงษ์	13.754913	100.509578	bma	working	2022-11-09T00:00:00	5:00:00	6:00:00	47	5	22	1800	0.01
5672	TF2-PP-S3-04  ถ.ดำรงรักษ์ - ถ. จักรพรรดิพงษ์	13.754913	100.509578	bma	holiday	2022-11-09T00:00:00	6:00:00	7:00:00	33	16	49	1800	0.03
5673	TF2-PP-S3-04  ถ.ดำรงรักษ์ - ถ. จักรพรรดิพงษ์	13.754913	100.509578	bma	holiday	2022-11-09T00:00:00	7:00:00	8:00:00	12	37	306	1800	0.17
5674	TF2-PP-S3-04  ถ.ดำรงรักษ์ - ถ. จักรพรรดิพงษ์	13.754913	100.509578	bma	holiday	2022-11-09T00:00:00	8:00:00	9:00:00	13	36	291	1800	0.16
5675	TF2-PP-S3-04  ถ.ดำรงรักษ์ - ถ. จักรพรรดิพงษ์	13.754913	100.509578	bma	working	2022-11-09T00:00:00	9:00:00	10:00:00	14	35	292	1800	0.16
5676	TF2-PP-S3-04  ถ.ดำรงรักษ์ - ถ. จักรพรรดิพงษ์	13.754913	100.509578	bma	working	2022-11-09T00:00:00	10:00:00	11:00:00	11	34	310	1800	0.17
5677	TF2-PP-S3-04  ถ.ดำรงรักษ์ - ถ. จักรพรรดิพงษ์	13.754913	100.509578	bma	holiday	2022-11-09T00:00:00	11:00:00	12:00:00	12	42	504	1800	0.28
5678	TF2-PP-S3-04  ถ.ดำรงรักษ์ - ถ. จักรพรรดิพงษ์	13.754913	100.509578	bma	working	2022-11-09T00:00:00	12:00:00	13:00:00	12	36	228	1800	0.13
5679	TF2-PP-S3-04  ถ.ดำรงรักษ์ - ถ. จักรพรรดิพงษ์	13.754913	100.509578	bma	working	2022-11-09T00:00:00	13:00:00	14:00:00	15	37	251	1800	0.14
5680	TF2-PP-S3-04  ถ.ดำรงรักษ์ - ถ. จักรพรรดิพงษ์	13.754913	100.509578	bma	working	2022-11-09T00:00:00	14:00:00	15:00:00	10	37	171	1800	0.10
5681	TF2-PP-S3-04  ถ.ดำรงรักษ์ - ถ. จักรพรรดิพงษ์	13.754913	100.509578	bma	working	2022-11-09T00:00:00	15:00:00	16:00:00	9	39	184	1800	0.10
5682	TF2-PP-S3-04  ถ.ดำรงรักษ์ - ถ. จักรพรรดิพงษ์	13.754913	100.509578	bma	holiday	2022-11-09T00:00:00	16:00:00	17:00:00	12	53	407	1800	0.23
5683	TF2-PP-S3-04  ถ.ดำรงรักษ์ - ถ. จักรพรรดิพงษ์	13.754913	100.509578	bma	holiday	2022-11-09T00:00:00	17:00:00	18:00:00	13	51	122	1800	0.07
5684	TF2-PP-S3-04  ถ.ดำรงรักษ์ - ถ. จักรพรรดิพงษ์	13.754913	100.509578	bma	holiday	2022-11-09T00:00:00	18:00:00	19:00:00	7	97	492	1800	0.27
5685	TF2-PP-S4-02 ถ.หลวง - ถ.วรจักร	13.748358	100.507207	bma	working	2022-05-09T00:00:00	5:00:00	6:00:00	10	67	350	1800	0.19
5686	TF2-PP-S4-02 ถ.หลวง - ถ.วรจักร	13.748358	100.507207	bma	working	2022-05-09T00:00:00	6:00:00	7:00:00	8	201	945	1800	0.53
5687	TF2-PP-S4-02 ถ.หลวง - ถ.วรจักร	13.748358	100.507207	bma	working	2022-05-09T00:00:00	7:00:00	8:00:00	15	202	1401	1800	0.78
5688	TF2-PP-S4-02 ถ.หลวง - ถ.วรจักร	13.748358	100.507207	bma	working	2022-05-09T00:00:00	8:00:00	9:00:00	24	201	1484	1800	0.82
5689	TF2-PP-S4-02 ถ.หลวง - ถ.วรจักร	13.748358	100.507207	bma	working	2022-05-09T00:00:00	9:00:00	10:00:00	21	202	1430	1800	0.79
5690	TF2-PP-S4-02 ถ.หลวง - ถ.วรจักร	13.748358	100.507207	bma	working	2022-05-09T00:00:00	10:00:00	11:00:00	17	201	1451	1800	0.81
5691	TF2-PP-S4-02 ถ.หลวง - ถ.วรจักร	13.748358	100.507207	bma	working	2022-05-09T00:00:00	11:00:00	12:00:00	16	202	1071	1800	0.60
5692	TF2-PP-S4-02 ถ.หลวง - ถ.วรจักร	13.748358	100.507207	bma	working	2022-05-09T00:00:00	12:00:00	13:00:00	20	202	1390	1800	0.77
5693	TF2-PP-S4-02 ถ.หลวง - ถ.วรจักร	13.748358	100.507207	bma	working	2022-05-09T00:00:00	13:00:00	14:00:00	20	202	1316	1800	0.73
5694	TF2-PP-S4-02 ถ.หลวง - ถ.วรจักร	13.748358	100.507207	bma	working	2022-05-09T00:00:00	14:00:00	15:00:00	16	201	1323	1800	0.74
5695	TF2-PP-S4-02 ถ.หลวง - ถ.วรจักร	13.748358	100.507207	bma	working	2022-05-09T00:00:00	15:00:00	16:00:00	15	201	1338	1800	0.74
5696	TF2-PP-S4-02 ถ.หลวง - ถ.วรจักร	13.748358	100.507207	bma	working	2022-05-09T00:00:00	16:00:00	17:00:00	13	202	1482	1800	0.82
5697	TF2-PP-S4-02 ถ.หลวง - ถ.วรจักร	13.748358	100.507207	bma	working	2022-05-09T00:00:00	17:00:00	18:00:00	15	202	1026	1800	0.57
5698	TF2-PP-S4-02 ถ.หลวง - ถ.วรจักร	13.748358	100.507207	bma	working	2022-05-09T00:00:00	18:00:00	19:00:00	23	201	1112	1800	0.62
5699	TF2-PP-S4-02 ถ.หลวง - ถ.วรจักร	13.748358	100.507207	bma	working	2022-06-09T00:00:00	5:00:00	6:00:00	27	62	216	1800	0.12
5700	TF2-PP-S4-02 ถ.หลวง - ถ.วรจักร	13.748358	100.507207	bma	working	2022-06-09T00:00:00	6:00:00	7:00:00	19	202	589	1800	0.33
5701	TF2-PP-S4-02 ถ.หลวง - ถ.วรจักร	13.748358	100.507207	bma	working	2022-06-09T00:00:00	7:00:00	8:00:00	17	201	1450	1800	0.81
5702	TF2-PP-S4-02 ถ.หลวง - ถ.วรจักร	13.748358	100.507207	bma	working	2022-06-09T00:00:00	8:00:00	9:00:00	21	201	1289	1800	0.72
5703	TF2-PP-S4-02 ถ.หลวง - ถ.วรจักร	13.748358	100.507207	bma	working	2022-06-09T00:00:00	9:00:00	10:00:00	20	201	1189	1800	0.66
5704	TF2-PP-S4-02 ถ.หลวง - ถ.วรจักร	13.748358	100.507207	bma	working	2022-06-09T00:00:00	10:00:00	11:00:00	18	202	1109	1800	0.62
5705	TF2-PP-S4-02 ถ.หลวง - ถ.วรจักร	13.748358	100.507207	bma	working	2022-06-09T00:00:00	11:00:00	12:00:00	15	202	1216	1800	0.68
5706	TF2-PP-S4-02 ถ.หลวง - ถ.วรจักร	13.748358	100.507207	bma	working	2022-06-09T00:00:00	12:00:00	13:00:00	18	202	1151	1800	0.64
5707	TF2-PP-S4-02 ถ.หลวง - ถ.วรจักร	13.748358	100.507207	bma	working	2022-06-09T00:00:00	13:00:00	14:00:00	23	201	1105	1800	0.61
5708	TF2-PP-S4-02 ถ.หลวง - ถ.วรจักร	13.748358	100.507207	bma	working	2022-06-09T00:00:00	14:00:00	15:00:00	20	201	1087	1800	0.60
5709	TF2-PP-S4-02 ถ.หลวง - ถ.วรจักร	13.748358	100.507207	bma	working	2022-06-09T00:00:00	15:00:00	16:00:00	16	201	1122	1800	0.62
5710	TF2-PP-S4-02 ถ.หลวง - ถ.วรจักร	13.748358	100.507207	bma	working	2022-06-09T00:00:00	16:00:00	17:00:00	18	202	1787	1800	0.99
5711	TF2-PP-S4-02 ถ.หลวง - ถ.วรจักร	13.748358	100.507207	bma	working	2022-06-09T00:00:00	17:00:00	18:00:00	20	202	1213	1800	0.67
5712	TF2-PP-S4-02 ถ.หลวง - ถ.วรจักร	13.748358	100.507207	bma	working	2022-06-09T00:00:00	18:00:00	19:00:00	22	201	1499	1800	0.83
5713	TF2-PP-S4-02 ถ.หลวง - ถ.วรจักร	13.748358	100.507207	bma	working	2022-07-09T00:00:00	5:00:00	6:00:00	45	71	85	1800	0.05
5714	TF2-PP-S4-02 ถ.หลวง - ถ.วรจักร	13.748358	100.507207	bma	working	2022-07-09T00:00:00	6:00:00	7:00:00	32	201	239	1800	0.13
5715	TF2-PP-S4-02 ถ.หลวง - ถ.วรจักร	13.748358	100.507207	bma	working	2022-07-09T00:00:00	7:00:00	8:00:00	19	201	1513	1800	0.84
5716	TF2-PP-S4-02 ถ.หลวง - ถ.วรจักร	13.748358	100.507207	bma	working	2022-07-09T00:00:00	8:00:00	9:00:00	21	202	1129	1800	0.63
5717	TF2-PP-S4-02 ถ.หลวง - ถ.วรจักร	13.748358	100.507207	bma	working	2022-07-09T00:00:00	9:00:00	10:00:00	19	201	964	1800	0.54
5718	TF2-PP-S4-02 ถ.หลวง - ถ.วรจักร	13.748358	100.507207	bma	working	2022-07-09T00:00:00	10:00:00	11:00:00	18	202	915	1800	0.51
5719	TF2-PP-S4-02 ถ.หลวง - ถ.วรจักร	13.748358	100.507207	bma	working	2022-07-09T00:00:00	11:00:00	12:00:00	14	201	1419	1800	0.79
5720	TF2-PP-S4-02 ถ.หลวง - ถ.วรจักร	13.748358	100.507207	bma	working	2022-07-09T00:00:00	12:00:00	13:00:00	18	202	908	1800	0.50
5721	TF2-PP-S4-02 ถ.หลวง - ถ.วรจักร	13.748358	100.507207	bma	working	2022-07-09T00:00:00	13:00:00	14:00:00	22	202	907	1800	0.50
5722	TF2-PP-S4-02 ถ.หลวง - ถ.วรจักร	13.748358	100.507207	bma	working	2022-07-09T00:00:00	14:00:00	15:00:00	21	201	851	1800	0.47
5723	TF2-PP-S4-02 ถ.หลวง - ถ.วรจักร	13.748358	100.507207	bma	working	2022-07-09T00:00:00	15:00:00	16:00:00	19	201	863	1800	0.48
5724	TF2-PP-S4-02 ถ.หลวง - ถ.วรจักร	13.748358	100.507207	bma	working	2022-07-09T00:00:00	16:00:00	17:00:00	17	202	2106	1800	1.17
5725	TF2-PP-S4-02 ถ.หลวง - ถ.วรจักร	13.748358	100.507207	bma	working	2022-07-09T00:00:00	17:00:00	18:00:00	21	201	1308	1800	0.73
5726	TF2-PP-S4-02 ถ.หลวง - ถ.วรจักร	13.748358	100.507207	bma	working	2022-07-09T00:00:00	18:00:00	19:00:00	17	201	1875	1800	1.04
5727	TF2-PP-S4-02 ถ.หลวง - ถ.วรจักร	13.748358	100.507207	bma	working	2022-08-09T00:00:00	5:00:00	6:00:00	40	61	196	1800	0.11
5728	TF2-PP-S4-02 ถ.หลวง - ถ.วรจักร	13.748358	100.507207	bma	working	2022-08-09T00:00:00	6:00:00	7:00:00	28	202	518	1800	0.29
5729	TF2-PP-S4-02 ถ.หลวง - ถ.วรจักร	13.748358	100.507207	bma	working	2022-08-09T00:00:00	7:00:00	8:00:00	18	202	1567	1800	0.87
5730	TF2-PP-S4-02 ถ.หลวง - ถ.วรจักร	13.748358	100.507207	bma	working	2022-08-09T00:00:00	8:00:00	9:00:00	18	201	1424	1800	0.79
5731	TF2-PP-S4-02 ถ.หลวง - ถ.วรจักร	13.748358	100.507207	bma	working	2022-08-09T00:00:00	9:00:00	10:00:00	13	201	1354	1800	0.75
5732	TF2-PP-S4-02 ถ.หลวง - ถ.วรจักร	13.748358	100.507207	bma	working	2022-08-09T00:00:00	10:00:00	11:00:00	16	201	1305	1800	0.73
5733	TF2-PP-S4-02 ถ.หลวง - ถ.วรจักร	13.748358	100.507207	bma	working	2022-08-09T00:00:00	11:00:00	12:00:00	16	202	1446	1800	0.80
5734	TF2-PP-S4-02 ถ.หลวง - ถ.วรจักร	13.748358	100.507207	bma	working	2022-08-09T00:00:00	12:00:00	13:00:00	17	202	1209	1800	0.67
5735	TF2-PP-S4-02 ถ.หลวง - ถ.วรจักร	13.748358	100.507207	bma	working	2022-08-09T00:00:00	13:00:00	14:00:00	15	201	1288	1800	0.72
5736	TF2-PP-S4-02 ถ.หลวง - ถ.วรจักร	13.748358	100.507207	bma	working	2022-08-09T00:00:00	14:00:00	15:00:00	16	201	1174	1800	0.65
5737	TF2-PP-S4-02 ถ.หลวง - ถ.วรจักร	13.748358	100.507207	bma	working	2022-08-09T00:00:00	15:00:00	16:00:00	15	201	1170	1800	0.65
5738	TF2-PP-S4-02 ถ.หลวง - ถ.วรจักร	13.748358	100.507207	bma	working	2022-08-09T00:00:00	16:00:00	17:00:00	19	201	1500	1800	0.83
5739	TF2-PP-S4-02 ถ.หลวง - ถ.วรจักร	13.748358	100.507207	bma	working	2022-08-09T00:00:00	17:00:00	18:00:00	20	202	1187	1800	0.66
5740	TF2-PP-S4-02 ถ.หลวง - ถ.วรจักร	13.748358	100.507207	bma	working	2022-08-09T00:00:00	18:00:00	19:00:00	18	201	1553	1800	0.86
5741	TF2-PP-S4-02 ถ.หลวง - ถ.วรจักร	13.748358	100.507207	bma	working	2022-09-09T00:00:00	5:00:00	6:00:00	36	66	274	1800	0.15
5742	TF2-PP-S4-02 ถ.หลวง - ถ.วรจักร	13.748358	100.507207	bma	working	2022-09-09T00:00:00	6:00:00	7:00:00	26	202	789	1800	0.44
5743	TF2-PP-S4-02 ถ.หลวง - ถ.วรจักร	13.748358	100.507207	bma	working	2022-09-09T00:00:00	7:00:00	8:00:00	16	201	1596	1800	0.89
5744	TF2-PP-S4-02 ถ.หลวง - ถ.วรจักร	13.748358	100.507207	bma	working	2022-09-09T00:00:00	8:00:00	9:00:00	15	201	1727	1800	0.96
5745	TF2-PP-S4-02 ถ.หลวง - ถ.วรจักร	13.748358	100.507207	bma	working	2022-09-09T00:00:00	9:00:00	10:00:00	12	201	1577	1800	0.88
5746	TF2-PP-S4-02 ถ.หลวง - ถ.วรจักร	13.748358	100.507207	bma	working	2022-09-09T00:00:00	10:00:00	11:00:00	11	201	1627	1800	0.90
5747	TF2-PP-S4-02 ถ.หลวง - ถ.วรจักร	13.748358	100.507207	bma	working	2022-09-09T00:00:00	11:00:00	12:00:00	16	202	1455	1800	0.81
5748	TF2-PP-S4-02 ถ.หลวง - ถ.วรจักร	13.748358	100.507207	bma	working	2022-09-09T00:00:00	12:00:00	13:00:00	14	202	1540	1800	0.86
5749	TF2-PP-S4-02 ถ.หลวง - ถ.วรจักร	13.748358	100.507207	bma	working	2022-09-09T00:00:00	13:00:00	14:00:00	10	201	1584	1800	0.88
5750	TF2-PP-S4-02 ถ.หลวง - ถ.วรจักร	13.748358	100.507207	bma	working	2022-09-09T00:00:00	14:00:00	15:00:00	12	202	1509	1800	0.84
5751	TF2-PP-S4-02 ถ.หลวง - ถ.วรจักร	13.748358	100.507207	bma	working	2022-09-09T00:00:00	15:00:00	16:00:00	9	202	1456	1800	0.81
5752	TF2-PP-S4-02 ถ.หลวง - ถ.วรจักร	13.748358	100.507207	bma	working	2022-09-09T00:00:00	16:00:00	17:00:00	19	202	905	1800	0.50
5753	TF2-PP-S4-02 ถ.หลวง - ถ.วรจักร	13.748358	100.507207	bma	working	2022-09-09T00:00:00	17:00:00	18:00:00	21	201	1090	1800	0.61
5754	TF2-PP-S4-02 ถ.หลวง - ถ.วรจักร	13.748358	100.507207	bma	working	2022-09-09T00:00:00	18:00:00	19:00:00	18	202	1195	1800	0.66
5755	TF2-PP-S4-02 ถ.หลวง - ถ.วรจักร	13.748358	100.507207	bma	working	2022-10-09T00:00:00	5:00:00	6:00:00	30	65	265	1800	0.15
5756	TF2-PP-S4-02 ถ.หลวง - ถ.วรจักร	13.748358	100.507207	bma	holiday	2022-10-09T00:00:00	6:00:00	7:00:00	22	202	693	1800	0.39
5757	TF2-PP-S4-02 ถ.หลวง - ถ.วรจักร	13.748358	100.507207	bma	holiday	2022-10-09T00:00:00	7:00:00	8:00:00	10	169	561	1800	0.31
5758	TF2-PP-S4-02 ถ.หลวง - ถ.วรจักร	13.748358	100.507207	bma	holiday	2022-10-09T00:00:00	8:00:00	9:00:00	13	201	1337	1800	0.74
5759	TF2-PP-S4-02 ถ.หลวง - ถ.วรจักร	13.748358	100.507207	bma	working	2022-10-09T00:00:00	9:00:00	10:00:00	11	202	1319	1800	0.73
5760	TF2-PP-S4-02 ถ.หลวง - ถ.วรจักร	13.748358	100.507207	bma	working	2022-10-09T00:00:00	10:00:00	11:00:00	9	201	1200	1800	0.67
5761	TF2-PP-S4-02 ถ.หลวง - ถ.วรจักร	13.748358	100.507207	bma	working	2022-10-09T00:00:00	11:00:00	12:00:00	16	202	1670	1800	0.93
5762	TF2-PP-S4-02 ถ.หลวง - ถ.วรจักร	13.748358	100.507207	bma	working	2022-10-09T00:00:00	12:00:00	13:00:00	10	202	1270	1800	0.71
5763	TF2-PP-S4-02 ถ.หลวง - ถ.วรจักร	13.748358	100.507207	bma	working	2022-10-09T00:00:00	13:00:00	14:00:00	9	202	1207	1800	0.67
5764	TF2-PP-S4-02 ถ.หลวง - ถ.วรจักร	13.748358	100.507207	bma	working	2022-10-09T00:00:00	14:00:00	15:00:00	8	202	1224	1800	0.68
5765	TF2-PP-S4-02 ถ.หลวง - ถ.วรจักร	13.748358	100.507207	bma	working	2022-10-09T00:00:00	15:00:00	16:00:00	11	202	1265	1800	0.70
5766	TF2-PP-S4-02 ถ.หลวง - ถ.วรจักร	13.748358	100.507207	bma	holiday	2022-10-09T00:00:00	16:00:00	17:00:00	16	201	1340	1800	0.74
5767	TF2-PP-S4-02 ถ.หลวง - ถ.วรจักร	13.748358	100.507207	bma	holiday	2022-10-09T00:00:00	17:00:00	18:00:00	18	141	708	1800	0.39
5768	TF2-PP-S4-02 ถ.หลวง - ถ.วรจักร	13.748358	100.507207	bma	holiday	2022-10-09T00:00:00	18:00:00	19:00:00	28	137	749	1800	0.42
5769	TF2-PP-S4-02 ถ.หลวง - ถ.วรจักร	13.748358	100.507207	bma	working	2022-11-09T00:00:00	5:00:00	6:00:00	18	38	163	1800	0.09
5770	TF2-PP-S4-02 ถ.หลวง - ถ.วรจักร	13.748358	100.507207	bma	holiday	2022-11-09T00:00:00	6:00:00	7:00:00	13	122	429	1800	0.24
5771	TF2-PP-S4-02 ถ.หลวง - ถ.วรจักร	13.748358	100.507207	bma	holiday	2022-11-09T00:00:00	7:00:00	8:00:00	3	104	363	1800	0.20
5772	TF2-PP-S4-02 ถ.หลวง - ถ.วรจักร	13.748358	100.507207	bma	holiday	2022-11-09T00:00:00	8:00:00	9:00:00	7	172	881	1800	0.49
5773	TF2-PP-S4-02 ถ.หลวง - ถ.วรจักร	13.748358	100.507207	bma	working	2022-11-09T00:00:00	9:00:00	10:00:00	7	172	825	1800	0.46
5774	TF2-PP-S4-02 ถ.หลวง - ถ.วรจักร	13.748358	100.507207	bma	working	2022-11-09T00:00:00	10:00:00	11:00:00	3	168	762	1800	0.42
5775	TF2-PP-S4-02 ถ.หลวง - ถ.วรจักร	13.748358	100.507207	bma	working	2022-11-09T00:00:00	11:00:00	12:00:00	10	201	992	1800	0.55
5776	TF2-PP-S4-02 ถ.หลวง - ถ.วรจักร	13.748358	100.507207	bma	working	2022-11-09T00:00:00	12:00:00	13:00:00	6	168	736	1800	0.41
5777	TF2-PP-S4-02 ถ.หลวง - ถ.วรจักร	13.748358	100.507207	bma	working	2022-11-09T00:00:00	13:00:00	14:00:00	6	168	730	1800	0.41
5778	TF2-PP-S4-02 ถ.หลวง - ถ.วรจักร	13.748358	100.507207	bma	working	2022-11-09T00:00:00	14:00:00	15:00:00	7	168	742	1800	0.41
5779	TF2-PP-S4-02 ถ.หลวง - ถ.วรจักร	13.748358	100.507207	bma	working	2022-11-09T00:00:00	15:00:00	16:00:00	7	163	794	1800	0.44
5780	TF2-PP-S4-02 ถ.หลวง - ถ.วรจักร	13.748358	100.507207	bma	holiday	2022-11-09T00:00:00	16:00:00	17:00:00	8	201	836	1800	0.46
5781	TF2-PP-S4-02 ถ.หลวง - ถ.วรจักร	13.748358	100.507207	bma	holiday	2022-11-09T00:00:00	17:00:00	18:00:00	10	84	414	1800	0.23
5782	TF2-PP-S4-02 ถ.หลวง - ถ.วรจักร	13.748358	100.507207	bma	holiday	2022-11-09T00:00:00	18:00:00	19:00:00	19	81	436	1800	0.24
5783	TF2-PT-S27-02 ถ.พระรามที่ 4 -ถ.บรรทัดทอง	13.735782	100.521346	bma	working	2022-05-09T00:00:00	5:00:00	6:00:00	48	35	98	3600	0.03
5784	TF2-PT-S27-02 ถ.พระรามที่ 4 -ถ.บรรทัดทอง	13.735782	100.521346	bma	working	2022-05-09T00:00:00	6:00:00	7:00:00	34	100	308	3600	0.09
5785	TF2-PT-S27-02 ถ.พระรามที่ 4 -ถ.บรรทัดทอง	13.735782	100.521346	bma	working	2022-05-09T00:00:00	7:00:00	8:00:00	35	70	1020	3600	0.28
5786	TF2-PT-S27-02 ถ.พระรามที่ 4 -ถ.บรรทัดทอง	13.735782	100.521346	bma	working	2022-05-09T00:00:00	8:00:00	9:00:00	46	127	1798	3600	0.50
5787	TF2-PT-S27-02 ถ.พระรามที่ 4 -ถ.บรรทัดทอง	13.735782	100.521346	bma	working	2022-05-09T00:00:00	9:00:00	10:00:00	40	121	1725	3600	0.48
5788	TF2-PT-S27-02 ถ.พระรามที่ 4 -ถ.บรรทัดทอง	13.735782	100.521346	bma	working	2022-05-09T00:00:00	10:00:00	11:00:00	42	127	1748	3600	0.49
5789	TF2-PT-S27-02 ถ.พระรามที่ 4 -ถ.บรรทัดทอง	13.735782	100.521346	bma	working	2022-05-09T00:00:00	11:00:00	12:00:00	42	202	1574	3600	0.44
5790	TF2-PT-S27-02 ถ.พระรามที่ 4 -ถ.บรรทัดทอง	13.735782	100.521346	bma	working	2022-05-09T00:00:00	12:00:00	13:00:00	39	126	1697	3600	0.47
5791	TF2-PT-S27-02 ถ.พระรามที่ 4 -ถ.บรรทัดทอง	13.735782	100.521346	bma	working	2022-05-09T00:00:00	13:00:00	14:00:00	41	126	1643	3600	0.46
5792	TF2-PT-S27-02 ถ.พระรามที่ 4 -ถ.บรรทัดทอง	13.735782	100.521346	bma	working	2022-05-09T00:00:00	14:00:00	15:00:00	44	126	1733	3600	0.48
5793	TF2-PT-S27-02 ถ.พระรามที่ 4 -ถ.บรรทัดทอง	13.735782	100.521346	bma	working	2022-05-09T00:00:00	15:00:00	16:00:00	42	123	1683	3600	0.47
5794	TF2-PT-S27-02 ถ.พระรามที่ 4 -ถ.บรรทัดทอง	13.735782	100.521346	bma	working	2022-05-09T00:00:00	16:00:00	17:00:00	39	70	1423	3600	0.40
5795	TF2-PT-S27-02 ถ.พระรามที่ 4 -ถ.บรรทัดทอง	13.735782	100.521346	bma	working	2022-05-09T00:00:00	17:00:00	18:00:00	36	62	1217	3600	0.34
5796	TF2-PT-S27-02 ถ.พระรามที่ 4 -ถ.บรรทัดทอง	13.735782	100.521346	bma	working	2022-05-09T00:00:00	18:00:00	19:00:00	37	202	3683	3600	1.02
5797	TF2-PT-S27-02 ถ.พระรามที่ 4 -ถ.บรรทัดทอง	13.735782	100.521346	bma	working	2022-06-09T00:00:00	5:00:00	6:00:00	48	33	82	3600	0.02
5798	TF2-PT-S27-02 ถ.พระรามที่ 4 -ถ.บรรทัดทอง	13.735782	100.521346	bma	working	2022-06-09T00:00:00	6:00:00	7:00:00	35	99	252	3600	0.07
5799	TF2-PT-S27-02 ถ.พระรามที่ 4 -ถ.บรรทัดทอง	13.735782	100.521346	bma	working	2022-06-09T00:00:00	7:00:00	8:00:00	42	59	710	3600	0.20
5800	TF2-PT-S27-02 ถ.พระรามที่ 4 -ถ.บรรทัดทอง	13.735782	100.521346	bma	working	2022-06-09T00:00:00	8:00:00	9:00:00	43	120	1619	3600	0.45
5801	TF2-PT-S27-02 ถ.พระรามที่ 4 -ถ.บรรทัดทอง	13.735782	100.521346	bma	working	2022-06-09T00:00:00	9:00:00	10:00:00	43	121	1536	3600	0.43
5802	TF2-PT-S27-02 ถ.พระรามที่ 4 -ถ.บรรทัดทอง	13.735782	100.521346	bma	working	2022-06-09T00:00:00	10:00:00	11:00:00	42	120	1563	3600	0.43
5803	TF2-PT-S27-02 ถ.พระรามที่ 4 -ถ.บรรทัดทอง	13.735782	100.521346	bma	working	2022-06-09T00:00:00	11:00:00	12:00:00	35	147	973	3600	0.27
5804	TF2-PT-S27-02 ถ.พระรามที่ 4 -ถ.บรรทัดทอง	13.735782	100.521346	bma	working	2022-06-09T00:00:00	12:00:00	13:00:00	40	120	1352	3600	0.38
5805	TF2-PT-S27-02 ถ.พระรามที่ 4 -ถ.บรรทัดทอง	13.735782	100.521346	bma	working	2022-06-09T00:00:00	13:00:00	14:00:00	41	118	1333	3600	0.37
5806	TF2-PT-S27-02 ถ.พระรามที่ 4 -ถ.บรรทัดทอง	13.735782	100.521346	bma	working	2022-06-09T00:00:00	14:00:00	15:00:00	41	119	1382	3600	0.38
5807	TF2-PT-S27-02 ถ.พระรามที่ 4 -ถ.บรรทัดทอง	13.735782	100.521346	bma	working	2022-06-09T00:00:00	15:00:00	16:00:00	42	117	1370	3600	0.38
5808	TF2-PT-S27-02 ถ.พระรามที่ 4 -ถ.บรรทัดทอง	13.735782	100.521346	bma	working	2022-06-09T00:00:00	16:00:00	17:00:00	39	82	1138	3600	0.32
5809	TF2-PT-S27-02 ถ.พระรามที่ 4 -ถ.บรรทัดทอง	13.735782	100.521346	bma	working	2022-06-09T00:00:00	17:00:00	18:00:00	39	97	1740	3600	0.48
5810	TF2-PT-S27-02 ถ.พระรามที่ 4 -ถ.บรรทัดทอง	13.735782	100.521346	bma	working	2022-06-09T00:00:00	18:00:00	19:00:00	37	201	3685	3600	1.02
5811	TF2-PT-S27-02 ถ.พระรามที่ 4 -ถ.บรรทัดทอง	13.735782	100.521346	bma	working	2022-07-09T00:00:00	5:00:00	6:00:00	53	31	78	3600	0.02
5812	TF2-PT-S27-02 ถ.พระรามที่ 4 -ถ.บรรทัดทอง	13.735782	100.521346	bma	working	2022-07-09T00:00:00	6:00:00	7:00:00	38	98	225	3600	0.06
5813	TF2-PT-S27-02 ถ.พระรามที่ 4 -ถ.บรรทัดทอง	13.735782	100.521346	bma	working	2022-07-09T00:00:00	7:00:00	8:00:00	53	51	304	3600	0.08
5814	TF2-PT-S27-02 ถ.พระรามที่ 4 -ถ.บรรทัดทอง	13.735782	100.521346	bma	working	2022-07-09T00:00:00	8:00:00	9:00:00	43	117	1264	3600	0.35
5815	TF2-PT-S27-02 ถ.พระรามที่ 4 -ถ.บรรทัดทอง	13.735782	100.521346	bma	working	2022-07-09T00:00:00	9:00:00	10:00:00	41	115	1235	3600	0.34
5816	TF2-PT-S27-02 ถ.พระรามที่ 4 -ถ.บรรทัดทอง	13.735782	100.521346	bma	working	2022-07-09T00:00:00	10:00:00	11:00:00	40	118	1350	3600	0.38
5817	TF2-PT-S27-02 ถ.พระรามที่ 4 -ถ.บรรทัดทอง	13.735782	100.521346	bma	working	2022-07-09T00:00:00	11:00:00	12:00:00	24	80	354	3600	0.10
5818	TF2-PT-S27-02 ถ.พระรามที่ 4 -ถ.บรรทัดทอง	13.735782	100.521346	bma	working	2022-07-09T00:00:00	12:00:00	13:00:00	41	116	1068	3600	0.30
5819	TF2-PT-S27-02 ถ.พระรามที่ 4 -ถ.บรรทัดทอง	13.735782	100.521346	bma	working	2022-07-09T00:00:00	13:00:00	14:00:00	39	117	1068	3600	0.30
5820	TF2-PT-S27-02 ถ.พระรามที่ 4 -ถ.บรรทัดทอง	13.735782	100.521346	bma	working	2022-07-09T00:00:00	14:00:00	15:00:00	41	113	1048	3600	0.29
5821	TF2-PT-S27-02 ถ.พระรามที่ 4 -ถ.บรรทัดทอง	13.735782	100.521346	bma	working	2022-07-09T00:00:00	15:00:00	16:00:00	44	114	1114	3600	0.31
5822	TF2-PT-S27-02 ถ.พระรามที่ 4 -ถ.บรรทัดทอง	13.735782	100.521346	bma	working	2022-07-09T00:00:00	16:00:00	17:00:00	41	95	770	3600	0.21
5823	TF2-PT-S27-02 ถ.พระรามที่ 4 -ถ.บรรทัดทอง	13.735782	100.521346	bma	working	2022-07-09T00:00:00	17:00:00	18:00:00	39	128	2459	3600	0.68
5824	TF2-PT-S27-02 ถ.พระรามที่ 4 -ถ.บรรทัดทอง	13.735782	100.521346	bma	working	2022-07-09T00:00:00	18:00:00	19:00:00	39	190	3747	3600	1.04
5825	TF2-PT-S27-02 ถ.พระรามที่ 4 -ถ.บรรทัดทอง	13.735782	100.521346	bma	working	2022-08-09T00:00:00	5:00:00	6:00:00	48	23	50	3600	0.01
5826	TF2-PT-S27-02 ถ.พระรามที่ 4 -ถ.บรรทัดทอง	13.735782	100.521346	bma	working	2022-08-09T00:00:00	6:00:00	7:00:00	34	76	138	3600	0.04
5827	TF2-PT-S27-02 ถ.พระรามที่ 4 -ถ.บรรทัดทอง	13.735782	100.521346	bma	working	2022-08-09T00:00:00	7:00:00	8:00:00	47	62	676	3600	0.19
5828	TF2-PT-S27-02 ถ.พระรามที่ 4 -ถ.บรรทัดทอง	13.735782	100.521346	bma	working	2022-08-09T00:00:00	8:00:00	9:00:00	45	131	1609	3600	0.45
5829	TF2-PT-S27-02 ถ.พระรามที่ 4 -ถ.บรรทัดทอง	13.735782	100.521346	bma	working	2022-08-09T00:00:00	9:00:00	10:00:00	44	124	1566	3600	0.44
5830	TF2-PT-S27-02 ถ.พระรามที่ 4 -ถ.บรรทัดทอง	13.735782	100.521346	bma	working	2022-08-09T00:00:00	10:00:00	11:00:00	42	128	1642	3600	0.46
5831	TF2-PT-S27-02 ถ.พระรามที่ 4 -ถ.บรรทัดทอง	13.735782	100.521346	bma	working	2022-08-09T00:00:00	11:00:00	12:00:00	34	140	1772	3600	0.49
5832	TF2-PT-S27-02 ถ.พระรามที่ 4 -ถ.บรรทัดทอง	13.735782	100.521346	bma	working	2022-08-09T00:00:00	12:00:00	13:00:00	41	130	1444	3600	0.40
5833	TF2-PT-S27-02 ถ.พระรามที่ 4 -ถ.บรรทัดทอง	13.735782	100.521346	bma	working	2022-08-09T00:00:00	13:00:00	14:00:00	40	130	1370	3600	0.38
5834	TF2-PT-S27-02 ถ.พระรามที่ 4 -ถ.บรรทัดทอง	13.735782	100.521346	bma	working	2022-08-09T00:00:00	14:00:00	15:00:00	43	127	1398	3600	0.39
5835	TF2-PT-S27-02 ถ.พระรามที่ 4 -ถ.บรรทัดทอง	13.735782	100.521346	bma	working	2022-08-09T00:00:00	15:00:00	16:00:00	45	127	1439	3600	0.40
5836	TF2-PT-S27-02 ถ.พระรามที่ 4 -ถ.บรรทัดทอง	13.735782	100.521346	bma	working	2022-08-09T00:00:00	16:00:00	17:00:00	37	109	838	3600	0.23
5837	TF2-PT-S27-02 ถ.พระรามที่ 4 -ถ.บรรทัดทอง	13.735782	100.521346	bma	working	2022-08-09T00:00:00	17:00:00	18:00:00	36	112	1849	3600	0.51
5838	TF2-PT-S27-02 ถ.พระรามที่ 4 -ถ.บรรทัดทอง	13.735782	100.521346	bma	working	2022-08-09T00:00:00	18:00:00	19:00:00	37	149	2170	3600	0.60
5839	TF2-PT-S27-02 ถ.พระรามที่ 4 -ถ.บรรทัดทอง	13.735782	100.521346	bma	working	2022-09-09T00:00:00	5:00:00	6:00:00	34	17	20	3600	0.01
5840	TF2-PT-S27-02 ถ.พระรามที่ 4 -ถ.บรรทัดทอง	13.735782	100.521346	bma	working	2022-09-09T00:00:00	6:00:00	7:00:00	24	56	44	3600	0.01
5841	TF2-PT-S27-02 ถ.พระรามที่ 4 -ถ.บรรทัดทอง	13.735782	100.521346	bma	working	2022-09-09T00:00:00	7:00:00	8:00:00	44	76	978	3600	0.27
5842	TF2-PT-S27-02 ถ.พระรามที่ 4 -ถ.บรรทัดทอง	13.735782	100.521346	bma	working	2022-09-09T00:00:00	8:00:00	9:00:00	48	140	1914	3600	0.53
5843	TF2-PT-S27-02 ถ.พระรามที่ 4 -ถ.บรรทัดทอง	13.735782	100.521346	bma	working	2022-09-09T00:00:00	9:00:00	10:00:00	41	135	1937	3600	0.54
5844	TF2-PT-S27-02 ถ.พระรามที่ 4 -ถ.บรรทัดทอง	13.735782	100.521346	bma	working	2022-09-09T00:00:00	10:00:00	11:00:00	43	138	1777	3600	0.49
5845	TF2-PT-S27-02 ถ.พระรามที่ 4 -ถ.บรรทัดทอง	13.735782	100.521346	bma	working	2022-09-09T00:00:00	11:00:00	12:00:00	38	201	3100	3600	0.86
5846	TF2-PT-S27-02 ถ.พระรามที่ 4 -ถ.บรรทัดทอง	13.735782	100.521346	bma	working	2022-09-09T00:00:00	12:00:00	13:00:00	45	141	1753	3600	0.49
5847	TF2-PT-S27-02 ถ.พระรามที่ 4 -ถ.บรรทัดทอง	13.735782	100.521346	bma	working	2022-09-09T00:00:00	13:00:00	14:00:00	46	140	1654	3600	0.46
5848	TF2-PT-S27-02 ถ.พระรามที่ 4 -ถ.บรรทัดทอง	13.735782	100.521346	bma	working	2022-09-09T00:00:00	14:00:00	15:00:00	46	140	1758	3600	0.49
5849	TF2-PT-S27-02 ถ.พระรามที่ 4 -ถ.บรรทัดทอง	13.735782	100.521346	bma	working	2022-09-09T00:00:00	15:00:00	16:00:00	41	144	1775	3600	0.49
5850	TF2-PT-S27-02 ถ.พระรามที่ 4 -ถ.บรรทัดทอง	13.735782	100.521346	bma	working	2022-09-09T00:00:00	16:00:00	17:00:00	36	127	848	3600	0.24
5851	TF2-PT-S27-02 ถ.พระรามที่ 4 -ถ.บรรทัดทอง	13.735782	100.521346	bma	working	2022-09-09T00:00:00	17:00:00	18:00:00	35	95	1364	3600	0.38
5852	TF2-PT-S27-02 ถ.พระรามที่ 4 -ถ.บรรทัดทอง	13.735782	100.521346	bma	working	2022-09-09T00:00:00	18:00:00	19:00:00	31	106	536	3600	0.15
5853	TF2-PT-S27-02 ถ.พระรามที่ 4 -ถ.บรรทัดทอง	13.735782	100.521346	bma	working	2022-10-09T00:00:00	5:00:00	6:00:00	60	32	70	3600	0.02
5854	TF2-PT-S27-02 ถ.พระรามที่ 4 -ถ.บรรทัดทอง	13.735782	100.521346	bma	holiday	2022-10-09T00:00:00	6:00:00	7:00:00	42	93	207	3600	0.06
5855	TF2-PT-S27-02 ถ.พระรามที่ 4 -ถ.บรรทัดทอง	13.735782	100.521346	bma	holiday	2022-10-09T00:00:00	7:00:00	8:00:00	41	151	2163	3600	0.60
5856	TF2-PT-S27-02 ถ.พระรามที่ 4 -ถ.บรรทัดทอง	13.735782	100.521346	bma	holiday	2022-10-09T00:00:00	8:00:00	9:00:00	43	123	1394	3600	0.39
5857	TF2-PT-S27-02 ถ.พระรามที่ 4 -ถ.บรรทัดทอง	13.735782	100.521346	bma	working	2022-10-09T00:00:00	9:00:00	10:00:00	38	122	1130	3600	0.31
5858	TF2-PT-S27-02 ถ.พระรามที่ 4 -ถ.บรรทัดทอง	13.735782	100.521346	bma	working	2022-10-09T00:00:00	10:00:00	11:00:00	38	121	1249	3600	0.35
5859	TF2-PT-S27-02 ถ.พระรามที่ 4 -ถ.บรรทัดทอง	13.735782	100.521346	bma	holiday	2022-10-09T00:00:00	11:00:00	12:00:00	40	163	2619	3600	0.73
5860	TF2-PT-S27-02 ถ.พระรามที่ 4 -ถ.บรรทัดทอง	13.735782	100.521346	bma	working	2022-10-09T00:00:00	12:00:00	13:00:00	44	119	1239	3600	0.34
5861	TF2-PT-S27-02 ถ.พระรามที่ 4 -ถ.บรรทัดทอง	13.735782	100.521346	bma	working	2022-10-09T00:00:00	13:00:00	14:00:00	41	117	1177	3600	0.33
5862	TF2-PT-S27-02 ถ.พระรามที่ 4 -ถ.บรรทัดทอง	13.735782	100.521346	bma	working	2022-10-09T00:00:00	14:00:00	15:00:00	43	120	1153	3600	0.32
5863	TF2-PT-S27-02 ถ.พระรามที่ 4 -ถ.บรรทัดทอง	13.735782	100.521346	bma	working	2022-10-09T00:00:00	15:00:00	16:00:00	43	126	1208	3600	0.34
5864	TF2-PT-S27-02 ถ.พระรามที่ 4 -ถ.บรรทัดทอง	13.735782	100.521346	bma	holiday	2022-10-09T00:00:00	16:00:00	17:00:00	43	57	831	3600	0.23
5865	TF2-PT-S27-02 ถ.พระรามที่ 4 -ถ.บรรทัดทอง	13.735782	100.521346	bma	holiday	2022-10-09T00:00:00	17:00:00	18:00:00	33	202	3455	3600	0.96
5866	TF2-PT-S27-02 ถ.พระรามที่ 4 -ถ.บรรทัดทอง	13.735782	100.521346	bma	holiday	2022-10-09T00:00:00	18:00:00	19:00:00	42	70	558	3600	0.16
5867	TF2-PT-S27-02 ถ.พระรามที่ 4 -ถ.บรรทัดทอง	13.735782	100.521346	bma	working	2022-11-09T00:00:00	5:00:00	6:00:00	35	18	51	3600	0.01
5868	TF2-PT-S27-02 ถ.พระรามที่ 4 -ถ.บรรทัดทอง	13.735782	100.521346	bma	holiday	2022-11-09T00:00:00	6:00:00	7:00:00	25	57	149	3600	0.04
5869	TF2-PT-S27-02 ถ.พระรามที่ 4 -ถ.บรรทัดทอง	13.735782	100.521346	bma	holiday	2022-11-09T00:00:00	7:00:00	8:00:00	27	88	1339	3600	0.37
5870	TF2-PT-S27-02 ถ.พระรามที่ 4 -ถ.บรรทัดทอง	13.735782	100.521346	bma	holiday	2022-11-09T00:00:00	8:00:00	9:00:00	27	75	817	3600	0.23
5871	TF2-PT-S27-02 ถ.พระรามที่ 4 -ถ.บรรทัดทอง	13.735782	100.521346	bma	working	2022-11-09T00:00:00	9:00:00	10:00:00	26	71	702	3600	0.20
5872	TF2-PT-S27-02 ถ.พระรามที่ 4 -ถ.บรรทัดทอง	13.735782	100.521346	bma	working	2022-11-09T00:00:00	10:00:00	11:00:00	23	74	733	3600	0.20
5873	TF2-PT-S27-02 ถ.พระรามที่ 4 -ถ.บรรทัดทอง	13.735782	100.521346	bma	holiday	2022-11-09T00:00:00	11:00:00	12:00:00	23	95	1590	3600	0.44
5874	TF2-PT-S27-02 ถ.พระรามที่ 4 -ถ.บรรทัดทอง	13.735782	100.521346	bma	working	2022-11-09T00:00:00	12:00:00	13:00:00	24	70	751	3600	0.21
5875	TF2-PT-S27-02 ถ.พระรามที่ 4 -ถ.บรรทัดทอง	13.735782	100.521346	bma	working	2022-11-09T00:00:00	13:00:00	14:00:00	26	70	747	3600	0.21
5876	TF2-PT-S27-02 ถ.พระรามที่ 4 -ถ.บรรทัดทอง	13.735782	100.521346	bma	working	2022-11-09T00:00:00	14:00:00	15:00:00	23	74	687	3600	0.19
5877	TF2-PT-S27-02 ถ.พระรามที่ 4 -ถ.บรรทัดทอง	13.735782	100.521346	bma	working	2022-11-09T00:00:00	15:00:00	16:00:00	28	74	742	3600	0.21
5878	TF2-PT-S27-02 ถ.พระรามที่ 4 -ถ.บรรทัดทอง	13.735782	100.521346	bma	holiday	2022-11-09T00:00:00	16:00:00	17:00:00	27	34	474	3600	0.13
5879	TF2-PT-S27-02 ถ.พระรามที่ 4 -ถ.บรรทัดทอง	13.735782	100.521346	bma	holiday	2022-11-09T00:00:00	17:00:00	18:00:00	21	131	2172	3600	0.60
5880	TF2-PT-S27-02 ถ.พระรามที่ 4 -ถ.บรรทัดทอง	13.735782	100.521346	bma	holiday	2022-11-09T00:00:00	18:00:00	19:00:00	26	41	301	3600	0.08
5881	TF2-PT-S29-04 ถ.พระรามที่ 1 -ถ.ราชดำริ	13.745203	100.535931	bma	working	2002-05-09T00:00:00	5:00:00	6:00:00	32	35	12	1800	0.01
5882	TF2-PT-S29-04 ถ.พระรามที่ 1 -ถ.ราชดำริ	13.745203	100.535931	bma	holiday	2002-05-09T00:00:00	6:00:00	7:00:00	23	115	19	1800	0.01
5883	TF2-PT-S29-04 ถ.พระรามที่ 1 -ถ.ราชดำริ	13.745203	100.535931	bma	holiday	2002-05-09T00:00:00	7:00:00	8:00:00	0	52	166	1800	0.09
5884	TF2-PT-S29-04 ถ.พระรามที่ 1 -ถ.ราชดำริ	13.745203	100.535931	bma	holiday	2002-05-09T00:00:00	8:00:00	9:00:00	30	75	378	1800	0.21
5885	TF2-PT-S29-04 ถ.พระรามที่ 1 -ถ.ราชดำริ	13.745203	100.535931	bma	working	2002-05-09T00:00:00	9:00:00	10:00:00	26	71	374	1800	0.21
5886	TF2-PT-S29-04 ถ.พระรามที่ 1 -ถ.ราชดำริ	13.745203	100.535931	bma	working	2002-05-09T00:00:00	10:00:00	11:00:00	24	70	254	1800	0.14
5887	TF2-PT-S29-04 ถ.พระรามที่ 1 -ถ.ราชดำริ	13.745203	100.535931	bma	holiday	2002-05-09T00:00:00	11:00:00	12:00:00	28	52	368	1800	0.20
5888	TF2-PT-S29-04 ถ.พระรามที่ 1 -ถ.ราชดำริ	13.745203	100.535931	bma	working	2002-05-09T00:00:00	12:00:00	13:00:00	24	68	250	1800	0.14
5889	TF2-PT-S29-04 ถ.พระรามที่ 1 -ถ.ราชดำริ	13.745203	100.535931	bma	working	2002-05-09T00:00:00	13:00:00	14:00:00	26	67	298	1800	0.17
5890	TF2-PT-S29-04 ถ.พระรามที่ 1 -ถ.ราชดำริ	13.745203	100.535931	bma	working	2002-05-09T00:00:00	14:00:00	15:00:00	25	75	379	1800	0.21
5891	TF2-PT-S29-04 ถ.พระรามที่ 1 -ถ.ราชดำริ	13.745203	100.535931	bma	working	2002-05-09T00:00:00	15:00:00	16:00:00	23	73	356	1800	0.20
5892	TF2-PT-S29-04 ถ.พระรามที่ 1 -ถ.ราชดำริ	13.745203	100.535931	bma	holiday	2002-05-09T00:00:00	16:00:00	17:00:00	50	53	109	1800	0.06
5893	TF2-PT-S29-04 ถ.พระรามที่ 1 -ถ.ราชดำริ	13.745203	100.535931	bma	holiday	2002-05-09T00:00:00	17:00:00	18:00:00	25	71	663	1800	0.37
5894	TF2-PT-S29-04 ถ.พระรามที่ 1 -ถ.ราชดำริ	13.745203	100.535931	bma	holiday	2002-05-09T00:00:00	18:00:00	19:00:00	45	164	865	1800	0.48
5895	TF2-PT-S29-04 ถ.พระรามที่ 1 -ถ.ราชดำริ	13.745203	100.535931	bma	working	2002-07-09T00:00:00	5:00:00	6:00:00	3	26	30	1800	0.02
5896	TF2-PT-S29-04 ถ.พระรามที่ 1 -ถ.ราชดำริ	13.745203	100.535931	bma	working	2002-07-09T00:00:00	6:00:00	7:00:00	3	85	81	1800	0.05
5897	TF2-PT-S29-04 ถ.พระรามที่ 1 -ถ.ราชดำริ	13.745203	100.535931	bma	working	2002-07-09T00:00:00	7:00:00	8:00:00	39	35	422	1800	0.23
5898	TF2-PT-S29-04 ถ.พระรามที่ 1 -ถ.ราชดำริ	13.745203	100.535931	bma	working	2002-07-09T00:00:00	8:00:00	9:00:00	0	146	279	1800	0.16
5899	TF2-PT-S29-04 ถ.พระรามที่ 1 -ถ.ราชดำริ	13.745203	100.535931	bma	working	2002-07-09T00:00:00	9:00:00	10:00:00	4	143	182	1800	0.10
5900	TF2-PT-S29-04 ถ.พระรามที่ 1 -ถ.ราชดำริ	13.745203	100.535931	bma	working	2002-07-09T00:00:00	10:00:00	11:00:00	3	145	164	1800	0.09
5901	TF2-PT-S29-04 ถ.พระรามที่ 1 -ถ.ราชดำริ	13.745203	100.535931	bma	working	2002-07-09T00:00:00	11:00:00	12:00:00	22	35	459	1800	0.26
5902	TF2-PT-S29-04 ถ.พระรามที่ 1 -ถ.ราชดำริ	13.745203	100.535931	bma	working	2002-07-09T00:00:00	12:00:00	13:00:00	2	140	71	1800	0.04
5903	TF2-PT-S29-04 ถ.พระรามที่ 1 -ถ.ราชดำริ	13.745203	100.535931	bma	working	2002-07-09T00:00:00	13:00:00	14:00:00	6	139	267	1800	0.15
5904	TF2-PT-S29-04 ถ.พระรามที่ 1 -ถ.ราชดำริ	13.745203	100.535931	bma	working	2002-07-09T00:00:00	14:00:00	15:00:00	3	140	74	1800	0.04
5905	TF2-PT-S29-04 ถ.พระรามที่ 1 -ถ.ราชดำริ	13.745203	100.535931	bma	working	2002-07-09T00:00:00	15:00:00	16:00:00	0	143	120	1800	0.07
5906	TF2-PT-S29-04 ถ.พระรามที่ 1 -ถ.ราชดำริ	13.745203	100.535931	bma	working	2002-07-09T00:00:00	16:00:00	17:00:00	25	110	523	1800	0.29
5907	TF2-PT-S29-04 ถ.พระรามที่ 1 -ถ.ราชดำริ	13.745203	100.535931	bma	working	2002-07-09T00:00:00	17:00:00	18:00:00	36	60	172	1800	0.10
5908	TF2-PT-S29-04 ถ.พระรามที่ 1 -ถ.ราชดำริ	13.745203	100.535931	bma	working	2002-07-09T00:00:00	18:00:00	19:00:00	4	29	395	1800	0.22
5909	TF2-PT-S29-04 ถ.พระรามที่ 1 -ถ.ราชดำริ	13.745203	100.535931	bma	working	2002-09-09T00:00:00	5:00:00	6:00:00	5	27	24	1800	0.01
5910	TF2-PT-S29-04 ถ.พระรามที่ 1 -ถ.ราชดำริ	13.745203	100.535931	bma	working	2002-09-09T00:00:00	6:00:00	7:00:00	4	85	62	1800	0.03
5911	TF2-PT-S29-04 ถ.พระรามที่ 1 -ถ.ราชดำริ	13.745203	100.535931	bma	working	2002-09-09T00:00:00	7:00:00	8:00:00	36	35	445	1800	0.25
5912	TF2-PT-S29-04 ถ.พระรามที่ 1 -ถ.ราชดำริ	13.745203	100.535931	bma	working	2002-09-09T00:00:00	8:00:00	9:00:00	0	145	249	1800	0.14
5913	TF2-PT-S29-04 ถ.พระรามที่ 1 -ถ.ราชดำริ	13.745203	100.535931	bma	working	2002-09-09T00:00:00	9:00:00	10:00:00	2	142	185	1800	0.10
5914	TF2-PT-S29-04 ถ.พระรามที่ 1 -ถ.ราชดำริ	13.745203	100.535931	bma	working	2002-09-09T00:00:00	10:00:00	11:00:00	4	143	56	1800	0.03
5915	TF2-PT-S29-04 ถ.พระรามที่ 1 -ถ.ราชดำริ	13.745203	100.535931	bma	working	2002-09-09T00:00:00	11:00:00	12:00:00	22	35	468	1800	0.26
5916	TF2-PT-S29-04 ถ.พระรามที่ 1 -ถ.ราชดำริ	13.745203	100.535931	bma	working	2002-09-09T00:00:00	12:00:00	13:00:00	0	139	193	1800	0.11
5917	TF2-PT-S29-04 ถ.พระรามที่ 1 -ถ.ราชดำริ	13.745203	100.535931	bma	working	2002-09-09T00:00:00	13:00:00	14:00:00	0	141	221	1800	0.12
5918	TF2-PT-S29-04 ถ.พระรามที่ 1 -ถ.ราชดำริ	13.745203	100.535931	bma	working	2002-09-09T00:00:00	14:00:00	15:00:00	0	139	137	1800	0.08
5919	TF2-PT-S29-04 ถ.พระรามที่ 1 -ถ.ราชดำริ	13.745203	100.535931	bma	working	2002-09-09T00:00:00	15:00:00	16:00:00	5	141	198	1800	0.11
5920	TF2-PT-S29-04 ถ.พระรามที่ 1 -ถ.ราชดำริ	13.745203	100.535931	bma	working	2002-09-09T00:00:00	16:00:00	17:00:00	29	113	543	1800	0.30
5921	TF2-PT-S29-04 ถ.พระรามที่ 1 -ถ.ราชดำริ	13.745203	100.535931	bma	working	2002-09-09T00:00:00	17:00:00	18:00:00	36	64	201	1800	0.11
5922	TF2-PT-S29-04 ถ.พระรามที่ 1 -ถ.ราชดำริ	13.745203	100.535931	bma	working	2002-09-09T00:00:00	18:00:00	19:00:00	5	29	371	1800	0.21
5923	TF2-PT-S29-04 ถ.พระรามที่ 1 -ถ.ราชดำริ	13.745203	100.535931	bma	working	2002-10-09T00:00:00	5:00:00	6:00:00	37	45	387	1800	0.22
5924	TF2-PT-S29-04 ถ.พระรามที่ 1 -ถ.ราชดำริ	13.745203	100.535931	bma	working	2002-10-09T00:00:00	6:00:00	7:00:00	27	133	1149	1800	0.64
5925	TF2-PT-S29-04 ถ.พระรามที่ 1 -ถ.ราชดำริ	13.745203	100.535931	bma	working	2002-10-09T00:00:00	7:00:00	8:00:00	36	36	463	1800	0.26
5926	TF2-PT-S29-04 ถ.พระรามที่ 1 -ถ.ราชดำริ	13.745203	100.535931	bma	working	2002-10-09T00:00:00	8:00:00	9:00:00	2	145	251	1800	0.14
5927	TF2-PT-S29-04 ถ.พระรามที่ 1 -ถ.ราชดำริ	13.745203	100.535931	bma	working	2002-10-09T00:00:00	9:00:00	10:00:00	5	141	97	1800	0.05
5928	TF2-PT-S29-04 ถ.พระรามที่ 1 -ถ.ราชดำริ	13.745203	100.535931	bma	working	2002-10-09T00:00:00	10:00:00	11:00:00	3	143	96	1800	0.05
5929	TF2-PT-S29-04 ถ.พระรามที่ 1 -ถ.ราชดำริ	13.745203	100.535931	bma	working	2002-10-09T00:00:00	11:00:00	12:00:00	20	35	475	1800	0.26
5930	TF2-PT-S29-04 ถ.พระรามที่ 1 -ถ.ราชดำริ	13.745203	100.535931	bma	working	2002-10-09T00:00:00	12:00:00	13:00:00	2	143	190	1800	0.11
5931	TF2-PT-S29-04 ถ.พระรามที่ 1 -ถ.ราชดำริ	13.745203	100.535931	bma	working	2002-10-09T00:00:00	13:00:00	14:00:00	2	140	57	1800	0.03
5932	TF2-PT-S29-04 ถ.พระรามที่ 1 -ถ.ราชดำริ	13.745203	100.535931	bma	working	2002-10-09T00:00:00	14:00:00	15:00:00	5	144	133	1800	0.07
5933	TF2-PT-S29-04 ถ.พระรามที่ 1 -ถ.ราชดำริ	13.745203	100.535931	bma	working	2002-10-09T00:00:00	15:00:00	16:00:00	3	140	121	1800	0.07
5934	TF2-PT-S29-04 ถ.พระรามที่ 1 -ถ.ราชดำริ	13.745203	100.535931	bma	working	2002-10-09T00:00:00	16:00:00	17:00:00	26	111	533	1800	0.30
5935	TF2-PT-S29-04 ถ.พระรามที่ 1 -ถ.ราชดำริ	13.745203	100.535931	bma	working	2002-10-09T00:00:00	17:00:00	18:00:00	27	163	853	1800	0.47
5936	TF2-PT-S29-04 ถ.พระรามที่ 1 -ถ.ราชดำริ	13.745203	100.535931	bma	working	2002-10-09T00:00:00	18:00:00	19:00:00	26	119	37	1800	0.02
5937	TF2-PT-S33-02 ถ.พระรามที่ 1 -ปากซอยรองเมือง 5	13.747606	100.523066	bma	working	2022-05-09T00:00:00	5:00:00	6:00:00	63	10	138	3600	0.04
5938	TF2-PT-S33-02 ถ.พระรามที่ 1 -ปากซอยรองเมือง 5	13.747606	100.523066	bma	working	2022-05-09T00:00:00	6:00:00	7:00:00	45	29	416	3600	0.12
5939	TF2-PT-S33-02 ถ.พระรามที่ 1 -ปากซอยรองเมือง 5	13.747606	100.523066	bma	working	2022-05-09T00:00:00	7:00:00	8:00:00	33	101	2278	3600	0.63
5940	TF2-PT-S33-02 ถ.พระรามที่ 1 -ปากซอยรองเมือง 5	13.747606	100.523066	bma	working	2022-05-09T00:00:00	8:00:00	9:00:00	49	195	580	3600	0.16
5941	TF2-PT-S33-02 ถ.พระรามที่ 1 -ปากซอยรองเมือง 5	13.747606	100.523066	bma	working	2022-05-09T00:00:00	9:00:00	10:00:00	44	193	554	3600	0.15
5942	TF2-PT-S33-02 ถ.พระรามที่ 1 -ปากซอยรองเมือง 5	13.747606	100.523066	bma	working	2022-05-09T00:00:00	10:00:00	11:00:00	49	193	452	3600	0.13
5943	TF2-PT-S33-02 ถ.พระรามที่ 1 -ปากซอยรองเมือง 5	13.747606	100.523066	bma	working	2022-05-09T00:00:00	11:00:00	12:00:00	17	122	1175	3600	0.33
5944	TF2-PT-S33-02 ถ.พระรามที่ 1 -ปากซอยรองเมือง 5	13.747606	100.523066	bma	working	2022-05-09T00:00:00	12:00:00	13:00:00	46	189	380	3600	0.11
5945	TF2-PT-S33-02 ถ.พระรามที่ 1 -ปากซอยรองเมือง 5	13.747606	100.523066	bma	working	2022-05-09T00:00:00	13:00:00	14:00:00	42	189	487	3600	0.14
5946	TF2-PT-S33-02 ถ.พระรามที่ 1 -ปากซอยรองเมือง 5	13.747606	100.523066	bma	working	2022-05-09T00:00:00	14:00:00	15:00:00	43	193	410	3600	0.11
5947	TF2-PT-S33-02 ถ.พระรามที่ 1 -ปากซอยรองเมือง 5	13.747606	100.523066	bma	working	2022-05-09T00:00:00	15:00:00	16:00:00	46	190	411	3600	0.11
5948	TF2-PT-S33-02 ถ.พระรามที่ 1 -ปากซอยรองเมือง 5	13.747606	100.523066	bma	working	2022-05-09T00:00:00	16:00:00	17:00:00	18	78	737	3600	0.20
5949	TF2-PT-S33-02 ถ.พระรามที่ 1 -ปากซอยรองเมือง 5	13.747606	100.523066	bma	working	2022-05-09T00:00:00	17:00:00	18:00:00	18	202	1725	3600	0.48
5950	TF2-PT-S33-02 ถ.พระรามที่ 1 -ปากซอยรองเมือง 5	13.747606	100.523066	bma	working	2022-05-09T00:00:00	18:00:00	19:00:00	12	201	1820	3600	0.51
5951	TF2-PT-S33-02 ถ.พระรามที่ 1 -ปากซอยรองเมือง 5	13.747606	100.523066	bma	working	2022-06-09T00:00:00	5:00:00	6:00:00	60	12	173	3600	0.05
5952	TF2-PT-S33-02 ถ.พระรามที่ 1 -ปากซอยรองเมือง 5	13.747606	100.523066	bma	working	2022-06-09T00:00:00	6:00:00	7:00:00	42	39	479	3600	0.13
5953	TF2-PT-S33-02 ถ.พระรามที่ 1 -ปากซอยรองเมือง 5	13.747606	100.523066	bma	working	2022-06-09T00:00:00	7:00:00	8:00:00	29	113	2227	3600	0.62
5954	TF2-PT-S33-02 ถ.พระรามที่ 1 -ปากซอยรองเมือง 5	13.747606	100.523066	bma	working	2022-06-09T00:00:00	8:00:00	9:00:00	41	148	869	3600	0.24
5955	TF2-PT-S33-02 ถ.พระรามที่ 1 -ปากซอยรองเมือง 5	13.747606	100.523066	bma	working	2022-06-09T00:00:00	9:00:00	10:00:00	35	148	898	3600	0.25
5956	TF2-PT-S33-02 ถ.พระรามที่ 1 -ปากซอยรองเมือง 5	13.747606	100.523066	bma	working	2022-06-09T00:00:00	10:00:00	11:00:00	40	147	826	3600	0.23
5957	TF2-PT-S33-02 ถ.พระรามที่ 1 -ปากซอยรองเมือง 5	13.747606	100.523066	bma	working	2022-06-09T00:00:00	11:00:00	12:00:00	22	112	959	3600	0.27
5958	TF2-PT-S33-02 ถ.พระรามที่ 1 -ปากซอยรองเมือง 5	13.747606	100.523066	bma	working	2022-06-09T00:00:00	12:00:00	13:00:00	36	143	717	3600	0.20
5959	TF2-PT-S33-02 ถ.พระรามที่ 1 -ปากซอยรองเมือง 5	13.747606	100.523066	bma	working	2022-06-09T00:00:00	13:00:00	14:00:00	35	144	796	3600	0.22
5960	TF2-PT-S33-02 ถ.พระรามที่ 1 -ปากซอยรองเมือง 5	13.747606	100.523066	bma	working	2022-06-09T00:00:00	14:00:00	15:00:00	32	143	786	3600	0.22
5961	TF2-PT-S33-02 ถ.พระรามที่ 1 -ปากซอยรองเมือง 5	13.747606	100.523066	bma	working	2022-06-09T00:00:00	15:00:00	16:00:00	35	145	764	3600	0.21
5962	TF2-PT-S33-02 ถ.พระรามที่ 1 -ปากซอยรองเมือง 5	13.747606	100.523066	bma	working	2022-06-09T00:00:00	16:00:00	17:00:00	22	114	1444	3600	0.40
5963	TF2-PT-S33-02 ถ.พระรามที่ 1 -ปากซอยรองเมือง 5	13.747606	100.523066	bma	working	2022-06-09T00:00:00	17:00:00	18:00:00	16	201	2203	3600	0.61
5964	TF2-PT-S33-02 ถ.พระรามที่ 1 -ปากซอยรองเมือง 5	13.747606	100.523066	bma	working	2022-06-09T00:00:00	18:00:00	19:00:00	11	201	1957	3600	0.54
5965	TF2-PT-S33-02 ถ.พระรามที่ 1 -ปากซอยรองเมือง 5	13.747606	100.523066	bma	working	2022-07-09T00:00:00	5:00:00	6:00:00	54	18	195	3600	0.05
5966	TF2-PT-S33-02 ถ.พระรามที่ 1 -ปากซอยรองเมือง 5	13.747606	100.523066	bma	working	2022-07-09T00:00:00	6:00:00	7:00:00	38	52	522	3600	0.15
5967	TF2-PT-S33-02 ถ.พระรามที่ 1 -ปากซอยรองเมือง 5	13.747606	100.523066	bma	working	2022-07-09T00:00:00	7:00:00	8:00:00	27	123	2212	3600	0.61
5968	TF2-PT-S33-02 ถ.พระรามที่ 1 -ปากซอยรองเมือง 5	13.747606	100.523066	bma	working	2022-07-09T00:00:00	8:00:00	9:00:00	30	101	1224	3600	0.34
5969	TF2-PT-S33-02 ถ.พระรามที่ 1 -ปากซอยรองเมือง 5	13.747606	100.523066	bma	working	2022-07-09T00:00:00	9:00:00	10:00:00	30	102	1209	3600	0.34
5970	TF2-PT-S33-02 ถ.พระรามที่ 1 -ปากซอยรองเมือง 5	13.747606	100.523066	bma	working	2022-07-09T00:00:00	10:00:00	11:00:00	27	100	1119	3600	0.31
5971	TF2-PT-S33-02 ถ.พระรามที่ 1 -ปากซอยรองเมือง 5	13.747606	100.523066	bma	working	2022-07-09T00:00:00	11:00:00	12:00:00	25	98	783	3600	0.22
5972	TF2-PT-S33-02 ถ.พระรามที่ 1 -ปากซอยรองเมือง 5	13.747606	100.523066	bma	working	2022-07-09T00:00:00	12:00:00	13:00:00	25	98	1041	3600	0.29
5973	TF2-PT-S33-02 ถ.พระรามที่ 1 -ปากซอยรองเมือง 5	13.747606	100.523066	bma	working	2022-07-09T00:00:00	13:00:00	14:00:00	29	99	1129	3600	0.31
5974	TF2-PT-S33-02 ถ.พระรามที่ 1 -ปากซอยรองเมือง 5	13.747606	100.523066	bma	working	2022-07-09T00:00:00	14:00:00	15:00:00	25	98	1174	3600	0.33
5975	TF2-PT-S33-02 ถ.พระรามที่ 1 -ปากซอยรองเมือง 5	13.747606	100.523066	bma	working	2022-07-09T00:00:00	15:00:00	16:00:00	28	100	1064	3600	0.30
5976	TF2-PT-S33-02 ถ.พระรามที่ 1 -ปากซอยรองเมือง 5	13.747606	100.523066	bma	working	2022-07-09T00:00:00	16:00:00	17:00:00	27	149	2172	3600	0.60
5977	TF2-PT-S33-02 ถ.พระรามที่ 1 -ปากซอยรองเมือง 5	13.747606	100.523066	bma	working	2022-07-09T00:00:00	17:00:00	18:00:00	15	201	2618	3600	0.73
5978	TF2-PT-S33-02 ถ.พระรามที่ 1 -ปากซอยรองเมือง 5	13.747606	100.523066	bma	working	2022-07-09T00:00:00	18:00:00	19:00:00	11	201	2029	3600	0.56
5979	TF2-PT-S33-02 ถ.พระรามที่ 1 -ปากซอยรองเมือง 5	13.747606	100.523066	bma	working	2022-08-09T00:00:00	5:00:00	6:00:00	52	21	237	3600	0.07
5980	TF2-PT-S33-02 ถ.พระรามที่ 1 -ปากซอยรองเมือง 5	13.747606	100.523066	bma	working	2022-08-09T00:00:00	6:00:00	7:00:00	37	66	636	3600	0.18
5981	TF2-PT-S33-02 ถ.พระรามที่ 1 -ปากซอยรองเมือง 5	13.747606	100.523066	bma	working	2022-08-09T00:00:00	7:00:00	8:00:00	26	101	1866	3600	0.52
5982	TF2-PT-S33-02 ถ.พระรามที่ 1 -ปากซอยรองเมือง 5	13.747606	100.523066	bma	working	2022-08-09T00:00:00	8:00:00	9:00:00	33	113	1599	3600	0.44
5983	TF2-PT-S33-02 ถ.พระรามที่ 1 -ปากซอยรองเมือง 5	13.747606	100.523066	bma	working	2022-08-09T00:00:00	9:00:00	10:00:00	29	109	1468	3600	0.41
5984	TF2-PT-S33-02 ถ.พระรามที่ 1 -ปากซอยรองเมือง 5	13.747606	100.523066	bma	working	2022-08-09T00:00:00	10:00:00	11:00:00	29	111	1381	3600	0.38
5985	TF2-PT-S33-02 ถ.พระรามที่ 1 -ปากซอยรองเมือง 5	13.747606	100.523066	bma	working	2022-08-09T00:00:00	11:00:00	12:00:00	25	138	1973	3600	0.55
5986	TF2-PT-S33-02 ถ.พระรามที่ 1 -ปากซอยรองเมือง 5	13.747606	100.523066	bma	working	2022-08-09T00:00:00	12:00:00	13:00:00	31	111	1376	3600	0.38
5987	TF2-PT-S33-02 ถ.พระรามที่ 1 -ปากซอยรองเมือง 5	13.747606	100.523066	bma	working	2022-08-09T00:00:00	13:00:00	14:00:00	30	111	1387	3600	0.39
5988	TF2-PT-S33-02 ถ.พระรามที่ 1 -ปากซอยรองเมือง 5	13.747606	100.523066	bma	working	2022-08-09T00:00:00	14:00:00	15:00:00	24	110	1429	3600	0.40
5989	TF2-PT-S33-02 ถ.พระรามที่ 1 -ปากซอยรองเมือง 5	13.747606	100.523066	bma	working	2022-08-09T00:00:00	15:00:00	16:00:00	27	112	1448	3600	0.40
5990	TF2-PT-S33-02 ถ.พระรามที่ 1 -ปากซอยรองเมือง 5	13.747606	100.523066	bma	working	2022-08-09T00:00:00	16:00:00	17:00:00	25	155	2106	3600	0.59
5991	TF2-PT-S33-02 ถ.พระรามที่ 1 -ปากซอยรองเมือง 5	13.747606	100.523066	bma	working	2022-08-09T00:00:00	17:00:00	18:00:00	15	201	2142	3600	0.60
5992	TF2-PT-S33-02 ถ.พระรามที่ 1 -ปากซอยรองเมือง 5	13.747606	100.523066	bma	working	2022-08-09T00:00:00	18:00:00	19:00:00	16	202	1897	3600	0.53
5993	TF2-PT-S33-02 ถ.พระรามที่ 1 -ปากซอยรองเมือง 5	13.747606	100.523066	bma	working	2022-09-09T00:00:00	5:00:00	6:00:00	44	25	271	3600	0.08
5994	TF2-PT-S33-02 ถ.พระรามที่ 1 -ปากซอยรองเมือง 5	13.747606	100.523066	bma	working	2022-09-09T00:00:00	6:00:00	7:00:00	32	73	744	3600	0.21
5995	TF2-PT-S33-02 ถ.พระรามที่ 1 -ปากซอยรองเมือง 5	13.747606	100.523066	bma	working	2022-09-09T00:00:00	7:00:00	8:00:00	30	85	1620	3600	0.45
5996	TF2-PT-S33-02 ถ.พระรามที่ 1 -ปากซอยรองเมือง 5	13.747606	100.523066	bma	working	2022-09-09T00:00:00	8:00:00	9:00:00	31	124	1909	3600	0.53
5997	TF2-PT-S33-02 ถ.พระรามที่ 1 -ปากซอยรองเมือง 5	13.747606	100.523066	bma	working	2022-09-09T00:00:00	9:00:00	10:00:00	29	120	1883	3600	0.52
5998	TF2-PT-S33-02 ถ.พระรามที่ 1 -ปากซอยรองเมือง 5	13.747606	100.523066	bma	working	2022-09-09T00:00:00	10:00:00	11:00:00	28	121	1690	3600	0.47
5999	TF2-PT-S33-02 ถ.พระรามที่ 1 -ปากซอยรองเมือง 5	13.747606	100.523066	bma	working	2022-09-09T00:00:00	11:00:00	12:00:00	23	175	3146	3600	0.87
6000	TF2-PT-S33-02 ถ.พระรามที่ 1 -ปากซอยรองเมือง 5	13.747606	100.523066	bma	working	2022-09-09T00:00:00	12:00:00	13:00:00	30	124	1728	3600	0.48
6001	TF2-PT-S33-02 ถ.พระรามที่ 1 -ปากซอยรองเมือง 5	13.747606	100.523066	bma	working	2022-09-09T00:00:00	13:00:00	14:00:00	30	120	1681	3600	0.47
6002	TF2-PT-S33-02 ถ.พระรามที่ 1 -ปากซอยรองเมือง 5	13.747606	100.523066	bma	working	2022-09-09T00:00:00	14:00:00	15:00:00	25	121	1680	3600	0.47
6003	TF2-PT-S33-02 ถ.พระรามที่ 1 -ปากซอยรองเมือง 5	13.747606	100.523066	bma	working	2022-09-09T00:00:00	15:00:00	16:00:00	28	121	1826	3600	0.51
6004	TF2-PT-S33-02 ถ.พระรามที่ 1 -ปากซอยรองเมือง 5	13.747606	100.523066	bma	working	2022-09-09T00:00:00	16:00:00	17:00:00	27	155	2116	3600	0.59
6005	TF2-PT-S33-02 ถ.พระรามที่ 1 -ปากซอยรองเมือง 5	13.747606	100.523066	bma	working	2022-09-09T00:00:00	17:00:00	18:00:00	12	201	1523	3600	0.42
6006	TF2-PT-S33-02 ถ.พระรามที่ 1 -ปากซอยรองเมือง 5	13.747606	100.523066	bma	working	2022-09-09T00:00:00	18:00:00	19:00:00	17	201	1789	3600	0.50
6007	TF2-PT-S33-02 ถ.พระรามที่ 1 -ปากซอยรองเมือง 5	13.747606	100.523066	bma	working	2022-10-09T00:00:00	5:00:00	6:00:00	51	37	302	3600	0.08
6008	TF2-PT-S33-02 ถ.พระรามที่ 1 -ปากซอยรองเมือง 5	13.747606	100.523066	bma	holiday	2022-10-09T00:00:00	6:00:00	7:00:00	36	117	755	3600	0.21
6009	TF2-PT-S33-02 ถ.พระรามที่ 1 -ปากซอยรองเมือง 5	13.747606	100.523066	bma	holiday	2022-10-09T00:00:00	7:00:00	8:00:00	38	57	322	3600	0.09
6010	TF2-PT-S33-02 ถ.พระรามที่ 1 -ปากซอยรองเมือง 5	13.747606	100.523066	bma	holiday	2022-10-09T00:00:00	8:00:00	9:00:00	37	56	295	3600	0.08
6011	TF2-PT-S33-02 ถ.พระรามที่ 1 -ปากซอยรองเมือง 5	13.747606	100.523066	bma	working	2022-10-09T00:00:00	9:00:00	10:00:00	31	52	171	3600	0.05
6012	TF2-PT-S33-02 ถ.พระรามที่ 1 -ปากซอยรองเมือง 5	13.747606	100.523066	bma	working	2022-10-09T00:00:00	10:00:00	11:00:00	33	53	313	3600	0.09
6013	TF2-PT-S33-02 ถ.พระรามที่ 1 -ปากซอยรองเมือง 5	13.747606	100.523066	bma	holiday	2022-10-09T00:00:00	11:00:00	12:00:00	28	125	1211	3600	0.34
6014	TF2-PT-S33-02 ถ.พระรามที่ 1 -ปากซอยรองเมือง 5	13.747606	100.523066	bma	working	2022-10-09T00:00:00	12:00:00	13:00:00	31	53	260	3600	0.07
6015	TF2-PT-S33-02 ถ.พระรามที่ 1 -ปากซอยรองเมือง 5	13.747606	100.523066	bma	working	2022-10-09T00:00:00	13:00:00	14:00:00	32	50	161	3600	0.04
6016	TF2-PT-S33-02 ถ.พระรามที่ 1 -ปากซอยรองเมือง 5	13.747606	100.523066	bma	working	2022-10-09T00:00:00	14:00:00	15:00:00	30	54	211	3600	0.06
6017	TF2-PT-S33-02 ถ.พระรามที่ 1 -ปากซอยรองเมือง 5	13.747606	100.523066	bma	working	2022-10-09T00:00:00	15:00:00	16:00:00	33	55	175	3600	0.05
6018	TF2-PT-S33-02 ถ.พระรามที่ 1 -ปากซอยรองเมือง 5	13.747606	100.523066	bma	holiday	2022-10-09T00:00:00	16:00:00	17:00:00	23	138	2074	3600	0.58
6019	TF2-PT-S33-02 ถ.พระรามที่ 1 -ปากซอยรองเมือง 5	13.747606	100.523066	bma	holiday	2022-10-09T00:00:00	17:00:00	18:00:00	25	135	2990	3600	0.83
6020	TF2-PT-S33-02 ถ.พระรามที่ 1 -ปากซอยรองเมือง 5	13.747606	100.523066	bma	holiday	2022-10-09T00:00:00	18:00:00	19:00:00	21	73	878	3600	0.24
6021	TF2-PT-S33-02 ถ.พระรามที่ 1 -ปากซอยรองเมือง 5	13.747606	100.523066	bma	working	2022-11-09T00:00:00	5:00:00	6:00:00	32	24	180	3600	0.05
6022	TF2-PT-S33-02 ถ.พระรามที่ 1 -ปากซอยรองเมือง 5	13.747606	100.523066	bma	holiday	2022-11-09T00:00:00	6:00:00	7:00:00	23	71	498	3600	0.14
6023	TF2-PT-S33-02 ถ.พระรามที่ 1 -ปากซอยรองเมือง 5	13.747606	100.523066	bma	holiday	2022-11-09T00:00:00	7:00:00	8:00:00	20	33	219	3600	0.06
6024	TF2-PT-S33-02 ถ.พระรามที่ 1 -ปากซอยรองเมือง 5	13.747606	100.523066	bma	holiday	2022-11-09T00:00:00	8:00:00	9:00:00	21	35	216	3600	0.06
6025	TF2-PT-S33-02 ถ.พระรามที่ 1 -ปากซอยรองเมือง 5	13.747606	100.523066	bma	working	2022-11-09T00:00:00	9:00:00	10:00:00	18	33	80	3600	0.02
6026	TF2-PT-S33-02 ถ.พระรามที่ 1 -ปากซอยรองเมือง 5	13.747606	100.523066	bma	working	2022-11-09T00:00:00	10:00:00	11:00:00	18	31	160	3600	0.04
6027	TF2-PT-S33-02 ถ.พระรามที่ 1 -ปากซอยรองเมือง 5	13.747606	100.523066	bma	holiday	2022-11-09T00:00:00	11:00:00	12:00:00	20	72	735	3600	0.20
6028	TF2-PT-S33-02 ถ.พระรามที่ 1 -ปากซอยรองเมือง 5	13.747606	100.523066	bma	working	2022-11-09T00:00:00	12:00:00	13:00:00	17	33	186	3600	0.05
6029	TF2-PT-S33-02 ถ.พระรามที่ 1 -ปากซอยรองเมือง 5	13.747606	100.523066	bma	working	2022-11-09T00:00:00	13:00:00	14:00:00	18	30	71	3600	0.02
6030	TF2-PT-S33-02 ถ.พระรามที่ 1 -ปากซอยรองเมือง 5	13.747606	100.523066	bma	working	2022-11-09T00:00:00	14:00:00	15:00:00	19	32	120	3600	0.03
6031	TF2-PT-S33-02 ถ.พระรามที่ 1 -ปากซอยรองเมือง 5	13.747606	100.523066	bma	working	2022-11-09T00:00:00	15:00:00	16:00:00	20	33	86	3600	0.02
6032	TF2-PT-S33-02 ถ.พระรามที่ 1 -ปากซอยรองเมือง 5	13.747606	100.523066	bma	holiday	2022-11-09T00:00:00	16:00:00	17:00:00	14	83	1335	3600	0.37
6033	TF2-PT-S33-02 ถ.พระรามที่ 1 -ปากซอยรองเมือง 5	13.747606	100.523066	bma	holiday	2022-11-09T00:00:00	17:00:00	18:00:00	14	82	1798	3600	0.50
6034	TF2-PT-S33-02 ถ.พระรามที่ 1 -ปากซอยรองเมือง 5	13.747606	100.523066	bma	holiday	2022-11-09T00:00:00	18:00:00	19:00:00	13	45	558	3600	0.16
6035	TF2-PY-S12-04 ถ.พระรามที่ 6 - ปากซอยหม่อมแผ้ว	13.791981	100.537882	bma	working	2022-05-09T00:00:00	5:00:00	6:00:00	25	44	61	2700	0.02
6036	TF2-PY-S12-04 ถ.พระรามที่ 6 - ปากซอยหม่อมแผ้ว	13.791981	100.537882	bma	working	2022-05-09T00:00:00	6:00:00	7:00:00	18	141	173	2700	0.06
6037	TF2-PY-S12-04 ถ.พระรามที่ 6 - ปากซอยหม่อมแผ้ว	13.791981	100.537882	bma	working	2022-05-09T00:00:00	7:00:00	8:00:00	16	202	434	2700	0.16
6038	TF2-PY-S12-04 ถ.พระรามที่ 6 - ปากซอยหม่อมแผ้ว	13.791981	100.537882	bma	working	2022-05-09T00:00:00	8:00:00	9:00:00	12	201	449	2700	0.17
6039	TF2-PY-S12-04 ถ.พระรามที่ 6 - ปากซอยหม่อมแผ้ว	13.791981	100.537882	bma	working	2022-05-09T00:00:00	9:00:00	10:00:00	9	201	456	2700	0.17
6040	TF2-PY-S12-04 ถ.พระรามที่ 6 - ปากซอยหม่อมแผ้ว	13.791981	100.537882	bma	working	2022-05-09T00:00:00	10:00:00	11:00:00	10	202	429	2700	0.16
6041	TF2-PY-S12-04 ถ.พระรามที่ 6 - ปากซอยหม่อมแผ้ว	13.791981	100.537882	bma	working	2022-05-09T00:00:00	11:00:00	12:00:00	22	201	351	2700	0.13
6042	TF2-PY-S12-04 ถ.พระรามที่ 6 - ปากซอยหม่อมแผ้ว	13.791981	100.537882	bma	working	2022-05-09T00:00:00	12:00:00	13:00:00	10	202	315	2700	0.12
6043	TF2-PY-S12-04 ถ.พระรามที่ 6 - ปากซอยหม่อมแผ้ว	13.791981	100.537882	bma	working	2022-05-09T00:00:00	13:00:00	14:00:00	11	201	364	2700	0.13
6044	TF2-PY-S12-04 ถ.พระรามที่ 6 - ปากซอยหม่อมแผ้ว	13.791981	100.537882	bma	working	2022-05-09T00:00:00	14:00:00	15:00:00	8	202	348	2700	0.13
6045	TF2-PY-S12-04 ถ.พระรามที่ 6 - ปากซอยหม่อมแผ้ว	13.791981	100.537882	bma	working	2022-05-09T00:00:00	15:00:00	16:00:00	11	201	428	2700	0.16
6046	TF2-PY-S12-04 ถ.พระรามที่ 6 - ปากซอยหม่อมแผ้ว	13.791981	100.537882	bma	working	2022-05-09T00:00:00	16:00:00	17:00:00	20	115	1989	2700	0.74
6047	TF2-PY-S12-04 ถ.พระรามที่ 6 - ปากซอยหม่อมแผ้ว	13.791981	100.537882	bma	working	2022-05-09T00:00:00	17:00:00	18:00:00	19	201	388	2700	0.14
6048	TF2-PY-S12-04 ถ.พระรามที่ 6 - ปากซอยหม่อมแผ้ว	13.791981	100.537882	bma	working	2022-05-09T00:00:00	18:00:00	19:00:00	12	202	554	2700	0.21
6049	TF2-PY-S12-04 ถ.พระรามที่ 6 - ปากซอยหม่อมแผ้ว	13.791981	100.537882	bma	working	2022-06-09T00:00:00	5:00:00	6:00:00	18	33	89	2700	0.03
6050	TF2-PY-S12-04 ถ.พระรามที่ 6 - ปากซอยหม่อมแผ้ว	13.791981	100.537882	bma	working	2022-06-09T00:00:00	6:00:00	7:00:00	13	100	227	2700	0.08
6051	TF2-PY-S12-04 ถ.พระรามที่ 6 - ปากซอยหม่อมแผ้ว	13.791981	100.537882	bma	working	2022-06-09T00:00:00	7:00:00	8:00:00	24	202	427	2700	0.16
6052	TF2-PY-S12-04 ถ.พระรามที่ 6 - ปากซอยหม่อมแผ้ว	13.791981	100.537882	bma	working	2022-06-09T00:00:00	8:00:00	9:00:00	19	202	530	2700	0.20
6053	TF2-PY-S12-04 ถ.พระรามที่ 6 - ปากซอยหม่อมแผ้ว	13.791981	100.537882	bma	working	2022-06-09T00:00:00	9:00:00	10:00:00	14	202	517	2700	0.19
6054	TF2-PY-S12-04 ถ.พระรามที่ 6 - ปากซอยหม่อมแผ้ว	13.791981	100.537882	bma	working	2022-06-09T00:00:00	10:00:00	11:00:00	13	202	521	2700	0.19
6055	TF2-PY-S12-04 ถ.พระรามที่ 6 - ปากซอยหม่อมแผ้ว	13.791981	100.537882	bma	working	2022-06-09T00:00:00	11:00:00	12:00:00	21	202	321	2700	0.12
6056	TF2-PY-S12-04 ถ.พระรามที่ 6 - ปากซอยหม่อมแผ้ว	13.791981	100.537882	bma	working	2022-06-09T00:00:00	12:00:00	13:00:00	16	202	420	2700	0.16
6057	TF2-PY-S12-04 ถ.พระรามที่ 6 - ปากซอยหม่อมแผ้ว	13.791981	100.537882	bma	working	2022-06-09T00:00:00	13:00:00	14:00:00	16	202	443	2700	0.16
6058	TF2-PY-S12-04 ถ.พระรามที่ 6 - ปากซอยหม่อมแผ้ว	13.791981	100.537882	bma	working	2022-06-09T00:00:00	14:00:00	15:00:00	13	201	448	2700	0.17
6059	TF2-PY-S12-04 ถ.พระรามที่ 6 - ปากซอยหม่อมแผ้ว	13.791981	100.537882	bma	working	2022-06-09T00:00:00	15:00:00	16:00:00	14	202	442	2700	0.16
6060	TF2-PY-S12-04 ถ.พระรามที่ 6 - ปากซอยหม่อมแผ้ว	13.791981	100.537882	bma	working	2022-06-09T00:00:00	16:00:00	17:00:00	20	161	1163	2700	0.43
6061	TF2-PY-S12-04 ถ.พระรามที่ 6 - ปากซอยหม่อมแผ้ว	13.791981	100.537882	bma	working	2022-06-09T00:00:00	17:00:00	18:00:00	14	202	357	2700	0.13
6062	TF2-PY-S12-04 ถ.พระรามที่ 6 - ปากซอยหม่อมแผ้ว	13.791981	100.537882	bma	working	2022-06-09T00:00:00	18:00:00	19:00:00	16	201	378	2700	0.14
6063	TF2-PY-S12-04 ถ.พระรามที่ 6 - ปากซอยหม่อมแผ้ว	13.791981	100.537882	bma	working	2022-07-09T00:00:00	5:00:00	6:00:00	16	21	101	2700	0.04
6064	TF2-PY-S12-04 ถ.พระรามที่ 6 - ปากซอยหม่อมแผ้ว	13.791981	100.537882	bma	working	2022-07-09T00:00:00	6:00:00	7:00:00	12	62	278	2700	0.10
6065	TF2-PY-S12-04 ถ.พระรามที่ 6 - ปากซอยหม่อมแผ้ว	13.791981	100.537882	bma	working	2022-07-09T00:00:00	7:00:00	8:00:00	32	201	327	2700	0.12
6066	TF2-PY-S12-04 ถ.พระรามที่ 6 - ปากซอยหม่อมแผ้ว	13.791981	100.537882	bma	working	2022-07-09T00:00:00	8:00:00	9:00:00	23	202	684	2700	0.25
6067	TF2-PY-S12-04 ถ.พระรามที่ 6 - ปากซอยหม่อมแผ้ว	13.791981	100.537882	bma	working	2022-07-09T00:00:00	9:00:00	10:00:00	19	201	590	2700	0.22
6068	TF2-PY-S12-04 ถ.พระรามที่ 6 - ปากซอยหม่อมแผ้ว	13.791981	100.537882	bma	working	2022-07-09T00:00:00	10:00:00	11:00:00	18	202	622	2700	0.23
6069	TF2-PY-S12-04 ถ.พระรามที่ 6 - ปากซอยหม่อมแผ้ว	13.791981	100.537882	bma	working	2022-07-09T00:00:00	11:00:00	12:00:00	21	202	312	2700	0.12
6070	TF2-PY-S12-04 ถ.พระรามที่ 6 - ปากซอยหม่อมแผ้ว	13.791981	100.537882	bma	working	2022-07-09T00:00:00	12:00:00	13:00:00	23	201	516	2700	0.19
6071	TF2-PY-S12-04 ถ.พระรามที่ 6 - ปากซอยหม่อมแผ้ว	13.791981	100.537882	bma	working	2022-07-09T00:00:00	13:00:00	14:00:00	21	201	542	2700	0.20
6072	TF2-PY-S12-04 ถ.พระรามที่ 6 - ปากซอยหม่อมแผ้ว	13.791981	100.537882	bma	working	2022-07-09T00:00:00	14:00:00	15:00:00	19	202	495	2700	0.18
6073	TF2-PY-S12-04 ถ.พระรามที่ 6 - ปากซอยหม่อมแผ้ว	13.791981	100.537882	bma	working	2022-07-09T00:00:00	15:00:00	16:00:00	23	201	480	2700	0.18
6074	TF2-PY-S12-04 ถ.พระรามที่ 6 - ปากซอยหม่อมแผ้ว	13.791981	100.537882	bma	working	2022-07-09T00:00:00	16:00:00	17:00:00	19	202	355	2700	0.13
6075	TF2-PY-S12-04 ถ.พระรามที่ 6 - ปากซอยหม่อมแผ้ว	13.791981	100.537882	bma	working	2022-07-09T00:00:00	17:00:00	18:00:00	15	201	404	2700	0.15
6076	TF2-PY-S12-04 ถ.พระรามที่ 6 - ปากซอยหม่อมแผ้ว	13.791981	100.537882	bma	working	2022-07-09T00:00:00	18:00:00	19:00:00	17	200	172	2700	0.06
6077	TF2-PY-S12-04 ถ.พระรามที่ 6 - ปากซอยหม่อมแผ้ว	13.791981	100.537882	bma	working	2022-08-09T00:00:00	5:00:00	6:00:00	24	36	117	2700	0.04
6078	TF2-PY-S12-04 ถ.พระรามที่ 6 - ปากซอยหม่อมแผ้ว	13.791981	100.537882	bma	working	2022-08-09T00:00:00	6:00:00	7:00:00	17	108	325	2700	0.12
6079	TF2-PY-S12-04 ถ.พระรามที่ 6 - ปากซอยหม่อมแผ้ว	13.791981	100.537882	bma	working	2022-08-09T00:00:00	7:00:00	8:00:00	23	202	365	2700	0.14
6080	TF2-PY-S12-04 ถ.พระรามที่ 6 - ปากซอยหม่อมแผ้ว	13.791981	100.537882	bma	working	2022-08-09T00:00:00	8:00:00	9:00:00	26	190	1666	2700	0.62
6081	TF2-PY-S12-04 ถ.พระรามที่ 6 - ปากซอยหม่อมแผ้ว	13.791981	100.537882	bma	working	2022-08-09T00:00:00	9:00:00	10:00:00	22	189	1626	2700	0.60
6082	TF2-PY-S12-04 ถ.พระรามที่ 6 - ปากซอยหม่อมแผ้ว	13.791981	100.537882	bma	working	2022-08-09T00:00:00	10:00:00	11:00:00	18	186	1624	2700	0.60
6083	TF2-PY-S12-04 ถ.พระรามที่ 6 - ปากซอยหม่อมแผ้ว	13.791981	100.537882	bma	working	2022-08-09T00:00:00	11:00:00	12:00:00	27	150	550	2700	0.20
6084	TF2-PY-S12-04 ถ.พระรามที่ 6 - ปากซอยหม่อมแผ้ว	13.791981	100.537882	bma	working	2022-08-09T00:00:00	12:00:00	13:00:00	21	187	1509	2700	0.56
6085	TF2-PY-S12-04 ถ.พระรามที่ 6 - ปากซอยหม่อมแผ้ว	13.791981	100.537882	bma	working	2022-08-09T00:00:00	13:00:00	14:00:00	20	189	1599	2700	0.59
6086	TF2-PY-S12-04 ถ.พระรามที่ 6 - ปากซอยหม่อมแผ้ว	13.791981	100.537882	bma	working	2022-08-09T00:00:00	14:00:00	15:00:00	18	188	1504	2700	0.56
6087	TF2-PY-S12-04 ถ.พระรามที่ 6 - ปากซอยหม่อมแผ้ว	13.791981	100.537882	bma	working	2022-08-09T00:00:00	15:00:00	16:00:00	19	187	1559	2700	0.58
6088	TF2-PY-S12-04 ถ.พระรามที่ 6 - ปากซอยหม่อมแผ้ว	13.791981	100.537882	bma	working	2022-08-09T00:00:00	16:00:00	17:00:00	22	143	695	2700	0.26
6089	TF2-PY-S12-04 ถ.พระรามที่ 6 - ปากซอยหม่อมแผ้ว	13.791981	100.537882	bma	working	2022-08-09T00:00:00	17:00:00	18:00:00	32	202	343	2700	0.13
6090	TF2-PY-S12-04 ถ.พระรามที่ 6 - ปากซอยหม่อมแผ้ว	13.791981	100.537882	bma	working	2022-08-09T00:00:00	18:00:00	19:00:00	20	187	883	2700	0.33
6091	TF2-PY-S12-04 ถ.พระรามที่ 6 - ปากซอยหม่อมแผ้ว	13.791981	100.537882	bma	working	2022-09-09T00:00:00	5:00:00	6:00:00	38	47	142	2700	0.05
6092	TF2-PY-S12-04 ถ.พระรามที่ 6 - ปากซอยหม่อมแผ้ว	13.791981	100.537882	bma	working	2022-09-09T00:00:00	6:00:00	7:00:00	27	153	389	2700	0.14
6093	TF2-PY-S12-04 ถ.พระรามที่ 6 - ปากซอยหม่อมแผ้ว	13.791981	100.537882	bma	working	2022-09-09T00:00:00	7:00:00	8:00:00	11	201	368	2700	0.14
6094	TF2-PY-S12-04 ถ.พระรามที่ 6 - ปากซอยหม่อมแผ้ว	13.791981	100.537882	bma	working	2022-09-09T00:00:00	8:00:00	9:00:00	26	110	2673	2700	0.99
6095	TF2-PY-S12-04 ถ.พระรามที่ 6 - ปากซอยหม่อมแผ้ว	13.791981	100.537882	bma	working	2022-09-09T00:00:00	9:00:00	10:00:00	19	109	2665	2700	0.99
6096	TF2-PY-S12-04 ถ.พระรามที่ 6 - ปากซอยหม่อมแผ้ว	13.791981	100.537882	bma	working	2022-09-09T00:00:00	10:00:00	11:00:00	19	109	2700	2700	1.00
6097	TF2-PY-S12-04 ถ.พระรามที่ 6 - ปากซอยหม่อมแผ้ว	13.791981	100.537882	bma	working	2022-09-09T00:00:00	11:00:00	12:00:00	31	59	736	2700	0.27
6098	TF2-PY-S12-04 ถ.พระรามที่ 6 - ปากซอยหม่อมแผ้ว	13.791981	100.537882	bma	working	2022-09-09T00:00:00	12:00:00	13:00:00	23	105	2507	2700	0.93
6099	TF2-PY-S12-04 ถ.พระรามที่ 6 - ปากซอยหม่อมแผ้ว	13.791981	100.537882	bma	working	2022-09-09T00:00:00	13:00:00	14:00:00	25	108	2640	2700	0.98
6100	TF2-PY-S12-04 ถ.พระรามที่ 6 - ปากซอยหม่อมแผ้ว	13.791981	100.537882	bma	working	2022-09-09T00:00:00	14:00:00	15:00:00	18	106	2515	2700	0.93
6101	TF2-PY-S12-04 ถ.พระรามที่ 6 - ปากซอยหม่อมแผ้ว	13.791981	100.537882	bma	working	2022-09-09T00:00:00	15:00:00	16:00:00	22	108	2597	2700	0.96
6102	TF2-PY-S12-04 ถ.พระรามที่ 6 - ปากซอยหม่อมแผ้ว	13.791981	100.537882	bma	working	2022-09-09T00:00:00	16:00:00	17:00:00	25	87	1097	2700	0.41
6103	TF2-PY-S12-04 ถ.พระรามที่ 6 - ปากซอยหม่อมแผ้ว	13.791981	100.537882	bma	working	2022-09-09T00:00:00	17:00:00	18:00:00	51	201	357	2700	0.13
6104	TF2-PY-S12-04 ถ.พระรามที่ 6 - ปากซอยหม่อมแผ้ว	13.791981	100.537882	bma	working	2022-09-09T00:00:00	18:00:00	19:00:00	28	173	1551	2700	0.57
6105	TF2-PY-S12-04 ถ.พระรามที่ 6 - ปากซอยหม่อมแผ้ว	13.791981	100.537882	bma	working	2022-10-09T00:00:00	5:00:00	6:00:00	26	15	184	2700	0.07
6106	TF2-PY-S12-04 ถ.พระรามที่ 6 - ปากซอยหม่อมแผ้ว	13.791981	100.537882	bma	holiday	2022-10-09T00:00:00	6:00:00	7:00:00	19	48	525	2700	0.19
6107	TF2-PY-S12-04 ถ.พระรามที่ 6 - ปากซอยหม่อมแผ้ว	13.791981	100.537882	bma	holiday	2022-10-09T00:00:00	7:00:00	8:00:00	18	55	439	2700	0.16
6108	TF2-PY-S12-04 ถ.พระรามที่ 6 - ปากซอยหม่อมแผ้ว	13.791981	100.537882	bma	holiday	2022-10-09T00:00:00	8:00:00	9:00:00	19	141	1715	2700	0.64
6109	TF2-PY-S12-04 ถ.พระรามที่ 6 - ปากซอยหม่อมแผ้ว	13.791981	100.537882	bma	working	2022-10-09T00:00:00	9:00:00	10:00:00	19	141	1630	2700	0.60
6110	TF2-PY-S12-04 ถ.พระรามที่ 6 - ปากซอยหม่อมแผ้ว	13.791981	100.537882	bma	working	2022-10-09T00:00:00	10:00:00	11:00:00	17	135	1728	2700	0.64
6111	TF2-PY-S12-04 ถ.พระรามที่ 6 - ปากซอยหม่อมแผ้ว	13.791981	100.537882	bma	holiday	2022-10-09T00:00:00	11:00:00	12:00:00	19	201	165	2700	0.06
6112	TF2-PY-S12-04 ถ.พระรามที่ 6 - ปากซอยหม่อมแผ้ว	13.791981	100.537882	bma	working	2022-10-09T00:00:00	12:00:00	13:00:00	17	137	1581	2700	0.59
6113	TF2-PY-S12-04 ถ.พระรามที่ 6 - ปากซอยหม่อมแผ้ว	13.791981	100.537882	bma	working	2022-10-09T00:00:00	13:00:00	14:00:00	17	135	1647	2700	0.61
6114	TF2-PY-S12-04 ถ.พระรามที่ 6 - ปากซอยหม่อมแผ้ว	13.791981	100.537882	bma	working	2022-10-09T00:00:00	14:00:00	15:00:00	21	133	1556	2700	0.58
6115	TF2-PY-S12-04 ถ.พระรามที่ 6 - ปากซอยหม่อมแผ้ว	13.791981	100.537882	bma	working	2022-10-09T00:00:00	15:00:00	16:00:00	17	138	1599	2700	0.59
6116	TF2-PY-S12-04 ถ.พระรามที่ 6 - ปากซอยหม่อมแผ้ว	13.791981	100.537882	bma	holiday	2022-10-09T00:00:00	16:00:00	17:00:00	44	201	301	2700	0.11
6117	TF2-PY-S12-04 ถ.พระรามที่ 6 - ปากซอยหม่อมแผ้ว	13.791981	100.537882	bma	holiday	2022-10-09T00:00:00	17:00:00	18:00:00	48	24	136	2700	0.05
6118	TF2-PY-S12-04 ถ.พระรามที่ 6 - ปากซอยหม่อมแผ้ว	13.791981	100.537882	bma	holiday	2022-10-09T00:00:00	18:00:00	19:00:00	23	73	1198	2700	0.44
6119	TF2-PY-S12-04 ถ.พระรามที่ 6 - ปากซอยหม่อมแผ้ว	13.791981	100.537882	bma	working	2022-11-09T00:00:00	5:00:00	6:00:00	16	9	112	2700	0.04
6120	TF2-PY-S12-04 ถ.พระรามที่ 6 - ปากซอยหม่อมแผ้ว	13.791981	100.537882	bma	holiday	2022-11-09T00:00:00	6:00:00	7:00:00	12	29	313	2700	0.12
6121	TF2-PY-S12-04 ถ.พระรามที่ 6 - ปากซอยหม่อมแผ้ว	13.791981	100.537882	bma	holiday	2022-11-09T00:00:00	7:00:00	8:00:00	11	33	311	2700	0.12
6122	TF2-PY-S12-04 ถ.พระรามที่ 6 - ปากซอยหม่อมแผ้ว	13.791981	100.537882	bma	holiday	2022-11-09T00:00:00	8:00:00	9:00:00	11	83	1046	2700	0.39
6123	TF2-PY-S12-04 ถ.พระรามที่ 6 - ปากซอยหม่อมแผ้ว	13.791981	100.537882	bma	working	2022-11-09T00:00:00	9:00:00	10:00:00	13	83	1008	2700	0.37
6124	TF2-PY-S12-04 ถ.พระรามที่ 6 - ปากซอยหม่อมแผ้ว	13.791981	100.537882	bma	working	2022-11-09T00:00:00	10:00:00	11:00:00	12	81	1055	2700	0.39
6125	TF2-PY-S12-04 ถ.พระรามที่ 6 - ปากซอยหม่อมแผ้ว	13.791981	100.537882	bma	holiday	2022-11-09T00:00:00	11:00:00	12:00:00	12	127	90	2700	0.03
6126	TF2-PY-S12-04 ถ.พระรามที่ 6 - ปากซอยหม่อมแผ้ว	13.791981	100.537882	bma	working	2022-11-09T00:00:00	12:00:00	13:00:00	8	81	970	2700	0.36
6127	TF2-PY-S12-04 ถ.พระรามที่ 6 - ปากซอยหม่อมแผ้ว	13.791981	100.537882	bma	working	2022-11-09T00:00:00	13:00:00	14:00:00	13	80	993	2700	0.37
6128	TF2-PY-S12-04 ถ.พระรามที่ 6 - ปากซอยหม่อมแผ้ว	13.791981	100.537882	bma	working	2022-11-09T00:00:00	14:00:00	15:00:00	12	80	929	2700	0.34
6129	TF2-PY-S12-04 ถ.พระรามที่ 6 - ปากซอยหม่อมแผ้ว	13.791981	100.537882	bma	working	2022-11-09T00:00:00	15:00:00	16:00:00	10	82	985	2700	0.36
6130	TF2-PY-S12-04 ถ.พระรามที่ 6 - ปากซอยหม่อมแผ้ว	13.791981	100.537882	bma	holiday	2022-11-09T00:00:00	16:00:00	17:00:00	30	167	172	2700	0.06
6131	TF2-PY-S12-04 ถ.พระรามที่ 6 - ปากซอยหม่อมแผ้ว	13.791981	100.537882	bma	holiday	2022-11-09T00:00:00	17:00:00	18:00:00	28	12	105	2700	0.04
6132	TF2-PY-S12-04 ถ.พระรามที่ 6 - ปากซอยหม่อมแผ้ว	13.791981	100.537882	bma	holiday	2022-11-09T00:00:00	18:00:00	19:00:00	15	42	695	2700	0.26
6133	TF2-PY-S13-01 ถ.พระรามที่ 6 - ปากซอยพระรามที่ 6 ซอย 43	13.791915	100.538026	bma	working	2022-05-09T00:00:00	5:00:00	6:00:00	31	66	151	3600	0.04
6134	TF2-PY-S13-01 ถ.พระรามที่ 6 - ปากซอยพระรามที่ 6 ซอย 43	13.791915	100.538026	bma	working	2022-05-09T00:00:00	6:00:00	7:00:00	22	201	408	3600	0.11
6135	TF2-PY-S13-01 ถ.พระรามที่ 6 - ปากซอยพระรามที่ 6 ซอย 43	13.791915	100.538026	bma	working	2022-05-09T00:00:00	7:00:00	8:00:00	30	201	611	3600	0.17
6136	TF2-PY-S13-01 ถ.พระรามที่ 6 - ปากซอยพระรามที่ 6 ซอย 43	13.791915	100.538026	bma	working	2022-05-09T00:00:00	8:00:00	9:00:00	13	201	274	3600	0.08
6137	TF2-PY-S13-01 ถ.พระรามที่ 6 - ปากซอยพระรามที่ 6 ซอย 43	13.791915	100.538026	bma	working	2022-05-09T00:00:00	9:00:00	10:00:00	13	201	261	3600	0.07
6138	TF2-PY-S13-01 ถ.พระรามที่ 6 - ปากซอยพระรามที่ 6 ซอย 43	13.791915	100.538026	bma	working	2022-05-09T00:00:00	10:00:00	11:00:00	7	201	214	3600	0.06
6139	TF2-PY-S13-01 ถ.พระรามที่ 6 - ปากซอยพระรามที่ 6 ซอย 43	13.791915	100.538026	bma	working	2022-05-09T00:00:00	11:00:00	12:00:00	30	202	379	3600	0.11
6140	TF2-PY-S13-01 ถ.พระรามที่ 6 - ปากซอยพระรามที่ 6 ซอย 43	13.791915	100.538026	bma	working	2022-05-09T00:00:00	12:00:00	13:00:00	6	202	201	3600	0.06
6141	TF2-PY-S13-01 ถ.พระรามที่ 6 - ปากซอยพระรามที่ 6 ซอย 43	13.791915	100.538026	bma	working	2022-05-09T00:00:00	13:00:00	14:00:00	11	202	245	3600	0.07
6142	TF2-PY-S13-01 ถ.พระรามที่ 6 - ปากซอยพระรามที่ 6 ซอย 43	13.791915	100.538026	bma	working	2022-05-09T00:00:00	14:00:00	15:00:00	5	201	224	3600	0.06
6143	TF2-PY-S13-01 ถ.พระรามที่ 6 - ปากซอยพระรามที่ 6 ซอย 43	13.791915	100.538026	bma	working	2022-05-09T00:00:00	15:00:00	16:00:00	6	201	234	3600	0.07
6144	TF2-PY-S13-01 ถ.พระรามที่ 6 - ปากซอยพระรามที่ 6 ซอย 43	13.791915	100.538026	bma	working	2022-05-09T00:00:00	16:00:00	17:00:00	29	181	325	3600	0.09
6145	TF2-PY-S13-01 ถ.พระรามที่ 6 - ปากซอยพระรามที่ 6 ซอย 43	13.791915	100.538026	bma	working	2022-05-09T00:00:00	17:00:00	18:00:00	24	202	463	3600	0.13
6146	TF2-PY-S13-01 ถ.พระรามที่ 6 - ปากซอยพระรามที่ 6 ซอย 43	13.791915	100.538026	bma	working	2022-05-09T00:00:00	18:00:00	19:00:00	52	202	352	3600	0.10
6147	TF2-PY-S13-01 ถ.พระรามที่ 6 - ปากซอยพระรามที่ 6 ซอย 43	13.791915	100.538026	bma	working	2022-06-09T00:00:00	5:00:00	6:00:00	24	70	103	3600	0.03
6148	TF2-PY-S13-01 ถ.พระรามที่ 6 - ปากซอยพระรามที่ 6 ซอย 43	13.791915	100.538026	bma	working	2022-06-09T00:00:00	6:00:00	7:00:00	17	200	273	3600	0.08
6149	TF2-PY-S13-01 ถ.พระรามที่ 6 - ปากซอยพระรามที่ 6 ซอย 43	13.791915	100.538026	bma	working	2022-06-09T00:00:00	7:00:00	8:00:00	30	202	441	3600	0.12
6150	TF2-PY-S13-01 ถ.พระรามที่ 6 - ปากซอยพระรามที่ 6 ซอย 43	13.791915	100.538026	bma	working	2022-06-09T00:00:00	8:00:00	9:00:00	30	202	367	3600	0.10
6151	TF2-PY-S13-01 ถ.พระรามที่ 6 - ปากซอยพระรามที่ 6 ซอย 43	13.791915	100.538026	bma	working	2022-06-09T00:00:00	9:00:00	10:00:00	31	201	348	3600	0.10
6152	TF2-PY-S13-01 ถ.พระรามที่ 6 - ปากซอยพระรามที่ 6 ซอย 43	13.791915	100.538026	bma	working	2022-06-09T00:00:00	10:00:00	11:00:00	30	202	303	3600	0.08
6153	TF2-PY-S13-01 ถ.พระรามที่ 6 - ปากซอยพระรามที่ 6 ซอย 43	13.791915	100.538026	bma	working	2022-06-09T00:00:00	11:00:00	12:00:00	18	202	1015	3600	0.28
6154	TF2-PY-S13-01 ถ.พระรามที่ 6 - ปากซอยพระรามที่ 6 ซอย 43	13.791915	100.538026	bma	working	2022-06-09T00:00:00	12:00:00	13:00:00	29	202	248	3600	0.07
6155	TF2-PY-S13-01 ถ.พระรามที่ 6 - ปากซอยพระรามที่ 6 ซอย 43	13.791915	100.538026	bma	working	2022-06-09T00:00:00	13:00:00	14:00:00	30	201	310	3600	0.09
6156	TF2-PY-S13-01 ถ.พระรามที่ 6 - ปากซอยพระรามที่ 6 ซอย 43	13.791915	100.538026	bma	working	2022-06-09T00:00:00	14:00:00	15:00:00	29	201	303	3600	0.08
6157	TF2-PY-S13-01 ถ.พระรามที่ 6 - ปากซอยพระรามที่ 6 ซอย 43	13.791915	100.538026	bma	working	2022-06-09T00:00:00	15:00:00	16:00:00	28	202	323	3600	0.09
6158	TF2-PY-S13-01 ถ.พระรามที่ 6 - ปากซอยพระรามที่ 6 ซอย 43	13.791915	100.538026	bma	working	2022-06-09T00:00:00	16:00:00	17:00:00	27	167	1179	3600	0.33
6159	TF2-PY-S13-01 ถ.พระรามที่ 6 - ปากซอยพระรามที่ 6 ซอย 43	13.791915	100.538026	bma	working	2022-06-09T00:00:00	17:00:00	18:00:00	21	201	469	3600	0.13
6160	TF2-PY-S13-01 ถ.พระรามที่ 6 - ปากซอยพระรามที่ 6 ซอย 43	13.791915	100.538026	bma	working	2022-06-09T00:00:00	18:00:00	19:00:00	40	201	1404	3600	0.39
6161	TF2-PY-S13-01 ถ.พระรามที่ 6 - ปากซอยพระรามที่ 6 ซอย 43	13.791915	100.538026	bma	working	2022-07-09T00:00:00	5:00:00	6:00:00	15	15	70	3600	0.02
6162	TF2-PY-S13-01 ถ.พระรามที่ 6 - ปากซอยพระรามที่ 6 ซอย 43	13.791915	100.538026	bma	working	2022-07-09T00:00:00	6:00:00	7:00:00	11	48	190	3600	0.05
6163	TF2-PY-S13-01 ถ.พระรามที่ 6 - ปากซอยพระรามที่ 6 ซอย 43	13.791915	100.538026	bma	working	2022-07-09T00:00:00	7:00:00	8:00:00	31	202	300	3600	0.08
6164	TF2-PY-S13-01 ถ.พระรามที่ 6 - ปากซอยพระรามที่ 6 ซอย 43	13.791915	100.538026	bma	working	2022-07-09T00:00:00	8:00:00	9:00:00	52	201	389	3600	0.11
6165	TF2-PY-S13-01 ถ.พระรามที่ 6 - ปากซอยพระรามที่ 6 ซอย 43	13.791915	100.538026	bma	working	2022-07-09T00:00:00	9:00:00	10:00:00	53	202	431	3600	0.12
6166	TF2-PY-S13-01 ถ.พระรามที่ 6 - ปากซอยพระรามที่ 6 ซอย 43	13.791915	100.538026	bma	working	2022-07-09T00:00:00	10:00:00	11:00:00	52	202	360	3600	0.10
6167	TF2-PY-S13-01 ถ.พระรามที่ 6 - ปากซอยพระรามที่ 6 ซอย 43	13.791915	100.538026	bma	working	2022-07-09T00:00:00	11:00:00	12:00:00	12	201	1681	3600	0.47
6168	TF2-PY-S13-01 ถ.พระรามที่ 6 - ปากซอยพระรามที่ 6 ซอย 43	13.791915	100.538026	bma	working	2022-07-09T00:00:00	12:00:00	13:00:00	49	202	312	3600	0.09
6169	TF2-PY-S13-01 ถ.พระรามที่ 6 - ปากซอยพระรามที่ 6 ซอย 43	13.791915	100.538026	bma	working	2022-07-09T00:00:00	13:00:00	14:00:00	52	201	330	3600	0.09
6170	TF2-PY-S13-01 ถ.พระรามที่ 6 - ปากซอยพระรามที่ 6 ซอย 43	13.791915	100.538026	bma	working	2022-07-09T00:00:00	14:00:00	15:00:00	49	202	348	3600	0.10
6171	TF2-PY-S13-01 ถ.พระรามที่ 6 - ปากซอยพระรามที่ 6 ซอย 43	13.791915	100.538026	bma	working	2022-07-09T00:00:00	15:00:00	16:00:00	50	202	356	3600	0.10
6172	TF2-PY-S13-01 ถ.พระรามที่ 6 - ปากซอยพระรามที่ 6 ซอย 43	13.791915	100.538026	bma	working	2022-07-09T00:00:00	16:00:00	17:00:00	19	159	2126	3600	0.59
6173	TF2-PY-S13-01 ถ.พระรามที่ 6 - ปากซอยพระรามที่ 6 ซอย 43	13.791915	100.538026	bma	working	2022-07-09T00:00:00	17:00:00	18:00:00	21	202	449	3600	0.12
6174	TF2-PY-S13-01 ถ.พระรามที่ 6 - ปากซอยพระรามที่ 6 ซอย 43	13.791915	100.538026	bma	working	2022-07-09T00:00:00	18:00:00	19:00:00	26	103	2502	3600	0.70
6175	TF2-PY-S13-01 ถ.พระรามที่ 6 - ปากซอยพระรามที่ 6 ซอย 43	13.791915	100.538026	bma	working	2022-08-09T00:00:00	5:00:00	6:00:00	29	53	99	3600	0.03
6176	TF2-PY-S13-01 ถ.พระรามที่ 6 - ปากซอยพระรามที่ 6 ซอย 43	13.791915	100.538026	bma	working	2022-08-09T00:00:00	6:00:00	7:00:00	21	165	264	3600	0.07
6177	TF2-PY-S13-01 ถ.พระรามที่ 6 - ปากซอยพระรามที่ 6 ซอย 43	13.791915	100.538026	bma	working	2022-08-09T00:00:00	7:00:00	8:00:00	24	202	462	3600	0.13
6178	TF2-PY-S13-01 ถ.พระรามที่ 6 - ปากซอยพระรามที่ 6 ซอย 43	13.791915	100.538026	bma	working	2022-08-09T00:00:00	8:00:00	9:00:00	31	201	421	3600	0.12
6179	TF2-PY-S13-01 ถ.พระรามที่ 6 - ปากซอยพระรามที่ 6 ซอย 43	13.791915	100.538026	bma	working	2022-08-09T00:00:00	9:00:00	10:00:00	30	202	346	3600	0.10
6180	TF2-PY-S13-01 ถ.พระรามที่ 6 - ปากซอยพระรามที่ 6 ซอย 43	13.791915	100.538026	bma	working	2022-08-09T00:00:00	10:00:00	11:00:00	30	201	309	3600	0.09
6181	TF2-PY-S13-01 ถ.พระรามที่ 6 - ปากซอยพระรามที่ 6 ซอย 43	13.791915	100.538026	bma	working	2022-08-09T00:00:00	11:00:00	12:00:00	10	201	1022	3600	0.28
6182	TF2-PY-S13-01 ถ.พระรามที่ 6 - ปากซอยพระรามที่ 6 ซอย 43	13.791915	100.538026	bma	working	2022-08-09T00:00:00	12:00:00	13:00:00	28	201	244	3600	0.07
6183	TF2-PY-S13-01 ถ.พระรามที่ 6 - ปากซอยพระรามที่ 6 ซอย 43	13.791915	100.538026	bma	working	2022-08-09T00:00:00	13:00:00	14:00:00	29	201	308	3600	0.09
6184	TF2-PY-S13-01 ถ.พระรามที่ 6 - ปากซอยพระรามที่ 6 ซอย 43	13.791915	100.538026	bma	working	2022-08-09T00:00:00	14:00:00	15:00:00	27	202	326	3600	0.09
6185	TF2-PY-S13-01 ถ.พระรามที่ 6 - ปากซอยพระรามที่ 6 ซอย 43	13.791915	100.538026	bma	working	2022-08-09T00:00:00	15:00:00	16:00:00	32	201	314	3600	0.09
6186	TF2-PY-S13-01 ถ.พระรามที่ 6 - ปากซอยพระรามที่ 6 ซอย 43	13.791915	100.538026	bma	working	2022-08-09T00:00:00	16:00:00	17:00:00	20	201	1148	3600	0.32
6187	TF2-PY-S13-01 ถ.พระรามที่ 6 - ปากซอยพระรามที่ 6 ซอย 43	13.791915	100.538026	bma	working	2022-08-09T00:00:00	17:00:00	18:00:00	21	201	800	3600	0.22
6188	TF2-PY-S13-01 ถ.พระรามที่ 6 - ปากซอยพระรามที่ 6 ซอย 43	13.791915	100.538026	bma	working	2022-08-09T00:00:00	18:00:00	19:00:00	23	124	2143	3600	0.60
6189	TF2-PY-S13-01 ถ.พระรามที่ 6 - ปากซอยพระรามที่ 6 ซอย 43	13.791915	100.538026	bma	working	2022-09-09T00:00:00	5:00:00	6:00:00	48	69	132	3600	0.04
6190	TF2-PY-S13-01 ถ.พระรามที่ 6 - ปากซอยพระรามที่ 6 ซอย 43	13.791915	100.538026	bma	working	2022-09-09T00:00:00	6:00:00	7:00:00	34	202	330	3600	0.09
6191	TF2-PY-S13-01 ถ.พระรามที่ 6 - ปากซอยพระรามที่ 6 ซอย 43	13.791915	100.538026	bma	working	2022-09-09T00:00:00	7:00:00	8:00:00	20	202	642	3600	0.18
6192	TF2-PY-S13-01 ถ.พระรามที่ 6 - ปากซอยพระรามที่ 6 ซอย 43	13.791915	100.538026	bma	working	2022-09-09T00:00:00	8:00:00	9:00:00	11	202	346	3600	0.10
6193	TF2-PY-S13-01 ถ.พระรามที่ 6 - ปากซอยพระรามที่ 6 ซอย 43	13.791915	100.538026	bma	working	2022-09-09T00:00:00	9:00:00	10:00:00	10	202	289	3600	0.08
6194	TF2-PY-S13-01 ถ.พระรามที่ 6 - ปากซอยพระรามที่ 6 ซอย 43	13.791915	100.538026	bma	working	2022-09-09T00:00:00	10:00:00	11:00:00	6	201	206	3600	0.06
6195	TF2-PY-S13-01 ถ.พระรามที่ 6 - ปากซอยพระรามที่ 6 ซอย 43	13.791915	100.538026	bma	working	2022-09-09T00:00:00	11:00:00	12:00:00	14	202	392	3600	0.11
6196	TF2-PY-S13-01 ถ.พระรามที่ 6 - ปากซอยพระรามที่ 6 ซอย 43	13.791915	100.538026	bma	working	2022-09-09T00:00:00	12:00:00	13:00:00	13	202	182	3600	0.05
6197	TF2-PY-S13-01 ถ.พระรามที่ 6 - ปากซอยพระรามที่ 6 ซอย 43	13.791915	100.538026	bma	working	2022-09-09T00:00:00	13:00:00	14:00:00	8	202	226	3600	0.06
6198	TF2-PY-S13-01 ถ.พระรามที่ 6 - ปากซอยพระรามที่ 6 ซอย 43	13.791915	100.538026	bma	working	2022-09-09T00:00:00	14:00:00	15:00:00	10	202	332	3600	0.09
6199	TF2-PY-S13-01 ถ.พระรามที่ 6 - ปากซอยพระรามที่ 6 ซอย 43	13.791915	100.538026	bma	working	2022-09-09T00:00:00	15:00:00	16:00:00	10	201	272	3600	0.08
6200	TF2-PY-S13-01 ถ.พระรามที่ 6 - ปากซอยพระรามที่ 6 ซอย 43	13.791915	100.538026	bma	working	2022-09-09T00:00:00	16:00:00	17:00:00	13	201	237	3600	0.07
6201	TF2-PY-S13-01 ถ.พระรามที่ 6 - ปากซอยพระรามที่ 6 ซอย 43	13.791915	100.538026	bma	working	2022-09-09T00:00:00	17:00:00	18:00:00	16	201	1125	3600	0.31
6202	TF2-PY-S13-01 ถ.พระรามที่ 6 - ปากซอยพระรามที่ 6 ซอย 43	13.791915	100.538026	bma	working	2022-09-09T00:00:00	18:00:00	19:00:00	25	140	1827	3600	0.51
6203	TF2-PY-S13-01 ถ.พระรามที่ 6 - ปากซอยพระรามที่ 6 ซอย 43	13.791915	100.538026	bma	working	2022-10-09T00:00:00	5:00:00	6:00:00	35	23	108	3600	0.03
6204	TF2-PY-S13-01 ถ.พระรามที่ 6 - ปากซอยพระรามที่ 6 ซอย 43	13.791915	100.538026	bma	holiday	2022-10-09T00:00:00	6:00:00	7:00:00	25	73	265	3600	0.07
6205	TF2-PY-S13-01 ถ.พระรามที่ 6 - ปากซอยพระรามที่ 6 ซอย 43	13.791915	100.538026	bma	holiday	2022-10-09T00:00:00	7:00:00	8:00:00	16	85	335	3600	0.09
6206	TF2-PY-S13-01 ถ.พระรามที่ 6 - ปากซอยพระรามที่ 6 ซอย 43	13.791915	100.538026	bma	holiday	2022-10-09T00:00:00	8:00:00	9:00:00	14	47	398	3600	0.11
6207	TF2-PY-S13-01 ถ.พระรามที่ 6 - ปากซอยพระรามที่ 6 ซอย 43	13.791915	100.538026	bma	working	2022-10-09T00:00:00	9:00:00	10:00:00	11	43	424	3600	0.12
6208	TF2-PY-S13-01 ถ.พระรามที่ 6 - ปากซอยพระรามที่ 6 ซอย 43	13.791915	100.538026	bma	working	2022-10-09T00:00:00	10:00:00	11:00:00	9	33	325	3600	0.09
6209	TF2-PY-S13-01 ถ.พระรามที่ 6 - ปากซอยพระรามที่ 6 ซอย 43	13.791915	100.538026	bma	holiday	2022-10-09T00:00:00	11:00:00	12:00:00	14	201	434	3600	0.12
6210	TF2-PY-S13-01 ถ.พระรามที่ 6 - ปากซอยพระรามที่ 6 ซอย 43	13.791915	100.538026	bma	working	2022-10-09T00:00:00	12:00:00	13:00:00	11	43	313	3600	0.09
6211	TF2-PY-S13-01 ถ.พระรามที่ 6 - ปากซอยพระรามที่ 6 ซอย 43	13.791915	100.538026	bma	working	2022-10-09T00:00:00	13:00:00	14:00:00	13	41	320	3600	0.09
6212	TF2-PY-S13-01 ถ.พระรามที่ 6 - ปากซอยพระรามที่ 6 ซอย 43	13.791915	100.538026	bma	working	2022-10-09T00:00:00	14:00:00	15:00:00	12	42	386	3600	0.11
6213	TF2-PY-S13-01 ถ.พระรามที่ 6 - ปากซอยพระรามที่ 6 ซอย 43	13.791915	100.538026	bma	working	2022-10-09T00:00:00	15:00:00	16:00:00	12	41	249	3600	0.07
6214	TF2-PY-S13-01 ถ.พระรามที่ 6 - ปากซอยพระรามที่ 6 ซอย 43	13.791915	100.538026	bma	holiday	2022-10-09T00:00:00	16:00:00	17:00:00	14	202	1341	3600	0.37
6215	TF2-PY-S13-01 ถ.พระรามที่ 6 - ปากซอยพระรามที่ 6 ซอย 43	13.791915	100.538026	bma	holiday	2022-10-09T00:00:00	17:00:00	18:00:00	34	201	325	3600	0.09
6216	TF2-PY-S13-01 ถ.พระรามที่ 6 - ปากซอยพระรามที่ 6 ซอย 43	13.791915	100.538026	bma	holiday	2022-10-09T00:00:00	18:00:00	19:00:00	51	201	491	3600	0.14
6217	TF2-PY-S13-01 ถ.พระรามที่ 6 - ปากซอยพระรามที่ 6 ซอย 43	13.791915	100.538026	bma	working	2022-11-09T00:00:00	5:00:00	6:00:00	23	15	70	3600	0.02
6218	TF2-PY-S13-01 ถ.พระรามที่ 6 - ปากซอยพระรามที่ 6 ซอย 43	13.791915	100.538026	bma	holiday	2022-11-09T00:00:00	6:00:00	7:00:00	17	42	187	3600	0.05
6219	TF2-PY-S13-01 ถ.พระรามที่ 6 - ปากซอยพระรามที่ 6 ซอย 43	13.791915	100.538026	bma	holiday	2022-11-09T00:00:00	7:00:00	8:00:00	11	52	183	3600	0.05
6220	TF2-PY-S13-01 ถ.พระรามที่ 6 - ปากซอยพระรามที่ 6 ซอย 43	13.791915	100.538026	bma	holiday	2022-11-09T00:00:00	8:00:00	9:00:00	8	26	247	3600	0.07
6221	TF2-PY-S13-01 ถ.พระรามที่ 6 - ปากซอยพระรามที่ 6 ซอย 43	13.791915	100.538026	bma	working	2022-11-09T00:00:00	9:00:00	10:00:00	8	27	228	3600	0.06
6222	TF2-PY-S13-01 ถ.พระรามที่ 6 - ปากซอยพระรามที่ 6 ซอย 43	13.791915	100.538026	bma	working	2022-11-09T00:00:00	10:00:00	11:00:00	6	21	158	3600	0.04
6223	TF2-PY-S13-01 ถ.พระรามที่ 6 - ปากซอยพระรามที่ 6 ซอย 43	13.791915	100.538026	bma	holiday	2022-11-09T00:00:00	11:00:00	12:00:00	7	149	269	3600	0.07
6224	TF2-PY-S13-01 ถ.พระรามที่ 6 - ปากซอยพระรามที่ 6 ซอย 43	13.791915	100.538026	bma	working	2022-11-09T00:00:00	12:00:00	13:00:00	8	26	183	3600	0.05
6225	TF2-PY-S13-01 ถ.พระรามที่ 6 - ปากซอยพระรามที่ 6 ซอย 43	13.791915	100.538026	bma	working	2022-11-09T00:00:00	13:00:00	14:00:00	7	26	193	3600	0.05
6226	TF2-PY-S13-01 ถ.พระรามที่ 6 - ปากซอยพระรามที่ 6 ซอย 43	13.791915	100.538026	bma	working	2022-11-09T00:00:00	14:00:00	15:00:00	7	25	243	3600	0.07
6227	TF2-PY-S13-01 ถ.พระรามที่ 6 - ปากซอยพระรามที่ 6 ซอย 43	13.791915	100.538026	bma	working	2022-11-09T00:00:00	15:00:00	16:00:00	8	27	138	3600	0.04
6228	TF2-PY-S13-01 ถ.พระรามที่ 6 - ปากซอยพระรามที่ 6 ซอย 43	13.791915	100.538026	bma	holiday	2022-11-09T00:00:00	16:00:00	17:00:00	10	144	854	3600	0.24
6229	TF2-PY-S13-01 ถ.พระรามที่ 6 - ปากซอยพระรามที่ 6 ซอย 43	13.791915	100.538026	bma	holiday	2022-11-09T00:00:00	17:00:00	18:00:00	23	202	205	3600	0.06
6230	TF2-PY-S13-01 ถ.พระรามที่ 6 - ปากซอยพระรามที่ 6 ซอย 43	13.791915	100.538026	bma	holiday	2022-11-09T00:00:00	18:00:00	19:00:00	34	171	302	3600	0.08
6231	TF2-PY-S35-04 ปากซอยพหลโยธิน 2 - ถ.พหลโยธิน	13.77561	100.543149	bma	working	2022-05-09T00:00:00	5:00:00	6:00:00	51	19	192	2700	0.07
6232	TF2-PY-S35-04 ปากซอยพหลโยธิน 2 - ถ.พหลโยธิน	13.77561	100.543149	bma	working	2022-05-09T00:00:00	6:00:00	7:00:00	36	57	617	2700	0.23
6233	TF2-PY-S35-04 ปากซอยพหลโยธิน 2 - ถ.พหลโยธิน	13.77561	100.543149	bma	working	2022-05-09T00:00:00	7:00:00	8:00:00	30	94	1890	2700	0.70
6234	TF2-PY-S35-04 ปากซอยพหลโยธิน 2 - ถ.พหลโยธิน	13.77561	100.543149	bma	working	2022-05-09T00:00:00	8:00:00	9:00:00	28	92	1356	2700	0.50
6235	TF2-PY-S35-04 ปากซอยพหลโยธิน 2 - ถ.พหลโยธิน	13.77561	100.543149	bma	working	2022-05-09T00:00:00	9:00:00	10:00:00	24	85	1228	2700	0.45
6236	TF2-PY-S35-04 ปากซอยพหลโยธิน 2 - ถ.พหลโยธิน	13.77561	100.543149	bma	working	2022-05-09T00:00:00	10:00:00	11:00:00	25	89	1213	2700	0.45
6237	TF2-PY-S35-04 ปากซอยพหลโยธิน 2 - ถ.พหลโยธิน	13.77561	100.543149	bma	working	2022-05-09T00:00:00	11:00:00	12:00:00	22	192	1811	2700	0.67
6238	TF2-PY-S35-04 ปากซอยพหลโยธิน 2 - ถ.พหลโยธิน	13.77561	100.543149	bma	working	2022-05-09T00:00:00	12:00:00	13:00:00	27	93	1206	2700	0.45
6239	TF2-PY-S35-04 ปากซอยพหลโยธิน 2 - ถ.พหลโยธิน	13.77561	100.543149	bma	working	2022-05-09T00:00:00	13:00:00	14:00:00	27	94	1159	2700	0.43
6240	TF2-PY-S35-04 ปากซอยพหลโยธิน 2 - ถ.พหลโยธิน	13.77561	100.543149	bma	working	2022-05-09T00:00:00	14:00:00	15:00:00	25	96	1236	2700	0.46
6241	TF2-PY-S35-04 ปากซอยพหลโยธิน 2 - ถ.พหลโยธิน	13.77561	100.543149	bma	working	2022-05-09T00:00:00	15:00:00	16:00:00	24	95	1254	2700	0.46
6242	TF2-PY-S35-04 ปากซอยพหลโยธิน 2 - ถ.พหลโยธิน	13.77561	100.543149	bma	working	2022-05-09T00:00:00	16:00:00	17:00:00	24	89	1407	2700	0.52
6243	TF2-PY-S35-04 ปากซอยพหลโยธิน 2 - ถ.พหลโยธิน	13.77561	100.543149	bma	working	2022-05-09T00:00:00	17:00:00	18:00:00	17	183	2058	2700	0.76
6244	TF2-PY-S35-04 ปากซอยพหลโยธิน 2 - ถ.พหลโยธิน	13.77561	100.543149	bma	working	2022-05-09T00:00:00	18:00:00	19:00:00	22	201	1976	2700	0.73
6245	TF2-PY-S35-04 ปากซอยพหลโยธิน 2 - ถ.พหลโยธิน	13.77561	100.543149	bma	working	2022-06-09T00:00:00	5:00:00	6:00:00	55	15	175	2700	0.06
6246	TF2-PY-S35-04 ปากซอยพหลโยธิน 2 - ถ.พหลโยธิน	13.77561	100.543149	bma	working	2022-06-09T00:00:00	6:00:00	7:00:00	40	48	534	2700	0.20
6247	TF2-PY-S35-04 ปากซอยพหลโยธิน 2 - ถ.พหลโยธิน	13.77561	100.543149	bma	working	2022-06-09T00:00:00	7:00:00	8:00:00	32	85	1846	2700	0.68
6248	TF2-PY-S35-04 ปากซอยพหลโยธิน 2 - ถ.พหลโยธิน	13.77561	100.543149	bma	working	2022-06-09T00:00:00	8:00:00	9:00:00	29	92	1344	2700	0.50
6249	TF2-PY-S35-04 ปากซอยพหลโยธิน 2 - ถ.พหลโยธิน	13.77561	100.543149	bma	working	2022-06-09T00:00:00	9:00:00	10:00:00	26	89	1190	2700	0.44
6250	TF2-PY-S35-04 ปากซอยพหลโยธิน 2 - ถ.พหลโยธิน	13.77561	100.543149	bma	working	2022-06-09T00:00:00	10:00:00	11:00:00	25	86	1184	2700	0.44
6251	TF2-PY-S35-04 ปากซอยพหลโยธิน 2 - ถ.พหลโยธิน	13.77561	100.543149	bma	working	2022-06-09T00:00:00	11:00:00	12:00:00	24	166	1733	2700	0.64
6252	TF2-PY-S35-04 ปากซอยพหลโยธิน 2 - ถ.พหลโยธิน	13.77561	100.543149	bma	working	2022-06-09T00:00:00	12:00:00	13:00:00	28	89	1154	2700	0.43
6253	TF2-PY-S35-04 ปากซอยพหลโยธิน 2 - ถ.พหลโยธิน	13.77561	100.543149	bma	working	2022-06-09T00:00:00	13:00:00	14:00:00	27	93	1120	2700	0.41
6254	TF2-PY-S35-04 ปากซอยพหลโยธิน 2 - ถ.พหลโยธิน	13.77561	100.543149	bma	working	2022-06-09T00:00:00	14:00:00	15:00:00	24	93	1224	2700	0.45
6255	TF2-PY-S35-04 ปากซอยพหลโยธิน 2 - ถ.พหลโยธิน	13.77561	100.543149	bma	working	2022-06-09T00:00:00	15:00:00	16:00:00	30	93	1176	2700	0.44
6256	TF2-PY-S35-04 ปากซอยพหลโยธิน 2 - ถ.พหลโยธิน	13.77561	100.543149	bma	working	2022-06-09T00:00:00	16:00:00	17:00:00	23	115	1730	2700	0.64
6257	TF2-PY-S35-04 ปากซอยพหลโยธิน 2 - ถ.พหลโยธิน	13.77561	100.543149	bma	working	2022-06-09T00:00:00	17:00:00	18:00:00	19	201	2112	2700	0.78
6258	TF2-PY-S35-04 ปากซอยพหลโยธิน 2 - ถ.พหลโยธิน	13.77561	100.543149	bma	working	2022-06-09T00:00:00	18:00:00	19:00:00	18	186	1933	2700	0.72
6259	TF2-PY-S35-04 ปากซอยพหลโยธิน 2 - ถ.พหลโยธิน	13.77561	100.543149	bma	working	2022-07-09T00:00:00	5:00:00	6:00:00	61	13	137	2700	0.05
6260	TF2-PY-S35-04 ปากซอยพหลโยธิน 2 - ถ.พหลโยธิน	13.77561	100.543149	bma	working	2022-07-09T00:00:00	6:00:00	7:00:00	43	39	445	2700	0.16
6261	TF2-PY-S35-04 ปากซอยพหลโยธิน 2 - ถ.พหลโยธิน	13.77561	100.543149	bma	working	2022-07-09T00:00:00	7:00:00	8:00:00	40	80	1744	2700	0.65
6262	TF2-PY-S35-04 ปากซอยพหลโยธิน 2 - ถ.พหลโยธิน	13.77561	100.543149	bma	working	2022-07-09T00:00:00	8:00:00	9:00:00	31	93	1309	2700	0.48
6263	TF2-PY-S35-04 ปากซอยพหลโยธิน 2 - ถ.พหลโยธิน	13.77561	100.543149	bma	working	2022-07-09T00:00:00	9:00:00	10:00:00	28	90	1182	2700	0.44
6264	TF2-PY-S35-04 ปากซอยพหลโยธิน 2 - ถ.พหลโยธิน	13.77561	100.543149	bma	working	2022-07-09T00:00:00	10:00:00	11:00:00	28	87	1197	2700	0.44
6265	TF2-PY-S35-04 ปากซอยพหลโยธิน 2 - ถ.พหลโยธิน	13.77561	100.543149	bma	working	2022-07-09T00:00:00	11:00:00	12:00:00	24	144	1752	2700	0.65
6266	TF2-PY-S35-04 ปากซอยพหลโยธิน 2 - ถ.พหลโยธิน	13.77561	100.543149	bma	working	2022-07-09T00:00:00	12:00:00	13:00:00	26	88	1111	2700	0.41
6267	TF2-PY-S35-04 ปากซอยพหลโยธิน 2 - ถ.พหลโยธิน	13.77561	100.543149	bma	working	2022-07-09T00:00:00	13:00:00	14:00:00	26	92	1210	2700	0.45
6268	TF2-PY-S35-04 ปากซอยพหลโยธิน 2 - ถ.พหลโยธิน	13.77561	100.543149	bma	working	2022-07-09T00:00:00	14:00:00	15:00:00	24	95	1224	2700	0.45
6269	TF2-PY-S35-04 ปากซอยพหลโยธิน 2 - ถ.พหลโยธิน	13.77561	100.543149	bma	working	2022-07-09T00:00:00	15:00:00	16:00:00	30	93	1173	2700	0.43
6270	TF2-PY-S35-04 ปากซอยพหลโยธิน 2 - ถ.พหลโยธิน	13.77561	100.543149	bma	working	2022-07-09T00:00:00	16:00:00	17:00:00	27	139	2082	2700	0.77
6271	TF2-PY-S35-04 ปากซอยพหลโยธิน 2 - ถ.พหลโยธิน	13.77561	100.543149	bma	working	2022-07-09T00:00:00	17:00:00	18:00:00	15	202	2022	2700	0.75
6272	TF2-PY-S35-04 ปากซอยพหลโยธิน 2 - ถ.พหลโยธิน	13.77561	100.543149	bma	working	2022-07-09T00:00:00	18:00:00	19:00:00	19	166	1881	2700	0.70
6273	TF2-PY-S35-04 ปากซอยพหลโยธิน 2 - ถ.พหลโยธิน	13.77561	100.543149	bma	working	2022-08-09T00:00:00	5:00:00	6:00:00	47	20	192	2700	0.07
6274	TF2-PY-S35-04 ปากซอยพหลโยธิน 2 - ถ.พหลโยธิน	13.77561	100.543149	bma	working	2022-08-09T00:00:00	6:00:00	7:00:00	34	57	571	2700	0.21
6275	TF2-PY-S35-04 ปากซอยพหลโยธิน 2 - ถ.พหลโยธิน	13.77561	100.543149	bma	working	2022-08-09T00:00:00	7:00:00	8:00:00	34	63	1001	2700	0.37
6276	TF2-PY-S35-04 ปากซอยพหลโยธิน 2 - ถ.พหลโยธิน	13.77561	100.543149	bma	working	2022-08-09T00:00:00	8:00:00	9:00:00	24	193	1513	2700	0.56
6277	TF2-PY-S35-04 ปากซอยพหลโยธิน 2 - ถ.พหลโยธิน	13.77561	100.543149	bma	working	2022-08-09T00:00:00	9:00:00	10:00:00	22	186	1373	2700	0.51
6278	TF2-PY-S35-04 ปากซอยพหลโยธิน 2 - ถ.พหลโยธิน	13.77561	100.543149	bma	working	2022-08-09T00:00:00	10:00:00	11:00:00	21	187	1395	2700	0.52
6279	TF2-PY-S35-04 ปากซอยพหลโยธิน 2 - ถ.พหลโยธิน	13.77561	100.543149	bma	working	2022-08-09T00:00:00	11:00:00	12:00:00	24	145	1623	2700	0.60
6280	TF2-PY-S35-04 ปากซอยพหลโยธิน 2 - ถ.พหลโยธิน	13.77561	100.543149	bma	working	2022-08-09T00:00:00	12:00:00	13:00:00	19	188	1304	2700	0.48
6281	TF2-PY-S35-04 ปากซอยพหลโยธิน 2 - ถ.พหลโยธิน	13.77561	100.543149	bma	working	2022-08-09T00:00:00	13:00:00	14:00:00	21	190	1309	2700	0.48
6282	TF2-PY-S35-04 ปากซอยพหลโยธิน 2 - ถ.พหลโยธิน	13.77561	100.543149	bma	working	2022-08-09T00:00:00	14:00:00	15:00:00	18	190	1368	2700	0.51
6283	TF2-PY-S35-04 ปากซอยพหลโยธิน 2 - ถ.พหลโยธิน	13.77561	100.543149	bma	working	2022-08-09T00:00:00	15:00:00	16:00:00	20	188	1293	2700	0.48
6284	TF2-PY-S35-04 ปากซอยพหลโยธิน 2 - ถ.พหลโยธิน	13.77561	100.543149	bma	working	2022-08-09T00:00:00	16:00:00	17:00:00	30	120	1854	2700	0.69
6285	TF2-PY-S35-04 ปากซอยพหลโยธิน 2 - ถ.พหลโยธิน	13.77561	100.543149	bma	working	2022-08-09T00:00:00	17:00:00	18:00:00	20	198	2020	2700	0.75
6286	TF2-PY-S35-04 ปากซอยพหลโยธิน 2 - ถ.พหลโยธิน	13.77561	100.543149	bma	working	2022-08-09T00:00:00	18:00:00	19:00:00	22	156	1701	2700	0.63
6287	TF2-PY-S35-04 ปากซอยพหลโยธิน 2 - ถ.พหลโยธิน	13.77561	100.543149	bma	working	2022-09-09T00:00:00	5:00:00	6:00:00	36	23	236	2700	0.09
6288	TF2-PY-S35-04 ปากซอยพหลโยธิน 2 - ถ.พหลโยธิน	13.77561	100.543149	bma	working	2022-09-09T00:00:00	6:00:00	7:00:00	26	70	720	2700	0.27
6289	TF2-PY-S35-04 ปากซอยพหลโยธิน 2 - ถ.พหลโยธิน	13.77561	100.543149	bma	working	2022-09-09T00:00:00	7:00:00	8:00:00	31	47	260	2700	0.10
6290	TF2-PY-S35-04 ปากซอยพหลโยธิน 2 - ถ.พหลโยธิน	13.77561	100.543149	bma	working	2022-09-09T00:00:00	8:00:00	9:00:00	14	201	1709	2700	0.63
6291	TF2-PY-S35-04 ปากซอยพหลโยธิน 2 - ถ.พหลโยธิน	13.77561	100.543149	bma	working	2022-09-09T00:00:00	9:00:00	10:00:00	10	201	1528	2700	0.57
6292	TF2-PY-S35-04 ปากซอยพหลโยธิน 2 - ถ.พหลโยธิน	13.77561	100.543149	bma	working	2022-09-09T00:00:00	10:00:00	11:00:00	14	202	1546	2700	0.57
6293	TF2-PY-S35-04 ปากซอยพหลโยธิน 2 - ถ.พหลโยธิน	13.77561	100.543149	bma	working	2022-09-09T00:00:00	11:00:00	12:00:00	25	141	1567	2700	0.58
6294	TF2-PY-S35-04 ปากซอยพหลโยธิน 2 - ถ.พหลโยธิน	13.77561	100.543149	bma	working	2022-09-09T00:00:00	12:00:00	13:00:00	10	201	1407	2700	0.52
6295	TF2-PY-S35-04 ปากซอยพหลโยธิน 2 - ถ.พหลโยธิน	13.77561	100.543149	bma	working	2022-09-09T00:00:00	13:00:00	14:00:00	10	202	1478	2700	0.55
6296	TF2-PY-S35-04 ปากซอยพหลโยธิน 2 - ถ.พหลโยธิน	13.77561	100.543149	bma	working	2022-09-09T00:00:00	14:00:00	15:00:00	11	202	1573	2700	0.58
6297	TF2-PY-S35-04 ปากซอยพหลโยธิน 2 - ถ.พหลโยธิน	13.77561	100.543149	bma	working	2022-09-09T00:00:00	15:00:00	16:00:00	8	202	1443	2700	0.53
6298	TF2-PY-S35-04 ปากซอยพหลโยธิน 2 - ถ.พหลโยธิน	13.77561	100.543149	bma	working	2022-09-09T00:00:00	16:00:00	17:00:00	30	101	1602	2700	0.59
6299	TF2-PY-S35-04 ปากซอยพหลโยธิน 2 - ถ.พหลโยธิน	13.77561	100.543149	bma	working	2022-09-09T00:00:00	17:00:00	18:00:00	25	169	1889	2700	0.70
6300	TF2-PY-S35-04 ปากซอยพหลโยธิน 2 - ถ.พหลโยธิน	13.77561	100.543149	bma	working	2022-09-09T00:00:00	18:00:00	19:00:00	23	150	1479	2700	0.55
6301	TF2-PY-S35-04 ปากซอยพหลโยธิน 2 - ถ.พหลโยธิน	13.77561	100.543149	bma	working	2022-10-09T00:00:00	5:00:00	6:00:00	70	18	138	2700	0.05
6302	TF2-PY-S35-04 ปากซอยพหลโยธิน 2 - ถ.พหลโยธิน	13.77561	100.543149	bma	holiday	2022-10-09T00:00:00	6:00:00	7:00:00	50	53	402	2700	0.15
6303	TF2-PY-S35-04 ปากซอยพหลโยธิน 2 - ถ.พหลโยธิน	13.77561	100.543149	bma	holiday	2022-10-09T00:00:00	7:00:00	8:00:00	34	82	978	2700	0.36
6304	TF2-PY-S35-04 ปากซอยพหลโยธิน 2 - ถ.พหลโยธิน	13.77561	100.543149	bma	holiday	2022-10-09T00:00:00	8:00:00	9:00:00	40	85	833	2700	0.31
6305	TF2-PY-S35-04 ปากซอยพหลโยธิน 2 - ถ.พหลโยธิน	13.77561	100.543149	bma	working	2022-10-09T00:00:00	9:00:00	10:00:00	38	87	731	2700	0.27
6306	TF2-PY-S35-04 ปากซอยพหลโยธิน 2 - ถ.พหลโยธิน	13.77561	100.543149	bma	working	2022-10-09T00:00:00	10:00:00	11:00:00	40	83	666	2700	0.25
6307	TF2-PY-S35-04 ปากซอยพหลโยธิน 2 - ถ.พหลโยธิน	13.77561	100.543149	bma	holiday	2022-10-09T00:00:00	11:00:00	12:00:00	34	74	1408	2700	0.52
6308	TF2-PY-S35-04 ปากซอยพหลโยธิน 2 - ถ.พหลโยธิน	13.77561	100.543149	bma	working	2022-10-09T00:00:00	12:00:00	13:00:00	35	83	759	2700	0.28
6309	TF2-PY-S35-04 ปากซอยพหลโยธิน 2 - ถ.พหลโยธิน	13.77561	100.543149	bma	working	2022-10-09T00:00:00	13:00:00	14:00:00	37	85	683	2700	0.25
6310	TF2-PY-S35-04 ปากซอยพหลโยธิน 2 - ถ.พหลโยธิน	13.77561	100.543149	bma	working	2022-10-09T00:00:00	14:00:00	15:00:00	37	82	770	2700	0.29
6311	TF2-PY-S35-04 ปากซอยพหลโยธิน 2 - ถ.พหลโยธิน	13.77561	100.543149	bma	working	2022-10-09T00:00:00	15:00:00	16:00:00	35	83	745	2700	0.28
6312	TF2-PY-S35-04 ปากซอยพหลโยธิน 2 - ถ.พหลโยธิน	13.77561	100.543149	bma	holiday	2022-10-09T00:00:00	16:00:00	17:00:00	30	110	1328	2700	0.49
6313	TF2-PY-S35-04 ปากซอยพหลโยธิน 2 - ถ.พหลโยธิน	13.77561	100.543149	bma	holiday	2022-10-09T00:00:00	17:00:00	18:00:00	19	124	1539	2700	0.57
6314	TF2-PY-S35-04 ปากซอยพหลโยธิน 2 - ถ.พหลโยธิน	13.77561	100.543149	bma	holiday	2022-10-09T00:00:00	18:00:00	19:00:00	30	59	1155	2700	0.43
6315	TF2-PY-S35-04 ปากซอยพหลโยธิน 2 - ถ.พหลโยธิน	13.77561	100.543149	bma	working	2022-11-09T00:00:00	5:00:00	6:00:00	41	11	71	2700	0.03
6316	TF2-PY-S35-04 ปากซอยพหลโยธิน 2 - ถ.พหลโยธิน	13.77561	100.543149	bma	holiday	2022-11-09T00:00:00	6:00:00	7:00:00	29	35	222	2700	0.08
6317	TF2-PY-S35-04 ปากซอยพหลโยธิน 2 - ถ.พหลโยธิน	13.77561	100.543149	bma	holiday	2022-11-09T00:00:00	7:00:00	8:00:00	20	52	607	2700	0.22
6318	TF2-PY-S35-04 ปากซอยพหลโยธิน 2 - ถ.พหลโยธิน	13.77561	100.543149	bma	holiday	2022-11-09T00:00:00	8:00:00	9:00:00	27	52	503	2700	0.19
6319	TF2-PY-S35-04 ปากซอยพหลโยธิน 2 - ถ.พหลโยธิน	13.77561	100.543149	bma	working	2022-11-09T00:00:00	9:00:00	10:00:00	25	53	455	2700	0.17
6320	TF2-PY-S35-04 ปากซอยพหลโยธิน 2 - ถ.พหลโยธิน	13.77561	100.543149	bma	working	2022-11-09T00:00:00	10:00:00	11:00:00	22	49	409	2700	0.15
6321	TF2-PY-S35-04 ปากซอยพหลโยธิน 2 - ถ.พหลโยธิน	13.77561	100.543149	bma	holiday	2022-11-09T00:00:00	11:00:00	12:00:00	17	41	853	2700	0.32
6322	TF2-PY-S35-04 ปากซอยพหลโยธิน 2 - ถ.พหลโยธิน	13.77561	100.543149	bma	working	2022-11-09T00:00:00	12:00:00	13:00:00	20	48	464	2700	0.17
6323	TF2-PY-S35-04 ปากซอยพหลโยธิน 2 - ถ.พหลโยธิน	13.77561	100.543149	bma	working	2022-11-09T00:00:00	13:00:00	14:00:00	25	52	418	2700	0.15
6324	TF2-PY-S35-04 ปากซอยพหลโยธิน 2 - ถ.พหลโยธิน	13.77561	100.543149	bma	working	2022-11-09T00:00:00	14:00:00	15:00:00	23	51	486	2700	0.18
6325	TF2-PY-S35-04 ปากซอยพหลโยธิน 2 - ถ.พหลโยธิน	13.77561	100.543149	bma	working	2022-11-09T00:00:00	15:00:00	16:00:00	20	48	458	2700	0.17
6326	TF2-PY-S35-04 ปากซอยพหลโยธิน 2 - ถ.พหลโยธิน	13.77561	100.543149	bma	holiday	2022-11-09T00:00:00	16:00:00	17:00:00	19	64	784	2700	0.29
6327	TF2-PY-S35-04 ปากซอยพหลโยธิน 2 - ถ.พหลโยธิน	13.77561	100.543149	bma	holiday	2022-11-09T00:00:00	17:00:00	18:00:00	13	73	921	2700	0.34
6328	TF2-PY-S35-04 ปากซอยพหลโยธิน 2 - ถ.พหลโยธิน	13.77561	100.543149	bma	holiday	2022-11-09T00:00:00	18:00:00	19:00:00	15	37	715	2700	0.26
6329	TF2-PY-S37-02 ถ.ประดิพัทธ์-ถ.สาลีรัฐวิภาค	13.789811	100.548109	bma	working	2022-05-09T00:00:00	5:00:00	6:00:00	18	26	193	2700	0.07
6330	TF2-PY-S37-02 ถ.ประดิพัทธ์-ถ.สาลีรัฐวิภาค	13.789811	100.548109	bma	working	2022-05-09T00:00:00	6:00:00	7:00:00	13	77	524	2700	0.19
6331	TF2-PY-S37-02 ถ.ประดิพัทธ์-ถ.สาลีรัฐวิภาค	13.789811	100.548109	bma	working	2022-05-09T00:00:00	7:00:00	8:00:00	15	202	835	2700	0.31
6332	TF2-PY-S37-02 ถ.ประดิพัทธ์-ถ.สาลีรัฐวิภาค	13.789811	100.548109	bma	working	2022-05-09T00:00:00	8:00:00	9:00:00	17	201	2082	2700	0.77
6333	TF2-PY-S37-02 ถ.ประดิพัทธ์-ถ.สาลีรัฐวิภาค	13.789811	100.548109	bma	working	2022-05-09T00:00:00	9:00:00	10:00:00	13	201	1922	2700	0.71
6334	TF2-PY-S37-02 ถ.ประดิพัทธ์-ถ.สาลีรัฐวิภาค	13.789811	100.548109	bma	working	2022-05-09T00:00:00	10:00:00	11:00:00	17	202	1938	2700	0.72
6335	TF2-PY-S37-02 ถ.ประดิพัทธ์-ถ.สาลีรัฐวิภาค	13.789811	100.548109	bma	working	2022-05-09T00:00:00	11:00:00	12:00:00	16	202	595	2700	0.22
6336	TF2-PY-S37-02 ถ.ประดิพัทธ์-ถ.สาลีรัฐวิภาค	13.789811	100.548109	bma	working	2022-05-09T00:00:00	12:00:00	13:00:00	14	201	1896	2700	0.70
6337	TF2-PY-S37-02 ถ.ประดิพัทธ์-ถ.สาลีรัฐวิภาค	13.789811	100.548109	bma	working	2022-05-09T00:00:00	13:00:00	14:00:00	14	202	1817	2700	0.67
6338	TF2-PY-S37-02 ถ.ประดิพัทธ์-ถ.สาลีรัฐวิภาค	13.789811	100.548109	bma	working	2022-05-09T00:00:00	14:00:00	15:00:00	13	201	1885	2700	0.70
6339	TF2-PY-S37-02 ถ.ประดิพัทธ์-ถ.สาลีรัฐวิภาค	13.789811	100.548109	bma	working	2022-05-09T00:00:00	15:00:00	16:00:00	17	202	1851	2700	0.69
6340	TF2-PY-S37-02 ถ.ประดิพัทธ์-ถ.สาลีรัฐวิภาค	13.789811	100.548109	bma	working	2022-05-09T00:00:00	16:00:00	17:00:00	16	184	1565	2700	0.58
6341	TF2-PY-S37-02 ถ.ประดิพัทธ์-ถ.สาลีรัฐวิภาค	13.789811	100.548109	bma	working	2022-05-09T00:00:00	17:00:00	18:00:00	17	167	1101	2700	0.41
6342	TF2-PY-S37-02 ถ.ประดิพัทธ์-ถ.สาลีรัฐวิภาค	13.789811	100.548109	bma	working	2022-05-09T00:00:00	18:00:00	19:00:00	17	201	2552	2700	0.95
6343	TF2-PY-S37-02 ถ.ประดิพัทธ์-ถ.สาลีรัฐวิภาค	13.789811	100.548109	bma	working	2022-06-09T00:00:00	5:00:00	6:00:00	26	54	164	2700	0.06
6344	TF2-PY-S37-02 ถ.ประดิพัทธ์-ถ.สาลีรัฐวิภาค	13.789811	100.548109	bma	working	2022-06-09T00:00:00	6:00:00	7:00:00	19	158	471	2700	0.17
6345	TF2-PY-S37-02 ถ.ประดิพัทธ์-ถ.สาลีรัฐวิภาค	13.789811	100.548109	bma	working	2022-06-09T00:00:00	7:00:00	8:00:00	17	201	1018	2700	0.38
6346	TF2-PY-S37-02 ถ.ประดิพัทธ์-ถ.สาลีรัฐวิภาค	13.789811	100.548109	bma	working	2022-06-09T00:00:00	8:00:00	9:00:00	18	202	1413	2700	0.52
6347	TF2-PY-S37-02 ถ.ประดิพัทธ์-ถ.สาลีรัฐวิภาค	13.789811	100.548109	bma	working	2022-06-09T00:00:00	9:00:00	10:00:00	14	201	1284	2700	0.48
6348	TF2-PY-S37-02 ถ.ประดิพัทธ์-ถ.สาลีรัฐวิภาค	13.789811	100.548109	bma	working	2022-06-09T00:00:00	10:00:00	11:00:00	16	202	1377	2700	0.51
6349	TF2-PY-S37-02 ถ.ประดิพัทธ์-ถ.สาลีรัฐวิภาค	13.789811	100.548109	bma	working	2022-06-09T00:00:00	11:00:00	12:00:00	17	202	744	2700	0.28
6350	TF2-PY-S37-02 ถ.ประดิพัทธ์-ถ.สาลีรัฐวิภาค	13.789811	100.548109	bma	working	2022-06-09T00:00:00	12:00:00	13:00:00	16	201	1316	2700	0.49
6351	TF2-PY-S37-02 ถ.ประดิพัทธ์-ถ.สาลีรัฐวิภาค	13.789811	100.548109	bma	working	2022-06-09T00:00:00	13:00:00	14:00:00	11	202	1223	2700	0.45
6352	TF2-PY-S37-02 ถ.ประดิพัทธ์-ถ.สาลีรัฐวิภาค	13.789811	100.548109	bma	working	2022-06-09T00:00:00	14:00:00	15:00:00	14	201	1313	2700	0.49
6353	TF2-PY-S37-02 ถ.ประดิพัทธ์-ถ.สาลีรัฐวิภาค	13.789811	100.548109	bma	working	2022-06-09T00:00:00	15:00:00	16:00:00	16	201	1248	2700	0.46
6354	TF2-PY-S37-02 ถ.ประดิพัทธ์-ถ.สาลีรัฐวิภาค	13.789811	100.548109	bma	working	2022-06-09T00:00:00	16:00:00	17:00:00	16	202	1237	2700	0.46
6355	TF2-PY-S37-02 ถ.ประดิพัทธ์-ถ.สาลีรัฐวิภาค	13.789811	100.548109	bma	working	2022-06-09T00:00:00	17:00:00	18:00:00	18	137	963	2700	0.36
6356	TF2-PY-S37-02 ถ.ประดิพัทธ์-ถ.สาลีรัฐวิภาค	13.789811	100.548109	bma	working	2022-06-09T00:00:00	18:00:00	19:00:00	16	202	1802	2700	0.67
6357	TF2-PY-S37-02 ถ.ประดิพัทธ์-ถ.สาลีรัฐวิภาค	13.789811	100.548109	bma	working	2022-07-09T00:00:00	5:00:00	6:00:00	34	62	138	2700	0.05
6358	TF2-PY-S37-02 ถ.ประดิพัทธ์-ถ.สาลีรัฐวิภาค	13.789811	100.548109	bma	working	2022-07-09T00:00:00	6:00:00	7:00:00	24	201	367	2700	0.14
6359	TF2-PY-S37-02 ถ.ประดิพัทธ์-ถ.สาลีรัฐวิภาค	13.789811	100.548109	bma	working	2022-07-09T00:00:00	7:00:00	8:00:00	17	201	1158	2700	0.43
6360	TF2-PY-S37-02 ถ.ประดิพัทธ์-ถ.สาลีรัฐวิภาค	13.789811	100.548109	bma	working	2022-07-09T00:00:00	8:00:00	9:00:00	17	202	781	2700	0.29
6361	TF2-PY-S37-02 ถ.ประดิพัทธ์-ถ.สาลีรัฐวิภาค	13.789811	100.548109	bma	working	2022-07-09T00:00:00	9:00:00	10:00:00	14	202	644	2700	0.24
6362	TF2-PY-S37-02 ถ.ประดิพัทธ์-ถ.สาลีรัฐวิภาค	13.789811	100.548109	bma	working	2022-07-09T00:00:00	10:00:00	11:00:00	16	202	713	2700	0.26
6363	TF2-PY-S37-02 ถ.ประดิพัทธ์-ถ.สาลีรัฐวิภาค	13.789811	100.548109	bma	working	2022-07-09T00:00:00	11:00:00	12:00:00	19	202	846	2700	0.31
6364	TF2-PY-S37-02 ถ.ประดิพัทธ์-ถ.สาลีรัฐวิภาค	13.789811	100.548109	bma	working	2022-07-09T00:00:00	12:00:00	13:00:00	14	201	722	2700	0.27
6365	TF2-PY-S37-02 ถ.ประดิพัทธ์-ถ.สาลีรัฐวิภาค	13.789811	100.548109	bma	working	2022-07-09T00:00:00	13:00:00	14:00:00	14	202	661	2700	0.24
6366	TF2-PY-S37-02 ถ.ประดิพัทธ์-ถ.สาลีรัฐวิภาค	13.789811	100.548109	bma	working	2022-07-09T00:00:00	14:00:00	15:00:00	10	202	711	2700	0.26
6367	TF2-PY-S37-02 ถ.ประดิพัทธ์-ถ.สาลีรัฐวิภาค	13.789811	100.548109	bma	working	2022-07-09T00:00:00	15:00:00	16:00:00	13	202	662	2700	0.25
6368	TF2-PY-S37-02 ถ.ประดิพัทธ์-ถ.สาลีรัฐวิภาค	13.789811	100.548109	bma	working	2022-07-09T00:00:00	16:00:00	17:00:00	19	202	896	2700	0.33
6369	TF2-PY-S37-02 ถ.ประดิพัทธ์-ถ.สาลีรัฐวิภาค	13.789811	100.548109	bma	working	2022-07-09T00:00:00	17:00:00	18:00:00	12	105	652	2700	0.24
6370	TF2-PY-S37-02 ถ.ประดิพัทธ์-ถ.สาลีรัฐวิภาค	13.789811	100.548109	bma	working	2022-07-09T00:00:00	18:00:00	19:00:00	14	201	976	2700	0.36
6371	TF2-PY-S37-02 ถ.ประดิพัทธ์-ถ.สาลีรัฐวิภาค	13.789811	100.548109	bma	working	2022-08-09T00:00:00	5:00:00	6:00:00	26	46	173	2700	0.06
6372	TF2-PY-S37-02 ถ.ประดิพัทธ์-ถ.สาลีรัฐวิภาค	13.789811	100.548109	bma	working	2022-08-09T00:00:00	6:00:00	7:00:00	19	147	484	2700	0.18
6373	TF2-PY-S37-02 ถ.ประดิพัทธ์-ถ.สาลีรัฐวิภาค	13.789811	100.548109	bma	working	2022-08-09T00:00:00	7:00:00	8:00:00	17	201	1112	2700	0.41
6374	TF2-PY-S37-02 ถ.ประดิพัทธ์-ถ.สาลีรัฐวิภาค	13.789811	100.548109	bma	working	2022-08-09T00:00:00	8:00:00	9:00:00	17	202	1021	2700	0.38
6375	TF2-PY-S37-02 ถ.ประดิพัทธ์-ถ.สาลีรัฐวิภาค	13.789811	100.548109	bma	working	2022-08-09T00:00:00	9:00:00	10:00:00	14	201	877	2700	0.32
6376	TF2-PY-S37-02 ถ.ประดิพัทธ์-ถ.สาลีรัฐวิภาค	13.789811	100.548109	bma	working	2022-08-09T00:00:00	10:00:00	11:00:00	13	202	941	2700	0.35
6377	TF2-PY-S37-02 ถ.ประดิพัทธ์-ถ.สาลีรัฐวิภาค	13.789811	100.548109	bma	working	2022-08-09T00:00:00	11:00:00	12:00:00	13	202	930	2700	0.34
6378	TF2-PY-S37-02 ถ.ประดิพัทธ์-ถ.สาลีรัฐวิภาค	13.789811	100.548109	bma	working	2022-08-09T00:00:00	12:00:00	13:00:00	18	202	855	2700	0.32
6379	TF2-PY-S37-02 ถ.ประดิพัทธ์-ถ.สาลีรัฐวิภาค	13.789811	100.548109	bma	working	2022-08-09T00:00:00	13:00:00	14:00:00	13	201	837	2700	0.31
6380	TF2-PY-S37-02 ถ.ประดิพัทธ์-ถ.สาลีรัฐวิภาค	13.789811	100.548109	bma	working	2022-08-09T00:00:00	14:00:00	15:00:00	14	201	908	2700	0.34
6381	TF2-PY-S37-02 ถ.ประดิพัทธ์-ถ.สาลีรัฐวิภาค	13.789811	100.548109	bma	working	2022-08-09T00:00:00	15:00:00	16:00:00	19	201	804	2700	0.30
6382	TF2-PY-S37-02 ถ.ประดิพัทธ์-ถ.สาลีรัฐวิภาค	13.789811	100.548109	bma	working	2022-08-09T00:00:00	16:00:00	17:00:00	15	201	700	2700	0.26
6383	TF2-PY-S37-02 ถ.ประดิพัทธ์-ถ.สาลีรัฐวิภาค	13.789811	100.548109	bma	working	2022-08-09T00:00:00	17:00:00	18:00:00	6	151	601	2700	0.22
6384	TF2-PY-S37-02 ถ.ประดิพัทธ์-ถ.สาลีรัฐวิภาค	13.789811	100.548109	bma	working	2022-08-09T00:00:00	18:00:00	19:00:00	13	202	675	2700	0.25
6385	TF2-PY-S37-02 ถ.ประดิพัทธ์-ถ.สาลีรัฐวิภาค	13.789811	100.548109	bma	working	2022-09-09T00:00:00	5:00:00	6:00:00	28	20	221	2700	0.08
6386	TF2-PY-S37-02 ถ.ประดิพัทธ์-ถ.สาลีรัฐวิภาค	13.789811	100.548109	bma	working	2022-09-09T00:00:00	6:00:00	7:00:00	20	59	588	2700	0.22
6387	TF2-PY-S37-02 ถ.ประดิพัทธ์-ถ.สาลีรัฐวิภาค	13.789811	100.548109	bma	working	2022-09-09T00:00:00	7:00:00	8:00:00	14	201	1116	2700	0.41
6388	TF2-PY-S37-02 ถ.ประดิพัทธ์-ถ.สาลีรัฐวิภาค	13.789811	100.548109	bma	working	2022-09-09T00:00:00	8:00:00	9:00:00	17	201	1171	2700	0.43
6389	TF2-PY-S37-02 ถ.ประดิพัทธ์-ถ.สาลีรัฐวิภาค	13.789811	100.548109	bma	working	2022-09-09T00:00:00	9:00:00	10:00:00	14	202	1050	2700	0.39
6390	TF2-PY-S37-02 ถ.ประดิพัทธ์-ถ.สาลีรัฐวิภาค	13.789811	100.548109	bma	working	2022-09-09T00:00:00	10:00:00	11:00:00	17	201	1163	2700	0.43
6391	TF2-PY-S37-02 ถ.ประดิพัทธ์-ถ.สาลีรัฐวิภาค	13.789811	100.548109	bma	working	2022-09-09T00:00:00	11:00:00	12:00:00	9	201	1054	2700	0.39
6392	TF2-PY-S37-02 ถ.ประดิพัทธ์-ถ.สาลีรัฐวิภาค	13.789811	100.548109	bma	working	2022-09-09T00:00:00	12:00:00	13:00:00	20	202	946	2700	0.35
6393	TF2-PY-S37-02 ถ.ประดิพัทธ์-ถ.สาลีรัฐวิภาค	13.789811	100.548109	bma	working	2022-09-09T00:00:00	13:00:00	14:00:00	16	201	962	2700	0.36
6394	TF2-PY-S37-02 ถ.ประดิพัทธ์-ถ.สาลีรัฐวิภาค	13.789811	100.548109	bma	working	2022-09-09T00:00:00	14:00:00	15:00:00	18	202	1068	2700	0.40
6395	TF2-PY-S37-02 ถ.ประดิพัทธ์-ถ.สาลีรัฐวิภาค	13.789811	100.548109	bma	working	2022-09-09T00:00:00	15:00:00	16:00:00	18	201	1005	2700	0.37
6396	TF2-PY-S37-02 ถ.ประดิพัทธ์-ถ.สาลีรัฐวิภาค	13.789811	100.548109	bma	working	2022-09-09T00:00:00	16:00:00	17:00:00	12	201	560	2700	0.21
6397	TF2-PY-S37-02 ถ.ประดิพัทธ์-ถ.สาลีรัฐวิภาค	13.789811	100.548109	bma	working	2022-09-09T00:00:00	17:00:00	18:00:00	2	200	587	2700	0.22
6398	TF2-PY-S37-02 ถ.ประดิพัทธ์-ถ.สาลีรัฐวิภาค	13.789811	100.548109	bma	working	2022-09-09T00:00:00	18:00:00	19:00:00	9	201	383	2700	0.14
6399	TF2-PY-S37-02 ถ.ประดิพัทธ์-ถ.สาลีรัฐวิภาค	13.789811	100.548109	bma	working	2022-10-09T00:00:00	5:00:00	6:00:00	25	21	199	2700	0.07
6400	TF2-PY-S37-02 ถ.ประดิพัทธ์-ถ.สาลีรัฐวิภาค	13.789811	100.548109	bma	holiday	2022-10-09T00:00:00	6:00:00	7:00:00	18	63	601	2700	0.22
6401	TF2-PY-S37-02 ถ.ประดิพัทธ์-ถ.สาลีรัฐวิภาค	13.789811	100.548109	bma	holiday	2022-10-09T00:00:00	7:00:00	8:00:00	24	76	1016	2700	0.38
6402	TF2-PY-S37-02 ถ.ประดิพัทธ์-ถ.สาลีรัฐวิภาค	13.789811	100.548109	bma	holiday	2022-10-09T00:00:00	8:00:00	9:00:00	13	174	485	2700	0.18
6403	TF2-PY-S37-02 ถ.ประดิพัทธ์-ถ.สาลีรัฐวิภาค	13.789811	100.548109	bma	working	2022-10-09T00:00:00	9:00:00	10:00:00	12	173	446	2700	0.17
6404	TF2-PY-S37-02 ถ.ประดิพัทธ์-ถ.สาลีรัฐวิภาค	13.789811	100.548109	bma	working	2022-10-09T00:00:00	10:00:00	11:00:00	12	172	400	2700	0.15
6405	TF2-PY-S37-02 ถ.ประดิพัทธ์-ถ.สาลีรัฐวิภาค	13.789811	100.548109	bma	holiday	2022-10-09T00:00:00	11:00:00	12:00:00	15	201	859	2700	0.32
6406	TF2-PY-S37-02 ถ.ประดิพัทธ์-ถ.สาลีรัฐวิภาค	13.789811	100.548109	bma	working	2022-10-09T00:00:00	12:00:00	13:00:00	10	172	419	2700	0.16
6407	TF2-PY-S37-02 ถ.ประดิพัทธ์-ถ.สาลีรัฐวิภาค	13.789811	100.548109	bma	working	2022-10-09T00:00:00	13:00:00	14:00:00	13	172	456	2700	0.17
6408	TF2-PY-S37-02 ถ.ประดิพัทธ์-ถ.สาลีรัฐวิภาค	13.789811	100.548109	bma	working	2022-10-09T00:00:00	14:00:00	15:00:00	13	175	341	2700	0.13
6409	TF2-PY-S37-02 ถ.ประดิพัทธ์-ถ.สาลีรัฐวิภาค	13.789811	100.548109	bma	working	2022-10-09T00:00:00	15:00:00	16:00:00	13	175	341	2700	0.13
6410	TF2-PY-S37-02 ถ.ประดิพัทธ์-ถ.สาลีรัฐวิภาค	13.789811	100.548109	bma	holiday	2022-10-09T00:00:00	16:00:00	17:00:00	23	120	1848	2700	0.68
6411	TF2-PY-S37-02 ถ.ประดิพัทธ์-ถ.สาลีรัฐวิภาค	13.789811	100.548109	bma	holiday	2022-10-09T00:00:00	17:00:00	18:00:00	15	202	905	2700	0.34
6412	TF2-PY-S37-02 ถ.ประดิพัทธ์-ถ.สาลีรัฐวิภาค	13.789811	100.548109	bma	holiday	2022-10-09T00:00:00	18:00:00	19:00:00	54	51	224	2700	0.08
6413	TF2-PY-S37-02 ถ.ประดิพัทธ์-ถ.สาลีรัฐวิภาค	13.789811	100.548109	bma	working	2022-11-09T00:00:00	5:00:00	6:00:00	12	12	126	2700	0.05
6414	TF2-PY-S37-02 ถ.ประดิพัทธ์-ถ.สาลีรัฐวิภาค	13.789811	100.548109	bma	holiday	2022-11-09T00:00:00	6:00:00	7:00:00	9	39	383	2700	0.14
6415	TF2-PY-S37-02 ถ.ประดิพัทธ์-ถ.สาลีรัฐวิภาค	13.789811	100.548109	bma	holiday	2022-11-09T00:00:00	7:00:00	8:00:00	14	43	592	2700	0.22
6416	TF2-PY-S37-02 ถ.ประดิพัทธ์-ถ.สาลีรัฐวิภาค	13.789811	100.548109	bma	holiday	2022-11-09T00:00:00	8:00:00	9:00:00	10	106	283	2700	0.10
6417	TF2-PY-S37-02 ถ.ประดิพัทธ์-ถ.สาลีรัฐวิภาค	13.789811	100.548109	bma	working	2022-11-09T00:00:00	9:00:00	10:00:00	9	105	286	2700	0.11
6418	TF2-PY-S37-02 ถ.ประดิพัทธ์-ถ.สาลีรัฐวิภาค	13.789811	100.548109	bma	working	2022-11-09T00:00:00	10:00:00	11:00:00	8	103	210	2700	0.08
6419	TF2-PY-S37-02 ถ.ประดิพัทธ์-ถ.สาลีรัฐวิภาค	13.789811	100.548109	bma	holiday	2022-11-09T00:00:00	11:00:00	12:00:00	12	146	524	2700	0.19
6420	TF2-PY-S37-02 ถ.ประดิพัทธ์-ถ.สาลีรัฐวิภาค	13.789811	100.548109	bma	working	2022-11-09T00:00:00	12:00:00	13:00:00	7	102	261	2700	0.10
6421	TF2-PY-S37-02 ถ.ประดิพัทธ์-ถ.สาลีรัฐวิภาค	13.789811	100.548109	bma	working	2022-11-09T00:00:00	13:00:00	14:00:00	6	104	253	2700	0.09
6422	TF2-PY-S37-02 ถ.ประดิพัทธ์-ถ.สาลีรัฐวิภาค	13.789811	100.548109	bma	working	2022-11-09T00:00:00	14:00:00	15:00:00	8	104	209	2700	0.08
6423	TF2-PY-S37-02 ถ.ประดิพัทธ์-ถ.สาลีรัฐวิภาค	13.789811	100.548109	bma	working	2022-11-09T00:00:00	15:00:00	16:00:00	7	104	193	2700	0.07
6424	TF2-PY-S37-02 ถ.ประดิพัทธ์-ถ.สาลีรัฐวิภาค	13.789811	100.548109	bma	holiday	2022-11-09T00:00:00	16:00:00	17:00:00	13	73	1112	2700	0.41
6425	TF2-PY-S37-02 ถ.ประดิพัทธ์-ถ.สาลีรัฐวิภาค	13.789811	100.548109	bma	holiday	2022-11-09T00:00:00	17:00:00	18:00:00	11	202	604	2700	0.22
6426	TF2-PY-S37-02 ถ.ประดิพัทธ์-ถ.สาลีรัฐวิภาค	13.789811	100.548109	bma	holiday	2022-11-09T00:00:00	18:00:00	19:00:00	30	34	135	2700	0.05
6427	TF2-PY-S38-02 ถ.พหลโยธิน - ถ.ประดิพัทธ์	13.789634	100.548172	bma	working	2022-05-09T00:00:00	5:00:00	6:00:00	43	12	221	2700	0.08
6428	TF2-PY-S38-02 ถ.พหลโยธิน - ถ.ประดิพัทธ์	13.789634	100.548172	bma	working	2022-05-09T00:00:00	6:00:00	7:00:00	31	35	722	2700	0.27
6429	TF2-PY-S38-02 ถ.พหลโยธิน - ถ.ประดิพัทธ์	13.789634	100.548172	bma	working	2022-05-09T00:00:00	7:00:00	8:00:00	23	201	612	2700	0.23
6430	TF2-PY-S38-02 ถ.พหลโยธิน - ถ.ประดิพัทธ์	13.789634	100.548172	bma	working	2022-05-09T00:00:00	8:00:00	9:00:00	23	202	582	2700	0.22
6431	TF2-PY-S38-02 ถ.พหลโยธิน - ถ.ประดิพัทธ์	13.789634	100.548172	bma	working	2022-05-09T00:00:00	9:00:00	10:00:00	21	202	514	2700	0.19
6432	TF2-PY-S38-02 ถ.พหลโยธิน - ถ.ประดิพัทธ์	13.789634	100.548172	bma	working	2022-05-09T00:00:00	10:00:00	11:00:00	19	202	522	2700	0.19
6433	TF2-PY-S38-02 ถ.พหลโยธิน - ถ.ประดิพัทธ์	13.789634	100.548172	bma	working	2022-05-09T00:00:00	11:00:00	12:00:00	20	202	621	2700	0.23
6434	TF2-PY-S38-02 ถ.พหลโยธิน - ถ.ประดิพัทธ์	13.789634	100.548172	bma	working	2022-05-09T00:00:00	12:00:00	13:00:00	22	201	456	2700	0.17
6435	TF2-PY-S38-02 ถ.พหลโยธิน - ถ.ประดิพัทธ์	13.789634	100.548172	bma	working	2022-05-09T00:00:00	13:00:00	14:00:00	20	202	484	2700	0.18
6436	TF2-PY-S38-02 ถ.พหลโยธิน - ถ.ประดิพัทธ์	13.789634	100.548172	bma	working	2022-05-09T00:00:00	14:00:00	15:00:00	16	201	495	2700	0.18
6437	TF2-PY-S38-02 ถ.พหลโยธิน - ถ.ประดิพัทธ์	13.789634	100.548172	bma	working	2022-05-09T00:00:00	15:00:00	16:00:00	18	201	525	2700	0.19
6438	TF2-PY-S38-02 ถ.พหลโยธิน - ถ.ประดิพัทธ์	13.789634	100.548172	bma	working	2022-05-09T00:00:00	16:00:00	17:00:00	22	201	228	2700	0.08
6439	TF2-PY-S38-02 ถ.พหลโยธิน - ถ.ประดิพัทธ์	13.789634	100.548172	bma	working	2022-05-09T00:00:00	17:00:00	18:00:00	50	202	420	2700	0.16
6440	TF2-PY-S38-02 ถ.พหลโยธิน - ถ.ประดิพัทธ์	13.789634	100.548172	bma	working	2022-05-09T00:00:00	18:00:00	19:00:00	16	202	645	2700	0.24
6441	TF2-PY-S38-02 ถ.พหลโยธิน - ถ.ประดิพัทธ์	13.789634	100.548172	bma	working	2022-06-09T00:00:00	5:00:00	6:00:00	34	18	203	2700	0.08
6442	TF2-PY-S38-02 ถ.พหลโยธิน - ถ.ประดิพัทธ์	13.789634	100.548172	bma	working	2022-06-09T00:00:00	6:00:00	7:00:00	24	52	587	2700	0.22
6443	TF2-PY-S38-02 ถ.พหลโยธิน - ถ.ประดิพัทธ์	13.789634	100.548172	bma	working	2022-06-09T00:00:00	7:00:00	8:00:00	17	202	586	2700	0.22
6444	TF2-PY-S38-02 ถ.พหลโยธิน - ถ.ประดิพัทธ์	13.789634	100.548172	bma	working	2022-06-09T00:00:00	8:00:00	9:00:00	19	201	1969	2700	0.73
6445	TF2-PY-S38-02 ถ.พหลโยธิน - ถ.ประดิพัทธ์	13.789634	100.548172	bma	working	2022-06-09T00:00:00	9:00:00	10:00:00	15	202	2008	2700	0.74
6446	TF2-PY-S38-02 ถ.พหลโยธิน - ถ.ประดิพัทธ์	13.789634	100.548172	bma	working	2022-06-09T00:00:00	10:00:00	11:00:00	15	202	1910	2700	0.71
6447	TF2-PY-S38-02 ถ.พหลโยธิน - ถ.ประดิพัทธ์	13.789634	100.548172	bma	working	2022-06-09T00:00:00	11:00:00	12:00:00	19	201	592	2700	0.22
6448	TF2-PY-S38-02 ถ.พหลโยธิน - ถ.ประดิพัทธ์	13.789634	100.548172	bma	working	2022-06-09T00:00:00	12:00:00	13:00:00	16	201	1803	2700	0.67
6449	TF2-PY-S38-02 ถ.พหลโยธิน - ถ.ประดิพัทธ์	13.789634	100.548172	bma	working	2022-06-09T00:00:00	13:00:00	14:00:00	19	202	1777	2700	0.66
6450	TF2-PY-S38-02 ถ.พหลโยธิน - ถ.ประดิพัทธ์	13.789634	100.548172	bma	working	2022-06-09T00:00:00	14:00:00	15:00:00	13	201	1812	2700	0.67
6451	TF2-PY-S38-02 ถ.พหลโยธิน - ถ.ประดิพัทธ์	13.789634	100.548172	bma	working	2022-06-09T00:00:00	15:00:00	16:00:00	16	202	1808	2700	0.67
6452	TF2-PY-S38-02 ถ.พหลโยธิน - ถ.ประดิพัทธ์	13.789634	100.548172	bma	working	2022-06-09T00:00:00	16:00:00	17:00:00	23	201	1040	2700	0.39
6453	TF2-PY-S38-02 ถ.พหลโยธิน - ถ.ประดิพัทธ์	13.789634	100.548172	bma	working	2022-06-09T00:00:00	17:00:00	18:00:00	40	201	474	2700	0.18
6454	TF2-PY-S38-02 ถ.พหลโยธิน - ถ.ประดิพัทธ์	13.789634	100.548172	bma	working	2022-06-09T00:00:00	18:00:00	19:00:00	16	202	596	2700	0.22
6455	TF2-PY-S38-02 ถ.พหลโยธิน - ถ.ประดิพัทธ์	13.789634	100.548172	bma	working	2022-07-09T00:00:00	5:00:00	6:00:00	25	25	158	2700	0.06
6456	TF2-PY-S38-02 ถ.พหลโยธิน - ถ.ประดิพัทธ์	13.789634	100.548172	bma	working	2022-07-09T00:00:00	6:00:00	7:00:00	18	73	492	2700	0.18
6457	TF2-PY-S38-02 ถ.พหลโยธิน - ถ.ประดิพัทธ์	13.789634	100.548172	bma	working	2022-07-09T00:00:00	7:00:00	8:00:00	14	201	555	2700	0.21
6458	TF2-PY-S38-02 ถ.พหลโยธิน - ถ.ประดิพัทธ์	13.789634	100.548172	bma	working	2022-07-09T00:00:00	8:00:00	9:00:00	17	193	3207	2700	1.19
6459	TF2-PY-S38-02 ถ.พหลโยธิน - ถ.ประดิพัทธ์	13.789634	100.548172	bma	working	2022-07-09T00:00:00	9:00:00	10:00:00	16	189	3172	2700	1.17
6460	TF2-PY-S38-02 ถ.พหลโยธิน - ถ.ประดิพัทธ์	13.789634	100.548172	bma	working	2022-07-09T00:00:00	10:00:00	11:00:00	11	188	3304	2700	1.22
6461	TF2-PY-S38-02 ถ.พหลโยธิน - ถ.ประดิพัทธ์	13.789634	100.548172	bma	working	2022-07-09T00:00:00	11:00:00	12:00:00	22	201	602	2700	0.22
6462	TF2-PY-S38-02 ถ.พหลโยธิน - ถ.ประดิพัทธ์	13.789634	100.548172	bma	working	2022-07-09T00:00:00	12:00:00	13:00:00	16	193	3061	2700	1.13
6463	TF2-PY-S38-02 ถ.พหลโยธิน - ถ.ประดิพัทธ์	13.789634	100.548172	bma	working	2022-07-09T00:00:00	13:00:00	14:00:00	15	190	2932	2700	1.09
6464	TF2-PY-S38-02 ถ.พหลโยธิน - ถ.ประดิพัทธ์	13.789634	100.548172	bma	working	2022-07-09T00:00:00	14:00:00	15:00:00	12	191	2914	2700	1.08
6465	TF2-PY-S38-02 ถ.พหลโยธิน - ถ.ประดิพัทธ์	13.789634	100.548172	bma	working	2022-07-09T00:00:00	15:00:00	16:00:00	11	192	2950	2700	1.09
6466	TF2-PY-S38-02 ถ.พหลโยธิน - ถ.ประดิพัทธ์	13.789634	100.548172	bma	working	2022-07-09T00:00:00	16:00:00	17:00:00	22	201	1895	2700	0.70
6467	TF2-PY-S38-02 ถ.พหลโยธิน - ถ.ประดิพัทธ์	13.789634	100.548172	bma	working	2022-07-09T00:00:00	17:00:00	18:00:00	24	202	554	2700	0.21
6468	TF2-PY-S38-02 ถ.พหลโยธิน - ถ.ประดิพัทธ์	13.789634	100.548172	bma	working	2022-07-09T00:00:00	18:00:00	19:00:00	15	202	586	2700	0.22
6469	TF2-PY-S38-02 ถ.พหลโยธิน - ถ.ประดิพัทธ์	13.789634	100.548172	bma	working	2022-08-09T00:00:00	5:00:00	6:00:00	33	42	233	2700	0.09
6470	TF2-PY-S38-02 ถ.พหลโยธิน - ถ.ประดิพัทธ์	13.789634	100.548172	bma	working	2022-08-09T00:00:00	6:00:00	7:00:00	24	135	721	2700	0.27
6471	TF2-PY-S38-02 ถ.พหลโยธิน - ถ.ประดิพัทธ์	13.789634	100.548172	bma	working	2022-08-09T00:00:00	7:00:00	8:00:00	16	201	1640	2700	0.61
6472	TF2-PY-S38-02 ถ.พหลโยธิน - ถ.ประดิพัทธ์	13.789634	100.548172	bma	working	2022-08-09T00:00:00	8:00:00	9:00:00	17	199	2035	2700	0.75
6473	TF2-PY-S38-02 ถ.พหลโยธิน - ถ.ประดิพัทธ์	13.789634	100.548172	bma	working	2022-08-09T00:00:00	9:00:00	10:00:00	13	194	1738	2700	0.64
6474	TF2-PY-S38-02 ถ.พหลโยธิน - ถ.ประดิพัทธ์	13.789634	100.548172	bma	working	2022-08-09T00:00:00	10:00:00	11:00:00	13	194	1886	2700	0.70
6475	TF2-PY-S38-02 ถ.พหลโยธิน - ถ.ประดิพัทธ์	13.789634	100.548172	bma	working	2022-08-09T00:00:00	11:00:00	12:00:00	20	201	624	2700	0.23
6476	TF2-PY-S38-02 ถ.พหลโยธิน - ถ.ประดิพัทธ์	13.789634	100.548172	bma	working	2022-08-09T00:00:00	12:00:00	13:00:00	13	195	1727	2700	0.64
6477	TF2-PY-S38-02 ถ.พหลโยธิน - ถ.ประดิพัทธ์	13.789634	100.548172	bma	working	2022-08-09T00:00:00	13:00:00	14:00:00	18	193	1766	2700	0.65
6478	TF2-PY-S38-02 ถ.พหลโยธิน - ถ.ประดิพัทธ์	13.789634	100.548172	bma	working	2022-08-09T00:00:00	14:00:00	15:00:00	15	196	1713	2700	0.63
6479	TF2-PY-S38-02 ถ.พหลโยธิน - ถ.ประดิพัทธ์	13.789634	100.548172	bma	working	2022-08-09T00:00:00	15:00:00	16:00:00	16	197	1638	2700	0.61
6480	TF2-PY-S38-02 ถ.พหลโยธิน - ถ.ประดิพัทธ์	13.789634	100.548172	bma	working	2022-08-09T00:00:00	16:00:00	17:00:00	22	201	2401	2700	0.89
6481	TF2-PY-S38-02 ถ.พหลโยธิน - ถ.ประดิพัทธ์	13.789634	100.548172	bma	working	2022-08-09T00:00:00	17:00:00	18:00:00	23	202	564	2700	0.21
6482	TF2-PY-S38-02 ถ.พหลโยธิน - ถ.ประดิพัทธ์	13.789634	100.548172	bma	working	2022-08-09T00:00:00	18:00:00	19:00:00	12	201	787	2700	0.29
6483	TF2-PY-S38-02 ถ.พหลโยธิน - ถ.ประดิพัทธ์	13.789634	100.548172	bma	working	2022-09-09T00:00:00	5:00:00	6:00:00	43	64	350	2700	0.13
6484	TF2-PY-S38-02 ถ.พหลโยธิน - ถ.ประดิพัทธ์	13.789634	100.548172	bma	working	2022-09-09T00:00:00	6:00:00	7:00:00	30	193	1005	2700	0.37
6485	TF2-PY-S38-02 ถ.พหลโยธิน - ถ.ประดิพัทธ์	13.789634	100.548172	bma	working	2022-09-09T00:00:00	7:00:00	8:00:00	20	197	2765	2700	1.02
6486	TF2-PY-S38-02 ถ.พหลโยธิน - ถ.ประดิพัทธ์	13.789634	100.548172	bma	working	2022-09-09T00:00:00	8:00:00	9:00:00	21	201	416	2700	0.15
6487	TF2-PY-S38-02 ถ.พหลโยธิน - ถ.ประดิพัทธ์	13.789634	100.548172	bma	working	2022-09-09T00:00:00	9:00:00	10:00:00	19	199	254	2700	0.09
6488	TF2-PY-S38-02 ถ.พหลโยธิน - ถ.ประดิพัทธ์	13.789634	100.548172	bma	working	2022-09-09T00:00:00	10:00:00	11:00:00	18	200	270	2700	0.10
6489	TF2-PY-S38-02 ถ.พหลโยธิน - ถ.ประดิพัทธ์	13.789634	100.548172	bma	working	2022-09-09T00:00:00	11:00:00	12:00:00	14	202	620	2700	0.23
6490	TF2-PY-S38-02 ถ.พหลโยธิน - ถ.ประดิพัทธ์	13.789634	100.548172	bma	working	2022-09-09T00:00:00	12:00:00	13:00:00	16	197	265	2700	0.10
6491	TF2-PY-S38-02 ถ.พหลโยธิน - ถ.ประดิพัทธ์	13.789634	100.548172	bma	working	2022-09-09T00:00:00	13:00:00	14:00:00	18	199	367	2700	0.14
6492	TF2-PY-S38-02 ถ.พหลโยธิน - ถ.ประดิพัทธ์	13.789634	100.548172	bma	working	2022-09-09T00:00:00	14:00:00	15:00:00	19	202	267	2700	0.10
6493	TF2-PY-S38-02 ถ.พหลโยธิน - ถ.ประดิพัทธ์	13.789634	100.548172	bma	working	2022-09-09T00:00:00	15:00:00	16:00:00	16	200	252	2700	0.09
6494	TF2-PY-S38-02 ถ.พหลโยธิน - ถ.ประดิพัทธ์	13.789634	100.548172	bma	working	2022-09-09T00:00:00	16:00:00	17:00:00	20	199	3323	2700	1.23
6495	TF2-PY-S38-02 ถ.พหลโยธิน - ถ.ประดิพัทธ์	13.789634	100.548172	bma	working	2022-09-09T00:00:00	17:00:00	18:00:00	25	201	512	2700	0.19
6496	TF2-PY-S38-02 ถ.พหลโยธิน - ถ.ประดิพัทธ์	13.789634	100.548172	bma	working	2022-09-09T00:00:00	18:00:00	19:00:00	12	201	954	2700	0.35
6497	TF2-PY-S38-02 ถ.พหลโยธิน - ถ.ประดิพัทธ์	13.789634	100.548172	bma	working	2022-10-09T00:00:00	5:00:00	6:00:00	21	32	293	2700	0.11
6498	TF2-PY-S38-02 ถ.พหลโยธิน - ถ.ประดิพัทธ์	13.789634	100.548172	bma	holiday	2022-10-09T00:00:00	6:00:00	7:00:00	15	99	932	2700	0.35
6499	TF2-PY-S38-02 ถ.พหลโยธิน - ถ.ประดิพัทธ์	13.789634	100.548172	bma	holiday	2022-10-09T00:00:00	7:00:00	8:00:00	26	202	312	2700	0.12
6500	TF2-PY-S38-02 ถ.พหลโยธิน - ถ.ประดิพัทธ์	13.789634	100.548172	bma	holiday	2022-10-09T00:00:00	8:00:00	9:00:00	24	122	2300	2700	0.85
6501	TF2-PY-S38-02 ถ.พหลโยธิน - ถ.ประดิพัทธ์	13.789634	100.548172	bma	working	2022-10-09T00:00:00	9:00:00	10:00:00	23	112	2280	2700	0.84
6502	TF2-PY-S38-02 ถ.พหลโยธิน - ถ.ประดิพัทธ์	13.789634	100.548172	bma	working	2022-10-09T00:00:00	10:00:00	11:00:00	20	114	2249	2700	0.83
6503	TF2-PY-S38-02 ถ.พหลโยธิน - ถ.ประดิพัทธ์	13.789634	100.548172	bma	holiday	2022-10-09T00:00:00	11:00:00	12:00:00	19	201	2847	2700	1.05
6504	TF2-PY-S38-02 ถ.พหลโยธิน - ถ.ประดิพัทธ์	13.789634	100.548172	bma	working	2022-10-09T00:00:00	12:00:00	13:00:00	23	114	2027	2700	0.75
6505	TF2-PY-S38-02 ถ.พหลโยธิน - ถ.ประดิพัทธ์	13.789634	100.548172	bma	working	2022-10-09T00:00:00	13:00:00	14:00:00	23	116	2191	2700	0.81
6506	TF2-PY-S38-02 ถ.พหลโยธิน - ถ.ประดิพัทธ์	13.789634	100.548172	bma	working	2022-10-09T00:00:00	14:00:00	15:00:00	21	113	2031	2700	0.75
6507	TF2-PY-S38-02 ถ.พหลโยธิน - ถ.ประดิพัทธ์	13.789634	100.548172	bma	working	2022-10-09T00:00:00	15:00:00	16:00:00	23	115	2008	2700	0.74
6508	TF2-PY-S38-02 ถ.พหลโยธิน - ถ.ประดิพัทธ์	13.789634	100.548172	bma	holiday	2022-10-09T00:00:00	16:00:00	17:00:00	16	202	600	2700	0.22
6509	TF2-PY-S38-02 ถ.พหลโยธิน - ถ.ประดิพัทธ์	13.789634	100.548172	bma	holiday	2022-10-09T00:00:00	17:00:00	18:00:00	20	201	3021	2700	1.12
6510	TF2-PY-S38-02 ถ.พหลโยธิน - ถ.ประดิพัทธ์	13.789634	100.548172	bma	holiday	2022-10-09T00:00:00	18:00:00	19:00:00	25	202	472	2700	0.17
6511	TF2-PY-S38-02 ถ.พหลโยธิน - ถ.ประดิพัทธ์	13.789634	100.548172	bma	working	2022-11-09T00:00:00	5:00:00	6:00:00	13	18	204	2700	0.08
6512	TF2-PY-S38-02 ถ.พหลโยธิน - ถ.ประดิพัทธ์	13.789634	100.548172	bma	holiday	2022-11-09T00:00:00	6:00:00	7:00:00	10	58	594	2700	0.22
6513	TF2-PY-S38-02 ถ.พหลโยธิน - ถ.ประดิพัทธ์	13.789634	100.548172	bma	holiday	2022-11-09T00:00:00	7:00:00	8:00:00	15	130	204	2700	0.08
6514	TF2-PY-S38-02 ถ.พหลโยธิน - ถ.ประดิพัทธ์	13.789634	100.548172	bma	holiday	2022-11-09T00:00:00	8:00:00	9:00:00	17	70	1412	2700	0.52
6515	TF2-PY-S38-02 ถ.พหลโยธิน - ถ.ประดิพัทธ์	13.789634	100.548172	bma	working	2022-11-09T00:00:00	9:00:00	10:00:00	13	70	1416	2700	0.52
6516	TF2-PY-S38-02 ถ.พหลโยธิน - ถ.ประดิพัทธ์	13.789634	100.548172	bma	working	2022-11-09T00:00:00	10:00:00	11:00:00	11	70	1363	2700	0.50
6517	TF2-PY-S38-02 ถ.พหลโยธิน - ถ.ประดิพัทธ์	13.789634	100.548172	bma	holiday	2022-11-09T00:00:00	11:00:00	12:00:00	13	124	1736	2700	0.64
6518	TF2-PY-S38-02 ถ.พหลโยธิน - ถ.ประดิพัทธ์	13.789634	100.548172	bma	working	2022-11-09T00:00:00	12:00:00	13:00:00	17	68	1266	2700	0.47
6519	TF2-PY-S38-02 ถ.พหลโยธิน - ถ.ประดิพัทธ์	13.789634	100.548172	bma	working	2022-11-09T00:00:00	13:00:00	14:00:00	15	72	1393	2700	0.52
6520	TF2-PY-S38-02 ถ.พหลโยธิน - ถ.ประดิพัทธ์	13.789634	100.548172	bma	working	2022-11-09T00:00:00	14:00:00	15:00:00	12	68	1307	2700	0.48
6521	TF2-PY-S38-02 ถ.พหลโยธิน - ถ.ประดิพัทธ์	13.789634	100.548172	bma	working	2022-11-09T00:00:00	15:00:00	16:00:00	16	72	1254	2700	0.46
6522	TF2-PY-S38-02 ถ.พหลโยธิน - ถ.ประดิพัทธ์	13.789634	100.548172	bma	holiday	2022-11-09T00:00:00	16:00:00	17:00:00	10	201	361	2700	0.13
6523	TF2-PY-S38-02 ถ.พหลโยธิน - ถ.ประดิพัทธ์	13.789634	100.548172	bma	holiday	2022-11-09T00:00:00	17:00:00	18:00:00	12	125	1864	2700	0.69
6524	TF2-PY-S38-02 ถ.พหลโยธิน - ถ.ประดิพัทธ์	13.789634	100.548172	bma	holiday	2022-11-09T00:00:00	18:00:00	19:00:00	16	202	282	2700	0.10
6525	TF2-ST-S51-03 ถ.จันทน์-ถ.นราธิวาสราชนครินทร์	13.707243	100.53776	bma	working	2022-05-09T00:00:00	5:00:00	6:00:00	52	38	438	3600	0.12
6526	TF2-ST-S51-03 ถ.จันทน์-ถ.นราธิวาสราชนครินทร์	13.707243	100.53776	bma	working	2022-05-09T00:00:00	6:00:00	7:00:00	37	115	1285	3600	0.36
6527	TF2-ST-S51-03 ถ.จันทน์-ถ.นราธิวาสราชนครินทร์	13.707243	100.53776	bma	working	2022-05-09T00:00:00	7:00:00	8:00:00	13	202	2319	3600	0.64
6528	TF2-ST-S51-03 ถ.จันทน์-ถ.นราธิวาสราชนครินทร์	13.707243	100.53776	bma	working	2022-05-09T00:00:00	8:00:00	9:00:00	17	201	574	3600	0.16
6529	TF2-ST-S51-03 ถ.จันทน์-ถ.นราธิวาสราชนครินทร์	13.707243	100.53776	bma	working	2022-05-09T00:00:00	9:00:00	10:00:00	18	202	515	3600	0.14
6530	TF2-ST-S51-03 ถ.จันทน์-ถ.นราธิวาสราชนครินทร์	13.707243	100.53776	bma	working	2022-05-09T00:00:00	10:00:00	11:00:00	18	201	433	3600	0.12
6531	TF2-ST-S51-03 ถ.จันทน์-ถ.นราธิวาสราชนครินทร์	13.707243	100.53776	bma	working	2022-05-09T00:00:00	11:00:00	12:00:00	24	202	862	3600	0.24
6532	TF2-ST-S51-03 ถ.จันทน์-ถ.นราธิวาสราชนครินทร์	13.707243	100.53776	bma	working	2022-05-09T00:00:00	12:00:00	13:00:00	15	201	480	3600	0.13
6533	TF2-ST-S51-03 ถ.จันทน์-ถ.นราธิวาสราชนครินทร์	13.707243	100.53776	bma	working	2022-05-09T00:00:00	13:00:00	14:00:00	16	201	553	3600	0.15
6534	TF2-ST-S51-03 ถ.จันทน์-ถ.นราธิวาสราชนครินทร์	13.707243	100.53776	bma	working	2022-05-09T00:00:00	14:00:00	15:00:00	11	202	401	3600	0.11
6535	TF2-ST-S51-03 ถ.จันทน์-ถ.นราธิวาสราชนครินทร์	13.707243	100.53776	bma	working	2022-05-09T00:00:00	15:00:00	16:00:00	15	201	437	3600	0.12
6536	TF2-ST-S51-03 ถ.จันทน์-ถ.นราธิวาสราชนครินทร์	13.707243	100.53776	bma	working	2022-05-09T00:00:00	16:00:00	17:00:00	30	188	3199	3600	0.89
6537	TF2-ST-S51-03 ถ.จันทน์-ถ.นราธิวาสราชนครินทร์	13.707243	100.53776	bma	working	2022-05-09T00:00:00	17:00:00	18:00:00	23	202	972	3600	0.27
6538	TF2-ST-S51-03 ถ.จันทน์-ถ.นราธิวาสราชนครินทร์	13.707243	100.53776	bma	working	2022-05-09T00:00:00	18:00:00	19:00:00	33	160	3884	3600	1.08
6539	TF2-ST-S51-03 ถ.จันทน์-ถ.นราธิวาสราชนครินทร์	13.707243	100.53776	bma	working	2022-06-09T00:00:00	5:00:00	6:00:00	44	30	315	3600	0.09
6540	TF2-ST-S51-03 ถ.จันทน์-ถ.นราธิวาสราชนครินทร์	13.707243	100.53776	bma	working	2022-06-09T00:00:00	6:00:00	7:00:00	31	88	894	3600	0.25
6541	TF2-ST-S51-03 ถ.จันทน์-ถ.นราธิวาสราชนครินทร์	13.707243	100.53776	bma	working	2022-06-09T00:00:00	7:00:00	8:00:00	20	201	2262	3600	0.63
6542	TF2-ST-S51-03 ถ.จันทน์-ถ.นราธิวาสราชนครินทร์	13.707243	100.53776	bma	working	2022-06-09T00:00:00	8:00:00	9:00:00	17	202	632	3600	0.18
6543	TF2-ST-S51-03 ถ.จันทน์-ถ.นราธิวาสราชนครินทร์	13.707243	100.53776	bma	working	2022-06-09T00:00:00	9:00:00	10:00:00	16	202	521	3600	0.14
6544	TF2-ST-S51-03 ถ.จันทน์-ถ.นราธิวาสราชนครินทร์	13.707243	100.53776	bma	working	2022-06-09T00:00:00	10:00:00	11:00:00	14	202	506	3600	0.14
6545	TF2-ST-S51-03 ถ.จันทน์-ถ.นราธิวาสราชนครินทร์	13.707243	100.53776	bma	working	2022-06-09T00:00:00	11:00:00	12:00:00	23	202	1072	3600	0.30
6546	TF2-ST-S51-03 ถ.จันทน์-ถ.นราธิวาสราชนครินทร์	13.707243	100.53776	bma	working	2022-06-09T00:00:00	12:00:00	13:00:00	17	202	525	3600	0.15
6547	TF2-ST-S51-03 ถ.จันทน์-ถ.นราธิวาสราชนครินทร์	13.707243	100.53776	bma	working	2022-06-09T00:00:00	13:00:00	14:00:00	13	201	517	3600	0.14
6548	TF2-ST-S51-03 ถ.จันทน์-ถ.นราธิวาสราชนครินทร์	13.707243	100.53776	bma	working	2022-06-09T00:00:00	14:00:00	15:00:00	13	201	428	3600	0.12
6549	TF2-ST-S51-03 ถ.จันทน์-ถ.นราธิวาสราชนครินทร์	13.707243	100.53776	bma	working	2022-06-09T00:00:00	15:00:00	16:00:00	16	202	460	3600	0.13
6550	TF2-ST-S51-03 ถ.จันทน์-ถ.นราธิวาสราชนครินทร์	13.707243	100.53776	bma	working	2022-06-09T00:00:00	16:00:00	17:00:00	32	171	3212	3600	0.89
6551	TF2-ST-S51-03 ถ.จันทน์-ถ.นราธิวาสราชนครินทร์	13.707243	100.53776	bma	working	2022-06-09T00:00:00	17:00:00	18:00:00	25	201	1641	3600	0.46
6552	TF2-ST-S51-03 ถ.จันทน์-ถ.นราธิวาสราชนครินทร์	13.707243	100.53776	bma	working	2022-06-09T00:00:00	18:00:00	19:00:00	28	202	3122	3600	0.87
6553	TF2-ST-S51-03 ถ.จันทน์-ถ.นราธิวาสราชนครินทร์	13.707243	100.53776	bma	working	2022-07-09T00:00:00	5:00:00	6:00:00	28	20	164	3600	0.05
6554	TF2-ST-S51-03 ถ.จันทน์-ถ.นราธิวาสราชนครินทร์	13.707243	100.53776	bma	working	2022-07-09T00:00:00	6:00:00	7:00:00	20	62	462	3600	0.13
6555	TF2-ST-S51-03 ถ.จันทน์-ถ.นราธิวาสราชนครินทร์	13.707243	100.53776	bma	working	2022-07-09T00:00:00	7:00:00	8:00:00	26	201	2175	3600	0.60
6556	TF2-ST-S51-03 ถ.จันทน์-ถ.นราธิวาสราชนครินทร์	13.707243	100.53776	bma	working	2022-07-09T00:00:00	8:00:00	9:00:00	19	202	609	3600	0.17
6557	TF2-ST-S51-03 ถ.จันทน์-ถ.นราธิวาสราชนครินทร์	13.707243	100.53776	bma	working	2022-07-09T00:00:00	9:00:00	10:00:00	16	202	541	3600	0.15
6558	TF2-ST-S51-03 ถ.จันทน์-ถ.นราธิวาสราชนครินทร์	13.707243	100.53776	bma	working	2022-07-09T00:00:00	10:00:00	11:00:00	13	201	553	3600	0.15
6559	TF2-ST-S51-03 ถ.จันทน์-ถ.นราธิวาสราชนครินทร์	13.707243	100.53776	bma	working	2022-07-09T00:00:00	11:00:00	12:00:00	24	202	1263	3600	0.35
6560	TF2-ST-S51-03 ถ.จันทน์-ถ.นราธิวาสราชนครินทร์	13.707243	100.53776	bma	working	2022-07-09T00:00:00	12:00:00	13:00:00	15	202	507	3600	0.14
6561	TF2-ST-S51-03 ถ.จันทน์-ถ.นราธิวาสราชนครินทร์	13.707243	100.53776	bma	working	2022-07-09T00:00:00	13:00:00	14:00:00	14	201	520	3600	0.14
6562	TF2-ST-S51-03 ถ.จันทน์-ถ.นราธิวาสราชนครินทร์	13.707243	100.53776	bma	working	2022-07-09T00:00:00	14:00:00	15:00:00	15	201	446	3600	0.12
6563	TF2-ST-S51-03 ถ.จันทน์-ถ.นราธิวาสราชนครินทร์	13.707243	100.53776	bma	working	2022-07-09T00:00:00	15:00:00	16:00:00	17	202	523	3600	0.15
6564	TF2-ST-S51-03 ถ.จันทน์-ถ.นราธิวาสราชนครินทร์	13.707243	100.53776	bma	working	2022-07-09T00:00:00	16:00:00	17:00:00	33	156	3278	3600	0.91
6565	TF2-ST-S51-03 ถ.จันทน์-ถ.นราธิวาสราชนครินทร์	13.707243	100.53776	bma	working	2022-07-09T00:00:00	17:00:00	18:00:00	25	202	2286	3600	0.64
6566	TF2-ST-S51-03 ถ.จันทน์-ถ.นราธิวาสราชนครินทร์	13.707243	100.53776	bma	working	2022-07-09T00:00:00	18:00:00	19:00:00	18	202	2268	3600	0.63
6567	TF2-ST-S51-03 ถ.จันทน์-ถ.นราธิวาสราชนครินทร์	13.707243	100.53776	bma	working	2022-08-09T00:00:00	5:00:00	6:00:00	34	31	190	3600	0.05
6568	TF2-ST-S51-03 ถ.จันทน์-ถ.นราธิวาสราชนครินทร์	13.707243	100.53776	bma	working	2022-08-09T00:00:00	6:00:00	7:00:00	24	93	559	3600	0.16
6569	TF2-ST-S51-03 ถ.จันทน์-ถ.นราธิวาสราชนครินทร์	13.707243	100.53776	bma	working	2022-08-09T00:00:00	7:00:00	8:00:00	23	201	1551	3600	0.43
6570	TF2-ST-S51-03 ถ.จันทน์-ถ.นราธิวาสราชนครินทร์	13.707243	100.53776	bma	working	2022-08-09T00:00:00	8:00:00	9:00:00	29	202	1368	3600	0.38
6571	TF2-ST-S51-03 ถ.จันทน์-ถ.นราธิวาสราชนครินทร์	13.707243	100.53776	bma	working	2022-08-09T00:00:00	9:00:00	10:00:00	26	202	1333	3600	0.37
6572	TF2-ST-S51-03 ถ.จันทน์-ถ.นราธิวาสราชนครินทร์	13.707243	100.53776	bma	working	2022-08-09T00:00:00	10:00:00	11:00:00	27	202	1335	3600	0.37
6573	TF2-ST-S51-03 ถ.จันทน์-ถ.นราธิวาสราชนครินทร์	13.707243	100.53776	bma	working	2022-08-09T00:00:00	11:00:00	12:00:00	25	166	1558	3600	0.43
6574	TF2-ST-S51-03 ถ.จันทน์-ถ.นราธิวาสราชนครินทร์	13.707243	100.53776	bma	working	2022-08-09T00:00:00	12:00:00	13:00:00	28	201	1270	3600	0.35
6575	TF2-ST-S51-03 ถ.จันทน์-ถ.นราธิวาสราชนครินทร์	13.707243	100.53776	bma	working	2022-08-09T00:00:00	13:00:00	14:00:00	25	202	1285	3600	0.36
6576	TF2-ST-S51-03 ถ.จันทน์-ถ.นราธิวาสราชนครินทร์	13.707243	100.53776	bma	working	2022-08-09T00:00:00	14:00:00	15:00:00	26	202	1185	3600	0.33
6577	TF2-ST-S51-03 ถ.จันทน์-ถ.นราธิวาสราชนครินทร์	13.707243	100.53776	bma	working	2022-08-09T00:00:00	15:00:00	16:00:00	25	201	1267	3600	0.35
6578	TF2-ST-S51-03 ถ.จันทน์-ถ.นราธิวาสราชนครินทร์	13.707243	100.53776	bma	working	2022-08-09T00:00:00	16:00:00	17:00:00	26	201	2485	3600	0.69
6579	TF2-ST-S51-03 ถ.จันทน์-ถ.นราธิวาสราชนครินทร์	13.707243	100.53776	bma	working	2022-08-09T00:00:00	17:00:00	18:00:00	25	202	1591	3600	0.44
6580	TF2-ST-S51-03 ถ.จันทน์-ถ.นราธิวาสราชนครินทร์	13.707243	100.53776	bma	working	2022-08-09T00:00:00	18:00:00	19:00:00	24	202	2534	3600	0.70
6581	TF2-ST-S51-03 ถ.จันทน์-ถ.นราธิวาสราชนครินทร์	13.707243	100.53776	bma	working	2022-09-09T00:00:00	5:00:00	6:00:00	42	37	221	3600	0.06
6582	TF2-ST-S51-03 ถ.จันทน์-ถ.นราธิวาสราชนครินทร์	13.707243	100.53776	bma	working	2022-09-09T00:00:00	6:00:00	7:00:00	30	120	615	3600	0.17
6583	TF2-ST-S51-03 ถ.จันทน์-ถ.นราธิวาสราชนครินทร์	13.707243	100.53776	bma	working	2022-09-09T00:00:00	7:00:00	8:00:00	20	201	1038	3600	0.29
6584	TF2-ST-S51-03 ถ.จันทน์-ถ.นราธิวาสราชนครินทร์	13.707243	100.53776	bma	working	2022-09-09T00:00:00	8:00:00	9:00:00	40	113	2102	3600	0.58
6585	TF2-ST-S51-03 ถ.จันทน์-ถ.นราธิวาสราชนครินทร์	13.707243	100.53776	bma	working	2022-09-09T00:00:00	9:00:00	10:00:00	31	109	2042	3600	0.57
6586	TF2-ST-S51-03 ถ.จันทน์-ถ.นราธิวาสราชนครินทร์	13.707243	100.53776	bma	working	2022-09-09T00:00:00	10:00:00	11:00:00	35	107	2134	3600	0.59
6587	TF2-ST-S51-03 ถ.จันทน์-ถ.นราธิวาสราชนครินทร์	13.707243	100.53776	bma	working	2022-09-09T00:00:00	11:00:00	12:00:00	28	110	1875	3600	0.52
6588	TF2-ST-S51-03 ถ.จันทน์-ถ.นราธิวาสราชนครินทร์	13.707243	100.53776	bma	working	2022-09-09T00:00:00	12:00:00	13:00:00	38	101	1996	3600	0.55
6589	TF2-ST-S51-03 ถ.จันทน์-ถ.นราธิวาสราชนครินทร์	13.707243	100.53776	bma	working	2022-09-09T00:00:00	13:00:00	14:00:00	38	108	2025	3600	0.56
6590	TF2-ST-S51-03 ถ.จันทน์-ถ.นราธิวาสราชนครินทร์	13.707243	100.53776	bma	working	2022-09-09T00:00:00	14:00:00	15:00:00	35	103	1920	3600	0.53
6591	TF2-ST-S51-03 ถ.จันทน์-ถ.นราธิวาสราชนครินทร์	13.707243	100.53776	bma	working	2022-09-09T00:00:00	15:00:00	16:00:00	39	99	1991	3600	0.55
6592	TF2-ST-S51-03 ถ.จันทน์-ถ.นราธิวาสราชนครินทร์	13.707243	100.53776	bma	working	2022-09-09T00:00:00	16:00:00	17:00:00	19	202	1771	3600	0.49
6593	TF2-ST-S51-03 ถ.จันทน์-ถ.นราธิวาสราชนครินทร์	13.707243	100.53776	bma	working	2022-09-09T00:00:00	17:00:00	18:00:00	20	202	831	3600	0.23
6594	TF2-ST-S51-03 ถ.จันทน์-ถ.นราธิวาสราชนครินทร์	13.707243	100.53776	bma	working	2022-09-09T00:00:00	18:00:00	19:00:00	27	136	2787	3600	0.77
6595	TF2-ST-S51-03 ถ.จันทน์-ถ.นราธิวาสราชนครินทร์	13.707243	100.53776	bma	working	2022-10-09T00:00:00	5:00:00	6:00:00	30	52	100	3600	0.03
6596	TF2-ST-S51-03 ถ.จันทน์-ถ.นราธิวาสราชนครินทร์	13.707243	100.53776	bma	holiday	2022-10-09T00:00:00	6:00:00	7:00:00	22	161	264	3600	0.07
6597	TF2-ST-S51-03 ถ.จันทน์-ถ.นราธิวาสราชนครินทร์	13.707243	100.53776	bma	holiday	2022-10-09T00:00:00	7:00:00	8:00:00	22	161	351	3600	0.10
6598	TF2-ST-S51-03 ถ.จันทน์-ถ.นราธิวาสราชนครินทร์	13.707243	100.53776	bma	holiday	2022-10-09T00:00:00	8:00:00	9:00:00	24	202	1448	3600	0.40
6599	TF2-ST-S51-03 ถ.จันทน์-ถ.นราธิวาสราชนครินทร์	13.707243	100.53776	bma	working	2022-10-09T00:00:00	9:00:00	10:00:00	21	202	1344	3600	0.37
6600	TF2-ST-S51-03 ถ.จันทน์-ถ.นราธิวาสราชนครินทร์	13.707243	100.53776	bma	working	2022-10-09T00:00:00	10:00:00	11:00:00	26	202	1358	3600	0.38
6601	TF2-ST-S51-03 ถ.จันทน์-ถ.นราธิวาสราชนครินทร์	13.707243	100.53776	bma	holiday	2022-10-09T00:00:00	11:00:00	12:00:00	20	202	738	3600	0.21
6602	TF2-ST-S51-03 ถ.จันทน์-ถ.นราธิวาสราชนครินทร์	13.707243	100.53776	bma	working	2022-10-09T00:00:00	12:00:00	13:00:00	23	201	1232	3600	0.34
6603	TF2-ST-S51-03 ถ.จันทน์-ถ.นราธิวาสราชนครินทร์	13.707243	100.53776	bma	working	2022-10-09T00:00:00	13:00:00	14:00:00	23	201	1325	3600	0.37
6604	TF2-ST-S51-03 ถ.จันทน์-ถ.นราธิวาสราชนครินทร์	13.707243	100.53776	bma	working	2022-10-09T00:00:00	14:00:00	15:00:00	19	202	1269	3600	0.35
6605	TF2-ST-S51-03 ถ.จันทน์-ถ.นราธิวาสราชนครินทร์	13.707243	100.53776	bma	working	2022-10-09T00:00:00	15:00:00	16:00:00	21	201	1292	3600	0.36
6606	TF2-ST-S51-03 ถ.จันทน์-ถ.นราธิวาสราชนครินทร์	13.707243	100.53776	bma	holiday	2022-10-09T00:00:00	16:00:00	17:00:00	27	201	521	3600	0.14
6607	TF2-ST-S51-03 ถ.จันทน์-ถ.นราธิวาสราชนครินทร์	13.707243	100.53776	bma	holiday	2022-10-09T00:00:00	17:00:00	18:00:00	24	202	983	3600	0.27
6608	TF2-ST-S51-03 ถ.จันทน์-ถ.นราธิวาสราชนครินทร์	13.707243	100.53776	bma	holiday	2022-10-09T00:00:00	18:00:00	19:00:00	49	117	232	3600	0.06
6609	TF2-ST-S51-03 ถ.จันทน์-ถ.นราธิวาสราชนครินทร์	13.707243	100.53776	bma	working	2022-11-09T00:00:00	5:00:00	6:00:00	18	33	49	3600	0.01
6610	TF2-ST-S51-03 ถ.จันทน์-ถ.นราธิวาสราชนครินทร์	13.707243	100.53776	bma	holiday	2022-11-09T00:00:00	6:00:00	7:00:00	13	93	149	3600	0.04
6611	TF2-ST-S51-03 ถ.จันทน์-ถ.นราธิวาสราชนครินทร์	13.707243	100.53776	bma	holiday	2022-11-09T00:00:00	7:00:00	8:00:00	13	93	179	3600	0.05
6612	TF2-ST-S51-03 ถ.จันทน์-ถ.นราธิวาสราชนครินทร์	13.707243	100.53776	bma	holiday	2022-11-09T00:00:00	8:00:00	9:00:00	17	136	836	3600	0.23
6613	TF2-ST-S51-03 ถ.จันทน์-ถ.นราธิวาสราชนครินทร์	13.707243	100.53776	bma	working	2022-11-09T00:00:00	9:00:00	10:00:00	14	131	831	3600	0.23
6614	TF2-ST-S51-03 ถ.จันทน์-ถ.นราธิวาสราชนครินทร์	13.707243	100.53776	bma	working	2022-11-09T00:00:00	10:00:00	11:00:00	15	129	841	3600	0.23
6615	TF2-ST-S51-03 ถ.จันทน์-ถ.นราธิวาสราชนครินทร์	13.707243	100.53776	bma	holiday	2022-11-09T00:00:00	11:00:00	12:00:00	14	201	449	3600	0.12
6616	TF2-ST-S51-03 ถ.จันทน์-ถ.นราธิวาสราชนครินทร์	13.707243	100.53776	bma	working	2022-11-09T00:00:00	12:00:00	13:00:00	16	135	759	3600	0.21
6617	TF2-ST-S51-03 ถ.จันทน์-ถ.นราธิวาสราชนครินทร์	13.707243	100.53776	bma	working	2022-11-09T00:00:00	13:00:00	14:00:00	14	135	815	3600	0.23
6618	TF2-ST-S51-03 ถ.จันทน์-ถ.นราธิวาสราชนครินทร์	13.707243	100.53776	bma	working	2022-11-09T00:00:00	14:00:00	15:00:00	14	134	764	3600	0.21
6619	TF2-ST-S51-03 ถ.จันทน์-ถ.นราธิวาสราชนครินทร์	13.707243	100.53776	bma	working	2022-11-09T00:00:00	15:00:00	16:00:00	12	134	794	3600	0.22
6620	TF2-ST-S51-03 ถ.จันทน์-ถ.นราธิวาสราชนครินทร์	13.707243	100.53776	bma	holiday	2022-11-09T00:00:00	16:00:00	17:00:00	15	147	326	3600	0.09
6621	TF2-ST-S51-03 ถ.จันทน์-ถ.นราธิวาสราชนครินทร์	13.707243	100.53776	bma	holiday	2022-11-09T00:00:00	17:00:00	18:00:00	15	128	603	3600	0.17
6622	TF2-ST-S51-03 ถ.จันทน์-ถ.นราธิวาสราชนครินทร์	13.707243	100.53776	bma	holiday	2022-11-09T00:00:00	18:00:00	19:00:00	28	73	127	3600	0.04
6623	TF2-ST-SA49-01 ถ.นราธิวาสราชนครินทร์-ถ.สาทรเหนือ	13.721834	100.530456	bma	working	2022-05-09T00:00:00	5:00:00	6:00:00	16	62	347	4500	0.08
6624	TF2-ST-SA49-01 ถ.นราธิวาสราชนครินทร์-ถ.สาทรเหนือ	13.721834	100.530456	bma	working	2022-05-09T00:00:00	6:00:00	7:00:00	12	201	1015	4500	0.23
6625	TF2-ST-SA49-01 ถ.นราธิวาสราชนครินทร์-ถ.สาทรเหนือ	13.721834	100.530456	bma	working	2022-05-09T00:00:00	7:00:00	8:00:00	18	201	1312	4500	0.29
6626	TF2-ST-SA49-01 ถ.นราธิวาสราชนครินทร์-ถ.สาทรเหนือ	13.721834	100.530456	bma	working	2022-05-09T00:00:00	8:00:00	9:00:00	5	201	1040	4500	0.23
6627	TF2-ST-SA49-01 ถ.นราธิวาสราชนครินทร์-ถ.สาทรเหนือ	13.721834	100.530456	bma	working	2022-05-09T00:00:00	9:00:00	10:00:00	3	202	905	4500	0.20
6628	TF2-ST-SA49-01 ถ.นราธิวาสราชนครินทร์-ถ.สาทรเหนือ	13.721834	100.530456	bma	working	2022-05-09T00:00:00	10:00:00	11:00:00	2	202	987	4500	0.22
6629	TF2-ST-SA49-01 ถ.นราธิวาสราชนครินทร์-ถ.สาทรเหนือ	13.721834	100.530456	bma	working	2022-05-09T00:00:00	11:00:00	12:00:00	13	201	1138	4500	0.25
6630	TF2-ST-SA49-01 ถ.นราธิวาสราชนครินทร์-ถ.สาทรเหนือ	13.721834	100.530456	bma	working	2022-05-09T00:00:00	12:00:00	13:00:00	4	201	938	4500	0.21
6631	TF2-ST-SA49-01 ถ.นราธิวาสราชนครินทร์-ถ.สาทรเหนือ	13.721834	100.530456	bma	working	2022-05-09T00:00:00	13:00:00	14:00:00	3	202	888	4500	0.20
6632	TF2-ST-SA49-01 ถ.นราธิวาสราชนครินทร์-ถ.สาทรเหนือ	13.721834	100.530456	bma	working	2022-05-09T00:00:00	14:00:00	15:00:00	2	202	1025	4500	0.23
6633	TF2-ST-SA49-01 ถ.นราธิวาสราชนครินทร์-ถ.สาทรเหนือ	13.721834	100.530456	bma	working	2022-05-09T00:00:00	15:00:00	16:00:00	4	201	926	4500	0.21
6634	TF2-ST-SA49-01 ถ.นราธิวาสราชนครินทร์-ถ.สาทรเหนือ	13.721834	100.530456	bma	working	2022-05-09T00:00:00	16:00:00	17:00:00	17	202	3544	4500	0.79
6635	TF2-ST-SA49-01 ถ.นราธิวาสราชนครินทร์-ถ.สาทรเหนือ	13.721834	100.530456	bma	working	2022-05-09T00:00:00	17:00:00	18:00:00	15	201	1493	4500	0.33
6636	TF2-ST-SA49-01 ถ.นราธิวาสราชนครินทร์-ถ.สาทรเหนือ	13.721834	100.530456	bma	working	2022-05-09T00:00:00	18:00:00	19:00:00	17	201	425	4500	0.09
6637	TF2-ST-SA49-01 ถ.นราธิวาสราชนครินทร์-ถ.สาทรเหนือ	13.721834	100.530456	bma	working	2022-06-09T00:00:00	5:00:00	6:00:00	21	66	363	4500	0.08
6638	TF2-ST-SA49-01 ถ.นราธิวาสราชนครินทร์-ถ.สาทรเหนือ	13.721834	100.530456	bma	working	2022-06-09T00:00:00	6:00:00	7:00:00	15	202	1038	4500	0.23
6639	TF2-ST-SA49-01 ถ.นราธิวาสราชนครินทร์-ถ.สาทรเหนือ	13.721834	100.530456	bma	working	2022-06-09T00:00:00	7:00:00	8:00:00	15	201	2689	4500	0.60
6640	TF2-ST-SA49-01 ถ.นราธิวาสราชนครินทร์-ถ.สาทรเหนือ	13.721834	100.530456	bma	working	2022-06-09T00:00:00	8:00:00	9:00:00	10	202	1749	4500	0.39
6641	TF2-ST-SA49-01 ถ.นราธิวาสราชนครินทร์-ถ.สาทรเหนือ	13.721834	100.530456	bma	working	2022-06-09T00:00:00	9:00:00	10:00:00	5	201	1629	4500	0.36
6642	TF2-ST-SA49-01 ถ.นราธิวาสราชนครินทร์-ถ.สาทรเหนือ	13.721834	100.530456	bma	working	2022-06-09T00:00:00	10:00:00	11:00:00	7	201	1689	4500	0.38
6643	TF2-ST-SA49-01 ถ.นราธิวาสราชนครินทร์-ถ.สาทรเหนือ	13.721834	100.530456	bma	working	2022-06-09T00:00:00	11:00:00	12:00:00	16	202	1209	4500	0.27
6644	TF2-ST-SA49-01 ถ.นราธิวาสราชนครินทร์-ถ.สาทรเหนือ	13.721834	100.530456	bma	working	2022-06-09T00:00:00	12:00:00	13:00:00	8	201	1628	4500	0.36
6645	TF2-ST-SA49-01 ถ.นราธิวาสราชนครินทร์-ถ.สาทรเหนือ	13.721834	100.530456	bma	working	2022-06-09T00:00:00	13:00:00	14:00:00	7	202	1631	4500	0.36
6646	TF2-ST-SA49-01 ถ.นราธิวาสราชนครินทร์-ถ.สาทรเหนือ	13.721834	100.530456	bma	working	2022-06-09T00:00:00	14:00:00	15:00:00	7	202	1768	4500	0.39
6647	TF2-ST-SA49-01 ถ.นราธิวาสราชนครินทร์-ถ.สาทรเหนือ	13.721834	100.530456	bma	working	2022-06-09T00:00:00	15:00:00	16:00:00	11	201	1687	4500	0.37
6648	TF2-ST-SA49-01 ถ.นราธิวาสราชนครินทร์-ถ.สาทรเหนือ	13.721834	100.530456	bma	working	2022-06-09T00:00:00	16:00:00	17:00:00	12	202	2349	4500	0.52
6649	TF2-ST-SA49-01 ถ.นราธิวาสราชนครินทร์-ถ.สาทรเหนือ	13.721834	100.530456	bma	working	2022-06-09T00:00:00	17:00:00	18:00:00	8	202	1216	4500	0.27
6650	TF2-ST-SA49-01 ถ.นราธิวาสราชนครินทร์-ถ.สาทรเหนือ	13.721834	100.530456	bma	working	2022-06-09T00:00:00	18:00:00	19:00:00	12	202	922	4500	0.20
6651	TF2-ST-SA49-01 ถ.นราธิวาสราชนครินทร์-ถ.สาทรเหนือ	13.721834	100.530456	bma	working	2022-07-09T00:00:00	5:00:00	6:00:00	21	61	348	4500	0.08
6652	TF2-ST-SA49-01 ถ.นราธิวาสราชนครินทร์-ถ.สาทรเหนือ	13.721834	100.530456	bma	working	2022-07-09T00:00:00	6:00:00	7:00:00	15	201	1047	4500	0.23
6653	TF2-ST-SA49-01 ถ.นราธิวาสราชนครินทร์-ถ.สาทรเหนือ	13.721834	100.530456	bma	working	2022-07-09T00:00:00	7:00:00	8:00:00	19	201	4089	4500	0.91
6654	TF2-ST-SA49-01 ถ.นราธิวาสราชนครินทร์-ถ.สาทรเหนือ	13.721834	100.530456	bma	working	2022-07-09T00:00:00	8:00:00	9:00:00	16	201	2425	4500	0.54
6655	TF2-ST-SA49-01 ถ.นราธิวาสราชนครินทร์-ถ.สาทรเหนือ	13.721834	100.530456	bma	working	2022-07-09T00:00:00	9:00:00	10:00:00	10	201	2382	4500	0.53
6656	TF2-ST-SA49-01 ถ.นราธิวาสราชนครินทร์-ถ.สาทรเหนือ	13.721834	100.530456	bma	working	2022-07-09T00:00:00	10:00:00	11:00:00	12	201	2402	4500	0.53
6657	TF2-ST-SA49-01 ถ.นราธิวาสราชนครินทร์-ถ.สาทรเหนือ	13.721834	100.530456	bma	working	2022-07-09T00:00:00	11:00:00	12:00:00	16	202	1275	4500	0.28
6658	TF2-ST-SA49-01 ถ.นราธิวาสราชนครินทร์-ถ.สาทรเหนือ	13.721834	100.530456	bma	working	2022-07-09T00:00:00	12:00:00	13:00:00	14	201	2362	4500	0.52
6659	TF2-ST-SA49-01 ถ.นราธิวาสราชนครินทร์-ถ.สาทรเหนือ	13.721834	100.530456	bma	working	2022-07-09T00:00:00	13:00:00	14:00:00	10	201	2368	4500	0.53
6660	TF2-ST-SA49-01 ถ.นราธิวาสราชนครินทร์-ถ.สาทรเหนือ	13.721834	100.530456	bma	working	2022-07-09T00:00:00	14:00:00	15:00:00	9	202	2425	4500	0.54
6661	TF2-ST-SA49-01 ถ.นราธิวาสราชนครินทร์-ถ.สาทรเหนือ	13.721834	100.530456	bma	working	2022-07-09T00:00:00	15:00:00	16:00:00	12	202	2398	4500	0.53
6662	TF2-ST-SA49-01 ถ.นราธิวาสราชนครินทร์-ถ.สาทรเหนือ	13.721834	100.530456	bma	working	2022-07-09T00:00:00	16:00:00	17:00:00	11	202	1164	4500	0.26
6663	TF2-ST-SA49-01 ถ.นราธิวาสราชนครินทร์-ถ.สาทรเหนือ	13.721834	100.530456	bma	working	2022-07-09T00:00:00	17:00:00	18:00:00	7	201	943	4500	0.21
6664	TF2-ST-SA49-01 ถ.นราธิวาสราชนครินทร์-ถ.สาทรเหนือ	13.721834	100.530456	bma	working	2022-07-09T00:00:00	18:00:00	19:00:00	6	201	1457	4500	0.32
6665	TF2-ST-SA49-01 ถ.นราธิวาสราชนครินทร์-ถ.สาทรเหนือ	13.721834	100.530456	bma	working	2022-08-09T00:00:00	5:00:00	6:00:00	26	50	911	4500	0.20
6666	TF2-ST-SA49-01 ถ.นราธิวาสราชนครินทร์-ถ.สาทรเหนือ	13.721834	100.530456	bma	working	2022-08-09T00:00:00	6:00:00	7:00:00	19	150	2714	4500	0.60
6667	TF2-ST-SA49-01 ถ.นราธิวาสราชนครินทร์-ถ.สาทรเหนือ	13.721834	100.530456	bma	working	2022-08-09T00:00:00	7:00:00	8:00:00	11	202	2526	4500	0.56
6668	TF2-ST-SA49-01 ถ.นราธิวาสราชนครินทร์-ถ.สาทรเหนือ	13.721834	100.530456	bma	working	2022-08-09T00:00:00	8:00:00	9:00:00	12	201	2156	4500	0.48
6669	TF2-ST-SA49-01 ถ.นราธิวาสราชนครินทร์-ถ.สาทรเหนือ	13.721834	100.530456	bma	working	2022-08-09T00:00:00	9:00:00	10:00:00	11	201	2050	4500	0.46
6670	TF2-ST-SA49-01 ถ.นราธิวาสราชนครินทร์-ถ.สาทรเหนือ	13.721834	100.530456	bma	working	2022-08-09T00:00:00	10:00:00	11:00:00	9	201	2050	4500	0.46
6671	TF2-ST-SA49-01 ถ.นราธิวาสราชนครินทร์-ถ.สาทรเหนือ	13.721834	100.530456	bma	working	2022-08-09T00:00:00	11:00:00	12:00:00	13	201	2524	4500	0.56
6672	TF2-ST-SA49-01 ถ.นราธิวาสราชนครินทร์-ถ.สาทรเหนือ	13.721834	100.530456	bma	working	2022-08-09T00:00:00	12:00:00	13:00:00	10	201	2101	4500	0.47
6673	TF2-ST-SA49-01 ถ.นราธิวาสราชนครินทร์-ถ.สาทรเหนือ	13.721834	100.530456	bma	working	2022-08-09T00:00:00	13:00:00	14:00:00	11	202	2090	4500	0.46
6674	TF2-ST-SA49-01 ถ.นราธิวาสราชนครินทร์-ถ.สาทรเหนือ	13.721834	100.530456	bma	working	2022-08-09T00:00:00	14:00:00	15:00:00	7	201	2093	4500	0.47
6675	TF2-ST-SA49-01 ถ.นราธิวาสราชนครินทร์-ถ.สาทรเหนือ	13.721834	100.530456	bma	working	2022-08-09T00:00:00	15:00:00	16:00:00	12	202	2146	4500	0.48
6676	TF2-ST-SA49-01 ถ.นราธิวาสราชนครินทร์-ถ.สาทรเหนือ	13.721834	100.530456	bma	working	2022-08-09T00:00:00	16:00:00	17:00:00	9	201	1339	4500	0.30
6677	TF2-ST-SA49-01 ถ.นราธิวาสราชนครินทร์-ถ.สาทรเหนือ	13.721834	100.530456	bma	working	2022-08-09T00:00:00	17:00:00	18:00:00	12	201	1284	4500	0.29
6678	TF2-ST-SA49-01 ถ.นราธิวาสราชนครินทร์-ถ.สาทรเหนือ	13.721834	100.530456	bma	working	2022-08-09T00:00:00	18:00:00	19:00:00	3	201	1099	4500	0.24
6679	TF2-ST-SA49-01 ถ.นราธิวาสราชนครินทร์-ถ.สาทรเหนือ	13.721834	100.530456	bma	working	2022-09-09T00:00:00	5:00:00	6:00:00	29	47	894	4500	0.20
6680	TF2-ST-SA49-01 ถ.นราธิวาสราชนครินทร์-ถ.สาทรเหนือ	13.721834	100.530456	bma	working	2022-09-09T00:00:00	6:00:00	7:00:00	21	149	2682	4500	0.60
6681	TF2-ST-SA49-01 ถ.นราธิวาสราชนครินทร์-ถ.สาทรเหนือ	13.721834	100.530456	bma	working	2022-09-09T00:00:00	7:00:00	8:00:00	8	202	981	4500	0.22
6682	TF2-ST-SA49-01 ถ.นราธิวาสราชนครินทร์-ถ.สาทรเหนือ	13.721834	100.530456	bma	working	2022-09-09T00:00:00	8:00:00	9:00:00	11	202	1872	4500	0.42
6683	TF2-ST-SA49-01 ถ.นราธิวาสราชนครินทร์-ถ.สาทรเหนือ	13.721834	100.530456	bma	working	2022-09-09T00:00:00	9:00:00	10:00:00	9	201	1691	4500	0.38
6684	TF2-ST-SA49-01 ถ.นราธิวาสราชนครินทร์-ถ.สาทรเหนือ	13.721834	100.530456	bma	working	2022-09-09T00:00:00	10:00:00	11:00:00	10	201	1756	4500	0.39
6685	TF2-ST-SA49-01 ถ.นราธิวาสราชนครินทร์-ถ.สาทรเหนือ	13.721834	100.530456	bma	working	2022-09-09T00:00:00	11:00:00	12:00:00	9	202	3810	4500	0.85
6686	TF2-ST-SA49-01 ถ.นราธิวาสราชนครินทร์-ถ.สาทรเหนือ	13.721834	100.530456	bma	working	2022-09-09T00:00:00	12:00:00	13:00:00	10	202	1837	4500	0.41
6687	TF2-ST-SA49-01 ถ.นราธิวาสราชนครินทร์-ถ.สาทรเหนือ	13.721834	100.530456	bma	working	2022-09-09T00:00:00	13:00:00	14:00:00	14	201	1814	4500	0.40
6688	TF2-ST-SA49-01 ถ.นราธิวาสราชนครินทร์-ถ.สาทรเหนือ	13.721834	100.530456	bma	working	2022-09-09T00:00:00	14:00:00	15:00:00	7	202	1724	4500	0.38
6689	TF2-ST-SA49-01 ถ.นราธิวาสราชนครินทร์-ถ.สาทรเหนือ	13.721834	100.530456	bma	working	2022-09-09T00:00:00	15:00:00	16:00:00	8	202	1866	4500	0.41
6690	TF2-ST-SA49-01 ถ.นราธิวาสราชนครินทร์-ถ.สาทรเหนือ	13.721834	100.530456	bma	working	2022-09-09T00:00:00	16:00:00	17:00:00	11	202	1533	4500	0.34
6691	TF2-ST-SA49-01 ถ.นราธิวาสราชนครินทร์-ถ.สาทรเหนือ	13.721834	100.530456	bma	working	2022-09-09T00:00:00	17:00:00	18:00:00	16	202	1672	4500	0.37
6692	TF2-ST-SA49-01 ถ.นราธิวาสราชนครินทร์-ถ.สาทรเหนือ	13.721834	100.530456	bma	working	2022-09-09T00:00:00	18:00:00	19:00:00	6	202	747	4500	0.17
6693	TF2-ST-SA49-01 ถ.นราธิวาสราชนครินทร์-ถ.สาทรเหนือ	13.721834	100.530456	bma	working	2022-10-09T00:00:00	5:00:00	6:00:00	25	58	188	4500	0.04
6694	TF2-ST-SA49-01 ถ.นราธิวาสราชนครินทร์-ถ.สาทรเหนือ	13.721834	100.530456	bma	holiday	2022-10-09T00:00:00	6:00:00	7:00:00	18	168	588	4500	0.13
6695	TF2-ST-SA49-01 ถ.นราธิวาสราชนครินทร์-ถ.สาทรเหนือ	13.721834	100.530456	bma	holiday	2022-10-09T00:00:00	7:00:00	8:00:00	18	167	647	4500	0.14
6696	TF2-ST-SA49-01 ถ.นราธิวาสราชนครินทร์-ถ.สาทรเหนือ	13.721834	100.530456	bma	holiday	2022-10-09T00:00:00	8:00:00	9:00:00	20	98	977	4500	0.22
6697	TF2-ST-SA49-01 ถ.นราธิวาสราชนครินทร์-ถ.สาทรเหนือ	13.721834	100.530456	bma	working	2022-10-09T00:00:00	9:00:00	10:00:00	16	93	958	4500	0.21
6698	TF2-ST-SA49-01 ถ.นราธิวาสราชนครินทร์-ถ.สาทรเหนือ	13.721834	100.530456	bma	working	2022-10-09T00:00:00	10:00:00	11:00:00	16	97	852	4500	0.19
6699	TF2-ST-SA49-01 ถ.นราธิวาสราชนครินทร์-ถ.สาทรเหนือ	13.721834	100.530456	bma	holiday	2022-10-09T00:00:00	11:00:00	12:00:00	19	202	867	4500	0.19
6700	TF2-ST-SA49-01 ถ.นราธิวาสราชนครินทร์-ถ.สาทรเหนือ	13.721834	100.530456	bma	working	2022-10-09T00:00:00	12:00:00	13:00:00	14	96	866	4500	0.19
6701	TF2-ST-SA49-01 ถ.นราธิวาสราชนครินทร์-ถ.สาทรเหนือ	13.721834	100.530456	bma	working	2022-10-09T00:00:00	13:00:00	14:00:00	15	100	837	4500	0.19
6702	TF2-ST-SA49-01 ถ.นราธิวาสราชนครินทร์-ถ.สาทรเหนือ	13.721834	100.530456	bma	working	2022-10-09T00:00:00	14:00:00	15:00:00	19	98	864	4500	0.19
6703	TF2-ST-SA49-01 ถ.นราธิวาสราชนครินทร์-ถ.สาทรเหนือ	13.721834	100.530456	bma	working	2022-10-09T00:00:00	15:00:00	16:00:00	19	94	876	4500	0.19
6704	TF2-ST-SA49-01 ถ.นราธิวาสราชนครินทร์-ถ.สาทรเหนือ	13.721834	100.530456	bma	holiday	2022-10-09T00:00:00	16:00:00	17:00:00	13	201	1194	4500	0.27
6705	TF2-ST-SA49-01 ถ.นราธิวาสราชนครินทร์-ถ.สาทรเหนือ	13.721834	100.530456	bma	holiday	2022-10-09T00:00:00	17:00:00	18:00:00	9	202	826	4500	0.18
6706	TF2-ST-SA49-01 ถ.นราธิวาสราชนครินทร์-ถ.สาทรเหนือ	13.721834	100.530456	bma	holiday	2022-10-09T00:00:00	18:00:00	19:00:00	20	78	907	4500	0.20
6707	TF2-ST-SA49-01 ถ.นราธิวาสราชนครินทร์-ถ.สาทรเหนือ	13.721834	100.530456	bma	working	2022-11-09T00:00:00	5:00:00	6:00:00	25	56	202	4500	0.04
6708	TF2-ST-SA49-01 ถ.นราธิวาสราชนครินทร์-ถ.สาทรเหนือ	13.721834	100.530456	bma	holiday	2022-11-09T00:00:00	6:00:00	7:00:00	18	167	590	4500	0.13
6709	TF2-ST-SA49-01 ถ.นราธิวาสราชนครินทร์-ถ.สาทรเหนือ	13.721834	100.530456	bma	holiday	2022-11-09T00:00:00	7:00:00	8:00:00	13	99	389	4500	0.09
6710	TF2-ST-SA49-01 ถ.นราธิวาสราชนครินทร์-ถ.สาทรเหนือ	13.721834	100.530456	bma	holiday	2022-11-09T00:00:00	8:00:00	9:00:00	13	58	591	4500	0.13
6711	TF2-ST-SA49-01 ถ.นราธิวาสราชนครินทร์-ถ.สาทรเหนือ	13.721834	100.530456	bma	working	2022-11-09T00:00:00	9:00:00	10:00:00	11	55	563	4500	0.13
6712	TF2-ST-SA49-01 ถ.นราธิวาสราชนครินทร์-ถ.สาทรเหนือ	13.721834	100.530456	bma	working	2022-11-09T00:00:00	10:00:00	11:00:00	10	60	528	4500	0.12
6713	TF2-ST-SA49-01 ถ.นราธิวาสราชนครินทร์-ถ.สาทรเหนือ	13.721834	100.530456	bma	holiday	2022-11-09T00:00:00	11:00:00	12:00:00	13	201	538	4500	0.12
6714	TF2-ST-SA49-01 ถ.นราธิวาสราชนครินทร์-ถ.สาทรเหนือ	13.721834	100.530456	bma	working	2022-11-09T00:00:00	12:00:00	13:00:00	6	60	518	4500	0.12
6715	TF2-ST-SA49-01 ถ.นราธิวาสราชนครินทร์-ถ.สาทรเหนือ	13.721834	100.530456	bma	working	2022-11-09T00:00:00	13:00:00	14:00:00	8	59	482	4500	0.11
6716	TF2-ST-SA49-01 ถ.นราธิวาสราชนครินทร์-ถ.สาทรเหนือ	13.721834	100.530456	bma	working	2022-11-09T00:00:00	14:00:00	15:00:00	13	61	510	4500	0.11
6717	TF2-ST-SA49-01 ถ.นราธิวาสราชนครินทร์-ถ.สาทรเหนือ	13.721834	100.530456	bma	working	2022-11-09T00:00:00	15:00:00	16:00:00	10	59	535	4500	0.12
6718	TF2-ST-SA49-01 ถ.นราธิวาสราชนครินทร์-ถ.สาทรเหนือ	13.721834	100.530456	bma	holiday	2022-11-09T00:00:00	16:00:00	17:00:00	10	202	701	4500	0.16
6719	TF2-ST-SA49-01 ถ.นราธิวาสราชนครินทร์-ถ.สาทรเหนือ	13.721834	100.530456	bma	holiday	2022-11-09T00:00:00	17:00:00	18:00:00	8	201	515	4500	0.11
6720	TF2-ST-SA49-01 ถ.นราธิวาสราชนครินทร์-ถ.สาทรเหนือ	13.721834	100.530456	bma	holiday	2022-11-09T00:00:00	18:00:00	19:00:00	13	47	538	4500	0.12
6721	TF2-ST-SA50-02 ถ.นราธิวาสราชนครินทร์-ถ.สาทรเหนือ	13.721725	100.530187	bma	working	2022-05-09T00:00:00	5:00:00	6:00:00	39	70	998	4500	0.22
6722	TF2-ST-SA50-02 ถ.นราธิวาสราชนครินทร์-ถ.สาทรเหนือ	13.721725	100.530187	bma	working	2022-05-09T00:00:00	6:00:00	7:00:00	28	202	3033	4500	0.67
6723	TF2-ST-SA50-02 ถ.นราธิวาสราชนครินทร์-ถ.สาทรเหนือ	13.721725	100.530187	bma	working	2022-05-09T00:00:00	7:00:00	8:00:00	19	202	1617	4500	0.36
6724	TF2-ST-SA50-02 ถ.นราธิวาสราชนครินทร์-ถ.สาทรเหนือ	13.721725	100.530187	bma	working	2022-05-09T00:00:00	8:00:00	9:00:00	32	201	5024	4500	1.12
6725	TF2-ST-SA50-02 ถ.นราธิวาสราชนครินทร์-ถ.สาทรเหนือ	13.721725	100.530187	bma	working	2022-05-09T00:00:00	9:00:00	10:00:00	30	201	5001	4500	1.11
6726	TF2-ST-SA50-02 ถ.นราธิวาสราชนครินทร์-ถ.สาทรเหนือ	13.721725	100.530187	bma	working	2022-05-09T00:00:00	10:00:00	11:00:00	30	202	5052	4500	1.12
6727	TF2-ST-SA50-02 ถ.นราธิวาสราชนครินทร์-ถ.สาทรเหนือ	13.721725	100.530187	bma	working	2022-05-09T00:00:00	11:00:00	12:00:00	29	201	3862	4500	0.86
6728	TF2-ST-SA50-02 ถ.นราธิวาสราชนครินทร์-ถ.สาทรเหนือ	13.721725	100.530187	bma	working	2022-05-09T00:00:00	12:00:00	13:00:00	32	201	4973	4500	1.11
6729	TF2-ST-SA50-02 ถ.นราธิวาสราชนครินทร์-ถ.สาทรเหนือ	13.721725	100.530187	bma	working	2022-05-09T00:00:00	13:00:00	14:00:00	30	202	5008	4500	1.11
6730	TF2-ST-SA50-02 ถ.นราธิวาสราชนครินทร์-ถ.สาทรเหนือ	13.721725	100.530187	bma	working	2022-05-09T00:00:00	14:00:00	15:00:00	29	202	5031	4500	1.12
6731	TF2-ST-SA50-02 ถ.นราธิวาสราชนครินทร์-ถ.สาทรเหนือ	13.721725	100.530187	bma	working	2022-05-09T00:00:00	15:00:00	16:00:00	31	201	5014	4500	1.11
6732	TF2-ST-SA50-02 ถ.นราธิวาสราชนครินทร์-ถ.สาทรเหนือ	13.721725	100.530187	bma	working	2022-05-09T00:00:00	16:00:00	17:00:00	32	201	881	4500	0.20
6733	TF2-ST-SA50-02 ถ.นราธิวาสราชนครินทร์-ถ.สาทรเหนือ	13.721725	100.530187	bma	working	2022-05-09T00:00:00	17:00:00	18:00:00	13	202	1472	4500	0.33
6734	TF2-ST-SA50-02 ถ.นราธิวาสราชนครินทร์-ถ.สาทรเหนือ	13.721725	100.530187	bma	working	2022-05-09T00:00:00	18:00:00	19:00:00	12	202	1951	4500	0.43
6735	TF2-ST-SA50-02 ถ.นราธิวาสราชนครินทร์-ถ.สาทรเหนือ	13.721725	100.530187	bma	working	2022-06-09T00:00:00	5:00:00	6:00:00	40	65	1070	4500	0.24
6736	TF2-ST-SA50-02 ถ.นราธิวาสราชนครินทร์-ถ.สาทรเหนือ	13.721725	100.530187	bma	working	2022-06-09T00:00:00	6:00:00	7:00:00	29	185	3245	4500	0.72
6737	TF2-ST-SA50-02 ถ.นราธิวาสราชนครินทร์-ถ.สาทรเหนือ	13.721725	100.530187	bma	working	2022-06-09T00:00:00	7:00:00	8:00:00	22	202	3568	4500	0.79
6738	TF2-ST-SA50-02 ถ.นราธิวาสราชนครินทร์-ถ.สาทรเหนือ	13.721725	100.530187	bma	working	2022-06-09T00:00:00	8:00:00	9:00:00	31	201	4302	4500	0.96
6739	TF2-ST-SA50-02 ถ.นราธิวาสราชนครินทร์-ถ.สาทรเหนือ	13.721725	100.530187	bma	working	2022-06-09T00:00:00	9:00:00	10:00:00	29	202	4261	4500	0.95
6740	TF2-ST-SA50-02 ถ.นราธิวาสราชนครินทร์-ถ.สาทรเหนือ	13.721725	100.530187	bma	working	2022-06-09T00:00:00	10:00:00	11:00:00	27	202	4327	4500	0.96
6741	TF2-ST-SA50-02 ถ.นราธิวาสราชนครินทร์-ถ.สาทรเหนือ	13.721725	100.530187	bma	working	2022-06-09T00:00:00	11:00:00	12:00:00	27	202	2529	4500	0.56
6742	TF2-ST-SA50-02 ถ.นราธิวาสราชนครินทร์-ถ.สาทรเหนือ	13.721725	100.530187	bma	working	2022-06-09T00:00:00	12:00:00	13:00:00	29	202	4269	4500	0.95
6743	TF2-ST-SA50-02 ถ.นราธิวาสราชนครินทร์-ถ.สาทรเหนือ	13.721725	100.530187	bma	working	2022-06-09T00:00:00	13:00:00	14:00:00	29	202	4258	4500	0.95
6744	TF2-ST-SA50-02 ถ.นราธิวาสราชนครินทร์-ถ.สาทรเหนือ	13.721725	100.530187	bma	working	2022-06-09T00:00:00	14:00:00	15:00:00	29	201	4301	4500	0.96
6745	TF2-ST-SA50-02 ถ.นราธิวาสราชนครินทร์-ถ.สาทรเหนือ	13.721725	100.530187	bma	working	2022-06-09T00:00:00	15:00:00	16:00:00	29	201	4246	4500	0.94
6746	TF2-ST-SA50-02 ถ.นราธิวาสราชนครินทร์-ถ.สาทรเหนือ	13.721725	100.530187	bma	working	2022-06-09T00:00:00	16:00:00	17:00:00	31	201	1360	4500	0.30
6747	TF2-ST-SA50-02 ถ.นราธิวาสราชนครินทร์-ถ.สาทรเหนือ	13.721725	100.530187	bma	working	2022-06-09T00:00:00	17:00:00	18:00:00	25	201	1442	4500	0.32
6748	TF2-ST-SA50-02 ถ.นราธิวาสราชนครินทร์-ถ.สาทรเหนือ	13.721725	100.530187	bma	working	2022-06-09T00:00:00	18:00:00	19:00:00	23	202	2237	4500	0.50
6749	TF2-ST-SA50-02 ถ.นราธิวาสราชนครินทร์-ถ.สาทรเหนือ	13.721725	100.530187	bma	working	2022-07-09T00:00:00	5:00:00	6:00:00	47	52	1075	4500	0.24
6750	TF2-ST-SA50-02 ถ.นราธิวาสราชนครินทร์-ถ.สาทรเหนือ	13.721725	100.530187	bma	working	2022-07-09T00:00:00	6:00:00	7:00:00	34	160	3457	4500	0.77
6751	TF2-ST-SA50-02 ถ.นราธิวาสราชนครินทร์-ถ.สาทรเหนือ	13.721725	100.530187	bma	working	2022-07-09T00:00:00	7:00:00	8:00:00	28	202	5557	4500	1.23
6752	TF2-ST-SA50-02 ถ.นราธิวาสราชนครินทร์-ถ.สาทรเหนือ	13.721725	100.530187	bma	working	2022-07-09T00:00:00	8:00:00	9:00:00	33	201	3615	4500	0.80
6753	TF2-ST-SA50-02 ถ.นราธิวาสราชนครินทร์-ถ.สาทรเหนือ	13.721725	100.530187	bma	working	2022-07-09T00:00:00	9:00:00	10:00:00	31	201	3614	4500	0.80
6754	TF2-ST-SA50-02 ถ.นราธิวาสราชนครินทร์-ถ.สาทรเหนือ	13.721725	100.530187	bma	working	2022-07-09T00:00:00	10:00:00	11:00:00	30	202	3651	4500	0.81
6755	TF2-ST-SA50-02 ถ.นราธิวาสราชนครินทร์-ถ.สาทรเหนือ	13.721725	100.530187	bma	working	2022-07-09T00:00:00	11:00:00	12:00:00	25	202	1216	4500	0.27
6756	TF2-ST-SA50-02 ถ.นราธิวาสราชนครินทร์-ถ.สาทรเหนือ	13.721725	100.530187	bma	working	2022-07-09T00:00:00	12:00:00	13:00:00	26	201	3534	4500	0.79
6757	TF2-ST-SA50-02 ถ.นราธิวาสราชนครินทร์-ถ.สาทรเหนือ	13.721725	100.530187	bma	working	2022-07-09T00:00:00	13:00:00	14:00:00	31	202	3535	4500	0.79
6758	TF2-ST-SA50-02 ถ.นราธิวาสราชนครินทร์-ถ.สาทรเหนือ	13.721725	100.530187	bma	working	2022-07-09T00:00:00	14:00:00	15:00:00	29	201	3501	4500	0.78
6759	TF2-ST-SA50-02 ถ.นราธิวาสราชนครินทร์-ถ.สาทรเหนือ	13.721725	100.530187	bma	working	2022-07-09T00:00:00	15:00:00	16:00:00	25	202	3446	4500	0.77
6760	TF2-ST-SA50-02 ถ.นราธิวาสราชนครินทร์-ถ.สาทรเหนือ	13.721725	100.530187	bma	working	2022-07-09T00:00:00	16:00:00	17:00:00	30	201	1902	4500	0.42
6761	TF2-ST-SA50-02 ถ.นราธิวาสราชนครินทร์-ถ.สาทรเหนือ	13.721725	100.530187	bma	working	2022-07-09T00:00:00	17:00:00	18:00:00	38	201	1386	4500	0.31
6762	TF2-ST-SA50-02 ถ.นราธิวาสราชนครินทร์-ถ.สาทรเหนือ	13.721725	100.530187	bma	working	2022-07-09T00:00:00	18:00:00	19:00:00	30	202	2557	4500	0.57
6763	TF2-ST-SA50-02 ถ.นราธิวาสราชนครินทร์-ถ.สาทรเหนือ	13.721725	100.530187	bma	working	2022-08-09T00:00:00	5:00:00	6:00:00	49	46	1136	4500	0.25
6764	TF2-ST-SA50-02 ถ.นราธิวาสราชนครินทร์-ถ.สาทรเหนือ	13.721725	100.530187	bma	working	2022-08-09T00:00:00	6:00:00	7:00:00	35	146	3463	4500	0.77
6765	TF2-ST-SA50-02 ถ.นราธิวาสราชนครินทร์-ถ.สาทรเหนือ	13.721725	100.530187	bma	working	2022-08-09T00:00:00	7:00:00	8:00:00	30	201	4703	4500	1.05
6766	TF2-ST-SA50-02 ถ.นราธิวาสราชนครินทร์-ถ.สาทรเหนือ	13.721725	100.530187	bma	working	2022-08-09T00:00:00	8:00:00	9:00:00	22	202	3956	4500	0.88
6767	TF2-ST-SA50-02 ถ.นราธิวาสราชนครินทร์-ถ.สาทรเหนือ	13.721725	100.530187	bma	working	2022-08-09T00:00:00	9:00:00	10:00:00	20	202	3910	4500	0.87
6768	TF2-ST-SA50-02 ถ.นราธิวาสราชนครินทร์-ถ.สาทรเหนือ	13.721725	100.530187	bma	working	2022-08-09T00:00:00	10:00:00	11:00:00	21	202	3951	4500	0.88
6769	TF2-ST-SA50-02 ถ.นราธิวาสราชนครินทร์-ถ.สาทรเหนือ	13.721725	100.530187	bma	working	2022-08-09T00:00:00	11:00:00	12:00:00	18	201	1665	4500	0.37
6770	TF2-ST-SA50-02 ถ.นราธิวาสราชนครินทร์-ถ.สาทรเหนือ	13.721725	100.530187	bma	working	2022-08-09T00:00:00	12:00:00	13:00:00	17	202	3862	4500	0.86
6771	TF2-ST-SA50-02 ถ.นราธิวาสราชนครินทร์-ถ.สาทรเหนือ	13.721725	100.530187	bma	working	2022-08-09T00:00:00	13:00:00	14:00:00	20	202	3832	4500	0.85
6772	TF2-ST-SA50-02 ถ.นราธิวาสราชนครินทร์-ถ.สาทรเหนือ	13.721725	100.530187	bma	working	2022-08-09T00:00:00	14:00:00	15:00:00	20	201	3859	4500	0.86
6773	TF2-ST-SA50-02 ถ.นราธิวาสราชนครินทร์-ถ.สาทรเหนือ	13.721725	100.530187	bma	working	2022-08-09T00:00:00	15:00:00	16:00:00	22	202	3825	4500	0.85
6774	TF2-ST-SA50-02 ถ.นราธิวาสราชนครินทร์-ถ.สาทรเหนือ	13.721725	100.530187	bma	working	2022-08-09T00:00:00	16:00:00	17:00:00	27	201	2199	4500	0.49
6775	TF2-ST-SA50-02 ถ.นราธิวาสราชนครินทร์-ถ.สาทรเหนือ	13.721725	100.530187	bma	working	2022-08-09T00:00:00	17:00:00	18:00:00	28	202	1361	4500	0.30
6776	TF2-ST-SA50-02 ถ.นราธิวาสราชนครินทร์-ถ.สาทรเหนือ	13.721725	100.530187	bma	working	2022-08-09T00:00:00	18:00:00	19:00:00	21	202	1556	4500	0.35
6777	TF2-ST-SA50-02 ถ.นราธิวาสราชนครินทร์-ถ.สาทรเหนือ	13.721725	100.530187	bma	working	2022-09-09T00:00:00	5:00:00	6:00:00	61	47	1086	4500	0.24
6778	TF2-ST-SA50-02 ถ.นราธิวาสราชนครินทร์-ถ.สาทรเหนือ	13.721725	100.530187	bma	working	2022-09-09T00:00:00	6:00:00	7:00:00	43	134	3441	4500	0.76
6779	TF2-ST-SA50-02 ถ.นราธิวาสราชนครินทร์-ถ.สาทรเหนือ	13.721725	100.530187	bma	working	2022-09-09T00:00:00	7:00:00	8:00:00	24	202	3826	4500	0.85
6780	TF2-ST-SA50-02 ถ.นราธิวาสราชนครินทร์-ถ.สาทรเหนือ	13.721725	100.530187	bma	working	2022-09-09T00:00:00	8:00:00	9:00:00	17	202	4260	4500	0.95
6781	TF2-ST-SA50-02 ถ.นราธิวาสราชนครินทร์-ถ.สาทรเหนือ	13.721725	100.530187	bma	working	2022-09-09T00:00:00	9:00:00	10:00:00	14	202	4190	4500	0.93
6782	TF2-ST-SA50-02 ถ.นราธิวาสราชนครินทร์-ถ.สาทรเหนือ	13.721725	100.530187	bma	working	2022-09-09T00:00:00	10:00:00	11:00:00	13	202	4257	4500	0.95
6783	TF2-ST-SA50-02 ถ.นราธิวาสราชนครินทร์-ถ.สาทรเหนือ	13.721725	100.530187	bma	working	2022-09-09T00:00:00	11:00:00	12:00:00	13	202	2147	4500	0.48
6784	TF2-ST-SA50-02 ถ.นราธิวาสราชนครินทร์-ถ.สาทรเหนือ	13.721725	100.530187	bma	working	2022-09-09T00:00:00	12:00:00	13:00:00	13	201	4245	4500	0.94
6785	TF2-ST-SA50-02 ถ.นราธิวาสราชนครินทร์-ถ.สาทรเหนือ	13.721725	100.530187	bma	working	2022-09-09T00:00:00	13:00:00	14:00:00	10	202	4207	4500	0.93
6786	TF2-ST-SA50-02 ถ.นราธิวาสราชนครินทร์-ถ.สาทรเหนือ	13.721725	100.530187	bma	working	2022-09-09T00:00:00	14:00:00	15:00:00	12	202	4222	4500	0.94
6787	TF2-ST-SA50-02 ถ.นราธิวาสราชนครินทร์-ถ.สาทรเหนือ	13.721725	100.530187	bma	working	2022-09-09T00:00:00	15:00:00	16:00:00	14	202	4197	4500	0.93
6788	TF2-ST-SA50-02 ถ.นราธิวาสราชนครินทร์-ถ.สาทรเหนือ	13.721725	100.530187	bma	working	2022-09-09T00:00:00	16:00:00	17:00:00	28	202	2577	4500	0.57
6789	TF2-ST-SA50-02 ถ.นราธิวาสราชนครินทร์-ถ.สาทรเหนือ	13.721725	100.530187	bma	working	2022-09-09T00:00:00	17:00:00	18:00:00	22	202	1398	4500	0.31
6790	TF2-ST-SA50-02 ถ.นราธิวาสราชนครินทร์-ถ.สาทรเหนือ	13.721725	100.530187	bma	working	2022-09-09T00:00:00	18:00:00	19:00:00	10	202	576	4500	0.13
6791	TF2-ST-SA50-02 ถ.นราธิวาสราชนครินทร์-ถ.สาทรเหนือ	13.721725	100.530187	bma	working	2022-10-09T00:00:00	5:00:00	6:00:00	54	45	484	4500	0.11
6792	TF2-ST-SA50-02 ถ.นราธิวาสราชนครินทร์-ถ.สาทรเหนือ	13.721725	100.530187	bma	working	2022-10-09T00:00:00	6:00:00	7:00:00	39	135	1436	4500	0.32
6793	TF2-ST-SA50-02 ถ.นราธิวาสราชนครินทร์-ถ.สาทรเหนือ	13.721725	100.530187	bma	holiday	2022-10-09T00:00:00	7:00:00	8:00:00	29	202	1448	4500	0.32
6794	TF2-ST-SA50-02 ถ.นราธิวาสราชนครินทร์-ถ.สาทรเหนือ	13.721725	100.530187	bma	holiday	2022-10-09T00:00:00	8:00:00	9:00:00	27	202	3172	4500	0.70
6795	TF2-ST-SA50-02 ถ.นราธิวาสราชนครินทร์-ถ.สาทรเหนือ	13.721725	100.530187	bma	working	2022-10-09T00:00:00	9:00:00	10:00:00	21	201	3040	4500	0.68
6796	TF2-ST-SA50-02 ถ.นราธิวาสราชนครินทร์-ถ.สาทรเหนือ	13.721725	100.530187	bma	working	2022-10-09T00:00:00	10:00:00	11:00:00	22	201	3071	4500	0.68
6797	TF2-ST-SA50-02 ถ.นราธิวาสราชนครินทร์-ถ.สาทรเหนือ	13.721725	100.530187	bma	holiday	2022-10-09T00:00:00	11:00:00	12:00:00	29	202	4177	4500	0.93
6798	TF2-ST-SA50-02 ถ.นราธิวาสราชนครินทร์-ถ.สาทรเหนือ	13.721725	100.530187	bma	working	2022-10-09T00:00:00	12:00:00	13:00:00	21	201	3061	4500	0.68
6799	TF2-ST-SA50-02 ถ.นราธิวาสราชนครินทร์-ถ.สาทรเหนือ	13.721725	100.530187	bma	working	2022-10-09T00:00:00	13:00:00	14:00:00	20	202	3034	4500	0.67
6800	TF2-ST-SA50-02 ถ.นราธิวาสราชนครินทร์-ถ.สาทรเหนือ	13.721725	100.530187	bma	working	2022-10-09T00:00:00	14:00:00	15:00:00	23	201	2991	4500	0.66
6801	TF2-ST-SA50-02 ถ.นราธิวาสราชนครินทร์-ถ.สาทรเหนือ	13.721725	100.530187	bma	working	2022-10-09T00:00:00	15:00:00	16:00:00	23	201	3017	4500	0.67
6802	TF2-ST-SA50-02 ถ.นราธิวาสราชนครินทร์-ถ.สาทรเหนือ	13.721725	100.530187	bma	holiday	2022-10-09T00:00:00	16:00:00	17:00:00	36	202	2781	4500	0.62
6803	TF2-ST-SA50-02 ถ.นราธิวาสราชนครินทร์-ถ.สาทรเหนือ	13.721725	100.530187	bma	holiday	2022-10-09T00:00:00	17:00:00	18:00:00	17	201	1458	4500	0.32
6804	TF2-ST-SA50-02 ถ.นราธิวาสราชนครินทร์-ถ.สาทรเหนือ	13.721725	100.530187	bma	holiday	2022-10-09T00:00:00	18:00:00	19:00:00	8	201	1203	4500	0.27
6805	TF2-ST-SA50-02 ถ.นราธิวาสราชนครินทร์-ถ.สาทรเหนือ	13.721725	100.530187	bma	working	2022-11-09T00:00:00	5:00:00	6:00:00	36	27	282	4500	0.06
6806	TF2-ST-SA50-02 ถ.นราธิวาสราชนครินทร์-ถ.สาทรเหนือ	13.721725	100.530187	bma	working	2022-11-09T00:00:00	6:00:00	7:00:00	26	78	895	4500	0.20
6807	TF2-ST-SA50-02 ถ.นราธิวาสราชนครินทร์-ถ.สาทรเหนือ	13.721725	100.530187	bma	holiday	2022-11-09T00:00:00	7:00:00	8:00:00	18	175	906	4500	0.20
6808	TF2-ST-SA50-02 ถ.นราธิวาสราชนครินทร์-ถ.สาทรเหนือ	13.721725	100.530187	bma	holiday	2022-11-09T00:00:00	8:00:00	9:00:00	17	202	1937	4500	0.43
6809	TF2-ST-SA50-02 ถ.นราธิวาสราชนครินทร์-ถ.สาทรเหนือ	13.721725	100.530187	bma	working	2022-11-09T00:00:00	9:00:00	10:00:00	14	202	1831	4500	0.41
6810	TF2-ST-SA50-02 ถ.นราธิวาสราชนครินทร์-ถ.สาทรเหนือ	13.721725	100.530187	bma	working	2022-11-09T00:00:00	10:00:00	11:00:00	14	201	1861	4500	0.41
6811	TF2-ST-SA50-02 ถ.นราธิวาสราชนครินทร์-ถ.สาทรเหนือ	13.721725	100.530187	bma	holiday	2022-11-09T00:00:00	11:00:00	12:00:00	18	202	2514	4500	0.56
6812	TF2-ST-SA50-02 ถ.นราธิวาสราชนครินทร์-ถ.สาทรเหนือ	13.721725	100.530187	bma	working	2022-11-09T00:00:00	12:00:00	13:00:00	15	202	1802	4500	0.40
6813	TF2-ST-SA50-02 ถ.นราธิวาสราชนครินทร์-ถ.สาทรเหนือ	13.721725	100.530187	bma	working	2022-11-09T00:00:00	13:00:00	14:00:00	15	201	1845	4500	0.41
6814	TF2-ST-SA50-02 ถ.นราธิวาสราชนครินทร์-ถ.สาทรเหนือ	13.721725	100.530187	bma	working	2022-11-09T00:00:00	14:00:00	15:00:00	14	202	1829	4500	0.41
6815	TF2-ST-SA50-02 ถ.นราธิวาสราชนครินทร์-ถ.สาทรเหนือ	13.721725	100.530187	bma	working	2022-11-09T00:00:00	15:00:00	16:00:00	15	202	1824	4500	0.41
6816	TF2-ST-SA50-02 ถ.นราธิวาสราชนครินทร์-ถ.สาทรเหนือ	13.721725	100.530187	bma	holiday	2022-11-09T00:00:00	16:00:00	17:00:00	20	130	1679	4500	0.37
6817	TF2-ST-SA50-02 ถ.นราธิวาสราชนครินทร์-ถ.สาทรเหนือ	13.721725	100.530187	bma	holiday	2022-11-09T00:00:00	17:00:00	18:00:00	12	192	878	4500	0.20
6818	TF2-ST-SA50-02 ถ.นราธิวาสราชนครินทร์-ถ.สาทรเหนือ	13.721725	100.530187	bma	holiday	2022-11-09T00:00:00	18:00:00	19:00:00	3	167	773	4500	0.17
6819	TF2-TR-S19-02 ถ.มไหสวรรย์ - ถ.เจริญนคร	13.702911	100.488497	bma	working	2022-05-09T00:00:00	5:00:00	6:00:00	61	25	97	3600	0.03
6820	TF2-TR-S19-02 ถ.มไหสวรรย์ - ถ.เจริญนคร	13.702911	100.488497	bma	working	2022-05-09T00:00:00	6:00:00	7:00:00	44	77	265	3600	0.07
6821	TF2-TR-S19-02 ถ.มไหสวรรย์ - ถ.เจริญนคร	13.702911	100.488497	bma	working	2022-05-09T00:00:00	7:00:00	8:00:00	21	202	1981	3600	0.55
6822	TF2-TR-S19-02 ถ.มไหสวรรย์ - ถ.เจริญนคร	13.702911	100.488497	bma	working	2022-05-09T00:00:00	8:00:00	9:00:00	19	201	2857	3600	0.79
6823	TF2-TR-S19-02 ถ.มไหสวรรย์ - ถ.เจริญนคร	13.702911	100.488497	bma	working	2022-05-09T00:00:00	9:00:00	10:00:00	15	202	2888	3600	0.80
6824	TF2-TR-S19-02 ถ.มไหสวรรย์ - ถ.เจริญนคร	13.702911	100.488497	bma	working	2022-05-09T00:00:00	10:00:00	11:00:00	15	201	2866	3600	0.80
6825	TF2-TR-S19-02 ถ.มไหสวรรย์ - ถ.เจริญนคร	13.702911	100.488497	bma	working	2022-05-09T00:00:00	11:00:00	12:00:00	26	202	576	3600	0.16
6826	TF2-TR-S19-02 ถ.มไหสวรรย์ - ถ.เจริญนคร	13.702911	100.488497	bma	working	2022-05-09T00:00:00	12:00:00	13:00:00	15	201	2806	3600	0.78
6827	TF2-TR-S19-02 ถ.มไหสวรรย์ - ถ.เจริญนคร	13.702911	100.488497	bma	working	2022-05-09T00:00:00	13:00:00	14:00:00	19	201	2830	3600	0.79
6828	TF2-TR-S19-02 ถ.มไหสวรรย์ - ถ.เจริญนคร	13.702911	100.488497	bma	working	2022-05-09T00:00:00	14:00:00	15:00:00	14	201	2836	3600	0.79
6829	TF2-TR-S19-02 ถ.มไหสวรรย์ - ถ.เจริญนคร	13.702911	100.488497	bma	working	2022-05-09T00:00:00	15:00:00	16:00:00	14	202	2746	3600	0.76
6830	TF2-TR-S19-02 ถ.มไหสวรรย์ - ถ.เจริญนคร	13.702911	100.488497	bma	working	2022-05-09T00:00:00	16:00:00	17:00:00	24	62	840	3600	0.23
6831	TF2-TR-S19-02 ถ.มไหสวรรย์ - ถ.เจริญนคร	13.702911	100.488497	bma	working	2022-05-09T00:00:00	17:00:00	18:00:00	20	201	1787	3600	0.50
6832	TF2-TR-S19-02 ถ.มไหสวรรย์ - ถ.เจริญนคร	13.702911	100.488497	bma	working	2022-05-09T00:00:00	18:00:00	19:00:00	25	201	989	3600	0.27
6833	TF2-TR-S19-02 ถ.มไหสวรรย์ - ถ.เจริญนคร	13.702911	100.488497	bma	working	2022-06-09T00:00:00	5:00:00	6:00:00	64	26	95	3600	0.03
6834	TF2-TR-S19-02 ถ.มไหสวรรย์ - ถ.เจริญนคร	13.702911	100.488497	bma	working	2022-06-09T00:00:00	6:00:00	7:00:00	45	77	257	3600	0.07
6835	TF2-TR-S19-02 ถ.มไหสวรรย์ - ถ.เจริญนคร	13.702911	100.488497	bma	working	2022-06-09T00:00:00	7:00:00	8:00:00	19	202	1927	3600	0.54
6836	TF2-TR-S19-02 ถ.มไหสวรรย์ - ถ.เจริญนคร	13.702911	100.488497	bma	working	2022-06-09T00:00:00	8:00:00	9:00:00	19	202	2896	3600	0.80
6837	TF2-TR-S19-02 ถ.มไหสวรรย์ - ถ.เจริญนคร	13.702911	100.488497	bma	working	2022-06-09T00:00:00	9:00:00	10:00:00	14	201	2805	3600	0.78
6838	TF2-TR-S19-02 ถ.มไหสวรรย์ - ถ.เจริญนคร	13.702911	100.488497	bma	working	2022-06-09T00:00:00	10:00:00	11:00:00	17	201	2875	3600	0.80
6839	TF2-TR-S19-02 ถ.มไหสวรรย์ - ถ.เจริญนคร	13.702911	100.488497	bma	working	2022-06-09T00:00:00	11:00:00	12:00:00	24	202	861	3600	0.24
6840	TF2-TR-S19-02 ถ.มไหสวรรย์ - ถ.เจริญนคร	13.702911	100.488497	bma	working	2022-06-09T00:00:00	12:00:00	13:00:00	14	201	2808	3600	0.78
6841	TF2-TR-S19-02 ถ.มไหสวรรย์ - ถ.เจริญนคร	13.702911	100.488497	bma	working	2022-06-09T00:00:00	13:00:00	14:00:00	18	201	2782	3600	0.77
6842	TF2-TR-S19-02 ถ.มไหสวรรย์ - ถ.เจริญนคร	13.702911	100.488497	bma	working	2022-06-09T00:00:00	14:00:00	15:00:00	15	201	2775	3600	0.77
6843	TF2-TR-S19-02 ถ.มไหสวรรย์ - ถ.เจริญนคร	13.702911	100.488497	bma	working	2022-06-09T00:00:00	15:00:00	16:00:00	16	202	2774	3600	0.77
6844	TF2-TR-S19-02 ถ.มไหสวรรย์ - ถ.เจริญนคร	13.702911	100.488497	bma	working	2022-06-09T00:00:00	16:00:00	17:00:00	23	78	1232	3600	0.34
6845	TF2-TR-S19-02 ถ.มไหสวรรย์ - ถ.เจริญนคร	13.702911	100.488497	bma	working	2022-06-09T00:00:00	17:00:00	18:00:00	17	201	1575	3600	0.44
6846	TF2-TR-S19-02 ถ.มไหสวรรย์ - ถ.เจริญนคร	13.702911	100.488497	bma	working	2022-06-09T00:00:00	18:00:00	19:00:00	22	202	1073	3600	0.30
6847	TF2-TR-S19-02 ถ.มไหสวรรย์ - ถ.เจริญนคร	13.702911	100.488497	bma	working	2022-07-09T00:00:00	5:00:00	6:00:00	64	28	100	3600	0.03
6848	TF2-TR-S19-02 ถ.มไหสวรรย์ - ถ.เจริญนคร	13.702911	100.488497	bma	working	2022-07-09T00:00:00	6:00:00	7:00:00	46	80	261	3600	0.07
6849	TF2-TR-S19-02 ถ.มไหสวรรย์ - ถ.เจริญนคร	13.702911	100.488497	bma	working	2022-07-09T00:00:00	7:00:00	8:00:00	21	202	1947	3600	0.54
6850	TF2-TR-S19-02 ถ.มไหสวรรย์ - ถ.เจริญนคร	13.702911	100.488497	bma	working	2022-07-09T00:00:00	8:00:00	9:00:00	20	202	2886	3600	0.80
6851	TF2-TR-S19-02 ถ.มไหสวรรย์ - ถ.เจริญนคร	13.702911	100.488497	bma	working	2022-07-09T00:00:00	9:00:00	10:00:00	15	202	2764	3600	0.77
6852	TF2-TR-S19-02 ถ.มไหสวรรย์ - ถ.เจริญนคร	13.702911	100.488497	bma	working	2022-07-09T00:00:00	10:00:00	11:00:00	16	202	2811	3600	0.78
6853	TF2-TR-S19-02 ถ.มไหสวรรย์ - ถ.เจริญนคร	13.702911	100.488497	bma	working	2022-07-09T00:00:00	11:00:00	12:00:00	21	201	1173	3600	0.33
6854	TF2-TR-S19-02 ถ.มไหสวรรย์ - ถ.เจริญนคร	13.702911	100.488497	bma	working	2022-07-09T00:00:00	12:00:00	13:00:00	18	201	2814	3600	0.78
6855	TF2-TR-S19-02 ถ.มไหสวรรย์ - ถ.เจริญนคร	13.702911	100.488497	bma	working	2022-07-09T00:00:00	13:00:00	14:00:00	17	202	2699	3600	0.75
6856	TF2-TR-S19-02 ถ.มไหสวรรย์ - ถ.เจริญนคร	13.702911	100.488497	bma	working	2022-07-09T00:00:00	14:00:00	15:00:00	16	202	2692	3600	0.75
6857	TF2-TR-S19-02 ถ.มไหสวรรย์ - ถ.เจริญนคร	13.702911	100.488497	bma	working	2022-07-09T00:00:00	15:00:00	16:00:00	16	202	2830	3600	0.79
6858	TF2-TR-S19-02 ถ.มไหสวรรย์ - ถ.เจริญนคร	13.702911	100.488497	bma	working	2022-07-09T00:00:00	16:00:00	17:00:00	25	95	1677	3600	0.47
6859	TF2-TR-S19-02 ถ.มไหสวรรย์ - ถ.เจริญนคร	13.702911	100.488497	bma	working	2022-07-09T00:00:00	17:00:00	18:00:00	18	202	1353	3600	0.38
6860	TF2-TR-S19-02 ถ.มไหสวรรย์ - ถ.เจริญนคร	13.702911	100.488497	bma	working	2022-07-09T00:00:00	18:00:00	19:00:00	22	202	1221	3600	0.34
6861	TF2-TR-S19-02 ถ.มไหสวรรย์ - ถ.เจริญนคร	13.702911	100.488497	bma	working	2022-08-09T00:00:00	5:00:00	6:00:00	62	25	99	3600	0.03
6862	TF2-TR-S19-02 ถ.มไหสวรรย์ - ถ.เจริญนคร	13.702911	100.488497	bma	working	2022-08-09T00:00:00	6:00:00	7:00:00	44	78	273	3600	0.08
6863	TF2-TR-S19-02 ถ.มไหสวรรย์ - ถ.เจริญนคร	13.702911	100.488497	bma	working	2022-08-09T00:00:00	7:00:00	8:00:00	20	202	1963	3600	0.55
6864	TF2-TR-S19-02 ถ.มไหสวรรย์ - ถ.เจริญนคร	13.702911	100.488497	bma	working	2022-08-09T00:00:00	8:00:00	9:00:00	20	201	2909	3600	0.81
6865	TF2-TR-S19-02 ถ.มไหสวรรย์ - ถ.เจริญนคร	13.702911	100.488497	bma	working	2022-08-09T00:00:00	9:00:00	10:00:00	19	202	2851	3600	0.79
6866	TF2-TR-S19-02 ถ.มไหสวรรย์ - ถ.เจริญนคร	13.702911	100.488497	bma	working	2022-08-09T00:00:00	10:00:00	11:00:00	18	202	2802	3600	0.78
6867	TF2-TR-S19-02 ถ.มไหสวรรย์ - ถ.เจริญนคร	13.702911	100.488497	bma	working	2022-08-09T00:00:00	11:00:00	12:00:00	18	201	1728	3600	0.48
6868	TF2-TR-S19-02 ถ.มไหสวรรย์ - ถ.เจริญนคร	13.702911	100.488497	bma	working	2022-08-09T00:00:00	12:00:00	13:00:00	18	201	2765	3600	0.77
6869	TF2-TR-S19-02 ถ.มไหสวรรย์ - ถ.เจริญนคร	13.702911	100.488497	bma	working	2022-08-09T00:00:00	13:00:00	14:00:00	15	202	2734	3600	0.76
6870	TF2-TR-S19-02 ถ.มไหสวรรย์ - ถ.เจริญนคร	13.702911	100.488497	bma	working	2022-08-09T00:00:00	14:00:00	15:00:00	18	201	2745	3600	0.76
6871	TF2-TR-S19-02 ถ.มไหสวรรย์ - ถ.เจริญนคร	13.702911	100.488497	bma	working	2022-08-09T00:00:00	15:00:00	16:00:00	15	202	2828	3600	0.79
6872	TF2-TR-S19-02 ถ.มไหสวรรย์ - ถ.เจริญนคร	13.702911	100.488497	bma	working	2022-08-09T00:00:00	16:00:00	17:00:00	22	192	2080	3600	0.58
6873	TF2-TR-S19-02 ถ.มไหสวรรย์ - ถ.เจริญนคร	13.702911	100.488497	bma	working	2022-08-09T00:00:00	17:00:00	18:00:00	16	202	1734	3600	0.48
6874	TF2-TR-S19-02 ถ.มไหสวรรย์ - ถ.เจริญนคร	13.702911	100.488497	bma	working	2022-08-09T00:00:00	18:00:00	19:00:00	20	202	1231	3600	0.34
6875	TF2-TR-S19-02 ถ.มไหสวรรย์ - ถ.เจริญนคร	13.702911	100.488497	bma	working	2022-09-09T00:00:00	5:00:00	6:00:00	66	26	94	3600	0.03
6876	TF2-TR-S19-02 ถ.มไหสวรรย์ - ถ.เจริญนคร	13.702911	100.488497	bma	working	2022-09-09T00:00:00	6:00:00	7:00:00	46	79	265	3600	0.07
6877	TF2-TR-S19-02 ถ.มไหสวรรย์ - ถ.เจริญนคร	13.702911	100.488497	bma	working	2022-09-09T00:00:00	7:00:00	8:00:00	21	202	1941	3600	0.54
6878	TF2-TR-S19-02 ถ.มไหสวรรย์ - ถ.เจริญนคร	13.702911	100.488497	bma	working	2022-09-09T00:00:00	8:00:00	9:00:00	21	202	2871	3600	0.80
6879	TF2-TR-S19-02 ถ.มไหสวรรย์ - ถ.เจริญนคร	13.702911	100.488497	bma	working	2022-09-09T00:00:00	9:00:00	10:00:00	21	202	2886	3600	0.80
6880	TF2-TR-S19-02 ถ.มไหสวรรย์ - ถ.เจริญนคร	13.702911	100.488497	bma	working	2022-09-09T00:00:00	10:00:00	11:00:00	18	202	2775	3600	0.77
6881	TF2-TR-S19-02 ถ.มไหสวรรย์ - ถ.เจริญนคร	13.702911	100.488497	bma	working	2022-09-09T00:00:00	11:00:00	12:00:00	21	136	2281	3600	0.63
6882	TF2-TR-S19-02 ถ.มไหสวรรย์ - ถ.เจริญนคร	13.702911	100.488497	bma	working	2022-09-09T00:00:00	12:00:00	13:00:00	15	201	2742	3600	0.76
6883	TF2-TR-S19-02 ถ.มไหสวรรย์ - ถ.เจริญนคร	13.702911	100.488497	bma	working	2022-09-09T00:00:00	13:00:00	14:00:00	18	201	2741	3600	0.76
6884	TF2-TR-S19-02 ถ.มไหสวรรย์ - ถ.เจริญนคร	13.702911	100.488497	bma	working	2022-09-09T00:00:00	14:00:00	15:00:00	18	202	2795	3600	0.78
6885	TF2-TR-S19-02 ถ.มไหสวรรย์ - ถ.เจริญนคร	13.702911	100.488497	bma	working	2022-09-09T00:00:00	15:00:00	16:00:00	17	202	2803	3600	0.78
6886	TF2-TR-S19-02 ถ.มไหสวรรย์ - ถ.เจริญนคร	13.702911	100.488497	bma	working	2022-09-09T00:00:00	16:00:00	17:00:00	18	202	2525	3600	0.70
6887	TF2-TR-S19-02 ถ.มไหสวรรย์ - ถ.เจริญนคร	13.702911	100.488497	bma	working	2022-09-09T00:00:00	17:00:00	18:00:00	17	201	2070	3600	0.58
6888	TF2-TR-S19-02 ถ.มไหสวรรย์ - ถ.เจริญนคร	13.702911	100.488497	bma	working	2022-09-09T00:00:00	18:00:00	19:00:00	17	202	1230	3600	0.34
6889	TF2-TR-S19-02 ถ.มไหสวรรย์ - ถ.เจริญนคร	13.702911	100.488497	bma	working	2022-10-09T00:00:00	5:00:00	6:00:00	38	32	383	3600	0.11
6890	TF2-TR-S19-02 ถ.มไหสวรรย์ - ถ.เจริญนคร	13.702911	100.488497	bma	holiday	2022-10-09T00:00:00	6:00:00	7:00:00	27	90	1148	3600	0.32
6891	TF2-TR-S19-02 ถ.มไหสวรรย์ - ถ.เจริญนคร	13.702911	100.488497	bma	holiday	2022-10-09T00:00:00	7:00:00	8:00:00	24	201	2079	3600	0.58
6892	TF2-TR-S19-02 ถ.มไหสวรรย์ - ถ.เจริญนคร	13.702911	100.488497	bma	holiday	2022-10-09T00:00:00	8:00:00	9:00:00	19	156	1637	3600	0.45
6893	TF2-TR-S19-02 ถ.มไหสวรรย์ - ถ.เจริญนคร	13.702911	100.488497	bma	working	2022-10-09T00:00:00	9:00:00	10:00:00	14	152	1497	3600	0.42
6894	TF2-TR-S19-02 ถ.มไหสวรรย์ - ถ.เจริญนคร	13.702911	100.488497	bma	working	2022-10-09T00:00:00	10:00:00	11:00:00	14	149	1475	3600	0.41
6895	TF2-TR-S19-02 ถ.มไหสวรรย์ - ถ.เจริญนคร	13.702911	100.488497	bma	holiday	2022-10-09T00:00:00	11:00:00	12:00:00	23	201	2965	3600	0.82
6896	TF2-TR-S19-02 ถ.มไหสวรรย์ - ถ.เจริญนคร	13.702911	100.488497	bma	working	2022-10-09T00:00:00	12:00:00	13:00:00	16	152	1475	3600	0.41
6897	TF2-TR-S19-02 ถ.มไหสวรรย์ - ถ.เจริญนคร	13.702911	100.488497	bma	working	2022-10-09T00:00:00	13:00:00	14:00:00	16	148	1518	3600	0.42
6898	TF2-TR-S19-02 ถ.มไหสวรรย์ - ถ.เจริญนคร	13.702911	100.488497	bma	working	2022-10-09T00:00:00	14:00:00	15:00:00	17	149	1451	3600	0.40
6899	TF2-TR-S19-02 ถ.มไหสวรรย์ - ถ.เจริญนคร	13.702911	100.488497	bma	working	2022-10-09T00:00:00	15:00:00	16:00:00	16	146	1485	3600	0.41
6900	TF2-TR-S19-02 ถ.มไหสวรรย์ - ถ.เจริญนคร	13.702911	100.488497	bma	holiday	2022-10-09T00:00:00	16:00:00	17:00:00	20	202	1355	3600	0.38
6901	TF2-TR-S19-02 ถ.มไหสวรรย์ - ถ.เจริญนคร	13.702911	100.488497	bma	holiday	2022-10-09T00:00:00	17:00:00	18:00:00	22	154	1428	3600	0.40
6902	TF2-TR-S19-02 ถ.มไหสวรรย์ - ถ.เจริญนคร	13.702911	100.488497	bma	holiday	2022-10-09T00:00:00	18:00:00	19:00:00	16	66	990	3600	0.28
6903	TF2-TR-S19-02 ถ.มไหสวรรย์ - ถ.เจริญนคร	13.702911	100.488497	bma	working	2022-11-09T00:00:00	5:00:00	6:00:00	18	19	241	3600	0.07
6904	TF2-TR-S19-02 ถ.มไหสวรรย์ - ถ.เจริญนคร	13.702911	100.488497	bma	holiday	2022-11-09T00:00:00	6:00:00	7:00:00	13	57	685	3600	0.19
6905	TF2-TR-S19-02 ถ.มไหสวรรย์ - ถ.เจริญนคร	13.702911	100.488497	bma	holiday	2022-11-09T00:00:00	7:00:00	8:00:00	14	128	1302	3600	0.36
6906	TF2-TR-S19-02 ถ.มไหสวรรย์ - ถ.เจริญนคร	13.702911	100.488497	bma	holiday	2022-11-09T00:00:00	8:00:00	9:00:00	12	94	989	3600	0.27
6907	TF2-TR-S19-02 ถ.มไหสวรรย์ - ถ.เจริญนคร	13.702911	100.488497	bma	working	2022-11-09T00:00:00	9:00:00	10:00:00	9	92	924	3600	0.26
6908	TF2-TR-S19-02 ถ.มไหสวรรย์ - ถ.เจริญนคร	13.702911	100.488497	bma	working	2022-11-09T00:00:00	10:00:00	11:00:00	11	89	910	3600	0.25
6909	TF2-TR-S19-02 ถ.มไหสวรรย์ - ถ.เจริญนคร	13.702911	100.488497	bma	holiday	2022-11-09T00:00:00	11:00:00	12:00:00	13	139	1781	3600	0.49
6910	TF2-TR-S19-02 ถ.มไหสวรรย์ - ถ.เจริญนคร	13.702911	100.488497	bma	working	2022-11-09T00:00:00	12:00:00	13:00:00	11	91	895	3600	0.25
6911	TF2-TR-S19-02 ถ.มไหสวรรย์ - ถ.เจริญนคร	13.702911	100.488497	bma	working	2022-11-09T00:00:00	13:00:00	14:00:00	8	87	912	3600	0.25
6912	TF2-TR-S19-02 ถ.มไหสวรรย์ - ถ.เจริญนคร	13.702911	100.488497	bma	working	2022-11-09T00:00:00	14:00:00	15:00:00	11	89	878	3600	0.24
6913	TF2-TR-S19-02 ถ.มไหสวรรย์ - ถ.เจริญนคร	13.702911	100.488497	bma	working	2022-11-09T00:00:00	15:00:00	16:00:00	6	86	891	3600	0.25
6914	TF2-TR-S19-02 ถ.มไหสวรรย์ - ถ.เจริญนคร	13.702911	100.488497	bma	holiday	2022-11-09T00:00:00	16:00:00	17:00:00	13	195	839	3600	0.23
6915	TF2-TR-S19-02 ถ.มไหสวรรย์ - ถ.เจริญนคร	13.702911	100.488497	bma	holiday	2022-11-09T00:00:00	17:00:00	18:00:00	13	90	919	3600	0.26
6916	TF2-TR-S19-02 ถ.มไหสวรรย์ - ถ.เจริญนคร	13.702911	100.488497	bma	holiday	2022-11-09T00:00:00	18:00:00	19:00:00	12	39	666	3600	0.19
6917	TF2-TR-S22-01 ถ.เทอดไท.เพชรเกษม	13.727296	100.487263	bma	working	2022-05-09T00:00:00	5:00:00	6:00:00	43	20	158	2700	0.06
6918	TF2-TR-S22-01 ถ.เทอดไท.เพชรเกษม	13.727296	100.487263	bma	working	2022-05-09T00:00:00	6:00:00	7:00:00	30	62	424	2700	0.16
6919	TF2-TR-S22-01 ถ.เทอดไท.เพชรเกษม	13.727296	100.487263	bma	working	2022-05-09T00:00:00	7:00:00	8:00:00	10	202	823	2700	0.30
6920	TF2-TR-S22-01 ถ.เทอดไท.เพชรเกษม	13.727296	100.487263	bma	working	2022-05-09T00:00:00	8:00:00	9:00:00	17	202	1160	2700	0.43
6921	TF2-TR-S22-01 ถ.เทอดไท.เพชรเกษม	13.727296	100.487263	bma	working	2022-05-09T00:00:00	9:00:00	10:00:00	10	202	1304	2700	0.48
6922	TF2-TR-S22-01 ถ.เทอดไท.เพชรเกษม	13.727296	100.487263	bma	working	2022-05-09T00:00:00	10:00:00	11:00:00	10	202	1240	2700	0.46
6923	TF2-TR-S22-01 ถ.เทอดไท.เพชรเกษม	13.727296	100.487263	bma	working	2022-05-09T00:00:00	11:00:00	12:00:00	19	123	681	2700	0.25
6924	TF2-TR-S22-01 ถ.เทอดไท.เพชรเกษม	13.727296	100.487263	bma	working	2022-05-09T00:00:00	12:00:00	13:00:00	10	201	1029	2700	0.38
6925	TF2-TR-S22-01 ถ.เทอดไท.เพชรเกษม	13.727296	100.487263	bma	working	2022-05-09T00:00:00	13:00:00	14:00:00	11	202	1114	2700	0.41
6926	TF2-TR-S22-01 ถ.เทอดไท.เพชรเกษม	13.727296	100.487263	bma	working	2022-05-09T00:00:00	14:00:00	15:00:00	11	201	1100	2700	0.41
6927	TF2-TR-S22-01 ถ.เทอดไท.เพชรเกษม	13.727296	100.487263	bma	working	2022-05-09T00:00:00	15:00:00	16:00:00	13	202	1094	2700	0.41
6928	TF2-TR-S22-01 ถ.เทอดไท.เพชรเกษม	13.727296	100.487263	bma	working	2022-05-09T00:00:00	16:00:00	17:00:00	26	202	1179	2700	0.44
6929	TF2-TR-S22-01 ถ.เทอดไท.เพชรเกษม	13.727296	100.487263	bma	working	2022-05-09T00:00:00	17:00:00	18:00:00	35	64	1208	2700	0.45
6930	TF2-TR-S22-01 ถ.เทอดไท.เพชรเกษม	13.727296	100.487263	bma	working	2022-05-09T00:00:00	18:00:00	19:00:00	26	88	2520	2700	0.93
6931	TF2-TR-S22-01 ถ.เทอดไท.เพชรเกษม	13.727296	100.487263	bma	working	2022-06-09T00:00:00	5:00:00	6:00:00	39	19	155	2700	0.06
6932	TF2-TR-S22-01 ถ.เทอดไท.เพชรเกษม	13.727296	100.487263	bma	working	2022-06-09T00:00:00	6:00:00	7:00:00	28	60	451	2700	0.17
6933	TF2-TR-S22-01 ถ.เทอดไท.เพชรเกษม	13.727296	100.487263	bma	working	2022-06-09T00:00:00	7:00:00	8:00:00	13	201	911	2700	0.34
6934	TF2-TR-S22-01 ถ.เทอดไท.เพชรเกษม	13.727296	100.487263	bma	working	2022-06-09T00:00:00	8:00:00	9:00:00	14	202	1260	2700	0.47
6935	TF2-TR-S22-01 ถ.เทอดไท.เพชรเกษม	13.727296	100.487263	bma	working	2022-06-09T00:00:00	9:00:00	10:00:00	12	202	1267	2700	0.47
6936	TF2-TR-S22-01 ถ.เทอดไท.เพชรเกษม	13.727296	100.487263	bma	working	2022-06-09T00:00:00	10:00:00	11:00:00	12	201	1218	2700	0.45
6937	TF2-TR-S22-01 ถ.เทอดไท.เพชรเกษม	13.727296	100.487263	bma	working	2022-06-09T00:00:00	11:00:00	12:00:00	21	109	882	2700	0.33
6938	TF2-TR-S22-01 ถ.เทอดไท.เพชรเกษม	13.727296	100.487263	bma	working	2022-06-09T00:00:00	12:00:00	13:00:00	13	201	1055	2700	0.39
6939	TF2-TR-S22-01 ถ.เทอดไท.เพชรเกษม	13.727296	100.487263	bma	working	2022-06-09T00:00:00	13:00:00	14:00:00	12	201	1073	2700	0.40
6940	TF2-TR-S22-01 ถ.เทอดไท.เพชรเกษม	13.727296	100.487263	bma	working	2022-06-09T00:00:00	14:00:00	15:00:00	13	202	1084	2700	0.40
6941	TF2-TR-S22-01 ถ.เทอดไท.เพชรเกษม	13.727296	100.487263	bma	working	2022-06-09T00:00:00	15:00:00	16:00:00	13	201	1122	2700	0.42
6942	TF2-TR-S22-01 ถ.เทอดไท.เพชรเกษม	13.727296	100.487263	bma	working	2022-06-09T00:00:00	16:00:00	17:00:00	24	168	1953	2700	0.72
6943	TF2-TR-S22-01 ถ.เทอดไท.เพชรเกษม	13.727296	100.487263	bma	working	2022-06-09T00:00:00	17:00:00	18:00:00	26	118	1288	2700	0.48
6944	TF2-TR-S22-01 ถ.เทอดไท.เพชรเกษม	13.727296	100.487263	bma	working	2022-06-09T00:00:00	18:00:00	19:00:00	32	78	2403	2700	0.89
6945	TF2-TR-S22-01 ถ.เทอดไท.เพชรเกษม	13.727296	100.487263	bma	working	2022-07-09T00:00:00	5:00:00	6:00:00	42	20	163	2700	0.06
6946	TF2-TR-S22-01 ถ.เทอดไท.เพชรเกษม	13.727296	100.487263	bma	working	2022-07-09T00:00:00	6:00:00	7:00:00	30	60	439	2700	0.16
6947	TF2-TR-S22-01 ถ.เทอดไท.เพชรเกษม	13.727296	100.487263	bma	working	2022-07-09T00:00:00	7:00:00	8:00:00	14	202	834	2700	0.31
6948	TF2-TR-S22-01 ถ.เทอดไท.เพชรเกษม	13.727296	100.487263	bma	working	2022-07-09T00:00:00	8:00:00	9:00:00	15	201	1301	2700	0.48
6949	TF2-TR-S22-01 ถ.เทอดไท.เพชรเกษม	13.727296	100.487263	bma	working	2022-07-09T00:00:00	9:00:00	10:00:00	13	202	1298	2700	0.48
6950	TF2-TR-S22-01 ถ.เทอดไท.เพชรเกษม	13.727296	100.487263	bma	working	2022-07-09T00:00:00	10:00:00	11:00:00	10	202	1150	2700	0.43
6951	TF2-TR-S22-01 ถ.เทอดไท.เพชรเกษม	13.727296	100.487263	bma	working	2022-07-09T00:00:00	11:00:00	12:00:00	28	91	1071	2700	0.40
6952	TF2-TR-S22-01 ถ.เทอดไท.เพชรเกษม	13.727296	100.487263	bma	working	2022-07-09T00:00:00	12:00:00	13:00:00	10	202	1024	2700	0.38
6953	TF2-TR-S22-01 ถ.เทอดไท.เพชรเกษม	13.727296	100.487263	bma	working	2022-07-09T00:00:00	13:00:00	14:00:00	13	202	1042	2700	0.39
6954	TF2-TR-S22-01 ถ.เทอดไท.เพชรเกษม	13.727296	100.487263	bma	working	2022-07-09T00:00:00	14:00:00	15:00:00	15	201	1062	2700	0.39
6955	TF2-TR-S22-01 ถ.เทอดไท.เพชรเกษม	13.727296	100.487263	bma	working	2022-07-09T00:00:00	15:00:00	16:00:00	14	202	1123	2700	0.42
6956	TF2-TR-S22-01 ถ.เทอดไท.เพชรเกษม	13.727296	100.487263	bma	working	2022-07-09T00:00:00	16:00:00	17:00:00	28	79	2539	2700	0.94
6957	TF2-TR-S22-01 ถ.เทอดไท.เพชรเกษม	13.727296	100.487263	bma	working	2022-07-09T00:00:00	17:00:00	18:00:00	16	177	1348	2700	0.50
6958	TF2-TR-S22-01 ถ.เทอดไท.เพชรเกษม	13.727296	100.487263	bma	working	2022-07-09T00:00:00	18:00:00	19:00:00	32	71	2160	2700	0.80
6959	TF2-TR-S22-01 ถ.เทอดไท.เพชรเกษม	13.727296	100.487263	bma	working	2022-08-09T00:00:00	5:00:00	6:00:00	40	20	144	2700	0.05
6960	TF2-TR-S22-01 ถ.เทอดไท.เพชรเกษม	13.727296	100.487263	bma	working	2022-08-09T00:00:00	6:00:00	7:00:00	28	61	424	2700	0.16
6961	TF2-TR-S22-01 ถ.เทอดไท.เพชรเกษม	13.727296	100.487263	bma	working	2022-08-09T00:00:00	7:00:00	8:00:00	18	202	777	2700	0.29
6962	TF2-TR-S22-01 ถ.เทอดไท.เพชรเกษม	13.727296	100.487263	bma	working	2022-08-09T00:00:00	8:00:00	9:00:00	20	189	798	2700	0.30
6963	TF2-TR-S22-01 ถ.เทอดไท.เพชรเกษม	13.727296	100.487263	bma	working	2022-08-09T00:00:00	9:00:00	10:00:00	13	187	761	2700	0.28
6964	TF2-TR-S22-01 ถ.เทอดไท.เพชรเกษม	13.727296	100.487263	bma	working	2022-08-09T00:00:00	10:00:00	11:00:00	17	187	686	2700	0.25
6965	TF2-TR-S22-01 ถ.เทอดไท.เพชรเกษม	13.727296	100.487263	bma	working	2022-08-09T00:00:00	11:00:00	12:00:00	23	125	864	2700	0.32
6966	TF2-TR-S22-01 ถ.เทอดไท.เพชรเกษม	13.727296	100.487263	bma	working	2022-08-09T00:00:00	12:00:00	13:00:00	16	182	612	2700	0.23
6967	TF2-TR-S22-01 ถ.เทอดไท.เพชรเกษม	13.727296	100.487263	bma	working	2022-08-09T00:00:00	13:00:00	14:00:00	15	180	686	2700	0.25
6968	TF2-TR-S22-01 ถ.เทอดไท.เพชรเกษม	13.727296	100.487263	bma	working	2022-08-09T00:00:00	14:00:00	15:00:00	17	180	683	2700	0.25
6969	TF2-TR-S22-01 ถ.เทอดไท.เพชรเกษม	13.727296	100.487263	bma	working	2022-08-09T00:00:00	15:00:00	16:00:00	17	182	629	2700	0.23
6970	TF2-TR-S22-01 ถ.เทอดไท.เพชรเกษม	13.727296	100.487263	bma	working	2022-08-09T00:00:00	16:00:00	17:00:00	25	87	2606	2700	0.97
6971	TF2-TR-S22-01 ถ.เทอดไท.เพชรเกษม	13.727296	100.487263	bma	working	2022-08-09T00:00:00	17:00:00	18:00:00	16	161	1316	2700	0.49
6972	TF2-TR-S22-01 ถ.เทอดไท.เพชรเกษม	13.727296	100.487263	bma	working	2022-08-09T00:00:00	18:00:00	19:00:00	20	182	1479	2700	0.55
6973	TF2-TR-S22-01 ถ.เทอดไท.เพชรเกษม	13.727296	100.487263	bma	working	2022-09-09T00:00:00	5:00:00	6:00:00	44	21	138	2700	0.05
6974	TF2-TR-S22-01 ถ.เทอดไท.เพชรเกษม	13.727296	100.487263	bma	working	2022-09-09T00:00:00	6:00:00	7:00:00	31	63	416	2700	0.15
6975	TF2-TR-S22-01 ถ.เทอดไท.เพชรเกษม	13.727296	100.487263	bma	working	2022-09-09T00:00:00	7:00:00	8:00:00	27	202	644	2700	0.24
6976	TF2-TR-S22-01 ถ.เทอดไท.เพชรเกษม	13.727296	100.487263	bma	working	2022-09-09T00:00:00	8:00:00	9:00:00	23	108	388	2700	0.14
6977	TF2-TR-S22-01 ถ.เทอดไท.เพชรเกษม	13.727296	100.487263	bma	working	2022-09-09T00:00:00	9:00:00	10:00:00	17	105	247	2700	0.09
6978	TF2-TR-S22-01 ถ.เทอดไท.เพชรเกษม	13.727296	100.487263	bma	working	2022-09-09T00:00:00	10:00:00	11:00:00	20	102	348	2700	0.13
6979	TF2-TR-S22-01 ถ.เทอดไท.เพชรเกษม	13.727296	100.487263	bma	working	2022-09-09T00:00:00	11:00:00	12:00:00	16	160	654	2700	0.24
6980	TF2-TR-S22-01 ถ.เทอดไท.เพชรเกษม	13.727296	100.487263	bma	working	2022-09-09T00:00:00	12:00:00	13:00:00	21	102	217	2700	0.08
6981	TF2-TR-S22-01 ถ.เทอดไท.เพชรเกษม	13.727296	100.487263	bma	working	2022-09-09T00:00:00	13:00:00	14:00:00	15	106	268	2700	0.10
6982	TF2-TR-S22-01 ถ.เทอดไท.เพชรเกษม	13.727296	100.487263	bma	working	2022-09-09T00:00:00	14:00:00	15:00:00	18	102	284	2700	0.11
6983	TF2-TR-S22-01 ถ.เทอดไท.เพชรเกษม	13.727296	100.487263	bma	working	2022-09-09T00:00:00	15:00:00	16:00:00	18	103	163	2700	0.06
6984	TF2-TR-S22-01 ถ.เทอดไท.เพชรเกษม	13.727296	100.487263	bma	working	2022-09-09T00:00:00	16:00:00	17:00:00	24	95	2641	2700	0.98
6985	TF2-TR-S22-01 ถ.เทอดไท.เพชรเกษม	13.727296	100.487263	bma	working	2022-09-09T00:00:00	17:00:00	18:00:00	19	141	1182	2700	0.44
6986	TF2-TR-S22-01 ถ.เทอดไท.เพชรเกษม	13.727296	100.487263	bma	working	2022-09-09T00:00:00	18:00:00	19:00:00	5	201	513	2700	0.19
6987	TF2-TR-S22-01 ถ.เทอดไท.เพชรเกษม	13.727296	100.487263	bma	working	2022-10-09T00:00:00	5:00:00	6:00:00	35	20	73	2700	0.03
6988	TF2-TR-S22-01 ถ.เทอดไท.เพชรเกษม	13.727296	100.487263	bma	holiday	2022-10-09T00:00:00	6:00:00	7:00:00	25	59	209	2700	0.08
6989	TF2-TR-S22-01 ถ.เทอดไท.เพชรเกษม	13.727296	100.487263	bma	holiday	2022-10-09T00:00:00	7:00:00	8:00:00	31	80	474	2700	0.18
6990	TF2-TR-S22-01 ถ.เทอดไท.เพชรเกษม	13.727296	100.487263	bma	holiday	2022-10-09T00:00:00	8:00:00	9:00:00	29	49	960	2700	0.36
6991	TF2-TR-S22-01 ถ.เทอดไท.เพชรเกษม	13.727296	100.487263	bma	working	2022-10-09T00:00:00	9:00:00	10:00:00	23	43	847	2700	0.31
6992	TF2-TR-S22-01 ถ.เทอดไท.เพชรเกษม	13.727296	100.487263	bma	working	2022-10-09T00:00:00	10:00:00	11:00:00	24	43	747	2700	0.28
6993	TF2-TR-S22-01 ถ.เทอดไท.เพชรเกษม	13.727296	100.487263	bma	holiday	2022-10-09T00:00:00	11:00:00	12:00:00	23	123	903	2700	0.33
6994	TF2-TR-S22-01 ถ.เทอดไท.เพชรเกษม	13.727296	100.487263	bma	working	2022-10-09T00:00:00	12:00:00	13:00:00	22	44	699	2700	0.26
6995	TF2-TR-S22-01 ถ.เทอดไท.เพชรเกษม	13.727296	100.487263	bma	working	2022-10-09T00:00:00	13:00:00	14:00:00	21	45	794	2700	0.29
6996	TF2-TR-S22-01 ถ.เทอดไท.เพชรเกษม	13.727296	100.487263	bma	working	2022-10-09T00:00:00	14:00:00	15:00:00	23	44	722	2700	0.27
6997	TF2-TR-S22-01 ถ.เทอดไท.เพชรเกษม	13.727296	100.487263	bma	working	2022-10-09T00:00:00	15:00:00	16:00:00	23	44	681	2700	0.25
6998	TF2-TR-S22-01 ถ.เทอดไท.เพชรเกษม	13.727296	100.487263	bma	holiday	2022-10-09T00:00:00	16:00:00	17:00:00	16	130	910	2700	0.34
6999	TF2-TR-S22-01 ถ.เทอดไท.เพชรเกษม	13.727296	100.487263	bma	holiday	2022-10-09T00:00:00	17:00:00	18:00:00	24	90	1758	2700	0.65
7000	TF2-TR-S22-01 ถ.เทอดไท.เพชรเกษม	13.727296	100.487263	bma	holiday	2022-10-09T00:00:00	18:00:00	19:00:00	37	86	1008	2700	0.37
7001	TF2-TR-S22-01 ถ.เทอดไท.เพชรเกษม	13.727296	100.487263	bma	working	2022-11-09T00:00:00	5:00:00	6:00:00	24	12	51	2700	0.02
7002	TF2-TR-S22-01 ถ.เทอดไท.เพชรเกษม	13.727296	100.487263	bma	holiday	2022-11-09T00:00:00	6:00:00	7:00:00	17	35	149	2700	0.06
7003	TF2-TR-S22-01 ถ.เทอดไท.เพชรเกษม	13.727296	100.487263	bma	holiday	2022-11-09T00:00:00	7:00:00	8:00:00	19	46	270	2700	0.10
7004	TF2-TR-S22-01 ถ.เทอดไท.เพชรเกษม	13.727296	100.487263	bma	holiday	2022-11-09T00:00:00	8:00:00	9:00:00	19	26	544	2700	0.20
7005	TF2-TR-S22-01 ถ.เทอดไท.เพชรเกษม	13.727296	100.487263	bma	working	2022-11-09T00:00:00	9:00:00	10:00:00	17	29	531	2700	0.20
7006	TF2-TR-S22-01 ถ.เทอดไท.เพชรเกษม	13.727296	100.487263	bma	working	2022-11-09T00:00:00	10:00:00	11:00:00	15	29	472	2700	0.17
7007	TF2-TR-S22-01 ถ.เทอดไท.เพชรเกษม	13.727296	100.487263	bma	holiday	2022-11-09T00:00:00	11:00:00	12:00:00	12	73	567	2700	0.21
7008	TF2-TR-S22-01 ถ.เทอดไท.เพชรเกษม	13.727296	100.487263	bma	working	2022-11-09T00:00:00	12:00:00	13:00:00	16	25	458	2700	0.17
7009	TF2-TR-S22-01 ถ.เทอดไท.เพชรเกษม	13.727296	100.487263	bma	working	2022-11-09T00:00:00	13:00:00	14:00:00	12	26	474	2700	0.18
7010	TF2-TR-S22-01 ถ.เทอดไท.เพชรเกษม	13.727296	100.487263	bma	working	2022-11-09T00:00:00	14:00:00	15:00:00	15	28	470	2700	0.17
7011	TF2-TR-S22-01 ถ.เทอดไท.เพชรเกษม	13.727296	100.487263	bma	working	2022-11-09T00:00:00	15:00:00	16:00:00	16	25	430	2700	0.16
7012	TF2-TR-S22-01 ถ.เทอดไท.เพชรเกษม	13.727296	100.487263	bma	holiday	2022-11-09T00:00:00	16:00:00	17:00:00	12	78	536	2700	0.20
7013	TF2-TR-S22-01 ถ.เทอดไท.เพชรเกษม	13.727296	100.487263	bma	holiday	2022-11-09T00:00:00	17:00:00	18:00:00	13	54	1152	2700	0.43
7014	TF2-TR-S22-01 ถ.เทอดไท.เพชรเกษม	13.727296	100.487263	bma	holiday	2022-11-09T00:00:00	18:00:00	19:00:00	23	50	650	2700	0.24
7015	TF2-YW-S46-02 ปากซอยนราธิวาสราชนครินทร์ 30 - ถ.นราธิวาสราชนครินทร์	13.695564	100.546223	bma	working	2022-05-09T00:00:00	5:00:00	6:00:00	19	37	16	1800	0.01
7016	TF2-YW-S46-02 ปากซอยนราธิวาสราชนครินทร์ 30 - ถ.นราธิวาสราชนครินทร์	13.695564	100.546223	bma	working	2022-05-09T00:00:00	6:00:00	7:00:00	14	110	32	1800	0.02
7017	TF2-YW-S46-02 ปากซอยนราธิวาสราชนครินทร์ 30 - ถ.นราธิวาสราชนครินทร์	13.695564	100.546223	bma	working	2022-05-09T00:00:00	7:00:00	8:00:00	31	54	153	1800	0.09
7018	TF2-YW-S46-02 ปากซอยนราธิวาสราชนครินทร์ 30 - ถ.นราธิวาสราชนครินทร์	13.695564	100.546223	bma	working	2022-05-09T00:00:00	8:00:00	9:00:00	27	120	206	1800	0.11
7019	TF2-YW-S46-02 ปากซอยนราธิวาสราชนครินทร์ 30 - ถ.นราธิวาสราชนครินทร์	13.695564	100.546223	bma	working	2022-05-09T00:00:00	9:00:00	10:00:00	23	118	213	1800	0.12
7020	TF2-YW-S46-02 ปากซอยนราธิวาสราชนครินทร์ 30 - ถ.นราธิวาสราชนครินทร์	13.695564	100.546223	bma	working	2022-05-09T00:00:00	10:00:00	11:00:00	24	116	202	1800	0.11
7021	TF2-YW-S46-02 ปากซอยนราธิวาสราชนครินทร์ 30 - ถ.นราธิวาสราชนครินทร์	13.695564	100.546223	bma	working	2022-05-09T00:00:00	11:00:00	12:00:00	25	142	413	1800	0.23
7022	TF2-YW-S46-02 ปากซอยนราธิวาสราชนครินทร์ 30 - ถ.นราธิวาสราชนครินทร์	13.695564	100.546223	bma	working	2022-05-09T00:00:00	12:00:00	13:00:00	22	121	180	1800	0.10
7023	TF2-YW-S46-02 ปากซอยนราธิวาสราชนครินทร์ 30 - ถ.นราธิวาสราชนครินทร์	13.695564	100.546223	bma	working	2022-05-09T00:00:00	13:00:00	14:00:00	25	119	128	1800	0.07
7024	TF2-YW-S46-02 ปากซอยนราธิวาสราชนครินทร์ 30 - ถ.นราธิวาสราชนครินทร์	13.695564	100.546223	bma	working	2022-05-09T00:00:00	14:00:00	15:00:00	26	118	154	1800	0.09
7025	TF2-YW-S46-02 ปากซอยนราธิวาสราชนครินทร์ 30 - ถ.นราธิวาสราชนครินทร์	13.695564	100.546223	bma	working	2022-05-09T00:00:00	15:00:00	16:00:00	19	121	132	1800	0.07
7026	TF2-YW-S46-02 ปากซอยนราธิวาสราชนครินทร์ 30 - ถ.นราธิวาสราชนครินทร์	13.695564	100.546223	bma	working	2022-05-09T00:00:00	16:00:00	17:00:00	30	123	135	1800	0.08
7027	TF2-YW-S46-02 ปากซอยนราธิวาสราชนครินทร์ 30 - ถ.นราธิวาสราชนครินทร์	13.695564	100.546223	bma	working	2022-05-09T00:00:00	17:00:00	18:00:00	32	90	388	1800	0.22
7028	TF2-YW-S46-02 ปากซอยนราธิวาสราชนครินทร์ 30 - ถ.นราธิวาสราชนครินทร์	13.695564	100.546223	bma	working	2022-05-09T00:00:00	18:00:00	19:00:00	34	52	222	1800	0.12
7029	TF2-YW-S46-02 ปากซอยนราธิวาสราชนครินทร์ 30 - ถ.นราธิวาสราชนครินทร์	13.695564	100.546223	bma	working	2022-06-09T00:00:00	5:00:00	6:00:00	37	35	16	1800	0.01
7030	TF2-YW-S46-02 ปากซอยนราธิวาสราชนครินทร์ 30 - ถ.นราธิวาสราชนครินทร์	13.695564	100.546223	bma	working	2022-06-09T00:00:00	6:00:00	7:00:00	26	100	29	1800	0.02
7031	TF2-YW-S46-02 ปากซอยนราธิวาสราชนครินทร์ 30 - ถ.นราธิวาสราชนครินทร์	13.695564	100.546223	bma	working	2022-06-09T00:00:00	7:00:00	8:00:00	30	53	110	1800	0.06
7032	TF2-YW-S46-02 ปากซอยนราธิวาสราชนครินทร์ 30 - ถ.นราธิวาสราชนครินทร์	13.695564	100.546223	bma	working	2022-06-09T00:00:00	8:00:00	9:00:00	28	90	323	1800	0.18
7033	TF2-YW-S46-02 ปากซอยนราธิวาสราชนครินทร์ 30 - ถ.นราธิวาสราชนครินทร์	13.695564	100.546223	bma	working	2022-06-09T00:00:00	9:00:00	10:00:00	25	90	191	1800	0.11
7034	TF2-YW-S46-02 ปากซอยนราธิวาสราชนครินทร์ 30 - ถ.นราธิวาสราชนครินทร์	13.695564	100.546223	bma	working	2022-06-09T00:00:00	10:00:00	11:00:00	24	88	167	1800	0.09
7035	TF2-YW-S46-02 ปากซอยนราธิวาสราชนครินทร์ 30 - ถ.นราธิวาสราชนครินทร์	13.695564	100.546223	bma	working	2022-06-09T00:00:00	11:00:00	12:00:00	22	133	421	1800	0.23
7036	TF2-YW-S46-02 ปากซอยนราธิวาสราชนครินทร์ 30 - ถ.นราธิวาสราชนครินทร์	13.695564	100.546223	bma	working	2022-06-09T00:00:00	12:00:00	13:00:00	24	93	239	1800	0.13
7037	TF2-YW-S46-02 ปากซอยนราธิวาสราชนครินทร์ 30 - ถ.นราธิวาสราชนครินทร์	13.695564	100.546223	bma	working	2022-06-09T00:00:00	13:00:00	14:00:00	26	89	278	1800	0.15
7038	TF2-YW-S46-02 ปากซอยนราธิวาสราชนครินทร์ 30 - ถ.นราธิวาสราชนครินทร์	13.695564	100.546223	bma	working	2022-06-09T00:00:00	14:00:00	15:00:00	23	87	233	1800	0.13
7039	TF2-YW-S46-02 ปากซอยนราธิวาสราชนครินทร์ 30 - ถ.นราธิวาสราชนครินทร์	13.695564	100.546223	bma	working	2022-06-09T00:00:00	15:00:00	16:00:00	21	94	218	1800	0.12
7040	TF2-YW-S46-02 ปากซอยนราธิวาสราชนครินทร์ 30 - ถ.นราธิวาสราชนครินทร์	13.695564	100.546223	bma	working	2022-06-09T00:00:00	16:00:00	17:00:00	23	82	156	1800	0.09
7041	TF2-YW-S46-02 ปากซอยนราธิวาสราชนครินทร์ 30 - ถ.นราธิวาสราชนครินทร์	13.695564	100.546223	bma	working	2022-06-09T00:00:00	17:00:00	18:00:00	29	99	346	1800	0.19
7042	TF2-YW-S46-02 ปากซอยนราธิวาสราชนครินทร์ 30 - ถ.นราธิวาสราชนครินทร์	13.695564	100.546223	bma	working	2022-06-09T00:00:00	18:00:00	19:00:00	27	105	349	1800	0.19
7043	TF2-YW-S46-02 ปากซอยนราธิวาสราชนครินทร์ 30 - ถ.นราธิวาสราชนครินทร์	13.695564	100.546223	bma	working	2022-07-09T00:00:00	5:00:00	6:00:00	63	28	26	1800	0.01
7044	TF2-YW-S46-02 ปากซอยนราธิวาสราชนครินทร์ 30 - ถ.นราธิวาสราชนครินทร์	13.695564	100.546223	bma	working	2022-07-09T00:00:00	6:00:00	7:00:00	45	88	83	1800	0.05
7045	TF2-YW-S46-02 ปากซอยนราธิวาสราชนครินทร์ 30 - ถ.นราธิวาสราชนครินทร์	13.695564	100.546223	bma	working	2022-07-09T00:00:00	7:00:00	8:00:00	34	57	48	1800	0.03
7046	TF2-YW-S46-02 ปากซอยนราธิวาสราชนครินทร์ 30 - ถ.นราธิวาสราชนครินทร์	13.695564	100.546223	bma	working	2022-07-09T00:00:00	8:00:00	9:00:00	30	62	413	1800	0.23
7047	TF2-YW-S46-02 ปากซอยนราธิวาสราชนครินทร์ 30 - ถ.นราธิวาสราชนครินทร์	13.695564	100.546223	bma	working	2022-07-09T00:00:00	9:00:00	10:00:00	26	63	391	1800	0.22
7048	TF2-YW-S46-02 ปากซอยนราธิวาสราชนครินทร์ 30 - ถ.นราธิวาสราชนครินทร์	13.695564	100.546223	bma	working	2022-07-09T00:00:00	10:00:00	11:00:00	27	59	217	1800	0.12
7049	TF2-YW-S46-02 ปากซอยนราธิวาสราชนครินทร์ 30 - ถ.นราธิวาสราชนครินทร์	13.695564	100.546223	bma	working	2022-07-09T00:00:00	11:00:00	12:00:00	21	122	394	1800	0.22
7050	TF2-YW-S46-02 ปากซอยนราธิวาสราชนครินทร์ 30 - ถ.นราธิวาสราชนครินทร์	13.695564	100.546223	bma	working	2022-07-09T00:00:00	12:00:00	13:00:00	25	60	366	1800	0.20
7051	TF2-YW-S46-02 ปากซอยนราธิวาสราชนครินทร์ 30 - ถ.นราธิวาสราชนครินทร์	13.695564	100.546223	bma	working	2022-07-09T00:00:00	13:00:00	14:00:00	25	60	391	1800	0.22
7052	TF2-YW-S46-02 ปากซอยนราธิวาสราชนครินทร์ 30 - ถ.นราธิวาสราชนครินทร์	13.695564	100.546223	bma	working	2022-07-09T00:00:00	14:00:00	15:00:00	26	63	348	1800	0.19
7053	TF2-YW-S46-02 ปากซอยนราธิวาสราชนครินทร์ 30 - ถ.นราธิวาสราชนครินทร์	13.695564	100.546223	bma	working	2022-07-09T00:00:00	15:00:00	16:00:00	25	65	289	1800	0.16
7054	TF2-YW-S46-02 ปากซอยนราธิวาสราชนครินทร์ 30 - ถ.นราธิวาสราชนครินทร์	13.695564	100.546223	bma	working	2022-07-09T00:00:00	16:00:00	17:00:00	16	38	200	1800	0.11
7055	TF2-YW-S46-02 ปากซอยนราธิวาสราชนครินทร์ 30 - ถ.นราธิวาสราชนครินทร์	13.695564	100.546223	bma	working	2022-07-09T00:00:00	17:00:00	18:00:00	24	105	277	1800	0.15
7056	TF2-YW-S46-02 ปากซอยนราธิวาสราชนครินทร์ 30 - ถ.นราธิวาสราชนครินทร์	13.695564	100.546223	bma	working	2022-07-09T00:00:00	18:00:00	19:00:00	17	163	489	1800	0.27
7057	TF2-YW-S46-02 ปากซอยนราธิวาสราชนครินทร์ 30 - ถ.นราธิวาสราชนครินทร์	13.695564	100.546223	bma	working	2022-08-09T00:00:00	5:00:00	6:00:00	39	21	34	1800	0.02
7058	TF2-YW-S46-02 ปากซอยนราธิวาสราชนครินทร์ 30 - ถ.นราธิวาสราชนครินทร์	13.695564	100.546223	bma	working	2022-08-09T00:00:00	6:00:00	7:00:00	28	61	91	1800	0.05
7059	TF2-YW-S46-02 ปากซอยนราธิวาสราชนครินทร์ 30 - ถ.นราธิวาสราชนครินทร์	13.695564	100.546223	bma	working	2022-08-09T00:00:00	7:00:00	8:00:00	36	47	104	1800	0.06
7060	TF2-YW-S46-02 ปากซอยนราธิวาสราชนครินทร์ 30 - ถ.นราธิวาสราชนครินทร์	13.695564	100.546223	bma	working	2022-08-09T00:00:00	8:00:00	9:00:00	31	89	422	1800	0.23
7061	TF2-YW-S46-02 ปากซอยนราธิวาสราชนครินทร์ 30 - ถ.นราธิวาสราชนครินทร์	13.695564	100.546223	bma	working	2022-08-09T00:00:00	9:00:00	10:00:00	30	85	420	1800	0.23
7062	TF2-YW-S46-02 ปากซอยนราธิวาสราชนครินทร์ 30 - ถ.นราธิวาสราชนครินทร์	13.695564	100.546223	bma	working	2022-08-09T00:00:00	10:00:00	11:00:00	24	83	301	1800	0.17
7063	TF2-YW-S46-02 ปากซอยนราธิวาสราชนครินทร์ 30 - ถ.นราธิวาสราชนครินทร์	13.695564	100.546223	bma	working	2022-08-09T00:00:00	11:00:00	12:00:00	25	86	289	1800	0.16
7064	TF2-YW-S46-02 ปากซอยนราธิวาสราชนครินทร์ 30 - ถ.นราธิวาสราชนครินทร์	13.695564	100.546223	bma	working	2022-08-09T00:00:00	12:00:00	13:00:00	27	85	306	1800	0.17
7065	TF2-YW-S46-02 ปากซอยนราธิวาสราชนครินทร์ 30 - ถ.นราธิวาสราชนครินทร์	13.695564	100.546223	bma	working	2022-08-09T00:00:00	13:00:00	14:00:00	25	84	385	1800	0.21
7066	TF2-YW-S46-02 ปากซอยนราธิวาสราชนครินทร์ 30 - ถ.นราธิวาสราชนครินทร์	13.695564	100.546223	bma	working	2022-08-09T00:00:00	14:00:00	15:00:00	31	83	286	1800	0.16
7067	TF2-YW-S46-02 ปากซอยนราธิวาสราชนครินทร์ 30 - ถ.นราธิวาสราชนครินทร์	13.695564	100.546223	bma	working	2022-08-09T00:00:00	15:00:00	16:00:00	25	83	333	1800	0.19
7068	TF2-YW-S46-02 ปากซอยนราธิวาสราชนครินทร์ 30 - ถ.นราธิวาสราชนครินทร์	13.695564	100.546223	bma	working	2022-08-09T00:00:00	16:00:00	17:00:00	20	33	148	1800	0.08
7069	TF2-YW-S46-02 ปากซอยนราธิวาสราชนครินทร์ 30 - ถ.นราธิวาสราชนครินทร์	13.695564	100.546223	bma	working	2022-08-09T00:00:00	17:00:00	18:00:00	18	72	248	1800	0.14
7070	TF2-YW-S46-02 ปากซอยนราธิวาสราชนครินทร์ 30 - ถ.นราธิวาสราชนครินทร์	13.695564	100.546223	bma	working	2022-08-09T00:00:00	18:00:00	19:00:00	20	125	510	1800	0.28
7071	TF2-YW-S46-02 ปากซอยนราธิวาสราชนครินทร์ 30 - ถ.นราธิวาสราชนครินทร์	13.695564	100.546223	bma	working	2022-09-09T00:00:00	5:00:00	6:00:00	15	11	27	1800	0.02
7072	TF2-YW-S46-02 ปากซอยนราธิวาสราชนครินทร์ 30 - ถ.นราธิวาสราชนครินทร์	13.695564	100.546223	bma	working	2022-09-09T00:00:00	6:00:00	7:00:00	11	30	68	1800	0.04
7073	TF2-YW-S46-02 ปากซอยนราธิวาสราชนครินทร์ 30 - ถ.นราธิวาสราชนครินทร์	13.695564	100.546223	bma	working	2022-09-09T00:00:00	7:00:00	8:00:00	43	33	192	1800	0.11
7074	TF2-YW-S46-02 ปากซอยนราธิวาสราชนครินทร์ 30 - ถ.นราธิวาสราชนครินทร์	13.695564	100.546223	bma	working	2022-09-09T00:00:00	8:00:00	9:00:00	30	108	437	1800	0.24
7075	TF2-YW-S46-02 ปากซอยนราธิวาสราชนครินทร์ 30 - ถ.นราธิวาสราชนครินทร์	13.695564	100.546223	bma	working	2022-09-09T00:00:00	9:00:00	10:00:00	29	105	450	1800	0.25
7076	TF2-YW-S46-02 ปากซอยนราธิวาสราชนครินทร์ 30 - ถ.นราธิวาสราชนครินทร์	13.695564	100.546223	bma	working	2022-09-09T00:00:00	10:00:00	11:00:00	28	105	426	1800	0.24
7077	TF2-YW-S46-02 ปากซอยนราธิวาสราชนครินทร์ 30 - ถ.นราธิวาสราชนครินทร์	13.695564	100.546223	bma	working	2022-09-09T00:00:00	11:00:00	12:00:00	29	47	236	1800	0.13
7078	TF2-YW-S46-02 ปากซอยนราธิวาสราชนครินทร์ 30 - ถ.นราธิวาสราชนครินทร์	13.695564	100.546223	bma	working	2022-09-09T00:00:00	12:00:00	13:00:00	29	107	239	1800	0.13
7079	TF2-YW-S46-02 ปากซอยนราธิวาสราชนครินทร์ 30 - ถ.นราธิวาสราชนครินทร์	13.695564	100.546223	bma	working	2022-09-09T00:00:00	13:00:00	14:00:00	28	107	391	1800	0.22
7080	TF2-YW-S46-02 ปากซอยนราธิวาสราชนครินทร์ 30 - ถ.นราธิวาสราชนครินทร์	13.695564	100.546223	bma	working	2022-09-09T00:00:00	14:00:00	15:00:00	30	108	271	1800	0.15
7081	TF2-YW-S46-02 ปากซอยนราธิวาสราชนครินทร์ 30 - ถ.นราธิวาสราชนครินทร์	13.695564	100.546223	bma	working	2022-09-09T00:00:00	15:00:00	16:00:00	29	105	353	1800	0.20
7082	TF2-YW-S46-02 ปากซอยนราธิวาสราชนครินทร์ 30 - ถ.นราธิวาสราชนครินทร์	13.695564	100.546223	bma	working	2022-09-09T00:00:00	16:00:00	17:00:00	20	26	87	1800	0.05
7083	TF2-YW-S46-02 ปากซอยนราธิวาสราชนครินทร์ 30 - ถ.นราธิวาสราชนครินทร์	13.695564	100.546223	bma	working	2022-09-09T00:00:00	17:00:00	18:00:00	14	37	164	1800	0.09
7084	TF2-YW-S46-02 ปากซอยนราธิวาสราชนครินทร์ 30 - ถ.นราธิวาสราชนครินทร์	13.695564	100.546223	bma	working	2022-09-09T00:00:00	18:00:00	19:00:00	24	86	505	1800	0.28
7085	TF2-YW-S46-02 ปากซอยนราธิวาสราชนครินทร์ 30 - ถ.นราธิวาสราชนครินทร์	13.695564	100.546223	bma	working	2022-10-09T00:00:00	5:00:00	6:00:00	16	18	86	1800	0.05
7086	TF2-YW-S46-02 ปากซอยนราธิวาสราชนครินทร์ 30 - ถ.นราธิวาสราชนครินทร์	13.695564	100.546223	bma	holiday	2022-10-09T00:00:00	6:00:00	7:00:00	12	52	229	1800	0.13
7087	TF2-YW-S46-02 ปากซอยนราธิวาสราชนครินทร์ 30 - ถ.นราธิวาสราชนครินทร์	13.695564	100.546223	bma	holiday	2022-10-09T00:00:00	7:00:00	8:00:00	18	27	59	1800	0.03
7088	TF2-YW-S46-02 ปากซอยนราธิวาสราชนครินทร์ 30 - ถ.นราธิวาสราชนครินทร์	13.695564	100.546223	bma	holiday	2022-10-09T00:00:00	8:00:00	9:00:00	31	68	110	1800	0.06
7089	TF2-YW-S46-02 ปากซอยนราธิวาสราชนครินทร์ 30 - ถ.นราธิวาสราชนครินทร์	13.695564	100.546223	bma	working	2022-10-09T00:00:00	9:00:00	10:00:00	25	67	176	1800	0.10
7090	TF2-YW-S46-02 ปากซอยนราธิวาสราชนครินทร์ 30 - ถ.นราธิวาสราชนครินทร์	13.695564	100.546223	bma	working	2022-10-09T00:00:00	10:00:00	11:00:00	26	64	127	1800	0.07
7091	TF2-YW-S46-02 ปากซอยนราธิวาสราชนครินทร์ 30 - ถ.นราธิวาสราชนครินทร์	13.695564	100.546223	bma	holiday	2022-10-09T00:00:00	11:00:00	12:00:00	37	79	156	1800	0.09
7092	TF2-YW-S46-02 ปากซอยนราธิวาสราชนครินทร์ 30 - ถ.นราธิวาสราชนครินทร์	13.695564	100.546223	bma	working	2022-10-09T00:00:00	12:00:00	13:00:00	29	65	222	1800	0.12
7093	TF2-YW-S46-02 ปากซอยนราธิวาสราชนครินทร์ 30 - ถ.นราธิวาสราชนครินทร์	13.695564	100.546223	bma	working	2022-10-09T00:00:00	13:00:00	14:00:00	28	67	136	1800	0.08
7094	TF2-YW-S46-02 ปากซอยนราธิวาสราชนครินทร์ 30 - ถ.นราธิวาสราชนครินทร์	13.695564	100.546223	bma	working	2022-10-09T00:00:00	14:00:00	15:00:00	26	63	145	1800	0.08
7095	TF2-YW-S46-02 ปากซอยนราธิวาสราชนครินทร์ 30 - ถ.นราธิวาสราชนครินทร์	13.695564	100.546223	bma	working	2022-10-09T00:00:00	15:00:00	16:00:00	28	67	230	1800	0.13
7096	TF2-YW-S46-02 ปากซอยนราธิวาสราชนครินทร์ 30 - ถ.นราธิวาสราชนครินทร์	13.695564	100.546223	bma	holiday	2022-10-09T00:00:00	16:00:00	17:00:00	20	55	126	1800	0.07
7097	TF2-YW-S46-02 ปากซอยนราธิวาสราชนครินทร์ 30 - ถ.นราธิวาสราชนครินทร์	13.695564	100.546223	bma	holiday	2022-10-09T00:00:00	17:00:00	18:00:00	13	72	73	1800	0.04
7098	TF2-YW-S46-02 ปากซอยนราธิวาสราชนครินทร์ 30 - ถ.นราธิวาสราชนครินทร์	13.695564	100.546223	bma	holiday	2022-10-09T00:00:00	18:00:00	19:00:00	19	121	360	1800	0.20
7099	TF2-YW-S46-02 ปากซอยนราธิวาสราชนครินทร์ 30 - ถ.นราธิวาสราชนครินทร์	13.695564	100.546223	bma	working	2022-11-09T00:00:00	5:00:00	6:00:00	8	10	49	1800	0.03
7100	TF2-YW-S46-02 ปากซอยนราธิวาสราชนครินทร์ 30 - ถ.นราธิวาสราชนครินทร์	13.695564	100.546223	bma	holiday	2022-11-09T00:00:00	6:00:00	7:00:00	6	31	142	1800	0.08
7101	TF2-YW-S46-02 ปากซอยนราธิวาสราชนครินทร์ 30 - ถ.นราธิวาสราชนครินทร์	13.695564	100.546223	bma	holiday	2022-11-09T00:00:00	7:00:00	8:00:00	10	17	38	1800	0.02
7102	TF2-YW-S46-02 ปากซอยนราธิวาสราชนครินทร์ 30 - ถ.นราธิวาสราชนครินทร์	13.695564	100.546223	bma	holiday	2022-11-09T00:00:00	8:00:00	9:00:00	16	39	63	1800	0.04
7103	TF2-YW-S46-02 ปากซอยนราธิวาสราชนครินทร์ 30 - ถ.นราธิวาสราชนครินทร์	13.695564	100.546223	bma	working	2022-11-09T00:00:00	9:00:00	10:00:00	17	38	85	1800	0.05
7104	TF2-YW-S46-02 ปากซอยนราธิวาสราชนครินทร์ 30 - ถ.นราธิวาสราชนครินทร์	13.695564	100.546223	bma	working	2022-11-09T00:00:00	10:00:00	11:00:00	14	42	93	1800	0.05
7105	TF2-YW-S46-02 ปากซอยนราธิวาสราชนครินทร์ 30 - ถ.นราธิวาสราชนครินทร์	13.695564	100.546223	bma	holiday	2022-11-09T00:00:00	11:00:00	12:00:00	23	49	76	1800	0.04
7106	TF2-YW-S46-02 ปากซอยนราธิวาสราชนครินทร์ 30 - ถ.นราธิวาสราชนครินทร์	13.695564	100.546223	bma	working	2022-11-09T00:00:00	12:00:00	13:00:00	19	41	114	1800	0.06
7107	TF2-YW-S46-02 ปากซอยนราธิวาสราชนครินทร์ 30 - ถ.นราธิวาสราชนครินทร์	13.695564	100.546223	bma	working	2022-11-09T00:00:00	13:00:00	14:00:00	14	39	80	1800	0.04
7108	TF2-YW-S46-02 ปากซอยนราธิวาสราชนครินทร์ 30 - ถ.นราธิวาสราชนครินทร์	13.695564	100.546223	bma	working	2022-11-09T00:00:00	14:00:00	15:00:00	15	38	68	1800	0.04
7109	TF2-YW-S46-02 ปากซอยนราธิวาสราชนครินทร์ 30 - ถ.นราธิวาสราชนครินทร์	13.695564	100.546223	bma	working	2022-11-09T00:00:00	15:00:00	16:00:00	18	41	168	1800	0.09
7110	TF2-YW-S46-02 ปากซอยนราธิวาสราชนครินทร์ 30 - ถ.นราธิวาสราชนครินทร์	13.695564	100.546223	bma	holiday	2022-11-09T00:00:00	16:00:00	17:00:00	11	33	77	1800	0.04
7111	TF2-YW-S46-02 ปากซอยนราธิวาสราชนครินทร์ 30 - ถ.นราธิวาสราชนครินทร์	13.695564	100.546223	bma	holiday	2022-11-09T00:00:00	17:00:00	18:00:00	9	46	63	1800	0.04
7112	TF2-YW-S46-02 ปากซอยนราธิวาสราชนครินทร์ 30 - ถ.นราธิวาสราชนครินทร์	13.695564	100.546223	bma	holiday	2022-11-09T00:00:00	18:00:00	19:00:00	10	73	249	1800	0.14
7113	TF2-YW-S47-02 ถ.นนทรี-ซ.นนทรี 16	13.695175	100.541115	bma	working	2022-05-09T00:00:00	5:00:00	6:00:00	19	15	345	2700	0.13
7114	TF2-YW-S47-02 ถ.นนทรี-ซ.นนทรี 16	13.695175	100.541115	bma	working	2022-05-09T00:00:00	6:00:00	7:00:00	14	45	1075	2700	0.40
7115	TF2-YW-S47-02 ถ.นนทรี-ซ.นนทรี 16	13.695175	100.541115	bma	working	2022-05-09T00:00:00	7:00:00	8:00:00	12	131	1626	2700	0.60
7116	TF2-YW-S47-02 ถ.นนทรี-ซ.นนทรี 16	13.695175	100.541115	bma	working	2022-05-09T00:00:00	8:00:00	9:00:00	11	202	1663	2700	0.62
7117	TF2-YW-S47-02 ถ.นนทรี-ซ.นนทรี 16	13.695175	100.541115	bma	working	2022-05-09T00:00:00	9:00:00	10:00:00	13	202	1594	2700	0.59
7118	TF2-YW-S47-02 ถ.นนทรี-ซ.นนทรี 16	13.695175	100.541115	bma	working	2022-05-09T00:00:00	10:00:00	11:00:00	8	202	1658	2700	0.61
7119	TF2-YW-S47-02 ถ.นนทรี-ซ.นนทรี 16	13.695175	100.541115	bma	working	2022-05-09T00:00:00	11:00:00	12:00:00	14	104	718	2700	0.27
7120	TF2-YW-S47-02 ถ.นนทรี-ซ.นนทรี 16	13.695175	100.541115	bma	working	2022-05-09T00:00:00	12:00:00	13:00:00	8	201	1533	2700	0.57
7121	TF2-YW-S47-02 ถ.นนทรี-ซ.นนทรี 16	13.695175	100.541115	bma	working	2022-05-09T00:00:00	13:00:00	14:00:00	9	202	1565	2700	0.58
7122	TF2-YW-S47-02 ถ.นนทรี-ซ.นนทรี 16	13.695175	100.541115	bma	working	2022-05-09T00:00:00	14:00:00	15:00:00	9	202	1533	2700	0.57
7123	TF2-YW-S47-02 ถ.นนทรี-ซ.นนทรี 16	13.695175	100.541115	bma	working	2022-05-09T00:00:00	15:00:00	16:00:00	11	202	1609	2700	0.60
7124	TF2-YW-S47-02 ถ.นนทรี-ซ.นนทรี 16	13.695175	100.541115	bma	working	2022-05-09T00:00:00	16:00:00	17:00:00	13	202	1046	2700	0.39
7125	TF2-YW-S47-02 ถ.นนทรี-ซ.นนทรี 16	13.695175	100.541115	bma	working	2022-05-09T00:00:00	17:00:00	18:00:00	14	137	1140	2700	0.42
7126	TF2-YW-S47-02 ถ.นนทรี-ซ.นนทรี 16	13.695175	100.541115	bma	working	2022-05-09T00:00:00	18:00:00	19:00:00	15	77	685	2700	0.25
7127	TF2-YW-S47-02 ถ.นนทรี-ซ.นนทรี 16	13.695175	100.541115	bma	working	2022-06-09T00:00:00	5:00:00	6:00:00	16	16	293	2700	0.11
7128	TF2-YW-S47-02 ถ.นนทรี-ซ.นนทรี 16	13.695175	100.541115	bma	working	2022-06-09T00:00:00	6:00:00	7:00:00	12	46	855	2700	0.32
7129	TF2-YW-S47-02 ถ.นนทรี-ซ.นนทรี 16	13.695175	100.541115	bma	working	2022-06-09T00:00:00	7:00:00	8:00:00	11	136	1628	2700	0.60
7130	TF2-YW-S47-02 ถ.นนทรี-ซ.นนทรี 16	13.695175	100.541115	bma	working	2022-06-09T00:00:00	8:00:00	9:00:00	14	178	1840	2700	0.68
7131	TF2-YW-S47-02 ถ.นนทรี-ซ.นนทรี 16	13.695175	100.541115	bma	working	2022-06-09T00:00:00	9:00:00	10:00:00	13	180	1765	2700	0.65
7132	TF2-YW-S47-02 ถ.นนทรี-ซ.นนทรี 16	13.695175	100.541115	bma	working	2022-06-09T00:00:00	10:00:00	11:00:00	11	177	1733	2700	0.64
7133	TF2-YW-S47-02 ถ.นนทรี-ซ.นนทรี 16	13.695175	100.541115	bma	working	2022-06-09T00:00:00	11:00:00	12:00:00	14	115	939	2700	0.35
7134	TF2-YW-S47-02 ถ.นนทรี-ซ.นนทรี 16	13.695175	100.541115	bma	working	2022-06-09T00:00:00	12:00:00	13:00:00	10	175	1680	2700	0.62
7135	TF2-YW-S47-02 ถ.นนทรี-ซ.นนทรี 16	13.695175	100.541115	bma	working	2022-06-09T00:00:00	13:00:00	14:00:00	11	180	1722	2700	0.64
7136	TF2-YW-S47-02 ถ.นนทรี-ซ.นนทรี 16	13.695175	100.541115	bma	working	2022-06-09T00:00:00	14:00:00	15:00:00	9	177	1681	2700	0.62
7137	TF2-YW-S47-02 ถ.นนทรี-ซ.นนทรี 16	13.695175	100.541115	bma	working	2022-06-09T00:00:00	15:00:00	16:00:00	13	174	1687	2700	0.62
7138	TF2-YW-S47-02 ถ.นนทรี-ซ.นนทรี 16	13.695175	100.541115	bma	working	2022-06-09T00:00:00	16:00:00	17:00:00	13	152	1077	2700	0.40
7139	TF2-YW-S47-02 ถ.นนทรี-ซ.นนทรี 16	13.695175	100.541115	bma	working	2022-06-09T00:00:00	17:00:00	18:00:00	20	141	1019	2700	0.38
7140	TF2-YW-S47-02 ถ.นนทรี-ซ.นนทรี 16	13.695175	100.541115	bma	working	2022-06-09T00:00:00	18:00:00	19:00:00	18	83	704	2700	0.26
7141	TF2-YW-S47-02 ถ.นนทรี-ซ.นนทรี 16	13.695175	100.541115	bma	working	2022-07-09T00:00:00	5:00:00	6:00:00	22	15	257	2700	0.10
7142	TF2-YW-S47-02 ถ.นนทรี-ซ.นนทรี 16	13.695175	100.541115	bma	working	2022-07-09T00:00:00	6:00:00	7:00:00	16	49	708	2700	0.26
7143	TF2-YW-S47-02 ถ.นนทรี-ซ.นนทรี 16	13.695175	100.541115	bma	working	2022-07-09T00:00:00	7:00:00	8:00:00	11	136	1591	2700	0.59
7144	TF2-YW-S47-02 ถ.นนทรี-ซ.นนทรี 16	13.695175	100.541115	bma	working	2022-07-09T00:00:00	8:00:00	9:00:00	16	139	1937	2700	0.72
7145	TF2-YW-S47-02 ถ.นนทรี-ซ.นนทรี 16	13.695175	100.541115	bma	working	2022-07-09T00:00:00	9:00:00	10:00:00	14	135	1926	2700	0.71
7146	TF2-YW-S47-02 ถ.นนทรี-ซ.นนทรี 16	13.695175	100.541115	bma	working	2022-07-09T00:00:00	10:00:00	11:00:00	13	138	1825	2700	0.68
7147	TF2-YW-S47-02 ถ.นนทรี-ซ.นนทรี 16	13.695175	100.541115	bma	working	2022-07-09T00:00:00	11:00:00	12:00:00	20	125	1190	2700	0.44
7148	TF2-YW-S47-02 ถ.นนทรี-ซ.นนทรี 16	13.695175	100.541115	bma	working	2022-07-09T00:00:00	12:00:00	13:00:00	12	140	1807	2700	0.67
7149	TF2-YW-S47-02 ถ.นนทรี-ซ.นนทรี 16	13.695175	100.541115	bma	working	2022-07-09T00:00:00	13:00:00	14:00:00	10	136	1876	2700	0.69
7150	TF2-YW-S47-02 ถ.นนทรี-ซ.นนทรี 16	13.695175	100.541115	bma	working	2022-07-09T00:00:00	14:00:00	15:00:00	12	134	1857	2700	0.69
7151	TF2-YW-S47-02 ถ.นนทรี-ซ.นนทรี 16	13.695175	100.541115	bma	working	2022-07-09T00:00:00	15:00:00	16:00:00	13	137	1800	2700	0.67
7152	TF2-YW-S47-02 ถ.นนทรี-ซ.นนทรี 16	13.695175	100.541115	bma	working	2022-07-09T00:00:00	16:00:00	17:00:00	19	84	1084	2700	0.40
7153	TF2-YW-S47-02 ถ.นนทรี-ซ.นนทรี 16	13.695175	100.541115	bma	working	2022-07-09T00:00:00	17:00:00	18:00:00	27	147	946	2700	0.35
7154	TF2-YW-S47-02 ถ.นนทรี-ซ.นนทรี 16	13.695175	100.541115	bma	working	2022-07-09T00:00:00	18:00:00	19:00:00	15	91	667	2700	0.25
7155	TF2-YW-S47-02 ถ.นนทรี-ซ.นนทรี 16	13.695175	100.541115	bma	working	2022-08-09T00:00:00	5:00:00	6:00:00	16	21	256	2700	0.09
7156	TF2-YW-S47-02 ถ.นนทรี-ซ.นนทรี 16	13.695175	100.541115	bma	working	2022-08-09T00:00:00	6:00:00	7:00:00	12	62	765	2700	0.28
7157	TF2-YW-S47-02 ถ.นนทรี-ซ.นนทรี 16	13.695175	100.541115	bma	working	2022-08-09T00:00:00	7:00:00	8:00:00	18	82	1310	2700	0.49
7158	TF2-YW-S47-02 ถ.นนทรี-ซ.นนทรี 16	13.695175	100.541115	bma	working	2022-08-09T00:00:00	8:00:00	9:00:00	12	158	1972	2700	0.73
7159	TF2-YW-S47-02 ถ.นนทรี-ซ.นนทรี 16	13.695175	100.541115	bma	working	2022-08-09T00:00:00	9:00:00	10:00:00	11	154	2024	2700	0.75
7160	TF2-YW-S47-02 ถ.นนทรี-ซ.นนทรี 16	13.695175	100.541115	bma	working	2022-08-09T00:00:00	10:00:00	11:00:00	8	153	1935	2700	0.72
7161	TF2-YW-S47-02 ถ.นนทรี-ซ.นนทรี 16	13.695175	100.541115	bma	working	2022-08-09T00:00:00	11:00:00	12:00:00	17	151	1096	2700	0.41
7162	TF2-YW-S47-02 ถ.นนทรี-ซ.นนทรี 16	13.695175	100.541115	bma	working	2022-08-09T00:00:00	12:00:00	13:00:00	12	155	1886	2700	0.70
7163	TF2-YW-S47-02 ถ.นนทรี-ซ.นนทรี 16	13.695175	100.541115	bma	working	2022-08-09T00:00:00	13:00:00	14:00:00	8	154	1929	2700	0.71
7164	TF2-YW-S47-02 ถ.นนทรี-ซ.นนทรี 16	13.695175	100.541115	bma	working	2022-08-09T00:00:00	14:00:00	15:00:00	14	152	1961	2700	0.73
7165	TF2-YW-S47-02 ถ.นนทรี-ซ.นนทรี 16	13.695175	100.541115	bma	working	2022-08-09T00:00:00	15:00:00	16:00:00	11	152	1895	2700	0.70
7166	TF2-YW-S47-02 ถ.นนทรี-ซ.นนทรี 16	13.695175	100.541115	bma	working	2022-08-09T00:00:00	16:00:00	17:00:00	32	98	793	2700	0.29
7167	TF2-YW-S47-02 ถ.นนทรี-ซ.นนทรี 16	13.695175	100.541115	bma	working	2022-08-09T00:00:00	17:00:00	18:00:00	24	126	643	2700	0.24
7168	TF2-YW-S47-02 ถ.นนทรี-ซ.นนทรี 16	13.695175	100.541115	bma	working	2022-08-09T00:00:00	18:00:00	19:00:00	15	95	892	2700	0.33
7169	TF2-YW-S47-02 ถ.นนทรี-ซ.นนทรี 16	13.695175	100.541115	bma	working	2022-09-09T00:00:00	5:00:00	6:00:00	22	23	298	2700	0.11
7170	TF2-YW-S47-02 ถ.นนทรี-ซ.นนทรี 16	13.695175	100.541115	bma	working	2022-09-09T00:00:00	6:00:00	7:00:00	16	75	829	2700	0.31
7171	TF2-YW-S47-02 ถ.นนทรี-ซ.นนทรี 16	13.695175	100.541115	bma	working	2022-09-09T00:00:00	7:00:00	8:00:00	15	84	1353	2700	0.50
7172	TF2-YW-S47-02 ถ.นนทรี-ซ.นนทรี 16	13.695175	100.541115	bma	working	2022-09-09T00:00:00	8:00:00	9:00:00	12	175	2091	2700	0.77
7173	TF2-YW-S47-02 ถ.นนทรี-ซ.นนทรี 16	13.695175	100.541115	bma	working	2022-09-09T00:00:00	9:00:00	10:00:00	8	166	2073	2700	0.77
7174	TF2-YW-S47-02 ถ.นนทรี-ซ.นนทรี 16	13.695175	100.541115	bma	working	2022-09-09T00:00:00	10:00:00	11:00:00	10	169	1990	2700	0.74
7175	TF2-YW-S47-02 ถ.นนทรี-ซ.นนทรี 16	13.695175	100.541115	bma	working	2022-09-09T00:00:00	11:00:00	12:00:00	16	177	1059	2700	0.39
7176	TF2-YW-S47-02 ถ.นนทรี-ซ.นนทรี 16	13.695175	100.541115	bma	working	2022-09-09T00:00:00	12:00:00	13:00:00	10	168	1939	2700	0.72
7177	TF2-YW-S47-02 ถ.นนทรี-ซ.นนทรี 16	13.695175	100.541115	bma	working	2022-09-09T00:00:00	13:00:00	14:00:00	9	172	2045	2700	0.76
7178	TF2-YW-S47-02 ถ.นนทรี-ซ.นนทรี 16	13.695175	100.541115	bma	working	2022-09-09T00:00:00	14:00:00	15:00:00	13	170	2042	2700	0.76
7179	TF2-YW-S47-02 ถ.นนทรี-ซ.นนทรี 16	13.695175	100.541115	bma	working	2022-09-09T00:00:00	15:00:00	16:00:00	11	171	1974	2700	0.73
7180	TF2-YW-S47-02 ถ.นนทรี-ซ.นนทรี 16	13.695175	100.541115	bma	working	2022-09-09T00:00:00	16:00:00	17:00:00	46	115	486	2700	0.18
7181	TF2-YW-S47-02 ถ.นนทรี-ซ.นนทรี 16	13.695175	100.541115	bma	working	2022-09-09T00:00:00	17:00:00	18:00:00	23	109	291	2700	0.11
7182	TF2-YW-S47-02 ถ.นนทรี-ซ.นนทรี 16	13.695175	100.541115	bma	working	2022-09-09T00:00:00	18:00:00	19:00:00	16	93	1071	2700	0.40
7183	TF2-YW-S47-02 ถ.นนทรี-ซ.นนทรี 16	13.695175	100.541115	bma	working	2022-10-09T00:00:00	5:00:00	6:00:00	25	18	58	2700	0.02
7184	TF2-YW-S47-02 ถ.นนทรี-ซ.นนทรี 16	13.695175	100.541115	bma	holiday	2022-10-09T00:00:00	6:00:00	7:00:00	18	51	162	2700	0.06
7185	TF2-YW-S47-02 ถ.นนทรี-ซ.นนทรี 16	13.695175	100.541115	bma	holiday	2022-10-09T00:00:00	7:00:00	8:00:00	22	96	533	2700	0.20
7186	TF2-YW-S47-02 ถ.นนทรี-ซ.นนทรี 16	13.695175	100.541115	bma	holiday	2022-10-09T00:00:00	8:00:00	9:00:00	18	80	1058	2700	0.39
7187	TF2-YW-S47-02 ถ.นนทรี-ซ.นนทรี 16	13.695175	100.541115	bma	working	2022-10-09T00:00:00	9:00:00	10:00:00	15	80	1033	2700	0.38
7188	TF2-YW-S47-02 ถ.นนทรี-ซ.นนทรี 16	13.695175	100.541115	bma	working	2022-10-09T00:00:00	10:00:00	11:00:00	17	71	1055	2700	0.39
7189	TF2-YW-S47-02 ถ.นนทรี-ซ.นนทรี 16	13.695175	100.541115	bma	holiday	2022-10-09T00:00:00	11:00:00	12:00:00	17	152	773	2700	0.29
7190	TF2-YW-S47-02 ถ.นนทรี-ซ.นนทรี 16	13.695175	100.541115	bma	working	2022-10-09T00:00:00	12:00:00	13:00:00	16	77	982	2700	0.36
7191	TF2-YW-S47-02 ถ.นนทรี-ซ.นนทรี 16	13.695175	100.541115	bma	working	2022-10-09T00:00:00	13:00:00	14:00:00	14	80	909	2700	0.34
7192	TF2-YW-S47-02 ถ.นนทรี-ซ.นนทรี 16	13.695175	100.541115	bma	working	2022-10-09T00:00:00	14:00:00	15:00:00	19	76	942	2700	0.35
7193	TF2-YW-S47-02 ถ.นนทรี-ซ.นนทรี 16	13.695175	100.541115	bma	working	2022-10-09T00:00:00	15:00:00	16:00:00	13	78	1005	2700	0.37
7194	TF2-YW-S47-02 ถ.นนทรี-ซ.นนทรี 16	13.695175	100.541115	bma	holiday	2022-10-09T00:00:00	16:00:00	17:00:00	17	61	927	2700	0.34
7195	TF2-YW-S47-02 ถ.นนทรี-ซ.นนทรี 16	13.695175	100.541115	bma	holiday	2022-10-09T00:00:00	17:00:00	18:00:00	21	70	633	2700	0.23
7196	TF2-YW-S47-02 ถ.นนทรี-ซ.นนทรี 16	13.695175	100.541115	bma	holiday	2022-10-09T00:00:00	18:00:00	19:00:00	13	40	696	2700	0.26
7197	TF2-YW-S47-02 ถ.นนทรี-ซ.นนทรี 16	13.695175	100.541115	bma	working	2022-11-09T00:00:00	5:00:00	6:00:00	16	10	27	2700	0.01
7198	TF2-YW-S47-02 ถ.นนทรี-ซ.นนทรี 16	13.695175	100.541115	bma	holiday	2022-11-09T00:00:00	6:00:00	7:00:00	12	30	77	2700	0.03
7199	TF2-YW-S47-02 ถ.นนทรี-ซ.นนทรี 16	13.695175	100.541115	bma	holiday	2022-11-09T00:00:00	7:00:00	8:00:00	14	59	274	2700	0.10
7200	TF2-YW-S47-02 ถ.นนทรี-ซ.นนทรี 16	13.695175	100.541115	bma	holiday	2022-11-09T00:00:00	8:00:00	9:00:00	10	48	721	2700	0.27
7201	TF2-YW-S47-02 ถ.นนทรี-ซ.นนทรี 16	13.695175	100.541115	bma	working	2022-11-09T00:00:00	9:00:00	10:00:00	11	45	663	2700	0.25
7202	TF2-YW-S47-02 ถ.นนทรี-ซ.นนทรี 16	13.695175	100.541115	bma	working	2022-11-09T00:00:00	10:00:00	11:00:00	9	45	653	2700	0.24
7203	TF2-YW-S47-02 ถ.นนทรี-ซ.นนทรี 16	13.695175	100.541115	bma	holiday	2022-11-09T00:00:00	11:00:00	12:00:00	12	92	502	2700	0.19
7204	TF2-YW-S47-02 ถ.นนทรี-ซ.นนทรี 16	13.695175	100.541115	bma	working	2022-11-09T00:00:00	12:00:00	13:00:00	9	49	609	2700	0.23
7205	TF2-YW-S47-02 ถ.นนทรี-ซ.นนทรี 16	13.695175	100.541115	bma	working	2022-11-09T00:00:00	13:00:00	14:00:00	10	46	579	2700	0.21
7206	TF2-YW-S47-02 ถ.นนทรี-ซ.นนทรี 16	13.695175	100.541115	bma	working	2022-11-09T00:00:00	14:00:00	15:00:00	10	46	590	2700	0.22
7207	TF2-YW-S47-02 ถ.นนทรี-ซ.นนทรี 16	13.695175	100.541115	bma	working	2022-11-09T00:00:00	15:00:00	16:00:00	9	48	610	2700	0.23
7208	TF2-YW-S47-02 ถ.นนทรี-ซ.นนทรี 16	13.695175	100.541115	bma	holiday	2022-11-09T00:00:00	16:00:00	17:00:00	9	39	564	2700	0.21
7209	TF2-YW-S47-02 ถ.นนทรี-ซ.นนทรี 16	13.695175	100.541115	bma	holiday	2022-11-09T00:00:00	17:00:00	18:00:00	15	42	413	2700	0.15
7210	TF2-YW-S47-02 ถ.นนทรี-ซ.นนทรี 16	13.695175	100.541115	bma	holiday	2022-11-09T00:00:00	18:00:00	19:00:00	7	26	455	2700	0.17
7211	TF-HW-01-02-06 ซ.อรุณอมรินทร์ 30 - ถ.อรุณอมรินทร์	13.771042	100.488669	bma	working	2022-05-09T00:00:00	5:00:00	6:00:00	28	15	68	900	0.08
7212	TF-HW-01-02-06 ซ.อรุณอมรินทร์ 30 - ถ.อรุณอมรินทร์	13.771042	100.488669	bma	working	2022-05-09T00:00:00	6:00:00	7:00:00	20	45	179	900	0.20
7213	TF-HW-01-02-06 ซ.อรุณอมรินทร์ 30 - ถ.อรุณอมรินทร์	13.771042	100.488669	bma	working	2022-05-09T00:00:00	7:00:00	8:00:00	19	46	223	900	0.25
7214	TF-HW-01-02-06 ซ.อรุณอมรินทร์ 30 - ถ.อรุณอมรินทร์	13.771042	100.488669	bma	working	2022-05-09T00:00:00	8:00:00	9:00:00	29	18	97	900	0.11
7215	TF-HW-01-02-06 ซ.อรุณอมรินทร์ 30 - ถ.อรุณอมรินทร์	13.771042	100.488669	bma	working	2022-05-09T00:00:00	9:00:00	10:00:00	28	13	46	900	0.05
7216	TF-HW-01-02-06 ซ.อรุณอมรินทร์ 30 - ถ.อรุณอมรินทร์	13.771042	100.488669	bma	working	2022-05-09T00:00:00	10:00:00	11:00:00	24	15	61	900	0.07
7217	TF-HW-01-02-06 ซ.อรุณอมรินทร์ 30 - ถ.อรุณอมรินทร์	13.771042	100.488669	bma	working	2022-05-09T00:00:00	11:00:00	12:00:00	30	37	126	900	0.14
7218	TF-HW-01-02-06 ซ.อรุณอมรินทร์ 30 - ถ.อรุณอมรินทร์	13.771042	100.488669	bma	working	2022-05-09T00:00:00	12:00:00	13:00:00	26	12	95	900	0.11
7219	TF-HW-01-02-06 ซ.อรุณอมรินทร์ 30 - ถ.อรุณอมรินทร์	13.771042	100.488669	bma	working	2022-05-09T00:00:00	13:00:00	14:00:00	28	13	51	900	0.06
7220	TF-HW-01-02-06 ซ.อรุณอมรินทร์ 30 - ถ.อรุณอมรินทร์	13.771042	100.488669	bma	working	2022-05-09T00:00:00	14:00:00	15:00:00	26	11	71	900	0.08
7221	TF-HW-01-02-06 ซ.อรุณอมรินทร์ 30 - ถ.อรุณอมรินทร์	13.771042	100.488669	bma	working	2022-05-09T00:00:00	15:00:00	16:00:00	25	15	59	900	0.07
7222	TF-HW-01-02-06 ซ.อรุณอมรินทร์ 30 - ถ.อรุณอมรินทร์	13.771042	100.488669	bma	working	2022-05-09T00:00:00	16:00:00	17:00:00	23	67	95	900	0.11
7223	TF-HW-01-02-06 ซ.อรุณอมรินทร์ 30 - ถ.อรุณอมรินทร์	13.771042	100.488669	bma	working	2022-05-09T00:00:00	17:00:00	18:00:00	22	66	77	900	0.09
7224	TF-HW-01-02-06 ซ.อรุณอมรินทร์ 30 - ถ.อรุณอมรินทร์	13.771042	100.488669	bma	working	2022-05-09T00:00:00	18:00:00	19:00:00	41	64	437	900	0.49
7225	TF-HW-01-02-06 ซ.อรุณอมรินทร์ 30 - ถ.อรุณอมรินทร์	13.771042	100.488669	bma	working	2022-06-09T00:00:00	5:00:00	6:00:00	24	14	58	900	0.06
7226	TF-HW-01-02-06 ซ.อรุณอมรินทร์ 30 - ถ.อรุณอมรินทร์	13.771042	100.488669	bma	working	2022-06-09T00:00:00	6:00:00	7:00:00	17	43	154	900	0.17
7227	TF-HW-01-02-06 ซ.อรุณอมรินทร์ 30 - ถ.อรุณอมรินทร์	13.771042	100.488669	bma	working	2022-06-09T00:00:00	7:00:00	8:00:00	16	46	203	900	0.23
7228	TF-HW-01-02-06 ซ.อรุณอมรินทร์ 30 - ถ.อรุณอมรินทร์	13.771042	100.488669	bma	working	2022-06-09T00:00:00	8:00:00	9:00:00	27	18	64	900	0.07
7229	TF-HW-01-02-06 ซ.อรุณอมรินทร์ 30 - ถ.อรุณอมรินทร์	13.771042	100.488669	bma	working	2022-06-09T00:00:00	9:00:00	10:00:00	29	12	75	900	0.08
7230	TF-HW-01-02-06 ซ.อรุณอมรินทร์ 30 - ถ.อรุณอมรินทร์	13.771042	100.488669	bma	working	2022-06-09T00:00:00	10:00:00	11:00:00	25	16	39	900	0.04
7231	TF-HW-01-02-06 ซ.อรุณอมรินทร์ 30 - ถ.อรุณอมรินทร์	13.771042	100.488669	bma	working	2022-06-09T00:00:00	11:00:00	12:00:00	24	38	207	900	0.23
7232	TF-HW-01-02-06 ซ.อรุณอมรินทร์ 30 - ถ.อรุณอมรินทร์	13.771042	100.488669	bma	working	2022-06-09T00:00:00	12:00:00	13:00:00	24	15	24	900	0.03
7233	TF-HW-01-02-06 ซ.อรุณอมรินทร์ 30 - ถ.อรุณอมรินทร์	13.771042	100.488669	bma	working	2022-06-09T00:00:00	13:00:00	14:00:00	29	13	32	900	0.04
7234	TF-HW-01-02-06 ซ.อรุณอมรินทร์ 30 - ถ.อรุณอมรินทร์	13.771042	100.488669	bma	working	2022-06-09T00:00:00	14:00:00	15:00:00	29	11	21	900	0.02
7235	TF-HW-01-02-06 ซ.อรุณอมรินทร์ 30 - ถ.อรุณอมรินทร์	13.771042	100.488669	bma	working	2022-06-09T00:00:00	15:00:00	16:00:00	26	16	70	900	0.08
7236	TF-HW-01-02-06 ซ.อรุณอมรินทร์ 30 - ถ.อรุณอมรินทร์	13.771042	100.488669	bma	working	2022-06-09T00:00:00	16:00:00	17:00:00	13	46	170	900	0.19
7237	TF-HW-01-02-06 ซ.อรุณอมรินทร์ 30 - ถ.อรุณอมรินทร์	13.771042	100.488669	bma	working	2022-06-09T00:00:00	17:00:00	18:00:00	28	65	221	900	0.25
7238	TF-HW-01-02-06 ซ.อรุณอมรินทร์ 30 - ถ.อรุณอมรินทร์	13.771042	100.488669	bma	working	2022-06-09T00:00:00	18:00:00	19:00:00	30	61	453	900	0.50
7239	TF-HW-01-02-06 ซ.อรุณอมรินทร์ 30 - ถ.อรุณอมรินทร์	13.771042	100.488669	bma	working	2022-07-09T00:00:00	5:00:00	6:00:00	23	16	56	900	0.06
7240	TF-HW-01-02-06 ซ.อรุณอมรินทร์ 30 - ถ.อรุณอมรินทร์	13.771042	100.488669	bma	working	2022-07-09T00:00:00	6:00:00	7:00:00	17	45	155	900	0.17
7241	TF-HW-01-02-06 ซ.อรุณอมรินทร์ 30 - ถ.อรุณอมรินทร์	13.771042	100.488669	bma	working	2022-07-09T00:00:00	7:00:00	8:00:00	18	43	231	900	0.26
7242	TF-HW-01-02-06 ซ.อรุณอมรินทร์ 30 - ถ.อรุณอมรินทร์	13.771042	100.488669	bma	working	2022-07-09T00:00:00	8:00:00	9:00:00	30	17	64	900	0.07
7243	TF-HW-01-02-06 ซ.อรุณอมรินทร์ 30 - ถ.อรุณอมรินทร์	13.771042	100.488669	bma	working	2022-07-09T00:00:00	9:00:00	10:00:00	27	10	51	900	0.06
7244	TF-HW-01-02-06 ซ.อรุณอมรินทร์ 30 - ถ.อรุณอมรินทร์	13.771042	100.488669	bma	working	2022-07-09T00:00:00	10:00:00	11:00:00	25	16	131	900	0.15
7245	TF-HW-01-02-06 ซ.อรุณอมรินทร์ 30 - ถ.อรุณอมรินทร์	13.771042	100.488669	bma	working	2022-07-09T00:00:00	11:00:00	12:00:00	17	41	259	900	0.29
7246	TF-HW-01-02-06 ซ.อรุณอมรินทร์ 30 - ถ.อรุณอมรินทร์	13.771042	100.488669	bma	working	2022-07-09T00:00:00	12:00:00	13:00:00	22	10	26	900	0.03
7247	TF-HW-01-02-06 ซ.อรุณอมรินทร์ 30 - ถ.อรุณอมรินทร์	13.771042	100.488669	bma	working	2022-07-09T00:00:00	13:00:00	14:00:00	29	17	76	900	0.08
7248	TF-HW-01-02-06 ซ.อรุณอมรินทร์ 30 - ถ.อรุณอมรินทร์	13.771042	100.488669	bma	working	2022-07-09T00:00:00	14:00:00	15:00:00	29	12	79	900	0.09
7249	TF-HW-01-02-06 ซ.อรุณอมรินทร์ 30 - ถ.อรุณอมรินทร์	13.771042	100.488669	bma	working	2022-07-09T00:00:00	15:00:00	16:00:00	25	16	40	900	0.04
7250	TF-HW-01-02-06 ซ.อรุณอมรินทร์ 30 - ถ.อรุณอมรินทร์	13.771042	100.488669	bma	working	2022-07-09T00:00:00	16:00:00	17:00:00	0	23	319	900	0.35
7251	TF-HW-01-02-06 ซ.อรุณอมรินทร์ 30 - ถ.อรุณอมรินทร์	13.771042	100.488669	bma	working	2022-07-09T00:00:00	17:00:00	18:00:00	34	59	364	900	0.40
7252	TF-HW-01-02-06 ซ.อรุณอมรินทร์ 30 - ถ.อรุณอมรินทร์	13.771042	100.488669	bma	working	2022-07-09T00:00:00	18:00:00	19:00:00	22	63	543	900	0.60
7253	TF-HW-01-02-06 ซ.อรุณอมรินทร์ 30 - ถ.อรุณอมรินทร์	13.771042	100.488669	bma	working	2022-08-09T00:00:00	5:00:00	6:00:00	22	15	61	900	0.07
7254	TF-HW-01-02-06 ซ.อรุณอมรินทร์ 30 - ถ.อรุณอมรินทร์	13.771042	100.488669	bma	working	2022-08-09T00:00:00	6:00:00	7:00:00	16	46	158	900	0.18
7255	TF-HW-01-02-06 ซ.อรุณอมรินทร์ 30 - ถ.อรุณอมรินทร์	13.771042	100.488669	bma	working	2022-08-09T00:00:00	7:00:00	8:00:00	17	46	199	900	0.22
7256	TF-HW-01-02-06 ซ.อรุณอมรินทร์ 30 - ถ.อรุณอมรินทร์	13.771042	100.488669	bma	working	2022-08-09T00:00:00	8:00:00	9:00:00	33	34	177	900	0.20
7257	TF-HW-01-02-06 ซ.อรุณอมรินทร์ 30 - ถ.อรุณอมรินทร์	13.771042	100.488669	bma	working	2022-08-09T00:00:00	9:00:00	10:00:00	29	29	71	900	0.08
7258	TF-HW-01-02-06 ซ.อรุณอมรินทร์ 30 - ถ.อรุณอมรินทร์	13.771042	100.488669	bma	working	2022-08-09T00:00:00	10:00:00	11:00:00	29	27	50	900	0.06
7259	TF-HW-01-02-06 ซ.อรุณอมรินทร์ 30 - ถ.อรุณอมรินทร์	13.771042	100.488669	bma	working	2022-08-09T00:00:00	11:00:00	12:00:00	33	47	250	900	0.28
7260	TF-HW-01-02-06 ซ.อรุณอมรินทร์ 30 - ถ.อรุณอมรินทร์	13.771042	100.488669	bma	working	2022-08-09T00:00:00	12:00:00	13:00:00	27	28	95	900	0.11
7261	TF-HW-01-02-06 ซ.อรุณอมรินทร์ 30 - ถ.อรุณอมรินทร์	13.771042	100.488669	bma	working	2022-08-09T00:00:00	13:00:00	14:00:00	28	30	31	900	0.03
7262	TF-HW-01-02-06 ซ.อรุณอมรินทร์ 30 - ถ.อรุณอมรินทร์	13.771042	100.488669	bma	working	2022-08-09T00:00:00	14:00:00	15:00:00	29	28	128	900	0.14
7263	TF-HW-01-02-06 ซ.อรุณอมรินทร์ 30 - ถ.อรุณอมรินทร์	13.771042	100.488669	bma	working	2022-08-09T00:00:00	15:00:00	16:00:00	26	30	135	900	0.15
7264	TF-HW-01-02-06 ซ.อรุณอมรินทร์ 30 - ถ.อรุณอมรินทร์	13.771042	100.488669	bma	working	2022-08-09T00:00:00	16:00:00	17:00:00	18	51	262	900	0.29
7265	TF-HW-01-02-06 ซ.อรุณอมรินทร์ 30 - ถ.อรุณอมรินทร์	13.771042	100.488669	bma	working	2022-08-09T00:00:00	17:00:00	18:00:00	19	57	243	900	0.27
7266	TF-HW-01-02-06 ซ.อรุณอมรินทร์ 30 - ถ.อรุณอมรินทร์	13.771042	100.488669	bma	working	2022-08-09T00:00:00	18:00:00	19:00:00	19	60	504	900	0.56
7267	TF-HW-01-02-06 ซ.อรุณอมรินทร์ 30 - ถ.อรุณอมรินทร์	13.771042	100.488669	bma	working	2022-09-09T00:00:00	5:00:00	6:00:00	22	16	50	900	0.06
7268	TF-HW-01-02-06 ซ.อรุณอมรินทร์ 30 - ถ.อรุณอมรินทร์	13.771042	100.488669	bma	working	2022-09-09T00:00:00	6:00:00	7:00:00	16	46	145	900	0.16
7269	TF-HW-01-02-06 ซ.อรุณอมรินทร์ 30 - ถ.อรุณอมรินทร์	13.771042	100.488669	bma	working	2022-09-09T00:00:00	7:00:00	8:00:00	19	45	209	900	0.23
7270	TF-HW-01-02-06 ซ.อรุณอมรินทร์ 30 - ถ.อรุณอมรินทร์	13.771042	100.488669	bma	working	2022-09-09T00:00:00	8:00:00	9:00:00	34	48	296	900	0.33
7271	TF-HW-01-02-06 ซ.อรุณอมรินทร์ 30 - ถ.อรุณอมรินทร์	13.771042	100.488669	bma	working	2022-09-09T00:00:00	9:00:00	10:00:00	28	44	171	900	0.19
7272	TF-HW-01-02-06 ซ.อรุณอมรินทร์ 30 - ถ.อรุณอมรินทร์	13.771042	100.488669	bma	working	2022-09-09T00:00:00	10:00:00	11:00:00	28	41	260	900	0.29
7273	TF-HW-01-02-06 ซ.อรุณอมรินทร์ 30 - ถ.อรุณอมรินทร์	13.771042	100.488669	bma	working	2022-09-09T00:00:00	11:00:00	12:00:00	54	53	263	900	0.29
7274	TF-HW-01-02-06 ซ.อรุณอมรินทร์ 30 - ถ.อรุณอมรินทร์	13.771042	100.488669	bma	working	2022-09-09T00:00:00	12:00:00	13:00:00	31	44	171	900	0.19
7275	TF-HW-01-02-06 ซ.อรุณอมรินทร์ 30 - ถ.อรุณอมรินทร์	13.771042	100.488669	bma	working	2022-09-09T00:00:00	13:00:00	14:00:00	32	42	131	900	0.15
7276	TF-HW-01-02-06 ซ.อรุณอมรินทร์ 30 - ถ.อรุณอมรินทร์	13.771042	100.488669	bma	working	2022-09-09T00:00:00	14:00:00	15:00:00	29	43	158	900	0.18
7277	TF-HW-01-02-06 ซ.อรุณอมรินทร์ 30 - ถ.อรุณอมรินทร์	13.771042	100.488669	bma	working	2022-09-09T00:00:00	15:00:00	16:00:00	30	44	236	900	0.26
7278	TF-HW-01-02-06 ซ.อรุณอมรินทร์ 30 - ถ.อรุณอมรินทร์	13.771042	100.488669	bma	working	2022-09-09T00:00:00	16:00:00	17:00:00	37	73	225	900	0.25
7279	TF-HW-01-02-06 ซ.อรุณอมรินทร์ 30 - ถ.อรุณอมรินทร์	13.771042	100.488669	bma	working	2022-09-09T00:00:00	17:00:00	18:00:00	3	53	57	900	0.06
7280	TF-HW-01-02-06 ซ.อรุณอมรินทร์ 30 - ถ.อรุณอมรินทร์	13.771042	100.488669	bma	working	2022-09-09T00:00:00	18:00:00	19:00:00	22	64	533	900	0.59
7281	TF-HW-01-02-06 ซ.อรุณอมรินทร์ 30 - ถ.อรุณอมรินทร์	13.771042	100.488669	bma	working	2022-10-09T00:00:00	5:00:00	6:00:00	22	16	55	900	0.06
7282	TF-HW-01-02-06 ซ.อรุณอมรินทร์ 30 - ถ.อรุณอมรินทร์	13.771042	100.488669	bma	working	2022-10-09T00:00:00	6:00:00	7:00:00	16	46	153	900	0.17
7283	TF-HW-01-02-06 ซ.อรุณอมรินทร์ 30 - ถ.อรุณอมรินทร์	13.771042	100.488669	bma	holiday	2022-10-09T00:00:00	7:00:00	8:00:00	50	16	151	900	0.17
7284	TF-HW-01-02-06 ซ.อรุณอมรินทร์ 30 - ถ.อรุณอมรินทร์	13.771042	100.488669	bma	holiday	2022-10-09T00:00:00	8:00:00	9:00:00	40	18	92	900	0.10
7285	TF-HW-01-02-06 ซ.อรุณอมรินทร์ 30 - ถ.อรุณอมรินทร์	13.771042	100.488669	bma	working	2022-10-09T00:00:00	9:00:00	10:00:00	35	15	35	900	0.04
7286	TF-HW-01-02-06 ซ.อรุณอมรินทร์ 30 - ถ.อรุณอมรินทร์	13.771042	100.488669	bma	working	2022-10-09T00:00:00	10:00:00	11:00:00	33	17	63	900	0.07
7287	TF-HW-01-02-06 ซ.อรุณอมรินทร์ 30 - ถ.อรุณอมรินทร์	13.771042	100.488669	bma	holiday	2022-10-09T00:00:00	11:00:00	12:00:00	29	25	253	900	0.28
7288	TF-HW-01-02-06 ซ.อรุณอมรินทร์ 30 - ถ.อรุณอมรินทร์	13.771042	100.488669	bma	working	2022-10-09T00:00:00	12:00:00	13:00:00	36	15	47	900	0.05
7289	TF-HW-01-02-06 ซ.อรุณอมรินทร์ 30 - ถ.อรุณอมรินทร์	13.771042	100.488669	bma	working	2022-10-09T00:00:00	13:00:00	14:00:00	36	17	10	900	0.01
7290	TF-HW-01-02-06 ซ.อรุณอมรินทร์ 30 - ถ.อรุณอมรินทร์	13.771042	100.488669	bma	working	2022-10-09T00:00:00	14:00:00	15:00:00	38	15	40	900	0.04
7291	TF-HW-01-02-06 ซ.อรุณอมรินทร์ 30 - ถ.อรุณอมรินทร์	13.771042	100.488669	bma	working	2022-10-09T00:00:00	15:00:00	16:00:00	38	14	62	900	0.07
7292	TF-HW-01-02-06 ซ.อรุณอมรินทร์ 30 - ถ.อรุณอมรินทร์	13.771042	100.488669	bma	holiday	2022-10-09T00:00:00	16:00:00	17:00:00	24	23	288	900	0.32
7293	TF-HW-01-02-06 ซ.อรุณอมรินทร์ 30 - ถ.อรุณอมรินทร์	13.771042	100.488669	bma	holiday	2022-10-09T00:00:00	17:00:00	18:00:00	43	46	295	900	0.33
7294	TF-HW-01-02-06 ซ.อรุณอมรินทร์ 30 - ถ.อรุณอมรินทร์	13.771042	100.488669	bma	holiday	2022-10-09T00:00:00	18:00:00	19:00:00	14	16	177	900	0.20
7295	TF-HW-01-02-06 ซ.อรุณอมรินทร์ 30 - ถ.อรุณอมรินทร์	13.771042	100.488669	bma	working	2022-11-09T00:00:00	5:00:00	6:00:00	12	9	45	900	0.05
7296	TF-HW-01-02-06 ซ.อรุณอมรินทร์ 30 - ถ.อรุณอมรินทร์	13.771042	100.488669	bma	working	2022-11-09T00:00:00	6:00:00	7:00:00	9	28	120	900	0.13
7297	TF-HW-01-02-06 ซ.อรุณอมรินทร์ 30 - ถ.อรุณอมรินทร์	13.771042	100.488669	bma	holiday	2022-11-09T00:00:00	7:00:00	8:00:00	31	11	117	900	0.13
7298	TF-HW-01-02-06 ซ.อรุณอมรินทร์ 30 - ถ.อรุณอมรินทร์	13.771042	100.488669	bma	holiday	2022-11-09T00:00:00	8:00:00	9:00:00	26	13	69	900	0.08
7299	TF-HW-01-02-06 ซ.อรุณอมรินทร์ 30 - ถ.อรุณอมรินทร์	13.771042	100.488669	bma	working	2022-11-09T00:00:00	9:00:00	10:00:00	23	9	15	900	0.02
7300	TF-HW-01-02-06 ซ.อรุณอมรินทร์ 30 - ถ.อรุณอมรินทร์	13.771042	100.488669	bma	working	2022-11-09T00:00:00	10:00:00	11:00:00	19	9	28	900	0.03
7301	TF-HW-01-02-06 ซ.อรุณอมรินทร์ 30 - ถ.อรุณอมรินทร์	13.771042	100.488669	bma	holiday	2022-11-09T00:00:00	11:00:00	12:00:00	17	16	148	900	0.16
7302	TF-HW-01-02-06 ซ.อรุณอมรินทร์ 30 - ถ.อรุณอมรินทร์	13.771042	100.488669	bma	working	2022-11-09T00:00:00	12:00:00	13:00:00	22	10	17	900	0.02
7303	TF-HW-01-02-06 ซ.อรุณอมรินทร์ 30 - ถ.อรุณอมรินทร์	13.771042	100.488669	bma	working	2022-11-09T00:00:00	13:00:00	14:00:00	20	11	19	900	0.02
7304	TF-HW-01-02-06 ซ.อรุณอมรินทร์ 30 - ถ.อรุณอมรินทร์	13.771042	100.488669	bma	working	2022-11-09T00:00:00	14:00:00	15:00:00	25	11	19	900	0.02
7305	TF-HW-01-02-06 ซ.อรุณอมรินทร์ 30 - ถ.อรุณอมรินทร์	13.771042	100.488669	bma	working	2022-11-09T00:00:00	15:00:00	16:00:00	20	9	60	900	0.07
7306	TF-HW-01-02-06 ซ.อรุณอมรินทร์ 30 - ถ.อรุณอมรินทร์	13.771042	100.488669	bma	holiday	2022-11-09T00:00:00	16:00:00	17:00:00	13	17	184	900	0.20
7307	TF-HW-01-02-06 ซ.อรุณอมรินทร์ 30 - ถ.อรุณอมรินทร์	13.771042	100.488669	bma	holiday	2022-11-09T00:00:00	17:00:00	18:00:00	23	29	168	900	0.19
7308	TF-HW-01-02-06 ซ.อรุณอมรินทร์ 30 - ถ.อรุณอมรินทร์	13.771042	100.488669	bma	holiday	2022-11-09T00:00:00	18:00:00	19:00:00	10	10	120	900	0.13
7309	TF-HW-01-02-17 ถ.พระราม 8- ถ.สามเสน	13.770021	100.495487	bma	working	2022-05-09T00:00:00	5:00:00	6:00:00	26	45	365	900	0.41
7310	TF-HW-01-02-17 ถ.พระราม 8- ถ.สามเสน	13.770021	100.495487	bma	working	2022-05-09T00:00:00	6:00:00	7:00:00	19	130	1082	900	1.20
7311	TF-HW-01-02-17 ถ.พระราม 8- ถ.สามเสน	13.770021	100.495487	bma	working	2022-05-09T00:00:00	7:00:00	8:00:00	12	125	1041	900	1.16
7312	TF-HW-01-02-17 ถ.พระราม 8- ถ.สามเสน	13.770021	100.495487	bma	working	2022-05-09T00:00:00	8:00:00	9:00:00	22	112	1262	900	1.40
7313	TF-HW-01-02-17 ถ.พระราม 8- ถ.สามเสน	13.770021	100.495487	bma	working	2022-05-09T00:00:00	9:00:00	10:00:00	19	111	1216	900	1.35
7314	TF-HW-01-02-17 ถ.พระราม 8- ถ.สามเสน	13.770021	100.495487	bma	working	2022-05-09T00:00:00	10:00:00	11:00:00	18	113	1239	900	1.38
7315	TF-HW-01-02-17 ถ.พระราม 8- ถ.สามเสน	13.770021	100.495487	bma	working	2022-05-09T00:00:00	11:00:00	12:00:00	39	64	973	900	1.08
7316	TF-HW-01-02-17 ถ.พระราม 8- ถ.สามเสน	13.770021	100.495487	bma	working	2022-05-09T00:00:00	12:00:00	13:00:00	19	108	1227	900	1.36
7317	TF-HW-01-02-17 ถ.พระราม 8- ถ.สามเสน	13.770021	100.495487	bma	working	2022-05-09T00:00:00	13:00:00	14:00:00	19	109	1162	900	1.29
7318	TF-HW-01-02-17 ถ.พระราม 8- ถ.สามเสน	13.770021	100.495487	bma	working	2022-05-09T00:00:00	14:00:00	15:00:00	19	108	1204	900	1.34
7319	TF-HW-01-02-17 ถ.พระราม 8- ถ.สามเสน	13.770021	100.495487	bma	working	2022-05-09T00:00:00	15:00:00	16:00:00	21	115	1181	900	1.31
7320	TF-HW-01-02-17 ถ.พระราม 8- ถ.สามเสน	13.770021	100.495487	bma	working	2022-05-09T00:00:00	16:00:00	17:00:00	33	47	1313	900	1.46
7321	TF-HW-01-02-17 ถ.พระราม 8- ถ.สามเสน	13.770021	100.495487	bma	working	2022-05-09T00:00:00	17:00:00	18:00:00	40	53	1138	900	1.26
7322	TF-HW-01-02-17 ถ.พระราม 8- ถ.สามเสน	13.770021	100.495487	bma	working	2022-05-09T00:00:00	18:00:00	19:00:00	27	65	1748	900	1.94
7323	TF-HW-01-02-17 ถ.พระราม 8- ถ.สามเสน	13.770021	100.495487	bma	working	2022-06-09T00:00:00	5:00:00	6:00:00	20	41	330	900	0.37
7324	TF-HW-01-02-17 ถ.พระราม 8- ถ.สามเสน	13.770021	100.495487	bma	working	2022-06-09T00:00:00	6:00:00	7:00:00	15	131	1076	900	1.20
7325	TF-HW-01-02-17 ถ.พระราม 8- ถ.สามเสน	13.770021	100.495487	bma	working	2022-06-09T00:00:00	7:00:00	8:00:00	13	124	1008	900	1.12
7326	TF-HW-01-02-17 ถ.พระราม 8- ถ.สามเสน	13.770021	100.495487	bma	working	2022-06-09T00:00:00	8:00:00	9:00:00	24	114	1261	900	1.40
7327	TF-HW-01-02-17 ถ.พระราม 8- ถ.สามเสน	13.770021	100.495487	bma	working	2022-06-09T00:00:00	9:00:00	10:00:00	22	110	1228	900	1.36
7328	TF-HW-01-02-17 ถ.พระราม 8- ถ.สามเสน	13.770021	100.495487	bma	working	2022-06-09T00:00:00	10:00:00	11:00:00	22	113	1193	900	1.33
7329	TF-HW-01-02-17 ถ.พระราม 8- ถ.สามเสน	13.770021	100.495487	bma	working	2022-06-09T00:00:00	11:00:00	12:00:00	36	65	1038	900	1.15
7330	TF-HW-01-02-17 ถ.พระราม 8- ถ.สามเสน	13.770021	100.495487	bma	working	2022-06-09T00:00:00	12:00:00	13:00:00	20	109	1191	900	1.32
7331	TF-HW-01-02-17 ถ.พระราม 8- ถ.สามเสน	13.770021	100.495487	bma	working	2022-06-09T00:00:00	13:00:00	14:00:00	20	109	1207	900	1.34
7332	TF-HW-01-02-17 ถ.พระราม 8- ถ.สามเสน	13.770021	100.495487	bma	working	2022-06-09T00:00:00	14:00:00	15:00:00	20	111	1220	900	1.36
7333	TF-HW-01-02-17 ถ.พระราม 8- ถ.สามเสน	13.770021	100.495487	bma	working	2022-06-09T00:00:00	15:00:00	16:00:00	19	114	1185	900	1.32
7334	TF-HW-01-02-17 ถ.พระราม 8- ถ.สามเสน	13.770021	100.495487	bma	working	2022-06-09T00:00:00	16:00:00	17:00:00	31	42	1104	900	1.23
7335	TF-HW-01-02-17 ถ.พระราม 8- ถ.สามเสน	13.770021	100.495487	bma	working	2022-06-09T00:00:00	17:00:00	18:00:00	35	54	1136	900	1.26
7336	TF-HW-01-02-17 ถ.พระราม 8- ถ.สามเสน	13.770021	100.495487	bma	working	2022-06-09T00:00:00	18:00:00	19:00:00	37	76	1542	900	1.71
7337	TF-HW-01-02-17 ถ.พระราม 8- ถ.สามเสน	13.770021	100.495487	bma	working	2022-07-09T00:00:00	5:00:00	6:00:00	26	45	330	900	0.37
7338	TF-HW-01-02-17 ถ.พระราม 8- ถ.สามเสน	13.770021	100.495487	bma	working	2022-07-09T00:00:00	6:00:00	7:00:00	19	129	1081	900	1.20
7339	TF-HW-01-02-17 ถ.พระราม 8- ถ.สามเสน	13.770021	100.495487	bma	working	2022-07-09T00:00:00	7:00:00	8:00:00	15	125	1025	900	1.14
7340	TF-HW-01-02-17 ถ.พระราม 8- ถ.สามเสน	13.770021	100.495487	bma	working	2022-07-09T00:00:00	8:00:00	9:00:00	24	114	1288	900	1.43
7341	TF-HW-01-02-17 ถ.พระราม 8- ถ.สามเสน	13.770021	100.495487	bma	working	2022-07-09T00:00:00	9:00:00	10:00:00	24	112	1255	900	1.39
7342	TF-HW-01-02-17 ถ.พระราม 8- ถ.สามเสน	13.770021	100.495487	bma	working	2022-07-09T00:00:00	10:00:00	11:00:00	23	110	1139	900	1.27
7343	TF-HW-01-02-17 ถ.พระราม 8- ถ.สามเสน	13.770021	100.495487	bma	working	2022-07-09T00:00:00	11:00:00	12:00:00	32	71	1072	900	1.19
7344	TF-HW-01-02-17 ถ.พระราม 8- ถ.สามเสน	13.770021	100.495487	bma	working	2022-07-09T00:00:00	12:00:00	13:00:00	21	110	1161	900	1.29
7345	TF-HW-01-02-17 ถ.พระราม 8- ถ.สามเสน	13.770021	100.495487	bma	working	2022-07-09T00:00:00	13:00:00	14:00:00	20	108	1273	900	1.41
7346	TF-HW-01-02-17 ถ.พระราม 8- ถ.สามเสน	13.770021	100.495487	bma	working	2022-07-09T00:00:00	14:00:00	15:00:00	18	116	1275	900	1.42
7347	TF-HW-01-02-17 ถ.พระราม 8- ถ.สามเสน	13.770021	100.495487	bma	working	2022-07-09T00:00:00	15:00:00	16:00:00	20	111	1181	900	1.31
7348	TF-HW-01-02-17 ถ.พระราม 8- ถ.สามเสน	13.770021	100.495487	bma	working	2022-07-09T00:00:00	16:00:00	17:00:00	29	37	914	900	1.02
7349	TF-HW-01-02-17 ถ.พระราม 8- ถ.สามเสน	13.770021	100.495487	bma	working	2022-07-09T00:00:00	17:00:00	18:00:00	35	58	1084	900	1.20
7350	TF-HW-01-02-17 ถ.พระราม 8- ถ.สามเสน	13.770021	100.495487	bma	working	2022-07-09T00:00:00	18:00:00	19:00:00	45	89	1275	900	1.42
7351	TF-HW-01-02-17 ถ.พระราม 8- ถ.สามเสน	13.770021	100.495487	bma	working	2022-08-09T00:00:00	5:00:00	6:00:00	25	40	365	900	0.41
7352	TF-HW-01-02-17 ถ.พระราม 8- ถ.สามเสน	13.770021	100.495487	bma	working	2022-08-09T00:00:00	6:00:00	7:00:00	18	131	1068	900	1.19
7353	TF-HW-01-02-17 ถ.พระราม 8- ถ.สามเสน	13.770021	100.495487	bma	working	2022-08-09T00:00:00	7:00:00	8:00:00	15	128	1051	900	1.17
7354	TF-HW-01-02-17 ถ.พระราม 8- ถ.สามเสน	13.770021	100.495487	bma	working	2022-08-09T00:00:00	8:00:00	9:00:00	23	112	1273	900	1.41
7355	TF-HW-01-02-17 ถ.พระราม 8- ถ.สามเสน	13.770021	100.495487	bma	working	2022-08-09T00:00:00	9:00:00	10:00:00	21	110	1242	900	1.38
7356	TF-HW-01-02-17 ถ.พระราม 8- ถ.สามเสน	13.770021	100.495487	bma	working	2022-08-09T00:00:00	10:00:00	11:00:00	21	115	1195	900	1.33
7357	TF-HW-01-02-17 ถ.พระราม 8- ถ.สามเสน	13.770021	100.495487	bma	working	2022-08-09T00:00:00	11:00:00	12:00:00	33	65	1035	900	1.15
7358	TF-HW-01-02-17 ถ.พระราม 8- ถ.สามเสน	13.770021	100.495487	bma	working	2022-08-09T00:00:00	12:00:00	13:00:00	21	114	1189	900	1.32
7359	TF-HW-01-02-17 ถ.พระราม 8- ถ.สามเสน	13.770021	100.495487	bma	working	2022-08-09T00:00:00	13:00:00	14:00:00	21	109	1212	900	1.35
7360	TF-HW-01-02-17 ถ.พระราม 8- ถ.สามเสน	13.770021	100.495487	bma	working	2022-08-09T00:00:00	14:00:00	15:00:00	21	109	1247	900	1.39
7361	TF-HW-01-02-17 ถ.พระราม 8- ถ.สามเสน	13.770021	100.495487	bma	working	2022-08-09T00:00:00	15:00:00	16:00:00	23	112	1222	900	1.36
7362	TF-HW-01-02-17 ถ.พระราม 8- ถ.สามเสน	13.770021	100.495487	bma	working	2022-08-09T00:00:00	16:00:00	17:00:00	33	45	1104	900	1.23
7363	TF-HW-01-02-17 ถ.พระราม 8- ถ.สามเสน	13.770021	100.495487	bma	working	2022-08-09T00:00:00	17:00:00	18:00:00	37	53	1118	900	1.24
7364	TF-HW-01-02-17 ถ.พระราม 8- ถ.สามเสน	13.770021	100.495487	bma	working	2022-08-09T00:00:00	18:00:00	19:00:00	39	80	1517	900	1.69
7365	TF-HW-01-02-17 ถ.พระราม 8- ถ.สามเสน	13.770021	100.495487	bma	working	2022-09-09T00:00:00	5:00:00	6:00:00	21	40	368	900	0.41
7366	TF-HW-01-02-17 ถ.พระราม 8- ถ.สามเสน	13.770021	100.495487	bma	working	2022-09-09T00:00:00	6:00:00	7:00:00	15	129	1092	900	1.21
7367	TF-HW-01-02-17 ถ.พระราม 8- ถ.สามเสน	13.770021	100.495487	bma	working	2022-09-09T00:00:00	7:00:00	8:00:00	12	126	1036	900	1.15
7368	TF-HW-01-02-17 ถ.พระราม 8- ถ.สามเสน	13.770021	100.495487	bma	working	2022-09-09T00:00:00	8:00:00	9:00:00	25	113	1279	900	1.42
7369	TF-HW-01-02-17 ถ.พระราม 8- ถ.สามเสน	13.770021	100.495487	bma	working	2022-09-09T00:00:00	9:00:00	10:00:00	21	111	1198	900	1.33
7370	TF-HW-01-02-17 ถ.พระราม 8- ถ.สามเสน	13.770021	100.495487	bma	working	2022-09-09T00:00:00	10:00:00	11:00:00	19	111	1218	900	1.35
7371	TF-HW-01-02-17 ถ.พระราม 8- ถ.สามเสน	13.770021	100.495487	bma	working	2022-09-09T00:00:00	11:00:00	12:00:00	38	61	963	900	1.07
7372	TF-HW-01-02-17 ถ.พระราม 8- ถ.สามเสน	13.770021	100.495487	bma	working	2022-09-09T00:00:00	12:00:00	13:00:00	20	111	1202	900	1.34
7373	TF-HW-01-02-17 ถ.พระราม 8- ถ.สามเสน	13.770021	100.495487	bma	working	2022-09-09T00:00:00	13:00:00	14:00:00	22	112	1123	900	1.25
7374	TF-HW-01-02-17 ถ.พระราม 8- ถ.สามเสน	13.770021	100.495487	bma	working	2022-09-09T00:00:00	14:00:00	15:00:00	21	108	1248	900	1.39
7375	TF-HW-01-02-17 ถ.พระราม 8- ถ.สามเสน	13.770021	100.495487	bma	working	2022-09-09T00:00:00	15:00:00	16:00:00	23	107	1244	900	1.38
7376	TF-HW-01-02-17 ถ.พระราม 8- ถ.สามเสน	13.770021	100.495487	bma	working	2022-09-09T00:00:00	16:00:00	17:00:00	35	46	1319	900	1.47
7377	TF-HW-01-02-17 ถ.พระราม 8- ถ.สามเสน	13.770021	100.495487	bma	working	2022-09-09T00:00:00	17:00:00	18:00:00	39	54	1162	900	1.29
7378	TF-HW-01-02-17 ถ.พระราม 8- ถ.สามเสน	13.770021	100.495487	bma	working	2022-09-09T00:00:00	18:00:00	19:00:00	29	68	1753	900	1.95
7379	TF-HW-01-02-17 ถ.พระราม 8- ถ.สามเสน	13.770021	100.495487	bma	working	2022-10-09T00:00:00	5:00:00	6:00:00	60	12	121	900	0.13
7380	TF-HW-01-02-17 ถ.พระราม 8- ถ.สามเสน	13.770021	100.495487	bma	holiday	2022-10-09T00:00:00	6:00:00	7:00:00	42	38	382	900	0.42
7381	TF-HW-01-02-17 ถ.พระราม 8- ถ.สามเสน	13.770021	100.495487	bma	holiday	2022-10-09T00:00:00	7:00:00	8:00:00	30	32	434	900	0.48
7382	TF-HW-01-02-17 ถ.พระราม 8- ถ.สามเสน	13.770021	100.495487	bma	holiday	2022-10-09T00:00:00	8:00:00	9:00:00	31	63	1068	900	1.19
7383	TF-HW-01-02-17 ถ.พระราม 8- ถ.สามเสน	13.770021	100.495487	bma	working	2022-10-09T00:00:00	9:00:00	10:00:00	25	58	1024	900	1.14
7384	TF-HW-01-02-17 ถ.พระราม 8- ถ.สามเสน	13.770021	100.495487	bma	working	2022-10-09T00:00:00	10:00:00	11:00:00	30	60	946	900	1.05
7385	TF-HW-01-02-17 ถ.พระราม 8- ถ.สามเสน	13.770021	100.495487	bma	holiday	2022-10-09T00:00:00	11:00:00	12:00:00	27	68	1172	900	1.30
7386	TF-HW-01-02-17 ถ.พระราม 8- ถ.สามเสน	13.770021	100.495487	bma	working	2022-10-09T00:00:00	12:00:00	13:00:00	30	62	935	900	1.04
7387	TF-HW-01-02-17 ถ.พระราม 8- ถ.สามเสน	13.770021	100.495487	bma	working	2022-10-09T00:00:00	13:00:00	14:00:00	24	59	1008	900	1.12
7388	TF-HW-01-02-17 ถ.พระราม 8- ถ.สามเสน	13.770021	100.495487	bma	working	2022-10-09T00:00:00	14:00:00	15:00:00	25	59	958	900	1.06
7389	TF-HW-01-02-17 ถ.พระราม 8- ถ.สามเสน	13.770021	100.495487	bma	working	2022-10-09T00:00:00	15:00:00	16:00:00	26	61	1042	900	1.16
7390	TF-HW-01-02-17 ถ.พระราม 8- ถ.สามเสน	13.770021	100.495487	bma	holiday	2022-10-09T00:00:00	16:00:00	17:00:00	24	56	1130	900	1.26
7391	TF-HW-01-02-17 ถ.พระราม 8- ถ.สามเสน	13.770021	100.495487	bma	holiday	2022-10-09T00:00:00	17:00:00	18:00:00	30	94	1659	900	1.84
7392	TF-HW-01-02-17 ถ.พระราม 8- ถ.สามเสน	13.770021	100.495487	bma	holiday	2022-10-09T00:00:00	18:00:00	19:00:00	29	59	1041	900	1.16
7393	TF-HW-01-02-17 ถ.พระราม 8- ถ.สามเสน	13.770021	100.495487	bma	working	2022-11-09T00:00:00	5:00:00	6:00:00	38	8	74	900	0.08
7394	TF-HW-01-02-17 ถ.พระราม 8- ถ.สามเสน	13.770021	100.495487	bma	holiday	2022-11-09T00:00:00	6:00:00	7:00:00	27	24	226	900	0.25
7395	TF-HW-01-02-17 ถ.พระราม 8- ถ.สามเสน	13.770021	100.495487	bma	holiday	2022-11-09T00:00:00	7:00:00	8:00:00	17	21	260	900	0.29
7396	TF-HW-01-02-17 ถ.พระราม 8- ถ.สามเสน	13.770021	100.495487	bma	holiday	2022-11-09T00:00:00	8:00:00	9:00:00	17	41	625	900	0.69
7397	TF-HW-01-02-17 ถ.พระราม 8- ถ.สามเสน	13.770021	100.495487	bma	working	2022-11-09T00:00:00	9:00:00	10:00:00	15	35	616	900	0.68
7398	TF-HW-01-02-17 ถ.พระราม 8- ถ.สามเสน	13.770021	100.495487	bma	working	2022-11-09T00:00:00	10:00:00	11:00:00	20	34	557	900	0.62
7399	TF-HW-01-02-17 ถ.พระราม 8- ถ.สามเสน	13.770021	100.495487	bma	holiday	2022-11-09T00:00:00	11:00:00	12:00:00	16	41	711	900	0.79
7400	TF-HW-01-02-17 ถ.พระราม 8- ถ.สามเสน	13.770021	100.495487	bma	working	2022-11-09T00:00:00	12:00:00	13:00:00	16	35	538	900	0.60
7401	TF-HW-01-02-17 ถ.พระราม 8- ถ.สามเสน	13.770021	100.495487	bma	working	2022-11-09T00:00:00	13:00:00	14:00:00	15	34	594	900	0.66
7402	TF-HW-01-02-17 ถ.พระราม 8- ถ.สามเสน	13.770021	100.495487	bma	working	2022-11-09T00:00:00	14:00:00	15:00:00	14	36	587	900	0.65
7403	TF-HW-01-02-17 ถ.พระราม 8- ถ.สามเสน	13.770021	100.495487	bma	working	2022-11-09T00:00:00	15:00:00	16:00:00	15	34	642	900	0.71
7404	TF-HW-01-02-17 ถ.พระราม 8- ถ.สามเสน	13.770021	100.495487	bma	holiday	2022-11-09T00:00:00	16:00:00	17:00:00	16	34	675	900	0.75
7405	TF-HW-01-02-17 ถ.พระราม 8- ถ.สามเสน	13.770021	100.495487	bma	holiday	2022-11-09T00:00:00	17:00:00	18:00:00	17	56	989	900	1.10
7406	TF-HW-01-02-17 ถ.พระราม 8- ถ.สามเสน	13.770021	100.495487	bma	holiday	2022-11-09T00:00:00	18:00:00	19:00:00	19	37	639	900	0.71
7407	โทลเวย์ดินแดง	13.7645146	100.5481813	exat	working	2022-05-09T00:00:00	5:00:00	6:00:00	131	28	547	2700	0.20
7408	โทลเวย์ดินแดง	13.7645146	100.5481813	exat	working	2022-05-09T00:00:00	6:00:00	7:00:00	91	80	1637	2700	0.61
7409	โทลเวย์ดินแดง	13.7645146	100.5481813	exat	working	2022-05-09T00:00:00	7:00:00	8:00:00	91	182	3983	2700	1.48
7410	โทลเวย์ดินแดง	13.7645146	100.5481813	exat	working	2022-05-09T00:00:00	8:00:00	9:00:00	75	182	3469	2700	1.28
7411	โทลเวย์ดินแดง	13.7645146	100.5481813	exat	working	2022-05-09T00:00:00	9:00:00	10:00:00	72	179	3380	2700	1.25
7412	โทลเวย์ดินแดง	13.7645146	100.5481813	exat	working	2022-05-09T00:00:00	10:00:00	11:00:00	71	182	3322	2700	1.23
7413	โทลเวย์ดินแดง	13.7645146	100.5481813	exat	working	2022-05-09T00:00:00	11:00:00	12:00:00	91	162	3291	2700	1.22
7414	โทลเวย์ดินแดง	13.7645146	100.5481813	exat	working	2022-05-09T00:00:00	12:00:00	13:00:00	72	178	3423	2700	1.27
7415	โทลเวย์ดินแดง	13.7645146	100.5481813	exat	working	2022-05-09T00:00:00	13:00:00	14:00:00	73	177	3410	2700	1.26
7416	โทลเวย์ดินแดง	13.7645146	100.5481813	exat	working	2022-05-09T00:00:00	14:00:00	15:00:00	71	177	3450	2700	1.28
7417	โทลเวย์ดินแดง	13.7645146	100.5481813	exat	working	2022-05-09T00:00:00	15:00:00	16:00:00	71	180	3383	2700	1.25
7418	โทลเวย์ดินแดง	13.7645146	100.5481813	exat	working	2022-05-09T00:00:00	16:00:00	17:00:00	91	97	2539	2700	0.94
7419	โทลเวย์ดินแดง	13.7645146	100.5481813	exat	working	2022-05-09T00:00:00	17:00:00	18:00:00	91	121	2741	2700	1.02
7420	โทลเวย์ดินแดง	13.7645146	100.5481813	exat	working	2022-05-09T00:00:00	18:00:00	19:00:00	91	106	1633	2700	0.60
7421	โทลเวย์ดินแดง	13.7645146	100.5481813	exat	working	2022-06-09T00:00:00	5:00:00	6:00:00	128	41	847	2700	0.31
7422	โทลเวย์ดินแดง	13.7645146	100.5481813	exat	working	2022-06-09T00:00:00	6:00:00	7:00:00	91	121	2709	2700	1.00
7423	โทลเวย์ดินแดง	13.7645146	100.5481813	exat	working	2022-06-09T00:00:00	7:00:00	8:00:00	91	181	4982	2700	1.85
7424	โทลเวย์ดินแดง	13.7645146	100.5481813	exat	working	2022-06-09T00:00:00	8:00:00	9:00:00	83	182	3889	2700	1.44
7425	โทลเวย์ดินแดง	13.7645146	100.5481813	exat	working	2022-06-09T00:00:00	9:00:00	10:00:00	79	179	3796	2700	1.41
7426	โทลเวย์ดินแดง	13.7645146	100.5481813	exat	working	2022-06-09T00:00:00	10:00:00	11:00:00	80	180	3856	2700	1.43
7427	โทลเวย์ดินแดง	13.7645146	100.5481813	exat	working	2022-06-09T00:00:00	11:00:00	12:00:00	91	156	3170	2700	1.17
7428	โทลเวย์ดินแดง	13.7645146	100.5481813	exat	working	2022-06-09T00:00:00	12:00:00	13:00:00	81	178	3871	2700	1.43
7429	โทลเวย์ดินแดง	13.7645146	100.5481813	exat	working	2022-06-09T00:00:00	13:00:00	14:00:00	81	179	3896	2700	1.44
7430	โทลเวย์ดินแดง	13.7645146	100.5481813	exat	working	2022-06-09T00:00:00	14:00:00	15:00:00	79	180	3868	2700	1.43
7431	โทลเวย์ดินแดง	13.7645146	100.5481813	exat	working	2022-06-09T00:00:00	15:00:00	16:00:00	80	180	3874	2700	1.43
7432	โทลเวย์ดินแดง	13.7645146	100.5481813	exat	working	2022-06-09T00:00:00	16:00:00	17:00:00	91	96	2240	2700	0.83
7433	โทลเวย์ดินแดง	13.7645146	100.5481813	exat	working	2022-06-09T00:00:00	17:00:00	18:00:00	91	131	2469	2700	0.91
7434	โทลเวย์ดินแดง	13.7645146	100.5481813	exat	working	2022-06-09T00:00:00	18:00:00	19:00:00	91	87	1268	2700	0.47
7435	โทลเวย์ดินแดง	13.7645146	100.5481813	exat	working	2022-07-09T00:00:00	5:00:00	6:00:00	132	50	1239	2700	0.46
7436	โทลเวย์ดินแดง	13.7645146	100.5481813	exat	working	2022-07-09T00:00:00	6:00:00	7:00:00	91	162	3834	2700	1.42
7437	โทลเวย์ดินแดง	13.7645146	100.5481813	exat	working	2022-07-09T00:00:00	7:00:00	8:00:00	91	181	5988	2700	2.22
7438	โทลเวย์ดินแดง	13.7645146	100.5481813	exat	working	2022-07-09T00:00:00	8:00:00	9:00:00	91	182	4380	2700	1.62
7439	โทลเวย์ดินแดง	13.7645146	100.5481813	exat	working	2022-07-09T00:00:00	9:00:00	10:00:00	87	180	4289	2700	1.59
7440	โทลเวย์ดินแดง	13.7645146	100.5481813	exat	working	2022-07-09T00:00:00	10:00:00	11:00:00	88	178	4364	2700	1.62
7441	โทลเวย์ดินแดง	13.7645146	100.5481813	exat	working	2022-07-09T00:00:00	11:00:00	12:00:00	91	152	3120	2700	1.16
7442	โทลเวย์ดินแดง	13.7645146	100.5481813	exat	working	2022-07-09T00:00:00	12:00:00	13:00:00	90	176	4346	2700	1.61
7443	โทลเวย์ดินแดง	13.7645146	100.5481813	exat	working	2022-07-09T00:00:00	13:00:00	14:00:00	90	179	4378	2700	1.62
7444	โทลเวย์ดินแดง	13.7645146	100.5481813	exat	working	2022-07-09T00:00:00	14:00:00	15:00:00	88	182	4380	2700	1.62
7445	โทลเวย์ดินแดง	13.7645146	100.5481813	exat	working	2022-07-09T00:00:00	15:00:00	16:00:00	90	180	4392	2700	1.63
7446	โทลเวย์ดินแดง	13.7645146	100.5481813	exat	working	2022-07-09T00:00:00	16:00:00	17:00:00	91	94	1991	2700	0.74
7447	โทลเวย์ดินแดง	13.7645146	100.5481813	exat	working	2022-07-09T00:00:00	17:00:00	18:00:00	91	140	2201	2700	0.82
7448	โทลเวย์ดินแดง	13.7645146	100.5481813	exat	working	2022-07-09T00:00:00	18:00:00	19:00:00	91	68	916	2700	0.34
7449	โทลเวย์ดินแดง	13.7645146	100.5481813	exat	working	2022-08-09T00:00:00	5:00:00	6:00:00	128	56	1216	2700	0.45
7450	โทลเวย์ดินแดง	13.7645146	100.5481813	exat	working	2022-08-09T00:00:00	6:00:00	7:00:00	91	162	3792	2700	1.40
7451	โทลเวย์ดินแดง	13.7645146	100.5481813	exat	working	2022-08-09T00:00:00	7:00:00	8:00:00	91	182	6005	2700	2.22
7452	โทลเวย์ดินแดง	13.7645146	100.5481813	exat	working	2022-08-09T00:00:00	8:00:00	9:00:00	91	181	4379	2700	1.62
7453	โทลเวย์ดินแดง	13.7645146	100.5481813	exat	working	2022-08-09T00:00:00	9:00:00	10:00:00	87	179	4323	2700	1.60
7454	โทลเวย์ดินแดง	13.7645146	100.5481813	exat	working	2022-08-09T00:00:00	10:00:00	11:00:00	88	178	4368	2700	1.62
7455	โทลเวย์ดินแดง	13.7645146	100.5481813	exat	working	2022-08-09T00:00:00	11:00:00	12:00:00	91	152	3089	2700	1.14
7456	โทลเวย์ดินแดง	13.7645146	100.5481813	exat	working	2022-08-09T00:00:00	12:00:00	13:00:00	90	177	4310	2700	1.60
7457	โทลเวย์ดินแดง	13.7645146	100.5481813	exat	working	2022-08-09T00:00:00	13:00:00	14:00:00	90	179	4373	2700	1.62
7458	โทลเวย์ดินแดง	13.7645146	100.5481813	exat	working	2022-08-09T00:00:00	14:00:00	15:00:00	88	181	4375	2700	1.62
7459	โทลเวย์ดินแดง	13.7645146	100.5481813	exat	working	2022-08-09T00:00:00	15:00:00	16:00:00	90	180	4402	2700	1.63
7460	โทลเวย์ดินแดง	13.7645146	100.5481813	exat	working	2022-08-09T00:00:00	16:00:00	17:00:00	91	94	1981	2700	0.73
7461	โทลเวย์ดินแดง	13.7645146	100.5481813	exat	working	2022-08-09T00:00:00	17:00:00	18:00:00	91	139	2184	2700	0.81
7462	โทลเวย์ดินแดง	13.7645146	100.5481813	exat	working	2022-08-09T00:00:00	18:00:00	19:00:00	91	68	924	2700	0.34
7463	เชื่อมก่อนลงดินแดง	13.7602789	100.5454637	exat	working	2022-05-09T00:00:00	5:00:00	6:00:00	112	11	440	1800	0.24
7464	เชื่อมก่อนลงดินแดง	13.7602789	100.5454637	exat	working	2022-05-09T00:00:00	6:00:00	7:00:00	78	36	1262	1800	0.70
7465	เชื่อมก่อนลงดินแดง	13.7602789	100.5454637	exat	working	2022-05-09T00:00:00	7:00:00	8:00:00	55	28	1277	1800	0.71
7466	เชื่อมก่อนลงดินแดง	13.7602789	100.5454637	exat	working	2022-05-09T00:00:00	8:00:00	9:00:00	59	40	1639	1800	0.91
7467	เชื่อมก่อนลงดินแดง	13.7602789	100.5454637	exat	working	2022-05-09T00:00:00	9:00:00	10:00:00	55	37	1569	1800	0.87
7468	เชื่อมก่อนลงดินแดง	13.7602789	100.5454637	exat	working	2022-05-09T00:00:00	10:00:00	11:00:00	54	40	1539	1800	0.86
7469	เชื่อมก่อนลงดินแดง	13.7602789	100.5454637	exat	working	2022-05-09T00:00:00	11:00:00	12:00:00	55	14	728	1800	0.40
7470	เชื่อมก่อนลงดินแดง	13.7602789	100.5454637	exat	working	2022-05-09T00:00:00	12:00:00	13:00:00	58	38	1611	1800	0.90
7471	เชื่อมก่อนลงดินแดง	13.7602789	100.5454637	exat	working	2022-05-09T00:00:00	13:00:00	14:00:00	56	39	1507	1800	0.84
7472	เชื่อมก่อนลงดินแดง	13.7602789	100.5454637	exat	working	2022-05-09T00:00:00	14:00:00	15:00:00	53	35	1530	1800	0.85
7473	เชื่อมก่อนลงดินแดง	13.7602789	100.5454637	exat	working	2022-05-09T00:00:00	15:00:00	16:00:00	58	35	1598	1800	0.89
7474	เชื่อมก่อนลงดินแดง	13.7602789	100.5454637	exat	working	2022-05-09T00:00:00	16:00:00	17:00:00	69	38	2170	1800	1.21
7475	เชื่อมก่อนลงดินแดง	13.7602789	100.5454637	exat	working	2022-05-09T00:00:00	17:00:00	18:00:00	57	26	377	1800	0.21
7476	เชื่อมก่อนลงดินแดง	13.7602789	100.5454637	exat	working	2022-05-09T00:00:00	18:00:00	19:00:00	21	121	548	1800	0.30
7477	เชื่อมก่อนลงดินแดง	13.7602789	100.5454637	exat	working	2022-06-09T00:00:00	5:00:00	6:00:00	109	11	428	1800	0.24
7478	เชื่อมก่อนลงดินแดง	13.7602789	100.5454637	exat	working	2022-06-09T00:00:00	6:00:00	7:00:00	78	36	1263	1800	0.70
7479	เชื่อมก่อนลงดินแดง	13.7602789	100.5454637	exat	working	2022-06-09T00:00:00	7:00:00	8:00:00	55	24	1168	1800	0.65
7480	เชื่อมก่อนลงดินแดง	13.7602789	100.5454637	exat	working	2022-06-09T00:00:00	8:00:00	9:00:00	49	37	1619	1800	0.90
7481	เชื่อมก่อนลงดินแดง	13.7602789	100.5454637	exat	working	2022-06-09T00:00:00	9:00:00	10:00:00	46	34	1555	1800	0.86
7482	เชื่อมก่อนลงดินแดง	13.7602789	100.5454637	exat	working	2022-06-09T00:00:00	10:00:00	11:00:00	44	35	1506	1800	0.84
7483	เชื่อมก่อนลงดินแดง	13.7602789	100.5454637	exat	working	2022-06-09T00:00:00	11:00:00	12:00:00	44	23	1174	1800	0.65
7484	เชื่อมก่อนลงดินแดง	13.7602789	100.5454637	exat	working	2022-06-09T00:00:00	12:00:00	13:00:00	46	34	1602	1800	0.89
7485	เชื่อมก่อนลงดินแดง	13.7602789	100.5454637	exat	working	2022-06-09T00:00:00	13:00:00	14:00:00	46	36	1576	1800	0.88
7486	เชื่อมก่อนลงดินแดง	13.7602789	100.5454637	exat	working	2022-06-09T00:00:00	14:00:00	15:00:00	43	33	1525	1800	0.85
7487	เชื่อมก่อนลงดินแดง	13.7602789	100.5454637	exat	working	2022-06-09T00:00:00	15:00:00	16:00:00	45	34	1605	1800	0.89
7488	เชื่อมก่อนลงดินแดง	13.7602789	100.5454637	exat	working	2022-06-09T00:00:00	16:00:00	17:00:00	51	32	1902	1800	1.06
7489	เชื่อมก่อนลงดินแดง	13.7602789	100.5454637	exat	working	2022-06-09T00:00:00	17:00:00	18:00:00	57	26	364	1800	0.20
7490	เชื่อมก่อนลงดินแดง	13.7602789	100.5454637	exat	working	2022-06-09T00:00:00	18:00:00	19:00:00	21	121	637	1800	0.35
7491	เชื่อมก่อนลงดินแดง	13.7602789	100.5454637	exat	working	2022-07-09T00:00:00	5:00:00	6:00:00	113	13	408	1800	0.23
7492	เชื่อมก่อนลงดินแดง	13.7602789	100.5454637	exat	working	2022-07-09T00:00:00	6:00:00	7:00:00	78	36	1265	1800	0.70
7493	เชื่อมก่อนลงดินแดง	13.7602789	100.5454637	exat	working	2022-07-09T00:00:00	7:00:00	8:00:00	55	20	1072	1800	0.60
7494	เชื่อมก่อนลงดินแดง	13.7602789	100.5454637	exat	working	2022-07-09T00:00:00	8:00:00	9:00:00	38	34	1627	1800	0.90
7495	เชื่อมก่อนลงดินแดง	13.7602789	100.5454637	exat	working	2022-07-09T00:00:00	9:00:00	10:00:00	37	31	1559	1800	0.87
7496	เชื่อมก่อนลงดินแดง	13.7602789	100.5454637	exat	working	2022-07-09T00:00:00	10:00:00	11:00:00	34	31	1493	1800	0.83
7497	เชื่อมก่อนลงดินแดง	13.7602789	100.5454637	exat	working	2022-07-09T00:00:00	11:00:00	12:00:00	34	32	1641	1800	0.91
7498	เชื่อมก่อนลงดินแดง	13.7602789	100.5454637	exat	working	2022-07-09T00:00:00	12:00:00	13:00:00	33	31	1587	1800	0.88
7499	เชื่อมก่อนลงดินแดง	13.7602789	100.5454637	exat	working	2022-07-09T00:00:00	13:00:00	14:00:00	37	33	1636	1800	0.91
7500	เชื่อมก่อนลงดินแดง	13.7602789	100.5454637	exat	working	2022-07-09T00:00:00	14:00:00	15:00:00	33	32	1488	1800	0.83
7501	เชื่อมก่อนลงดินแดง	13.7602789	100.5454637	exat	working	2022-07-09T00:00:00	15:00:00	16:00:00	33	32	1602	1800	0.89
7502	เชื่อมก่อนลงดินแดง	13.7602789	100.5454637	exat	working	2022-07-09T00:00:00	16:00:00	17:00:00	33	25	1638	1800	0.91
7503	เชื่อมก่อนลงดินแดง	13.7602789	100.5454637	exat	working	2022-07-09T00:00:00	18:00:00	19:00:00	21	122	723	1800	0.40
7504	เชื่อมก่อนลงดินแดง	13.7602789	100.5454637	exat	working	2022-08-09T00:00:00	5:00:00	6:00:00	111	12	389	1800	0.22
7505	เชื่อมก่อนลงดินแดง	13.7602789	100.5454637	exat	working	2022-08-09T00:00:00	6:00:00	7:00:00	78	36	1259	1800	0.70
7506	เชื่อมก่อนลงดินแดง	13.7602789	100.5454637	exat	working	2022-08-09T00:00:00	7:00:00	8:00:00	28	19	725	1800	0.40
7507	เชื่อมก่อนลงดินแดง	13.7602789	100.5454637	exat	working	2022-08-09T00:00:00	8:00:00	9:00:00	19	121	1010	1800	0.56
7508	เชื่อมก่อนลงดินแดง	13.7602789	100.5454637	exat	working	2022-08-09T00:00:00	9:00:00	10:00:00	17	122	925	1800	0.51
7509	เชื่อมก่อนลงดินแดง	13.7602789	100.5454637	exat	working	2022-08-09T00:00:00	10:00:00	11:00:00	17	121	905	1800	0.50
7510	เชื่อมก่อนลงดินแดง	13.7602789	100.5454637	exat	working	2022-08-09T00:00:00	11:00:00	12:00:00	17	121	1176	1800	0.65
7511	เชื่อมก่อนลงดินแดง	13.7602789	100.5454637	exat	working	2022-08-09T00:00:00	12:00:00	13:00:00	15	121	966	1800	0.54
7512	เชื่อมก่อนลงดินแดง	13.7602789	100.5454637	exat	working	2022-08-09T00:00:00	13:00:00	14:00:00	17	121	969	1800	0.54
7513	เชื่อมก่อนลงดินแดง	13.7602789	100.5454637	exat	working	2022-08-09T00:00:00	14:00:00	15:00:00	16	121	924	1800	0.51
7514	เชื่อมก่อนลงดินแดง	13.7602789	100.5454637	exat	working	2022-08-09T00:00:00	15:00:00	16:00:00	17	121	929	1800	0.52
7515	เชื่อมก่อนลงดินแดง	13.7602789	100.5454637	exat	working	2022-08-09T00:00:00	16:00:00	17:00:00	17	121	1276	1800	0.71
7516	เชื่อมก่อนลงดินแดง	13.7602789	100.5454637	exat	working	2022-08-09T00:00:00	17:00:00	18:00:00	21	121	728	1800	0.40
7517	เชื่อมก่อนลงดินแดง	13.7602789	100.5454637	exat	working	2022-08-09T00:00:00	18:00:00	19:00:00	21	121	630	1800	0.35
7518	เชื่อมก่อนลงดินแดง	13.7602789	100.5454637	exat	working	2022-09-09T00:00:00	5:00:00	6:00:00	109	12	431	1800	0.24
7519	เชื่อมก่อนลงดินแดง	13.7602789	100.5454637	exat	working	2022-09-09T00:00:00	6:00:00	7:00:00	78	36	1264	1800	0.70
7520	เชื่อมก่อนลงดินแดง	13.7602789	100.5454637	exat	working	2022-09-09T00:00:00	7:00:00	8:00:00	21	121	365	1800	0.20
7521	เชื่อมก่อนลงดินแดง	13.7602789	100.5454637	exat	working	2022-09-09T00:00:00	8:00:00	9:00:00	21	121	362	1800	0.20
7522	เชื่อมก่อนลงดินแดง	13.7602789	100.5454637	exat	working	2022-09-09T00:00:00	9:00:00	10:00:00	21	121	276	1800	0.15
7523	เชื่อมก่อนลงดินแดง	13.7602789	100.5454637	exat	working	2022-09-09T00:00:00	10:00:00	11:00:00	21	121	293	1800	0.16
7524	เชื่อมก่อนลงดินแดง	13.7602789	100.5454637	exat	working	2022-09-09T00:00:00	11:00:00	12:00:00	21	121	690	1800	0.38
7525	เชื่อมก่อนลงดินแดง	13.7602789	100.5454637	exat	working	2022-09-09T00:00:00	12:00:00	13:00:00	21	121	324	1800	0.18
7526	เชื่อมก่อนลงดินแดง	13.7602789	100.5454637	exat	working	2022-09-09T00:00:00	13:00:00	14:00:00	21	121	300	1800	0.17
7527	เชื่อมก่อนลงดินแดง	13.7602789	100.5454637	exat	working	2022-09-09T00:00:00	14:00:00	15:00:00	21	122	305	1800	0.17
7528	เชื่อมก่อนลงดินแดง	13.7602789	100.5454637	exat	working	2022-09-09T00:00:00	15:00:00	16:00:00	21	122	313	1800	0.17
7529	เชื่อมก่อนลงดินแดง	13.7602789	100.5454637	exat	working	2022-09-09T00:00:00	16:00:00	17:00:00	21	122	906	1800	0.50
7530	เชื่อมก่อนลงดินแดง	13.7602789	100.5454637	exat	working	2022-09-09T00:00:00	17:00:00	18:00:00	21	121	751	1800	0.42
7531	เชื่อมก่อนลงดินแดง	13.7602789	100.5454637	exat	working	2022-09-09T00:00:00	18:00:00	19:00:00	21	121	545	1800	0.30
7532	เชื่อมก่อนลงดินแดง	13.7602789	100.5454637	exat	working	2022-10-09T00:00:00	5:00:00	6:00:00	129	12	344	1800	0.19
7533	เชื่อมก่อนลงดินแดง	13.7602789	100.5454637	exat	holiday	2022-10-09T00:00:00	6:00:00	7:00:00	91	37	1096	1800	0.61
7534	เชื่อมก่อนลงดินแดง	13.7602789	100.5454637	exat	holiday	2022-10-09T00:00:00	7:00:00	8:00:00	34	13	1099	1800	0.61
7535	เชื่อมก่อนลงดินแดง	13.7602789	100.5454637	exat	holiday	2022-10-09T00:00:00	8:00:00	9:00:00	40	51	1815	1800	1.01
7536	เชื่อมก่อนลงดินแดง	13.7602789	100.5454637	exat	working	2022-10-09T00:00:00	9:00:00	10:00:00	35	47	1834	1800	1.02
7537	เชื่อมก่อนลงดินแดง	13.7602789	100.5454637	exat	working	2022-10-09T00:00:00	10:00:00	11:00:00	39	51	1755	1800	0.98
7538	เชื่อมก่อนลงดินแดง	13.7602789	100.5454637	exat	holiday	2022-10-09T00:00:00	11:00:00	12:00:00	39	19	528	1800	0.29
7539	เชื่อมก่อนลงดินแดง	13.7602789	100.5454637	exat	working	2022-10-09T00:00:00	12:00:00	13:00:00	36	49	1781	1800	0.99
7540	เชื่อมก่อนลงดินแดง	13.7602789	100.5454637	exat	working	2022-10-09T00:00:00	13:00:00	14:00:00	38	46	1739	1800	0.97
7541	เชื่อมก่อนลงดินแดง	13.7602789	100.5454637	exat	working	2022-10-09T00:00:00	14:00:00	15:00:00	37	50	1783	1800	0.99
7542	เชื่อมก่อนลงดินแดง	13.7602789	100.5454637	exat	working	2022-10-09T00:00:00	15:00:00	16:00:00	39	49	1808	1800	1.00
7543	เชื่อมก่อนลงดินแดง	13.7602789	100.5454637	exat	holiday	2022-10-09T00:00:00	16:00:00	17:00:00	47	24	1637	1800	0.91
7544	เชื่อมก่อนลงดินแดง	13.7602789	100.5454637	exat	holiday	2022-10-09T00:00:00	17:00:00	18:00:00	36	25	1275	1800	0.71
7545	เชื่อมก่อนลงดินแดง	13.7602789	100.5454637	exat	holiday	2022-10-09T00:00:00	18:00:00	19:00:00	32	19	1084	1800	0.60
7546	เชื่อมก่อนลงดินแดง	13.7602789	100.5454637	exat	working	2022-11-09T00:00:00	5:00:00	6:00:00	79	7	226	1800	0.13
7547	เชื่อมก่อนลงดินแดง	13.7602789	100.5454637	exat	holiday	2022-11-09T00:00:00	6:00:00	7:00:00	55	23	646	1800	0.36
7548	เชื่อมก่อนลงดินแดง	13.7602789	100.5454637	exat	holiday	2022-11-09T00:00:00	7:00:00	8:00:00	21	121	663	1800	0.37
7549	เชื่อมก่อนลงดินแดง	13.7602789	100.5454637	exat	holiday	2022-11-09T00:00:00	8:00:00	9:00:00	24	31	1086	1800	0.60
7550	เชื่อมก่อนลงดินแดง	13.7602789	100.5454637	exat	working	2022-11-09T00:00:00	9:00:00	10:00:00	21	121	1092	1800	0.61
7551	เชื่อมก่อนลงดินแดง	13.7602789	100.5454637	exat	working	2022-11-09T00:00:00	10:00:00	11:00:00	24	31	1059	1800	0.59
7552	เชื่อมก่อนลงดินแดง	13.7602789	100.5454637	exat	holiday	2022-11-09T00:00:00	11:00:00	12:00:00	23	11	323	1800	0.18
7553	เชื่อมก่อนลงดินแดง	13.7602789	100.5454637	exat	working	2022-11-09T00:00:00	12:00:00	13:00:00	22	29	1064	1800	0.59
7554	เชื่อมก่อนลงดินแดง	13.7602789	100.5454637	exat	working	2022-11-09T00:00:00	13:00:00	14:00:00	23	28	1062	1800	0.59
7555	เชื่อมก่อนลงดินแดง	13.7602789	100.5454637	exat	working	2022-11-09T00:00:00	14:00:00	15:00:00	22	30	1058	1800	0.59
7556	เชื่อมก่อนลงดินแดง	13.7602789	100.5454637	exat	working	2022-11-09T00:00:00	15:00:00	16:00:00	24	30	1097	1800	0.61
7557	เชื่อมก่อนลงดินแดง	13.7602789	100.5454637	exat	holiday	2022-11-09T00:00:00	16:00:00	17:00:00	28	14	993	1800	0.55
7558	เชื่อมก่อนลงดินแดง	13.7602789	100.5454637	exat	holiday	2022-11-09T00:00:00	17:00:00	18:00:00	22	15	773	1800	0.43
7559	เชื่อมก่อนลงดินแดง	13.7602789	100.5454637	exat	holiday	2022-11-09T00:00:00	18:00:00	19:00:00	19	121	660	1800	0.37
7560	โค้งบางกอกพาเลส	13.7527211	100.5474192	exat	working	2022-05-09T00:00:00	5:00:00	6:00:00	108	15	905	2700	0.34
7561	โค้งบางกอกพาเลส	13.7527211	100.5474192	exat	working	2022-05-09T00:00:00	6:00:00	7:00:00	76	45	2726	2700	1.01
7562	โค้งบางกอกพาเลส	13.7527211	100.5474192	exat	working	2022-05-09T00:00:00	7:00:00	8:00:00	67	45	5064	2700	1.88
7563	โค้งบางกอกพาเลส	13.7527211	100.5474192	exat	working	2022-05-09T00:00:00	8:00:00	9:00:00	81	46	6186	2700	2.29
7564	โค้งบางกอกพาเลส	13.7527211	100.5474192	exat	working	2022-05-09T00:00:00	9:00:00	10:00:00	76	41	6134	2700	2.27
7565	โค้งบางกอกพาเลส	13.7527211	100.5474192	exat	working	2022-05-09T00:00:00	10:00:00	11:00:00	80	42	6135	2700	2.27
7566	โค้งบางกอกพาเลส	13.7527211	100.5474192	exat	working	2022-05-09T00:00:00	11:00:00	12:00:00	70	30	3614	2700	1.34
7567	โค้งบางกอกพาเลส	13.7527211	100.5474192	exat	working	2022-05-09T00:00:00	12:00:00	13:00:00	79	44	6082	2700	2.25
7568	โค้งบางกอกพาเลส	13.7527211	100.5474192	exat	working	2022-05-09T00:00:00	13:00:00	14:00:00	76	44	6093	2700	2.26
7569	โค้งบางกอกพาเลส	13.7527211	100.5474192	exat	working	2022-05-09T00:00:00	14:00:00	15:00:00	78	43	6036	2700	2.24
7570	โค้งบางกอกพาเลส	13.7527211	100.5474192	exat	working	2022-05-09T00:00:00	15:00:00	16:00:00	78	40	6011	2700	2.23
7571	โค้งบางกอกพาเลส	13.7527211	100.5474192	exat	working	2022-05-09T00:00:00	16:00:00	17:00:00	58	51	5252	2700	1.95
7572	โค้งบางกอกพาเลส	13.7527211	100.5474192	exat	working	2022-05-09T00:00:00	17:00:00	18:00:00	32	150	5983	2700	2.22
7573	โค้งบางกอกพาเลส	13.7527211	100.5474192	exat	working	2022-05-09T00:00:00	18:00:00	19:00:00	31	165	4537	2700	1.68
7574	โค้งบางกอกพาเลส	13.7527211	100.5474192	exat	working	2022-06-09T00:00:00	5:00:00	6:00:00	103	11	799	2700	0.30
7575	โค้งบางกอกพาเลส	13.7527211	100.5474192	exat	working	2022-06-09T00:00:00	6:00:00	7:00:00	74	35	2604	2700	0.96
7576	โค้งบางกอกพาเลส	13.7527211	100.5474192	exat	working	2022-06-09T00:00:00	7:00:00	8:00:00	79	46	3888	2700	1.44
7577	โค้งบางกอกพาเลส	13.7527211	100.5474192	exat	working	2022-06-09T00:00:00	8:00:00	9:00:00	86	51	5466	2700	2.02
7578	โค้งบางกอกพาเลส	13.7527211	100.5474192	exat	working	2022-06-09T00:00:00	9:00:00	10:00:00	81	46	5416	2700	2.01
7579	โค้งบางกอกพาเลส	13.7527211	100.5474192	exat	working	2022-06-09T00:00:00	10:00:00	11:00:00	85	46	5373	2700	1.99
7580	โค้งบางกอกพาเลส	13.7527211	100.5474192	exat	working	2022-06-09T00:00:00	11:00:00	12:00:00	80	32	3264	2700	1.21
7581	โค้งบางกอกพาเลส	13.7527211	100.5474192	exat	working	2022-06-09T00:00:00	12:00:00	13:00:00	82	49	5337	2700	1.98
7582	โค้งบางกอกพาเลส	13.7527211	100.5474192	exat	working	2022-06-09T00:00:00	13:00:00	14:00:00	83	49	5391	2700	2.00
7583	โค้งบางกอกพาเลส	13.7527211	100.5474192	exat	working	2022-06-09T00:00:00	14:00:00	15:00:00	83	47	5334	2700	1.98
7584	โค้งบางกอกพาเลส	13.7527211	100.5474192	exat	working	2022-06-09T00:00:00	15:00:00	16:00:00	83	45	5386	2700	1.99
7585	โค้งบางกอกพาเลส	13.7527211	100.5474192	exat	working	2022-06-09T00:00:00	16:00:00	17:00:00	61	57	5287	2700	1.96
7586	โค้งบางกอกพาเลส	13.7527211	100.5474192	exat	working	2022-06-09T00:00:00	17:00:00	18:00:00	38	124	5810	2700	2.15
7587	โค้งบางกอกพาเลส	13.7527211	100.5474192	exat	working	2022-06-09T00:00:00	18:00:00	19:00:00	41	116	3922	2700	1.45
7588	โค้งบางกอกพาเลส	13.7527211	100.5474192	exat	working	2022-07-09T00:00:00	5:00:00	6:00:00	101	8	827	2700	0.31
7589	โค้งบางกอกพาเลส	13.7527211	100.5474192	exat	working	2022-07-09T00:00:00	6:00:00	7:00:00	71	24	2564	2700	0.95
7590	โค้งบางกอกพาเลส	13.7527211	100.5474192	exat	working	2022-07-09T00:00:00	7:00:00	8:00:00	91	47	2718	2700	1.01
7591	โค้งบางกอกพาเลส	13.7527211	100.5474192	exat	working	2022-07-09T00:00:00	8:00:00	9:00:00	91	55	4727	2700	1.75
7592	โค้งบางกอกพาเลส	13.7527211	100.5474192	exat	working	2022-07-09T00:00:00	9:00:00	10:00:00	86	51	4647	2700	1.72
7593	โค้งบางกอกพาเลส	13.7527211	100.5474192	exat	working	2022-07-09T00:00:00	10:00:00	11:00:00	89	50	4651	2700	1.72
7594	โค้งบางกอกพาเลส	13.7527211	100.5474192	exat	working	2022-07-09T00:00:00	11:00:00	12:00:00	91	34	2892	2700	1.07
7595	โค้งบางกอกพาเลส	13.7527211	100.5474192	exat	working	2022-07-09T00:00:00	12:00:00	13:00:00	86	53	4608	2700	1.71
7596	โค้งบางกอกพาเลส	13.7527211	100.5474192	exat	working	2022-07-09T00:00:00	13:00:00	14:00:00	91	54	4646	2700	1.72
7597	โค้งบางกอกพาเลส	13.7527211	100.5474192	exat	working	2022-07-09T00:00:00	14:00:00	15:00:00	87	52	4597	2700	1.70
7598	โค้งบางกอกพาเลส	13.7527211	100.5474192	exat	working	2022-07-09T00:00:00	15:00:00	16:00:00	88	49	4684	2700	1.73
7599	โค้งบางกอกพาเลส	13.7527211	100.5474192	exat	working	2022-07-09T00:00:00	16:00:00	17:00:00	64	63	5280	2700	1.96
7600	โค้งบางกอกพาเลส	13.7527211	100.5474192	exat	working	2022-07-09T00:00:00	17:00:00	18:00:00	43	99	5631	2700	2.09
7601	โค้งบางกอกพาเลส	13.7527211	100.5474192	exat	working	2022-07-09T00:00:00	18:00:00	19:00:00	51	67	3271	2700	1.21
7602	โค้งบางกอกพาเลส	13.7527211	100.5474192	exat	working	2022-08-09T00:00:00	5:00:00	6:00:00	102	7	885	2700	0.33
7603	โค้งบางกอกพาเลส	13.7527211	100.5474192	exat	working	2022-08-09T00:00:00	6:00:00	7:00:00	73	23	2621	2700	0.97
7604	โค้งบางกอกพาเลส	13.7527211	100.5474192	exat	working	2022-08-09T00:00:00	7:00:00	8:00:00	84	40	3247	2700	1.20
7605	โค้งบางกอกพาเลส	13.7527211	100.5474192	exat	working	2022-08-09T00:00:00	8:00:00	9:00:00	73	49	4577	2700	1.70
7606	โค้งบางกอกพาเลส	13.7527211	100.5474192	exat	working	2022-08-09T00:00:00	9:00:00	10:00:00	68	46	4465	2700	1.65
7607	โค้งบางกอกพาเลส	13.7527211	100.5474192	exat	working	2022-08-09T00:00:00	10:00:00	11:00:00	70	45	4463	2700	1.65
7608	โค้งบางกอกพาเลส	13.7527211	100.5474192	exat	working	2022-08-09T00:00:00	11:00:00	12:00:00	77	35	3452	2700	1.28
7609	โค้งบางกอกพาเลส	13.7527211	100.5474192	exat	working	2022-08-09T00:00:00	12:00:00	13:00:00	70	45	4467	2700	1.65
7610	โค้งบางกอกพาเลส	13.7527211	100.5474192	exat	working	2022-08-09T00:00:00	13:00:00	14:00:00	72	45	4512	2700	1.67
7611	โค้งบางกอกพาเลส	13.7527211	100.5474192	exat	working	2022-08-09T00:00:00	14:00:00	15:00:00	70	46	4459	2700	1.65
7612	โค้งบางกอกพาเลส	13.7527211	100.5474192	exat	working	2022-08-09T00:00:00	15:00:00	16:00:00	70	43	4463	2700	1.65
7613	โค้งบางกอกพาเลส	13.7527211	100.5474192	exat	working	2022-08-09T00:00:00	16:00:00	17:00:00	50	69	4971	2700	1.84
7614	โค้งบางกอกพาเลส	13.7527211	100.5474192	exat	working	2022-08-09T00:00:00	17:00:00	18:00:00	35	94	4927	2700	1.82
7615	โค้งบางกอกพาเลส	13.7527211	100.5474192	exat	working	2022-08-09T00:00:00	18:00:00	19:00:00	40	88	3328	2700	1.23
7616	โค้งบางกอกพาเลส	13.7527211	100.5474192	exat	working	2022-09-09T00:00:00	5:00:00	6:00:00	107	7	824	2700	0.31
7617	โค้งบางกอกพาเลส	13.7527211	100.5474192	exat	working	2022-09-09T00:00:00	6:00:00	7:00:00	75	22	2722	2700	1.01
7618	โค้งบางกอกพาเลส	13.7527211	100.5474192	exat	working	2022-09-09T00:00:00	7:00:00	8:00:00	77	33	3821	2700	1.42
7619	โค้งบางกอกพาเลส	13.7527211	100.5474192	exat	working	2022-09-09T00:00:00	8:00:00	9:00:00	55	42	4383	2700	1.62
7620	โค้งบางกอกพาเลส	13.7527211	100.5474192	exat	working	2022-09-09T00:00:00	9:00:00	10:00:00	51	40	4226	2700	1.57
7621	โค้งบางกอกพาเลส	13.7527211	100.5474192	exat	working	2022-09-09T00:00:00	10:00:00	11:00:00	52	40	4256	2700	1.58
7622	โค้งบางกอกพาเลส	13.7527211	100.5474192	exat	working	2022-09-09T00:00:00	11:00:00	12:00:00	63	37	3964	2700	1.47
7623	โค้งบางกอกพาเลส	13.7527211	100.5474192	exat	working	2022-09-09T00:00:00	12:00:00	13:00:00	54	37	4333	2700	1.60
7624	โค้งบางกอกพาเลส	13.7527211	100.5474192	exat	working	2022-09-09T00:00:00	13:00:00	14:00:00	54	37	4324	2700	1.60
7625	โค้งบางกอกพาเลส	13.7527211	100.5474192	exat	working	2022-09-09T00:00:00	14:00:00	15:00:00	53	40	4347	2700	1.61
7626	โค้งบางกอกพาเลส	13.7527211	100.5474192	exat	working	2022-09-09T00:00:00	15:00:00	16:00:00	53	38	4258	2700	1.58
7627	โค้งบางกอกพาเลส	13.7527211	100.5474192	exat	working	2022-09-09T00:00:00	16:00:00	17:00:00	36	75	4711	2700	1.74
7628	โค้งบางกอกพาเลส	13.7527211	100.5474192	exat	working	2022-09-09T00:00:00	17:00:00	18:00:00	27	89	4186	2700	1.55
7629	โค้งบางกอกพาเลส	13.7527211	100.5474192	exat	working	2022-09-09T00:00:00	18:00:00	19:00:00	29	110	3448	2700	1.28
7630	โค้งบางกอกพาเลส	13.7527211	100.5474192	exat	working	2022-10-09T00:00:00	5:00:00	6:00:00	119	6	277	2700	0.10
7631	โค้งบางกอกพาเลส	13.7527211	100.5474192	exat	holiday	2022-10-09T00:00:00	6:00:00	7:00:00	84	19	888	2700	0.33
7632	โค้งบางกอกพาเลส	13.7527211	100.5474192	exat	holiday	2022-10-09T00:00:00	7:00:00	8:00:00	72	22	2175	2700	0.81
7633	โค้งบางกอกพาเลส	13.7527211	100.5474192	exat	holiday	2022-10-09T00:00:00	8:00:00	9:00:00	91	26	3265	2700	1.21
7634	โค้งบางกอกพาเลส	13.7527211	100.5474192	exat	working	2022-10-09T00:00:00	9:00:00	10:00:00	90	25	3247	2700	1.20
7635	โค้งบางกอกพาเลส	13.7527211	100.5474192	exat	working	2022-10-09T00:00:00	10:00:00	11:00:00	91	23	3220	2700	1.19
7636	โค้งบางกอกพาเลส	13.7527211	100.5474192	exat	holiday	2022-10-09T00:00:00	11:00:00	12:00:00	53	44	3815	2700	1.41
7637	โค้งบางกอกพาเลส	13.7527211	100.5474192	exat	working	2022-10-09T00:00:00	12:00:00	13:00:00	86	25	3180	2700	1.18
7638	โค้งบางกอกพาเลส	13.7527211	100.5474192	exat	working	2022-10-09T00:00:00	13:00:00	14:00:00	86	22	3102	2700	1.15
7639	โค้งบางกอกพาเลส	13.7527211	100.5474192	exat	working	2022-10-09T00:00:00	14:00:00	15:00:00	90	22	3161	2700	1.17
7640	โค้งบางกอกพาเลส	13.7527211	100.5474192	exat	working	2022-10-09T00:00:00	15:00:00	16:00:00	86	21	3138	2700	1.16
7641	โค้งบางกอกพาเลส	13.7527211	100.5474192	exat	holiday	2022-10-09T00:00:00	16:00:00	17:00:00	67	51	4351	2700	1.61
7642	โค้งบางกอกพาเลส	13.7527211	100.5474192	exat	holiday	2022-10-09T00:00:00	17:00:00	18:00:00	66	32	2731	2700	1.01
7643	โค้งบางกอกพาเลส	13.7527211	100.5474192	exat	holiday	2022-10-09T00:00:00	18:00:00	19:00:00	41	51	3640	2700	1.35
7644	โค้งบางกอกพาเลส	13.7527211	100.5474192	exat	working	2022-11-09T00:00:00	5:00:00	6:00:00	70	4	187	2700	0.07
7645	โค้งบางกอกพาเลส	13.7527211	100.5474192	exat	holiday	2022-11-09T00:00:00	6:00:00	7:00:00	50	12	552	2700	0.20
7646	โค้งบางกอกพาเลส	13.7527211	100.5474192	exat	holiday	2022-11-09T00:00:00	7:00:00	8:00:00	43	13	1309	2700	0.48
7647	โค้งบางกอกพาเลส	13.7527211	100.5474192	exat	holiday	2022-11-09T00:00:00	8:00:00	9:00:00	55	16	1976	2700	0.73
7648	โค้งบางกอกพาเลส	13.7527211	100.5474192	exat	working	2022-11-09T00:00:00	9:00:00	10:00:00	54	15	1958	2700	0.73
7649	โค้งบางกอกพาเลส	13.7527211	100.5474192	exat	working	2022-11-09T00:00:00	10:00:00	11:00:00	55	14	1934	2700	0.72
7650	โค้งบางกอกพาเลส	13.7527211	100.5474192	exat	holiday	2022-11-09T00:00:00	11:00:00	12:00:00	32	27	2299	2700	0.85
7651	โค้งบางกอกพาเลส	13.7527211	100.5474192	exat	working	2022-11-09T00:00:00	12:00:00	13:00:00	52	15	1888	2700	0.70
7652	โค้งบางกอกพาเลส	13.7527211	100.5474192	exat	working	2022-11-09T00:00:00	13:00:00	14:00:00	52	14	1868	2700	0.69
7653	โค้งบางกอกพาเลส	13.7527211	100.5474192	exat	working	2022-11-09T00:00:00	14:00:00	15:00:00	54	14	1892	2700	0.70
7654	โค้งบางกอกพาเลส	13.7527211	100.5474192	exat	working	2022-11-09T00:00:00	15:00:00	16:00:00	52	13	1903	2700	0.70
7655	โค้งบางกอกพาเลส	13.7527211	100.5474192	exat	holiday	2022-11-09T00:00:00	16:00:00	17:00:00	40	31	2595	2700	0.96
7656	โค้งบางกอกพาเลส	13.7527211	100.5474192	exat	holiday	2022-11-09T00:00:00	17:00:00	18:00:00	40	19	1654	2700	0.61
7657	โค้งบางกอกพาเลส	13.7527211	100.5474192	exat	holiday	2022-11-09T00:00:00	18:00:00	19:00:00	25	31	2167	2700	0.80
7658	ลงเพลินจิตเหนือ	13.743638	100.5486377	exat	working	2022-05-09T00:00:00	5:00:00	6:00:00	76	13	630	1800	0.35
7659	ลงเพลินจิตเหนือ	13.743638	100.5486377	exat	working	2022-05-09T00:00:00	6:00:00	7:00:00	54	40	1814	1800	1.01
7660	ลงเพลินจิตเหนือ	13.743638	100.5486377	exat	working	2022-05-09T00:00:00	7:00:00	8:00:00	39	92	2177	1800	1.21
7661	ลงเพลินจิตเหนือ	13.743638	100.5486377	exat	working	2022-05-09T00:00:00	8:00:00	9:00:00	43	111	3074	1800	1.71
7662	ลงเพลินจิตเหนือ	13.743638	100.5486377	exat	working	2022-05-09T00:00:00	9:00:00	10:00:00	39	109	3025	1800	1.68
7663	ลงเพลินจิตเหนือ	13.743638	100.5486377	exat	working	2022-05-09T00:00:00	10:00:00	11:00:00	39	108	3043	1800	1.69
7664	ลงเพลินจิตเหนือ	13.743638	100.5486377	exat	working	2022-05-09T00:00:00	11:00:00	12:00:00	58	25	927	1800	0.52
7665	ลงเพลินจิตเหนือ	13.743638	100.5486377	exat	working	2022-05-09T00:00:00	12:00:00	13:00:00	42	109	3005	1800	1.67
7666	ลงเพลินจิตเหนือ	13.743638	100.5486377	exat	working	2022-05-09T00:00:00	13:00:00	14:00:00	39	106	3012	1800	1.67
7667	ลงเพลินจิตเหนือ	13.743638	100.5486377	exat	working	2022-05-09T00:00:00	14:00:00	15:00:00	38	110	3021	1800	1.68
7668	ลงเพลินจิตเหนือ	13.743638	100.5486377	exat	working	2022-05-09T00:00:00	15:00:00	16:00:00	40	110	3087	1800	1.72
7669	ลงเพลินจิตเหนือ	13.743638	100.5486377	exat	working	2022-05-09T00:00:00	16:00:00	17:00:00	57	30	545	1800	0.30
7670	ลงเพลินจิตเหนือ	13.743638	100.5486377	exat	working	2022-05-09T00:00:00	17:00:00	18:00:00	47	32	1644	1800	0.91
7671	ลงเพลินจิตเหนือ	13.743638	100.5486377	exat	working	2022-05-09T00:00:00	18:00:00	19:00:00	41	48	1784	1800	0.99
7672	ลงเพลินจิตเหนือ	13.743638	100.5486377	exat	working	2022-06-09T00:00:00	5:00:00	6:00:00	55	16	464	1800	0.26
7673	ลงเพลินจิตเหนือ	13.743638	100.5486377	exat	working	2022-06-09T00:00:00	6:00:00	7:00:00	39	49	1468	1800	0.82
7674	ลงเพลินจิตเหนือ	13.743638	100.5486377	exat	working	2022-06-09T00:00:00	7:00:00	8:00:00	31	136	2445	1800	1.36
7675	ลงเพลินจิตเหนือ	13.743638	100.5486377	exat	working	2022-06-09T00:00:00	8:00:00	9:00:00	31	143	3619	1800	2.01
7676	ลงเพลินจิตเหนือ	13.743638	100.5486377	exat	working	2022-06-09T00:00:00	9:00:00	10:00:00	28	139	3538	1800	1.97
7677	ลงเพลินจิตเหนือ	13.743638	100.5486377	exat	working	2022-06-09T00:00:00	10:00:00	11:00:00	26	140	3565	1800	1.98
7678	ลงเพลินจิตเหนือ	13.743638	100.5486377	exat	working	2022-06-09T00:00:00	11:00:00	12:00:00	41	59	1466	1800	0.81
7679	ลงเพลินจิตเหนือ	13.743638	100.5486377	exat	working	2022-06-09T00:00:00	12:00:00	13:00:00	28	140	3598	1800	2.00
7680	ลงเพลินจิตเหนือ	13.743638	100.5486377	exat	working	2022-06-09T00:00:00	13:00:00	14:00:00	28	138	3606	1800	2.00
7681	ลงเพลินจิตเหนือ	13.743638	100.5486377	exat	working	2022-06-09T00:00:00	14:00:00	15:00:00	28	140	3603	1800	2.00
7682	ลงเพลินจิตเหนือ	13.743638	100.5486377	exat	working	2022-06-09T00:00:00	15:00:00	16:00:00	27	140	3563	1800	1.98
7683	ลงเพลินจิตเหนือ	13.743638	100.5486377	exat	working	2022-06-09T00:00:00	16:00:00	17:00:00	37	92	1275	1800	0.71
7684	ลงเพลินจิตเหนือ	13.743638	100.5486377	exat	working	2022-06-09T00:00:00	17:00:00	18:00:00	30	98	2076	1800	1.15
7685	ลงเพลินจิตเหนือ	13.743638	100.5486377	exat	working	2022-06-09T00:00:00	18:00:00	19:00:00	29	96	2246	1800	1.25
7686	ลงเพลินจิตเหนือ	13.743638	100.5486377	exat	working	2022-07-09T00:00:00	5:00:00	6:00:00	34	20	335	1800	0.19
7687	ลงเพลินจิตเหนือ	13.743638	100.5486377	exat	working	2022-07-09T00:00:00	6:00:00	7:00:00	24	59	1103	1800	0.61
7688	ลงเพลินจิตเหนือ	13.743638	100.5486377	exat	working	2022-07-09T00:00:00	7:00:00	8:00:00	23	182	2715	1800	1.51
7689	ลงเพลินจิตเหนือ	13.743638	100.5486377	exat	working	2022-07-09T00:00:00	8:00:00	9:00:00	18	121	4197	1800	2.33
7690	ลงเพลินจิตเหนือ	13.743638	100.5486377	exat	working	2022-07-09T00:00:00	9:00:00	10:00:00	16	121	4101	1800	2.28
7691	ลงเพลินจิตเหนือ	13.743638	100.5486377	exat	working	2022-07-09T00:00:00	10:00:00	11:00:00	13	122	4094	1800	2.27
7692	ลงเพลินจิตเหนือ	13.743638	100.5486377	exat	working	2022-07-09T00:00:00	11:00:00	12:00:00	24	92	2003	1800	1.11
7693	ลงเพลินจิตเหนือ	13.743638	100.5486377	exat	working	2022-07-09T00:00:00	12:00:00	13:00:00	14	121	4188	1800	2.33
7694	ลงเพลินจิตเหนือ	13.743638	100.5486377	exat	working	2022-07-09T00:00:00	13:00:00	14:00:00	17	121	4161	1800	2.31
7695	ลงเพลินจิตเหนือ	13.743638	100.5486377	exat	working	2022-07-09T00:00:00	14:00:00	15:00:00	17	121	4154	1800	2.31
7696	ลงเพลินจิตเหนือ	13.743638	100.5486377	exat	working	2022-07-09T00:00:00	15:00:00	16:00:00	15	122	4059	1800	2.26
7697	ลงเพลินจิตเหนือ	13.743638	100.5486377	exat	working	2022-07-09T00:00:00	16:00:00	17:00:00	17	121	1990	1800	1.11
7698	ลงเพลินจิตเหนือ	13.743638	100.5486377	exat	working	2022-07-09T00:00:00	17:00:00	18:00:00	13	122	2538	1800	1.41
7699	ลงเพลินจิตเหนือ	13.743638	100.5486377	exat	working	2022-07-09T00:00:00	18:00:00	19:00:00	18	121	2701	1800	1.50
7700	ลงเพลินจิตเหนือ	13.743638	100.5486377	exat	working	2022-08-09T00:00:00	5:00:00	6:00:00	37	29	551	1800	0.31
7701	ลงเพลินจิตเหนือ	13.743638	100.5486377	exat	working	2022-08-09T00:00:00	6:00:00	7:00:00	26	94	1720	1800	0.96
7702	ลงเพลินจิตเหนือ	13.743638	100.5486377	exat	working	2022-08-09T00:00:00	7:00:00	8:00:00	12	121	5528	1800	3.07
7703	ลงเพลินจิตเหนือ	13.743638	100.5486377	exat	working	2022-08-09T00:00:00	8:00:00	9:00:00	9	121	6435	1800	3.58
7704	ลงเพลินจิตเหนือ	13.743638	100.5486377	exat	working	2022-08-09T00:00:00	9:00:00	10:00:00	6	121	6427	1800	3.57
7705	ลงเพลินจิตเหนือ	13.743638	100.5486377	exat	working	2022-08-09T00:00:00	10:00:00	11:00:00	5	122	6378	1800	3.54
7706	ลงเพลินจิตเหนือ	13.743638	100.5486377	exat	working	2022-08-09T00:00:00	11:00:00	12:00:00	12	121	4462	1800	2.48
7707	ลงเพลินจิตเหนือ	13.743638	100.5486377	exat	working	2022-08-09T00:00:00	12:00:00	13:00:00	7	121	6412	1800	3.56
7708	ลงเพลินจิตเหนือ	13.743638	100.5486377	exat	working	2022-08-09T00:00:00	13:00:00	14:00:00	7	121	6363	1800	3.54
7709	ลงเพลินจิตเหนือ	13.743638	100.5486377	exat	working	2022-08-09T00:00:00	14:00:00	15:00:00	8	121	6409	1800	3.56
7710	ลงเพลินจิตเหนือ	13.743638	100.5486377	exat	working	2022-08-09T00:00:00	15:00:00	16:00:00	6	121	6377	1800	3.54
7711	ลงเพลินจิตเหนือ	13.743638	100.5486377	exat	working	2022-08-09T00:00:00	16:00:00	17:00:00	9	121	4177	1800	2.32
7712	ลงเพลินจิตเหนือ	13.743638	100.5486377	exat	working	2022-08-09T00:00:00	17:00:00	18:00:00	7	121	5352	1800	2.97
7713	ลงเพลินจิตเหนือ	13.743638	100.5486377	exat	working	2022-08-09T00:00:00	18:00:00	19:00:00	9	121	3827	1800	2.13
7714	ลงเพลินจิตเหนือ	13.743638	100.5486377	exat	working	2022-09-09T00:00:00	5:00:00	6:00:00	40	42	793	1800	0.44
7715	ลงเพลินจิตเหนือ	13.743638	100.5486377	exat	working	2022-09-09T00:00:00	6:00:00	7:00:00	28	128	2369	1800	1.32
7716	ลงเพลินจิตเหนือ	13.743638	100.5486377	exat	working	2022-09-09T00:00:00	7:00:00	8:00:00	21	121	8313	1800	4.62
7717	ลงเพลินจิตเหนือ	13.743638	100.5486377	exat	working	2022-09-09T00:00:00	8:00:00	9:00:00	21	121	8716	1800	4.84
7718	ลงเพลินจิตเหนือ	13.743638	100.5486377	exat	working	2022-09-09T00:00:00	9:00:00	10:00:00	21	121	8653	1800	4.81
7719	ลงเพลินจิตเหนือ	13.743638	100.5486377	exat	working	2022-09-09T00:00:00	10:00:00	11:00:00	21	121	8676	1800	4.82
7720	ลงเพลินจิตเหนือ	13.743638	100.5486377	exat	working	2022-09-09T00:00:00	11:00:00	12:00:00	21	121	6930	1800	3.85
7721	ลงเพลินจิตเหนือ	13.743638	100.5486377	exat	working	2022-09-09T00:00:00	12:00:00	13:00:00	21	121	8652	1800	4.81
7722	ลงเพลินจิตเหนือ	13.743638	100.5486377	exat	working	2022-09-09T00:00:00	13:00:00	14:00:00	21	121	8575	1800	4.76
7723	ลงเพลินจิตเหนือ	13.743638	100.5486377	exat	working	2022-09-09T00:00:00	14:00:00	15:00:00	21	121	8666	1800	4.81
7724	ลงเพลินจิตเหนือ	13.743638	100.5486377	exat	working	2022-09-09T00:00:00	15:00:00	16:00:00	21	122	8680	1800	4.82
7725	ลงเพลินจิตเหนือ	13.743638	100.5486377	exat	working	2022-09-09T00:00:00	16:00:00	17:00:00	21	121	6338	1800	3.52
7726	ลงเพลินจิตเหนือ	13.743638	100.5486377	exat	working	2022-09-09T00:00:00	17:00:00	18:00:00	21	121	8180	1800	4.54
7727	ลงเพลินจิตเหนือ	13.743638	100.5486377	exat	working	2022-09-09T00:00:00	18:00:00	19:00:00	21	122	4910	1800	2.73
7728	ลงเพลินจิตเหนือ	13.743638	100.5486377	exat	working	2022-10-09T00:00:00	5:00:00	6:00:00	29	37	608	1800	0.34
7729	ลงเพลินจิตเหนือ	13.743638	100.5486377	exat	holiday	2022-10-09T00:00:00	6:00:00	7:00:00	21	121	1996	1800	1.11
7730	ลงเพลินจิตเหนือ	13.743638	100.5486377	exat	holiday	2022-10-09T00:00:00	7:00:00	8:00:00	21	122	3447	1800	1.92
7731	ลงเพลินจิตเหนือ	13.743638	100.5486377	exat	holiday	2022-10-09T00:00:00	8:00:00	9:00:00	21	121	5637	1800	3.13
7732	ลงเพลินจิตเหนือ	13.743638	100.5486377	exat	working	2022-10-09T00:00:00	9:00:00	10:00:00	21	121	5475	1800	3.04
7733	ลงเพลินจิตเหนือ	13.743638	100.5486377	exat	working	2022-10-09T00:00:00	10:00:00	11:00:00	21	121	5601	1800	3.11
7734	ลงเพลินจิตเหนือ	13.743638	100.5486377	exat	holiday	2022-10-09T00:00:00	11:00:00	12:00:00	21	121	7592	1800	4.22
7735	ลงเพลินจิตเหนือ	13.743638	100.5486377	exat	working	2022-10-09T00:00:00	12:00:00	13:00:00	21	121	5548	1800	3.08
7736	ลงเพลินจิตเหนือ	13.743638	100.5486377	exat	working	2022-10-09T00:00:00	13:00:00	14:00:00	21	121	5605	1800	3.11
7737	ลงเพลินจิตเหนือ	13.743638	100.5486377	exat	working	2022-10-09T00:00:00	14:00:00	15:00:00	21	121	5604	1800	3.11
7738	ลงเพลินจิตเหนือ	13.743638	100.5486377	exat	working	2022-10-09T00:00:00	15:00:00	16:00:00	21	122	5529	1800	3.07
7739	ลงเพลินจิตเหนือ	13.743638	100.5486377	exat	holiday	2022-10-09T00:00:00	16:00:00	17:00:00	21	121	7296	1800	4.05
7740	ลงเพลินจิตเหนือ	13.743638	100.5486377	exat	holiday	2022-10-09T00:00:00	17:00:00	18:00:00	21	121	7065	1800	3.93
7741	ลงเพลินจิตเหนือ	13.743638	100.5486377	exat	holiday	2022-10-09T00:00:00	18:00:00	19:00:00	21	121	4377	1800	2.43
7742	ลงเพลินจิตเหนือ	13.743638	100.5486377	exat	working	2022-11-09T00:00:00	5:00:00	6:00:00	29	37	417	1800	0.23
7743	ลงเพลินจิตเหนือ	13.743638	100.5486377	exat	holiday	2022-11-09T00:00:00	6:00:00	7:00:00	21	121	1208	1800	0.67
7744	ลงเพลินจิตเหนือ	13.743638	100.5486377	exat	holiday	2022-11-09T00:00:00	7:00:00	8:00:00	21	121	2084	1800	1.16
7745	ลงเพลินจิตเหนือ	13.743638	100.5486377	exat	holiday	2022-11-09T00:00:00	8:00:00	9:00:00	21	121	3367	1800	1.87
7746	ลงเพลินจิตเหนือ	13.743638	100.5486377	exat	working	2022-11-09T00:00:00	9:00:00	10:00:00	21	121	3287	1800	1.83
7747	ลงเพลินจิตเหนือ	13.743638	100.5486377	exat	working	2022-11-09T00:00:00	10:00:00	11:00:00	21	121	3364	1800	1.87
7748	ลงเพลินจิตเหนือ	13.743638	100.5486377	exat	holiday	2022-11-09T00:00:00	11:00:00	12:00:00	21	122	4572	1800	2.54
7749	ลงเพลินจิตเหนือ	13.743638	100.5486377	exat	working	2022-11-09T00:00:00	12:00:00	13:00:00	21	121	3320	1800	1.84
7750	ลงเพลินจิตเหนือ	13.743638	100.5486377	exat	working	2022-11-09T00:00:00	13:00:00	14:00:00	21	122	3387	1800	1.88
7751	ลงเพลินจิตเหนือ	13.743638	100.5486377	exat	working	2022-11-09T00:00:00	14:00:00	15:00:00	21	121	3371	1800	1.87
7752	ลงเพลินจิตเหนือ	13.743638	100.5486377	exat	working	2022-11-09T00:00:00	15:00:00	16:00:00	21	121	3339	1800	1.86
7753	ลงเพลินจิตเหนือ	13.743638	100.5486377	exat	holiday	2022-11-09T00:00:00	16:00:00	17:00:00	21	121	4361	1800	2.42
7754	ลงเพลินจิตเหนือ	13.743638	100.5486377	exat	holiday	2022-11-09T00:00:00	17:00:00	18:00:00	21	121	4210	1800	2.34
7755	ลงเพลินจิตเหนือ	13.743638	100.5486377	exat	holiday	2022-11-09T00:00:00	18:00:00	19:00:00	21	121	2626	1800	1.46
7756	ขึ้นเพชรบุรี	13.7496127	100.5487911	exat	working	2022-05-09T00:00:00	5:00:00	6:00:00	52	14	376	2700	0.14
7757	ขึ้นเพชรบุรี	13.7496127	100.5487911	exat	working	2022-05-09T00:00:00	6:00:00	7:00:00	37	43	1092	2700	0.40
7758	ขึ้นเพชรบุรี	13.7496127	100.5487911	exat	working	2022-05-09T00:00:00	7:00:00	8:00:00	37	41	1088	2700	0.40
7759	ขึ้นเพชรบุรี	13.7496127	100.5487911	exat	working	2022-05-09T00:00:00	8:00:00	9:00:00	37	34	706	2700	0.26
7760	ขึ้นเพชรบุรี	13.7496127	100.5487911	exat	working	2022-05-09T00:00:00	9:00:00	10:00:00	33	28	738	2700	0.27
7761	ขึ้นเพชรบุรี	13.7496127	100.5487911	exat	working	2022-05-09T00:00:00	10:00:00	11:00:00	33	24	764	2700	0.28
7762	ขึ้นเพชรบุรี	13.7496127	100.5487911	exat	working	2022-05-09T00:00:00	11:00:00	12:00:00	15	121	7535	2700	2.79
7763	ขึ้นเพชรบุรี	13.7496127	100.5487911	exat	working	2022-05-09T00:00:00	12:00:00	13:00:00	35	32	762	2700	0.28
7764	ขึ้นเพชรบุรี	13.7496127	100.5487911	exat	working	2022-05-09T00:00:00	13:00:00	14:00:00	32	29	752	2700	0.28
7765	ขึ้นเพชรบุรี	13.7496127	100.5487911	exat	working	2022-05-09T00:00:00	14:00:00	15:00:00	35	32	851	2700	0.32
7766	ขึ้นเพชรบุรี	13.7496127	100.5487911	exat	working	2022-05-09T00:00:00	15:00:00	16:00:00	34	30	791	2700	0.29
7767	ขึ้นเพชรบุรี	13.7496127	100.5487911	exat	working	2022-05-09T00:00:00	16:00:00	17:00:00	21	122	1856	2700	0.69
7768	ขึ้นเพชรบุรี	13.7496127	100.5487911	exat	working	2022-05-09T00:00:00	17:00:00	18:00:00	21	121	2021	2700	0.75
7769	ขึ้นเพชรบุรี	13.7496127	100.5487911	exat	working	2022-05-09T00:00:00	18:00:00	19:00:00	37	78	1484	2700	0.55
7770	ขึ้นเพชรบุรี	13.7496127	100.5487911	exat	working	2022-06-09T00:00:00	5:00:00	6:00:00	26	39	348	2700	0.13
7771	ขึ้นเพชรบุรี	13.7496127	100.5487911	exat	working	2022-06-09T00:00:00	6:00:00	7:00:00	19	121	1014	2700	0.38
7772	ขึ้นเพชรบุรี	13.7496127	100.5487911	exat	working	2022-06-09T00:00:00	7:00:00	8:00:00	19	121	2041	2700	0.76
7773	ขึ้นเพชรบุรี	13.7496127	100.5487911	exat	working	2022-06-09T00:00:00	8:00:00	9:00:00	19	121	2585	2700	0.96
7774	ขึ้นเพชรบุรี	13.7496127	100.5487911	exat	working	2022-06-09T00:00:00	9:00:00	10:00:00	15	121	2504	2700	0.93
7775	ขึ้นเพชรบุรี	13.7496127	100.5487911	exat	working	2022-06-09T00:00:00	10:00:00	11:00:00	14	121	2332	2700	0.86
7776	ขึ้นเพชรบุรี	13.7496127	100.5487911	exat	working	2022-06-09T00:00:00	11:00:00	12:00:00	15	121	7605	2700	2.82
7777	ขึ้นเพชรบุรี	13.7496127	100.5487911	exat	working	2022-06-09T00:00:00	12:00:00	13:00:00	16	121	2488	2700	0.92
7778	ขึ้นเพชรบุรี	13.7496127	100.5487911	exat	working	2022-06-09T00:00:00	13:00:00	14:00:00	16	121	2531	2700	0.94
7779	ขึ้นเพชรบุรี	13.7496127	100.5487911	exat	working	2022-06-09T00:00:00	14:00:00	15:00:00	17	121	2666	2700	0.99
7780	ขึ้นเพชรบุรี	13.7496127	100.5487911	exat	working	2022-06-09T00:00:00	15:00:00	16:00:00	16	121	2588	2700	0.96
7781	ขึ้นเพชรบุรี	13.7496127	100.5487911	exat	working	2022-06-09T00:00:00	16:00:00	17:00:00	3	121	3456	2700	1.28
7782	ขึ้นเพชรบุรี	13.7496127	100.5487911	exat	working	2022-06-09T00:00:00	17:00:00	18:00:00	5	121	3818	2700	1.41
7783	ขึ้นเพชรบุรี	13.7496127	100.5487911	exat	working	2022-06-09T00:00:00	18:00:00	19:00:00	21	121	3177	2700	1.18
7784	ขึ้นเพชรบุรี	13.7496127	100.5487911	exat	working	2022-07-09T00:00:00	5:00:00	6:00:00	29	41	305	2700	0.11
7785	ขึ้นเพชรบุรี	13.7496127	100.5487911	exat	working	2022-07-09T00:00:00	6:00:00	7:00:00	21	122	913	2700	0.34
7786	ขึ้นเพชรบุรี	13.7496127	100.5487911	exat	working	2022-07-09T00:00:00	7:00:00	8:00:00	21	121	2957	2700	1.10
7787	ขึ้นเพชรบุรี	13.7496127	100.5487911	exat	working	2022-07-09T00:00:00	8:00:00	9:00:00	21	121	4424	2700	1.64
7788	ขึ้นเพชรบุรี	13.7496127	100.5487911	exat	working	2022-07-09T00:00:00	9:00:00	10:00:00	21	121	4411	2700	1.63
7789	ขึ้นเพชรบุรี	13.7496127	100.5487911	exat	working	2022-07-09T00:00:00	10:00:00	11:00:00	21	122	4332	2700	1.60
7790	ขึ้นเพชรบุรี	13.7496127	100.5487911	exat	working	2022-07-09T00:00:00	11:00:00	12:00:00	15	121	7527	2700	2.79
7791	ขึ้นเพชรบุรี	13.7496127	100.5487911	exat	working	2022-07-09T00:00:00	12:00:00	13:00:00	21	121	4368	2700	1.62
7792	ขึ้นเพชรบุรี	13.7496127	100.5487911	exat	working	2022-07-09T00:00:00	13:00:00	14:00:00	21	121	4395	2700	1.63
7793	ขึ้นเพชรบุรี	13.7496127	100.5487911	exat	working	2022-07-09T00:00:00	14:00:00	15:00:00	21	122	4458	2700	1.65
7794	ขึ้นเพชรบุรี	13.7496127	100.5487911	exat	working	2022-07-09T00:00:00	15:00:00	16:00:00	21	121	4392	2700	1.63
7795	ขึ้นเพชรบุรี	13.7496127	100.5487911	exat	working	2022-07-09T00:00:00	16:00:00	17:00:00	5	122	5006	2700	1.85
7796	ขึ้นเพชรบุรี	13.7496127	100.5487911	exat	working	2022-07-09T00:00:00	17:00:00	18:00:00	9	122	5550	2700	2.06
7797	ขึ้นเพชรบุรี	13.7496127	100.5487911	exat	working	2022-07-09T00:00:00	18:00:00	19:00:00	6	122	4777	2700	1.77
7798	ขึ้นเพชรบุรี	13.7496127	100.5487911	exat	working	2022-08-09T00:00:00	5:00:00	6:00:00	29	40	447	2700	0.17
7799	ขึ้นเพชรบุรี	13.7496127	100.5487911	exat	working	2022-08-09T00:00:00	6:00:00	7:00:00	21	121	1475	2700	0.55
7800	ขึ้นเพชรบุรี	13.7496127	100.5487911	exat	working	2022-08-09T00:00:00	7:00:00	8:00:00	21	121	3327	2700	1.23
7801	ขึ้นเพชรบุรี	13.7496127	100.5487911	exat	working	2022-08-09T00:00:00	8:00:00	9:00:00	21	122	3302	2700	1.22
7802	ขึ้นเพชรบุรี	13.7496127	100.5487911	exat	working	2022-08-09T00:00:00	9:00:00	10:00:00	21	122	3337	2700	1.24
7803	ขึ้นเพชรบุรี	13.7496127	100.5487911	exat	working	2022-08-09T00:00:00	10:00:00	11:00:00	21	121	3253	2700	1.20
7804	ขึ้นเพชรบุรี	13.7496127	100.5487911	exat	working	2022-08-09T00:00:00	11:00:00	12:00:00	8	121	5006	2700	1.85
7805	ขึ้นเพชรบุรี	13.7496127	100.5487911	exat	working	2022-08-09T00:00:00	12:00:00	13:00:00	21	121	3232	2700	1.20
7806	ขึ้นเพชรบุรี	13.7496127	100.5487911	exat	working	2022-08-09T00:00:00	13:00:00	14:00:00	21	121	3246	2700	1.20
7807	ขึ้นเพชรบุรี	13.7496127	100.5487911	exat	working	2022-08-09T00:00:00	14:00:00	15:00:00	21	121	3320	2700	1.23
7808	ขึ้นเพชรบุรี	13.7496127	100.5487911	exat	working	2022-08-09T00:00:00	15:00:00	16:00:00	21	122	3261	2700	1.21
7809	ขึ้นเพชรบุรี	13.7496127	100.5487911	exat	working	2022-08-09T00:00:00	16:00:00	17:00:00	3	121	4061	2700	1.50
7810	ขึ้นเพชรบุรี	13.7496127	100.5487911	exat	working	2022-08-09T00:00:00	17:00:00	18:00:00	16	121	4517	2700	1.67
7811	ขึ้นเพชรบุรี	13.7496127	100.5487911	exat	working	2022-08-09T00:00:00	18:00:00	19:00:00	3	121	3492	2700	1.29
7812	ขึ้นเพชรบุรี	13.7496127	100.5487911	exat	working	2022-09-09T00:00:00	5:00:00	6:00:00	29	37	631	2700	0.23
7813	ขึ้นเพชรบุรี	13.7496127	100.5487911	exat	working	2022-09-09T00:00:00	6:00:00	7:00:00	21	121	2021	2700	0.75
7814	ขึ้นเพชรบุรี	13.7496127	100.5487911	exat	working	2022-09-09T00:00:00	7:00:00	8:00:00	21	122	3694	2700	1.37
7815	ขึ้นเพชรบุรี	13.7496127	100.5487911	exat	working	2022-09-09T00:00:00	8:00:00	9:00:00	21	121	2233	2700	0.83
7816	ขึ้นเพชรบุรี	13.7496127	100.5487911	exat	working	2022-09-09T00:00:00	9:00:00	10:00:00	21	121	2189	2700	0.81
7817	ขึ้นเพชรบุรี	13.7496127	100.5487911	exat	working	2022-09-09T00:00:00	10:00:00	11:00:00	21	121	2160	2700	0.80
7818	ขึ้นเพชรบุรี	13.7496127	100.5487911	exat	working	2022-09-09T00:00:00	11:00:00	12:00:00	21	121	2393	2700	0.89
7819	ขึ้นเพชรบุรี	13.7496127	100.5487911	exat	working	2022-09-09T00:00:00	12:00:00	13:00:00	21	122	2083	2700	0.77
7820	ขึ้นเพชรบุรี	13.7496127	100.5487911	exat	working	2022-09-09T00:00:00	13:00:00	14:00:00	21	122	2072	2700	0.77
7821	ขึ้นเพชรบุรี	13.7496127	100.5487911	exat	working	2022-09-09T00:00:00	14:00:00	15:00:00	21	121	2192	2700	0.81
7822	ขึ้นเพชรบุรี	13.7496127	100.5487911	exat	working	2022-09-09T00:00:00	15:00:00	16:00:00	21	121	2152	2700	0.80
7823	ขึ้นเพชรบุรี	13.7496127	100.5487911	exat	working	2022-09-09T00:00:00	16:00:00	17:00:00	21	121	3166	2700	1.17
7824	ขึ้นเพชรบุรี	13.7496127	100.5487911	exat	working	2022-09-09T00:00:00	17:00:00	18:00:00	24	148	3487	2700	1.29
7825	ขึ้นเพชรบุรี	13.7496127	100.5487911	exat	working	2022-09-09T00:00:00	18:00:00	19:00:00	21	121	2213	2700	0.82
7826	ขึ้นเพชรบุรี	13.7496127	100.5487911	exat	working	2022-10-09T00:00:00	5:00:00	6:00:00	38	16	498	2700	0.18
7827	ขึ้นเพชรบุรี	13.7496127	100.5487911	exat	holiday	2022-10-09T00:00:00	6:00:00	7:00:00	27	51	1493	2700	0.55
7828	ขึ้นเพชรบุรี	13.7496127	100.5487911	exat	holiday	2022-10-09T00:00:00	7:00:00	8:00:00	30	54	2390	2700	0.89
7829	ขึ้นเพชรบุรี	13.7496127	100.5487911	exat	holiday	2022-10-09T00:00:00	8:00:00	9:00:00	30	72	2554	2700	0.95
7830	ขึ้นเพชรบุรี	13.7496127	100.5487911	exat	working	2022-10-09T00:00:00	9:00:00	10:00:00	28	70	2515	2700	0.93
7831	ขึ้นเพชรบุรี	13.7496127	100.5487911	exat	working	2022-10-09T00:00:00	10:00:00	11:00:00	25	69	2413	2700	0.89
7832	ขึ้นเพชรบุรี	13.7496127	100.5487911	exat	holiday	2022-10-09T00:00:00	11:00:00	12:00:00	27	182	5897	2700	2.18
7833	ขึ้นเพชรบุรี	13.7496127	100.5487911	exat	working	2022-10-09T00:00:00	12:00:00	13:00:00	28	69	2543	2700	0.94
7834	ขึ้นเพชรบุรี	13.7496127	100.5487911	exat	working	2022-10-09T00:00:00	13:00:00	14:00:00	26	68	2427	2700	0.90
7835	ขึ้นเพชรบุรี	13.7496127	100.5487911	exat	working	2022-10-09T00:00:00	14:00:00	15:00:00	27	69	2483	2700	0.92
7836	ขึ้นเพชรบุรี	13.7496127	100.5487911	exat	working	2022-10-09T00:00:00	15:00:00	16:00:00	29	68	2536	2700	0.94
7837	ขึ้นเพชรบุรี	13.7496127	100.5487911	exat	holiday	2022-10-09T00:00:00	16:00:00	17:00:00	11	121	5595	2700	2.07
7838	ขึ้นเพชรบุรี	13.7496127	100.5487911	exat	holiday	2022-10-09T00:00:00	17:00:00	18:00:00	13	121	4974	2700	1.84
7839	ขึ้นเพชรบุรี	13.7496127	100.5487911	exat	holiday	2022-10-09T00:00:00	18:00:00	19:00:00	9	121	4068	2700	1.51
7840	ขึ้นเพชรบุรี	13.7496127	100.5487911	exat	working	2022-11-09T00:00:00	5:00:00	6:00:00	22	40	285	2700	0.11
7841	ขึ้นเพชรบุรี	13.7496127	100.5487911	exat	holiday	2022-11-09T00:00:00	6:00:00	7:00:00	16	122	872	2700	0.32
7842	ขึ้นเพชรบุรี	13.7496127	100.5487911	exat	holiday	2022-11-09T00:00:00	7:00:00	8:00:00	18	121	1435	2700	0.53
7843	ขึ้นเพชรบุรี	13.7496127	100.5487911	exat	holiday	2022-11-09T00:00:00	8:00:00	9:00:00	18	121	1557	2700	0.58
7844	ขึ้นเพชรบุรี	13.7496127	100.5487911	exat	working	2022-11-09T00:00:00	9:00:00	10:00:00	17	121	1523	2700	0.56
7845	ขึ้นเพชรบุรี	13.7496127	100.5487911	exat	working	2022-11-09T00:00:00	10:00:00	11:00:00	15	121	1429	2700	0.53
7846	ขึ้นเพชรบุรี	13.7496127	100.5487911	exat	holiday	2022-11-09T00:00:00	11:00:00	12:00:00	16	121	3540	2700	1.31
7847	ขึ้นเพชรบุรี	13.7496127	100.5487911	exat	working	2022-11-09T00:00:00	12:00:00	13:00:00	17	122	1495	2700	0.55
7848	ขึ้นเพชรบุรี	13.7496127	100.5487911	exat	working	2022-11-09T00:00:00	13:00:00	14:00:00	16	121	1478	2700	0.55
7849	ขึ้นเพชรบุรี	13.7496127	100.5487911	exat	working	2022-11-09T00:00:00	14:00:00	15:00:00	16	121	1435	2700	0.53
7850	ขึ้นเพชรบุรี	13.7496127	100.5487911	exat	working	2022-11-09T00:00:00	15:00:00	16:00:00	17	122	1474	2700	0.55
7851	ขึ้นเพชรบุรี	13.7496127	100.5487911	exat	holiday	2022-11-09T00:00:00	16:00:00	17:00:00	7	121	3429	2700	1.27
7852	ขึ้นเพชรบุรี	13.7496127	100.5487911	exat	holiday	2022-11-09T00:00:00	17:00:00	18:00:00	8	121	3003	2700	1.11
7853	ขึ้นเพชรบุรี	13.7496127	100.5487911	exat	holiday	2022-11-09T00:00:00	18:00:00	19:00:00	6	121	2380	2700	0.88
7854	ลงเพชรบุรี	13.7494881	100.5493036	exat	working	2022-05-09T00:00:00	5:00:00	6:00:00	68	6	696	1800	0.39
7855	ลงเพชรบุรี	13.7494881	100.5493036	exat	working	2022-05-09T00:00:00	6:00:00	7:00:00	49	20	2003	1800	1.11
7856	ลงเพชรบุรี	13.7494881	100.5493036	exat	working	2022-05-09T00:00:00	7:00:00	8:00:00	38	33	2723	1800	1.51
7857	ลงเพชรบุรี	13.7494881	100.5493036	exat	working	2022-05-09T00:00:00	8:00:00	9:00:00	51	35	2550	1800	1.42
7858	ลงเพชรบุรี	13.7494881	100.5493036	exat	working	2022-05-09T00:00:00	9:00:00	10:00:00	48	32	2429	1800	1.35
7859	ลงเพชรบุรี	13.7494881	100.5493036	exat	working	2022-05-09T00:00:00	10:00:00	11:00:00	48	33	2542	1800	1.41
7860	ลงเพชรบุรี	13.7494881	100.5493036	exat	working	2022-05-09T00:00:00	11:00:00	12:00:00	67	12	1094	1800	0.61
7861	ลงเพชรบุรี	13.7494881	100.5493036	exat	working	2022-05-09T00:00:00	12:00:00	13:00:00	46	30	2393	1800	1.33
7862	ลงเพชรบุรี	13.7494881	100.5493036	exat	working	2022-05-09T00:00:00	13:00:00	14:00:00	49	34	2413	1800	1.34
7863	ลงเพชรบุรี	13.7494881	100.5493036	exat	working	2022-05-09T00:00:00	14:00:00	15:00:00	48	33	2383	1800	1.32
7864	ลงเพชรบุรี	13.7494881	100.5493036	exat	working	2022-05-09T00:00:00	15:00:00	16:00:00	47	31	2392	1800	1.33
7865	ลงเพชรบุรี	13.7494881	100.5493036	exat	working	2022-05-09T00:00:00	16:00:00	17:00:00	82	23	1417	1800	0.79
7866	ลงเพชรบุรี	13.7494881	100.5493036	exat	working	2022-05-09T00:00:00	17:00:00	18:00:00	73	9	362	1800	0.20
7867	ลงเพชรบุรี	13.7494881	100.5493036	exat	working	2022-05-09T00:00:00	18:00:00	19:00:00	66	10	712	1800	0.40
7868	ลงเพชรบุรี	13.7494881	100.5493036	exat	working	2022-06-09T00:00:00	5:00:00	6:00:00	87	5	447	1800	0.25
7869	ลงเพชรบุรี	13.7494881	100.5493036	exat	working	2022-06-09T00:00:00	6:00:00	7:00:00	61	14	1281	1800	0.71
7870	ลงเพชรบุรี	13.7494881	100.5493036	exat	working	2022-06-09T00:00:00	7:00:00	8:00:00	56	30	2892	1800	1.61
7871	ลงเพชรบุรี	13.7494881	100.5493036	exat	working	2022-06-09T00:00:00	8:00:00	9:00:00	56	26	1624	1800	0.90
7872	ลงเพชรบุรี	13.7494881	100.5493036	exat	working	2022-06-09T00:00:00	9:00:00	10:00:00	52	24	1497	1800	0.83
7873	ลงเพชรบุรี	13.7494881	100.5493036	exat	working	2022-06-09T00:00:00	10:00:00	11:00:00	52	24	1516	1800	0.84
7874	ลงเพชรบุรี	13.7494881	100.5493036	exat	working	2022-06-09T00:00:00	11:00:00	12:00:00	55	14	1088	1800	0.60
7875	ลงเพชรบุรี	13.7494881	100.5493036	exat	working	2022-06-09T00:00:00	12:00:00	13:00:00	52	21	1557	1800	0.87
7876	ลงเพชรบุรี	13.7494881	100.5493036	exat	working	2022-06-09T00:00:00	13:00:00	14:00:00	53	25	1532	1800	0.85
7877	ลงเพชรบุรี	13.7494881	100.5493036	exat	working	2022-06-09T00:00:00	14:00:00	15:00:00	53	23	1484	1800	0.82
7878	ลงเพชรบุรี	13.7494881	100.5493036	exat	working	2022-06-09T00:00:00	15:00:00	16:00:00	52	23	1487	1800	0.83
7879	ลงเพชรบุรี	13.7494881	100.5493036	exat	working	2022-06-09T00:00:00	16:00:00	17:00:00	61	20	1358	1800	0.75
7880	ลงเพชรบุรี	13.7494881	100.5493036	exat	working	2022-06-09T00:00:00	17:00:00	18:00:00	58	11	630	1800	0.35
7881	ลงเพชรบุรี	13.7494881	100.5493036	exat	working	2022-06-09T00:00:00	18:00:00	19:00:00	53	19	707	1800	0.39
7882	ลงเพชรบุรี	13.7494881	100.5493036	exat	working	2022-07-09T00:00:00	5:00:00	6:00:00	104	3	182	1800	0.10
7883	ลงเพชรบุรี	13.7494881	100.5493036	exat	working	2022-07-09T00:00:00	6:00:00	7:00:00	73	9	543	1800	0.30
7884	ลงเพชรบุรี	13.7494881	100.5493036	exat	working	2022-07-09T00:00:00	7:00:00	8:00:00	74	28	3100	1800	1.72
7885	ลงเพชรบุรี	13.7494881	100.5493036	exat	working	2022-07-09T00:00:00	8:00:00	9:00:00	60	17	734	1800	0.41
7886	ลงเพชรบุรี	13.7494881	100.5493036	exat	working	2022-07-09T00:00:00	9:00:00	10:00:00	56	16	632	1800	0.35
7887	ลงเพชรบุรี	13.7494881	100.5493036	exat	working	2022-07-09T00:00:00	10:00:00	11:00:00	56	15	604	1800	0.34
7888	ลงเพชรบุรี	13.7494881	100.5493036	exat	working	2022-07-09T00:00:00	11:00:00	12:00:00	43	16	1093	1800	0.61
7889	ลงเพชรบุรี	13.7494881	100.5493036	exat	working	2022-07-09T00:00:00	12:00:00	13:00:00	58	12	726	1800	0.40
7890	ลงเพชรบุรี	13.7494881	100.5493036	exat	working	2022-07-09T00:00:00	13:00:00	14:00:00	57	15	665	1800	0.37
7891	ลงเพชรบุรี	13.7494881	100.5493036	exat	working	2022-07-09T00:00:00	14:00:00	15:00:00	57	14	587	1800	0.33
7892	ลงเพชรบุรี	13.7494881	100.5493036	exat	working	2022-07-09T00:00:00	15:00:00	16:00:00	56	14	670	1800	0.37
7893	ลงเพชรบุรี	13.7494881	100.5493036	exat	working	2022-07-09T00:00:00	16:00:00	17:00:00	40	17	1311	1800	0.73
7894	ลงเพชรบุรี	13.7494881	100.5493036	exat	working	2022-07-09T00:00:00	17:00:00	18:00:00	43	13	904	1800	0.50
7895	ลงเพชรบุรี	13.7494881	100.5493036	exat	working	2022-07-09T00:00:00	18:00:00	19:00:00	40	29	705	1800	0.39
7896	ลงเพชรบุรี	13.7494881	100.5493036	exat	working	2022-08-09T00:00:00	5:00:00	6:00:00	83	4	223	1800	0.12
7897	ลงเพชรบุรี	13.7494881	100.5493036	exat	working	2022-08-09T00:00:00	6:00:00	7:00:00	58	11	649	1800	0.36
7898	ลงเพชรบุรี	13.7494881	100.5493036	exat	working	2022-08-09T00:00:00	7:00:00	8:00:00	58	32	2093	1800	1.16
7899	ลงเพชรบุรี	13.7494881	100.5493036	exat	working	2022-08-09T00:00:00	8:00:00	9:00:00	56	19	1374	1800	0.76
7900	ลงเพชรบุรี	13.7494881	100.5493036	exat	working	2022-08-09T00:00:00	9:00:00	10:00:00	52	18	1289	1800	0.72
7901	ลงเพชรบุรี	13.7494881	100.5493036	exat	working	2022-08-09T00:00:00	10:00:00	11:00:00	53	16	1238	1800	0.69
7902	ลงเพชรบุรี	13.7494881	100.5493036	exat	working	2022-08-09T00:00:00	11:00:00	12:00:00	53	20	898	1800	0.50
7903	ลงเพชรบุรี	13.7494881	100.5493036	exat	working	2022-08-09T00:00:00	12:00:00	13:00:00	52	16	1350	1800	0.75
7904	ลงเพชรบุรี	13.7494881	100.5493036	exat	working	2022-08-09T00:00:00	13:00:00	14:00:00	52	18	1271	1800	0.71
7905	ลงเพชรบุรี	13.7494881	100.5493036	exat	working	2022-08-09T00:00:00	14:00:00	15:00:00	54	16	1273	1800	0.71
7906	ลงเพชรบุรี	13.7494881	100.5493036	exat	working	2022-08-09T00:00:00	15:00:00	16:00:00	52	17	1277	1800	0.71
7907	ลงเพชรบุรี	13.7494881	100.5493036	exat	working	2022-08-09T00:00:00	16:00:00	17:00:00	49	13	909	1800	0.51
7908	ลงเพชรบุรี	13.7494881	100.5493036	exat	working	2022-08-09T00:00:00	17:00:00	18:00:00	45	13	906	1800	0.50
7909	ลงเพชรบุรี	13.7494881	100.5493036	exat	working	2022-08-09T00:00:00	18:00:00	19:00:00	40	29	715	1800	0.40
7910	ลงเพชรบุรี	13.7494881	100.5493036	exat	working	2022-09-09T00:00:00	5:00:00	6:00:00	62	4	244	1800	0.14
7911	ลงเพชรบุรี	13.7494881	100.5493036	exat	working	2022-09-09T00:00:00	6:00:00	7:00:00	44	12	726	1800	0.40
7912	ลงเพชรบุรี	13.7494881	100.5493036	exat	working	2022-09-09T00:00:00	7:00:00	8:00:00	42	35	1092	1800	0.61
7913	ลงเพชรบุรี	13.7494881	100.5493036	exat	working	2022-09-09T00:00:00	8:00:00	9:00:00	51	21	2014	1800	1.12
7914	ลงเพชรบุรี	13.7494881	100.5493036	exat	working	2022-09-09T00:00:00	9:00:00	10:00:00	48	20	1892	1800	1.05
7915	ลงเพชรบุรี	13.7494881	100.5493036	exat	working	2022-09-09T00:00:00	10:00:00	11:00:00	50	17	1909	1800	1.06
7916	ลงเพชรบุรี	13.7494881	100.5493036	exat	working	2022-09-09T00:00:00	11:00:00	12:00:00	62	24	729	1800	0.41
7917	ลงเพชรบุรี	13.7494881	100.5493036	exat	working	2022-09-09T00:00:00	12:00:00	13:00:00	47	20	1978	1800	1.10
7918	ลงเพชรบุรี	13.7494881	100.5493036	exat	working	2022-09-09T00:00:00	13:00:00	14:00:00	47	20	1899	1800	1.06
7919	ลงเพชรบุรี	13.7494881	100.5493036	exat	working	2022-09-09T00:00:00	14:00:00	15:00:00	50	17	1943	1800	1.08
7920	ลงเพชรบุรี	13.7494881	100.5493036	exat	working	2022-09-09T00:00:00	15:00:00	16:00:00	49	19	1864	1800	1.04
7921	ลงเพชรบุรี	13.7494881	100.5493036	exat	working	2022-09-09T00:00:00	16:00:00	17:00:00	57	9	553	1800	0.31
7922	ลงเพชรบุรี	13.7494881	100.5493036	exat	working	2022-09-09T00:00:00	17:00:00	18:00:00	48	13	910	1800	0.51
7923	ลงเพชรบุรี	13.7494881	100.5493036	exat	working	2022-10-09T00:00:00	5:00:00	6:00:00	65	3	223	1800	0.12
7924	ลงเพชรบุรี	13.7494881	100.5493036	exat	holiday	2022-10-09T00:00:00	6:00:00	7:00:00	46	9	719	1800	0.40
7925	ลงเพชรบุรี	13.7494881	100.5493036	exat	holiday	2022-10-09T00:00:00	8:00:00	9:00:00	91	21	383	1800	0.21
7926	ลงเพชรบุรี	13.7494881	100.5493036	exat	working	2022-10-09T00:00:00	9:00:00	10:00:00	86	19	291	1800	0.16
7927	ลงเพชรบุรี	13.7494881	100.5493036	exat	working	2022-10-09T00:00:00	10:00:00	11:00:00	91	18	269	1800	0.15
7928	ลงเพชรบุรี	13.7494881	100.5493036	exat	holiday	2022-10-09T00:00:00	11:00:00	12:00:00	68	24	1095	1800	0.61
7929	ลงเพชรบุรี	13.7494881	100.5493036	exat	working	2022-10-09T00:00:00	12:00:00	13:00:00	89	17	287	1800	0.16
7930	ลงเพชรบุรี	13.7494881	100.5493036	exat	working	2022-10-09T00:00:00	13:00:00	14:00:00	88	18	358	1800	0.20
7931	ลงเพชรบุรี	13.7494881	100.5493036	exat	working	2022-10-09T00:00:00	14:00:00	15:00:00	90	16	363	1800	0.20
7932	ลงเพชรบุรี	13.7494881	100.5493036	exat	working	2022-10-09T00:00:00	15:00:00	16:00:00	91	18	250	1800	0.14
7933	ลงเพชรบุรี	13.7494881	100.5493036	exat	holiday	2022-10-09T00:00:00	16:00:00	17:00:00	32	16	365	1800	0.20
7934	ลงเพชรบุรี	13.7494881	100.5493036	exat	holiday	2022-10-09T00:00:00	17:00:00	18:00:00	34	16	722	1800	0.40
7935	ลงเพชรบุรี	13.7494881	100.5493036	exat	holiday	2022-10-09T00:00:00	18:00:00	19:00:00	21	122	363	1800	0.20
7936	ลงเพชรบุรี	13.7494881	100.5493036	exat	working	2022-11-09T00:00:00	5:00:00	6:00:00	39	2	138	1800	0.08
7937	ลงเพชรบุรี	13.7494881	100.5493036	exat	holiday	2022-11-09T00:00:00	6:00:00	7:00:00	28	6	456	1800	0.25
7938	ลงเพชรบุรี	13.7494881	100.5493036	exat	holiday	2022-11-09T00:00:00	8:00:00	9:00:00	55	13	218	1800	0.12
7939	ลงเพชรบุรี	13.7494881	100.5493036	exat	working	2022-11-09T00:00:00	9:00:00	10:00:00	52	12	170	1800	0.09
7940	ลงเพชรบุรี	13.7494881	100.5493036	exat	working	2022-11-09T00:00:00	10:00:00	11:00:00	55	11	172	1800	0.10
7941	ลงเพชรบุรี	13.7494881	100.5493036	exat	holiday	2022-11-09T00:00:00	11:00:00	12:00:00	41	14	672	1800	0.37
7942	ลงเพชรบุรี	13.7494881	100.5493036	exat	working	2022-11-09T00:00:00	12:00:00	13:00:00	54	10	159	1800	0.09
7943	ลงเพชรบุรี	13.7494881	100.5493036	exat	working	2022-11-09T00:00:00	13:00:00	14:00:00	53	11	184	1800	0.10
7944	ลงเพชรบุรี	13.7494881	100.5493036	exat	working	2022-11-09T00:00:00	14:00:00	15:00:00	54	10	232	1800	0.13
7945	ลงเพชรบุรี	13.7494881	100.5493036	exat	working	2022-11-09T00:00:00	15:00:00	16:00:00	55	11	164	1800	0.09
7946	ลงเพชรบุรี	13.7494881	100.5493036	exat	holiday	2022-11-09T00:00:00	16:00:00	17:00:00	20	121	217	1800	0.12
7947	ลงเพชรบุรี	13.7494881	100.5493036	exat	holiday	2022-11-09T00:00:00	17:00:00	18:00:00	21	121	452	1800	0.25
7948	ลงเพชรบุรี	13.7494881	100.5493036	exat	holiday	2022-11-09T00:00:00	18:00:00	19:00:00	21	121	234	1800	0.13
7949	เนินเพลินจิต	13.7438195	100.5486124	exat	working	2022-05-09T00:00:00	5:00:00	6:00:00	69	4	231	1800	0.13
7950	เนินเพลินจิต	13.7438195	100.5486124	exat	working	2022-05-09T00:00:00	6:00:00	7:00:00	49	11	724	1800	0.40
7951	เนินเพลินจิต	13.7438195	100.5486124	exat	working	2022-05-09T00:00:00	7:00:00	8:00:00	65	11	724	1800	0.40
7952	เนินเพลินจิต	13.7438195	100.5486124	exat	working	2022-05-09T00:00:00	8:00:00	9:00:00	82	26	1107	1800	0.62
7953	เนินเพลินจิต	13.7438195	100.5486124	exat	working	2022-05-09T00:00:00	9:00:00	10:00:00	80	23	1068	1800	0.59
7954	เนินเพลินจิต	13.7438195	100.5486124	exat	working	2022-05-09T00:00:00	10:00:00	11:00:00	80	23	1089	1800	0.61
7955	เนินเพลินจิต	13.7438195	100.5486124	exat	working	2022-05-09T00:00:00	11:00:00	12:00:00	61	11	383	1800	0.21
7956	เนินเพลินจิต	13.7438195	100.5486124	exat	working	2022-05-09T00:00:00	12:00:00	13:00:00	78	22	1002	1800	0.56
7957	เนินเพลินจิต	13.7438195	100.5486124	exat	working	2022-05-09T00:00:00	13:00:00	14:00:00	81	24	995	1800	0.55
7958	เนินเพลินจิต	13.7438195	100.5486124	exat	working	2022-05-09T00:00:00	14:00:00	15:00:00	80	24	1067	1800	0.59
7959	เนินเพลินจิต	13.7438195	100.5486124	exat	working	2022-05-09T00:00:00	15:00:00	16:00:00	81	22	974	1800	0.54
7960	เนินเพลินจิต	13.7438195	100.5486124	exat	working	2022-05-09T00:00:00	16:00:00	17:00:00	39	25	560	1800	0.31
7961	เนินเพลินจิต	13.7438195	100.5486124	exat	working	2022-05-09T00:00:00	17:00:00	18:00:00	6	121	3225	1800	1.79
7962	เนินเพลินจิต	13.7438195	100.5486124	exat	working	2022-05-09T00:00:00	18:00:00	19:00:00	26	179	3612	1800	2.01
7963	เนินเพลินจิต	13.7438195	100.5486124	exat	working	2022-06-09T00:00:00	5:00:00	6:00:00	48	8	178	1800	0.10
7964	เนินเพลินจิต	13.7438195	100.5486124	exat	working	2022-06-09T00:00:00	6:00:00	7:00:00	34	25	542	1800	0.30
7965	เนินเพลินจิต	13.7438195	100.5486124	exat	working	2022-06-09T00:00:00	7:00:00	8:00:00	43	14	719	1800	0.40
7966	เนินเพลินจิต	13.7438195	100.5486124	exat	working	2022-06-09T00:00:00	8:00:00	9:00:00	50	23	1007	1800	0.56
7967	เนินเพลินจิต	13.7438195	100.5486124	exat	working	2022-06-09T00:00:00	9:00:00	10:00:00	48	20	991	1800	0.55
7968	เนินเพลินจิต	13.7438195	100.5486124	exat	working	2022-06-09T00:00:00	10:00:00	11:00:00	46	19	1018	1800	0.57
7969	เนินเพลินจิต	13.7438195	100.5486124	exat	working	2022-06-09T00:00:00	11:00:00	12:00:00	61	11	350	1800	0.19
7970	เนินเพลินจิต	13.7438195	100.5486124	exat	working	2022-06-09T00:00:00	12:00:00	13:00:00	48	20	918	1800	0.51
7971	เนินเพลินจิต	13.7438195	100.5486124	exat	working	2022-06-09T00:00:00	13:00:00	14:00:00	48	21	899	1800	0.50
7972	เนินเพลินจิต	13.7438195	100.5486124	exat	working	2022-06-09T00:00:00	14:00:00	15:00:00	48	21	931	1800	0.52
7973	เนินเพลินจิต	13.7438195	100.5486124	exat	working	2022-06-09T00:00:00	15:00:00	16:00:00	48	18	850	1800	0.47
7974	เนินเพลินจิต	13.7438195	100.5486124	exat	working	2022-06-09T00:00:00	16:00:00	17:00:00	34	37	1177	1800	0.65
7975	เนินเพลินจิต	13.7438195	100.5486124	exat	working	2022-06-09T00:00:00	17:00:00	18:00:00	9	121	2393	1800	1.33
7976	เนินเพลินจิต	13.7438195	100.5486124	exat	working	2022-06-09T00:00:00	18:00:00	19:00:00	16	121	2814	1800	1.56
7977	เนินเพลินจิต	13.7438195	100.5486124	exat	working	2022-07-09T00:00:00	5:00:00	6:00:00	26	43	121	1800	0.07
7978	เนินเพลินจิต	13.7438195	100.5486124	exat	working	2022-07-09T00:00:00	6:00:00	7:00:00	19	122	362	1800	0.20
7979	เนินเพลินจิต	13.7438195	100.5486124	exat	working	2022-07-09T00:00:00	7:00:00	8:00:00	20	121	704	1800	0.39
7980	เนินเพลินจิต	13.7438195	100.5486124	exat	working	2022-07-09T00:00:00	8:00:00	9:00:00	18	121	896	1800	0.50
7981	เนินเพลินจิต	13.7438195	100.5486124	exat	working	2022-07-09T00:00:00	9:00:00	10:00:00	16	121	859	1800	0.48
7982	เนินเพลินจิต	13.7438195	100.5486124	exat	working	2022-07-09T00:00:00	10:00:00	11:00:00	11	122	926	1800	0.51
7983	เนินเพลินจิต	13.7438195	100.5486124	exat	working	2022-07-09T00:00:00	11:00:00	12:00:00	61	11	362	1800	0.20
7984	เนินเพลินจิต	13.7438195	100.5486124	exat	working	2022-07-09T00:00:00	12:00:00	13:00:00	17	121	787	1800	0.44
7985	เนินเพลินจิต	13.7438195	100.5486124	exat	working	2022-07-09T00:00:00	13:00:00	14:00:00	16	121	792	1800	0.44
7986	เนินเพลินจิต	13.7438195	100.5486124	exat	working	2022-07-09T00:00:00	14:00:00	15:00:00	16	122	825	1800	0.46
7987	เนินเพลินจิต	13.7438195	100.5486124	exat	working	2022-07-09T00:00:00	15:00:00	16:00:00	15	121	764	1800	0.42
7988	เนินเพลินจิต	13.7438195	100.5486124	exat	working	2022-07-09T00:00:00	16:00:00	17:00:00	29	49	1819	1800	1.01
7989	เนินเพลินจิต	13.7438195	100.5486124	exat	working	2022-07-09T00:00:00	17:00:00	18:00:00	11	121	1628	1800	0.90
7990	เนินเพลินจิต	13.7438195	100.5486124	exat	working	2022-07-09T00:00:00	18:00:00	19:00:00	5	121	1994	1800	1.11
7991	เนินเพลินจิต	13.7438195	100.5486124	exat	working	2022-08-09T00:00:00	5:00:00	6:00:00	13	37	116	1800	0.06
7992	เนินเพลินจิต	13.7438195	100.5486124	exat	working	2022-08-09T00:00:00	6:00:00	7:00:00	10	121	381	1800	0.21
7993	เนินเพลินจิต	13.7438195	100.5486124	exat	working	2022-08-09T00:00:00	7:00:00	8:00:00	10	121	1098	1800	0.61
7994	เนินเพลินจิต	13.7438195	100.5486124	exat	working	2022-08-09T00:00:00	8:00:00	9:00:00	9	121	637	1800	0.35
7995	เนินเพลินจิต	13.7438195	100.5486124	exat	working	2022-08-09T00:00:00	9:00:00	10:00:00	7	121	542	1800	0.30
7996	เนินเพลินจิต	13.7438195	100.5486124	exat	working	2022-08-09T00:00:00	10:00:00	11:00:00	4	121	612	1800	0.34
7997	เนินเพลินจิต	13.7438195	100.5486124	exat	working	2022-08-09T00:00:00	11:00:00	12:00:00	31	12	453	1800	0.25
7998	เนินเพลินจิต	13.7438195	100.5486124	exat	working	2022-08-09T00:00:00	12:00:00	13:00:00	8	121	519	1800	0.29
7999	เนินเพลินจิต	13.7438195	100.5486124	exat	working	2022-08-09T00:00:00	13:00:00	14:00:00	6	121	535	1800	0.30
8000	เนินเพลินจิต	13.7438195	100.5486124	exat	working	2022-08-09T00:00:00	14:00:00	15:00:00	6	121	560	1800	0.31
8001	เนินเพลินจิต	13.7438195	100.5486124	exat	working	2022-08-09T00:00:00	15:00:00	16:00:00	6	121	503	1800	0.28
8002	เนินเพลินจิต	13.7438195	100.5486124	exat	working	2022-08-09T00:00:00	16:00:00	17:00:00	28	46	1824	1800	1.01
8003	เนินเพลินจิต	13.7438195	100.5486124	exat	working	2022-08-09T00:00:00	17:00:00	18:00:00	11	121	1630	1800	0.91
8004	เนินเพลินจิต	13.7438195	100.5486124	exat	working	2022-08-09T00:00:00	18:00:00	19:00:00	13	121	1361	1800	0.76
8005	เนินเพลินจิต	13.7438195	100.5486124	exat	working	2022-09-09T00:00:00	5:00:00	6:00:00	30	38	115	1800	0.06
8006	เนินเพลินจิต	13.7438195	100.5486124	exat	working	2022-09-09T00:00:00	6:00:00	7:00:00	21	121	354	1800	0.20
8007	เนินเพลินจิต	13.7438195	100.5486124	exat	working	2022-09-09T00:00:00	7:00:00	8:00:00	21	121	1454	1800	0.81
8008	เนินเพลินจิต	13.7438195	100.5486124	exat	working	2022-09-09T00:00:00	8:00:00	9:00:00	21	121	364	1800	0.20
8009	เนินเพลินจิต	13.7438195	100.5486124	exat	working	2022-09-09T00:00:00	9:00:00	10:00:00	21	121	219	1800	0.12
8010	เนินเพลินจิต	13.7438195	100.5486124	exat	working	2022-09-09T00:00:00	10:00:00	11:00:00	21	121	319	1800	0.18
8011	เนินเพลินจิต	13.7438195	100.5486124	exat	working	2022-09-09T00:00:00	11:00:00	12:00:00	21	122	545	1800	0.30
8012	เนินเพลินจิต	13.7438195	100.5486124	exat	working	2022-09-09T00:00:00	12:00:00	13:00:00	21	121	249	1800	0.14
8013	เนินเพลินจิต	13.7438195	100.5486124	exat	working	2022-09-09T00:00:00	13:00:00	14:00:00	21	121	310	1800	0.17
8014	เนินเพลินจิต	13.7438195	100.5486124	exat	working	2022-09-09T00:00:00	14:00:00	15:00:00	21	121	249	1800	0.14
8015	เนินเพลินจิต	13.7438195	100.5486124	exat	working	2022-09-09T00:00:00	15:00:00	16:00:00	21	121	238	1800	0.13
8016	เนินเพลินจิต	13.7438195	100.5486124	exat	working	2022-09-09T00:00:00	16:00:00	17:00:00	28	43	1831	1800	1.02
8017	เนินเพลินจิต	13.7438195	100.5486124	exat	working	2022-09-09T00:00:00	18:00:00	19:00:00	21	122	713	1800	0.40
8018	เนินเพลินจิต	13.7438195	100.5486124	exat	working	2022-10-09T00:00:00	5:00:00	6:00:00	29	37	52	1800	0.03
8019	เนินเพลินจิต	13.7438195	100.5486124	exat	working	2022-10-09T00:00:00	6:00:00	7:00:00	21	121	153	1800	0.09
8020	เนินเพลินจิต	13.7438195	100.5486124	exat	working	2022-10-09T00:00:00	7:00:00	8:00:00	21	121	243	1800	0.14
8021	เนินเพลินจิต	13.7438195	100.5486124	exat	holiday	2022-10-09T00:00:00	8:00:00	9:00:00	21	121	368	1800	0.20
8022	เนินเพลินจิต	13.7438195	100.5486124	exat	working	2022-10-09T00:00:00	9:00:00	10:00:00	21	122	299	1800	0.17
8023	เนินเพลินจิต	13.7438195	100.5486124	exat	working	2022-10-09T00:00:00	10:00:00	11:00:00	21	121	222	1800	0.12
8024	เนินเพลินจิต	13.7438195	100.5486124	exat	holiday	2022-10-09T00:00:00	11:00:00	12:00:00	57	18	725	1800	0.40
8025	เนินเพลินจิต	13.7438195	100.5486124	exat	working	2022-10-09T00:00:00	12:00:00	13:00:00	21	121	234	1800	0.13
8026	เนินเพลินจิต	13.7438195	100.5486124	exat	working	2022-10-09T00:00:00	13:00:00	14:00:00	21	121	360	1800	0.20
8027	เนินเพลินจิต	13.7438195	100.5486124	exat	working	2022-10-09T00:00:00	14:00:00	15:00:00	21	121	297	1800	0.17
8028	เนินเพลินจิต	13.7438195	100.5486124	exat	working	2022-10-09T00:00:00	15:00:00	16:00:00	21	121	247	1800	0.14
8029	เนินเพลินจิต	13.7438195	100.5486124	exat	holiday	2022-10-09T00:00:00	16:00:00	17:00:00	50	11	349	1800	0.19
8030	เนินเพลินจิต	13.7438195	100.5486124	exat	holiday	2022-10-09T00:00:00	17:00:00	18:00:00	43	13	904	1800	0.50
8031	เนินเพลินจิต	13.7438195	100.5486124	exat	holiday	2022-10-09T00:00:00	18:00:00	19:00:00	32	20	373	1800	0.21
8032	เนินเพลินจิต	13.7438195	100.5486124	exat	working	2022-11-09T00:00:00	5:00:00	6:00:00	29	41	51	1800	0.03
8033	เนินเพลินจิต	13.7438195	100.5486124	exat	working	2022-11-09T00:00:00	6:00:00	7:00:00	21	121	153	1800	0.09
8034	เนินเพลินจิต	13.7438195	100.5486124	exat	working	2022-11-09T00:00:00	7:00:00	8:00:00	21	121	242	1800	0.13
8035	เนินเพลินจิต	13.7438195	100.5486124	exat	holiday	2022-11-09T00:00:00	8:00:00	9:00:00	21	121	218	1800	0.12
8036	เนินเพลินจิต	13.7438195	100.5486124	exat	working	2022-11-09T00:00:00	9:00:00	10:00:00	21	121	168	1800	0.09
8037	เนินเพลินจิต	13.7438195	100.5486124	exat	working	2022-11-09T00:00:00	10:00:00	11:00:00	21	121	135	1800	0.08
8038	เนินเพลินจิต	13.7438195	100.5486124	exat	holiday	2022-11-09T00:00:00	11:00:00	12:00:00	34	11	451	1800	0.25
8039	เนินเพลินจิต	13.7438195	100.5486124	exat	working	2022-11-09T00:00:00	12:00:00	13:00:00	21	121	157	1800	0.09
8040	เนินเพลินจิต	13.7438195	100.5486124	exat	working	2022-11-09T00:00:00	13:00:00	14:00:00	21	121	201	1800	0.11
8041	เนินเพลินจิต	13.7438195	100.5486124	exat	working	2022-11-09T00:00:00	14:00:00	15:00:00	21	121	161	1800	0.09
8042	เนินเพลินจิต	13.7438195	100.5486124	exat	working	2022-11-09T00:00:00	15:00:00	16:00:00	21	121	151	1800	0.08
8043	เนินเพลินจิต	13.7438195	100.5486124	exat	holiday	2022-11-09T00:00:00	16:00:00	17:00:00	30	7	217	1800	0.12
8044	เนินเพลินจิต	13.7438195	100.5486124	exat	holiday	2022-11-09T00:00:00	17:00:00	18:00:00	26	8	534	1800	0.30
8045	เนินเพลินจิต	13.7438195	100.5486124	exat	holiday	2022-11-09T00:00:00	18:00:00	19:00:00	20	121	208	1800	0.12
8046	ดวงพิทักษ์	13.7378887	100.5511531	exat	working	2022-05-09T00:00:00	5:00:00	6:00:00	130	6	950	2700	0.35
8047	ดวงพิทักษ์	13.7378887	100.5511531	exat	working	2022-05-09T00:00:00	6:00:00	7:00:00	91	19	2736	2700	1.01
8048	ดวงพิทักษ์	13.7378887	100.5511531	exat	working	2022-05-09T00:00:00	7:00:00	8:00:00	80	33	4906	2700	1.82
8049	ดวงพิทักษ์	13.7378887	100.5511531	exat	working	2022-05-09T00:00:00	8:00:00	9:00:00	70	44	4724	2700	1.75
8050	ดวงพิทักษ์	13.7378887	100.5511531	exat	working	2022-05-09T00:00:00	9:00:00	10:00:00	69	39	4678	2700	1.73
8051	ดวงพิทักษ์	13.7378887	100.5511531	exat	working	2022-05-09T00:00:00	10:00:00	11:00:00	65	41	4601	2700	1.70
8052	ดวงพิทักษ์	13.7378887	100.5511531	exat	working	2022-05-09T00:00:00	11:00:00	12:00:00	86	57	4354	2700	1.61
8053	ดวงพิทักษ์	13.7378887	100.5511531	exat	working	2022-05-09T00:00:00	12:00:00	13:00:00	66	39	4694	2700	1.74
8054	ดวงพิทักษ์	13.7378887	100.5511531	exat	working	2022-05-09T00:00:00	13:00:00	14:00:00	65	42	4620	2700	1.71
8055	ดวงพิทักษ์	13.7378887	100.5511531	exat	working	2022-05-09T00:00:00	14:00:00	15:00:00	65	40	4682	2700	1.73
8056	ดวงพิทักษ์	13.7378887	100.5511531	exat	working	2022-05-09T00:00:00	15:00:00	16:00:00	69	44	4638	2700	1.72
8057	ดวงพิทักษ์	13.7378887	100.5511531	exat	working	2022-05-09T00:00:00	16:00:00	17:00:00	59	36	5298	2700	1.96
8058	ดวงพิทักษ์	13.7378887	100.5511531	exat	working	2022-05-09T00:00:00	17:00:00	18:00:00	45	75	4340	2700	1.61
8059	ดวงพิทักษ์	13.7378887	100.5511531	exat	working	2022-05-09T00:00:00	18:00:00	19:00:00	15	121	2726	2700	1.01
8060	ดวงพิทักษ์	13.7378887	100.5511531	exat	working	2022-06-09T00:00:00	5:00:00	6:00:00	128	7	792	2700	0.29
8061	ดวงพิทักษ์	13.7378887	100.5511531	exat	working	2022-06-09T00:00:00	6:00:00	7:00:00	91	22	2537	2700	0.94
8062	ดวงพิทักษ์	13.7378887	100.5511531	exat	working	2022-06-09T00:00:00	7:00:00	8:00:00	81	33	5252	2700	1.95
8063	ดวงพิทักษ์	13.7378887	100.5511531	exat	working	2022-06-09T00:00:00	8:00:00	9:00:00	75	40	4212	2700	1.56
8064	ดวงพิทักษ์	13.7378887	100.5511531	exat	working	2022-06-09T00:00:00	9:00:00	10:00:00	72	35	4096	2700	1.52
8065	ดวงพิทักษ์	13.7378887	100.5511531	exat	working	2022-06-09T00:00:00	10:00:00	11:00:00	70	35	4061	2700	1.50
8066	ดวงพิทักษ์	13.7378887	100.5511531	exat	working	2022-06-09T00:00:00	11:00:00	12:00:00	70	109	5435	2700	2.01
8067	ดวงพิทักษ์	13.7378887	100.5511531	exat	working	2022-06-09T00:00:00	12:00:00	13:00:00	71	37	4110	2700	1.52
8068	ดวงพิทักษ์	13.7378887	100.5511531	exat	working	2022-06-09T00:00:00	13:00:00	14:00:00	71	38	4071	2700	1.51
8069	ดวงพิทักษ์	13.7378887	100.5511531	exat	working	2022-06-09T00:00:00	14:00:00	15:00:00	70	37	4145	2700	1.54
8070	ดวงพิทักษ์	13.7378887	100.5511531	exat	working	2022-06-09T00:00:00	15:00:00	16:00:00	72	38	4064	2700	1.51
8071	ดวงพิทักษ์	13.7378887	100.5511531	exat	working	2022-06-09T00:00:00	16:00:00	17:00:00	39	108	5569	2700	2.06
8072	ดวงพิทักษ์	13.7378887	100.5511531	exat	working	2022-06-09T00:00:00	17:00:00	18:00:00	29	128	4103	2700	1.52
8073	ดวงพิทักษ์	13.7378887	100.5511531	exat	working	2022-06-09T00:00:00	18:00:00	19:00:00	14	122	3738	2700	1.38
8074	ดวงพิทักษ์	13.7378887	100.5511531	exat	working	2022-07-09T00:00:00	5:00:00	6:00:00	128	9	804	2700	0.30
8075	ดวงพิทักษ์	13.7378887	100.5511531	exat	working	2022-07-09T00:00:00	6:00:00	7:00:00	91	25	2354	2700	0.87
8076	ดวงพิทักษ์	13.7378887	100.5511531	exat	working	2022-07-09T00:00:00	7:00:00	8:00:00	82	33	5672	2700	2.10
8077	ดวงพิทักษ์	13.7378887	100.5511531	exat	working	2022-07-09T00:00:00	8:00:00	9:00:00	80	36	3644	2700	1.35
8078	ดวงพิทักษ์	13.7378887	100.5511531	exat	working	2022-07-09T00:00:00	9:00:00	10:00:00	76	31	3480	2700	1.29
8079	ดวงพิทักษ์	13.7378887	100.5511531	exat	working	2022-07-09T00:00:00	10:00:00	11:00:00	75	29	3491	2700	1.29
8080	ดวงพิทักษ์	13.7378887	100.5511531	exat	working	2022-07-09T00:00:00	11:00:00	12:00:00	54	162	6544	2700	2.42
8081	ดวงพิทักษ์	13.7378887	100.5511531	exat	working	2022-07-09T00:00:00	12:00:00	13:00:00	76	34	3494	2700	1.29
8082	ดวงพิทักษ์	13.7378887	100.5511531	exat	working	2022-07-09T00:00:00	13:00:00	14:00:00	76	35	3512	2700	1.30
8083	ดวงพิทักษ์	13.7378887	100.5511531	exat	working	2022-07-09T00:00:00	14:00:00	15:00:00	75	34	3614	2700	1.34
8084	ดวงพิทักษ์	13.7378887	100.5511531	exat	working	2022-07-09T00:00:00	15:00:00	16:00:00	75	32	3536	2700	1.31
8085	ดวงพิทักษ์	13.7378887	100.5511531	exat	working	2022-07-09T00:00:00	16:00:00	17:00:00	18	121	5812	2700	2.15
8086	ดวงพิทักษ์	13.7378887	100.5511531	exat	working	2022-07-09T00:00:00	17:00:00	18:00:00	13	122	3828	2700	1.42
8087	ดวงพิทักษ์	13.7378887	100.5511531	exat	working	2022-07-09T00:00:00	18:00:00	19:00:00	13	121	4744	2700	1.76
8088	ดวงพิทักษ์	13.7378887	100.5511531	exat	working	2022-08-09T00:00:00	5:00:00	6:00:00	131	8	810	2700	0.30
8089	ดวงพิทักษ์	13.7378887	100.5511531	exat	working	2022-08-09T00:00:00	6:00:00	7:00:00	91	22	2363	2700	0.88
8090	ดวงพิทักษ์	13.7378887	100.5511531	exat	working	2022-08-09T00:00:00	7:00:00	8:00:00	84	31	4437	2700	1.64
8091	ดวงพิทักษ์	13.7378887	100.5511531	exat	working	2022-08-09T00:00:00	8:00:00	9:00:00	85	29	3644	2700	1.35
8092	ดวงพิทักษ์	13.7378887	100.5511531	exat	working	2022-08-09T00:00:00	9:00:00	10:00:00	82	24	3498	2700	1.30
8093	ดวงพิทักษ์	13.7378887	100.5511531	exat	working	2022-08-09T00:00:00	10:00:00	11:00:00	83	24	3497	2700	1.30
8094	ดวงพิทักษ์	13.7378887	100.5511531	exat	working	2022-08-09T00:00:00	11:00:00	12:00:00	72	92	4634	2700	1.72
8095	ดวงพิทักษ์	13.7378887	100.5511531	exat	working	2022-08-09T00:00:00	12:00:00	13:00:00	82	25	3491	2700	1.29
8096	ดวงพิทักษ์	13.7378887	100.5511531	exat	working	2022-08-09T00:00:00	13:00:00	14:00:00	82	25	3539	2700	1.31
8097	ดวงพิทักษ์	13.7378887	100.5511531	exat	working	2022-08-09T00:00:00	14:00:00	15:00:00	82	25	3616	2700	1.34
8098	ดวงพิทักษ์	13.7378887	100.5511531	exat	working	2022-08-09T00:00:00	15:00:00	16:00:00	82	25	3601	2700	1.33
8099	ดวงพิทักษ์	13.7378887	100.5511531	exat	working	2022-08-09T00:00:00	16:00:00	17:00:00	38	124	4966	2700	1.84
8100	ดวงพิทักษ์	13.7378887	100.5511531	exat	working	2022-08-09T00:00:00	17:00:00	18:00:00	22	157	4986	2700	1.85
8101	ดวงพิทักษ์	13.7378887	100.5511531	exat	working	2022-08-09T00:00:00	18:00:00	19:00:00	21	121	4891	2700	1.81
8102	ดวงพิทักษ์	13.7378887	100.5511531	exat	working	2022-09-09T00:00:00	5:00:00	6:00:00	132	6	764	2700	0.28
8103	ดวงพิทักษ์	13.7378887	100.5511531	exat	working	2022-09-09T00:00:00	6:00:00	7:00:00	91	20	2367	2700	0.88
8104	ดวงพิทักษ์	13.7378887	100.5511531	exat	working	2022-09-09T00:00:00	7:00:00	8:00:00	86	30	3244	2700	1.20
8105	ดวงพิทักษ์	13.7378887	100.5511531	exat	working	2022-09-09T00:00:00	8:00:00	9:00:00	91	21	3631	2700	1.34
8106	ดวงพิทักษ์	13.7378887	100.5511531	exat	working	2022-09-09T00:00:00	9:00:00	10:00:00	89	17	3554	2700	1.32
8107	ดวงพิทักษ์	13.7378887	100.5511531	exat	working	2022-09-09T00:00:00	10:00:00	11:00:00	90	19	3554	2700	1.32
8108	ดวงพิทักษ์	13.7378887	100.5511531	exat	working	2022-09-09T00:00:00	11:00:00	12:00:00	90	24	2704	2700	1.00
8109	ดวงพิทักษ์	13.7378887	100.5511531	exat	working	2022-09-09T00:00:00	12:00:00	13:00:00	88	17	3513	2700	1.30
8110	ดวงพิทักษ์	13.7378887	100.5511531	exat	working	2022-09-09T00:00:00	13:00:00	14:00:00	88	16	3553	2700	1.32
8111	ดวงพิทักษ์	13.7378887	100.5511531	exat	working	2022-09-09T00:00:00	14:00:00	15:00:00	88	17	3576	2700	1.32
8112	ดวงพิทักษ์	13.7378887	100.5511531	exat	working	2022-09-09T00:00:00	15:00:00	16:00:00	88	18	3574	2700	1.32
8113	ดวงพิทักษ์	13.7378887	100.5511531	exat	working	2022-09-09T00:00:00	16:00:00	17:00:00	57	67	4198	2700	1.55
8114	ดวงพิทักษ์	13.7378887	100.5511531	exat	working	2022-09-09T00:00:00	17:00:00	18:00:00	32	134	6204	2700	2.30
8115	ดวงพิทักษ์	13.7378887	100.5511531	exat	working	2022-09-09T00:00:00	18:00:00	19:00:00	29	142	5098	2700	1.89
8116	ดวงพิทักษ์	13.7378887	100.5511531	exat	working	2022-10-09T00:00:00	5:00:00	6:00:00	129	7	682	2700	0.25
8117	ดวงพิทักษ์	13.7378887	100.5511531	exat	holiday	2022-10-09T00:00:00	6:00:00	7:00:00	91	20	2006	2700	0.74
8118	ดวงพิทักษ์	13.7378887	100.5511531	exat	holiday	2022-10-09T00:00:00	7:00:00	8:00:00	91	18	1616	2700	0.60
8119	ดวงพิทักษ์	13.7378887	100.5511531	exat	holiday	2022-10-09T00:00:00	8:00:00	9:00:00	91	32	4207	2700	1.56
8120	ดวงพิทักษ์	13.7378887	100.5511531	exat	working	2022-10-09T00:00:00	9:00:00	10:00:00	88	29	4015	2700	1.49
8121	ดวงพิทักษ์	13.7378887	100.5511531	exat	working	2022-10-09T00:00:00	10:00:00	11:00:00	89	30	4004	2700	1.48
8122	ดวงพิทักษ์	13.7378887	100.5511531	exat	holiday	2022-10-09T00:00:00	11:00:00	12:00:00	91	60	5436	2700	2.01
8123	ดวงพิทักษ์	13.7378887	100.5511531	exat	working	2022-10-09T00:00:00	12:00:00	13:00:00	89	27	4125	2700	1.53
8124	ดวงพิทักษ์	13.7378887	100.5511531	exat	working	2022-10-09T00:00:00	13:00:00	14:00:00	87	27	4169	2700	1.54
8125	ดวงพิทักษ์	13.7378887	100.5511531	exat	working	2022-10-09T00:00:00	14:00:00	15:00:00	89	28	4168	2700	1.54
8126	ดวงพิทักษ์	13.7378887	100.5511531	exat	working	2022-10-09T00:00:00	15:00:00	16:00:00	89	28	4104	2700	1.52
8127	ดวงพิทักษ์	13.7378887	100.5511531	exat	holiday	2022-10-09T00:00:00	16:00:00	17:00:00	69	101	4707	2700	1.74
8128	ดวงพิทักษ์	13.7378887	100.5511531	exat	holiday	2022-10-09T00:00:00	17:00:00	18:00:00	55	71	4369	2700	1.62
8129	ดวงพิทักษ์	13.7378887	100.5511531	exat	holiday	2022-10-09T00:00:00	18:00:00	19:00:00	23	127	4192	2700	1.55
8130	ดวงพิทักษ์	13.7378887	100.5511531	exat	working	2022-11-09T00:00:00	5:00:00	6:00:00	77	4	400	2700	0.15
8131	ดวงพิทักษ์	13.7378887	100.5511531	exat	holiday	2022-11-09T00:00:00	6:00:00	7:00:00	55	12	1205	2700	0.45
8132	ดวงพิทักษ์	13.7378887	100.5511531	exat	holiday	2022-11-09T00:00:00	7:00:00	8:00:00	55	11	978	2700	0.36
8133	ดวงพิทักษ์	13.7378887	100.5511531	exat	holiday	2022-11-09T00:00:00	8:00:00	9:00:00	55	20	2515	2700	0.93
8134	ดวงพิทักษ์	13.7378887	100.5511531	exat	working	2022-11-09T00:00:00	9:00:00	10:00:00	53	17	2419	2700	0.90
8135	ดวงพิทักษ์	13.7378887	100.5511531	exat	working	2022-11-09T00:00:00	10:00:00	11:00:00	54	18	2413	2700	0.89
8136	ดวงพิทักษ์	13.7378887	100.5511531	exat	holiday	2022-11-09T00:00:00	11:00:00	12:00:00	55	36	3267	2700	1.21
8137	ดวงพิทักษ์	13.7378887	100.5511531	exat	working	2022-11-09T00:00:00	12:00:00	13:00:00	54	16	2497	2700	0.92
8138	ดวงพิทักษ์	13.7378887	100.5511531	exat	working	2022-11-09T00:00:00	13:00:00	14:00:00	52	17	2490	2700	0.92
8139	ดวงพิทักษ์	13.7378887	100.5511531	exat	working	2022-11-09T00:00:00	14:00:00	15:00:00	53	17	2502	2700	0.93
8140	ดวงพิทักษ์	13.7378887	100.5511531	exat	working	2022-11-09T00:00:00	15:00:00	16:00:00	54	17	2479	2700	0.92
8141	ดวงพิทักษ์	13.7378887	100.5511531	exat	holiday	2022-11-09T00:00:00	16:00:00	17:00:00	42	61	2852	2700	1.06
8142	ดวงพิทักษ์	13.7378887	100.5511531	exat	holiday	2022-11-09T00:00:00	17:00:00	18:00:00	33	43	2625	2700	0.97
8143	ดวงพิทักษ์	13.7378887	100.5511531	exat	holiday	2022-11-09T00:00:00	18:00:00	19:00:00	14	121	2494	2700	0.92
8144	ราบบ่อนไก่	13.7245558	100.5524072	exat	working	2022-05-09T00:00:00	5:00:00	6:00:00	29	37	514	2700	0.19
8145	ราบบ่อนไก่	13.7245558	100.5524072	exat	working	2022-05-09T00:00:00	6:00:00	7:00:00	21	122	1639	2700	0.61
8146	ราบบ่อนไก่	13.7245558	100.5524072	exat	working	2022-05-09T00:00:00	7:00:00	8:00:00	42	107	6329	2700	2.34
8147	ราบบ่อนไก่	13.7245558	100.5524072	exat	working	2022-05-09T00:00:00	8:00:00	9:00:00	54	95	6877	2700	2.55
8148	ราบบ่อนไก่	13.7245558	100.5524072	exat	working	2022-05-09T00:00:00	9:00:00	10:00:00	50	94	6817	2700	2.52
8149	ราบบ่อนไก่	13.7245558	100.5524072	exat	working	2022-05-09T00:00:00	10:00:00	11:00:00	51	92	6985	2700	2.59
8150	ราบบ่อนไก่	13.7245558	100.5524072	exat	working	2022-05-09T00:00:00	11:00:00	12:00:00	21	121	375	2700	0.14
8151	ราบบ่อนไก่	13.7245558	100.5524072	exat	working	2022-05-09T00:00:00	12:00:00	13:00:00	49	90	6826	2700	2.53
8152	ราบบ่อนไก่	13.7245558	100.5524072	exat	working	2022-05-09T00:00:00	13:00:00	14:00:00	49	93	6863	2700	2.54
8153	ราบบ่อนไก่	13.7245558	100.5524072	exat	working	2022-05-09T00:00:00	14:00:00	15:00:00	50	91	6756	2700	2.50
8154	ราบบ่อนไก่	13.7245558	100.5524072	exat	working	2022-05-09T00:00:00	15:00:00	16:00:00	51	92	6834	2700	2.53
8155	ราบบ่อนไก่	13.7245558	100.5524072	exat	working	2022-05-09T00:00:00	16:00:00	17:00:00	21	121	1470	2700	0.54
8156	ราบบ่อนไก่	13.7245558	100.5524072	exat	working	2022-05-09T00:00:00	17:00:00	18:00:00	21	121	921	2700	0.34
8157	ราบบ่อนไก่	13.7245558	100.5524072	exat	working	2022-05-09T00:00:00	18:00:00	19:00:00	19	121	1285	2700	0.48
8158	ราบบ่อนไก่	13.7245558	100.5524072	exat	working	2022-06-09T00:00:00	5:00:00	6:00:00	30	38	452	2700	0.17
8159	ราบบ่อนไก่	13.7245558	100.5524072	exat	working	2022-06-09T00:00:00	6:00:00	7:00:00	21	121	1348	2700	0.50
8160	ราบบ่อนไก่	13.7245558	100.5524072	exat	working	2022-06-09T00:00:00	7:00:00	8:00:00	30	101	4687	2700	1.74
8161	ราบบ่อนไก่	13.7245558	100.5524072	exat	working	2022-06-09T00:00:00	8:00:00	9:00:00	41	64	4650	2700	1.72
8162	ราบบ่อนไก่	13.7245558	100.5524072	exat	working	2022-06-09T00:00:00	9:00:00	10:00:00	37	62	4575	2700	1.69
8163	ราบบ่อนไก่	13.7245558	100.5524072	exat	working	2022-06-09T00:00:00	10:00:00	11:00:00	39	61	4682	2700	1.73
8164	ราบบ่อนไก่	13.7245558	100.5524072	exat	working	2022-06-09T00:00:00	11:00:00	12:00:00	21	121	363	2700	0.13
8165	ราบบ่อนไก่	13.7245558	100.5524072	exat	working	2022-06-09T00:00:00	12:00:00	13:00:00	37	59	4548	2700	1.68
8166	ราบบ่อนไก่	13.7245558	100.5524072	exat	working	2022-06-09T00:00:00	13:00:00	14:00:00	37	62	4554	2700	1.69
8167	ราบบ่อนไก่	13.7245558	100.5524072	exat	working	2022-06-09T00:00:00	14:00:00	15:00:00	38	62	4524	2700	1.68
8168	ราบบ่อนไก่	13.7245558	100.5524072	exat	working	2022-06-09T00:00:00	15:00:00	16:00:00	36	61	4560	2700	1.69
8169	ราบบ่อนไก่	13.7245558	100.5524072	exat	working	2022-06-09T00:00:00	16:00:00	17:00:00	21	122	1447	2700	0.54
8170	ราบบ่อนไก่	13.7245558	100.5524072	exat	working	2022-06-09T00:00:00	17:00:00	18:00:00	12	122	1356	2700	0.50
8171	ราบบ่อนไก่	13.7245558	100.5524072	exat	working	2022-06-09T00:00:00	18:00:00	19:00:00	23	47	994	2700	0.37
8172	ราบบ่อนไก่	13.7245558	100.5524072	exat	working	2022-07-09T00:00:00	5:00:00	6:00:00	29	42	365	2700	0.14
8173	ราบบ่อนไก่	13.7245558	100.5524072	exat	working	2022-07-09T00:00:00	6:00:00	7:00:00	21	121	1089	2700	0.40
8174	ราบบ่อนไก่	13.7245558	100.5524072	exat	working	2022-07-09T00:00:00	7:00:00	8:00:00	19	121	3054	2700	1.13
8175	ราบบ่อนไก่	13.7245558	100.5524072	exat	working	2022-07-09T00:00:00	8:00:00	9:00:00	27	34	2357	2700	0.87
8176	ราบบ่อนไก่	13.7245558	100.5524072	exat	working	2022-07-09T00:00:00	9:00:00	10:00:00	24	31	2341	2700	0.87
8177	ราบบ่อนไก่	13.7245558	100.5524072	exat	working	2022-07-09T00:00:00	10:00:00	11:00:00	27	29	2367	2700	0.88
8178	ราบบ่อนไก่	13.7245558	100.5524072	exat	working	2022-07-09T00:00:00	11:00:00	12:00:00	21	121	363	2700	0.13
8179	ราบบ่อนไก่	13.7245558	100.5524072	exat	working	2022-07-09T00:00:00	12:00:00	13:00:00	25	28	2228	2700	0.83
8180	ราบบ่อนไก่	13.7245558	100.5524072	exat	working	2022-07-09T00:00:00	13:00:00	14:00:00	25	31	2232	2700	0.83
8181	ราบบ่อนไก่	13.7245558	100.5524072	exat	working	2022-07-09T00:00:00	14:00:00	15:00:00	26	32	2274	2700	0.84
8182	ราบบ่อนไก่	13.7245558	100.5524072	exat	working	2022-07-09T00:00:00	15:00:00	16:00:00	22	29	2254	2700	0.83
8183	ราบบ่อนไก่	13.7245558	100.5524072	exat	working	2022-07-09T00:00:00	16:00:00	17:00:00	21	121	1458	2700	0.54
8184	ราบบ่อนไก่	13.7245558	100.5524072	exat	working	2022-07-09T00:00:00	17:00:00	18:00:00	23	89	1796	2700	0.67
8185	ราบบ่อนไก่	13.7245558	100.5524072	exat	working	2022-07-09T00:00:00	18:00:00	19:00:00	26	67	729	2700	0.27
8186	ราบบ่อนไก่	13.7245558	100.5524072	exat	working	2022-08-09T00:00:00	5:00:00	6:00:00	29	41	359	2700	0.13
8187	ราบบ่อนไก่	13.7245558	100.5524072	exat	working	2022-08-09T00:00:00	6:00:00	7:00:00	21	122	1104	2700	0.41
8188	ราบบ่อนไก่	13.7245558	100.5524072	exat	working	2022-08-09T00:00:00	7:00:00	8:00:00	19	121	3080	2700	1.14
8189	ราบบ่อนไก่	13.7245558	100.5524072	exat	working	2022-08-09T00:00:00	8:00:00	9:00:00	27	34	2337	2700	0.87
8190	ราบบ่อนไก่	13.7245558	100.5524072	exat	working	2022-08-09T00:00:00	9:00:00	10:00:00	24	31	2378	2700	0.88
8191	ราบบ่อนไก่	13.7245558	100.5524072	exat	working	2022-08-09T00:00:00	10:00:00	11:00:00	27	29	2386	2700	0.88
8192	ราบบ่อนไก่	13.7245558	100.5524072	exat	working	2022-08-09T00:00:00	11:00:00	12:00:00	21	121	362	2700	0.13
8193	ราบบ่อนไก่	13.7245558	100.5524072	exat	working	2022-08-09T00:00:00	12:00:00	13:00:00	25	28	2254	2700	0.83
8194	ราบบ่อนไก่	13.7245558	100.5524072	exat	working	2022-08-09T00:00:00	13:00:00	14:00:00	25	31	2234	2700	0.83
8195	ราบบ่อนไก่	13.7245558	100.5524072	exat	working	2022-08-09T00:00:00	14:00:00	15:00:00	26	32	2264	2700	0.84
8196	ราบบ่อนไก่	13.7245558	100.5524072	exat	working	2022-08-09T00:00:00	15:00:00	16:00:00	22	29	2262	2700	0.84
8197	ราบบ่อนไก่	13.7245558	100.5524072	exat	working	2022-08-09T00:00:00	16:00:00	17:00:00	21	121	1449	2700	0.54
8198	ราบบ่อนไก่	13.7245558	100.5524072	exat	working	2022-08-09T00:00:00	17:00:00	18:00:00	23	89	1806	2700	0.67
8199	ราบบ่อนไก่	13.7245558	100.5524072	exat	working	2022-08-09T00:00:00	18:00:00	19:00:00	26	67	714	2700	0.26
8200	พระราม4-2	13.7233932	100.5525094	exat	working	2022-05-09T00:00:00	5:00:00	6:00:00	129	13	2231	2700	0.83
8201	พระราม4-2	13.7233932	100.5525094	exat	working	2022-05-09T00:00:00	6:00:00	7:00:00	91	37	7292	2700	2.70
8202	พระราม4-2	13.7233932	100.5525094	exat	working	2022-05-09T00:00:00	7:00:00	8:00:00	62	94	7483	2700	2.77
8203	พระราม4-2	13.7233932	100.5525094	exat	working	2022-05-09T00:00:00	8:00:00	9:00:00	78	48	5267	2700	1.95
8204	พระราม4-2	13.7233932	100.5525094	exat	working	2022-05-09T00:00:00	9:00:00	10:00:00	74	43	5155	2700	1.91
8205	พระราม4-2	13.7233932	100.5525094	exat	working	2022-05-09T00:00:00	10:00:00	11:00:00	74	43	5128	2700	1.90
8206	พระราม4-2	13.7233932	100.5525094	exat	working	2022-05-09T00:00:00	11:00:00	12:00:00	86	54	5090	2700	1.89
8207	พระราม4-2	13.7233932	100.5525094	exat	working	2022-05-09T00:00:00	12:00:00	13:00:00	77	44	5207	2700	1.93
8208	พระราม4-2	13.7233932	100.5525094	exat	working	2022-05-09T00:00:00	13:00:00	14:00:00	77	47	5145	2700	1.91
8209	พระราม4-2	13.7233932	100.5525094	exat	working	2022-05-09T00:00:00	14:00:00	15:00:00	75	44	5236	2700	1.94
8210	พระราม4-2	13.7233932	100.5525094	exat	working	2022-05-09T00:00:00	15:00:00	16:00:00	74	43	5319	2700	1.97
8211	พระราม4-2	13.7233932	100.5525094	exat	working	2022-05-09T00:00:00	16:00:00	17:00:00	82	24	2743	2700	1.02
8212	พระราม4-2	13.7233932	100.5525094	exat	working	2022-05-09T00:00:00	17:00:00	18:00:00	65	94	3813	2700	1.41
8213	พระราม4-2	13.7233932	100.5525094	exat	working	2022-05-09T00:00:00	18:00:00	19:00:00	10	122	2735	2700	1.01
8214	พระราม4-2	13.7233932	100.5525094	exat	working	2022-06-09T00:00:00	5:00:00	6:00:00	130	9	1574	2700	0.58
8215	พระราม4-2	13.7233932	100.5525094	exat	working	2022-06-09T00:00:00	6:00:00	7:00:00	91	27	4522	2700	1.67
8216	พระราม4-2	13.7233932	100.5525094	exat	working	2022-06-09T00:00:00	7:00:00	8:00:00	56	69	6019	2700	2.23
8217	พระราม4-2	13.7233932	100.5525094	exat	working	2022-06-09T00:00:00	8:00:00	9:00:00	84	40	3994	2700	1.48
8218	พระราม4-2	13.7233932	100.5525094	exat	working	2022-06-09T00:00:00	9:00:00	10:00:00	82	35	3839	2700	1.42
8219	พระราม4-2	13.7233932	100.5525094	exat	working	2022-06-09T00:00:00	10:00:00	11:00:00	81	35	3938	2700	1.46
8220	พระราม4-2	13.7233932	100.5525094	exat	working	2022-06-09T00:00:00	11:00:00	12:00:00	43	46	3456	2700	1.28
8221	พระราม4-2	13.7233932	100.5525094	exat	working	2022-06-09T00:00:00	12:00:00	13:00:00	81	35	3917	2700	1.45
8222	พระราม4-2	13.7233932	100.5525094	exat	working	2022-06-09T00:00:00	13:00:00	14:00:00	83	36	3919	2700	1.45
8223	พระราม4-2	13.7233932	100.5525094	exat	working	2022-06-09T00:00:00	14:00:00	15:00:00	82	35	3894	2700	1.44
8224	พระราม4-2	13.7233932	100.5525094	exat	working	2022-06-09T00:00:00	15:00:00	16:00:00	81	36	4018	2700	1.49
8225	พระราม4-2	13.7233932	100.5525094	exat	working	2022-06-09T00:00:00	16:00:00	17:00:00	41	39	2362	2700	0.87
8226	พระราม4-2	13.7233932	100.5525094	exat	working	2022-06-09T00:00:00	17:00:00	18:00:00	43	62	2373	2700	0.88
8227	พระราม4-2	13.7233932	100.5525094	exat	working	2022-06-09T00:00:00	18:00:00	19:00:00	15	121	1827	2700	0.68
8228	พระราม4-2	13.7233932	100.5525094	exat	working	2022-07-09T00:00:00	5:00:00	6:00:00	131	6	634	2700	0.23
8229	พระราม4-2	13.7233932	100.5525094	exat	working	2022-07-09T00:00:00	6:00:00	7:00:00	91	17	1814	2700	0.67
8230	พระราม4-2	13.7233932	100.5525094	exat	working	2022-07-09T00:00:00	7:00:00	8:00:00	50	44	4528	2700	1.68
8231	พระราม4-2	13.7233932	100.5525094	exat	working	2022-07-09T00:00:00	8:00:00	9:00:00	91	31	2711	2700	1.00
8232	พระราม4-2	13.7233932	100.5525094	exat	working	2022-07-09T00:00:00	9:00:00	10:00:00	90	27	2590	2700	0.96
8233	พระราม4-2	13.7233932	100.5525094	exat	working	2022-07-09T00:00:00	10:00:00	11:00:00	89	28	2743	2700	1.02
8234	พระราม4-2	13.7233932	100.5525094	exat	working	2022-07-09T00:00:00	11:00:00	12:00:00	21	121	1811	2700	0.67
8235	พระราม4-2	13.7233932	100.5525094	exat	working	2022-07-09T00:00:00	12:00:00	13:00:00	86	26	2639	2700	0.98
8236	พระราม4-2	13.7233932	100.5525094	exat	working	2022-07-09T00:00:00	13:00:00	14:00:00	89	26	2676	2700	0.99
8237	พระราม4-2	13.7233932	100.5525094	exat	working	2022-07-09T00:00:00	14:00:00	15:00:00	89	27	2606	2700	0.97
8238	พระราม4-2	13.7233932	100.5525094	exat	working	2022-07-09T00:00:00	15:00:00	16:00:00	89	29	2675	2700	0.99
8239	พระราม4-2	13.7233932	100.5525094	exat	working	2022-07-09T00:00:00	16:00:00	17:00:00	21	121	2003	2700	0.74
8240	พระราม4-2	13.7233932	100.5525094	exat	working	2022-07-09T00:00:00	17:00:00	18:00:00	21	121	910	2700	0.34
8241	พระราม4-2	13.7233932	100.5525094	exat	working	2022-07-09T00:00:00	18:00:00	19:00:00	20	121	902	2700	0.33
8242	พระราม4-2	13.7233932	100.5525094	exat	working	2022-08-09T00:00:00	5:00:00	6:00:00	74	10	718	2700	0.27
8243	พระราม4-2	13.7233932	100.5525094	exat	working	2022-08-09T00:00:00	6:00:00	7:00:00	52	30	2286	2700	0.85
8244	พระราม4-2	13.7233932	100.5525094	exat	working	2022-08-09T00:00:00	7:00:00	8:00:00	32	58	4369	2700	1.62
8245	พระราม4-2	13.7233932	100.5525094	exat	working	2022-08-09T00:00:00	8:00:00	9:00:00	54	54	3419	2700	1.27
8246	พระราม4-2	13.7233932	100.5525094	exat	working	2022-08-09T00:00:00	9:00:00	10:00:00	52	49	3358	2700	1.24
8247	พระราม4-2	13.7233932	100.5525094	exat	working	2022-08-09T00:00:00	10:00:00	11:00:00	51	51	3466	2700	1.28
8248	พระราม4-2	13.7233932	100.5525094	exat	working	2022-08-09T00:00:00	11:00:00	12:00:00	13	121	2101	2700	0.78
8249	พระราม4-2	13.7233932	100.5525094	exat	working	2022-08-09T00:00:00	12:00:00	13:00:00	50	50	3383	2700	1.25
8250	พระราม4-2	13.7233932	100.5525094	exat	working	2022-08-09T00:00:00	13:00:00	14:00:00	53	49	3365	2700	1.25
8251	พระราม4-2	13.7233932	100.5525094	exat	working	2022-08-09T00:00:00	14:00:00	15:00:00	53	49	3320	2700	1.23
8252	พระราม4-2	13.7233932	100.5525094	exat	working	2022-08-09T00:00:00	15:00:00	16:00:00	51	50	3363	2700	1.25
8253	พระราม4-2	13.7233932	100.5525094	exat	working	2022-08-09T00:00:00	16:00:00	17:00:00	9	122	2910	2700	1.08
8254	พระราม4-2	13.7233932	100.5525094	exat	working	2022-08-09T00:00:00	17:00:00	18:00:00	20	121	2087	2700	0.77
8255	พระราม4-2	13.7233932	100.5525094	exat	working	2022-08-09T00:00:00	18:00:00	19:00:00	47	53	1543	2700	0.57
8256	พระราม4-2	13.7233932	100.5525094	exat	working	2022-09-09T00:00:00	5:00:00	6:00:00	19	39	942	2700	0.35
8257	พระราม4-2	13.7233932	100.5525094	exat	working	2022-09-09T00:00:00	6:00:00	7:00:00	14	121	2741	2700	1.02
8258	พระราม4-2	13.7233932	100.5525094	exat	working	2022-09-09T00:00:00	7:00:00	8:00:00	14	121	4166	2700	1.54
8259	พระราม4-2	13.7233932	100.5525094	exat	working	2022-09-09T00:00:00	8:00:00	9:00:00	18	121	4143	2700	1.53
8260	พระราม4-2	13.7233932	100.5525094	exat	working	2022-09-09T00:00:00	9:00:00	10:00:00	13	121	4109	2700	1.52
8261	พระราม4-2	13.7233932	100.5525094	exat	working	2022-09-09T00:00:00	10:00:00	11:00:00	13	121	4194	2700	1.55
8262	พระราม4-2	13.7233932	100.5525094	exat	working	2022-09-09T00:00:00	11:00:00	12:00:00	26	37	2355	2700	0.87
8263	พระราม4-2	13.7233932	100.5525094	exat	working	2022-09-09T00:00:00	12:00:00	13:00:00	14	121	4114	2700	1.52
8264	พระราม4-2	13.7233932	100.5525094	exat	working	2022-09-09T00:00:00	13:00:00	14:00:00	17	121	4057	2700	1.50
8265	พระราม4-2	13.7233932	100.5525094	exat	working	2022-09-09T00:00:00	14:00:00	15:00:00	16	121	4052	2700	1.50
8266	พระราม4-2	13.7233932	100.5525094	exat	working	2022-09-09T00:00:00	15:00:00	16:00:00	13	121	4138	2700	1.53
8267	พระราม4-2	13.7233932	100.5525094	exat	working	2022-09-09T00:00:00	16:00:00	17:00:00	18	121	3817	2700	1.41
8268	พระราม4-2	13.7233932	100.5525094	exat	working	2022-09-09T00:00:00	17:00:00	18:00:00	19	121	3290	2700	1.22
8269	พระราม4-2	13.7233932	100.5525094	exat	working	2022-09-09T00:00:00	18:00:00	19:00:00	74	68	2148	2700	0.80
8270	พระราม4-2	13.7233932	100.5525094	exat	working	2022-10-09T00:00:00	5:00:00	6:00:00	123	12	930	2700	0.34
8271	พระราม4-2	13.7233932	100.5525094	exat	holiday	2022-10-09T00:00:00	6:00:00	7:00:00	85	38	2897	2700	1.07
8272	พระราม4-2	13.7233932	100.5525094	exat	holiday	2022-10-09T00:00:00	7:00:00	8:00:00	32	71	2530	2700	0.94
8273	พระราม4-2	13.7233932	100.5525094	exat	holiday	2022-10-09T00:00:00	8:00:00	9:00:00	41	58	3806	2700	1.41
8274	พระราม4-2	13.7233932	100.5525094	exat	working	2022-10-09T00:00:00	9:00:00	10:00:00	36	53	3735	2700	1.38
8275	พระราม4-2	13.7233932	100.5525094	exat	working	2022-10-09T00:00:00	10:00:00	11:00:00	40	52	3686	2700	1.37
8276	พระราม4-2	13.7233932	100.5525094	exat	holiday	2022-10-09T00:00:00	11:00:00	12:00:00	53	96	5278	2700	1.95
8277	พระราม4-2	13.7233932	100.5525094	exat	working	2022-10-09T00:00:00	12:00:00	13:00:00	39	55	3706	2700	1.37
8278	พระราม4-2	13.7233932	100.5525094	exat	working	2022-10-09T00:00:00	13:00:00	14:00:00	40	57	3782	2700	1.40
8279	พระราม4-2	13.7233932	100.5525094	exat	working	2022-10-09T00:00:00	14:00:00	15:00:00	36	56	3855	2700	1.43
8280	พระราม4-2	13.7233932	100.5525094	exat	working	2022-10-09T00:00:00	15:00:00	16:00:00	41	53	3682	2700	1.36
8281	พระราม4-2	13.7233932	100.5525094	exat	holiday	2022-10-09T00:00:00	16:00:00	17:00:00	44	85	3989	2700	1.48
8282	พระราม4-2	13.7233932	100.5525094	exat	holiday	2022-10-09T00:00:00	17:00:00	18:00:00	54	59	3478	2700	1.29
8283	พระราม4-2	13.7233932	100.5525094	exat	holiday	2022-10-09T00:00:00	18:00:00	19:00:00	32	30	2728	2700	1.01
8284	พระราม4-2	13.7233932	100.5525094	exat	working	2022-11-09T00:00:00	5:00:00	6:00:00	71	7	553	2700	0.20
8285	พระราม4-2	13.7233932	100.5525094	exat	holiday	2022-11-09T00:00:00	6:00:00	7:00:00	51	23	1728	2700	0.64
8286	พระราม4-2	13.7233932	100.5525094	exat	holiday	2022-11-09T00:00:00	7:00:00	8:00:00	19	121	1535	2700	0.57
8287	พระราม4-2	13.7233932	100.5525094	exat	holiday	2022-11-09T00:00:00	8:00:00	9:00:00	25	35	2276	2700	0.84
8288	พระราม4-2	13.7233932	100.5525094	exat	working	2022-11-09T00:00:00	9:00:00	10:00:00	22	32	2269	2700	0.84
8289	พระราม4-2	13.7233932	100.5525094	exat	working	2022-11-09T00:00:00	10:00:00	11:00:00	24	31	2178	2700	0.81
8290	พระราม4-2	13.7233932	100.5525094	exat	holiday	2022-11-09T00:00:00	11:00:00	12:00:00	32	58	3157	2700	1.17
8291	พระราม4-2	13.7233932	100.5525094	exat	working	2022-11-09T00:00:00	12:00:00	13:00:00	24	33	2215	2700	0.82
8292	พระราม4-2	13.7233932	100.5525094	exat	working	2022-11-09T00:00:00	13:00:00	14:00:00	24	34	2254	2700	0.83
8293	พระราม4-2	13.7233932	100.5525094	exat	working	2022-11-09T00:00:00	14:00:00	15:00:00	22	34	2291	2700	0.85
8294	พระราม4-2	13.7233932	100.5525094	exat	working	2022-11-09T00:00:00	15:00:00	16:00:00	25	32	2228	2700	0.83
8295	พระราม4-2	13.7233932	100.5525094	exat	holiday	2022-11-09T00:00:00	16:00:00	17:00:00	27	51	2403	2700	0.89
8296	พระราม4-2	13.7233932	100.5525094	exat	holiday	2022-11-09T00:00:00	17:00:00	18:00:00	33	36	2065	2700	0.76
8297	พระราม4-2	13.7233932	100.5525094	exat	holiday	2022-11-09T00:00:00	18:00:00	19:00:00	19	121	1627	2700	0.60
8298	เหนือถ.พระราม4	13.7229278	100.5524743	exat	working	2022-05-09T00:00:00	5:00:00	6:00:00	52	6	622	2700	0.23
8299	เหนือถ.พระราม4	13.7229278	100.5524743	exat	working	2022-05-09T00:00:00	6:00:00	7:00:00	37	19	2025	2700	0.75
8300	เหนือถ.พระราม4	13.7229278	100.5524743	exat	working	2022-05-09T00:00:00	7:00:00	8:00:00	31	91	6599	2700	2.44
8301	เหนือถ.พระราม4	13.7229278	100.5524743	exat	working	2022-05-09T00:00:00	8:00:00	9:00:00	36	49	4967	2700	1.84
8302	เหนือถ.พระราม4	13.7229278	100.5524743	exat	working	2022-05-09T00:00:00	9:00:00	10:00:00	32	44	4875	2700	1.81
8303	เหนือถ.พระราม4	13.7229278	100.5524743	exat	working	2022-05-09T00:00:00	10:00:00	11:00:00	35	45	4929	2700	1.83
8304	เหนือถ.พระราม4	13.7229278	100.5524743	exat	working	2022-05-09T00:00:00	11:00:00	12:00:00	37	21	2560	2700	0.95
8305	เหนือถ.พระราม4	13.7229278	100.5524743	exat	working	2022-05-09T00:00:00	12:00:00	13:00:00	35	44	4942	2700	1.83
8306	เหนือถ.พระราม4	13.7229278	100.5524743	exat	working	2022-05-09T00:00:00	13:00:00	14:00:00	35	48	4899	2700	1.81
8307	เหนือถ.พระราม4	13.7229278	100.5524743	exat	working	2022-05-09T00:00:00	14:00:00	15:00:00	35	47	4844	2700	1.79
8308	เหนือถ.พระราม4	13.7229278	100.5524743	exat	working	2022-05-09T00:00:00	15:00:00	16:00:00	31	48	4950	2700	1.83
8309	เหนือถ.พระราม4	13.7229278	100.5524743	exat	working	2022-05-09T00:00:00	16:00:00	17:00:00	37	25	2380	2700	0.88
8310	เหนือถ.พระราม4	13.7229278	100.5524743	exat	working	2022-05-09T00:00:00	17:00:00	18:00:00	31	80	5194	2700	1.92
8311	เหนือถ.พระราม4	13.7229278	100.5524743	exat	working	2022-05-09T00:00:00	18:00:00	19:00:00	14	121	2953	2700	1.09
8312	เหนือถ.พระราม4	13.7229278	100.5524743	exat	working	2022-06-09T00:00:00	5:00:00	6:00:00	38	7	663	2700	0.25
8313	เหนือถ.พระราม4	13.7229278	100.5524743	exat	working	2022-06-09T00:00:00	6:00:00	7:00:00	27	19	2009	2700	0.74
8314	เหนือถ.พระราม4	13.7229278	100.5524743	exat	working	2022-06-09T00:00:00	7:00:00	8:00:00	28	126	6020	2700	2.23
8315	เหนือถ.พระราม4	13.7229278	100.5524743	exat	working	2022-06-09T00:00:00	8:00:00	9:00:00	35	50	4954	2700	1.83
8316	เหนือถ.พระราม4	13.7229278	100.5524743	exat	working	2022-06-09T00:00:00	9:00:00	10:00:00	31	47	4863	2700	1.80
8317	เหนือถ.พระราม4	13.7229278	100.5524743	exat	working	2022-06-09T00:00:00	10:00:00	11:00:00	33	47	4908	2700	1.82
8318	เหนือถ.พระราม4	13.7229278	100.5524743	exat	working	2022-06-09T00:00:00	11:00:00	12:00:00	37	22	2399	2700	0.89
8319	เหนือถ.พระราม4	13.7229278	100.5524743	exat	working	2022-06-09T00:00:00	12:00:00	13:00:00	33	45	4927	2700	1.82
8320	เหนือถ.พระราม4	13.7229278	100.5524743	exat	working	2022-06-09T00:00:00	13:00:00	14:00:00	34	47	4973	2700	1.84
8321	เหนือถ.พระราม4	13.7229278	100.5524743	exat	working	2022-06-09T00:00:00	14:00:00	15:00:00	34	48	4844	2700	1.79
8322	เหนือถ.พระราม4	13.7229278	100.5524743	exat	working	2022-06-09T00:00:00	15:00:00	16:00:00	31	47	4948	2700	1.83
8323	เหนือถ.พระราม4	13.7229278	100.5524743	exat	working	2022-06-09T00:00:00	16:00:00	17:00:00	33	70	3427	2700	1.27
8324	เหนือถ.พระราม4	13.7229278	100.5524743	exat	working	2022-06-09T00:00:00	17:00:00	18:00:00	32	57	3982	2700	1.47
8325	เหนือถ.พระราม4	13.7229278	100.5524743	exat	working	2022-06-09T00:00:00	18:00:00	19:00:00	23	105	3247	2700	1.20
8326	เหนือถ.พระราม4	13.7229278	100.5524743	exat	working	2022-07-09T00:00:00	5:00:00	6:00:00	25	42	688	2700	0.25
8327	เหนือถ.พระราม4	13.7229278	100.5524743	exat	working	2022-07-09T00:00:00	6:00:00	7:00:00	18	121	2001	2700	0.74
8328	เหนือถ.พระราม4	13.7229278	100.5524743	exat	working	2022-07-09T00:00:00	7:00:00	8:00:00	26	162	5346	2700	1.98
8329	เหนือถ.พระราม4	13.7229278	100.5524743	exat	working	2022-07-09T00:00:00	8:00:00	9:00:00	35	51	4951	2700	1.83
8330	เหนือถ.พระราม4	13.7229278	100.5524743	exat	working	2022-07-09T00:00:00	9:00:00	10:00:00	30	49	4932	2700	1.83
8331	เหนือถ.พระราม4	13.7229278	100.5524743	exat	working	2022-07-09T00:00:00	10:00:00	11:00:00	32	49	4900	2700	1.81
8332	เหนือถ.พระราม4	13.7229278	100.5524743	exat	working	2022-07-09T00:00:00	11:00:00	12:00:00	37	24	2211	2700	0.82
8333	เหนือถ.พระราม4	13.7229278	100.5524743	exat	working	2022-07-09T00:00:00	12:00:00	13:00:00	31	47	4923	2700	1.82
8334	เหนือถ.พระราม4	13.7229278	100.5524743	exat	working	2022-07-09T00:00:00	13:00:00	14:00:00	34	46	4928	2700	1.83
8335	เหนือถ.พระราม4	13.7229278	100.5524743	exat	working	2022-07-09T00:00:00	14:00:00	15:00:00	32	49	4859	2700	1.80
8336	เหนือถ.พระราม4	13.7229278	100.5524743	exat	working	2022-07-09T00:00:00	15:00:00	16:00:00	31	46	4867	2700	1.80
8337	เหนือถ.พระราม4	13.7229278	100.5524743	exat	working	2022-07-09T00:00:00	16:00:00	17:00:00	29	114	4421	2700	1.64
8338	เหนือถ.พระราม4	13.7229278	100.5524743	exat	working	2022-07-09T00:00:00	17:00:00	18:00:00	34	35	2762	2700	1.02
8339	เหนือถ.พระราม4	13.7229278	100.5524743	exat	working	2022-07-09T00:00:00	18:00:00	19:00:00	32	30	3502	2700	1.30
8340	เหนือถ.พระราม4	13.7229278	100.5524743	exat	working	2022-08-09T00:00:00	5:00:00	6:00:00	37	8	700	2700	0.26
8341	เหนือถ.พระราม4	13.7229278	100.5524743	exat	working	2022-08-09T00:00:00	6:00:00	7:00:00	27	23	2224	2700	0.82
8342	เหนือถ.พระราม4	13.7229278	100.5524743	exat	working	2022-08-09T00:00:00	7:00:00	8:00:00	30	103	4990	2700	1.85
8343	เหนือถ.พระราม4	13.7229278	100.5524743	exat	working	2022-08-09T00:00:00	8:00:00	9:00:00	33	42	4715	2700	1.75
8344	เหนือถ.พระราม4	13.7229278	100.5524743	exat	working	2022-08-09T00:00:00	9:00:00	10:00:00	28	40	4654	2700	1.72
8345	เหนือถ.พระราม4	13.7229278	100.5524743	exat	working	2022-08-09T00:00:00	10:00:00	11:00:00	29	40	4658	2700	1.73
8346	เหนือถ.พระราม4	13.7229278	100.5524743	exat	working	2022-08-09T00:00:00	11:00:00	12:00:00	37	25	2583	2700	0.96
8347	เหนือถ.พระราม4	13.7229278	100.5524743	exat	working	2022-08-09T00:00:00	12:00:00	13:00:00	29	38	4656	2700	1.72
8348	เหนือถ.พระราม4	13.7229278	100.5524743	exat	working	2022-08-09T00:00:00	13:00:00	14:00:00	32	39	4653	2700	1.72
8349	เหนือถ.พระราม4	13.7229278	100.5524743	exat	working	2022-08-09T00:00:00	14:00:00	15:00:00	31	41	4562	2700	1.69
8350	เหนือถ.พระราม4	13.7229278	100.5524743	exat	working	2022-08-09T00:00:00	15:00:00	16:00:00	31	38	4625	2700	1.71
8351	เหนือถ.พระราม4	13.7229278	100.5524743	exat	working	2022-08-09T00:00:00	16:00:00	17:00:00	33	71	3769	2700	1.40
8352	เหนือถ.พระราม4	13.7229278	100.5524743	exat	working	2022-08-09T00:00:00	17:00:00	18:00:00	35	35	2843	2700	1.05
8353	เหนือถ.พระราม4	13.7229278	100.5524743	exat	working	2022-08-09T00:00:00	18:00:00	19:00:00	27	26	3511	2700	1.30
8354	เหนือถ.พระราม4	13.7229278	100.5524743	exat	working	2022-09-09T00:00:00	5:00:00	6:00:00	53	9	744	2700	0.28
8355	เหนือถ.พระราม4	13.7229278	100.5524743	exat	working	2022-09-09T00:00:00	6:00:00	7:00:00	37	27	2395	2700	0.89
8356	เหนือถ.พระราม4	13.7229278	100.5524743	exat	working	2022-09-09T00:00:00	7:00:00	8:00:00	35	45	4611	2700	1.71
8357	เหนือถ.พระราม4	13.7229278	100.5524743	exat	working	2022-09-09T00:00:00	8:00:00	9:00:00	32	33	4396	2700	1.63
8358	เหนือถ.พระราม4	13.7229278	100.5524743	exat	working	2022-09-09T00:00:00	9:00:00	10:00:00	27	32	4396	2700	1.63
8359	เหนือถ.พระราม4	13.7229278	100.5524743	exat	working	2022-09-09T00:00:00	10:00:00	11:00:00	27	31	4378	2700	1.62
8360	เหนือถ.พระราม4	13.7229278	100.5524743	exat	working	2022-09-09T00:00:00	11:00:00	12:00:00	37	26	2959	2700	1.10
8361	เหนือถ.พระราม4	13.7229278	100.5524743	exat	working	2022-09-09T00:00:00	12:00:00	13:00:00	27	29	4404	2700	1.63
8362	เหนือถ.พระราม4	13.7229278	100.5524743	exat	working	2022-09-09T00:00:00	13:00:00	14:00:00	30	32	4400	2700	1.63
8363	เหนือถ.พระราม4	13.7229278	100.5524743	exat	working	2022-09-09T00:00:00	14:00:00	15:00:00	29	32	4297	2700	1.59
8364	เหนือถ.พระราม4	13.7229278	100.5524743	exat	working	2022-09-09T00:00:00	15:00:00	16:00:00	30	30	4395	2700	1.63
8365	เหนือถ.พระราม4	13.7229278	100.5524743	exat	working	2022-09-09T00:00:00	16:00:00	17:00:00	37	28	3144	2700	1.16
8366	เหนือถ.พระราม4	13.7229278	100.5524743	exat	working	2022-09-09T00:00:00	17:00:00	18:00:00	37	35	2927	2700	1.08
8367	เหนือถ.พระราม4	13.7229278	100.5524743	exat	working	2022-09-09T00:00:00	18:00:00	19:00:00	21	122	3483	2700	1.29
8368	เหนือถ.พระราม4	13.7229278	100.5524743	exat	working	2022-10-09T00:00:00	5:00:00	6:00:00	52	4	126	2700	0.05
8369	เหนือถ.พระราม4	13.7229278	100.5524743	exat	holiday	2022-10-09T00:00:00	6:00:00	7:00:00	37	11	369	2700	0.14
8370	เหนือถ.พระราม4	13.7229278	100.5524743	exat	holiday	2022-10-09T00:00:00	7:00:00	8:00:00	37	21	2766	2700	1.02
8371	เหนือถ.พระราม4	13.7229278	100.5524743	exat	holiday	2022-10-09T00:00:00	8:00:00	9:00:00	35	32	3885	2700	1.44
8372	เหนือถ.พระราม4	13.7229278	100.5524743	exat	working	2022-10-09T00:00:00	9:00:00	10:00:00	31	28	3763	2700	1.39
8373	เหนือถ.พระราม4	13.7229278	100.5524743	exat	working	2022-10-09T00:00:00	10:00:00	11:00:00	32	29	3808	2700	1.41
8374	เหนือถ.พระราม4	13.7229278	100.5524743	exat	holiday	2022-10-09T00:00:00	11:00:00	12:00:00	36	26	3497	2700	1.30
8375	เหนือถ.พระราม4	13.7229278	100.5524743	exat	working	2022-10-09T00:00:00	12:00:00	13:00:00	34	31	3843	2700	1.42
8376	เหนือถ.พระราม4	13.7229278	100.5524743	exat	working	2022-10-09T00:00:00	13:00:00	14:00:00	31	28	3778	2700	1.40
8377	เหนือถ.พระราม4	13.7229278	100.5524743	exat	working	2022-10-09T00:00:00	14:00:00	15:00:00	32	29	3760	2700	1.39
8378	เหนือถ.พระราม4	13.7229278	100.5524743	exat	working	2022-10-09T00:00:00	15:00:00	16:00:00	30	28	3795	2700	1.41
8379	เหนือถ.พระราม4	13.7229278	100.5524743	exat	holiday	2022-10-09T00:00:00	16:00:00	17:00:00	31	34	3149	2700	1.17
8380	เหนือถ.พระราม4	13.7229278	100.5524743	exat	holiday	2022-10-09T00:00:00	17:00:00	18:00:00	37	43	4220	2700	1.56
8381	เหนือถ.พระราม4	13.7229278	100.5524743	exat	holiday	2022-10-09T00:00:00	18:00:00	19:00:00	37	38	2228	2700	0.83
8382	เหนือถ.พระราม4	13.7229278	100.5524743	exat	working	2022-11-09T00:00:00	5:00:00	6:00:00	31	2	78	2700	0.03
8383	เหนือถ.พระราม4	13.7229278	100.5524743	exat	holiday	2022-11-09T00:00:00	6:00:00	7:00:00	22	7	226	2700	0.08
8384	เหนือถ.พระราม4	13.7229278	100.5524743	exat	holiday	2022-11-09T00:00:00	7:00:00	8:00:00	22	13	1661	2700	0.62
8385	เหนือถ.พระราม4	13.7229278	100.5524743	exat	holiday	2022-11-09T00:00:00	8:00:00	9:00:00	21	121	2328	2700	0.86
8386	เหนือถ.พระราม4	13.7229278	100.5524743	exat	working	2022-11-09T00:00:00	9:00:00	10:00:00	19	121	2252	2700	0.83
8387	เหนือถ.พระราม4	13.7229278	100.5524743	exat	working	2022-11-09T00:00:00	10:00:00	11:00:00	19	122	2291	2700	0.85
8388	เหนือถ.พระราม4	13.7229278	100.5524743	exat	holiday	2022-11-09T00:00:00	11:00:00	12:00:00	22	16	2125	2700	0.79
8389	เหนือถ.พระราม4	13.7229278	100.5524743	exat	working	2022-11-09T00:00:00	12:00:00	13:00:00	21	121	2327	2700	0.86
8390	เหนือถ.พระราม4	13.7229278	100.5524743	exat	working	2022-11-09T00:00:00	13:00:00	14:00:00	19	121	2322	2700	0.86
8391	เหนือถ.พระราม4	13.7229278	100.5524743	exat	working	2022-11-09T00:00:00	14:00:00	15:00:00	20	121	2275	2700	0.84
8392	เหนือถ.พระราม4	13.7229278	100.5524743	exat	working	2022-11-09T00:00:00	15:00:00	16:00:00	18	121	2264	2700	0.84
8393	เหนือถ.พระราม4	13.7229278	100.5524743	exat	holiday	2022-11-09T00:00:00	16:00:00	17:00:00	19	121	1876	2700	0.69
8394	เหนือถ.พระราม4	13.7229278	100.5524743	exat	holiday	2022-11-09T00:00:00	17:00:00	18:00:00	22	26	2547	2700	0.94
8395	เหนือถ.พระราม4	13.7229278	100.5524743	exat	holiday	2022-11-09T00:00:00	18:00:00	19:00:00	22	23	1318	2700	0.49
8396	ต่างระดับท่าเรือ	13.7168353	100.5557778	exat	working	2022-05-09T00:00:00	5:00:00	6:00:00	36	6	295	1800	0.16
8397	ต่างระดับท่าเรือ	13.7168353	100.5557778	exat	working	2022-05-09T00:00:00	6:00:00	7:00:00	26	16	903	1800	0.50
8398	ต่างระดับท่าเรือ	13.7168353	100.5557778	exat	working	2022-05-09T00:00:00	7:00:00	8:00:00	21	121	2554	1800	1.42
8399	ต่างระดับท่าเรือ	13.7168353	100.5557778	exat	working	2022-05-09T00:00:00	8:00:00	9:00:00	23	37	2368	1800	1.32
8400	ต่างระดับท่าเรือ	13.7168353	100.5557778	exat	working	2022-05-09T00:00:00	9:00:00	10:00:00	21	122	2268	1800	1.26
8401	ต่างระดับท่าเรือ	13.7168353	100.5557778	exat	working	2022-05-09T00:00:00	10:00:00	11:00:00	21	121	2208	1800	1.23
8402	ต่างระดับท่าเรือ	13.7168353	100.5557778	exat	working	2022-05-09T00:00:00	11:00:00	12:00:00	54	21	1988	1800	1.10
8403	ต่างระดับท่าเรือ	13.7168353	100.5557778	exat	working	2022-05-09T00:00:00	12:00:00	13:00:00	20	121	2264	1800	1.26
8404	ต่างระดับท่าเรือ	13.7168353	100.5557778	exat	working	2022-05-09T00:00:00	13:00:00	14:00:00	18	121	2293	1800	1.27
8405	ต่างระดับท่าเรือ	13.7168353	100.5557778	exat	working	2022-05-09T00:00:00	14:00:00	15:00:00	19	121	2344	1800	1.30
8406	ต่างระดับท่าเรือ	13.7168353	100.5557778	exat	working	2022-05-09T00:00:00	15:00:00	16:00:00	19	121	2251	1800	1.25
8407	ต่างระดับท่าเรือ	13.7168353	100.5557778	exat	working	2022-05-09T00:00:00	16:00:00	17:00:00	79	43	5797	1800	3.22
8408	ต่างระดับท่าเรือ	13.7168353	100.5557778	exat	working	2022-05-09T00:00:00	17:00:00	18:00:00	54	47	4702	1800	2.61
8409	ต่างระดับท่าเรือ	13.7168353	100.5557778	exat	working	2022-05-09T00:00:00	18:00:00	19:00:00	26	45	5082	1800	2.82
8410	ต่างระดับท่าเรือ	13.7168353	100.5557778	exat	working	2022-06-09T00:00:00	5:00:00	6:00:00	36	5	319	1800	0.18
8411	ต่างระดับท่าเรือ	13.7168353	100.5557778	exat	working	2022-06-09T00:00:00	6:00:00	7:00:00	26	16	910	1800	0.51
8412	ต่างระดับท่าเรือ	13.7168353	100.5557778	exat	working	2022-06-09T00:00:00	7:00:00	8:00:00	21	121	2541	1800	1.41
8413	ต่างระดับท่าเรือ	13.7168353	100.5557778	exat	working	2022-06-09T00:00:00	8:00:00	9:00:00	23	37	2358	1800	1.31
8414	ต่างระดับท่าเรือ	13.7168353	100.5557778	exat	working	2022-06-09T00:00:00	9:00:00	10:00:00	20	121	2293	1800	1.27
8415	ต่างระดับท่าเรือ	13.7168353	100.5557778	exat	working	2022-06-09T00:00:00	10:00:00	11:00:00	20	121	2266	1800	1.26
8416	ต่างระดับท่าเรือ	13.7168353	100.5557778	exat	working	2022-06-09T00:00:00	11:00:00	12:00:00	54	21	1998	1800	1.11
8417	ต่างระดับท่าเรือ	13.7168353	100.5557778	exat	working	2022-06-09T00:00:00	12:00:00	13:00:00	19	121	2256	1800	1.25
8418	ต่างระดับท่าเรือ	13.7168353	100.5557778	exat	working	2022-06-09T00:00:00	13:00:00	14:00:00	19	121	2267	1800	1.26
8419	ต่างระดับท่าเรือ	13.7168353	100.5557778	exat	working	2022-06-09T00:00:00	14:00:00	15:00:00	19	122	2289	1800	1.27
8420	ต่างระดับท่าเรือ	13.7168353	100.5557778	exat	working	2022-06-09T00:00:00	15:00:00	16:00:00	19	121	2239	1800	1.24
8421	ต่างระดับท่าเรือ	13.7168353	100.5557778	exat	working	2022-06-09T00:00:00	16:00:00	17:00:00	79	43	5813	1800	3.23
8422	ต่างระดับท่าเรือ	13.7168353	100.5557778	exat	working	2022-06-09T00:00:00	17:00:00	18:00:00	54	47	4717	1800	2.62
8423	ต่างระดับท่าเรือ	13.7168353	100.5557778	exat	working	2022-06-09T00:00:00	18:00:00	19:00:00	26	45	5085	1800	2.83
8424	ต่างระดับท่าเรือ	13.7168353	100.5557778	exat	working	2022-07-09T00:00:00	5:00:00	6:00:00	37	6	292	1800	0.16
8425	ต่างระดับท่าเรือ	13.7168353	100.5557778	exat	working	2022-07-09T00:00:00	6:00:00	7:00:00	26	16	919	1800	0.51
8426	ต่างระดับท่าเรือ	13.7168353	100.5557778	exat	working	2022-07-09T00:00:00	7:00:00	8:00:00	21	121	2528	1800	1.40
8427	ต่างระดับท่าเรือ	13.7168353	100.5557778	exat	working	2022-07-09T00:00:00	8:00:00	9:00:00	23	37	2371	1800	1.32
8428	ต่างระดับท่าเรือ	13.7168353	100.5557778	exat	working	2022-07-09T00:00:00	9:00:00	10:00:00	20	121	2326	1800	1.29
8429	ต่างระดับท่าเรือ	13.7168353	100.5557778	exat	working	2022-07-09T00:00:00	10:00:00	11:00:00	20	122	2365	1800	1.31
8430	ต่างระดับท่าเรือ	13.7168353	100.5557778	exat	working	2022-07-09T00:00:00	11:00:00	12:00:00	54	21	1998	1800	1.11
8431	ต่างระดับท่าเรือ	13.7168353	100.5557778	exat	working	2022-07-09T00:00:00	12:00:00	13:00:00	18	121	2238	1800	1.24
8432	ต่างระดับท่าเรือ	13.7168353	100.5557778	exat	working	2022-07-09T00:00:00	13:00:00	14:00:00	20	121	2339	1800	1.30
8433	ต่างระดับท่าเรือ	13.7168353	100.5557778	exat	working	2022-07-09T00:00:00	14:00:00	15:00:00	19	121	2244	1800	1.25
8434	ต่างระดับท่าเรือ	13.7168353	100.5557778	exat	working	2022-07-09T00:00:00	15:00:00	16:00:00	20	121	2294	1800	1.27
8435	ต่างระดับท่าเรือ	13.7168353	100.5557778	exat	working	2022-07-09T00:00:00	16:00:00	17:00:00	79	43	5780	1800	3.21
8436	ต่างระดับท่าเรือ	13.7168353	100.5557778	exat	working	2022-07-09T00:00:00	17:00:00	18:00:00	54	47	4720	1800	2.62
8437	ต่างระดับท่าเรือ	13.7168353	100.5557778	exat	working	2022-07-09T00:00:00	18:00:00	19:00:00	26	45	5065	1800	2.81
8438	ต่างระดับท่าเรือ	13.7168353	100.5557778	exat	working	2022-08-09T00:00:00	5:00:00	6:00:00	37	5	291	1800	0.16
8439	ต่างระดับท่าเรือ	13.7168353	100.5557778	exat	working	2022-08-09T00:00:00	6:00:00	7:00:00	26	16	901	1800	0.50
8440	ต่างระดับท่าเรือ	13.7168353	100.5557778	exat	working	2022-08-09T00:00:00	7:00:00	8:00:00	21	121	2552	1800	1.42
8441	ต่างระดับท่าเรือ	13.7168353	100.5557778	exat	working	2022-08-09T00:00:00	8:00:00	9:00:00	23	37	2352	1800	1.31
8442	ต่างระดับท่าเรือ	13.7168353	100.5557778	exat	working	2022-08-09T00:00:00	9:00:00	10:00:00	20	121	2307	1800	1.28
8443	ต่างระดับท่าเรือ	13.7168353	100.5557778	exat	working	2022-08-09T00:00:00	10:00:00	11:00:00	19	121	2298	1800	1.28
8444	ต่างระดับท่าเรือ	13.7168353	100.5557778	exat	working	2022-08-09T00:00:00	11:00:00	12:00:00	54	21	2007	1800	1.12
8445	ต่างระดับท่าเรือ	13.7168353	100.5557778	exat	working	2022-08-09T00:00:00	12:00:00	13:00:00	19	121	2236	1800	1.24
8446	ต่างระดับท่าเรือ	13.7168353	100.5557778	exat	working	2022-08-09T00:00:00	13:00:00	14:00:00	20	121	2264	1800	1.26
8447	ต่างระดับท่าเรือ	13.7168353	100.5557778	exat	working	2022-08-09T00:00:00	14:00:00	15:00:00	18	122	2247	1800	1.25
8448	ต่างระดับท่าเรือ	13.7168353	100.5557778	exat	working	2022-08-09T00:00:00	15:00:00	16:00:00	20	121	2282	1800	1.27
8449	ต่างระดับท่าเรือ	13.7168353	100.5557778	exat	working	2022-08-09T00:00:00	16:00:00	17:00:00	70	39	4890	1800	2.72
8450	ต่างระดับท่าเรือ	13.7168353	100.5557778	exat	working	2022-08-09T00:00:00	17:00:00	18:00:00	44	59	4185	1800	2.33
8451	ต่างระดับท่าเรือ	13.7168353	100.5557778	exat	working	2022-08-09T00:00:00	18:00:00	19:00:00	26	56	4654	1800	2.59
8452	ต่างระดับท่าเรือ	13.7168353	100.5557778	exat	working	2022-09-09T00:00:00	5:00:00	6:00:00	37	5	292	1800	0.16
8453	ต่างระดับท่าเรือ	13.7168353	100.5557778	exat	working	2022-09-09T00:00:00	6:00:00	7:00:00	26	16	911	1800	0.51
8454	ต่างระดับท่าเรือ	13.7168353	100.5557778	exat	working	2022-09-09T00:00:00	7:00:00	8:00:00	21	121	2540	1800	1.41
8455	ต่างระดับท่าเรือ	13.7168353	100.5557778	exat	working	2022-09-09T00:00:00	8:00:00	9:00:00	23	37	2333	1800	1.30
8456	ต่างระดับท่าเรือ	13.7168353	100.5557778	exat	working	2022-09-09T00:00:00	9:00:00	10:00:00	20	121	2271	1800	1.26
8457	ต่างระดับท่าเรือ	13.7168353	100.5557778	exat	working	2022-09-09T00:00:00	10:00:00	11:00:00	19	121	2292	1800	1.27
8458	ต่างระดับท่าเรือ	13.7168353	100.5557778	exat	working	2022-09-09T00:00:00	11:00:00	12:00:00	54	21	1995	1800	1.11
8459	ต่างระดับท่าเรือ	13.7168353	100.5557778	exat	working	2022-09-09T00:00:00	12:00:00	13:00:00	21	121	2291	1800	1.27
8460	ต่างระดับท่าเรือ	13.7168353	100.5557778	exat	working	2022-09-09T00:00:00	13:00:00	14:00:00	20	121	2232	1800	1.24
8461	ต่างระดับท่าเรือ	13.7168353	100.5557778	exat	working	2022-09-09T00:00:00	14:00:00	15:00:00	18	121	2326	1800	1.29
8462	ต่างระดับท่าเรือ	13.7168353	100.5557778	exat	working	2022-09-09T00:00:00	15:00:00	16:00:00	20	121	2207	1800	1.23
8463	ต่างระดับท่าเรือ	13.7168353	100.5557778	exat	working	2022-09-09T00:00:00	16:00:00	17:00:00	61	36	3972	1800	2.21
8464	ต่างระดับท่าเรือ	13.7168353	100.5557778	exat	working	2022-09-09T00:00:00	17:00:00	18:00:00	34	72	3605	1800	2.00
8465	ต่างระดับท่าเรือ	13.7168353	100.5557778	exat	working	2022-09-09T00:00:00	18:00:00	19:00:00	27	67	4176	1800	2.32
8466	ต่างระดับท่าเรือ	13.7168353	100.5557778	exat	working	2022-10-09T00:00:00	5:00:00	6:00:00	49	12	329	1800	0.18
8467	ต่างระดับท่าเรือ	13.7168353	100.5557778	exat	holiday	2022-10-09T00:00:00	6:00:00	7:00:00	35	35	991	1800	0.55
8468	ต่างระดับท่าเรือ	13.7168353	100.5557778	exat	holiday	2022-10-09T00:00:00	7:00:00	8:00:00	30	70	1554	1800	0.86
8469	ต่างระดับท่าเรือ	13.7168353	100.5557778	exat	holiday	2022-10-09T00:00:00	8:00:00	9:00:00	23	84	1983	1800	1.10
8470	ต่างระดับท่าเรือ	13.7168353	100.5557778	exat	working	2022-10-09T00:00:00	9:00:00	10:00:00	20	121	1979	1800	1.10
8471	ต่างระดับท่าเรือ	13.7168353	100.5557778	exat	working	2022-10-09T00:00:00	10:00:00	11:00:00	19	121	1863	1800	1.04
8472	ต่างระดับท่าเรือ	13.7168353	100.5557778	exat	holiday	2022-10-09T00:00:00	11:00:00	12:00:00	36	90	4160	1800	2.31
8473	ต่างระดับท่าเรือ	13.7168353	100.5557778	exat	working	2022-10-09T00:00:00	12:00:00	13:00:00	20	121	1966	1800	1.09
8474	ต่างระดับท่าเรือ	13.7168353	100.5557778	exat	working	2022-10-09T00:00:00	13:00:00	14:00:00	17	121	1860	1800	1.03
8475	ต่างระดับท่าเรือ	13.7168353	100.5557778	exat	working	2022-10-09T00:00:00	14:00:00	15:00:00	17	121	1834	1800	1.02
8476	ต่างระดับท่าเรือ	13.7168353	100.5557778	exat	working	2022-10-09T00:00:00	15:00:00	16:00:00	20	121	1862	1800	1.03
8477	ต่างระดับท่าเรือ	13.7168353	100.5557778	exat	holiday	2022-10-09T00:00:00	16:00:00	17:00:00	79	43	5817	1800	3.23
8478	ต่างระดับท่าเรือ	13.7168353	100.5557778	exat	holiday	2022-10-09T00:00:00	17:00:00	18:00:00	54	47	4728	1800	2.63
8479	ต่างระดับท่าเรือ	13.7168353	100.5557778	exat	holiday	2022-10-09T00:00:00	18:00:00	19:00:00	64	34	2159	1800	1.20
8480	ต่างระดับท่าเรือ	13.7168353	100.5557778	exat	working	2022-11-09T00:00:00	5:00:00	6:00:00	29	40	207	1800	0.12
8481	ต่างระดับท่าเรือ	13.7168353	100.5557778	exat	holiday	2022-11-09T00:00:00	6:00:00	7:00:00	21	121	612	1800	0.34
8482	ต่างระดับท่าเรือ	13.7168353	100.5557778	exat	holiday	2022-11-09T00:00:00	7:00:00	8:00:00	18	121	930	1800	0.52
8483	ต่างระดับท่าเรือ	13.7168353	100.5557778	exat	holiday	2022-11-09T00:00:00	8:00:00	9:00:00	14	121	1215	1800	0.68
8484	ต่างระดับท่าเรือ	13.7168353	100.5557778	exat	working	2022-11-09T00:00:00	9:00:00	10:00:00	12	122	1194	1800	0.66
8485	ต่างระดับท่าเรือ	13.7168353	100.5557778	exat	working	2022-11-09T00:00:00	10:00:00	11:00:00	12	121	1114	1800	0.62
8486	ต่างระดับท่าเรือ	13.7168353	100.5557778	exat	holiday	2022-11-09T00:00:00	11:00:00	12:00:00	22	54	2501	1800	1.39
8487	ต่างระดับท่าเรือ	13.7168353	100.5557778	exat	working	2022-11-09T00:00:00	12:00:00	13:00:00	12	121	1152	1800	0.64
8488	ต่างระดับท่าเรือ	13.7168353	100.5557778	exat	working	2022-11-09T00:00:00	13:00:00	14:00:00	10	121	1104	1800	0.61
8489	ต่างระดับท่าเรือ	13.7168353	100.5557778	exat	working	2022-11-09T00:00:00	14:00:00	15:00:00	10	121	1108	1800	0.62
8490	ต่างระดับท่าเรือ	13.7168353	100.5557778	exat	working	2022-11-09T00:00:00	15:00:00	16:00:00	12	121	1102	1800	0.61
8491	ต่างระดับท่าเรือ	13.7168353	100.5557778	exat	holiday	2022-11-09T00:00:00	16:00:00	17:00:00	48	26	3470	1800	1.93
8492	ต่างระดับท่าเรือ	13.7168353	100.5557778	exat	holiday	2022-11-09T00:00:00	17:00:00	18:00:00	32	28	2848	1800	1.58
8493	ต่างระดับท่าเรือ	13.7168353	100.5557778	exat	holiday	2022-11-09T00:00:00	18:00:00	19:00:00	39	20	1296	1800	0.72
8494	เข้าด่านพระราม4-1	13.7235501	100.5527571	exat	working	2022-05-09T00:00:00	5:00:00	6:00:00	53	30	540	2700	0.20
8495	เข้าด่านพระราม4-1	13.7235501	100.5527571	exat	working	2022-05-09T00:00:00	6:00:00	7:00:00	37	94	1627	2700	0.60
8496	เข้าด่านพระราม4-1	13.7235501	100.5527571	exat	working	2022-05-09T00:00:00	7:00:00	8:00:00	21	121	758	2700	0.28
8497	เข้าด่านพระราม4-1	13.7235501	100.5527571	exat	working	2022-05-09T00:00:00	8:00:00	9:00:00	37	115	913	2700	0.34
8498	เข้าด่านพระราม4-1	13.7235501	100.5527571	exat	working	2022-05-09T00:00:00	9:00:00	10:00:00	35	111	781	2700	0.29
8499	เข้าด่านพระราม4-1	13.7235501	100.5527571	exat	working	2022-05-09T00:00:00	10:00:00	11:00:00	35	111	844	2700	0.31
8500	เข้าด่านพระราม4-1	13.7235501	100.5527571	exat	working	2022-05-09T00:00:00	11:00:00	12:00:00	29	121	4074	2700	1.51
8501	เข้าด่านพระราม4-1	13.7235501	100.5527571	exat	working	2022-05-09T00:00:00	12:00:00	13:00:00	34	111	909	2700	0.34
8502	เข้าด่านพระราม4-1	13.7235501	100.5527571	exat	working	2022-05-09T00:00:00	13:00:00	14:00:00	35	113	860	2700	0.32
8503	เข้าด่านพระราม4-1	13.7235501	100.5527571	exat	working	2022-05-09T00:00:00	14:00:00	15:00:00	34	112	846	2700	0.31
8504	เข้าด่านพระราม4-1	13.7235501	100.5527571	exat	working	2022-05-09T00:00:00	15:00:00	16:00:00	36	114	1040	2700	0.39
8505	เข้าด่านพระราม4-1	13.7235501	100.5527571	exat	working	2022-05-09T00:00:00	16:00:00	17:00:00	37	182	927	2700	0.34
8506	เข้าด่านพระราม4-1	13.7235501	100.5527571	exat	working	2022-05-09T00:00:00	17:00:00	18:00:00	22	99	1460	2700	0.54
8507	เข้าด่านพระราม4-1	13.7235501	100.5527571	exat	working	2022-05-09T00:00:00	18:00:00	19:00:00	37	84	555	2700	0.21
8508	เข้าด่านพระราม4-1	13.7235501	100.5527571	exat	working	2022-06-09T00:00:00	5:00:00	6:00:00	53	26	335	2700	0.12
8509	เข้าด่านพระราม4-1	13.7235501	100.5527571	exat	working	2022-06-09T00:00:00	6:00:00	7:00:00	37	85	1019	2700	0.38
8510	เข้าด่านพระราม4-1	13.7235501	100.5527571	exat	working	2022-06-09T00:00:00	7:00:00	8:00:00	21	121	726	2700	0.27
8511	เข้าด่านพระราม4-1	13.7235501	100.5527571	exat	working	2022-06-09T00:00:00	8:00:00	9:00:00	37	139	1665	2700	0.62
8512	เข้าด่านพระราม4-1	13.7235501	100.5527571	exat	working	2022-06-09T00:00:00	9:00:00	10:00:00	34	136	1566	2700	0.58
8513	เข้าด่านพระราม4-1	13.7235501	100.5527571	exat	working	2022-06-09T00:00:00	10:00:00	11:00:00	35	137	1574	2700	0.58
8514	เข้าด่านพระราม4-1	13.7235501	100.5527571	exat	working	2022-06-09T00:00:00	11:00:00	12:00:00	29	151	2649	2700	0.98
8515	เข้าด่านพระราม4-1	13.7235501	100.5527571	exat	working	2022-06-09T00:00:00	12:00:00	13:00:00	34	138	1653	2700	0.61
8516	เข้าด่านพระราม4-1	13.7235501	100.5527571	exat	working	2022-06-09T00:00:00	13:00:00	14:00:00	34	138	1574	2700	0.58
8517	เข้าด่านพระราม4-1	13.7235501	100.5527571	exat	working	2022-06-09T00:00:00	14:00:00	15:00:00	35	137	1584	2700	0.59
8518	เข้าด่านพระราม4-1	13.7235501	100.5527571	exat	working	2022-06-09T00:00:00	15:00:00	16:00:00	34	137	1699	2700	0.63
8519	เข้าด่านพระราม4-1	13.7235501	100.5527571	exat	working	2022-06-09T00:00:00	16:00:00	17:00:00	22	179	925	2700	0.34
8520	เข้าด่านพระราม4-1	13.7235501	100.5527571	exat	working	2022-06-09T00:00:00	17:00:00	18:00:00	11	121	1301	2700	0.48
8521	เข้าด่านพระราม4-1	13.7235501	100.5527571	exat	working	2022-06-09T00:00:00	18:00:00	19:00:00	32	104	843	2700	0.31
8522	เข้าด่านพระราม4-1	13.7235501	100.5527571	exat	working	2022-07-09T00:00:00	5:00:00	6:00:00	53	25	125	2700	0.05
8523	เข้าด่านพระราม4-1	13.7235501	100.5527571	exat	working	2022-07-09T00:00:00	6:00:00	7:00:00	37	77	369	2700	0.14
8524	เข้าด่านพระราม4-1	13.7235501	100.5527571	exat	working	2022-07-09T00:00:00	7:00:00	8:00:00	21	121	727	2700	0.27
8525	เข้าด่านพระราม4-1	13.7235501	100.5527571	exat	working	2022-07-09T00:00:00	8:00:00	9:00:00	37	164	2399	2700	0.89
8526	เข้าด่านพระราม4-1	13.7235501	100.5527571	exat	working	2022-07-09T00:00:00	9:00:00	10:00:00	33	162	2376	2700	0.88
8527	เข้าด่านพระราม4-1	13.7235501	100.5527571	exat	working	2022-07-09T00:00:00	10:00:00	11:00:00	35	163	2349	2700	0.87
8528	เข้าด่านพระราม4-1	13.7235501	100.5527571	exat	working	2022-07-09T00:00:00	11:00:00	12:00:00	28	181	1287	2700	0.48
8529	เข้าด่านพระราม4-1	13.7235501	100.5527571	exat	working	2022-07-09T00:00:00	12:00:00	13:00:00	33	164	2381	2700	0.88
8530	เข้าด่านพระราม4-1	13.7235501	100.5527571	exat	working	2022-07-09T00:00:00	13:00:00	14:00:00	33	162	2243	2700	0.83
8531	เข้าด่านพระราม4-1	13.7235501	100.5527571	exat	working	2022-07-09T00:00:00	14:00:00	15:00:00	35	161	2352	2700	0.87
8532	เข้าด่านพระราม4-1	13.7235501	100.5527571	exat	working	2022-07-09T00:00:00	15:00:00	16:00:00	33	162	2382	2700	0.88
8533	เข้าด่านพระราม4-1	13.7235501	100.5527571	exat	working	2022-07-09T00:00:00	16:00:00	17:00:00	8	121	931	2700	0.34
8534	เข้าด่านพระราม4-1	13.7235501	100.5527571	exat	working	2022-07-09T00:00:00	17:00:00	18:00:00	21	121	1104	2700	0.41
8535	เข้าด่านพระราม4-1	13.7235501	100.5527571	exat	working	2022-07-09T00:00:00	18:00:00	19:00:00	28	124	1093	2700	0.40
8536	เข้าด่านพระราม4-1	13.7235501	100.5527571	exat	working	2022-08-09T00:00:00	5:00:00	6:00:00	52	32	424	2700	0.16
8537	เข้าด่านพระราม4-1	13.7235501	100.5527571	exat	working	2022-08-09T00:00:00	6:00:00	7:00:00	37	95	1307	2700	0.48
8538	เข้าด่านพระราม4-1	13.7235501	100.5527571	exat	working	2022-08-09T00:00:00	7:00:00	8:00:00	19	121	1018	2700	0.38
8539	เข้าด่านพระราม4-1	13.7235501	100.5527571	exat	working	2022-08-09T00:00:00	8:00:00	9:00:00	19	122	1557	2700	0.58
8540	เข้าด่านพระราม4-1	13.7235501	100.5527571	exat	working	2022-08-09T00:00:00	9:00:00	10:00:00	17	121	1511	2700	0.56
8541	เข้าด่านพระราม4-1	13.7235501	100.5527571	exat	working	2022-08-09T00:00:00	10:00:00	11:00:00	16	121	1486	2700	0.55
8542	เข้าด่านพระราม4-1	13.7235501	100.5527571	exat	working	2022-08-09T00:00:00	11:00:00	12:00:00	14	121	942	2700	0.35
8543	เข้าด่านพระราม4-1	13.7235501	100.5527571	exat	working	2022-08-09T00:00:00	12:00:00	13:00:00	15	121	1501	2700	0.56
8544	เข้าด่านพระราม4-1	13.7235501	100.5527571	exat	working	2022-08-09T00:00:00	13:00:00	14:00:00	14	121	1460	2700	0.54
8545	เข้าด่านพระราม4-1	13.7235501	100.5527571	exat	working	2022-08-09T00:00:00	14:00:00	15:00:00	17	121	1496	2700	0.55
8546	เข้าด่านพระราม4-1	13.7235501	100.5527571	exat	working	2022-08-09T00:00:00	15:00:00	16:00:00	16	121	1495	2700	0.55
8547	เข้าด่านพระราม4-1	13.7235501	100.5527571	exat	working	2022-08-09T00:00:00	16:00:00	17:00:00	12	121	843	2700	0.31
8548	เข้าด่านพระราม4-1	13.7235501	100.5527571	exat	working	2022-08-09T00:00:00	17:00:00	18:00:00	21	121	813	2700	0.30
8549	เข้าด่านพระราม4-1	13.7235501	100.5527571	exat	working	2022-08-09T00:00:00	18:00:00	19:00:00	30	128	1191	2700	0.44
8550	เข้าด่านพระราม4-1	13.7235501	100.5527571	exat	working	2022-09-09T00:00:00	5:00:00	6:00:00	53	39	683	2700	0.25
8551	เข้าด่านพระราม4-1	13.7235501	100.5527571	exat	working	2022-09-09T00:00:00	6:00:00	7:00:00	37	114	2225	2700	0.82
8552	เข้าด่านพระราม4-1	13.7235501	100.5527571	exat	working	2022-09-09T00:00:00	7:00:00	8:00:00	37	181	1302	2700	0.48
8553	เข้าด่านพระราม4-1	13.7235501	100.5527571	exat	working	2022-09-09T00:00:00	8:00:00	9:00:00	21	121	729	2700	0.27
8554	เข้าด่านพระราม4-1	13.7235501	100.5527571	exat	working	2022-09-09T00:00:00	9:00:00	10:00:00	21	121	673	2700	0.25
8555	เข้าด่านพระราม4-1	13.7235501	100.5527571	exat	working	2022-09-09T00:00:00	10:00:00	11:00:00	21	121	664	2700	0.25
8556	เข้าด่านพระราม4-1	13.7235501	100.5527571	exat	working	2022-09-09T00:00:00	11:00:00	12:00:00	21	121	557	2700	0.21
8557	เข้าด่านพระราม4-1	13.7235501	100.5527571	exat	working	2022-09-09T00:00:00	12:00:00	13:00:00	21	121	625	2700	0.23
8558	เข้าด่านพระราม4-1	13.7235501	100.5527571	exat	working	2022-09-09T00:00:00	13:00:00	14:00:00	21	121	695	2700	0.26
8559	เข้าด่านพระราม4-1	13.7235501	100.5527571	exat	working	2022-09-09T00:00:00	14:00:00	15:00:00	21	121	655	2700	0.24
8560	เข้าด่านพระราม4-1	13.7235501	100.5527571	exat	working	2022-09-09T00:00:00	15:00:00	16:00:00	21	121	635	2700	0.24
8561	เข้าด่านพระราม4-1	13.7235501	100.5527571	exat	working	2022-09-09T00:00:00	16:00:00	17:00:00	16	122	750	2700	0.28
8562	เข้าด่านพระราม4-1	13.7235501	100.5527571	exat	working	2022-09-09T00:00:00	17:00:00	18:00:00	21	121	555	2700	0.21
8563	เข้าด่านพระราม4-1	13.7235501	100.5527571	exat	working	2022-09-09T00:00:00	18:00:00	19:00:00	32	131	1290	2700	0.48
8564	เข้าด่านพระราม4-1	13.7235501	100.5527571	exat	working	2022-10-09T00:00:00	5:00:00	6:00:00	53	13	254	2700	0.09
8565	เข้าด่านพระราม4-1	13.7235501	100.5527571	exat	holiday	2022-10-09T00:00:00	6:00:00	7:00:00	37	41	750	2700	0.28
8566	เข้าด่านพระราม4-1	13.7235501	100.5527571	exat	holiday	2022-10-09T00:00:00	7:00:00	8:00:00	21	122	379	2700	0.14
8567	เข้าด่านพระราม4-1	13.7235501	100.5527571	exat	holiday	2022-10-09T00:00:00	8:00:00	9:00:00	37	131	2633	2700	0.98
8568	เข้าด่านพระราม4-1	13.7235501	100.5527571	exat	working	2022-10-09T00:00:00	9:00:00	10:00:00	35	126	2469	2700	0.91
8569	เข้าด่านพระราม4-1	13.7235501	100.5527571	exat	working	2022-10-09T00:00:00	10:00:00	11:00:00	32	130	2520	2700	0.93
8570	เข้าด่านพระราม4-1	13.7235501	100.5527571	exat	holiday	2022-10-09T00:00:00	11:00:00	12:00:00	32	110	1857	2700	0.69
8571	เข้าด่านพระราม4-1	13.7235501	100.5527571	exat	working	2022-10-09T00:00:00	12:00:00	13:00:00	34	127	2453	2700	0.91
8572	เข้าด่านพระราม4-1	13.7235501	100.5527571	exat	working	2022-10-09T00:00:00	13:00:00	14:00:00	32	128	2452	2700	0.91
8573	เข้าด่านพระราม4-1	13.7235501	100.5527571	exat	working	2022-10-09T00:00:00	14:00:00	15:00:00	32	127	2513	2700	0.93
8574	เข้าด่านพระราม4-1	13.7235501	100.5527571	exat	working	2022-10-09T00:00:00	15:00:00	16:00:00	34	128	2451	2700	0.91
8575	เข้าด่านพระราม4-1	13.7235501	100.5527571	exat	holiday	2022-10-09T00:00:00	16:00:00	17:00:00	37	83	1113	2700	0.41
8576	เข้าด่านพระราม4-1	13.7235501	100.5527571	exat	holiday	2022-10-09T00:00:00	17:00:00	18:00:00	19	122	1475	2700	0.55
8577	เข้าด่านพระราม4-1	13.7235501	100.5527571	exat	holiday	2022-10-09T00:00:00	18:00:00	19:00:00	32	39	1827	2700	0.68
8578	เข้าด่านพระราม4-1	13.7235501	100.5527571	exat	working	2022-11-09T00:00:00	5:00:00	6:00:00	30	8	148	2700	0.05
8579	เข้าด่านพระราม4-1	13.7235501	100.5527571	exat	holiday	2022-11-09T00:00:00	6:00:00	7:00:00	22	25	429	2700	0.16
8580	เข้าด่านพระราม4-1	13.7235501	100.5527571	exat	holiday	2022-11-09T00:00:00	7:00:00	8:00:00	21	121	222	2700	0.08
8581	เข้าด่านพระราม4-1	13.7235501	100.5527571	exat	holiday	2022-11-09T00:00:00	8:00:00	9:00:00	22	79	1547	2700	0.57
8582	เข้าด่านพระราม4-1	13.7235501	100.5527571	exat	working	2022-11-09T00:00:00	9:00:00	10:00:00	21	121	1486	2700	0.55
8583	เข้าด่านพระราม4-1	13.7235501	100.5527571	exat	working	2022-11-09T00:00:00	10:00:00	11:00:00	20	122	1531	2700	0.57
8584	เข้าด่านพระราม4-1	13.7235501	100.5527571	exat	holiday	2022-11-09T00:00:00	11:00:00	12:00:00	20	121	1098	2700	0.41
8585	เข้าด่านพระราม4-1	13.7235501	100.5527571	exat	working	2022-11-09T00:00:00	12:00:00	13:00:00	21	121	1507	2700	0.56
8586	เข้าด่านพระราม4-1	13.7235501	100.5527571	exat	working	2022-11-09T00:00:00	13:00:00	14:00:00	19	121	1480	2700	0.55
8587	เข้าด่านพระราม4-1	13.7235501	100.5527571	exat	working	2022-11-09T00:00:00	14:00:00	15:00:00	19	122	1487	2700	0.55
8588	เข้าด่านพระราม4-1	13.7235501	100.5527571	exat	working	2022-11-09T00:00:00	15:00:00	16:00:00	21	122	1473	2700	0.55
8589	เข้าด่านพระราม4-1	13.7235501	100.5527571	exat	holiday	2022-11-09T00:00:00	16:00:00	17:00:00	22	50	644	2700	0.24
8590	เข้าด่านพระราม4-1	13.7235501	100.5527571	exat	holiday	2022-11-09T00:00:00	17:00:00	18:00:00	11	121	894	2700	0.33
8591	เข้าด่านพระราม4-1	13.7235501	100.5527571	exat	holiday	2022-11-09T00:00:00	18:00:00	19:00:00	19	122	1109	2700	0.41
8592	เข้าด่านพระราม4-2	13.7227684	100.5525772	exat	working	2022-05-09T00:00:00	5:00:00	6:00:00	19	41	540	2700	0.20
8593	เข้าด่านพระราม4-2	13.7227684	100.5525772	exat	working	2022-05-09T00:00:00	6:00:00	7:00:00	14	121	1640	2700	0.61
8594	เข้าด่านพระราม4-2	13.7227684	100.5525772	exat	working	2022-05-09T00:00:00	7:00:00	8:00:00	37	81	1669	2700	0.62
8595	เข้าด่านพระราม4-2	13.7227684	100.5525772	exat	working	2022-05-09T00:00:00	8:00:00	9:00:00	20	121	2401	2700	0.89
8596	เข้าด่านพระราม4-2	13.7227684	100.5525772	exat	working	2022-05-09T00:00:00	9:00:00	10:00:00	17	121	2267	2700	0.84
8597	เข้าด่านพระราม4-2	13.7227684	100.5525772	exat	working	2022-05-09T00:00:00	10:00:00	11:00:00	19	121	2247	2700	0.83
8598	เข้าด่านพระราม4-2	13.7227684	100.5525772	exat	working	2022-05-09T00:00:00	11:00:00	12:00:00	30	132	2963	2700	1.10
8599	เข้าด่านพระราม4-2	13.7227684	100.5525772	exat	working	2022-05-09T00:00:00	12:00:00	13:00:00	16	121	2269	2700	0.84
8600	เข้าด่านพระราม4-2	13.7227684	100.5525772	exat	working	2022-05-09T00:00:00	13:00:00	14:00:00	19	121	2305	2700	0.85
8601	เข้าด่านพระราม4-2	13.7227684	100.5525772	exat	working	2022-05-09T00:00:00	14:00:00	15:00:00	19	121	2253	2700	0.83
8602	เข้าด่านพระราม4-2	13.7227684	100.5525772	exat	working	2022-05-09T00:00:00	15:00:00	16:00:00	17	121	2378	2700	0.88
8603	เข้าด่านพระราม4-2	13.7227684	100.5525772	exat	working	2022-05-09T00:00:00	16:00:00	17:00:00	25	180	3316	2700	1.23
8604	เข้าด่านพระราม4-2	13.7227684	100.5525772	exat	working	2022-05-09T00:00:00	17:00:00	18:00:00	29	108	2389	2700	0.88
8605	เข้าด่านพระราม4-2	13.7227684	100.5525772	exat	working	2022-05-09T00:00:00	18:00:00	19:00:00	18	121	2233	2700	0.83
8606	เข้าด่านพระราม4-2	13.7227684	100.5525772	exat	working	2022-06-09T00:00:00	5:00:00	6:00:00	15	42	445	2700	0.16
8607	เข้าด่านพระราม4-2	13.7227684	100.5525772	exat	working	2022-06-09T00:00:00	6:00:00	7:00:00	11	121	1388	2700	0.51
8608	เข้าด่านพระราม4-2	13.7227684	100.5525772	exat	working	2022-06-09T00:00:00	7:00:00	8:00:00	35	100	2104	2700	0.78
8609	เข้าด่านพระราม4-2	13.7227684	100.5525772	exat	working	2022-06-09T00:00:00	8:00:00	9:00:00	20	121	2309	2700	0.86
8610	เข้าด่านพระราม4-2	13.7227684	100.5525772	exat	working	2022-06-09T00:00:00	9:00:00	10:00:00	18	121	2183	2700	0.81
8611	เข้าด่านพระราม4-2	13.7227684	100.5525772	exat	working	2022-06-09T00:00:00	10:00:00	11:00:00	17	121	2223	2700	0.82
8612	เข้าด่านพระราม4-2	13.7227684	100.5525772	exat	working	2022-06-09T00:00:00	11:00:00	12:00:00	28	127	2856	2700	1.06
8613	เข้าด่านพระราม4-2	13.7227684	100.5525772	exat	working	2022-06-09T00:00:00	12:00:00	13:00:00	17	121	2239	2700	0.83
8614	เข้าด่านพระราม4-2	13.7227684	100.5525772	exat	working	2022-06-09T00:00:00	13:00:00	14:00:00	17	121	2200	2700	0.81
8615	เข้าด่านพระราม4-2	13.7227684	100.5525772	exat	working	2022-06-09T00:00:00	14:00:00	15:00:00	18	121	2230	2700	0.83
8616	เข้าด่านพระราม4-2	13.7227684	100.5525772	exat	working	2022-06-09T00:00:00	15:00:00	16:00:00	18	121	2282	2700	0.85
8617	เข้าด่านพระราม4-2	13.7227684	100.5525772	exat	working	2022-06-09T00:00:00	16:00:00	17:00:00	28	134	4059	2700	1.50
8618	เข้าด่านพระราม4-2	13.7227684	100.5525772	exat	working	2022-06-09T00:00:00	17:00:00	18:00:00	27	94	2926	2700	1.08
8619	เข้าด่านพระราม4-2	13.7227684	100.5525772	exat	working	2022-06-09T00:00:00	18:00:00	19:00:00	27	152	2010	2700	0.74
8620	เข้าด่านพระราม4-2	13.7227684	100.5525772	exat	working	2022-07-09T00:00:00	5:00:00	6:00:00	12	42	355	2700	0.13
8621	เข้าด่านพระราม4-2	13.7227684	100.5525772	exat	working	2022-07-09T00:00:00	6:00:00	7:00:00	9	121	1077	2700	0.40
8622	เข้าด่านพระราม4-2	13.7227684	100.5525772	exat	working	2022-07-09T00:00:00	7:00:00	8:00:00	33	119	2592	2700	0.96
8623	เข้าด่านพระราม4-2	13.7227684	100.5525772	exat	working	2022-07-09T00:00:00	8:00:00	9:00:00	20	121	2193	2700	0.81
8624	เข้าด่านพระราม4-2	13.7227684	100.5525772	exat	working	2022-07-09T00:00:00	9:00:00	10:00:00	18	121	2079	2700	0.77
8625	เข้าด่านพระราม4-2	13.7227684	100.5525772	exat	working	2022-07-09T00:00:00	10:00:00	11:00:00	16	121	2171	2700	0.80
8626	เข้าด่านพระราม4-2	13.7227684	100.5525772	exat	working	2022-07-09T00:00:00	11:00:00	12:00:00	26	122	2775	2700	1.03
8627	เข้าด่านพระราม4-2	13.7227684	100.5525772	exat	working	2022-07-09T00:00:00	12:00:00	13:00:00	18	122	2183	2700	0.81
8628	เข้าด่านพระราม4-2	13.7227684	100.5525772	exat	working	2022-07-09T00:00:00	13:00:00	14:00:00	15	121	2088	2700	0.77
8629	เข้าด่านพระราม4-2	13.7227684	100.5525772	exat	working	2022-07-09T00:00:00	14:00:00	15:00:00	17	121	2145	2700	0.79
8630	เข้าด่านพระราม4-2	13.7227684	100.5525772	exat	working	2022-07-09T00:00:00	15:00:00	16:00:00	18	121	2143	2700	0.79
8631	เข้าด่านพระราม4-2	13.7227684	100.5525772	exat	working	2022-07-09T00:00:00	16:00:00	17:00:00	31	88	4805	2700	1.78
8632	เข้าด่านพระราม4-2	13.7227684	100.5525772	exat	working	2022-07-09T00:00:00	17:00:00	18:00:00	25	81	3502	2700	1.30
8633	เข้าด่านพระราม4-2	13.7227684	100.5525772	exat	working	2022-07-09T00:00:00	18:00:00	19:00:00	37	121	1852	2700	0.69
8634	เข้าด่านพระราม4-2	13.7227684	100.5525772	exat	working	2022-08-09T00:00:00	5:00:00	6:00:00	23	42	602	2700	0.22
8635	เข้าด่านพระราม4-2	13.7227684	100.5525772	exat	working	2022-08-09T00:00:00	6:00:00	7:00:00	17	121	1769	2700	0.66
8636	เข้าด่านพระราม4-2	13.7227684	100.5525772	exat	working	2022-08-09T00:00:00	7:00:00	8:00:00	32	151	2669	2700	0.99
8637	เข้าด่านพระราม4-2	13.7227684	100.5525772	exat	working	2022-08-09T00:00:00	8:00:00	9:00:00	28	143	2110	2700	0.78
8638	เข้าด่านพระราม4-2	13.7227684	100.5525772	exat	working	2022-08-09T00:00:00	9:00:00	10:00:00	26	138	1977	2700	0.73
8639	เข้าด่านพระราม4-2	13.7227684	100.5525772	exat	working	2022-08-09T00:00:00	10:00:00	11:00:00	26	139	2031	2700	0.75
8640	เข้าด่านพระราม4-2	13.7227684	100.5525772	exat	working	2022-08-09T00:00:00	11:00:00	12:00:00	28	140	3231	2700	1.20
8641	เข้าด่านพระราม4-2	13.7227684	100.5525772	exat	working	2022-08-09T00:00:00	12:00:00	13:00:00	27	139	2054	2700	0.76
8642	เข้าด่านพระราม4-2	13.7227684	100.5525772	exat	working	2022-08-09T00:00:00	13:00:00	14:00:00	24	140	1986	2700	0.74
8643	เข้าด่านพระราม4-2	13.7227684	100.5525772	exat	working	2022-08-09T00:00:00	14:00:00	15:00:00	25	139	2102	2700	0.78
8644	เข้าด่านพระราม4-2	13.7227684	100.5525772	exat	working	2022-08-09T00:00:00	15:00:00	16:00:00	27	140	2017	2700	0.75
8645	เข้าด่านพระราม4-2	13.7227684	100.5525772	exat	working	2022-08-09T00:00:00	16:00:00	17:00:00	32	134	3506	2700	1.30
8646	เข้าด่านพระราม4-2	13.7227684	100.5525772	exat	working	2022-08-09T00:00:00	17:00:00	18:00:00	16	121	2636	2700	0.98
8647	เข้าด่านพระราม4-2	13.7227684	100.5525772	exat	working	2022-08-09T00:00:00	18:00:00	19:00:00	29	147	2194	2700	0.81
8648	เข้าด่านพระราม4-2	13.7227684	100.5525772	exat	working	2022-09-09T00:00:00	5:00:00	6:00:00	34	60	762	2700	0.28
8649	เข้าด่านพระราม4-2	13.7227684	100.5525772	exat	working	2022-09-09T00:00:00	6:00:00	7:00:00	25	181	2417	2700	0.90
8650	เข้าด่านพระราม4-2	13.7227684	100.5525772	exat	working	2022-09-09T00:00:00	7:00:00	8:00:00	30	181	2762	2700	1.02
8651	เข้าด่านพระราม4-2	13.7227684	100.5525772	exat	working	2022-09-09T00:00:00	8:00:00	9:00:00	37	125	2023	2700	0.75
8652	เข้าด่านพระราม4-2	13.7227684	100.5525772	exat	working	2022-09-09T00:00:00	9:00:00	10:00:00	34	121	1926	2700	0.71
8653	เข้าด่านพระราม4-2	13.7227684	100.5525772	exat	working	2022-09-09T00:00:00	10:00:00	11:00:00	35	120	1863	2700	0.69
8654	เข้าด่านพระราม4-2	13.7227684	100.5525772	exat	working	2022-09-09T00:00:00	11:00:00	12:00:00	31	156	3655	2700	1.35
8655	เข้าด่านพระราม4-2	13.7227684	100.5525772	exat	working	2022-09-09T00:00:00	12:00:00	13:00:00	36	123	1952	2700	0.72
8656	เข้าด่านพระราม4-2	13.7227684	100.5525772	exat	working	2022-09-09T00:00:00	13:00:00	14:00:00	33	124	1919	2700	0.71
8657	เข้าด่านพระราม4-2	13.7227684	100.5525772	exat	working	2022-09-09T00:00:00	14:00:00	15:00:00	33	120	1988	2700	0.74
8658	เข้าด่านพระราม4-2	13.7227684	100.5525772	exat	working	2022-09-09T00:00:00	15:00:00	16:00:00	36	123	1974	2700	0.73
8659	เข้าด่านพระราม4-2	13.7227684	100.5525772	exat	working	2022-09-09T00:00:00	16:00:00	17:00:00	32	182	2209	2700	0.82
8660	เข้าด่านพระราม4-2	13.7227684	100.5525772	exat	working	2022-09-09T00:00:00	17:00:00	18:00:00	8	121	1844	2700	0.68
8661	เข้าด่านพระราม4-2	13.7227684	100.5525772	exat	working	2022-09-09T00:00:00	18:00:00	19:00:00	21	121	2564	2700	0.95
8662	เข้าด่านพระราม4-2	13.7227684	100.5525772	exat	working	2022-10-09T00:00:00	5:00:00	6:00:00	52	55	377	2700	0.14
8663	เข้าด่านพระราม4-2	13.7227684	100.5525772	exat	holiday	2022-10-09T00:00:00	6:00:00	7:00:00	37	162	1133	2700	0.42
8664	เข้าด่านพระราม4-2	13.7227684	100.5525772	exat	holiday	2022-10-09T00:00:00	7:00:00	8:00:00	37	101	732	2700	0.27
8665	เข้าด่านพระราม4-2	13.7227684	100.5525772	exat	holiday	2022-10-09T00:00:00	8:00:00	9:00:00	32	160	2012	2700	0.75
8666	เข้าด่านพระราม4-2	13.7227684	100.5525772	exat	working	2022-10-09T00:00:00	9:00:00	10:00:00	27	158	1928	2700	0.71
8667	เข้าด่านพระราม4-2	13.7227684	100.5525772	exat	working	2022-10-09T00:00:00	10:00:00	11:00:00	31	157	1903	2700	0.70
8668	เข้าด่านพระราม4-2	13.7227684	100.5525772	exat	holiday	2022-10-09T00:00:00	11:00:00	12:00:00	21	122	1287	2700	0.48
8669	เข้าด่านพระราม4-2	13.7227684	100.5525772	exat	working	2022-10-09T00:00:00	12:00:00	13:00:00	28	156	1966	2700	0.73
8670	เข้าด่านพระราม4-2	13.7227684	100.5525772	exat	working	2022-10-09T00:00:00	13:00:00	14:00:00	30	160	1923	2700	0.71
8671	เข้าด่านพระราม4-2	13.7227684	100.5525772	exat	working	2022-10-09T00:00:00	14:00:00	15:00:00	31	160	1959	2700	0.73
8672	เข้าด่านพระราม4-2	13.7227684	100.5525772	exat	working	2022-10-09T00:00:00	15:00:00	16:00:00	30	155	1971	2700	0.73
8673	เข้าด่านพระราม4-2	13.7227684	100.5525772	exat	holiday	2022-10-09T00:00:00	16:00:00	17:00:00	21	121	1678	2700	0.62
8674	เข้าด่านพระราม4-2	13.7227684	100.5525772	exat	holiday	2022-10-09T00:00:00	17:00:00	18:00:00	31	181	2206	2700	0.82
8675	เข้าด่านพระราม4-2	13.7227684	100.5525772	exat	holiday	2022-10-09T00:00:00	18:00:00	19:00:00	37	114	1659	2700	0.61
8676	เข้าด่านพระราม4-2	13.7227684	100.5525772	exat	working	2022-11-09T00:00:00	5:00:00	6:00:00	31	32	221	2700	0.08
8677	เข้าด่านพระราม4-2	13.7227684	100.5525772	exat	holiday	2022-11-09T00:00:00	6:00:00	7:00:00	22	97	688	2700	0.25
8678	เข้าด่านพระราม4-2	13.7227684	100.5525772	exat	holiday	2022-11-09T00:00:00	7:00:00	8:00:00	22	61	435	2700	0.16
8679	เข้าด่านพระราม4-2	13.7227684	100.5525772	exat	holiday	2022-11-09T00:00:00	8:00:00	9:00:00	19	122	1194	2700	0.44
8680	เข้าด่านพระราม4-2	13.7227684	100.5525772	exat	working	2022-11-09T00:00:00	9:00:00	10:00:00	16	121	1124	2700	0.42
8681	เข้าด่านพระราม4-2	13.7227684	100.5525772	exat	working	2022-11-09T00:00:00	10:00:00	11:00:00	19	121	1181	2700	0.44
8682	เข้าด่านพระราม4-2	13.7227684	100.5525772	exat	holiday	2022-11-09T00:00:00	11:00:00	12:00:00	21	121	777	2700	0.29
8683	เข้าด่านพระราม4-2	13.7227684	100.5525772	exat	working	2022-11-09T00:00:00	12:00:00	13:00:00	17	121	1199	2700	0.44
8684	เข้าด่านพระราม4-2	13.7227684	100.5525772	exat	working	2022-11-09T00:00:00	13:00:00	14:00:00	18	121	1125	2700	0.42
8685	เข้าด่านพระราม4-2	13.7227684	100.5525772	exat	working	2022-11-09T00:00:00	14:00:00	15:00:00	19	122	1201	2700	0.44
8686	เข้าด่านพระราม4-2	13.7227684	100.5525772	exat	working	2022-11-09T00:00:00	15:00:00	16:00:00	18	121	1237	2700	0.46
8687	เข้าด่านพระราม4-2	13.7227684	100.5525772	exat	holiday	2022-11-09T00:00:00	16:00:00	17:00:00	21	121	1000	2700	0.37
8688	เข้าด่านพระราม4-2	13.7227684	100.5525772	exat	holiday	2022-11-09T00:00:00	17:00:00	18:00:00	19	121	1359	2700	0.50
8689	เข้าด่านพระราม4-2	13.7227684	100.5525772	exat	holiday	2022-11-09T00:00:00	18:00:00	19:00:00	22	69	952	2700	0.35
8690	หน้าด่านบางนา	13.6748855	100.6045766	exat	working	2022-05-09T00:00:00	5:00:00	6:00:00	8	38	972	3600	0.27
8691	หน้าด่านบางนา	13.6748855	100.6045766	exat	working	2022-05-09T00:00:00	6:00:00	7:00:00	6	121	2913	3600	0.81
8692	หน้าด่านบางนา	13.6748855	100.6045766	exat	working	2022-05-09T00:00:00	7:00:00	8:00:00	60	43	5603	3600	1.56
8693	หน้าด่านบางนา	13.6748855	100.6045766	exat	working	2022-05-09T00:00:00	8:00:00	9:00:00	46	111	5620	3600	1.56
8694	หน้าด่านบางนา	13.6748855	100.6045766	exat	working	2022-05-09T00:00:00	9:00:00	10:00:00	43	107	5550	3600	1.54
8695	หน้าด่านบางนา	13.6748855	100.6045766	exat	working	2022-05-09T00:00:00	10:00:00	11:00:00	41	112	5545	3600	1.54
8696	หน้าด่านบางนา	13.6748855	100.6045766	exat	working	2022-05-09T00:00:00	11:00:00	12:00:00	66	27	1809	3600	0.50
8697	หน้าด่านบางนา	13.6748855	100.6045766	exat	working	2022-05-09T00:00:00	12:00:00	13:00:00	44	106	5568	3600	1.55
8698	หน้าด่านบางนา	13.6748855	100.6045766	exat	working	2022-05-09T00:00:00	13:00:00	14:00:00	43	109	5567	3600	1.55
8699	หน้าด่านบางนา	13.6748855	100.6045766	exat	working	2022-05-09T00:00:00	14:00:00	15:00:00	44	107	5568	3600	1.55
8700	หน้าด่านบางนา	13.6748855	100.6045766	exat	working	2022-05-09T00:00:00	15:00:00	16:00:00	45	110	5425	3600	1.51
8701	หน้าด่านบางนา	13.6748855	100.6045766	exat	working	2022-05-09T00:00:00	16:00:00	17:00:00	74	34	4184	3600	1.16
8702	หน้าด่านบางนา	13.6748855	100.6045766	exat	working	2022-05-09T00:00:00	17:00:00	18:00:00	75	36	4004	3600	1.11
8703	หน้าด่านบางนา	13.6748855	100.6045766	exat	working	2022-05-09T00:00:00	18:00:00	19:00:00	68	19	2546	3600	0.71
8704	หน้าด่านบางนา	13.6748855	100.6045766	exat	working	2022-06-09T00:00:00	5:00:00	6:00:00	8	38	991	3600	0.28
8705	หน้าด่านบางนา	13.6748855	100.6045766	exat	working	2022-06-09T00:00:00	6:00:00	7:00:00	6	121	2914	3600	0.81
8706	หน้าด่านบางนา	13.6748855	100.6045766	exat	working	2022-06-09T00:00:00	7:00:00	8:00:00	43	81	5356	3600	1.49
8707	หน้าด่านบางนา	13.6748855	100.6045766	exat	working	2022-06-09T00:00:00	8:00:00	9:00:00	31	146	5420	3600	1.51
8708	หน้าด่านบางนา	13.6748855	100.6045766	exat	working	2022-06-09T00:00:00	9:00:00	10:00:00	28	143	5405	3600	1.50
8709	หน้าด่านบางนา	13.6748855	100.6045766	exat	working	2022-06-09T00:00:00	10:00:00	11:00:00	27	146	5401	3600	1.50
8710	หน้าด่านบางนา	13.6748855	100.6045766	exat	working	2022-06-09T00:00:00	11:00:00	12:00:00	48	66	3464	3600	0.96
8711	หน้าด่านบางนา	13.6748855	100.6045766	exat	working	2022-06-09T00:00:00	12:00:00	13:00:00	30	143	5368	3600	1.49
8712	หน้าด่านบางนา	13.6748855	100.6045766	exat	working	2022-06-09T00:00:00	13:00:00	14:00:00	28	146	5417	3600	1.50
8713	หน้าด่านบางนา	13.6748855	100.6045766	exat	working	2022-06-09T00:00:00	14:00:00	15:00:00	29	142	5404	3600	1.50
8714	หน้าด่านบางนา	13.6748855	100.6045766	exat	working	2022-06-09T00:00:00	15:00:00	16:00:00	28	145	5312	3600	1.48
8715	หน้าด่านบางนา	13.6748855	100.6045766	exat	working	2022-06-09T00:00:00	16:00:00	17:00:00	51	49	3906	3600	1.09
8716	หน้าด่านบางนา	13.6748855	100.6045766	exat	working	2022-06-09T00:00:00	17:00:00	18:00:00	53	62	4164	3600	1.16
8717	หน้าด่านบางนา	13.6748855	100.6045766	exat	working	2022-06-09T00:00:00	18:00:00	19:00:00	51	54	3407	3600	0.95
8718	หน้าด่านบางนา	13.6748855	100.6045766	exat	working	2022-07-09T00:00:00	5:00:00	6:00:00	8	37	1001	3600	0.28
8719	หน้าด่านบางนา	13.6748855	100.6045766	exat	working	2022-07-09T00:00:00	6:00:00	7:00:00	6	121	2904	3600	0.81
8720	หน้าด่านบางนา	13.6748855	100.6045766	exat	working	2022-07-09T00:00:00	7:00:00	8:00:00	26	119	5111	3600	1.42
8721	หน้าด่านบางนา	13.6748855	100.6045766	exat	working	2022-07-09T00:00:00	8:00:00	9:00:00	17	121	5259	3600	1.46
8722	หน้าด่านบางนา	13.6748855	100.6045766	exat	working	2022-07-09T00:00:00	9:00:00	10:00:00	12	121	5220	3600	1.45
8723	หน้าด่านบางนา	13.6748855	100.6045766	exat	working	2022-07-09T00:00:00	10:00:00	11:00:00	13	121	5225	3600	1.45
8724	หน้าด่านบางนา	13.6748855	100.6045766	exat	working	2022-07-09T00:00:00	11:00:00	12:00:00	30	105	5042	3600	1.40
8725	หน้าด่านบางนา	13.6748855	100.6045766	exat	working	2022-07-09T00:00:00	12:00:00	13:00:00	15	121	5096	3600	1.42
8726	หน้าด่านบางนา	13.6748855	100.6045766	exat	working	2022-07-09T00:00:00	13:00:00	14:00:00	14	121	5217	3600	1.45
8727	หน้าด่านบางนา	13.6748855	100.6045766	exat	working	2022-07-09T00:00:00	14:00:00	15:00:00	14	121	5168	3600	1.44
8728	หน้าด่านบางนา	13.6748855	100.6045766	exat	working	2022-07-09T00:00:00	15:00:00	16:00:00	12	122	5162	3600	1.43
8729	หน้าด่านบางนา	13.6748855	100.6045766	exat	working	2022-07-09T00:00:00	16:00:00	17:00:00	29	64	3617	3600	1.00
8730	หน้าด่านบางนา	13.6748855	100.6045766	exat	working	2022-07-09T00:00:00	17:00:00	18:00:00	31	87	4342	3600	1.21
8731	หน้าด่านบางนา	13.6748855	100.6045766	exat	working	2022-07-09T00:00:00	18:00:00	19:00:00	33	88	4381	3600	1.22
8732	หน้าด่านบางนา	13.6748855	100.6045766	exat	working	2022-08-09T00:00:00	5:00:00	6:00:00	27	37	894	3600	0.25
8733	หน้าด่านบางนา	13.6748855	100.6045766	exat	working	2022-08-09T00:00:00	6:00:00	7:00:00	20	121	2976	3600	0.83
8734	หน้าด่านบางนา	13.6748855	100.6045766	exat	working	2022-08-09T00:00:00	7:00:00	8:00:00	28	98	5080	3600	1.41
8735	หน้าด่านบางนา	13.6748855	100.6045766	exat	working	2022-08-09T00:00:00	8:00:00	9:00:00	24	126	5066	3600	1.41
8736	หน้าด่านบางนา	13.6748855	100.6045766	exat	working	2022-08-09T00:00:00	9:00:00	10:00:00	20	121	5040	3600	1.40
8737	หน้าด่านบางนา	13.6748855	100.6045766	exat	working	2022-08-09T00:00:00	10:00:00	11:00:00	19	121	5015	3600	1.39
8738	หน้าด่านบางนา	13.6748855	100.6045766	exat	working	2022-08-09T00:00:00	11:00:00	12:00:00	28	70	3452	3600	0.96
8739	หน้าด่านบางนา	13.6748855	100.6045766	exat	working	2022-08-09T00:00:00	12:00:00	13:00:00	21	121	4973	3600	1.38
8740	หน้าด่านบางนา	13.6748855	100.6045766	exat	working	2022-08-09T00:00:00	13:00:00	14:00:00	21	121	5068	3600	1.41
8741	หน้าด่านบางนา	13.6748855	100.6045766	exat	working	2022-08-09T00:00:00	14:00:00	15:00:00	21	121	5035	3600	1.40
8742	หน้าด่านบางนา	13.6748855	100.6045766	exat	working	2022-08-09T00:00:00	15:00:00	16:00:00	19	122	4976	3600	1.38
8743	หน้าด่านบางนา	13.6748855	100.6045766	exat	working	2022-08-09T00:00:00	16:00:00	17:00:00	33	54	3096	3600	0.86
8744	หน้าด่านบางนา	13.6748855	100.6045766	exat	working	2022-08-09T00:00:00	17:00:00	18:00:00	33	62	3006	3600	0.84
8745	หน้าด่านบางนา	13.6748855	100.6045766	exat	working	2022-08-09T00:00:00	18:00:00	19:00:00	32	63	3460	3600	0.96
8746	หน้าด่านบางนา	13.6748855	100.6045766	exat	working	2022-09-09T00:00:00	5:00:00	6:00:00	50	15	1053	3600	0.29
8747	หน้าด่านบางนา	13.6748855	100.6045766	exat	working	2022-09-09T00:00:00	6:00:00	7:00:00	35	49	3078	3600	0.86
8748	หน้าด่านบางนา	13.6748855	100.6045766	exat	working	2022-09-09T00:00:00	7:00:00	8:00:00	30	78	5079	3600	1.41
8749	หน้าด่านบางนา	13.6748855	100.6045766	exat	working	2022-09-09T00:00:00	8:00:00	9:00:00	31	71	4905	3600	1.36
8750	หน้าด่านบางนา	13.6748855	100.6045766	exat	working	2022-09-09T00:00:00	9:00:00	10:00:00	27	68	4868	3600	1.35
8751	หน้าด่านบางนา	13.6748855	100.6045766	exat	working	2022-09-09T00:00:00	10:00:00	11:00:00	26	71	4814	3600	1.34
8752	หน้าด่านบางนา	13.6748855	100.6045766	exat	working	2022-09-09T00:00:00	11:00:00	12:00:00	26	36	1811	3600	0.50
8753	หน้าด่านบางนา	13.6748855	100.6045766	exat	working	2022-09-09T00:00:00	12:00:00	13:00:00	27	67	4839	3600	1.34
8754	หน้าด่านบางนา	13.6748855	100.6045766	exat	working	2022-09-09T00:00:00	13:00:00	14:00:00	28	68	4904	3600	1.36
8755	หน้าด่านบางนา	13.6748855	100.6045766	exat	working	2022-09-09T00:00:00	14:00:00	15:00:00	27	70	4834	3600	1.34
8756	หน้าด่านบางนา	13.6748855	100.6045766	exat	working	2022-09-09T00:00:00	15:00:00	16:00:00	26	69	4837	3600	1.34
8757	หน้าด่านบางนา	13.6748855	100.6045766	exat	working	2022-09-09T00:00:00	16:00:00	17:00:00	37	45	2553	3600	0.71
8758	หน้าด่านบางนา	13.6748855	100.6045766	exat	working	2022-09-09T00:00:00	17:00:00	18:00:00	35	37	1627	3600	0.45
8759	หน้าด่านบางนา	13.6748855	100.6045766	exat	working	2022-09-09T00:00:00	18:00:00	19:00:00	30	37	2533	3600	0.70
8760	หน้าด่านบางนา	13.6748855	100.6045766	exat	working	2022-10-09T00:00:00	5:00:00	6:00:00	50	9	495	3600	0.14
8761	หน้าด่านบางนา	13.6748855	100.6045766	exat	holiday	2022-10-09T00:00:00	6:00:00	7:00:00	35	27	1456	3600	0.40
8762	หน้าด่านบางนา	13.6748855	100.6045766	exat	holiday	2022-10-09T00:00:00	7:00:00	8:00:00	36	33	1821	3600	0.51
8763	หน้าด่านบางนา	13.6748855	100.6045766	exat	holiday	2022-10-09T00:00:00	8:00:00	9:00:00	33	64	3072	3600	0.85
8764	หน้าด่านบางนา	13.6748855	100.6045766	exat	working	2022-10-09T00:00:00	9:00:00	10:00:00	32	63	2960	3600	0.82
8765	หน้าด่านบางนา	13.6748855	100.6045766	exat	working	2022-10-09T00:00:00	10:00:00	11:00:00	28	59	2989	3600	0.83
8766	หน้าด่านบางนา	13.6748855	100.6045766	exat	holiday	2022-10-09T00:00:00	11:00:00	12:00:00	34	63	3826	3600	1.06
8767	หน้าด่านบางนา	13.6748855	100.6045766	exat	working	2022-10-09T00:00:00	12:00:00	13:00:00	32	61	3036	3600	0.84
8768	หน้าด่านบางนา	13.6748855	100.6045766	exat	working	2022-10-09T00:00:00	13:00:00	14:00:00	29	62	2990	3600	0.83
8769	หน้าด่านบางนา	13.6748855	100.6045766	exat	working	2022-10-09T00:00:00	14:00:00	15:00:00	31	62	3079	3600	0.86
8770	หน้าด่านบางนา	13.6748855	100.6045766	exat	working	2022-10-09T00:00:00	15:00:00	16:00:00	31	58	3091	3600	0.86
8771	หน้าด่านบางนา	13.6748855	100.6045766	exat	holiday	2022-10-09T00:00:00	16:00:00	17:00:00	28	79	3830	3600	1.06
8772	หน้าด่านบางนา	13.6748855	100.6045766	exat	holiday	2022-10-09T00:00:00	17:00:00	18:00:00	28	102	5267	3600	1.46
8773	หน้าด่านบางนา	13.6748855	100.6045766	exat	holiday	2022-10-09T00:00:00	18:00:00	19:00:00	30	64	3257	3600	0.90
8774	หน้าด่านบางนา	13.6748855	100.6045766	exat	working	2022-11-09T00:00:00	5:00:00	6:00:00	29	39	291	3600	0.08
8775	หน้าด่านบางนา	13.6748855	100.6045766	exat	holiday	2022-11-09T00:00:00	6:00:00	7:00:00	21	121	855	3600	0.24
8776	หน้าด่านบางนา	13.6748855	100.6045766	exat	holiday	2022-11-09T00:00:00	7:00:00	8:00:00	22	20	1095	3600	0.30
8777	หน้าด่านบางนา	13.6748855	100.6045766	exat	holiday	2022-11-09T00:00:00	8:00:00	9:00:00	20	122	1864	3600	0.52
8778	หน้าด่านบางนา	13.6748855	100.6045766	exat	working	2022-11-09T00:00:00	9:00:00	10:00:00	20	121	1796	3600	0.50
8779	หน้าด่านบางนา	13.6748855	100.6045766	exat	working	2022-11-09T00:00:00	10:00:00	11:00:00	17	121	1769	3600	0.49
8780	หน้าด่านบางนา	13.6748855	100.6045766	exat	holiday	2022-11-09T00:00:00	11:00:00	12:00:00	20	121	2286	3600	0.64
8781	หน้าด่านบางนา	13.6748855	100.6045766	exat	working	2022-11-09T00:00:00	12:00:00	13:00:00	19	121	1817	3600	0.50
8782	หน้าด่านบางนา	13.6748855	100.6045766	exat	working	2022-11-09T00:00:00	13:00:00	14:00:00	18	121	1768	3600	0.49
8783	หน้าด่านบางนา	13.6748855	100.6045766	exat	working	2022-11-09T00:00:00	14:00:00	15:00:00	19	121	1853	3600	0.51
8784	หน้าด่านบางนา	13.6748855	100.6045766	exat	working	2022-11-09T00:00:00	15:00:00	16:00:00	19	121	1825	3600	0.51
8785	หน้าด่านบางนา	13.6748855	100.6045766	exat	holiday	2022-11-09T00:00:00	16:00:00	17:00:00	17	121	2292	3600	0.64
8786	หน้าด่านบางนา	13.6748855	100.6045766	exat	holiday	2022-11-09T00:00:00	17:00:00	18:00:00	17	121	3169	3600	0.88
8787	หน้าด่านบางนา	13.6748855	100.6045766	exat	holiday	2022-11-09T00:00:00	18:00:00	19:00:00	18	122	1970	3600	0.55
8788	ใต้ด่านบางจาก	13.6852069	100.6024709	exat	working	2022-05-09T00:00:00	5:00:00	6:00:00	29	42	1277	3600	0.35
8789	ใต้ด่านบางจาก	13.6852069	100.6024709	exat	working	2022-05-09T00:00:00	6:00:00	7:00:00	21	121	3801	3600	1.06
8790	ใต้ด่านบางจาก	13.6852069	100.6024709	exat	working	2022-05-09T00:00:00	7:00:00	8:00:00	86	181	3458	3600	0.96
8791	ใต้ด่านบางจาก	13.6852069	100.6024709	exat	working	2022-05-09T00:00:00	8:00:00	9:00:00	55	181	3453	3600	0.96
8792	ใต้ด่านบางจาก	13.6852069	100.6024709	exat	working	2022-05-09T00:00:00	9:00:00	10:00:00	54	176	3403	3600	0.95
8793	ใต้ด่านบางจาก	13.6852069	100.6024709	exat	working	2022-05-09T00:00:00	10:00:00	11:00:00	53	178	3444	3600	0.96
8794	ใต้ด่านบางจาก	13.6852069	100.6024709	exat	working	2022-05-09T00:00:00	11:00:00	12:00:00	21	121	2889	3600	0.80
8795	ใต้ด่านบางจาก	13.6852069	100.6024709	exat	working	2022-05-09T00:00:00	12:00:00	13:00:00	53	180	3339	3600	0.93
8796	ใต้ด่านบางจาก	13.6852069	100.6024709	exat	working	2022-05-09T00:00:00	13:00:00	14:00:00	50	180	3372	3600	0.94
8797	ใต้ด่านบางจาก	13.6852069	100.6024709	exat	working	2022-05-09T00:00:00	14:00:00	15:00:00	50	177	3447	3600	0.96
8798	ใต้ด่านบางจาก	13.6852069	100.6024709	exat	working	2022-05-09T00:00:00	15:00:00	16:00:00	52	178	3300	3600	0.92
8799	ใต้ด่านบางจาก	13.6852069	100.6024709	exat	working	2022-05-09T00:00:00	16:00:00	17:00:00	52	182	3079	3600	0.86
8800	ใต้ด่านบางจาก	13.6852069	100.6024709	exat	working	2022-05-09T00:00:00	17:00:00	18:00:00	21	121	3078	3600	0.86
8801	ใต้ด่านบางจาก	13.6852069	100.6024709	exat	working	2022-05-09T00:00:00	18:00:00	19:00:00	21	121	2713	3600	0.75
8802	ใต้ด่านบางจาก	13.6852069	100.6024709	exat	working	2022-06-09T00:00:00	5:00:00	6:00:00	30	40	1043	3600	0.29
8803	ใต้ด่านบางจาก	13.6852069	100.6024709	exat	working	2022-06-09T00:00:00	6:00:00	7:00:00	21	121	3444	3600	0.96
8804	ใต้ด่านบางจาก	13.6852069	100.6024709	exat	working	2022-06-09T00:00:00	7:00:00	8:00:00	80	182	3964	3600	1.10
8805	ใต้ด่านบางจาก	13.6852069	100.6024709	exat	working	2022-06-09T00:00:00	8:00:00	9:00:00	65	182	3619	3600	1.01
8806	ใต้ด่านบางจาก	13.6852069	100.6024709	exat	working	2022-06-09T00:00:00	9:00:00	10:00:00	63	177	3593	3600	1.00
8807	ใต้ด่านบางจาก	13.6852069	100.6024709	exat	working	2022-06-09T00:00:00	10:00:00	11:00:00	63	178	3617	3600	1.00
8808	ใต้ด่านบางจาก	13.6852069	100.6024709	exat	working	2022-06-09T00:00:00	11:00:00	12:00:00	46	181	2452	3600	0.68
8809	ใต้ด่านบางจาก	13.6852069	100.6024709	exat	working	2022-06-09T00:00:00	12:00:00	13:00:00	64	179	3569	3600	0.99
8810	ใต้ด่านบางจาก	13.6852069	100.6024709	exat	working	2022-06-09T00:00:00	13:00:00	14:00:00	62	181	3560	3600	0.99
8811	ใต้ด่านบางจาก	13.6852069	100.6024709	exat	working	2022-06-09T00:00:00	14:00:00	15:00:00	63	180	3603	3600	1.00
8812	ใต้ด่านบางจาก	13.6852069	100.6024709	exat	working	2022-06-09T00:00:00	15:00:00	16:00:00	62	180	3488	3600	0.97
8813	ใต้ด่านบางจาก	13.6852069	100.6024709	exat	working	2022-06-09T00:00:00	16:00:00	17:00:00	26	138	2809	3600	0.78
8814	ใต้ด่านบางจาก	13.6852069	100.6024709	exat	working	2022-06-09T00:00:00	17:00:00	18:00:00	21	121	3260	3600	0.91
8815	ใต้ด่านบางจาก	13.6852069	100.6024709	exat	working	2022-06-09T00:00:00	18:00:00	19:00:00	46	119	2513	3600	0.70
8816	ใต้ด่านบางจาก	13.6852069	100.6024709	exat	working	2022-07-09T00:00:00	5:00:00	6:00:00	29	42	1032	3600	0.29
8817	ใต้ด่านบางจาก	13.6852069	100.6024709	exat	working	2022-07-09T00:00:00	6:00:00	7:00:00	21	121	3075	3600	0.85
8818	ใต้ด่านบางจาก	13.6852069	100.6024709	exat	working	2022-07-09T00:00:00	7:00:00	8:00:00	74	182	4551	3600	1.26
8819	ใต้ด่านบางจาก	13.6852069	100.6024709	exat	working	2022-07-09T00:00:00	8:00:00	9:00:00	75	181	3786	3600	1.05
8820	ใต้ด่านบางจาก	13.6852069	100.6024709	exat	working	2022-07-09T00:00:00	9:00:00	10:00:00	71	176	3714	3600	1.03
8821	ใต้ด่านบางจาก	13.6852069	100.6024709	exat	working	2022-07-09T00:00:00	10:00:00	11:00:00	74	177	3751	3600	1.04
8822	ใต้ด่านบางจาก	13.6852069	100.6024709	exat	working	2022-07-09T00:00:00	11:00:00	12:00:00	91	181	1993	3600	0.55
8823	ใต้ด่านบางจาก	13.6852069	100.6024709	exat	working	2022-07-09T00:00:00	12:00:00	13:00:00	75	176	3762	3600	1.05
8824	ใต้ด่านบางจาก	13.6852069	100.6024709	exat	working	2022-07-09T00:00:00	13:00:00	14:00:00	74	182	3772	3600	1.05
8825	ใต้ด่านบางจาก	13.6852069	100.6024709	exat	working	2022-07-09T00:00:00	14:00:00	15:00:00	76	182	3755	3600	1.04
8826	ใต้ด่านบางจาก	13.6852069	100.6024709	exat	working	2022-07-09T00:00:00	15:00:00	16:00:00	72	182	3752	3600	1.04
8827	ใต้ด่านบางจาก	13.6852069	100.6024709	exat	working	2022-07-09T00:00:00	16:00:00	17:00:00	21	122	2539	3600	0.71
8828	ใต้ด่านบางจาก	13.6852069	100.6024709	exat	working	2022-07-09T00:00:00	17:00:00	18:00:00	21	121	3475	3600	0.97
8829	ใต้ด่านบางจาก	13.6852069	100.6024709	exat	working	2022-07-09T00:00:00	18:00:00	19:00:00	91	127	2362	3600	0.66
8830	ใต้ด่านบางจาก	13.6852069	100.6024709	exat	working	2022-08-09T00:00:00	5:00:00	6:00:00	29	40	696	3600	0.19
8831	ใต้ด่านบางจาก	13.6852069	100.6024709	exat	working	2022-08-09T00:00:00	6:00:00	7:00:00	21	121	2170	3600	0.60
8832	ใต้ด่านบางจาก	13.6852069	100.6024709	exat	working	2022-08-09T00:00:00	7:00:00	8:00:00	37	149	3746	3600	1.04
8833	ใต้ด่านบางจาก	13.6852069	100.6024709	exat	working	2022-08-09T00:00:00	8:00:00	9:00:00	83	181	3147	3600	0.87
8834	ใต้ด่านบางจาก	13.6852069	100.6024709	exat	working	2022-08-09T00:00:00	9:00:00	10:00:00	80	178	3093	3600	0.86
8835	ใต้ด่านบางจาก	13.6852069	100.6024709	exat	working	2022-08-09T00:00:00	10:00:00	11:00:00	81	179	3120	3600	0.87
8836	ใต้ด่านบางจาก	13.6852069	100.6024709	exat	working	2022-08-09T00:00:00	11:00:00	12:00:00	46	143	2185	3600	0.61
8837	ใต้ด่านบางจาก	13.6852069	100.6024709	exat	working	2022-08-09T00:00:00	12:00:00	13:00:00	81	176	3135	3600	0.87
8838	ใต้ด่านบางจาก	13.6852069	100.6024709	exat	working	2022-08-09T00:00:00	13:00:00	14:00:00	81	181	3069	3600	0.85
8839	ใต้ด่านบางจาก	13.6852069	100.6024709	exat	working	2022-08-09T00:00:00	14:00:00	15:00:00	81	178	3164	3600	0.88
8840	ใต้ด่านบางจาก	13.6852069	100.6024709	exat	working	2022-08-09T00:00:00	15:00:00	16:00:00	78	180	3059	3600	0.85
8841	ใต้ด่านบางจาก	13.6852069	100.6024709	exat	working	2022-08-09T00:00:00	16:00:00	17:00:00	46	137	2730	3600	0.76
8842	ใต้ด่านบางจาก	13.6852069	100.6024709	exat	working	2022-08-09T00:00:00	17:00:00	18:00:00	28	147	2809	3600	0.78
8843	ใต้ด่านบางจาก	13.6852069	100.6024709	exat	working	2022-08-09T00:00:00	18:00:00	19:00:00	46	109	2622	3600	0.73
8844	ใต้ด่านบางจาก	13.6852069	100.6024709	exat	working	2022-09-09T00:00:00	5:00:00	6:00:00	29	37	432	3600	0.12
8845	ใต้ด่านบางจาก	13.6852069	100.6024709	exat	working	2022-09-09T00:00:00	6:00:00	7:00:00	21	121	1266	3600	0.35
8846	ใต้ด่านบางจาก	13.6852069	100.6024709	exat	working	2022-09-09T00:00:00	7:00:00	8:00:00	21	121	2896	3600	0.80
8847	ใต้ด่านบางจาก	13.6852069	100.6024709	exat	working	2022-09-09T00:00:00	8:00:00	9:00:00	91	181	2534	3600	0.70
8848	ใต้ด่านบางจาก	13.6852069	100.6024709	exat	working	2022-09-09T00:00:00	9:00:00	10:00:00	88	179	2429	3600	0.67
8849	ใต้ด่านบางจาก	13.6852069	100.6024709	exat	working	2022-09-09T00:00:00	10:00:00	11:00:00	89	181	2559	3600	0.71
8850	ใต้ด่านบางจาก	13.6852069	100.6024709	exat	working	2022-09-09T00:00:00	11:00:00	12:00:00	21	121	2327	3600	0.65
8851	ใต้ด่านบางจาก	13.6852069	100.6024709	exat	working	2022-09-09T00:00:00	12:00:00	13:00:00	86	177	2479	3600	0.69
8852	ใต้ด่านบางจาก	13.6852069	100.6024709	exat	working	2022-09-09T00:00:00	13:00:00	14:00:00	89	179	2459	3600	0.68
8853	ใต้ด่านบางจาก	13.6852069	100.6024709	exat	working	2022-09-09T00:00:00	14:00:00	15:00:00	86	175	2439	3600	0.68
8854	ใต้ด่านบางจาก	13.6852069	100.6024709	exat	working	2022-09-09T00:00:00	15:00:00	16:00:00	85	178	2416	3600	0.67
8855	ใต้ด่านบางจาก	13.6852069	100.6024709	exat	working	2022-09-09T00:00:00	16:00:00	17:00:00	91	181	2917	3600	0.81
8856	ใต้ด่านบางจาก	13.6852069	100.6024709	exat	working	2022-09-09T00:00:00	17:00:00	18:00:00	55	181	2164	3600	0.60
8857	ใต้ด่านบางจาก	13.6852069	100.6024709	exat	working	2022-09-09T00:00:00	18:00:00	19:00:00	21	121	2899	3600	0.81
8858	ใต้ด่านบางจาก	13.6852069	100.6024709	exat	working	2022-10-09T00:00:00	5:00:00	6:00:00	29	39	503	3600	0.14
8859	ใต้ด่านบางจาก	13.6852069	100.6024709	exat	holiday	2022-10-09T00:00:00	6:00:00	7:00:00	21	121	1636	3600	0.45
8860	ใต้ด่านบางจาก	13.6852069	100.6024709	exat	holiday	2022-10-09T00:00:00	7:00:00	8:00:00	21	121	1274	3600	0.35
8861	ใต้ด่านบางจาก	13.6852069	100.6024709	exat	holiday	2022-10-09T00:00:00	8:00:00	9:00:00	42	74	1641	3600	0.46
8862	ใต้ด่านบางจาก	13.6852069	100.6024709	exat	working	2022-10-09T00:00:00	9:00:00	10:00:00	39	71	1524	3600	0.42
8863	ใต้ด่านบางจาก	13.6852069	100.6024709	exat	working	2022-10-09T00:00:00	10:00:00	11:00:00	38	66	1479	3600	0.41
8864	ใต้ด่านบางจาก	13.6852069	100.6024709	exat	holiday	2022-10-09T00:00:00	11:00:00	12:00:00	38	181	2366	3600	0.66
8865	ใต้ด่านบางจาก	13.6852069	100.6024709	exat	working	2022-10-09T00:00:00	12:00:00	13:00:00	41	69	1560	3600	0.43
8866	ใต้ด่านบางจาก	13.6852069	100.6024709	exat	working	2022-10-09T00:00:00	13:00:00	14:00:00	42	74	1489	3600	0.41
8867	ใต้ด่านบางจาก	13.6852069	100.6024709	exat	working	2022-10-09T00:00:00	14:00:00	15:00:00	38	72	1498	3600	0.42
8868	ใต้ด่านบางจาก	13.6852069	100.6024709	exat	working	2022-10-09T00:00:00	15:00:00	16:00:00	38	74	1458	3600	0.41
8869	ใต้ด่านบางจาก	13.6852069	100.6024709	exat	holiday	2022-10-09T00:00:00	16:00:00	17:00:00	21	121	2359	3600	0.66
8870	ใต้ด่านบางจาก	13.6852069	100.6024709	exat	holiday	2022-10-09T00:00:00	17:00:00	18:00:00	21	121	1811	3600	0.50
8871	ใต้ด่านบางจาก	13.6852069	100.6024709	exat	holiday	2022-10-09T00:00:00	18:00:00	19:00:00	21	121	3103	3600	0.86
8872	ใต้ด่านบางจาก	13.6852069	100.6024709	exat	working	2022-11-09T00:00:00	5:00:00	6:00:00	29	41	335	3600	0.09
8873	ใต้ด่านบางจาก	13.6852069	100.6024709	exat	holiday	2022-11-09T00:00:00	6:00:00	7:00:00	21	121	987	3600	0.27
8874	ใต้ด่านบางจาก	13.6852069	100.6024709	exat	holiday	2022-11-09T00:00:00	7:00:00	8:00:00	21	121	751	3600	0.21
8875	ใต้ด่านบางจาก	13.6852069	100.6024709	exat	holiday	2022-11-09T00:00:00	8:00:00	9:00:00	25	45	982	3600	0.27
8876	ใต้ด่านบางจาก	13.6852069	100.6024709	exat	working	2022-11-09T00:00:00	9:00:00	10:00:00	23	43	917	3600	0.25
8877	ใต้ด่านบางจาก	13.6852069	100.6024709	exat	working	2022-11-09T00:00:00	10:00:00	11:00:00	23	40	897	3600	0.25
8878	ใต้ด่านบางจาก	13.6852069	100.6024709	exat	holiday	2022-11-09T00:00:00	11:00:00	12:00:00	23	109	1451	3600	0.40
8879	ใต้ด่านบางจาก	13.6852069	100.6024709	exat	working	2022-11-09T00:00:00	12:00:00	13:00:00	25	42	923	3600	0.26
8880	ใต้ด่านบางจาก	13.6852069	100.6024709	exat	working	2022-11-09T00:00:00	13:00:00	14:00:00	25	45	903	3600	0.25
8881	ใต้ด่านบางจาก	13.6852069	100.6024709	exat	working	2022-11-09T00:00:00	14:00:00	15:00:00	23	44	919	3600	0.26
8882	ใต้ด่านบางจาก	13.6852069	100.6024709	exat	working	2022-11-09T00:00:00	15:00:00	16:00:00	23	45	865	3600	0.24
8883	ใต้ด่านบางจาก	13.6852069	100.6024709	exat	holiday	2022-11-09T00:00:00	16:00:00	17:00:00	21	121	1412	3600	0.39
8884	ใต้ด่านบางจาก	13.6852069	100.6024709	exat	holiday	2022-11-09T00:00:00	17:00:00	18:00:00	21	121	1105	3600	0.31
8885	ใต้ด่านบางจาก	13.6852069	100.6024709	exat	holiday	2022-11-09T00:00:00	18:00:00	19:00:00	21	121	1866	3600	0.52
8886	ปตท. ขาออก	13.6860887	100.6025228	exat	working	2022-05-09T00:00:00	5:00:00	6:00:00	29	41	240	2700	0.09
8887	ปตท. ขาออก	13.6860887	100.6025228	exat	working	2022-05-09T00:00:00	6:00:00	7:00:00	21	122	700	2700	0.26
8888	ปตท. ขาออก	13.6860887	100.6025228	exat	working	2022-05-09T00:00:00	7:00:00	8:00:00	37	13	742	2700	0.27
8889	ปตท. ขาออก	13.6860887	100.6025228	exat	working	2022-05-09T00:00:00	8:00:00	9:00:00	37	20	1313	2700	0.49
8890	ปตท. ขาออก	13.6860887	100.6025228	exat	working	2022-05-09T00:00:00	9:00:00	10:00:00	32	18	1194	2700	0.44
8891	ปตท. ขาออก	13.6860887	100.6025228	exat	working	2022-05-09T00:00:00	10:00:00	11:00:00	34	17	1180	2700	0.44
8892	ปตท. ขาออก	13.6860887	100.6025228	exat	working	2022-05-09T00:00:00	11:00:00	12:00:00	37	39	2203	2700	0.82
8893	ปตท. ขาออก	13.6860887	100.6025228	exat	working	2022-05-09T00:00:00	12:00:00	13:00:00	36	18	1247	2700	0.46
8894	ปตท. ขาออก	13.6860887	100.6025228	exat	working	2022-05-09T00:00:00	13:00:00	14:00:00	34	15	1286	2700	0.48
8895	ปตท. ขาออก	13.6860887	100.6025228	exat	working	2022-05-09T00:00:00	14:00:00	15:00:00	36	14	1285	2700	0.48
8896	ปตท. ขาออก	13.6860887	100.6025228	exat	working	2022-05-09T00:00:00	15:00:00	16:00:00	32	16	1222	2700	0.45
8897	ปตท. ขาออก	13.6860887	100.6025228	exat	working	2022-05-09T00:00:00	16:00:00	17:00:00	37	63	1472	2700	0.55
8898	ปตท. ขาออก	13.6860887	100.6025228	exat	working	2022-05-09T00:00:00	17:00:00	18:00:00	34	40	2214	2700	0.82
8899	ปตท. ขาออก	13.6860887	100.6025228	exat	working	2022-05-09T00:00:00	18:00:00	19:00:00	37	16	1103	2700	0.41
8900	ปตท. ขาออก	13.6860887	100.6025228	exat	working	2022-06-09T00:00:00	5:00:00	6:00:00	29	40	240	2700	0.09
8901	ปตท. ขาออก	13.6860887	100.6025228	exat	working	2022-06-09T00:00:00	6:00:00	7:00:00	21	121	745	2700	0.28
8902	ปตท. ขาออก	13.6860887	100.6025228	exat	working	2022-06-09T00:00:00	7:00:00	8:00:00	37	17	741	2700	0.27
8903	ปตท. ขาออก	13.6860887	100.6025228	exat	working	2022-06-09T00:00:00	8:00:00	9:00:00	37	20	1299	2700	0.48
8904	ปตท. ขาออก	13.6860887	100.6025228	exat	working	2022-06-09T00:00:00	9:00:00	10:00:00	32	18	1182	2700	0.44
8905	ปตท. ขาออก	13.6860887	100.6025228	exat	working	2022-06-09T00:00:00	10:00:00	11:00:00	35	17	1173	2700	0.43
8906	ปตท. ขาออก	13.6860887	100.6025228	exat	working	2022-06-09T00:00:00	11:00:00	12:00:00	35	35	2390	2700	0.89
8907	ปตท. ขาออก	13.6860887	100.6025228	exat	working	2022-06-09T00:00:00	12:00:00	13:00:00	34	16	1247	2700	0.46
8908	ปตท. ขาออก	13.6860887	100.6025228	exat	working	2022-06-09T00:00:00	13:00:00	14:00:00	34	17	1246	2700	0.46
8909	ปตท. ขาออก	13.6860887	100.6025228	exat	working	2022-06-09T00:00:00	14:00:00	15:00:00	34	15	1291	2700	0.48
8910	ปตท. ขาออก	13.6860887	100.6025228	exat	working	2022-06-09T00:00:00	15:00:00	16:00:00	34	16	1230	2700	0.46
8911	ปตท. ขาออก	13.6860887	100.6025228	exat	working	2022-06-09T00:00:00	16:00:00	17:00:00	37	63	1477	2700	0.55
8912	ปตท. ขาออก	13.6860887	100.6025228	exat	working	2022-06-09T00:00:00	17:00:00	18:00:00	34	40	2215	2700	0.82
8913	ปตท. ขาออก	13.6860887	100.6025228	exat	working	2022-06-09T00:00:00	18:00:00	19:00:00	37	16	1106	2700	0.41
8914	ปตท. ขาออก	13.6860887	100.6025228	exat	working	2022-07-09T00:00:00	5:00:00	6:00:00	29	38	227	2700	0.08
8915	ปตท. ขาออก	13.6860887	100.6025228	exat	working	2022-07-09T00:00:00	6:00:00	7:00:00	21	121	740	2700	0.27
8916	ปตท. ขาออก	13.6860887	100.6025228	exat	working	2022-07-09T00:00:00	7:00:00	8:00:00	37	21	739	2700	0.27
8917	ปตท. ขาออก	13.6860887	100.6025228	exat	working	2022-07-09T00:00:00	8:00:00	9:00:00	37	20	1289	2700	0.48
8918	ปตท. ขาออก	13.6860887	100.6025228	exat	working	2022-07-09T00:00:00	9:00:00	10:00:00	32	18	1161	2700	0.43
8919	ปตท. ขาออก	13.6860887	100.6025228	exat	working	2022-07-09T00:00:00	10:00:00	11:00:00	36	16	1172	2700	0.43
8920	ปตท. ขาออก	13.6860887	100.6025228	exat	working	2022-07-09T00:00:00	11:00:00	12:00:00	34	31	2568	2700	0.95
8921	ปตท. ขาออก	13.6860887	100.6025228	exat	working	2022-07-09T00:00:00	12:00:00	13:00:00	32	15	1287	2700	0.48
8922	ปตท. ขาออก	13.6860887	100.6025228	exat	working	2022-07-09T00:00:00	13:00:00	14:00:00	33	18	1214	2700	0.45
8923	ปตท. ขาออก	13.6860887	100.6025228	exat	working	2022-07-09T00:00:00	14:00:00	15:00:00	32	15	1289	2700	0.48
8924	ปตท. ขาออก	13.6860887	100.6025228	exat	working	2022-07-09T00:00:00	15:00:00	16:00:00	35	16	1221	2700	0.45
8925	ปตท. ขาออก	13.6860887	100.6025228	exat	working	2022-07-09T00:00:00	16:00:00	17:00:00	37	63	1496	2700	0.55
8926	ปตท. ขาออก	13.6860887	100.6025228	exat	working	2022-07-09T00:00:00	17:00:00	18:00:00	34	40	2210	2700	0.82
8927	ปตท. ขาออก	13.6860887	100.6025228	exat	working	2022-07-09T00:00:00	18:00:00	19:00:00	37	16	1128	2700	0.42
8928	ปตท. ขาออก	13.6860887	100.6025228	exat	working	2022-08-09T00:00:00	5:00:00	6:00:00	29	41	340	2700	0.13
8929	ปตท. ขาออก	13.6860887	100.6025228	exat	working	2022-08-09T00:00:00	6:00:00	7:00:00	21	121	1114	2700	0.41
8930	ปตท. ขาออก	13.6860887	100.6025228	exat	working	2022-08-09T00:00:00	7:00:00	8:00:00	19	121	648	2700	0.24
8931	ปตท. ขาออก	13.6860887	100.6025228	exat	working	2022-08-09T00:00:00	8:00:00	9:00:00	37	22	1484	2700	0.55
8932	ปตท. ขาออก	13.6860887	100.6025228	exat	working	2022-08-09T00:00:00	9:00:00	10:00:00	33	19	1384	2700	0.51
8933	ปตท. ขาออก	13.6860887	100.6025228	exat	working	2022-08-09T00:00:00	10:00:00	11:00:00	35	19	1366	2700	0.51
8934	ปตท. ขาออก	13.6860887	100.6025228	exat	working	2022-08-09T00:00:00	11:00:00	12:00:00	30	30	2598	2700	0.96
8935	ปตท. ขาออก	13.6860887	100.6025228	exat	working	2022-08-09T00:00:00	12:00:00	13:00:00	33	17	1448	2700	0.54
8936	ปตท. ขาออก	13.6860887	100.6025228	exat	working	2022-08-09T00:00:00	13:00:00	14:00:00	34	20	1413	2700	0.52
8937	ปตท. ขาออก	13.6860887	100.6025228	exat	working	2022-08-09T00:00:00	14:00:00	15:00:00	34	18	1451	2700	0.54
8938	ปตท. ขาออก	13.6860887	100.6025228	exat	working	2022-08-09T00:00:00	15:00:00	16:00:00	36	19	1472	2700	0.55
8939	ปตท. ขาออก	13.6860887	100.6025228	exat	working	2022-08-09T00:00:00	16:00:00	17:00:00	19	121	904	2700	0.33
8940	ปตท. ขาออก	13.6860887	100.6025228	exat	working	2022-08-09T00:00:00	17:00:00	18:00:00	35	35	1663	2700	0.62
8941	ปตท. ขาออก	13.6860887	100.6025228	exat	working	2022-08-09T00:00:00	18:00:00	19:00:00	37	16	1105	2700	0.41
8942	ปตท. ขาออก	13.6860887	100.6025228	exat	working	2022-09-09T00:00:00	5:00:00	6:00:00	29	37	461	2700	0.17
8943	ปตท. ขาออก	13.6860887	100.6025228	exat	working	2022-09-09T00:00:00	6:00:00	7:00:00	21	121	1475	2700	0.55
8944	ปตท. ขาออก	13.6860887	100.6025228	exat	working	2022-09-09T00:00:00	7:00:00	8:00:00	21	121	537	2700	0.20
8945	ปตท. ขาออก	13.6860887	100.6025228	exat	working	2022-09-09T00:00:00	8:00:00	9:00:00	37	25	1651	2700	0.61
8946	ปตท. ขาออก	13.6860887	100.6025228	exat	working	2022-09-09T00:00:00	9:00:00	10:00:00	33	20	1630	2700	0.60
8947	ปตท. ขาออก	13.6860887	100.6025228	exat	working	2022-09-09T00:00:00	10:00:00	11:00:00	33	23	1521	2700	0.56
8948	ปตท. ขาออก	13.6860887	100.6025228	exat	working	2022-09-09T00:00:00	11:00:00	12:00:00	26	30	2585	2700	0.96
8949	ปตท. ขาออก	13.6860887	100.6025228	exat	working	2022-09-09T00:00:00	12:00:00	13:00:00	34	20	1628	2700	0.60
8950	ปตท. ขาออก	13.6860887	100.6025228	exat	working	2022-09-09T00:00:00	13:00:00	14:00:00	36	21	1657	2700	0.61
8951	ปตท. ขาออก	13.6860887	100.6025228	exat	working	2022-09-09T00:00:00	14:00:00	15:00:00	36	22	1645	2700	0.61
8952	ปตท. ขาออก	13.6860887	100.6025228	exat	working	2022-09-09T00:00:00	15:00:00	16:00:00	36	23	1719	2700	0.64
8953	ปตท. ขาออก	13.6860887	100.6025228	exat	working	2022-09-09T00:00:00	16:00:00	17:00:00	21	121	364	2700	0.13
8954	ปตท. ขาออก	13.6860887	100.6025228	exat	working	2022-09-09T00:00:00	17:00:00	18:00:00	37	30	1110	2700	0.41
8955	ปตท. ขาออก	13.6860887	100.6025228	exat	working	2022-10-09T00:00:00	5:00:00	6:00:00	52	16	124	2700	0.05
8956	ปตท. ขาออก	13.6860887	100.6025228	exat	holiday	2022-10-09T00:00:00	6:00:00	7:00:00	37	51	368	2700	0.14
8957	ปตท. ขาออก	13.6860887	100.6025228	exat	holiday	2022-10-09T00:00:00	8:00:00	9:00:00	37	15	720	2700	0.27
8958	ปตท. ขาออก	13.6860887	100.6025228	exat	working	2022-10-09T00:00:00	9:00:00	10:00:00	35	14	665	2700	0.25
8959	ปตท. ขาออก	13.6860887	100.6025228	exat	working	2022-10-09T00:00:00	10:00:00	11:00:00	35	10	692	2700	0.26
8960	ปตท. ขาออก	13.6860887	100.6025228	exat	holiday	2022-10-09T00:00:00	11:00:00	12:00:00	37	33	2951	2700	1.09
8961	ปตท. ขาออก	13.6860887	100.6025228	exat	working	2022-10-09T00:00:00	12:00:00	13:00:00	33	10	623	2700	0.23
8962	ปตท. ขาออก	13.6860887	100.6025228	exat	working	2022-10-09T00:00:00	13:00:00	14:00:00	32	13	601	2700	0.22
8963	ปตท. ขาออก	13.6860887	100.6025228	exat	working	2022-10-09T00:00:00	14:00:00	15:00:00	32	12	611	2700	0.23
8964	ปตท. ขาออก	13.6860887	100.6025228	exat	working	2022-10-09T00:00:00	15:00:00	16:00:00	32	14	773	2700	0.29
8965	ปตท. ขาออก	13.6860887	100.6025228	exat	holiday	2022-10-09T00:00:00	16:00:00	17:00:00	35	36	2207	2700	0.82
8966	ปตท. ขาออก	13.6860887	100.6025228	exat	holiday	2022-10-09T00:00:00	17:00:00	18:00:00	29	55	3291	2700	1.22
8967	ปตท. ขาออก	13.6860887	100.6025228	exat	holiday	2022-10-09T00:00:00	18:00:00	19:00:00	37	20	389	2700	0.14
8968	ปตท. ขาออก	13.6860887	100.6025228	exat	working	2022-11-09T00:00:00	5:00:00	6:00:00	31	10	78	2700	0.03
8969	ปตท. ขาออก	13.6860887	100.6025228	exat	holiday	2022-11-09T00:00:00	6:00:00	7:00:00	22	31	224	2700	0.08
8970	ปตท. ขาออก	13.6860887	100.6025228	exat	holiday	2022-11-09T00:00:00	8:00:00	9:00:00	22	9	442	2700	0.16
8971	ปตท. ขาออก	13.6860887	100.6025228	exat	working	2022-11-09T00:00:00	9:00:00	10:00:00	21	121	375	2700	0.14
8972	ปตท. ขาออก	13.6860887	100.6025228	exat	working	2022-11-09T00:00:00	10:00:00	11:00:00	21	122	420	2700	0.16
8973	ปตท. ขาออก	13.6860887	100.6025228	exat	holiday	2022-11-09T00:00:00	11:00:00	12:00:00	22	20	1754	2700	0.65
8974	ปตท. ขาออก	13.6860887	100.6025228	exat	working	2022-11-09T00:00:00	12:00:00	13:00:00	20	121	346	2700	0.13
8975	ปตท. ขาออก	13.6860887	100.6025228	exat	working	2022-11-09T00:00:00	13:00:00	14:00:00	19	121	351	2700	0.13
8976	ปตท. ขาออก	13.6860887	100.6025228	exat	working	2022-11-09T00:00:00	14:00:00	15:00:00	19	122	377	2700	0.14
8977	ปตท. ขาออก	13.6860887	100.6025228	exat	working	2022-11-09T00:00:00	15:00:00	16:00:00	20	121	435	2700	0.16
8978	ปตท. ขาออก	13.6860887	100.6025228	exat	holiday	2022-11-09T00:00:00	16:00:00	17:00:00	21	121	1344	2700	0.50
8979	ปตท. ขาออก	13.6860887	100.6025228	exat	holiday	2022-11-09T00:00:00	17:00:00	18:00:00	18	121	1983	2700	0.73
8980	ปตท. ขาออก	13.6860887	100.6025228	exat	holiday	2022-11-09T00:00:00	18:00:00	19:00:00	22	12	207	2700	0.08
8981	สุขุมวิท62_1	13.6915256	100.600743	exat	working	2022-05-09T00:00:00	5:00:00	6:00:00	30	40	130	3600	0.04
8982	สุขุมวิท62_1	13.6915256	100.600743	exat	working	2022-05-09T00:00:00	6:00:00	7:00:00	21	121	385	3600	0.11
8983	สุขุมวิท62_1	13.6915256	100.600743	exat	working	2022-05-09T00:00:00	7:00:00	8:00:00	31	171	6435	3600	1.79
8984	สุขุมวิท62_1	13.6915256	100.600743	exat	working	2022-05-09T00:00:00	8:00:00	9:00:00	27	181	5333	3600	1.48
8985	สุขุมวิท62_1	13.6915256	100.600743	exat	working	2022-05-09T00:00:00	9:00:00	10:00:00	25	177	5341	3600	1.48
8986	สุขุมวิท62_1	13.6915256	100.600743	exat	working	2022-05-09T00:00:00	10:00:00	11:00:00	26	177	5376	3600	1.49
8987	สุขุมวิท62_1	13.6915256	100.600743	exat	working	2022-05-09T00:00:00	11:00:00	12:00:00	37	57	2215	3600	0.62
8988	สุขุมวิท62_1	13.6915256	100.600743	exat	working	2022-05-09T00:00:00	12:00:00	13:00:00	26	176	5263	3600	1.46
8989	สุขุมวิท62_1	13.6915256	100.600743	exat	working	2022-05-09T00:00:00	13:00:00	14:00:00	25	178	5210	3600	1.45
8990	สุขุมวิท62_1	13.6915256	100.600743	exat	working	2022-05-09T00:00:00	14:00:00	15:00:00	25	176	5334	3600	1.48
8991	สุขุมวิท62_1	13.6915256	100.600743	exat	working	2022-05-09T00:00:00	15:00:00	16:00:00	23	178	5335	3600	1.48
8992	สุขุมวิท62_1	13.6915256	100.600743	exat	working	2022-05-09T00:00:00	16:00:00	17:00:00	21	121	748	3600	0.21
8993	สุขุมวิท62_1	13.6915256	100.600743	exat	working	2022-05-09T00:00:00	17:00:00	18:00:00	21	121	1470	3600	0.41
8994	สุขุมวิท62_1	13.6915256	100.600743	exat	working	2022-05-09T00:00:00	18:00:00	19:00:00	21	121	1269	3600	0.35
8995	สุขุมวิท62_1	13.6915256	100.600743	exat	working	2022-06-09T00:00:00	5:00:00	6:00:00	9	38	341	3600	0.09
8996	สุขุมวิท62_1	13.6915256	100.600743	exat	working	2022-06-09T00:00:00	6:00:00	7:00:00	7	121	1021	3600	0.28
8997	สุขุมวิท62_1	13.6915256	100.600743	exat	working	2022-06-09T00:00:00	7:00:00	8:00:00	34	138	5428	3600	1.51
8998	สุขุมวิท62_1	13.6915256	100.600743	exat	working	2022-06-09T00:00:00	8:00:00	9:00:00	32	134	4714	3600	1.31
8999	สุขุมวิท62_1	13.6915256	100.600743	exat	working	2022-06-09T00:00:00	9:00:00	10:00:00	29	129	4649	3600	1.29
9000	สุขุมวิท62_1	13.6915256	100.600743	exat	working	2022-06-09T00:00:00	10:00:00	11:00:00	29	132	4684	3600	1.30
9001	สุขุมวิท62_1	13.6915256	100.600743	exat	working	2022-06-09T00:00:00	11:00:00	12:00:00	37	111	2967	3600	0.82
9002	สุขุมวิท62_1	13.6915256	100.600743	exat	working	2022-06-09T00:00:00	12:00:00	13:00:00	31	131	4585	3600	1.27
9003	สุขุมวิท62_1	13.6915256	100.600743	exat	working	2022-06-09T00:00:00	13:00:00	14:00:00	29	133	4640	3600	1.29
9004	สุขุมวิท62_1	13.6915256	100.600743	exat	working	2022-06-09T00:00:00	14:00:00	15:00:00	30	133	4657	3600	1.29
9005	สุขุมวิท62_1	13.6915256	100.600743	exat	working	2022-06-09T00:00:00	15:00:00	16:00:00	28	133	4629	3600	1.29
9006	สุขุมวิท62_1	13.6915256	100.600743	exat	working	2022-06-09T00:00:00	16:00:00	17:00:00	19	122	2307	3600	0.64
9007	สุขุมวิท62_1	13.6915256	100.600743	exat	working	2022-06-09T00:00:00	17:00:00	18:00:00	3	121	1385	3600	0.38
9008	สุขุมวิท62_1	13.6915256	100.600743	exat	working	2022-06-09T00:00:00	18:00:00	19:00:00	5	121	1382	3600	0.38
9009	สุขุมวิท62_1	13.6915256	100.600743	exat	working	2022-07-09T00:00:00	5:00:00	6:00:00	18	37	534	3600	0.15
9010	สุขุมวิท62_1	13.6915256	100.600743	exat	working	2022-07-09T00:00:00	6:00:00	7:00:00	13	122	1672	3600	0.46
9011	สุขุมวิท62_1	13.6915256	100.600743	exat	working	2022-07-09T00:00:00	7:00:00	8:00:00	37	105	4367	3600	1.21
9012	สุขุมวิท62_1	13.6915256	100.600743	exat	working	2022-07-09T00:00:00	8:00:00	9:00:00	37	88	4080	3600	1.13
9013	สุขุมวิท62_1	13.6915256	100.600743	exat	working	2022-07-09T00:00:00	9:00:00	10:00:00	33	83	4007	3600	1.11
9014	สุขุมวิท62_1	13.6915256	100.600743	exat	working	2022-07-09T00:00:00	10:00:00	11:00:00	33	86	3954	3600	1.10
9015	สุขุมวิท62_1	13.6915256	100.600743	exat	working	2022-07-09T00:00:00	11:00:00	12:00:00	37	162	3681	3600	1.02
9016	สุขุมวิท62_1	13.6915256	100.600743	exat	working	2022-07-09T00:00:00	12:00:00	13:00:00	35	85	3973	3600	1.10
9017	สุขุมวิท62_1	13.6915256	100.600743	exat	working	2022-07-09T00:00:00	13:00:00	14:00:00	33	87	4055	3600	1.13
9018	สุขุมวิท62_1	13.6915256	100.600743	exat	working	2022-07-09T00:00:00	14:00:00	15:00:00	34	90	3951	3600	1.10
9019	สุขุมวิท62_1	13.6915256	100.600743	exat	working	2022-07-09T00:00:00	15:00:00	16:00:00	34	89	3904	3600	1.08
9020	สุขุมวิท62_1	13.6915256	100.600743	exat	working	2022-07-09T00:00:00	16:00:00	17:00:00	37	58	3867	3600	1.07
9021	สุขุมวิท62_1	13.6915256	100.600743	exat	working	2022-07-09T00:00:00	17:00:00	18:00:00	5	122	1283	3600	0.36
9022	สุขุมวิท62_1	13.6915256	100.600743	exat	working	2022-07-09T00:00:00	18:00:00	19:00:00	10	121	1443	3600	0.40
9023	สุขุมวิท62_1	13.6915256	100.600743	exat	working	2022-08-09T00:00:00	5:00:00	6:00:00	9	41	413	3600	0.11
9024	สุขุมวิท62_1	13.6915256	100.600743	exat	working	2022-08-09T00:00:00	6:00:00	7:00:00	7	121	1289	3600	0.36
9025	สุขุมวิท62_1	13.6915256	100.600743	exat	working	2022-08-09T00:00:00	7:00:00	8:00:00	19	121	3092	3600	0.86
9026	สุขุมวิท62_1	13.6915256	100.600743	exat	working	2022-08-09T00:00:00	8:00:00	9:00:00	36	91	4704	3600	1.31
9027	สุขุมวิท62_1	13.6915256	100.600743	exat	working	2022-08-09T00:00:00	9:00:00	10:00:00	32	87	4608	3600	1.28
9028	สุขุมวิท62_1	13.6915256	100.600743	exat	working	2022-08-09T00:00:00	10:00:00	11:00:00	33	89	4594	3600	1.28
9029	สุขุมวิท62_1	13.6915256	100.600743	exat	working	2022-08-09T00:00:00	11:00:00	12:00:00	21	122	4164	3600	1.16
9030	สุขุมวิท62_1	13.6915256	100.600743	exat	working	2022-08-09T00:00:00	12:00:00	13:00:00	34	89	4582	3600	1.27
9031	สุขุมวิท62_1	13.6915256	100.600743	exat	working	2022-08-09T00:00:00	13:00:00	14:00:00	33	90	4696	3600	1.30
9032	สุขุมวิท62_1	13.6915256	100.600743	exat	working	2022-08-09T00:00:00	14:00:00	15:00:00	34	90	4657	3600	1.29
9033	สุขุมวิท62_1	13.6915256	100.600743	exat	working	2022-08-09T00:00:00	15:00:00	16:00:00	34	90	4610	3600	1.28
9034	สุขุมวิท62_1	13.6915256	100.600743	exat	working	2022-08-09T00:00:00	16:00:00	17:00:00	26	70	4516	3600	1.25
9035	สุขุมวิท62_1	13.6915256	100.600743	exat	working	2022-08-09T00:00:00	17:00:00	18:00:00	16	121	3141	3600	0.87
9036	สุขุมวิท62_1	13.6915256	100.600743	exat	working	2022-08-09T00:00:00	18:00:00	19:00:00	23	18	1229	3600	0.34
9037	สุขุมวิท62_1	13.6915256	100.600743	exat	working	2022-09-09T00:00:00	5:00:00	6:00:00	29	40	292	3600	0.08
9038	สุขุมวิท62_1	13.6915256	100.600743	exat	working	2022-09-09T00:00:00	6:00:00	7:00:00	21	121	925	3600	0.26
9039	สุขุมวิท62_1	13.6915256	100.600743	exat	working	2022-09-09T00:00:00	7:00:00	8:00:00	21	121	1669	3600	0.46
9040	สุขุมวิท62_1	13.6915256	100.600743	exat	working	2022-09-09T00:00:00	8:00:00	9:00:00	36	94	5361	3600	1.49
9041	สุขุมวิท62_1	13.6915256	100.600743	exat	working	2022-09-09T00:00:00	9:00:00	10:00:00	31	92	5292	3600	1.47
9042	สุขุมวิท62_1	13.6915256	100.600743	exat	working	2022-09-09T00:00:00	10:00:00	11:00:00	33	93	5227	3600	1.45
9043	สุขุมวิท62_1	13.6915256	100.600743	exat	working	2022-09-09T00:00:00	11:00:00	12:00:00	5	121	4633	3600	1.29
9044	สุขุมวิท62_1	13.6915256	100.600743	exat	working	2022-09-09T00:00:00	12:00:00	13:00:00	33	93	5262	3600	1.46
9045	สุขุมวิท62_1	13.6915256	100.600743	exat	working	2022-09-09T00:00:00	13:00:00	14:00:00	32	92	5300	3600	1.47
9046	สุขุมวิท62_1	13.6915256	100.600743	exat	working	2022-09-09T00:00:00	14:00:00	15:00:00	33	90	5352	3600	1.49
9047	สุขุมวิท62_1	13.6915256	100.600743	exat	working	2022-09-09T00:00:00	15:00:00	16:00:00	34	90	5285	3600	1.47
9048	สุขุมวิท62_1	13.6915256	100.600743	exat	working	2022-09-09T00:00:00	16:00:00	17:00:00	16	121	5183	3600	1.44
9049	สุขุมวิท62_1	13.6915256	100.600743	exat	working	2022-09-09T00:00:00	17:00:00	18:00:00	26	98	4973	3600	1.38
9050	สุขุมวิท62_1	13.6915256	100.600743	exat	working	2022-09-09T00:00:00	18:00:00	19:00:00	37	23	1113	3600	0.31
9051	สุขุมวิท62_1	13.6915256	100.600743	exat	working	2022-10-09T00:00:00	5:00:00	6:00:00	29	40	128	3600	0.04
9052	สุขุมวิท62_1	13.6915256	100.600743	exat	holiday	2022-10-09T00:00:00	6:00:00	7:00:00	21	121	370	3600	0.10
9053	สุขุมวิท62_1	13.6915256	100.600743	exat	holiday	2022-10-09T00:00:00	7:00:00	8:00:00	21	121	1285	3600	0.36
9054	สุขุมวิท62_1	13.6915256	100.600743	exat	holiday	2022-10-09T00:00:00	8:00:00	9:00:00	21	121	1482	3600	0.41
9055	สุขุมวิท62_1	13.6915256	100.600743	exat	working	2022-10-09T00:00:00	9:00:00	10:00:00	21	121	1300	3600	0.36
9056	สุขุมวิท62_1	13.6915256	100.600743	exat	working	2022-10-09T00:00:00	10:00:00	11:00:00	21	121	1341	3600	0.37
9057	สุขุมวิท62_1	13.6915256	100.600743	exat	holiday	2022-10-09T00:00:00	11:00:00	12:00:00	36	116	5349	3600	1.49
9058	สุขุมวิท62_1	13.6915256	100.600743	exat	working	2022-10-09T00:00:00	12:00:00	13:00:00	21	121	1462	3600	0.41
9059	สุขุมวิท62_1	13.6915256	100.600743	exat	working	2022-10-09T00:00:00	13:00:00	14:00:00	21	121	1362	3600	0.38
9060	สุขุมวิท62_1	13.6915256	100.600743	exat	working	2022-10-09T00:00:00	14:00:00	15:00:00	21	121	1475	3600	0.41
9061	สุขุมวิท62_1	13.6915256	100.600743	exat	working	2022-10-09T00:00:00	15:00:00	16:00:00	21	122	1480	3600	0.41
9062	สุขุมวิท62_1	13.6915256	100.600743	exat	holiday	2022-10-09T00:00:00	16:00:00	17:00:00	21	121	1458	3600	0.41
9063	สุขุมวิท62_1	13.6915256	100.600743	exat	holiday	2022-10-09T00:00:00	17:00:00	18:00:00	21	121	740	3600	0.21
9064	สุขุมวิท62_1	13.6915256	100.600743	exat	holiday	2022-10-09T00:00:00	18:00:00	19:00:00	29	77	3684	3600	1.02
9065	สุขุมวิท62_1	13.6915256	100.600743	exat	working	2022-11-09T00:00:00	5:00:00	6:00:00	29	38	78	3600	0.02
9066	สุขุมวิท62_1	13.6915256	100.600743	exat	holiday	2022-11-09T00:00:00	6:00:00	7:00:00	21	121	239	3600	0.07
9067	สุขุมวิท62_1	13.6915256	100.600743	exat	holiday	2022-11-09T00:00:00	7:00:00	8:00:00	21	121	771	3600	0.21
9068	สุขุมวิท62_1	13.6915256	100.600743	exat	holiday	2022-11-09T00:00:00	8:00:00	9:00:00	21	121	882	3600	0.25
9069	สุขุมวิท62_1	13.6915256	100.600743	exat	working	2022-11-09T00:00:00	9:00:00	10:00:00	21	121	790	3600	0.22
9070	สุขุมวิท62_1	13.6915256	100.600743	exat	working	2022-11-09T00:00:00	10:00:00	11:00:00	21	121	802	3600	0.22
9071	สุขุมวิท62_1	13.6915256	100.600743	exat	holiday	2022-11-09T00:00:00	11:00:00	12:00:00	22	69	3218	3600	0.89
9072	สุขุมวิท62_1	13.6915256	100.600743	exat	working	2022-11-09T00:00:00	12:00:00	13:00:00	21	121	877	3600	0.24
9073	สุขุมวิท62_1	13.6915256	100.600743	exat	working	2022-11-09T00:00:00	13:00:00	14:00:00	21	121	800	3600	0.22
9074	สุขุมวิท62_1	13.6915256	100.600743	exat	working	2022-11-09T00:00:00	14:00:00	15:00:00	21	121	874	3600	0.24
9075	สุขุมวิท62_1	13.6915256	100.600743	exat	working	2022-11-09T00:00:00	15:00:00	16:00:00	21	121	901	3600	0.25
9076	สุขุมวิท62_1	13.6915256	100.600743	exat	holiday	2022-11-09T00:00:00	16:00:00	17:00:00	21	121	896	3600	0.25
9077	สุขุมวิท62_1	13.6915256	100.600743	exat	holiday	2022-11-09T00:00:00	17:00:00	18:00:00	21	121	431	3600	0.12
9078	สุขุมวิท62_1	13.6915256	100.600743	exat	holiday	2022-11-09T00:00:00	18:00:00	19:00:00	18	121	2196	3600	0.61
9079	ทางออกสุขุมวิท62	13.6946079	100.5971169	exat	working	2022-05-09T00:00:00	5:00:00	6:00:00	51	11	478	900	0.53
9080	ทางออกสุขุมวิท62	13.6946079	100.5971169	exat	working	2022-05-09T00:00:00	6:00:00	7:00:00	37	36	1439	900	1.60
9081	ทางออกสุขุมวิท62	13.6946079	100.5971169	exat	working	2022-05-09T00:00:00	7:00:00	8:00:00	75	49	2572	900	2.86
9082	ทางออกสุขุมวิท62	13.6946079	100.5971169	exat	working	2022-05-09T00:00:00	8:00:00	9:00:00	91	40	2049	900	2.28
9083	ทางออกสุขุมวิท62	13.6946079	100.5971169	exat	working	2022-05-09T00:00:00	9:00:00	10:00:00	91	38	1953	900	2.17
9084	ทางออกสุขุมวิท62	13.6946079	100.5971169	exat	working	2022-05-09T00:00:00	10:00:00	11:00:00	89	38	1920	900	2.13
9085	ทางออกสุขุมวิท62	13.6946079	100.5971169	exat	working	2022-05-09T00:00:00	11:00:00	12:00:00	21	122	1101	900	1.22
9086	ทางออกสุขุมวิท62	13.6946079	100.5971169	exat	working	2022-05-09T00:00:00	12:00:00	13:00:00	89	39	1926	900	2.14
9087	ทางออกสุขุมวิท62	13.6946079	100.5971169	exat	working	2022-05-09T00:00:00	13:00:00	14:00:00	85	38	1900	900	2.11
9088	ทางออกสุขุมวิท62	13.6946079	100.5971169	exat	working	2022-05-09T00:00:00	14:00:00	15:00:00	86	38	1890	900	2.10
9089	ทางออกสุขุมวิท62	13.6946079	100.5971169	exat	working	2022-05-09T00:00:00	15:00:00	16:00:00	83	38	1890	900	2.10
9090	ทางออกสุขุมวิท62	13.6946079	100.5971169	exat	working	2022-05-09T00:00:00	16:00:00	17:00:00	91	41	1295	900	1.44
9091	ทางออกสุขุมวิท62	13.6946079	100.5971169	exat	working	2022-05-09T00:00:00	17:00:00	18:00:00	91	37	726	900	0.81
9092	ทางออกสุขุมวิท62	13.6946079	100.5971169	exat	working	2022-06-09T00:00:00	5:00:00	6:00:00	91	9	488	900	0.54
9093	ทางออกสุขุมวิท62	13.6946079	100.5971169	exat	working	2022-06-09T00:00:00	6:00:00	7:00:00	64	26	1450	900	1.61
9094	ทางออกสุขุมวิท62	13.6946079	100.5971169	exat	working	2022-06-09T00:00:00	7:00:00	8:00:00	79	41	2547	900	2.83
9095	ทางออกสุขุมวิท62	13.6946079	100.5971169	exat	working	2022-06-09T00:00:00	8:00:00	9:00:00	87	37	2475	900	2.75
9096	ทางออกสุขุมวิท62	13.6946079	100.5971169	exat	working	2022-06-09T00:00:00	9:00:00	10:00:00	86	34	2434	900	2.70
9097	ทางออกสุขุมวิท62	13.6946079	100.5971169	exat	working	2022-06-09T00:00:00	10:00:00	11:00:00	84	33	2370	900	2.63
9098	ทางออกสุขุมวิท62	13.6946079	100.5971169	exat	working	2022-06-09T00:00:00	11:00:00	12:00:00	39	41	2200	900	2.44
9099	ทางออกสุขุมวิท62	13.6946079	100.5971169	exat	working	2022-06-09T00:00:00	12:00:00	13:00:00	85	35	2377	900	2.64
9100	ทางออกสุขุมวิท62	13.6946079	100.5971169	exat	working	2022-06-09T00:00:00	13:00:00	14:00:00	83	34	2333	900	2.59
9101	ทางออกสุขุมวิท62	13.6946079	100.5971169	exat	working	2022-06-09T00:00:00	14:00:00	15:00:00	83	35	2434	900	2.70
9102	ทางออกสุขุมวิท62	13.6946079	100.5971169	exat	working	2022-06-09T00:00:00	15:00:00	16:00:00	82	33	2413	900	2.68
9103	ทางออกสุขุมวิท62	13.6946079	100.5971169	exat	working	2022-06-09T00:00:00	16:00:00	17:00:00	91	31	1300	900	1.44
9104	ทางออกสุขุมวิท62	13.6946079	100.5971169	exat	working	2022-06-09T00:00:00	17:00:00	18:00:00	91	27	1399	900	1.55
9105	ทางออกสุขุมวิท62	13.6946079	100.5971169	exat	working	2022-06-09T00:00:00	18:00:00	19:00:00	91	17	2358	900	2.62
9106	ทางออกสุขุมวิท62	13.6946079	100.5971169	exat	working	2022-07-09T00:00:00	5:00:00	6:00:00	131	5	463	900	0.51
9107	ทางออกสุขุมวิท62	13.6946079	100.5971169	exat	working	2022-07-09T00:00:00	6:00:00	7:00:00	91	15	1460	900	1.62
9108	ทางออกสุขุมวิท62	13.6946079	100.5971169	exat	working	2022-07-09T00:00:00	7:00:00	8:00:00	83	34	2559	900	2.84
9109	ทางออกสุขุมวิท62	13.6946079	100.5971169	exat	working	2022-07-09T00:00:00	8:00:00	9:00:00	84	33	2910	900	3.23
9110	ทางออกสุขุมวิท62	13.6946079	100.5971169	exat	working	2022-07-09T00:00:00	9:00:00	10:00:00	81	29	2823	900	3.14
9111	ทางออกสุขุมวิท62	13.6946079	100.5971169	exat	working	2022-07-09T00:00:00	10:00:00	11:00:00	79	28	2875	900	3.19
9112	ทางออกสุขุมวิท62	13.6946079	100.5971169	exat	working	2022-07-09T00:00:00	11:00:00	12:00:00	77	49	3246	900	3.61
9113	ทางออกสุขุมวิท62	13.6946079	100.5971169	exat	working	2022-07-09T00:00:00	12:00:00	13:00:00	80	32	2745	900	3.05
9114	ทางออกสุขุมวิท62	13.6946079	100.5971169	exat	working	2022-07-09T00:00:00	13:00:00	14:00:00	81	30	2804	900	3.12
9115	ทางออกสุขุมวิท62	13.6946079	100.5971169	exat	working	2022-07-09T00:00:00	14:00:00	15:00:00	80	33	2938	900	3.26
9116	ทางออกสุขุมวิท62	13.6946079	100.5971169	exat	working	2022-07-09T00:00:00	15:00:00	16:00:00	80	29	2900	900	3.22
9117	ทางออกสุขุมวิท62	13.6946079	100.5971169	exat	working	2022-07-09T00:00:00	16:00:00	17:00:00	91	21	1475	900	1.64
9118	ทางออกสุขุมวิท62	13.6946079	100.5971169	exat	working	2022-07-09T00:00:00	17:00:00	18:00:00	91	17	2001	900	2.22
9119	ทางออกสุขุมวิท62	13.6946079	100.5971169	exat	working	2022-07-09T00:00:00	18:00:00	19:00:00	91	17	2372	900	2.64
9120	ทางออกสุขุมวิท62	13.6946079	100.5971169	exat	working	2022-08-09T00:00:00	5:00:00	6:00:00	130	10	300	900	0.33
9121	ทางออกสุขุมวิท62	13.6946079	100.5971169	exat	working	2022-08-09T00:00:00	6:00:00	7:00:00	91	28	904	900	1.00
9122	ทางออกสุขุมวิท62	13.6946079	100.5971169	exat	working	2022-08-09T00:00:00	7:00:00	8:00:00	87	34	1559	900	1.73
9123	ทางออกสุขุมวิท62	13.6946079	100.5971169	exat	working	2022-08-09T00:00:00	8:00:00	9:00:00	87	22	2009	900	2.23
9124	ทางออกสุขุมวิท62	13.6946079	100.5971169	exat	working	2022-08-09T00:00:00	9:00:00	10:00:00	84	19	1941	900	2.16
9125	ทางออกสุขุมวิท62	13.6946079	100.5971169	exat	working	2022-08-09T00:00:00	10:00:00	11:00:00	84	17	1925	900	2.14
9126	ทางออกสุขุมวิท62	13.6946079	100.5971169	exat	working	2022-08-09T00:00:00	11:00:00	12:00:00	39	25	2552	900	2.84
9127	ทางออกสุขุมวิท62	13.6946079	100.5971169	exat	working	2022-08-09T00:00:00	12:00:00	13:00:00	84	19	1873	900	2.08
9128	ทางออกสุขุมวิท62	13.6946079	100.5971169	exat	working	2022-08-09T00:00:00	13:00:00	14:00:00	84	18	1927	900	2.14
9129	ทางออกสุขุมวิท62	13.6946079	100.5971169	exat	working	2022-08-09T00:00:00	14:00:00	15:00:00	85	21	1999	900	2.22
9130	ทางออกสุขุมวิท62	13.6946079	100.5971169	exat	working	2022-08-09T00:00:00	15:00:00	16:00:00	83	19	1917	900	2.13
9131	ทางออกสุขุมวิท62	13.6946079	100.5971169	exat	working	2022-08-09T00:00:00	16:00:00	17:00:00	91	21	1459	900	1.62
9132	ทางออกสุขุมวิท62	13.6946079	100.5971169	exat	working	2022-08-09T00:00:00	17:00:00	18:00:00	91	18	2818	900	3.13
9133	ทางออกสุขุมวิท62	13.6946079	100.5971169	exat	working	2022-08-09T00:00:00	18:00:00	19:00:00	91	19	2091	900	2.32
9134	ทางออกสุขุมวิท62	13.6946079	100.5971169	exat	working	2022-09-09T00:00:00	5:00:00	6:00:00	130	13	126	900	0.14
9135	ทางออกสุขุมวิท62	13.6946079	100.5971169	exat	working	2022-09-09T00:00:00	6:00:00	7:00:00	91	41	368	900	0.41
9136	ทางออกสุขุมวิท62	13.6946079	100.5971169	exat	working	2022-09-09T00:00:00	7:00:00	8:00:00	91	34	543	900	0.60
9137	ทางออกสุขุมวิท62	13.6946079	100.5971169	exat	working	2022-09-09T00:00:00	8:00:00	9:00:00	91	11	1081	900	1.20
9138	ทางออกสุขุมวิท62	13.6946079	100.5971169	exat	working	2022-09-09T00:00:00	9:00:00	10:00:00	87	9	1052	900	1.17
9139	ทางออกสุขุมวิท62	13.6946079	100.5971169	exat	working	2022-09-09T00:00:00	10:00:00	11:00:00	89	7	1035	900	1.15
9140	ทางออกสุขุมวิท62	13.6946079	100.5971169	exat	working	2022-09-09T00:00:00	11:00:00	12:00:00	21	121	1811	900	2.01
9141	ทางออกสุขุมวิท62	13.6946079	100.5971169	exat	working	2022-09-09T00:00:00	12:00:00	13:00:00	87	6	1078	900	1.20
9142	ทางออกสุขุมวิท62	13.6946079	100.5971169	exat	working	2022-09-09T00:00:00	13:00:00	14:00:00	86	7	1036	900	1.15
9143	ทางออกสุขุมวิท62	13.6946079	100.5971169	exat	working	2022-09-09T00:00:00	14:00:00	15:00:00	89	10	1079	900	1.20
9144	ทางออกสุขุมวิท62	13.6946079	100.5971169	exat	working	2022-09-09T00:00:00	15:00:00	16:00:00	86	9	935	900	1.04
9145	ทางออกสุขุมวิท62	13.6946079	100.5971169	exat	working	2022-09-09T00:00:00	16:00:00	17:00:00	91	21	1453	900	1.61
9146	ทางออกสุขุมวิท62	13.6946079	100.5971169	exat	working	2022-09-09T00:00:00	17:00:00	18:00:00	91	20	3635	900	4.04
9147	ทางออกสุขุมวิท62	13.6946079	100.5971169	exat	working	2022-09-09T00:00:00	18:00:00	19:00:00	91	21	1801	900	2.00
9148	ทางออกสุขุมวิท62	13.6946079	100.5971169	exat	working	2022-10-09T00:00:00	5:00:00	6:00:00	130	7	475	900	0.53
9149	ทางออกสุขุมวิท62	13.6946079	100.5971169	exat	holiday	2022-10-09T00:00:00	6:00:00	7:00:00	91	24	1440	900	1.60
9150	ทางออกสุขุมวิท62	13.6946079	100.5971169	exat	holiday	2022-10-09T00:00:00	7:00:00	8:00:00	91	24	1460	900	1.62
9151	ทางออกสุขุมวิท62	13.6946079	100.5971169	exat	holiday	2022-10-09T00:00:00	8:00:00	9:00:00	91	24	746	900	0.83
9152	ทางออกสุขุมวิท62	13.6946079	100.5971169	exat	working	2022-10-09T00:00:00	9:00:00	10:00:00	89	20	653	900	0.73
9153	ทางออกสุขุมวิท62	13.6946079	100.5971169	exat	working	2022-10-09T00:00:00	10:00:00	11:00:00	88	19	673	900	0.75
9154	ทางออกสุขุมวิท62	13.6946079	100.5971169	exat	holiday	2022-10-09T00:00:00	11:00:00	12:00:00	91	25	2161	900	2.40
9155	ทางออกสุขุมวิท62	13.6946079	100.5971169	exat	working	2022-10-09T00:00:00	12:00:00	13:00:00	90	21	714	900	0.79
9156	ทางออกสุขุมวิท62	13.6946079	100.5971169	exat	working	2022-10-09T00:00:00	13:00:00	14:00:00	87	22	643	900	0.71
9157	ทางออกสุขุมวิท62	13.6946079	100.5971169	exat	working	2022-10-09T00:00:00	14:00:00	15:00:00	86	19	625	900	0.69
9158	ทางออกสุขุมวิท62	13.6946079	100.5971169	exat	working	2022-10-09T00:00:00	15:00:00	16:00:00	87	22	620	900	0.69
9159	ทางออกสุขุมวิท62	13.6946079	100.5971169	exat	holiday	2022-10-09T00:00:00	16:00:00	17:00:00	91	28	3307	900	3.67
9160	ทางออกสุขุมวิท62	13.6946079	100.5971169	exat	holiday	2022-10-09T00:00:00	17:00:00	18:00:00	91	18	1272	900	1.41
9161	ทางออกสุขุมวิท62	13.6946079	100.5971169	exat	holiday	2022-10-09T00:00:00	18:00:00	19:00:00	61	30	724	900	0.80
9162	ทางออกสุขุมวิท62	13.6946079	100.5971169	exat	working	2022-11-09T00:00:00	5:00:00	6:00:00	77	5	289	900	0.32
9163	ทางออกสุขุมวิท62	13.6946079	100.5971169	exat	holiday	2022-11-09T00:00:00	6:00:00	7:00:00	55	14	874	900	0.97
9164	ทางออกสุขุมวิท62	13.6946079	100.5971169	exat	holiday	2022-11-09T00:00:00	7:00:00	8:00:00	55	14	875	900	0.97
9165	ทางออกสุขุมวิท62	13.6946079	100.5971169	exat	holiday	2022-11-09T00:00:00	8:00:00	9:00:00	55	15	442	900	0.49
9166	ทางออกสุขุมวิท62	13.6946079	100.5971169	exat	working	2022-11-09T00:00:00	9:00:00	10:00:00	54	12	416	900	0.46
9167	ทางออกสุขุมวิท62	13.6946079	100.5971169	exat	working	2022-11-09T00:00:00	10:00:00	11:00:00	53	12	412	900	0.46
9168	ทางออกสุขุมวิท62	13.6946079	100.5971169	exat	holiday	2022-11-09T00:00:00	11:00:00	12:00:00	55	15	1330	900	1.48
9169	ทางออกสุขุมวิท62	13.6946079	100.5971169	exat	working	2022-11-09T00:00:00	12:00:00	13:00:00	54	13	427	900	0.47
9170	ทางออกสุขุมวิท62	13.6946079	100.5971169	exat	working	2022-11-09T00:00:00	13:00:00	14:00:00	52	14	379	900	0.42
9171	ทางออกสุขุมวิท62	13.6946079	100.5971169	exat	working	2022-11-09T00:00:00	14:00:00	15:00:00	52	11	383	900	0.43
9172	ทางออกสุขุมวิท62	13.6946079	100.5971169	exat	working	2022-11-09T00:00:00	15:00:00	16:00:00	52	13	364	900	0.40
9173	ทางออกสุขุมวิท62	13.6946079	100.5971169	exat	holiday	2022-11-09T00:00:00	16:00:00	17:00:00	55	17	1982	900	2.20
9174	ทางออกสุขุมวิท62	13.6946079	100.5971169	exat	holiday	2022-11-09T00:00:00	17:00:00	18:00:00	55	11	755	900	0.84
9175	ทางออกสุขุมวิท62	13.6946079	100.5971169	exat	holiday	2022-11-09T00:00:00	18:00:00	19:00:00	37	18	440	900	0.49
9176	ทางขึ้นอาจณรงค์	13.7126317	100.5712826	exat	working	2022-05-09T00:00:00	5:00:00	6:00:00	101	14	520	2700	0.19
9177	ทางขึ้นอาจณรงค์	13.7126317	100.5712826	exat	working	2022-05-09T00:00:00	6:00:00	7:00:00	72	42	1532	2700	0.57
9178	ทางขึ้นอาจณรงค์	13.7126317	100.5712826	exat	working	2022-05-09T00:00:00	7:00:00	8:00:00	25	84	2725	2700	1.01
9179	ทางขึ้นอาจณรงค์	13.7126317	100.5712826	exat	working	2022-05-09T00:00:00	8:00:00	9:00:00	31	106	2719	2700	1.01
9180	ทางขึ้นอาจณรงค์	13.7126317	100.5712826	exat	working	2022-05-09T00:00:00	9:00:00	10:00:00	30	101	2725	2700	1.01
9181	ทางขึ้นอาจณรงค์	13.7126317	100.5712826	exat	working	2022-05-09T00:00:00	10:00:00	11:00:00	25	104	2611	2700	0.97
9182	ทางขึ้นอาจณรงค์	13.7126317	100.5712826	exat	working	2022-05-09T00:00:00	11:00:00	12:00:00	42	76	1807	2700	0.67
9183	ทางขึ้นอาจณรงค์	13.7126317	100.5712826	exat	working	2022-05-09T00:00:00	12:00:00	13:00:00	26	104	2714	2700	1.01
9184	ทางขึ้นอาจณรงค์	13.7126317	100.5712826	exat	working	2022-05-09T00:00:00	13:00:00	14:00:00	27	101	2591	2700	0.96
9185	ทางขึ้นอาจณรงค์	13.7126317	100.5712826	exat	working	2022-05-09T00:00:00	14:00:00	15:00:00	30	106	2613	2700	0.97
9186	ทางขึ้นอาจณรงค์	13.7126317	100.5712826	exat	working	2022-05-09T00:00:00	15:00:00	16:00:00	28	105	2590	2700	0.96
9187	ทางขึ้นอาจณรงค์	13.7126317	100.5712826	exat	working	2022-05-09T00:00:00	16:00:00	17:00:00	39	32	1274	2700	0.47
9188	ทางขึ้นอาจณรงค์	13.7126317	100.5712826	exat	working	2022-05-09T00:00:00	17:00:00	18:00:00	39	31	1274	2700	0.47
9189	ทางขึ้นอาจณรงค์	13.7126317	100.5712826	exat	working	2022-05-09T00:00:00	18:00:00	19:00:00	44	44	1265	2700	0.47
9190	ทางขึ้นอาจณรงค์	13.7126317	100.5712826	exat	working	2022-06-09T00:00:00	5:00:00	6:00:00	114	15	594	2700	0.22
9191	ทางขึ้นอาจณรงค์	13.7126317	100.5712826	exat	working	2022-06-09T00:00:00	6:00:00	7:00:00	79	43	1708	2700	0.63
9192	ทางขึ้นอาจณรงค์	13.7126317	100.5712826	exat	working	2022-06-09T00:00:00	7:00:00	8:00:00	35	76	2451	2700	0.91
9193	ทางขึ้นอาจณรงค์	13.7126317	100.5712826	exat	working	2022-06-09T00:00:00	8:00:00	9:00:00	35	73	2134	2700	0.79
9194	ทางขึ้นอาจณรงค์	13.7126317	100.5712826	exat	working	2022-06-09T00:00:00	9:00:00	10:00:00	34	68	2098	2700	0.78
9195	ทางขึ้นอาจณรงค์	13.7126317	100.5712826	exat	working	2022-06-09T00:00:00	10:00:00	11:00:00	30	70	2037	2700	0.75
9196	ทางขึ้นอาจณรงค์	13.7126317	100.5712826	exat	working	2022-06-09T00:00:00	11:00:00	12:00:00	28	65	1989	2700	0.74
9197	ทางขึ้นอาจณรงค์	13.7126317	100.5712826	exat	working	2022-06-09T00:00:00	12:00:00	13:00:00	32	71	2058	2700	0.76
9198	ทางขึ้นอาจณรงค์	13.7126317	100.5712826	exat	working	2022-06-09T00:00:00	13:00:00	14:00:00	33	69	2067	2700	0.77
9199	ทางขึ้นอาจณรงค์	13.7126317	100.5712826	exat	working	2022-06-09T00:00:00	14:00:00	15:00:00	33	70	2055	2700	0.76
9200	ทางขึ้นอาจณรงค์	13.7126317	100.5712826	exat	working	2022-06-09T00:00:00	15:00:00	16:00:00	33	69	2066	2700	0.77
9201	ทางขึ้นอาจณรงค์	13.7126317	100.5712826	exat	working	2022-06-09T00:00:00	16:00:00	17:00:00	20	121	968	2700	0.36
9202	ทางขึ้นอาจณรงค์	13.7126317	100.5712826	exat	working	2022-06-09T00:00:00	17:00:00	18:00:00	20	122	729	2700	0.27
9203	ทางขึ้นอาจณรงค์	13.7126317	100.5712826	exat	working	2022-06-09T00:00:00	18:00:00	19:00:00	22	91	908	2700	0.34
9204	ทางขึ้นอาจณรงค์	13.7126317	100.5712826	exat	working	2022-07-09T00:00:00	5:00:00	6:00:00	120	15	571	2700	0.21
9205	ทางขึ้นอาจณรงค์	13.7126317	100.5712826	exat	working	2022-07-09T00:00:00	6:00:00	7:00:00	85	43	1865	2700	0.69
9206	ทางขึ้นอาจณรงค์	13.7126317	100.5712826	exat	working	2022-07-09T00:00:00	7:00:00	8:00:00	45	68	2175	2700	0.81
9207	ทางขึ้นอาจณรงค์	13.7126317	100.5712826	exat	working	2022-07-09T00:00:00	8:00:00	9:00:00	40	39	1533	2700	0.57
9208	ทางขึ้นอาจณรงค์	13.7126317	100.5712826	exat	working	2022-07-09T00:00:00	9:00:00	10:00:00	37	35	1505	2700	0.56
9209	ทางขึ้นอาจณรงค์	13.7126317	100.5712826	exat	working	2022-07-09T00:00:00	10:00:00	11:00:00	35	36	1417	2700	0.52
9210	ทางขึ้นอาจณรงค์	13.7126317	100.5712826	exat	working	2022-07-09T00:00:00	11:00:00	12:00:00	14	121	2166	2700	0.80
9211	ทางขึ้นอาจณรงค์	13.7126317	100.5712826	exat	working	2022-07-09T00:00:00	12:00:00	13:00:00	38	37	1424	2700	0.53
9212	ทางขึ้นอาจณรงค์	13.7126317	100.5712826	exat	working	2022-07-09T00:00:00	13:00:00	14:00:00	39	36	1535	2700	0.57
9213	ทางขึ้นอาจณรงค์	13.7126317	100.5712826	exat	working	2022-07-09T00:00:00	14:00:00	15:00:00	35	33	1527	2700	0.57
9214	ทางขึ้นอาจณรงค์	13.7126317	100.5712826	exat	working	2022-07-09T00:00:00	15:00:00	16:00:00	37	33	1491	2700	0.55
9215	ทางขึ้นอาจณรงค์	13.7126317	100.5712826	exat	working	2022-07-09T00:00:00	16:00:00	17:00:00	21	121	724	2700	0.27
9216	ทางขึ้นอาจณรงค์	13.7126317	100.5712826	exat	working	2022-07-09T00:00:00	17:00:00	18:00:00	21	121	182	2700	0.07
9217	ทางขึ้นอาจณรงค์	13.7126317	100.5712826	exat	working	2022-07-09T00:00:00	18:00:00	19:00:00	21	121	532	2700	0.20
9218	ทางขึ้นอาจณรงค์	13.7126317	100.5712826	exat	working	2022-08-09T00:00:00	5:00:00	6:00:00	61	18	353	2700	0.13
9219	ทางขึ้นอาจณรงค์	13.7126317	100.5712826	exat	working	2022-08-09T00:00:00	6:00:00	7:00:00	43	52	1135	2700	0.42
9220	ทางขึ้นอาจณรงค์	13.7126317	100.5712826	exat	working	2022-08-09T00:00:00	7:00:00	8:00:00	23	71	1443	2700	0.53
9221	ทางขึ้นอาจณรงค์	13.7126317	100.5712826	exat	working	2022-08-09T00:00:00	8:00:00	9:00:00	20	121	1007	2700	0.37
9222	ทางขึ้นอาจณรงค์	13.7126317	100.5712826	exat	working	2022-08-09T00:00:00	9:00:00	10:00:00	17	121	945	2700	0.35
9223	ทางขึ้นอาจณรงค์	13.7126317	100.5712826	exat	working	2022-08-09T00:00:00	10:00:00	11:00:00	16	121	878	2700	0.33
9224	ทางขึ้นอาจณรงค์	13.7126317	100.5712826	exat	working	2022-08-09T00:00:00	11:00:00	12:00:00	7	121	1314	2700	0.49
9225	ทางขึ้นอาจณรงค์	13.7126317	100.5712826	exat	working	2022-08-09T00:00:00	12:00:00	13:00:00	17	122	942	2700	0.35
9226	ทางขึ้นอาจณรงค์	13.7126317	100.5712826	exat	working	2022-08-09T00:00:00	13:00:00	14:00:00	18	121	943	2700	0.35
9227	ทางขึ้นอาจณรงค์	13.7126317	100.5712826	exat	working	2022-08-09T00:00:00	14:00:00	15:00:00	16	121	969	2700	0.36
9228	ทางขึ้นอาจณรงค์	13.7126317	100.5712826	exat	working	2022-08-09T00:00:00	15:00:00	16:00:00	18	121	931	2700	0.34
9229	ทางขึ้นอาจณรงค์	13.7126317	100.5712826	exat	working	2022-08-09T00:00:00	16:00:00	17:00:00	21	122	728	2700	0.27
9230	ทางขึ้นอาจณรงค์	13.7126317	100.5712826	exat	working	2022-08-09T00:00:00	17:00:00	18:00:00	21	121	182	2700	0.07
9231	ทางขึ้นอาจณรงค์	13.7126317	100.5712826	exat	working	2022-08-09T00:00:00	18:00:00	19:00:00	26	95	877	2700	0.32
9232	ทางขึ้นอาจณรงค์	13.7126317	100.5712826	exat	working	2022-09-09T00:00:00	5:00:00	6:00:00	29	41	148	2700	0.05
9233	ทางขึ้นอาจณรงค์	13.7126317	100.5712826	exat	working	2022-09-09T00:00:00	6:00:00	7:00:00	21	121	421	2700	0.16
9234	ทางขึ้นอาจณรงค์	13.7126317	100.5712826	exat	working	2022-09-09T00:00:00	7:00:00	8:00:00	21	121	693	2700	0.26
9235	ทางขึ้นอาจณรงค์	13.7126317	100.5712826	exat	working	2022-09-09T00:00:00	8:00:00	9:00:00	21	121	438	2700	0.16
9236	ทางขึ้นอาจณรงค์	13.7126317	100.5712826	exat	working	2022-09-09T00:00:00	9:00:00	10:00:00	21	122	401	2700	0.15
9237	ทางขึ้นอาจณรงค์	13.7126317	100.5712826	exat	working	2022-09-09T00:00:00	10:00:00	11:00:00	21	122	340	2700	0.13
9238	ทางขึ้นอาจณรงค์	13.7126317	100.5712826	exat	working	2022-09-09T00:00:00	11:00:00	12:00:00	21	121	467	2700	0.17
9239	ทางขึ้นอาจณรงค์	13.7126317	100.5712826	exat	working	2022-09-09T00:00:00	12:00:00	13:00:00	21	121	414	2700	0.15
9240	ทางขึ้นอาจณรงค์	13.7126317	100.5712826	exat	working	2022-09-09T00:00:00	13:00:00	14:00:00	21	121	359	2700	0.13
9241	ทางขึ้นอาจณรงค์	13.7126317	100.5712826	exat	working	2022-09-09T00:00:00	14:00:00	15:00:00	21	121	445	2700	0.16
9242	ทางขึ้นอาจณรงค์	13.7126317	100.5712826	exat	working	2022-09-09T00:00:00	15:00:00	16:00:00	21	121	365	2700	0.14
9243	ทางขึ้นอาจณรงค์	13.7126317	100.5712826	exat	working	2022-09-09T00:00:00	16:00:00	17:00:00	21	121	782	2700	0.29
9244	ทางขึ้นอาจณรงค์	13.7126317	100.5712826	exat	working	2022-09-09T00:00:00	17:00:00	18:00:00	21	121	168	2700	0.06
9245	ทางขึ้นอาจณรงค์	13.7126317	100.5712826	exat	working	2022-09-09T00:00:00	18:00:00	19:00:00	52	53	1286	2700	0.48
9246	ทางขึ้นอาจณรงค์	13.7126317	100.5712826	exat	working	2022-10-09T00:00:00	5:00:00	6:00:00	128	11	264	2700	0.10
9247	ทางขึ้นอาจณรงค์	13.7126317	100.5712826	exat	holiday	2022-10-09T00:00:00	6:00:00	7:00:00	91	34	825	2700	0.31
9248	ทางขึ้นอาจณรงค์	13.7126317	100.5712826	exat	holiday	2022-10-09T00:00:00	7:00:00	8:00:00	90	42	2641	2700	0.98
9249	ทางขึ้นอาจณรงค์	13.7126317	100.5712826	exat	holiday	2022-10-09T00:00:00	8:00:00	9:00:00	76	41	2549	2700	0.94
9250	ทางขึ้นอาจณรงค์	13.7126317	100.5712826	exat	working	2022-10-09T00:00:00	9:00:00	10:00:00	73	37	2491	2700	0.92
9251	ทางขึ้นอาจณรงค์	13.7126317	100.5712826	exat	working	2022-10-09T00:00:00	10:00:00	11:00:00	74	39	2407	2700	0.89
9252	ทางขึ้นอาจณรงค์	13.7126317	100.5712826	exat	holiday	2022-10-09T00:00:00	11:00:00	12:00:00	63	70	1912	2700	0.71
9253	ทางขึ้นอาจณรงค์	13.7126317	100.5712826	exat	working	2022-10-09T00:00:00	12:00:00	13:00:00	73	37	2390	2700	0.89
9254	ทางขึ้นอาจณรงค์	13.7126317	100.5712826	exat	working	2022-10-09T00:00:00	13:00:00	14:00:00	75	39	2434	2700	0.90
9255	ทางขึ้นอาจณรงค์	13.7126317	100.5712826	exat	working	2022-10-09T00:00:00	14:00:00	15:00:00	71	35	2400	2700	0.89
9256	ทางขึ้นอาจณรงค์	13.7126317	100.5712826	exat	working	2022-10-09T00:00:00	15:00:00	16:00:00	71	40	2498	2700	0.93
9257	ทางขึ้นอาจณรงค์	13.7126317	100.5712826	exat	holiday	2022-10-09T00:00:00	16:00:00	17:00:00	58	102	1539	2700	0.57
9258	ทางขึ้นอาจณรงค์	13.7126317	100.5712826	exat	holiday	2022-10-09T00:00:00	17:00:00	18:00:00	49	67	999	2700	0.37
9259	ทางขึ้นอาจณรงค์	13.7126317	100.5712826	exat	holiday	2022-10-09T00:00:00	18:00:00	19:00:00	44	59	923	2700	0.34
9260	ทางขึ้นอาจณรงค์	13.7126317	100.5712826	exat	working	2022-11-09T00:00:00	5:00:00	6:00:00	79	7	158	2700	0.06
9261	ทางขึ้นอาจณรงค์	13.7126317	100.5712826	exat	holiday	2022-11-09T00:00:00	6:00:00	7:00:00	55	21	506	2700	0.19
9262	ทางขึ้นอาจณรงค์	13.7126317	100.5712826	exat	holiday	2022-11-09T00:00:00	7:00:00	8:00:00	54	25	1594	2700	0.59
9263	ทางขึ้นอาจณรงค์	13.7126317	100.5712826	exat	holiday	2022-11-09T00:00:00	8:00:00	9:00:00	46	25	1547	2700	0.57
9264	ทางขึ้นอาจณรงค์	13.7126317	100.5712826	exat	working	2022-11-09T00:00:00	9:00:00	10:00:00	44	22	1521	2700	0.56
9265	ทางขึ้นอาจณรงค์	13.7126317	100.5712826	exat	working	2022-11-09T00:00:00	10:00:00	11:00:00	44	23	1464	2700	0.54
9266	ทางขึ้นอาจณรงค์	13.7126317	100.5712826	exat	holiday	2022-11-09T00:00:00	11:00:00	12:00:00	38	42	1152	2700	0.43
9267	ทางขึ้นอาจณรงค์	13.7126317	100.5712826	exat	working	2022-11-09T00:00:00	12:00:00	13:00:00	44	23	1413	2700	0.52
9268	ทางขึ้นอาจณรงค์	13.7126317	100.5712826	exat	working	2022-11-09T00:00:00	13:00:00	14:00:00	45	24	1464	2700	0.54
9269	ทางขึ้นอาจณรงค์	13.7126317	100.5712826	exat	working	2022-11-09T00:00:00	14:00:00	15:00:00	43	21	1458	2700	0.54
9270	ทางขึ้นอาจณรงค์	13.7126317	100.5712826	exat	working	2022-11-09T00:00:00	15:00:00	16:00:00	43	24	1466	2700	0.54
9271	ทางขึ้นอาจณรงค์	13.7126317	100.5712826	exat	holiday	2022-11-09T00:00:00	16:00:00	17:00:00	35	62	930	2700	0.34
9272	ทางขึ้นอาจณรงค์	13.7126317	100.5712826	exat	holiday	2022-11-09T00:00:00	17:00:00	18:00:00	30	41	581	2700	0.22
9273	ทางขึ้นอาจณรงค์	13.7126317	100.5712826	exat	holiday	2022-11-09T00:00:00	18:00:00	19:00:00	27	36	543	2700	0.20
9274	ทางลงสุขุมวิท50	13.7015567	100.5907624	exat	working	2022-05-09T00:00:00	5:00:00	6:00:00	29	38	115	1800	0.06
9275	ทางลงสุขุมวิท50	13.7015567	100.5907624	exat	working	2022-05-09T00:00:00	6:00:00	7:00:00	21	121	378	1800	0.21
9276	ทางลงสุขุมวิท50	13.7015567	100.5907624	exat	working	2022-05-09T00:00:00	7:00:00	8:00:00	37	11	738	1800	0.41
9277	ทางลงสุขุมวิท50	13.7015567	100.5907624	exat	working	2022-05-09T00:00:00	8:00:00	9:00:00	37	11	379	1800	0.21
9278	ทางลงสุขุมวิท50	13.7015567	100.5907624	exat	working	2022-05-09T00:00:00	9:00:00	10:00:00	35	7	347	1800	0.19
9279	ทางลงสุขุมวิท50	13.7015567	100.5907624	exat	working	2022-05-09T00:00:00	10:00:00	11:00:00	35	8	190	1800	0.11
9280	ทางลงสุขุมวิท50	13.7015567	100.5907624	exat	working	2022-05-09T00:00:00	11:00:00	12:00:00	37	26	2763	1800	1.54
9281	ทางลงสุขุมวิท50	13.7015567	100.5907624	exat	working	2022-05-09T00:00:00	12:00:00	13:00:00	36	7	291	1800	0.16
9282	ทางลงสุขุมวิท50	13.7015567	100.5907624	exat	working	2022-05-09T00:00:00	13:00:00	14:00:00	34	8	319	1800	0.18
9283	ทางลงสุขุมวิท50	13.7015567	100.5907624	exat	working	2022-05-09T00:00:00	14:00:00	15:00:00	34	8	232	1800	0.13
9284	ทางลงสุขุมวิท50	13.7015567	100.5907624	exat	working	2022-05-09T00:00:00	15:00:00	16:00:00	35	5	288	1800	0.16
9285	ทางลงสุขุมวิท50	13.7015567	100.5907624	exat	working	2022-05-09T00:00:00	16:00:00	17:00:00	21	122	3905	1800	2.17
9286	ทางลงสุขุมวิท50	13.7015567	100.5907624	exat	working	2022-05-09T00:00:00	17:00:00	18:00:00	21	121	354	1800	0.20
9287	ทางลงสุขุมวิท50	13.7015567	100.5907624	exat	working	2022-05-09T00:00:00	18:00:00	19:00:00	37	15	557	1800	0.31
9288	ทางลงสุขุมวิท50	13.7015567	100.5907624	exat	working	2022-06-09T00:00:00	5:00:00	6:00:00	29	39	113	1800	0.06
9289	ทางลงสุขุมวิท50	13.7015567	100.5907624	exat	working	2022-06-09T00:00:00	6:00:00	7:00:00	21	121	369	1800	0.21
9290	ทางลงสุขุมวิท50	13.7015567	100.5907624	exat	working	2022-06-09T00:00:00	7:00:00	8:00:00	37	11	728	1800	0.40
9291	ทางลงสุขุมวิท50	13.7015567	100.5907624	exat	working	2022-06-09T00:00:00	8:00:00	9:00:00	37	11	371	1800	0.21
9292	ทางลงสุขุมวิท50	13.7015567	100.5907624	exat	working	2022-06-09T00:00:00	9:00:00	10:00:00	35	7	353	1800	0.20
9293	ทางลงสุขุมวิท50	13.7015567	100.5907624	exat	working	2022-06-09T00:00:00	10:00:00	11:00:00	35	8	203	1800	0.11
9294	ทางลงสุขุมวิท50	13.7015567	100.5907624	exat	working	2022-06-09T00:00:00	11:00:00	12:00:00	37	26	2795	1800	1.55
9295	ทางลงสุขุมวิท50	13.7015567	100.5907624	exat	working	2022-06-09T00:00:00	12:00:00	13:00:00	36	7	277	1800	0.15
9296	ทางลงสุขุมวิท50	13.7015567	100.5907624	exat	working	2022-06-09T00:00:00	13:00:00	14:00:00	34	8	314	1800	0.17
9297	ทางลงสุขุมวิท50	13.7015567	100.5907624	exat	working	2022-06-09T00:00:00	14:00:00	15:00:00	34	8	248	1800	0.14
9298	ทางลงสุขุมวิท50	13.7015567	100.5907624	exat	working	2022-06-09T00:00:00	15:00:00	16:00:00	35	5	271	1800	0.15
9299	ทางลงสุขุมวิท50	13.7015567	100.5907624	exat	working	2022-06-09T00:00:00	16:00:00	17:00:00	21	121	3896	1800	2.16
9300	ทางลงสุขุมวิท50	13.7015567	100.5907624	exat	working	2022-06-09T00:00:00	17:00:00	18:00:00	21	121	369	1800	0.21
9301	ทางลงสุขุมวิท50	13.7015567	100.5907624	exat	working	2022-06-09T00:00:00	18:00:00	19:00:00	37	15	564	1800	0.31
9302	ทางลงสุขุมวิท50	13.7015567	100.5907624	exat	working	2022-08-09T00:00:00	5:00:00	6:00:00	29	37	117	1800	0.07
9303	ทางลงสุขุมวิท50	13.7015567	100.5907624	exat	working	2022-08-09T00:00:00	6:00:00	7:00:00	21	121	372	1800	0.21
9304	ทางลงสุขุมวิท50	13.7015567	100.5907624	exat	working	2022-08-09T00:00:00	7:00:00	8:00:00	21	122	357	1800	0.20
9305	ทางลงสุขุมวิท50	13.7015567	100.5907624	exat	working	2022-08-09T00:00:00	8:00:00	9:00:00	37	11	383	1800	0.21
9306	ทางลงสุขุมวิท50	13.7015567	100.5907624	exat	working	2022-08-09T00:00:00	9:00:00	10:00:00	36	5	267	1800	0.15
9307	ทางลงสุขุมวิท50	13.7015567	100.5907624	exat	working	2022-08-09T00:00:00	10:00:00	11:00:00	36	6	250	1800	0.14
9308	ทางลงสุขุมวิท50	13.7015567	100.5907624	exat	working	2022-08-09T00:00:00	11:00:00	12:00:00	21	121	2420	1800	1.34
9309	ทางลงสุขุมวิท50	13.7015567	100.5907624	exat	working	2022-08-09T00:00:00	12:00:00	13:00:00	34	7	349	1800	0.19
9310	ทางลงสุขุมวิท50	13.7015567	100.5907624	exat	working	2022-08-09T00:00:00	13:00:00	14:00:00	33	8	189	1800	0.11
9311	ทางลงสุขุมวิท50	13.7015567	100.5907624	exat	working	2022-08-09T00:00:00	14:00:00	15:00:00	35	9	271	1800	0.15
9312	ทางลงสุขุมวิท50	13.7015567	100.5907624	exat	working	2022-08-09T00:00:00	15:00:00	16:00:00	32	7	211	1800	0.12
9313	ทางลงสุขุมวิท50	13.7015567	100.5907624	exat	working	2022-08-09T00:00:00	16:00:00	17:00:00	21	121	3896	1800	2.16
9314	ทางลงสุขุมวิท50	13.7015567	100.5907624	exat	working	2022-08-09T00:00:00	17:00:00	18:00:00	21	121	2226	1800	1.24
9315	ทางลงสุขุมวิท50	13.7015567	100.5907624	exat	working	2022-08-09T00:00:00	18:00:00	19:00:00	21	121	2968	1800	1.65
9316	ทางลงสุขุมวิท50	13.7015567	100.5907624	exat	working	2022-09-09T00:00:00	5:00:00	6:00:00	29	38	115	1800	0.06
9317	ทางลงสุขุมวิท50	13.7015567	100.5907624	exat	working	2022-09-09T00:00:00	6:00:00	7:00:00	21	121	368	1800	0.20
9318	ทางลงสุขุมวิท50	13.7015567	100.5907624	exat	working	2022-09-09T00:00:00	7:00:00	8:00:00	21	122	362	1800	0.20
9319	ทางลงสุขุมวิท50	13.7015567	100.5907624	exat	working	2022-09-09T00:00:00	8:00:00	9:00:00	37	11	368	1800	0.20
9320	ทางลงสุขุมวิท50	13.7015567	100.5907624	exat	working	2022-09-09T00:00:00	9:00:00	10:00:00	36	5	266	1800	0.15
9321	ทางลงสุขุมวิท50	13.7015567	100.5907624	exat	working	2022-09-09T00:00:00	10:00:00	11:00:00	36	6	230	1800	0.13
9322	ทางลงสุขุมวิท50	13.7015567	100.5907624	exat	working	2022-09-09T00:00:00	11:00:00	12:00:00	21	121	2405	1800	1.34
9323	ทางลงสุขุมวิท50	13.7015567	100.5907624	exat	working	2022-09-09T00:00:00	12:00:00	13:00:00	34	7	332	1800	0.18
9324	ทางลงสุขุมวิท50	13.7015567	100.5907624	exat	working	2022-09-09T00:00:00	13:00:00	14:00:00	33	8	223	1800	0.12
9325	ทางลงสุขุมวิท50	13.7015567	100.5907624	exat	working	2022-09-09T00:00:00	14:00:00	15:00:00	35	9	287	1800	0.16
9326	ทางลงสุขุมวิท50	13.7015567	100.5907624	exat	working	2022-09-09T00:00:00	15:00:00	16:00:00	32	7	196	1800	0.11
9327	ทางลงสุขุมวิท50	13.7015567	100.5907624	exat	working	2022-09-09T00:00:00	16:00:00	17:00:00	21	121	3869	1800	2.15
9328	ทางลงสุขุมวิท50	13.7015567	100.5907624	exat	working	2022-09-09T00:00:00	17:00:00	18:00:00	21	121	2225	1800	1.24
9329	ทางลงสุขุมวิท50	13.7015567	100.5907624	exat	working	2022-09-09T00:00:00	18:00:00	19:00:00	21	121	2978	1800	1.65
9330	ทางลงสุขุมวิท50	13.7015567	100.5907624	exat	working	2022-10-09T00:00:00	5:00:00	6:00:00	29	39	114	1800	0.06
9331	ทางลงสุขุมวิท50	13.7015567	100.5907624	exat	working	2022-10-09T00:00:00	6:00:00	7:00:00	21	121	356	1800	0.20
9332	ทางลงสุขุมวิท50	13.7015567	100.5907624	exat	working	2022-10-09T00:00:00	7:00:00	8:00:00	21	121	365	1800	0.20
9333	ทางลงสุขุมวิท50	13.7015567	100.5907624	exat	working	2022-10-09T00:00:00	8:00:00	9:00:00	37	11	374	1800	0.21
9334	ทางลงสุขุมวิท50	13.7015567	100.5907624	exat	working	2022-10-09T00:00:00	9:00:00	10:00:00	35	7	318	1800	0.18
9335	ทางลงสุขุมวิท50	13.7015567	100.5907624	exat	working	2022-10-09T00:00:00	10:00:00	11:00:00	36	8	252	1800	0.14
9336	ทางลงสุขุมวิท50	13.7015567	100.5907624	exat	holiday	2022-10-09T00:00:00	11:00:00	12:00:00	21	121	1142	1800	0.63
9337	ทางลงสุขุมวิท50	13.7015567	100.5907624	exat	working	2022-10-09T00:00:00	12:00:00	13:00:00	33	10	292	1800	0.16
9338	ทางลงสุขุมวิท50	13.7015567	100.5907624	exat	working	2022-10-09T00:00:00	13:00:00	14:00:00	33	7	219	1800	0.12
9339	ทางลงสุขุมวิท50	13.7015567	100.5907624	exat	working	2022-10-09T00:00:00	14:00:00	15:00:00	33	8	253	1800	0.14
9340	ทางลงสุขุมวิท50	13.7015567	100.5907624	exat	working	2022-10-09T00:00:00	15:00:00	16:00:00	34	6	225	1800	0.13
9341	ทางลงสุขุมวิท50	13.7015567	100.5907624	exat	working	2022-10-09T00:00:00	16:00:00	17:00:00	21	121	3868	1800	2.15
9342	ทางลงสุขุมวิท50	13.7015567	100.5907624	exat	holiday	2022-10-09T00:00:00	17:00:00	18:00:00	37	27	1103	1800	0.61
9343	ทางลงสุขุมวิท50	13.7015567	100.5907624	exat	holiday	2022-10-09T00:00:00	18:00:00	19:00:00	37	11	359	1800	0.20
9344	ทางลงสุขุมวิท50	13.7015567	100.5907624	exat	working	2022-11-09T00:00:00	5:00:00	6:00:00	29	37	76	1800	0.04
9345	ทางลงสุขุมวิท50	13.7015567	100.5907624	exat	working	2022-11-09T00:00:00	6:00:00	7:00:00	21	121	221	1800	0.12
9346	ทางลงสุขุมวิท50	13.7015567	100.5907624	exat	working	2022-11-09T00:00:00	7:00:00	8:00:00	21	121	221	1800	0.12
9347	ทางลงสุขุมวิท50	13.7015567	100.5907624	exat	working	2022-11-09T00:00:00	8:00:00	9:00:00	22	7	220	1800	0.12
9348	ทางลงสุขุมวิท50	13.7015567	100.5907624	exat	working	2022-11-09T00:00:00	9:00:00	10:00:00	21	121	182	1800	0.10
9349	ทางลงสุขุมวิท50	13.7015567	100.5907624	exat	working	2022-11-09T00:00:00	10:00:00	11:00:00	22	5	154	1800	0.09
9350	ทางลงสุขุมวิท50	13.7015567	100.5907624	exat	holiday	2022-11-09T00:00:00	11:00:00	12:00:00	21	122	656	1800	0.36
9351	ทางลงสุขุมวิท50	13.7015567	100.5907624	exat	working	2022-11-09T00:00:00	12:00:00	13:00:00	20	121	164	1800	0.09
9352	ทางลงสุขุมวิท50	13.7015567	100.5907624	exat	working	2022-11-09T00:00:00	13:00:00	14:00:00	20	121	141	1800	0.08
9353	ทางลงสุขุมวิท50	13.7015567	100.5907624	exat	working	2022-11-09T00:00:00	14:00:00	15:00:00	20	121	165	1800	0.09
9354	ทางลงสุขุมวิท50	13.7015567	100.5907624	exat	working	2022-11-09T00:00:00	15:00:00	16:00:00	20	122	153	1800	0.09
9355	ทางลงสุขุมวิท50	13.7015567	100.5907624	exat	working	2022-11-09T00:00:00	16:00:00	17:00:00	21	121	2310	1800	1.28
9356	ทางลงสุขุมวิท50	13.7015567	100.5907624	exat	holiday	2022-11-09T00:00:00	17:00:00	18:00:00	22	16	657	1800	0.37
9357	ทางลงสุขุมวิท50	13.7015567	100.5907624	exat	holiday	2022-11-09T00:00:00	18:00:00	19:00:00	22	7	226	1800	0.13
9358	ด่านดาวคะนอง	13.6762968	100.4795587	exat	working	2022-05-09T00:00:00	5:00:00	6:00:00	30	38	120	1800	0.07
9359	ด่านดาวคะนอง	13.6762968	100.4795587	exat	working	2022-05-09T00:00:00	6:00:00	7:00:00	21	121	364	1800	0.20
9360	ด่านดาวคะนอง	13.6762968	100.4795587	exat	working	2022-05-09T00:00:00	7:00:00	8:00:00	21	121	2335	1800	1.30
9361	ด่านดาวคะนอง	13.6762968	100.4795587	exat	working	2022-05-09T00:00:00	8:00:00	9:00:00	21	121	1446	1800	0.80
9362	ด่านดาวคะนอง	13.6762968	100.4795587	exat	working	2022-05-09T00:00:00	9:00:00	10:00:00	21	121	1456	1800	0.81
9363	ด่านดาวคะนอง	13.6762968	100.4795587	exat	working	2022-05-09T00:00:00	10:00:00	11:00:00	21	121	1444	1800	0.80
9364	ด่านดาวคะนอง	13.6762968	100.4795587	exat	working	2022-05-09T00:00:00	11:00:00	12:00:00	21	121	1106	1800	0.61
9365	ด่านดาวคะนอง	13.6762968	100.4795587	exat	working	2022-05-09T00:00:00	12:00:00	13:00:00	21	121	1371	1800	0.76
9366	ด่านดาวคะนอง	13.6762968	100.4795587	exat	working	2022-05-09T00:00:00	13:00:00	14:00:00	21	121	1432	1800	0.80
9367	ด่านดาวคะนอง	13.6762968	100.4795587	exat	working	2022-05-09T00:00:00	14:00:00	15:00:00	21	121	1395	1800	0.78
9368	ด่านดาวคะนอง	13.6762968	100.4795587	exat	working	2022-05-09T00:00:00	15:00:00	16:00:00	21	122	1425	1800	0.79
9369	ด่านดาวคะนอง	13.6762968	100.4795587	exat	working	2022-05-09T00:00:00	16:00:00	17:00:00	21	121	1267	1800	0.70
9370	ด่านดาวคะนอง	13.6762968	100.4795587	exat	working	2022-05-09T00:00:00	17:00:00	18:00:00	21	121	1836	1800	1.02
9371	ด่านดาวคะนอง	13.6762968	100.4795587	exat	working	2022-05-09T00:00:00	18:00:00	19:00:00	14	121	907	1800	0.50
9372	ด่านดาวคะนอง	13.6762968	100.4795587	exat	working	2022-06-09T00:00:00	5:00:00	6:00:00	29	38	114	1800	0.06
9373	ด่านดาวคะนอง	13.6762968	100.4795587	exat	working	2022-06-09T00:00:00	6:00:00	7:00:00	21	121	342	1800	0.19
9374	ด่านดาวคะนอง	13.6762968	100.4795587	exat	working	2022-06-09T00:00:00	7:00:00	8:00:00	23	93	1740	1800	0.97
9375	ด่านดาวคะนอง	13.6762968	100.4795587	exat	working	2022-06-09T00:00:00	8:00:00	9:00:00	21	121	1273	1800	0.71
9376	ด่านดาวคะนอง	13.6762968	100.4795587	exat	working	2022-06-09T00:00:00	9:00:00	10:00:00	21	121	1204	1800	0.67
9377	ด่านดาวคะนอง	13.6762968	100.4795587	exat	working	2022-06-09T00:00:00	10:00:00	11:00:00	21	121	1264	1800	0.70
9378	ด่านดาวคะนอง	13.6762968	100.4795587	exat	working	2022-06-09T00:00:00	11:00:00	12:00:00	21	121	905	1800	0.50
9379	ด่านดาวคะนอง	13.6762968	100.4795587	exat	working	2022-06-09T00:00:00	12:00:00	13:00:00	21	121	1179	1800	0.66
9380	ด่านดาวคะนอง	13.6762968	100.4795587	exat	working	2022-06-09T00:00:00	13:00:00	14:00:00	21	121	1228	1800	0.68
9381	ด่านดาวคะนอง	13.6762968	100.4795587	exat	working	2022-06-09T00:00:00	14:00:00	15:00:00	21	121	1204	1800	0.67
9382	ด่านดาวคะนอง	13.6762968	100.4795587	exat	working	2022-06-09T00:00:00	15:00:00	16:00:00	21	121	1195	1800	0.66
9383	ด่านดาวคะนอง	13.6762968	100.4795587	exat	working	2022-06-09T00:00:00	16:00:00	17:00:00	21	121	1378	1800	0.77
9384	ด่านดาวคะนอง	13.6762968	100.4795587	exat	working	2022-06-09T00:00:00	17:00:00	18:00:00	21	121	1626	1800	0.90
9385	ด่านดาวคะนอง	13.6762968	100.4795587	exat	working	2022-06-09T00:00:00	18:00:00	19:00:00	7	121	1286	1800	0.71
9386	ด่านดาวคะนอง	13.6762968	100.4795587	exat	working	2022-07-09T00:00:00	5:00:00	6:00:00	29	38	121	1800	0.07
9387	ด่านดาวคะนอง	13.6762968	100.4795587	exat	working	2022-07-09T00:00:00	6:00:00	7:00:00	21	122	375	1800	0.21
9388	ด่านดาวคะนอง	13.6762968	100.4795587	exat	working	2022-07-09T00:00:00	7:00:00	8:00:00	46	60	1100	1800	0.61
9389	ด่านดาวคะนอง	13.6762968	100.4795587	exat	working	2022-07-09T00:00:00	8:00:00	9:00:00	21	121	1102	1800	0.61
9390	ด่านดาวคะนอง	13.6762968	100.4795587	exat	working	2022-07-09T00:00:00	9:00:00	10:00:00	21	121	990	1800	0.55
9391	ด่านดาวคะนอง	13.6762968	100.4795587	exat	working	2022-07-09T00:00:00	10:00:00	11:00:00	21	122	1095	1800	0.61
9392	ด่านดาวคะนอง	13.6762968	100.4795587	exat	working	2022-07-09T00:00:00	11:00:00	12:00:00	21	121	714	1800	0.40
9393	ด่านดาวคะนอง	13.6762968	100.4795587	exat	working	2022-07-09T00:00:00	12:00:00	13:00:00	21	121	990	1800	0.55
9394	ด่านดาวคะนอง	13.6762968	100.4795587	exat	working	2022-07-09T00:00:00	13:00:00	14:00:00	21	121	982	1800	0.55
9395	ด่านดาวคะนอง	13.6762968	100.4795587	exat	working	2022-07-09T00:00:00	14:00:00	15:00:00	21	121	987	1800	0.55
9396	ด่านดาวคะนอง	13.6762968	100.4795587	exat	working	2022-07-09T00:00:00	15:00:00	16:00:00	21	121	955	1800	0.53
9397	ด่านดาวคะนอง	13.6762968	100.4795587	exat	working	2022-07-09T00:00:00	16:00:00	17:00:00	21	121	1469	1800	0.82
9398	ด่านดาวคะนอง	13.6762968	100.4795587	exat	working	2022-07-09T00:00:00	17:00:00	18:00:00	21	121	1450	1800	0.81
9399	ด่านดาวคะนอง	13.6762968	100.4795587	exat	working	2022-07-09T00:00:00	18:00:00	19:00:00	21	121	1641	1800	0.91
9400	ด่านดาวคะนอง	13.6762968	100.4795587	exat	working	2022-08-09T00:00:00	5:00:00	6:00:00	30	43	113	1800	0.06
9401	ด่านดาวคะนอง	13.6762968	100.4795587	exat	working	2022-08-09T00:00:00	6:00:00	7:00:00	21	121	351	1800	0.20
9402	ด่านดาวคะนอง	13.6762968	100.4795587	exat	working	2022-08-09T00:00:00	7:00:00	8:00:00	23	58	718	1800	0.40
9403	ด่านดาวคะนอง	13.6762968	100.4795587	exat	working	2022-08-09T00:00:00	8:00:00	9:00:00	21	121	1090	1800	0.61
9404	ด่านดาวคะนอง	13.6762968	100.4795587	exat	working	2022-08-09T00:00:00	9:00:00	10:00:00	21	121	982	1800	0.55
9405	ด่านดาวคะนอง	13.6762968	100.4795587	exat	working	2022-08-09T00:00:00	10:00:00	11:00:00	21	121	999	1800	0.56
9406	ด่านดาวคะนอง	13.6762968	100.4795587	exat	working	2022-08-09T00:00:00	11:00:00	12:00:00	21	121	731	1800	0.41
9407	ด่านดาวคะนอง	13.6762968	100.4795587	exat	working	2022-08-09T00:00:00	12:00:00	13:00:00	21	121	1022	1800	0.57
9408	ด่านดาวคะนอง	13.6762968	100.4795587	exat	working	2022-08-09T00:00:00	13:00:00	14:00:00	21	121	973	1800	0.54
9409	ด่านดาวคะนอง	13.6762968	100.4795587	exat	working	2022-08-09T00:00:00	14:00:00	15:00:00	21	121	983	1800	0.55
9410	ด่านดาวคะนอง	13.6762968	100.4795587	exat	working	2022-08-09T00:00:00	15:00:00	16:00:00	21	122	1004	1800	0.56
9411	ด่านดาวคะนอง	13.6762968	100.4795587	exat	working	2022-08-09T00:00:00	16:00:00	17:00:00	27	104	1169	1800	0.65
9412	ด่านดาวคะนอง	13.6762968	100.4795587	exat	working	2022-08-09T00:00:00	17:00:00	18:00:00	21	121	1179	1800	0.66
9413	ด่านดาวคะนอง	13.6762968	100.4795587	exat	working	2022-08-09T00:00:00	18:00:00	19:00:00	21	121	1175	1800	0.65
9414	ด่านดาวคะนอง	13.6762968	100.4795587	exat	working	2022-09-09T00:00:00	5:00:00	6:00:00	29	42	109	1800	0.06
9415	ด่านดาวคะนอง	13.6762968	100.4795587	exat	working	2022-09-09T00:00:00	6:00:00	7:00:00	21	121	365	1800	0.20
9416	ด่านดาวคะนอง	13.6762968	100.4795587	exat	working	2022-09-09T00:00:00	7:00:00	8:00:00	21	121	382	1800	0.21
9417	ด่านดาวคะนอง	13.6762968	100.4795587	exat	working	2022-09-09T00:00:00	8:00:00	9:00:00	21	121	1071	1800	0.60
9418	ด่านดาวคะนอง	13.6762968	100.4795587	exat	working	2022-09-09T00:00:00	9:00:00	10:00:00	21	121	967	1800	0.54
9419	ด่านดาวคะนอง	13.6762968	100.4795587	exat	working	2022-09-09T00:00:00	10:00:00	11:00:00	21	121	953	1800	0.53
9420	ด่านดาวคะนอง	13.6762968	100.4795587	exat	working	2022-09-09T00:00:00	11:00:00	12:00:00	21	121	727	1800	0.40
9421	ด่านดาวคะนอง	13.6762968	100.4795587	exat	working	2022-09-09T00:00:00	12:00:00	13:00:00	21	122	1018	1800	0.57
9422	ด่านดาวคะนอง	13.6762968	100.4795587	exat	working	2022-09-09T00:00:00	13:00:00	14:00:00	21	121	976	1800	0.54
9423	ด่านดาวคะนอง	13.6762968	100.4795587	exat	working	2022-09-09T00:00:00	14:00:00	15:00:00	21	121	1004	1800	0.56
9424	ด่านดาวคะนอง	13.6762968	100.4795587	exat	working	2022-09-09T00:00:00	15:00:00	16:00:00	21	121	1053	1800	0.59
9425	ด่านดาวคะนอง	13.6762968	100.4795587	exat	working	2022-09-09T00:00:00	16:00:00	17:00:00	54	148	913	1800	0.51
9426	ด่านดาวคะนอง	13.6762968	100.4795587	exat	working	2022-09-09T00:00:00	17:00:00	18:00:00	21	122	919	1800	0.51
9427	ด่านดาวคะนอง	13.6762968	100.4795587	exat	working	2022-09-09T00:00:00	18:00:00	19:00:00	21	121	736	1800	0.41
9428	ด่านดาวคะนอง	13.6762968	100.4795587	exat	working	2022-10-09T00:00:00	5:00:00	6:00:00	39	18	132	1800	0.07
9429	ด่านดาวคะนอง	13.6762968	100.4795587	exat	holiday	2022-10-09T00:00:00	6:00:00	7:00:00	28	56	381	1800	0.21
9430	ด่านดาวคะนอง	13.6762968	100.4795587	exat	holiday	2022-10-09T00:00:00	7:00:00	8:00:00	21	121	889	1800	0.49
9431	ด่านดาวคะนอง	13.6762968	100.4795587	exat	holiday	2022-10-09T00:00:00	8:00:00	9:00:00	34	132	1105	1800	0.61
9432	ด่านดาวคะนอง	13.6762968	100.4795587	exat	working	2022-10-09T00:00:00	9:00:00	10:00:00	31	129	937	1800	0.52
9433	ด่านดาวคะนอง	13.6762968	100.4795587	exat	working	2022-10-09T00:00:00	10:00:00	11:00:00	33	126	998	1800	0.55
9434	ด่านดาวคะนอง	13.6762968	100.4795587	exat	holiday	2022-10-09T00:00:00	11:00:00	12:00:00	21	122	1289	1800	0.72
9435	ด่านดาวคะนอง	13.6762968	100.4795587	exat	working	2022-10-09T00:00:00	12:00:00	13:00:00	30	128	1024	1800	0.57
9436	ด่านดาวคะนอง	13.6762968	100.4795587	exat	working	2022-10-09T00:00:00	13:00:00	14:00:00	28	131	1027	1800	0.57
9437	ด่านดาวคะนอง	13.6762968	100.4795587	exat	working	2022-10-09T00:00:00	14:00:00	15:00:00	29	129	1007	1800	0.56
9438	ด่านดาวคะนอง	13.6762968	100.4795587	exat	working	2022-10-09T00:00:00	15:00:00	16:00:00	31	132	955	1800	0.53
9439	ด่านดาวคะนอง	13.6762968	100.4795587	exat	holiday	2022-10-09T00:00:00	16:00:00	17:00:00	53	75	1278	1800	0.71
9440	ด่านดาวคะนอง	13.6762968	100.4795587	exat	holiday	2022-10-09T00:00:00	17:00:00	18:00:00	65	61	1071	1800	0.60
9441	ด่านดาวคะนอง	13.6762968	100.4795587	exat	holiday	2022-10-09T00:00:00	18:00:00	19:00:00	21	121	2157	1800	1.20
9442	ด่านดาวคะนอง	13.6762968	100.4795587	exat	working	2022-11-09T00:00:00	5:00:00	6:00:00	23	37	78	1800	0.04
9443	ด่านดาวคะนอง	13.6762968	100.4795587	exat	holiday	2022-11-09T00:00:00	6:00:00	7:00:00	17	121	233	1800	0.13
9444	ด่านดาวคะนอง	13.6762968	100.4795587	exat	holiday	2022-11-09T00:00:00	7:00:00	8:00:00	21	122	546	1800	0.30
9445	ด่านดาวคะนอง	13.6762968	100.4795587	exat	holiday	2022-11-09T00:00:00	8:00:00	9:00:00	20	121	653	1800	0.36
9446	ด่านดาวคะนอง	13.6762968	100.4795587	exat	working	2022-11-09T00:00:00	9:00:00	10:00:00	19	122	566	1800	0.31
9447	ด่านดาวคะนอง	13.6762968	100.4795587	exat	working	2022-11-09T00:00:00	10:00:00	11:00:00	20	121	581	1800	0.32
9448	ด่านดาวคะนอง	13.6762968	100.4795587	exat	holiday	2022-11-09T00:00:00	11:00:00	12:00:00	21	121	766	1800	0.43
9449	ด่านดาวคะนอง	13.6762968	100.4795587	exat	working	2022-11-09T00:00:00	12:00:00	13:00:00	18	122	625	1800	0.35
9450	ด่านดาวคะนอง	13.6762968	100.4795587	exat	working	2022-11-09T00:00:00	13:00:00	14:00:00	17	121	606	1800	0.34
9451	ด่านดาวคะนอง	13.6762968	100.4795587	exat	working	2022-11-09T00:00:00	14:00:00	15:00:00	17	121	616	1800	0.34
9452	ด่านดาวคะนอง	13.6762968	100.4795587	exat	working	2022-11-09T00:00:00	15:00:00	16:00:00	19	121	581	1800	0.32
9453	ด่านดาวคะนอง	13.6762968	100.4795587	exat	holiday	2022-11-09T00:00:00	16:00:00	17:00:00	32	45	761	1800	0.42
9454	ด่านดาวคะนอง	13.6762968	100.4795587	exat	holiday	2022-11-09T00:00:00	17:00:00	18:00:00	39	37	653	1800	0.36
9455	ด่านดาวคะนอง	13.6762968	100.4795587	exat	holiday	2022-11-09T00:00:00	18:00:00	19:00:00	21	121	1309	1800	0.73
9456	สะพานพระราม9	13.6848056	100.5194778	exat	working	2022-05-09T00:00:00	5:00:00	6:00:00	51	12	624	2700	0.23
9457	สะพานพระราม9	13.6848056	100.5194778	exat	working	2022-05-09T00:00:00	6:00:00	7:00:00	37	39	2034	2700	0.75
9458	สะพานพระราม9	13.6848056	100.5194778	exat	working	2022-05-09T00:00:00	7:00:00	8:00:00	37	46	3679	2700	1.36
9459	สะพานพระราม9	13.6848056	100.5194778	exat	working	2022-05-09T00:00:00	8:00:00	9:00:00	37	28	3161	2700	1.17
9460	สะพานพระราม9	13.6848056	100.5194778	exat	working	2022-05-09T00:00:00	9:00:00	10:00:00	35	23	3048	2700	1.13
9461	สะพานพระราม9	13.6848056	100.5194778	exat	working	2022-05-09T00:00:00	10:00:00	11:00:00	32	22	3019	2700	1.12
9462	สะพานพระราม9	13.6848056	100.5194778	exat	working	2022-05-09T00:00:00	11:00:00	12:00:00	36	56	3689	2700	1.37
9463	สะพานพระราม9	13.6848056	100.5194778	exat	working	2022-05-09T00:00:00	12:00:00	13:00:00	33	24	3009	2700	1.11
9464	สะพานพระราม9	13.6848056	100.5194778	exat	working	2022-05-09T00:00:00	13:00:00	14:00:00	32	24	3042	2700	1.13
9465	สะพานพระราม9	13.6848056	100.5194778	exat	working	2022-05-09T00:00:00	14:00:00	15:00:00	32	28	3066	2700	1.14
9466	สะพานพระราม9	13.6848056	100.5194778	exat	working	2022-05-09T00:00:00	15:00:00	16:00:00	35	26	3131	2700	1.16
9467	สะพานพระราม9	13.6848056	100.5194778	exat	working	2022-05-09T00:00:00	16:00:00	17:00:00	37	26	1478	2700	0.55
9468	สะพานพระราม9	13.6848056	100.5194778	exat	working	2022-05-09T00:00:00	17:00:00	18:00:00	37	36	738	2700	0.27
9469	สะพานพระราม9	13.6848056	100.5194778	exat	working	2022-05-09T00:00:00	18:00:00	19:00:00	37	13	1106	2700	0.41
9470	สะพานพระราม9	13.6848056	100.5194778	exat	working	2022-06-09T00:00:00	5:00:00	6:00:00	53	10	488	2700	0.18
9471	สะพานพระราม9	13.6848056	100.5194778	exat	working	2022-06-09T00:00:00	6:00:00	7:00:00	37	28	1407	2700	0.52
9472	สะพานพระราม9	13.6848056	100.5194778	exat	working	2022-06-09T00:00:00	7:00:00	8:00:00	36	34	2858	2700	1.06
9473	สะพานพระราม9	13.6848056	100.5194778	exat	working	2022-06-09T00:00:00	8:00:00	9:00:00	37	26	2606	2700	0.97
9474	สะพานพระราม9	13.6848056	100.5194778	exat	working	2022-06-09T00:00:00	9:00:00	10:00:00	34	22	2520	2700	0.93
9475	สะพานพระราม9	13.6848056	100.5194778	exat	working	2022-06-09T00:00:00	10:00:00	11:00:00	34	22	2486	2700	0.92
9476	สะพานพระราม9	13.6848056	100.5194778	exat	working	2022-06-09T00:00:00	11:00:00	12:00:00	35	73	3967	2700	1.47
9477	สะพานพระราม9	13.6848056	100.5194778	exat	working	2022-06-09T00:00:00	12:00:00	13:00:00	34	24	2527	2700	0.94
9478	สะพานพระราม9	13.6848056	100.5194778	exat	working	2022-06-09T00:00:00	13:00:00	14:00:00	34	23	2515	2700	0.93
9479	สะพานพระราม9	13.6848056	100.5194778	exat	working	2022-06-09T00:00:00	14:00:00	15:00:00	33	24	2505	2700	0.93
9480	สะพานพระราม9	13.6848056	100.5194778	exat	working	2022-06-09T00:00:00	15:00:00	16:00:00	35	24	2601	2700	0.96
9481	สะพานพระราม9	13.6848056	100.5194778	exat	working	2022-06-09T00:00:00	16:00:00	17:00:00	36	34	1677	2700	0.62
9482	สะพานพระราม9	13.6848056	100.5194778	exat	working	2022-06-09T00:00:00	17:00:00	18:00:00	37	40	555	2700	0.21
9483	สะพานพระราม9	13.6848056	100.5194778	exat	working	2022-06-09T00:00:00	18:00:00	19:00:00	37	26	1452	2700	0.54
9484	สะพานพระราม9	13.6848056	100.5194778	exat	working	2022-07-09T00:00:00	5:00:00	6:00:00	53	6	234	2700	0.09
9485	สะพานพระราม9	13.6848056	100.5194778	exat	working	2022-07-09T00:00:00	6:00:00	7:00:00	37	17	738	2700	0.27
9486	สะพานพระราม9	13.6848056	100.5194778	exat	working	2022-07-09T00:00:00	7:00:00	8:00:00	35	22	2029	2700	0.75
9487	สะพานพระราม9	13.6848056	100.5194778	exat	working	2022-07-09T00:00:00	8:00:00	9:00:00	37	25	2027	2700	0.75
9488	สะพานพระราม9	13.6848056	100.5194778	exat	working	2022-07-09T00:00:00	9:00:00	10:00:00	32	21	2011	2700	0.74
9489	สะพานพระราม9	13.6848056	100.5194778	exat	working	2022-07-09T00:00:00	10:00:00	11:00:00	37	21	1944	2700	0.72
9490	สะพานพระราม9	13.6848056	100.5194778	exat	working	2022-07-09T00:00:00	11:00:00	12:00:00	34	90	4261	2700	1.58
9491	สะพานพระราม9	13.6848056	100.5194778	exat	working	2022-07-09T00:00:00	12:00:00	13:00:00	36	25	2038	2700	0.75
9492	สะพานพระราม9	13.6848056	100.5194778	exat	working	2022-07-09T00:00:00	13:00:00	14:00:00	35	21	2003	2700	0.74
9493	สะพานพระราม9	13.6848056	100.5194778	exat	working	2022-07-09T00:00:00	14:00:00	15:00:00	35	21	1949	2700	0.72
9494	สะพานพระราม9	13.6848056	100.5194778	exat	working	2022-07-09T00:00:00	15:00:00	16:00:00	35	23	2030	2700	0.75
9495	สะพานพระราม9	13.6848056	100.5194778	exat	working	2022-07-09T00:00:00	16:00:00	17:00:00	36	42	1828	2700	0.68
9496	สะพานพระราม9	13.6848056	100.5194778	exat	working	2022-07-09T00:00:00	17:00:00	18:00:00	37	43	368	2700	0.14
9497	สะพานพระราม9	13.6848056	100.5194778	exat	working	2022-07-09T00:00:00	18:00:00	19:00:00	37	39	1827	2700	0.68
9498	สะพานพระราม9	13.6848056	100.5194778	exat	working	2022-08-09T00:00:00	5:00:00	6:00:00	44	13	328	2700	0.12
9499	สะพานพระราม9	13.6848056	100.5194778	exat	working	2022-08-09T00:00:00	6:00:00	7:00:00	31	37	1039	2700	0.38
9500	สะพานพระราม9	13.6848056	100.5194778	exat	working	2022-08-09T00:00:00	7:00:00	8:00:00	26	35	3193	2700	1.18
9501	สะพานพระราม9	13.6848056	100.5194778	exat	working	2022-08-09T00:00:00	8:00:00	9:00:00	30	39	3117	2700	1.15
9502	สะพานพระราม9	13.6848056	100.5194778	exat	working	2022-08-09T00:00:00	9:00:00	10:00:00	26	34	3004	2700	1.11
9503	สะพานพระราม9	13.6848056	100.5194778	exat	working	2022-08-09T00:00:00	10:00:00	11:00:00	29	35	3087	2700	1.14
9504	สะพานพระราม9	13.6848056	100.5194778	exat	working	2022-08-09T00:00:00	11:00:00	12:00:00	26	111	4817	2700	1.78
9505	สะพานพระราม9	13.6848056	100.5194778	exat	working	2022-08-09T00:00:00	12:00:00	13:00:00	27	38	3110	2700	1.15
9506	สะพานพระราม9	13.6848056	100.5194778	exat	working	2022-08-09T00:00:00	13:00:00	14:00:00	29	36	3096	2700	1.15
9507	สะพานพระราม9	13.6848056	100.5194778	exat	working	2022-08-09T00:00:00	14:00:00	15:00:00	27	37	3070	2700	1.14
9508	สะพานพระราม9	13.6848056	100.5194778	exat	working	2022-08-09T00:00:00	15:00:00	16:00:00	29	37	3124	2700	1.16
9509	สะพานพระราม9	13.6848056	100.5194778	exat	working	2022-08-09T00:00:00	16:00:00	17:00:00	26	87	3591	2700	1.33
9510	สะพานพระราม9	13.6848056	100.5194778	exat	working	2022-08-09T00:00:00	17:00:00	18:00:00	28	87	3494	2700	1.29
9511	สะพานพระราม9	13.6848056	100.5194778	exat	working	2022-08-09T00:00:00	18:00:00	19:00:00	29	76	4108	2700	1.52
9512	สะพานพระราม9	13.6848056	100.5194778	exat	working	2022-09-09T00:00:00	5:00:00	6:00:00	35	20	437	2700	0.16
9513	สะพานพระราม9	13.6848056	100.5194778	exat	working	2022-09-09T00:00:00	6:00:00	7:00:00	25	57	1293	2700	0.48
9514	สะพานพระราม9	13.6848056	100.5194778	exat	working	2022-09-09T00:00:00	7:00:00	8:00:00	17	121	4198	2700	1.55
9515	สะพานพระราม9	13.6848056	100.5194778	exat	working	2022-09-09T00:00:00	8:00:00	9:00:00	24	54	4208	2700	1.56
9516	สะพานพระราม9	13.6848056	100.5194778	exat	working	2022-09-09T00:00:00	9:00:00	10:00:00	20	121	4120	2700	1.53
9517	สะพานพระราม9	13.6848056	100.5194778	exat	working	2022-09-09T00:00:00	10:00:00	11:00:00	22	49	4223	2700	1.56
9518	สะพานพระราม9	13.6848056	100.5194778	exat	working	2022-09-09T00:00:00	11:00:00	12:00:00	17	121	5338	2700	1.98
9519	สะพานพระราม9	13.6848056	100.5194778	exat	working	2022-09-09T00:00:00	12:00:00	13:00:00	19	121	4062	2700	1.50
9520	สะพานพระราม9	13.6848056	100.5194778	exat	working	2022-09-09T00:00:00	13:00:00	14:00:00	23	50	4181	2700	1.55
9521	สะพานพระราม9	13.6848056	100.5194778	exat	working	2022-09-09T00:00:00	14:00:00	15:00:00	19	121	4145	2700	1.54
9522	สะพานพระราม9	13.6848056	100.5194778	exat	working	2022-09-09T00:00:00	15:00:00	16:00:00	23	51	4147	2700	1.54
9523	สะพานพระราม9	13.6848056	100.5194778	exat	working	2022-09-09T00:00:00	16:00:00	17:00:00	17	121	5337	2700	1.98
9524	สะพานพระราม9	13.6848056	100.5194778	exat	working	2022-09-09T00:00:00	17:00:00	18:00:00	20	121	6673	2700	2.47
9525	สะพานพระราม9	13.6848056	100.5194778	exat	working	2022-09-09T00:00:00	18:00:00	19:00:00	21	121	6417	2700	2.38
9526	สะพานพระราม9	13.6848056	100.5194778	exat	working	2022-10-09T00:00:00	5:00:00	6:00:00	22	40	303	2700	0.11
9527	สะพานพระราม9	13.6848056	100.5194778	exat	holiday	2022-10-09T00:00:00	6:00:00	7:00:00	16	121	932	2700	0.35
9528	สะพานพระราม9	13.6848056	100.5194778	exat	holiday	2022-10-09T00:00:00	7:00:00	8:00:00	25	62	2958	2700	1.10
9529	สะพานพระราม9	13.6848056	100.5194778	exat	holiday	2022-10-09T00:00:00	8:00:00	9:00:00	21	121	3691	2700	1.37
9530	สะพานพระราม9	13.6848056	100.5194778	exat	working	2022-10-09T00:00:00	9:00:00	10:00:00	18	122	3591	2700	1.33
9531	สะพานพระราม9	13.6848056	100.5194778	exat	working	2022-10-09T00:00:00	10:00:00	11:00:00	16	121	3558	2700	1.32
9532	สะพานพระราม9	13.6848056	100.5194778	exat	holiday	2022-10-09T00:00:00	11:00:00	12:00:00	21	122	4643	2700	1.72
9533	สะพานพระราม9	13.6848056	100.5194778	exat	working	2022-10-09T00:00:00	12:00:00	13:00:00	20	121	3620	2700	1.34
9534	สะพานพระราม9	13.6848056	100.5194778	exat	working	2022-10-09T00:00:00	13:00:00	14:00:00	19	121	3587	2700	1.33
9535	สะพานพระราม9	13.6848056	100.5194778	exat	working	2022-10-09T00:00:00	14:00:00	15:00:00	17	121	3534	2700	1.31
9536	สะพานพระราม9	13.6848056	100.5194778	exat	working	2022-10-09T00:00:00	15:00:00	16:00:00	19	122	3608	2700	1.34
9537	สะพานพระราม9	13.6848056	100.5194778	exat	holiday	2022-10-09T00:00:00	16:00:00	17:00:00	21	121	6248	2700	2.31
9538	สะพานพระราม9	13.6848056	100.5194778	exat	holiday	2022-10-09T00:00:00	17:00:00	18:00:00	20	122	5902	2700	2.19
9539	สะพานพระราม9	13.6848056	100.5194778	exat	holiday	2022-10-09T00:00:00	18:00:00	19:00:00	25	44	3331	2700	1.23
9540	สะพานพระราม9	13.6848056	100.5194778	exat	working	2022-11-09T00:00:00	5:00:00	6:00:00	14	40	187	2700	0.07
9541	สะพานพระราม9	13.6848056	100.5194778	exat	holiday	2022-11-09T00:00:00	6:00:00	7:00:00	10	121	548	2700	0.20
9542	สะพานพระราม9	13.6848056	100.5194778	exat	holiday	2022-11-09T00:00:00	7:00:00	8:00:00	15	121	1775	2700	0.66
9543	สะพานพระราม9	13.6848056	100.5194778	exat	holiday	2022-11-09T00:00:00	8:00:00	9:00:00	13	121	2224	2700	0.82
9544	สะพานพระราม9	13.6848056	100.5194778	exat	working	2022-11-09T00:00:00	9:00:00	10:00:00	11	121	2126	2700	0.79
9545	สะพานพระราม9	13.6848056	100.5194778	exat	working	2022-11-09T00:00:00	10:00:00	11:00:00	10	121	2139	2700	0.79
9546	สะพานพระราม9	13.6848056	100.5194778	exat	holiday	2022-11-09T00:00:00	11:00:00	12:00:00	13	121	2780	2700	1.03
9547	สะพานพระราม9	13.6848056	100.5194778	exat	working	2022-11-09T00:00:00	12:00:00	13:00:00	12	121	2173	2700	0.80
9548	สะพานพระราม9	13.6848056	100.5194778	exat	working	2022-11-09T00:00:00	13:00:00	14:00:00	12	121	2142	2700	0.79
9549	สะพานพระราม9	13.6848056	100.5194778	exat	working	2022-11-09T00:00:00	14:00:00	15:00:00	10	121	2121	2700	0.79
9550	สะพานพระราม9	13.6848056	100.5194778	exat	working	2022-11-09T00:00:00	15:00:00	16:00:00	11	121	2159	2700	0.80
9551	สะพานพระราม9	13.6848056	100.5194778	exat	holiday	2022-11-09T00:00:00	16:00:00	17:00:00	13	121	3752	2700	1.39
9552	สะพานพระราม9	13.6848056	100.5194778	exat	holiday	2022-11-09T00:00:00	17:00:00	18:00:00	12	121	3578	2700	1.33
9553	สะพานพระราม9	13.6848056	100.5194778	exat	holiday	2022-11-09T00:00:00	18:00:00	19:00:00	15	121	1989	2700	0.74
9554	พระราม3	13.6899218	100.5234974	exat	working	2022-05-09T00:00:00	5:00:00	6:00:00	128	18	1297	2700	0.48
9555	พระราม3	13.6899218	100.5234974	exat	working	2022-05-09T00:00:00	6:00:00	7:00:00	91	50	4168	2700	1.54
9556	พระราม3	13.6899218	100.5234974	exat	working	2022-05-09T00:00:00	7:00:00	8:00:00	91	61	5469	2700	2.03
9557	พระราม3	13.6899218	100.5234974	exat	working	2022-05-09T00:00:00	8:00:00	9:00:00	88	75	6181	2700	2.29
9558	พระราม3	13.6899218	100.5234974	exat	working	2022-05-09T00:00:00	9:00:00	10:00:00	84	72	6004	2700	2.22
9559	พระราม3	13.6899218	100.5234974	exat	working	2022-05-09T00:00:00	10:00:00	11:00:00	87	70	6104	2700	2.26
9560	พระราม3	13.6899218	100.5234974	exat	working	2022-05-09T00:00:00	11:00:00	12:00:00	45	110	6367	2700	2.36
9561	พระราม3	13.6899218	100.5234974	exat	working	2022-05-09T00:00:00	12:00:00	13:00:00	86	70	6207	2700	2.30
9562	พระราม3	13.6899218	100.5234974	exat	working	2022-05-09T00:00:00	13:00:00	14:00:00	85	70	6126	2700	2.27
9563	พระราม3	13.6899218	100.5234974	exat	working	2022-05-09T00:00:00	14:00:00	15:00:00	87	72	6194	2700	2.29
9564	พระราม3	13.6899218	100.5234974	exat	working	2022-05-09T00:00:00	15:00:00	16:00:00	85	74	6059	2700	2.24
9565	พระราม3	13.6899218	100.5234974	exat	working	2022-05-09T00:00:00	16:00:00	17:00:00	51	106	4909	2700	1.82
9566	พระราม3	13.6899218	100.5234974	exat	working	2022-05-09T00:00:00	17:00:00	18:00:00	54	115	3645	2700	1.35
9567	พระราม3	13.6899218	100.5234974	exat	working	2022-05-09T00:00:00	18:00:00	19:00:00	57	114	5422	2700	2.01
9568	พระราม3	13.6899218	100.5234974	exat	working	2022-06-09T00:00:00	5:00:00	6:00:00	127	14	1172	2700	0.43
9569	พระราม3	13.6899218	100.5234974	exat	working	2022-06-09T00:00:00	6:00:00	7:00:00	91	43	3452	2700	1.28
9570	พระราม3	13.6899218	100.5234974	exat	working	2022-06-09T00:00:00	7:00:00	8:00:00	91	48	3556	2700	1.32
9571	พระราม3	13.6899218	100.5234974	exat	working	2022-06-09T00:00:00	8:00:00	9:00:00	89	56	3806	2700	1.41
9572	พระราม3	13.6899218	100.5234974	exat	working	2022-06-09T00:00:00	9:00:00	10:00:00	87	52	3673	2700	1.36
9573	พระราม3	13.6899218	100.5234974	exat	working	2022-06-09T00:00:00	10:00:00	11:00:00	88	52	3759	2700	1.39
9574	พระราม3	13.6899218	100.5234974	exat	working	2022-06-09T00:00:00	11:00:00	12:00:00	51	117	6249	2700	2.31
9575	พระราม3	13.6899218	100.5234974	exat	working	2022-06-09T00:00:00	12:00:00	13:00:00	86	53	3780	2700	1.40
9576	พระราม3	13.6899218	100.5234974	exat	working	2022-06-09T00:00:00	13:00:00	14:00:00	85	51	3756	2700	1.39
9577	พระราม3	13.6899218	100.5234974	exat	working	2022-06-09T00:00:00	14:00:00	15:00:00	88	53	3848	2700	1.43
9578	พระราม3	13.6899218	100.5234974	exat	working	2022-06-09T00:00:00	15:00:00	16:00:00	87	55	3773	2700	1.40
9579	พระราม3	13.6899218	100.5234974	exat	working	2022-06-09T00:00:00	16:00:00	17:00:00	57	107	4832	2700	1.79
9580	พระราม3	13.6899218	100.5234974	exat	working	2022-06-09T00:00:00	17:00:00	18:00:00	51	95	3636	2700	1.35
9581	พระราม3	13.6899218	100.5234974	exat	working	2022-06-09T00:00:00	18:00:00	19:00:00	58	80	3996	2700	1.48
9582	พระราม3	13.6899218	100.5234974	exat	working	2022-07-09T00:00:00	5:00:00	6:00:00	129	11	858	2700	0.32
9583	พระราม3	13.6899218	100.5234974	exat	working	2022-07-09T00:00:00	6:00:00	7:00:00	91	36	2749	2700	1.02
9584	พระราม3	13.6899218	100.5234974	exat	working	2022-07-09T00:00:00	7:00:00	8:00:00	91	34	1671	2700	0.62
9585	พระราม3	13.6899218	100.5234974	exat	working	2022-07-09T00:00:00	8:00:00	9:00:00	91	37	1446	2700	0.54
9586	พระราม3	13.6899218	100.5234974	exat	working	2022-07-09T00:00:00	9:00:00	10:00:00	90	33	1367	2700	0.51
9587	พระราม3	13.6899218	100.5234974	exat	working	2022-07-09T00:00:00	10:00:00	11:00:00	89	34	1343	2700	0.50
9588	พระราม3	13.6899218	100.5234974	exat	working	2022-07-09T00:00:00	11:00:00	12:00:00	57	124	6186	2700	2.29
9589	พระราม3	13.6899218	100.5234974	exat	working	2022-07-09T00:00:00	12:00:00	13:00:00	86	36	1372	2700	0.51
9590	พระราม3	13.6899218	100.5234974	exat	working	2022-07-09T00:00:00	13:00:00	14:00:00	86	33	1410	2700	0.52
9591	พระราม3	13.6899218	100.5234974	exat	working	2022-07-09T00:00:00	14:00:00	15:00:00	90	33	1477	2700	0.55
9592	พระราม3	13.6899218	100.5234974	exat	working	2022-07-09T00:00:00	15:00:00	16:00:00	89	37	1460	2700	0.54
9593	พระราม3	13.6899218	100.5234974	exat	working	2022-07-09T00:00:00	16:00:00	17:00:00	62	108	4738	2700	1.75
9594	พระราม3	13.6899218	100.5234974	exat	working	2022-07-09T00:00:00	17:00:00	18:00:00	48	77	3616	2700	1.34
9595	พระราม3	13.6899218	100.5234974	exat	working	2022-07-09T00:00:00	18:00:00	19:00:00	58	46	2537	2700	0.94
9596	พระราม3	13.6899218	100.5234974	exat	working	2022-08-09T00:00:00	5:00:00	6:00:00	131	12	854	2700	0.32
9597	พระราม3	13.6899218	100.5234974	exat	working	2022-08-09T00:00:00	6:00:00	7:00:00	91	34	2803	2700	1.04
9598	พระราม3	13.6899218	100.5234974	exat	working	2022-08-09T00:00:00	7:00:00	8:00:00	91	35	2800	2700	1.04
9599	พระราม3	13.6899218	100.5234974	exat	working	2022-08-09T00:00:00	8:00:00	9:00:00	91	39	2571	2700	0.95
9600	พระราม3	13.6899218	100.5234974	exat	working	2022-08-09T00:00:00	9:00:00	10:00:00	90	35	2492	2700	0.92
9601	พระราม3	13.6899218	100.5234974	exat	working	2022-08-09T00:00:00	10:00:00	11:00:00	89	36	2437	2700	0.90
9602	พระราม3	13.6899218	100.5234974	exat	working	2022-08-09T00:00:00	11:00:00	12:00:00	74	82	4946	2700	1.83
9603	พระราม3	13.6899218	100.5234974	exat	working	2022-08-09T00:00:00	12:00:00	13:00:00	87	38	2430	2700	0.90
9604	พระราม3	13.6899218	100.5234974	exat	working	2022-08-09T00:00:00	13:00:00	14:00:00	87	34	2474	2700	0.92
9605	พระราม3	13.6899218	100.5234974	exat	working	2022-08-09T00:00:00	14:00:00	15:00:00	90	34	2526	2700	0.94
9606	พระราม3	13.6899218	100.5234974	exat	working	2022-08-09T00:00:00	15:00:00	16:00:00	90	38	2509	2700	0.93
9607	พระราม3	13.6899218	100.5234974	exat	working	2022-08-09T00:00:00	16:00:00	17:00:00	76	81	4179	2700	1.55
9608	พระราม3	13.6899218	100.5234974	exat	working	2022-08-09T00:00:00	17:00:00	18:00:00	69	62	3004	2700	1.11
9609	พระราม3	13.6899218	100.5234974	exat	working	2022-08-09T00:00:00	18:00:00	19:00:00	74	42	2197	2700	0.81
9610	พระราม3	13.6899218	100.5234974	exat	working	2022-09-09T00:00:00	5:00:00	6:00:00	128	10	1003	2700	0.37
9611	พระราม3	13.6899218	100.5234974	exat	working	2022-09-09T00:00:00	6:00:00	7:00:00	91	32	2910	2700	1.08
9612	พระราม3	13.6899218	100.5234974	exat	working	2022-09-09T00:00:00	7:00:00	8:00:00	91	35	3999	2700	1.48
9613	พระราม3	13.6899218	100.5234974	exat	working	2022-09-09T00:00:00	8:00:00	9:00:00	91	41	3610	2700	1.34
9614	พระราม3	13.6899218	100.5234974	exat	working	2022-09-09T00:00:00	9:00:00	10:00:00	90	37	3592	2700	1.33
9615	พระราม3	13.6899218	100.5234974	exat	working	2022-09-09T00:00:00	10:00:00	11:00:00	90	38	3526	2700	1.31
9616	พระราม3	13.6899218	100.5234974	exat	working	2022-09-09T00:00:00	11:00:00	12:00:00	91	40	3641	2700	1.35
9617	พระราม3	13.6899218	100.5234974	exat	working	2022-09-09T00:00:00	12:00:00	13:00:00	87	40	3476	2700	1.29
9618	พระราม3	13.6899218	100.5234974	exat	working	2022-09-09T00:00:00	13:00:00	14:00:00	87	35	3555	2700	1.32
9619	พระราม3	13.6899218	100.5234974	exat	working	2022-09-09T00:00:00	14:00:00	15:00:00	90	36	3585	2700	1.33
9620	พระราม3	13.6899218	100.5234974	exat	working	2022-09-09T00:00:00	15:00:00	16:00:00	90	39	3561	2700	1.32
9621	พระราม3	13.6899218	100.5234974	exat	working	2022-09-09T00:00:00	16:00:00	17:00:00	91	54	3631	2700	1.34
9622	พระราม3	13.6899218	100.5234974	exat	working	2022-09-09T00:00:00	17:00:00	18:00:00	91	47	2341	2700	0.87
9623	พระราม3	13.6899218	100.5234974	exat	working	2022-09-09T00:00:00	18:00:00	19:00:00	91	38	1831	2700	0.68
9624	พระราม3	13.6899218	100.5234974	exat	working	2022-10-09T00:00:00	5:00:00	6:00:00	130	14	564	2700	0.21
9625	พระราม3	13.6899218	100.5234974	exat	holiday	2022-10-09T00:00:00	6:00:00	7:00:00	91	44	1823	2700	0.68
9626	พระราม3	13.6899218	100.5234974	exat	holiday	2022-10-09T00:00:00	7:00:00	8:00:00	91	48	2744	2700	1.02
9627	พระราม3	13.6899218	100.5234974	exat	holiday	2022-10-09T00:00:00	8:00:00	9:00:00	91	46	3613	2700	1.34
9628	พระราม3	13.6899218	100.5234974	exat	working	2022-10-09T00:00:00	9:00:00	10:00:00	89	44	3585	2700	1.33
9629	พระราม3	13.6899218	100.5234974	exat	working	2022-10-09T00:00:00	10:00:00	11:00:00	90	42	3626	2700	1.34
9630	พระราม3	13.6899218	100.5234974	exat	holiday	2022-10-09T00:00:00	11:00:00	12:00:00	21	121	1453	2700	0.54
9631	พระราม3	13.6899218	100.5234974	exat	working	2022-10-09T00:00:00	12:00:00	13:00:00	88	42	3469	2700	1.28
9632	พระราม3	13.6899218	100.5234974	exat	working	2022-10-09T00:00:00	13:00:00	14:00:00	86	40	3523	2700	1.30
9633	พระราม3	13.6899218	100.5234974	exat	working	2022-10-09T00:00:00	14:00:00	15:00:00	88	42	3510	2700	1.30
9634	พระราม3	13.6899218	100.5234974	exat	working	2022-10-09T00:00:00	15:00:00	16:00:00	88	41	3517	2700	1.30
9635	พระราม3	13.6899218	100.5234974	exat	holiday	2022-10-09T00:00:00	16:00:00	17:00:00	21	121	2345	2700	0.87
9636	พระราม3	13.6899218	100.5234974	exat	holiday	2022-10-09T00:00:00	17:00:00	18:00:00	21	121	1995	2700	0.74
9637	พระราม3	13.6899218	100.5234974	exat	working	2022-11-09T00:00:00	5:00:00	6:00:00	77	9	339	2700	0.13
9638	พระราม3	13.6899218	100.5234974	exat	holiday	2022-11-09T00:00:00	6:00:00	7:00:00	55	27	1093	2700	0.40
9639	พระราม3	13.6899218	100.5234974	exat	holiday	2022-11-09T00:00:00	7:00:00	8:00:00	55	29	1610	2700	0.60
9640	พระราม3	13.6899218	100.5234974	exat	holiday	2022-11-09T00:00:00	8:00:00	9:00:00	55	28	2171	2700	0.80
9641	พระราม3	13.6899218	100.5234974	exat	working	2022-11-09T00:00:00	9:00:00	10:00:00	54	26	2146	2700	0.79
9642	พระราม3	13.6899218	100.5234974	exat	working	2022-11-09T00:00:00	10:00:00	11:00:00	54	25	2153	2700	0.80
9643	พระราม3	13.6899218	100.5234974	exat	holiday	2022-11-09T00:00:00	11:00:00	12:00:00	21	121	876	2700	0.32
9644	พระราม3	13.6899218	100.5234974	exat	working	2022-11-09T00:00:00	12:00:00	13:00:00	53	25	2096	2700	0.78
9645	พระราม3	13.6899218	100.5234974	exat	working	2022-11-09T00:00:00	13:00:00	14:00:00	52	24	2076	2700	0.77
9646	พระราม3	13.6899218	100.5234974	exat	working	2022-11-09T00:00:00	14:00:00	15:00:00	53	25	2126	2700	0.79
9647	พระราม3	13.6899218	100.5234974	exat	working	2022-11-09T00:00:00	15:00:00	16:00:00	53	25	2126	2700	0.79
9648	พระราม3	13.6899218	100.5234974	exat	holiday	2022-11-09T00:00:00	16:00:00	17:00:00	21	122	1401	2700	0.52
9649	พระราม3	13.6899218	100.5234974	exat	holiday	2022-11-09T00:00:00	17:00:00	18:00:00	21	121	1183	2700	0.44
9650	ก่อนถึงทางขึ้นเลียบแม่น้ำ	13.7058247	100.5471407	exat	working	2022-05-09T00:00:00	5:00:00	6:00:00	52	17	182	2700	0.07
9651	ก่อนถึงทางขึ้นเลียบแม่น้ำ	13.7058247	100.5471407	exat	working	2022-05-09T00:00:00	6:00:00	7:00:00	37	54	573	2700	0.21
9652	ก่อนถึงทางขึ้นเลียบแม่น้ำ	13.7058247	100.5471407	exat	working	2022-05-09T00:00:00	7:00:00	8:00:00	21	121	376	2700	0.14
9653	ก่อนถึงทางขึ้นเลียบแม่น้ำ	13.7058247	100.5471407	exat	working	2022-05-09T00:00:00	8:00:00	9:00:00	21	121	369	2700	0.14
9654	ก่อนถึงทางขึ้นเลียบแม่น้ำ	13.7058247	100.5471407	exat	working	2022-05-09T00:00:00	9:00:00	10:00:00	21	121	241	2700	0.09
9655	ก่อนถึงทางขึ้นเลียบแม่น้ำ	13.7058247	100.5471407	exat	working	2022-05-09T00:00:00	10:00:00	11:00:00	21	121	284	2700	0.11
9656	ก่อนถึงทางขึ้นเลียบแม่น้ำ	13.7058247	100.5471407	exat	working	2022-05-09T00:00:00	11:00:00	12:00:00	21	121	732	2700	0.27
9657	ก่อนถึงทางขึ้นเลียบแม่น้ำ	13.7058247	100.5471407	exat	working	2022-05-09T00:00:00	12:00:00	13:00:00	21	121	325	2700	0.12
9658	ก่อนถึงทางขึ้นเลียบแม่น้ำ	13.7058247	100.5471407	exat	working	2022-05-09T00:00:00	13:00:00	14:00:00	21	121	335	2700	0.12
9659	ก่อนถึงทางขึ้นเลียบแม่น้ำ	13.7058247	100.5471407	exat	working	2022-05-09T00:00:00	14:00:00	15:00:00	21	122	285	2700	0.11
9660	ก่อนถึงทางขึ้นเลียบแม่น้ำ	13.7058247	100.5471407	exat	working	2022-05-09T00:00:00	15:00:00	16:00:00	21	121	246	2700	0.09
9661	ก่อนถึงทางขึ้นเลียบแม่น้ำ	13.7058247	100.5471407	exat	working	2022-05-09T00:00:00	16:00:00	17:00:00	21	121	1482	2700	0.55
9662	ก่อนถึงทางขึ้นเลียบแม่น้ำ	13.7058247	100.5471407	exat	working	2022-05-09T00:00:00	17:00:00	18:00:00	21	121	1664	2700	0.62
9663	ก่อนถึงทางขึ้นเลียบแม่น้ำ	13.7058247	100.5471407	exat	working	2022-05-09T00:00:00	18:00:00	19:00:00	22	125	1313	2700	0.49
9664	ก่อนถึงทางขึ้นเลียบแม่น้ำ	13.7058247	100.5471407	exat	working	2022-06-09T00:00:00	5:00:00	6:00:00	52	18	181	2700	0.07
9665	ก่อนถึงทางขึ้นเลียบแม่น้ำ	13.7058247	100.5471407	exat	working	2022-06-09T00:00:00	6:00:00	7:00:00	37	54	554	2700	0.21
9666	ก่อนถึงทางขึ้นเลียบแม่น้ำ	13.7058247	100.5471407	exat	working	2022-06-09T00:00:00	7:00:00	8:00:00	19	121	613	2700	0.23
9667	ก่อนถึงทางขึ้นเลียบแม่น้ำ	13.7058247	100.5471407	exat	working	2022-06-09T00:00:00	8:00:00	9:00:00	19	121	647	2700	0.24
9668	ก่อนถึงทางขึ้นเลียบแม่น้ำ	13.7058247	100.5471407	exat	working	2022-06-09T00:00:00	9:00:00	10:00:00	16	121	531	2700	0.20
9669	ก่อนถึงทางขึ้นเลียบแม่น้ำ	13.7058247	100.5471407	exat	working	2022-06-09T00:00:00	10:00:00	11:00:00	16	121	590	2700	0.22
9670	ก่อนถึงทางขึ้นเลียบแม่น้ำ	13.7058247	100.5471407	exat	working	2022-06-09T00:00:00	11:00:00	12:00:00	19	121	1492	2700	0.55
9671	ก่อนถึงทางขึ้นเลียบแม่น้ำ	13.7058247	100.5471407	exat	working	2022-06-09T00:00:00	12:00:00	13:00:00	14	121	599	2700	0.22
9672	ก่อนถึงทางขึ้นเลียบแม่น้ำ	13.7058247	100.5471407	exat	working	2022-06-09T00:00:00	13:00:00	14:00:00	16	121	598	2700	0.22
9673	ก่อนถึงทางขึ้นเลียบแม่น้ำ	13.7058247	100.5471407	exat	working	2022-06-09T00:00:00	14:00:00	15:00:00	16	121	550	2700	0.20
9674	ก่อนถึงทางขึ้นเลียบแม่น้ำ	13.7058247	100.5471407	exat	working	2022-06-09T00:00:00	15:00:00	16:00:00	18	121	570	2700	0.21
9675	ก่อนถึงทางขึ้นเลียบแม่น้ำ	13.7058247	100.5471407	exat	working	2022-06-09T00:00:00	16:00:00	17:00:00	21	121	924	2700	0.34
9676	ก่อนถึงทางขึ้นเลียบแม่น้ำ	13.7058247	100.5471407	exat	working	2022-06-09T00:00:00	17:00:00	18:00:00	18	121	1871	2700	0.69
9677	ก่อนถึงทางขึ้นเลียบแม่น้ำ	13.7058247	100.5471407	exat	working	2022-06-09T00:00:00	18:00:00	19:00:00	26	86	1571	2700	0.58
9678	ก่อนถึงทางขึ้นเลียบแม่น้ำ	13.7058247	100.5471407	exat	working	2022-07-09T00:00:00	5:00:00	6:00:00	53	18	179	2700	0.07
9679	ก่อนถึงทางขึ้นเลียบแม่น้ำ	13.7058247	100.5471407	exat	working	2022-07-09T00:00:00	6:00:00	7:00:00	37	54	553	2700	0.20
9680	ก่อนถึงทางขึ้นเลียบแม่น้ำ	13.7058247	100.5471407	exat	working	2022-07-09T00:00:00	7:00:00	8:00:00	37	51	885	2700	0.33
9681	ก่อนถึงทางขึ้นเลียบแม่น้ำ	13.7058247	100.5471407	exat	working	2022-07-09T00:00:00	8:00:00	9:00:00	37	43	930	2700	0.34
9682	ก่อนถึงทางขึ้นเลียบแม่น้ำ	13.7058247	100.5471407	exat	working	2022-07-09T00:00:00	9:00:00	10:00:00	34	40	800	2700	0.30
9683	ก่อนถึงทางขึ้นเลียบแม่น้ำ	13.7058247	100.5471407	exat	working	2022-07-09T00:00:00	10:00:00	11:00:00	36	40	915	2700	0.34
9684	ก่อนถึงทางขึ้นเลียบแม่น้ำ	13.7058247	100.5471407	exat	working	2022-07-09T00:00:00	11:00:00	12:00:00	37	76	2161	2700	0.80
9685	ก่อนถึงทางขึ้นเลียบแม่น้ำ	13.7058247	100.5471407	exat	working	2022-07-09T00:00:00	12:00:00	13:00:00	33	39	864	2700	0.32
9686	ก่อนถึงทางขึ้นเลียบแม่น้ำ	13.7058247	100.5471407	exat	working	2022-07-09T00:00:00	13:00:00	14:00:00	33	41	863	2700	0.32
9687	ก่อนถึงทางขึ้นเลียบแม่น้ำ	13.7058247	100.5471407	exat	working	2022-07-09T00:00:00	14:00:00	15:00:00	34	41	808	2700	0.30
9688	ก่อนถึงทางขึ้นเลียบแม่น้ำ	13.7058247	100.5471407	exat	working	2022-07-09T00:00:00	15:00:00	16:00:00	38	42	899	2700	0.33
9689	ก่อนถึงทางขึ้นเลียบแม่น้ำ	13.7058247	100.5471407	exat	working	2022-07-09T00:00:00	16:00:00	17:00:00	21	121	359	2700	0.13
9690	ก่อนถึงทางขึ้นเลียบแม่น้ำ	13.7058247	100.5471407	exat	working	2022-07-09T00:00:00	17:00:00	18:00:00	36	92	2035	2700	0.75
9691	ก่อนถึงทางขึ้นเลียบแม่น้ำ	13.7058247	100.5471407	exat	working	2022-07-09T00:00:00	18:00:00	19:00:00	31	46	1852	2700	0.69
9692	ก่อนถึงทางขึ้นเลียบแม่น้ำ	13.7058247	100.5471407	exat	working	2022-08-09T00:00:00	5:00:00	6:00:00	26	38	275	2700	0.10
9693	ก่อนถึงทางขึ้นเลียบแม่น้ำ	13.7058247	100.5471407	exat	working	2022-08-09T00:00:00	6:00:00	7:00:00	19	122	832	2700	0.31
9694	ก่อนถึงทางขึ้นเลียบแม่น้ำ	13.7058247	100.5471407	exat	working	2022-08-09T00:00:00	7:00:00	8:00:00	37	51	915	2700	0.34
9695	ก่อนถึงทางขึ้นเลียบแม่น้ำ	13.7058247	100.5471407	exat	working	2022-08-09T00:00:00	8:00:00	9:00:00	37	43	938	2700	0.35
9696	ก่อนถึงทางขึ้นเลียบแม่น้ำ	13.7058247	100.5471407	exat	working	2022-08-09T00:00:00	9:00:00	10:00:00	33	40	777	2700	0.29
9697	ก่อนถึงทางขึ้นเลียบแม่น้ำ	13.7058247	100.5471407	exat	working	2022-08-09T00:00:00	10:00:00	11:00:00	35	40	849	2700	0.31
9698	ก่อนถึงทางขึ้นเลียบแม่น้ำ	13.7058247	100.5471407	exat	working	2022-08-09T00:00:00	11:00:00	12:00:00	30	128	2956	2700	1.09
9699	ก่อนถึงทางขึ้นเลียบแม่น้ำ	13.7058247	100.5471407	exat	working	2022-08-09T00:00:00	12:00:00	13:00:00	34	41	892	2700	0.33
9700	ก่อนถึงทางขึ้นเลียบแม่น้ำ	13.7058247	100.5471407	exat	working	2022-08-09T00:00:00	13:00:00	14:00:00	33	42	862	2700	0.32
9701	ก่อนถึงทางขึ้นเลียบแม่น้ำ	13.7058247	100.5471407	exat	working	2022-08-09T00:00:00	14:00:00	15:00:00	35	39	849	2700	0.31
9702	ก่อนถึงทางขึ้นเลียบแม่น้ำ	13.7058247	100.5471407	exat	working	2022-08-09T00:00:00	15:00:00	16:00:00	35	41	829	2700	0.31
9703	ก่อนถึงทางขึ้นเลียบแม่น้ำ	13.7058247	100.5471407	exat	working	2022-08-09T00:00:00	16:00:00	17:00:00	6	121	3158	2700	1.17
9704	ก่อนถึงทางขึ้นเลียบแม่น้ำ	13.7058247	100.5471407	exat	working	2022-08-09T00:00:00	17:00:00	18:00:00	36	92	2004	2700	0.74
9705	ก่อนถึงทางขึ้นเลียบแม่น้ำ	13.7058247	100.5471407	exat	working	2022-08-09T00:00:00	18:00:00	19:00:00	16	121	1104	2700	0.41
9706	ก่อนถึงทางขึ้นเลียบแม่น้ำ	13.7058247	100.5471407	exat	working	2022-09-09T00:00:00	5:00:00	6:00:00	29	43	359	2700	0.13
9707	ก่อนถึงทางขึ้นเลียบแม่น้ำ	13.7058247	100.5471407	exat	working	2022-09-09T00:00:00	6:00:00	7:00:00	21	121	1101	2700	0.41
9708	ก่อนถึงทางขึ้นเลียบแม่น้ำ	13.7058247	100.5471407	exat	working	2022-09-09T00:00:00	7:00:00	8:00:00	37	51	933	2700	0.35
9709	ก่อนถึงทางขึ้นเลียบแม่น้ำ	13.7058247	100.5471407	exat	working	2022-09-09T00:00:00	8:00:00	9:00:00	37	43	932	2700	0.35
9710	ก่อนถึงทางขึ้นเลียบแม่น้ำ	13.7058247	100.5471407	exat	working	2022-09-09T00:00:00	9:00:00	10:00:00	33	41	768	2700	0.28
9711	ก่อนถึงทางขึ้นเลียบแม่น้ำ	13.7058247	100.5471407	exat	working	2022-09-09T00:00:00	10:00:00	11:00:00	34	40	790	2700	0.29
9712	ก่อนถึงทางขึ้นเลียบแม่น้ำ	13.7058247	100.5471407	exat	working	2022-09-09T00:00:00	11:00:00	12:00:00	24	181	3695	2700	1.37
9713	ก่อนถึงทางขึ้นเลียบแม่น้ำ	13.7058247	100.5471407	exat	working	2022-09-09T00:00:00	12:00:00	13:00:00	35	42	891	2700	0.33
9714	ก่อนถึงทางขึ้นเลียบแม่น้ำ	13.7058247	100.5471407	exat	working	2022-09-09T00:00:00	13:00:00	14:00:00	33	42	872	2700	0.32
9715	ก่อนถึงทางขึ้นเลียบแม่น้ำ	13.7058247	100.5471407	exat	working	2022-09-09T00:00:00	14:00:00	15:00:00	36	38	913	2700	0.34
9716	ก่อนถึงทางขึ้นเลียบแม่น้ำ	13.7058247	100.5471407	exat	working	2022-09-09T00:00:00	15:00:00	16:00:00	32	40	791	2700	0.29
9717	ก่อนถึงทางขึ้นเลียบแม่น้ำ	13.7058247	100.5471407	exat	working	2022-09-09T00:00:00	16:00:00	17:00:00	11	122	5880	2700	2.18
9718	ก่อนถึงทางขึ้นเลียบแม่น้ำ	13.7058247	100.5471407	exat	working	2022-09-09T00:00:00	17:00:00	18:00:00	36	92	2043	2700	0.76
9719	ก่อนถึงทางขึ้นเลียบแม่น้ำ	13.7058247	100.5471407	exat	working	2022-09-09T00:00:00	18:00:00	19:00:00	21	121	368	2700	0.14
9720	ก่อนถึงทางขึ้นเลียบแม่น้ำ	13.7058247	100.5471407	exat	working	2022-10-09T00:00:00	5:00:00	6:00:00	29	37	343	2700	0.13
9721	ก่อนถึงทางขึ้นเลียบแม่น้ำ	13.7058247	100.5471407	exat	working	2022-10-09T00:00:00	6:00:00	7:00:00	21	121	1133	2700	0.42
9722	ก่อนถึงทางขึ้นเลียบแม่น้ำ	13.7058247	100.5471407	exat	holiday	2022-10-09T00:00:00	7:00:00	8:00:00	21	122	370	2700	0.14
9723	ก่อนถึงทางขึ้นเลียบแม่น้ำ	13.7058247	100.5471407	exat	holiday	2022-10-09T00:00:00	8:00:00	9:00:00	21	121	386	2700	0.14
9724	ก่อนถึงทางขึ้นเลียบแม่น้ำ	13.7058247	100.5471407	exat	working	2022-10-09T00:00:00	9:00:00	10:00:00	21	121	164	2700	0.06
9725	ก่อนถึงทางขึ้นเลียบแม่น้ำ	13.7058247	100.5471407	exat	working	2022-10-09T00:00:00	10:00:00	11:00:00	21	121	214	2700	0.08
9726	ก่อนถึงทางขึ้นเลียบแม่น้ำ	13.7058247	100.5471407	exat	working	2022-10-09T00:00:00	11:00:00	12:00:00	24	182	3700	2700	1.37
9727	ก่อนถึงทางขึ้นเลียบแม่น้ำ	13.7058247	100.5471407	exat	working	2022-10-09T00:00:00	12:00:00	13:00:00	21	122	231	2700	0.09
9728	ก่อนถึงทางขึ้นเลียบแม่น้ำ	13.7058247	100.5471407	exat	working	2022-10-09T00:00:00	13:00:00	14:00:00	21	121	242	2700	0.09
9729	ก่อนถึงทางขึ้นเลียบแม่น้ำ	13.7058247	100.5471407	exat	working	2022-10-09T00:00:00	14:00:00	15:00:00	21	121	288	2700	0.11
9730	ก่อนถึงทางขึ้นเลียบแม่น้ำ	13.7058247	100.5471407	exat	working	2022-10-09T00:00:00	15:00:00	16:00:00	21	121	285	2700	0.11
9731	ก่อนถึงทางขึ้นเลียบแม่น้ำ	13.7058247	100.5471407	exat	working	2022-10-09T00:00:00	16:00:00	17:00:00	11	121	5895	2700	2.18
9732	ก่อนถึงทางขึ้นเลียบแม่น้ำ	13.7058247	100.5471407	exat	working	2022-10-09T00:00:00	17:00:00	18:00:00	36	92	1989	2700	0.74
9733	ก่อนถึงทางขึ้นเลียบแม่น้ำ	13.7058247	100.5471407	exat	working	2022-10-09T00:00:00	18:00:00	19:00:00	21	121	377	2700	0.14
9734	ก่อนถึงทางขึ้นเลียบแม่น้ำ	13.7058247	100.5471407	exat	working	2022-11-09T00:00:00	5:00:00	6:00:00	29	39	224	2700	0.08
9735	ก่อนถึงทางขึ้นเลียบแม่น้ำ	13.7058247	100.5471407	exat	working	2022-11-09T00:00:00	6:00:00	7:00:00	21	121	664	2700	0.25
9736	ก่อนถึงทางขึ้นเลียบแม่น้ำ	13.7058247	100.5471407	exat	holiday	2022-11-09T00:00:00	7:00:00	8:00:00	21	122	238	2700	0.09
9737	ก่อนถึงทางขึ้นเลียบแม่น้ำ	13.7058247	100.5471407	exat	holiday	2022-11-09T00:00:00	8:00:00	9:00:00	21	121	210	2700	0.08
9738	ก่อนถึงทางขึ้นเลียบแม่น้ำ	13.7058247	100.5471407	exat	working	2022-11-09T00:00:00	9:00:00	10:00:00	21	121	92	2700	0.03
9739	ก่อนถึงทางขึ้นเลียบแม่น้ำ	13.7058247	100.5471407	exat	working	2022-11-09T00:00:00	10:00:00	11:00:00	21	122	128	2700	0.05
9740	ก่อนถึงทางขึ้นเลียบแม่น้ำ	13.7058247	100.5471407	exat	working	2022-11-09T00:00:00	11:00:00	12:00:00	15	121	2208	2700	0.82
9741	ก่อนถึงทางขึ้นเลียบแม่น้ำ	13.7058247	100.5471407	exat	working	2022-11-09T00:00:00	12:00:00	13:00:00	21	121	150	2700	0.06
9742	ก่อนถึงทางขึ้นเลียบแม่น้ำ	13.7058247	100.5471407	exat	working	2022-11-09T00:00:00	13:00:00	14:00:00	21	121	161	2700	0.06
9743	ก่อนถึงทางขึ้นเลียบแม่น้ำ	13.7058247	100.5471407	exat	working	2022-11-09T00:00:00	14:00:00	15:00:00	21	121	162	2700	0.06
9744	ก่อนถึงทางขึ้นเลียบแม่น้ำ	13.7058247	100.5471407	exat	working	2022-11-09T00:00:00	15:00:00	16:00:00	21	121	164	2700	0.06
9745	ก่อนถึงทางขึ้นเลียบแม่น้ำ	13.7058247	100.5471407	exat	working	2022-11-09T00:00:00	16:00:00	17:00:00	7	121	3559	2700	1.32
9746	ก่อนถึงทางขึ้นเลียบแม่น้ำ	13.7058247	100.5471407	exat	working	2022-11-09T00:00:00	17:00:00	18:00:00	22	55	1194	2700	0.44
9747	ก่อนถึงทางขึ้นเลียบแม่น้ำ	13.7058247	100.5471407	exat	working	2022-11-09T00:00:00	18:00:00	19:00:00	21	121	221	2700	0.08
9748	ทางร่วมศรีรัช (บางโคล่)	13.6955811	100.5339792	exat	working	2022-05-09T00:00:00	5:00:00	6:00:00	29	41	370	2700	0.14
9749	ทางร่วมศรีรัช (บางโคล่)	13.6955811	100.5339792	exat	working	2022-05-09T00:00:00	6:00:00	7:00:00	21	121	1109	2700	0.41
9750	ทางร่วมศรีรัช (บางโคล่)	13.6955811	100.5339792	exat	working	2022-05-09T00:00:00	7:00:00	8:00:00	21	121	377	2700	0.14
9751	ทางร่วมศรีรัช (บางโคล่)	13.6955811	100.5339792	exat	working	2022-05-09T00:00:00	8:00:00	9:00:00	21	122	1453	2700	0.54
9752	ทางร่วมศรีรัช (บางโคล่)	13.6955811	100.5339792	exat	working	2022-05-09T00:00:00	9:00:00	10:00:00	21	121	1348	2700	0.50
9753	ทางร่วมศรีรัช (บางโคล่)	13.6955811	100.5339792	exat	working	2022-05-09T00:00:00	10:00:00	11:00:00	21	121	1468	2700	0.54
9754	ทางร่วมศรีรัช (บางโคล่)	13.6955811	100.5339792	exat	working	2022-05-09T00:00:00	11:00:00	12:00:00	91	181	924	2700	0.34
9755	ทางร่วมศรีรัช (บางโคล่)	13.6955811	100.5339792	exat	working	2022-05-09T00:00:00	12:00:00	13:00:00	21	121	1482	2700	0.55
9756	ทางร่วมศรีรัช (บางโคล่)	13.6955811	100.5339792	exat	working	2022-05-09T00:00:00	13:00:00	14:00:00	21	122	1379	2700	0.51
9757	ทางร่วมศรีรัช (บางโคล่)	13.6955811	100.5339792	exat	working	2022-05-09T00:00:00	14:00:00	15:00:00	0	122	1449	2700	0.54
9758	ทางร่วมศรีรัช (บางโคล่)	13.6955811	100.5339792	exat	working	2022-05-09T00:00:00	15:00:00	16:00:00	21	121	1456	2700	0.54
9759	ทางร่วมศรีรัช (บางโคล่)	13.6955811	100.5339792	exat	working	2022-05-09T00:00:00	16:00:00	17:00:00	21	121	371	2700	0.14
9760	ทางร่วมศรีรัช (บางโคล่)	13.6955811	100.5339792	exat	working	2022-05-09T00:00:00	17:00:00	18:00:00	21	122	708	2700	0.26
9761	ทางร่วมศรีรัช (บางโคล่)	13.6955811	100.5339792	exat	working	2022-05-09T00:00:00	18:00:00	19:00:00	21	121	371	2700	0.14
9762	ทางร่วมศรีรัช (บางโคล่)	13.6955811	100.5339792	exat	working	2022-06-09T00:00:00	5:00:00	6:00:00	29	39	377	2700	0.14
9763	ทางร่วมศรีรัช (บางโคล่)	13.6955811	100.5339792	exat	working	2022-06-09T00:00:00	6:00:00	7:00:00	21	121	1094	2700	0.41
9764	ทางร่วมศรีรัช (บางโคล่)	13.6955811	100.5339792	exat	working	2022-06-09T00:00:00	7:00:00	8:00:00	21	122	361	2700	0.13
9765	ทางร่วมศรีรัช (บางโคล่)	13.6955811	100.5339792	exat	working	2022-06-09T00:00:00	8:00:00	9:00:00	46	159	1117	2700	0.41
9766	ทางร่วมศรีรัช (บางโคล่)	13.6955811	100.5339792	exat	working	2022-06-09T00:00:00	9:00:00	10:00:00	43	156	971	2700	0.36
9767	ทางร่วมศรีรัช (บางโคล่)	13.6955811	100.5339792	exat	working	2022-06-09T00:00:00	10:00:00	11:00:00	42	158	1032	2700	0.38
9768	ทางร่วมศรีรัช (บางโคล่)	13.6955811	100.5339792	exat	working	2022-06-09T00:00:00	11:00:00	12:00:00	46	181	1378	2700	0.51
9769	ทางร่วมศรีรัช (บางโคล่)	13.6955811	100.5339792	exat	working	2022-06-09T00:00:00	12:00:00	13:00:00	44	156	1062	2700	0.39
9770	ทางร่วมศรีรัช (บางโคล่)	13.6955811	100.5339792	exat	working	2022-06-09T00:00:00	13:00:00	14:00:00	42	157	994	2700	0.37
9771	ทางร่วมศรีรัช (บางโคล่)	13.6955811	100.5339792	exat	working	2022-06-09T00:00:00	14:00:00	15:00:00	45	154	1041	2700	0.39
9772	ทางร่วมศรีรัช (บางโคล่)	13.6955811	100.5339792	exat	working	2022-06-09T00:00:00	15:00:00	16:00:00	43	155	1036	2700	0.38
9773	ทางร่วมศรีรัช (บางโคล่)	13.6955811	100.5339792	exat	working	2022-06-09T00:00:00	16:00:00	17:00:00	21	121	380	2700	0.14
9774	ทางร่วมศรีรัช (บางโคล่)	13.6955811	100.5339792	exat	working	2022-06-09T00:00:00	17:00:00	18:00:00	21	121	718	2700	0.27
9775	ทางร่วมศรีรัช (บางโคล่)	13.6955811	100.5339792	exat	working	2022-06-09T00:00:00	18:00:00	19:00:00	21	121	369	2700	0.14
9776	ทางร่วมศรีรัช (บางโคล่)	13.6955811	100.5339792	exat	working	2022-07-09T00:00:00	5:00:00	6:00:00	29	40	356	2700	0.13
9777	ทางร่วมศรีรัช (บางโคล่)	13.6955811	100.5339792	exat	working	2022-07-09T00:00:00	6:00:00	7:00:00	21	121	1109	2700	0.41
9778	ทางร่วมศรีรัช (บางโคล่)	13.6955811	100.5339792	exat	working	2022-07-09T00:00:00	7:00:00	8:00:00	21	121	367	2700	0.14
9779	ทางร่วมศรีรัช (บางโคล่)	13.6955811	100.5339792	exat	working	2022-07-09T00:00:00	8:00:00	9:00:00	91	181	754	2700	0.28
9780	ทางร่วมศรีรัช (บางโคล่)	13.6955811	100.5339792	exat	working	2022-07-09T00:00:00	9:00:00	10:00:00	92	179	748	2700	0.28
9781	ทางร่วมศรีรัช (บางโคล่)	13.6955811	100.5339792	exat	working	2022-07-09T00:00:00	10:00:00	11:00:00	91	181	762	2700	0.28
9782	ทางร่วมศรีรัช (บางโคล่)	13.6955811	100.5339792	exat	working	2022-07-09T00:00:00	11:00:00	12:00:00	21	121	1842	2700	0.68
9783	ทางร่วมศรีรัช (บางโคล่)	13.6955811	100.5339792	exat	working	2022-07-09T00:00:00	12:00:00	13:00:00	89	177	732	2700	0.27
9784	ทางร่วมศรีรัช (บางโคล่)	13.6955811	100.5339792	exat	working	2022-07-09T00:00:00	13:00:00	14:00:00	86	180	712	2700	0.26
9785	ทางร่วมศรีรัช (บางโคล่)	13.6955811	100.5339792	exat	working	2022-07-09T00:00:00	14:00:00	15:00:00	90	177	730	2700	0.27
9786	ทางร่วมศรีรัช (บางโคล่)	13.6955811	100.5339792	exat	working	2022-07-09T00:00:00	15:00:00	16:00:00	86	176	710	2700	0.26
9787	ทางร่วมศรีรัช (บางโคล่)	13.6955811	100.5339792	exat	working	2022-07-09T00:00:00	16:00:00	17:00:00	21	122	359	2700	0.13
9788	ทางร่วมศรีรัช (บางโคล่)	13.6955811	100.5339792	exat	working	2022-07-09T00:00:00	17:00:00	18:00:00	21	122	758	2700	0.28
9789	ทางร่วมศรีรัช (บางโคล่)	13.6955811	100.5339792	exat	working	2022-07-09T00:00:00	18:00:00	19:00:00	21	121	371	2700	0.14
9790	ทางร่วมศรีรัช (บางโคล่)	13.6955811	100.5339792	exat	working	2022-08-09T00:00:00	5:00:00	6:00:00	29	40	377	2700	0.14
9791	ทางร่วมศรีรัช (บางโคล่)	13.6955811	100.5339792	exat	working	2022-08-09T00:00:00	6:00:00	7:00:00	21	121	1224	2700	0.45
9792	ทางร่วมศรีรัช (บางโคล่)	13.6955811	100.5339792	exat	working	2022-08-09T00:00:00	7:00:00	8:00:00	21	121	370	2700	0.14
9793	ทางร่วมศรีรัช (บางโคล่)	13.6955811	100.5339792	exat	working	2022-08-09T00:00:00	8:00:00	9:00:00	46	159	1119	2700	0.41
9794	ทางร่วมศรีรัช (บางโคล่)	13.6955811	100.5339792	exat	working	2022-08-09T00:00:00	9:00:00	10:00:00	44	156	1018	2700	0.38
9795	ทางร่วมศรีรัช (บางโคล่)	13.6955811	100.5339792	exat	working	2022-08-09T00:00:00	10:00:00	11:00:00	45	157	1032	2700	0.38
9796	ทางร่วมศรีรัช (บางโคล่)	13.6955811	100.5339792	exat	working	2022-08-09T00:00:00	11:00:00	12:00:00	21	122	1839	2700	0.68
9797	ทางร่วมศรีรัช (บางโคล่)	13.6955811	100.5339792	exat	working	2022-08-09T00:00:00	12:00:00	13:00:00	45	157	1000	2700	0.37
9798	ทางร่วมศรีรัช (บางโคล่)	13.6955811	100.5339792	exat	working	2022-08-09T00:00:00	13:00:00	14:00:00	41	158	1047	2700	0.39
9799	ทางร่วมศรีรัช (บางโคล่)	13.6955811	100.5339792	exat	working	2022-08-09T00:00:00	14:00:00	15:00:00	44	156	948	2700	0.35
9800	ทางร่วมศรีรัช (บางโคล่)	13.6955811	100.5339792	exat	working	2022-08-09T00:00:00	15:00:00	16:00:00	42	157	989	2700	0.37
9801	ทางร่วมศรีรัช (บางโคล่)	13.6955811	100.5339792	exat	working	2022-08-09T00:00:00	16:00:00	17:00:00	46	175	1466	2700	0.54
9802	ทางร่วมศรีรัช (บางโคล่)	13.6955811	100.5339792	exat	working	2022-08-09T00:00:00	17:00:00	18:00:00	39	181	1389	2700	0.51
9803	ทางร่วมศรีรัช (บางโคล่)	13.6955811	100.5339792	exat	working	2022-08-09T00:00:00	18:00:00	19:00:00	12	121	1024	2700	0.38
9804	ทางร่วมศรีรัช (บางโคล่)	13.6955811	100.5339792	exat	working	2022-09-09T00:00:00	5:00:00	6:00:00	30	42	445	2700	0.16
9805	ทางร่วมศรีรัช (บางโคล่)	13.6955811	100.5339792	exat	working	2022-09-09T00:00:00	6:00:00	7:00:00	21	122	1287	2700	0.48
9806	ทางร่วมศรีรัช (บางโคล่)	13.6955811	100.5339792	exat	working	2022-09-09T00:00:00	7:00:00	8:00:00	21	121	389	2700	0.14
9807	ทางร่วมศรีรัช (บางโคล่)	13.6955811	100.5339792	exat	working	2022-09-09T00:00:00	8:00:00	9:00:00	21	121	1480	2700	0.55
9808	ทางร่วมศรีรัช (บางโคล่)	13.6955811	100.5339792	exat	working	2022-09-09T00:00:00	9:00:00	10:00:00	21	121	1447	2700	0.54
9809	ทางร่วมศรีรัช (บางโคล่)	13.6955811	100.5339792	exat	working	2022-09-09T00:00:00	10:00:00	11:00:00	21	121	1460	2700	0.54
9810	ทางร่วมศรีรัช (บางโคล่)	13.6955811	100.5339792	exat	working	2022-09-09T00:00:00	11:00:00	12:00:00	21	121	1837	2700	0.68
9811	ทางร่วมศรีรัช (บางโคล่)	13.6955811	100.5339792	exat	working	2022-09-09T00:00:00	12:00:00	13:00:00	21	121	1331	2700	0.49
9812	ทางร่วมศรีรัช (บางโคล่)	13.6955811	100.5339792	exat	working	2022-09-09T00:00:00	13:00:00	14:00:00	21	121	1433	2700	0.53
9813	ทางร่วมศรีรัช (บางโคล่)	13.6955811	100.5339792	exat	working	2022-09-09T00:00:00	14:00:00	15:00:00	21	122	1287	2700	0.48
9814	ทางร่วมศรีรัช (บางโคล่)	13.6955811	100.5339792	exat	working	2022-09-09T00:00:00	15:00:00	16:00:00	21	122	1360	2700	0.50
9815	ทางร่วมศรีรัช (บางโคล่)	13.6955811	100.5339792	exat	working	2022-09-09T00:00:00	16:00:00	17:00:00	91	170	2590	2700	0.96
9816	ทางร่วมศรีรัช (บางโคล่)	13.6955811	100.5339792	exat	working	2022-09-09T00:00:00	17:00:00	18:00:00	77	181	2023	2700	0.75
9817	ทางร่วมศรีรัช (บางโคล่)	13.6955811	100.5339792	exat	working	2022-09-09T00:00:00	18:00:00	19:00:00	23	181	1678	2700	0.62
9818	ทางร่วมศรีรัช (บางโคล่)	13.6955811	100.5339792	exat	working	2022-10-09T00:00:00	5:00:00	6:00:00	29	41	118	2700	0.04
9819	ทางร่วมศรีรัช (บางโคล่)	13.6955811	100.5339792	exat	holiday	2022-10-09T00:00:00	6:00:00	7:00:00	21	121	370	2700	0.14
9820	ทางร่วมศรีรัช (บางโคล่)	13.6955811	100.5339792	exat	holiday	2022-10-09T00:00:00	7:00:00	8:00:00	21	121	562	2700	0.21
9821	ทางร่วมศรีรัช (บางโคล่)	13.6955811	100.5339792	exat	holiday	2022-10-09T00:00:00	8:00:00	9:00:00	21	122	1106	2700	0.41
9822	ทางร่วมศรีรัช (บางโคล่)	13.6955811	100.5339792	exat	working	2022-10-09T00:00:00	9:00:00	10:00:00	21	121	1064	2700	0.39
9823	ทางร่วมศรีรัช (บางโคล่)	13.6955811	100.5339792	exat	working	2022-10-09T00:00:00	10:00:00	11:00:00	21	121	960	2700	0.36
9824	ทางร่วมศรีรัช (บางโคล่)	13.6955811	100.5339792	exat	holiday	2022-10-09T00:00:00	11:00:00	12:00:00	21	121	1830	2700	0.68
9825	ทางร่วมศรีรัช (บางโคล่)	13.6955811	100.5339792	exat	working	2022-10-09T00:00:00	12:00:00	13:00:00	21	121	1103	2700	0.41
9826	ทางร่วมศรีรัช (บางโคล่)	13.6955811	100.5339792	exat	working	2022-10-09T00:00:00	13:00:00	14:00:00	21	122	1081	2700	0.40
9827	ทางร่วมศรีรัช (บางโคล่)	13.6955811	100.5339792	exat	working	2022-10-09T00:00:00	14:00:00	15:00:00	21	121	1110	2700	0.41
9828	ทางร่วมศรีรัช (บางโคล่)	13.6955811	100.5339792	exat	working	2022-10-09T00:00:00	15:00:00	16:00:00	21	121	974	2700	0.36
9829	ทางร่วมศรีรัช (บางโคล่)	13.6955811	100.5339792	exat	holiday	2022-10-09T00:00:00	16:00:00	17:00:00	91	137	1106	2700	0.41
9830	ทางร่วมศรีรัช (บางโคล่)	13.6955811	100.5339792	exat	holiday	2022-10-09T00:00:00	17:00:00	18:00:00	17	121	1492	2700	0.55
9831	ทางร่วมศรีรัช (บางโคล่)	13.6955811	100.5339792	exat	holiday	2022-10-09T00:00:00	18:00:00	19:00:00	21	121	2199	2700	0.81
9832	ทางร่วมศรีรัช (บางโคล่)	13.6955811	100.5339792	exat	working	2022-11-09T00:00:00	5:00:00	6:00:00	29	39	69	2700	0.03
9833	ทางร่วมศรีรัช (บางโคล่)	13.6955811	100.5339792	exat	holiday	2022-11-09T00:00:00	6:00:00	7:00:00	21	121	221	2700	0.08
9834	ทางร่วมศรีรัช (บางโคล่)	13.6955811	100.5339792	exat	holiday	2022-11-09T00:00:00	7:00:00	8:00:00	21	121	331	2700	0.12
9835	ทางร่วมศรีรัช (บางโคล่)	13.6955811	100.5339792	exat	holiday	2022-11-09T00:00:00	8:00:00	9:00:00	21	121	650	2700	0.24
9836	ทางร่วมศรีรัช (บางโคล่)	13.6955811	100.5339792	exat	working	2022-11-09T00:00:00	9:00:00	10:00:00	21	121	611	2700	0.23
9837	ทางร่วมศรีรัช (บางโคล่)	13.6955811	100.5339792	exat	working	2022-11-09T00:00:00	10:00:00	11:00:00	21	121	563	2700	0.21
9838	ทางร่วมศรีรัช (บางโคล่)	13.6955811	100.5339792	exat	holiday	2022-11-09T00:00:00	11:00:00	12:00:00	21	121	1106	2700	0.41
9839	ทางร่วมศรีรัช (บางโคล่)	13.6955811	100.5339792	exat	working	2022-11-09T00:00:00	12:00:00	13:00:00	21	121	645	2700	0.24
9840	ทางร่วมศรีรัช (บางโคล่)	13.6955811	100.5339792	exat	working	2022-11-09T00:00:00	13:00:00	14:00:00	21	121	589	2700	0.22
9841	ทางร่วมศรีรัช (บางโคล่)	13.6955811	100.5339792	exat	working	2022-11-09T00:00:00	14:00:00	15:00:00	21	121	717	2700	0.27
9842	ทางร่วมศรีรัช (บางโคล่)	13.6955811	100.5339792	exat	working	2022-11-09T00:00:00	15:00:00	16:00:00	21	121	604	2700	0.22
9843	ทางร่วมศรีรัช (บางโคล่)	13.6955811	100.5339792	exat	holiday	2022-11-09T00:00:00	16:00:00	17:00:00	55	82	667	2700	0.25
9844	ทางร่วมศรีรัช (บางโคล่)	13.6955811	100.5339792	exat	holiday	2022-11-09T00:00:00	17:00:00	18:00:00	10	122	878	2700	0.33
9845	ทางร่วมศรีรัช (บางโคล่)	13.6955811	100.5339792	exat	holiday	2022-11-09T00:00:00	18:00:00	19:00:00	21	121	1324	2700	0.49
9846	ขึ้นเลียบแม่น้ำ	13.710806	100.5517956	exat	working	2022-05-09T00:00:00	5:00:00	6:00:00	29	41	327	2700	0.12
9847	ขึ้นเลียบแม่น้ำ	13.710806	100.5517956	exat	working	2022-05-09T00:00:00	6:00:00	7:00:00	21	121	929	2700	0.34
9848	ขึ้นเลียบแม่น้ำ	13.710806	100.5517956	exat	working	2022-05-09T00:00:00	7:00:00	8:00:00	21	121	1098	2700	0.41
9849	ขึ้นเลียบแม่น้ำ	13.710806	100.5517956	exat	working	2022-05-09T00:00:00	8:00:00	9:00:00	21	121	386	2700	0.14
9850	ขึ้นเลียบแม่น้ำ	13.710806	100.5517956	exat	working	2022-05-09T00:00:00	9:00:00	10:00:00	21	121	295	2700	0.11
9851	ขึ้นเลียบแม่น้ำ	13.710806	100.5517956	exat	working	2022-05-09T00:00:00	10:00:00	11:00:00	21	121	356	2700	0.13
9852	ขึ้นเลียบแม่น้ำ	13.710806	100.5517956	exat	working	2022-05-09T00:00:00	11:00:00	12:00:00	21	121	1115	2700	0.41
9853	ขึ้นเลียบแม่น้ำ	13.710806	100.5517956	exat	working	2022-05-09T00:00:00	12:00:00	13:00:00	21	121	254	2700	0.09
9854	ขึ้นเลียบแม่น้ำ	13.710806	100.5517956	exat	working	2022-05-09T00:00:00	13:00:00	14:00:00	21	121	240	2700	0.09
9855	ขึ้นเลียบแม่น้ำ	13.710806	100.5517956	exat	working	2022-05-09T00:00:00	14:00:00	15:00:00	21	121	204	2700	0.08
9856	ขึ้นเลียบแม่น้ำ	13.710806	100.5517956	exat	working	2022-05-09T00:00:00	15:00:00	16:00:00	21	121	120	2700	0.04
9857	ขึ้นเลียบแม่น้ำ	13.710806	100.5517956	exat	working	2022-05-09T00:00:00	16:00:00	17:00:00	37	121	6651	2700	2.46
9858	ขึ้นเลียบแม่น้ำ	13.710806	100.5517956	exat	working	2022-05-09T00:00:00	17:00:00	18:00:00	37	88	2761	2700	1.02
9859	ขึ้นเลียบแม่น้ำ	13.710806	100.5517956	exat	working	2022-05-09T00:00:00	18:00:00	19:00:00	36	92	2972	2700	1.10
9860	ขึ้นเลียบแม่น้ำ	13.710806	100.5517956	exat	working	2022-06-09T00:00:00	5:00:00	6:00:00	15	40	466	2700	0.17
9861	ขึ้นเลียบแม่น้ำ	13.710806	100.5517956	exat	working	2022-06-09T00:00:00	6:00:00	7:00:00	11	121	1388	2700	0.51
9862	ขึ้นเลียบแม่น้ำ	13.710806	100.5517956	exat	working	2022-06-09T00:00:00	7:00:00	8:00:00	12	121	1855	2700	0.69
9863	ขึ้นเลียบแม่น้ำ	13.710806	100.5517956	exat	working	2022-06-09T00:00:00	8:00:00	9:00:00	10	121	2148	2700	0.80
9864	ขึ้นเลียบแม่น้ำ	13.710806	100.5517956	exat	working	2022-06-09T00:00:00	9:00:00	10:00:00	6	121	2030	2700	0.75
9865	ขึ้นเลียบแม่น้ำ	13.710806	100.5517956	exat	working	2022-06-09T00:00:00	10:00:00	11:00:00	7	121	2098	2700	0.78
9866	ขึ้นเลียบแม่น้ำ	13.710806	100.5517956	exat	working	2022-06-09T00:00:00	11:00:00	12:00:00	11	122	2042	2700	0.76
9867	ขึ้นเลียบแม่น้ำ	13.710806	100.5517956	exat	working	2022-06-09T00:00:00	12:00:00	13:00:00	6	121	2085	2700	0.77
9868	ขึ้นเลียบแม่น้ำ	13.710806	100.5517956	exat	working	2022-06-09T00:00:00	13:00:00	14:00:00	6	121	1994	2700	0.74
9869	ขึ้นเลียบแม่น้ำ	13.710806	100.5517956	exat	working	2022-06-09T00:00:00	14:00:00	15:00:00	7	121	1965	2700	0.73
9870	ขึ้นเลียบแม่น้ำ	13.710806	100.5517956	exat	working	2022-06-09T00:00:00	15:00:00	16:00:00	8	121	1907	2700	0.71
9871	ขึ้นเลียบแม่น้ำ	13.710806	100.5517956	exat	working	2022-06-09T00:00:00	16:00:00	17:00:00	27	143	6391	2700	2.37
9872	ขึ้นเลียบแม่น้ำ	13.710806	100.5517956	exat	working	2022-06-09T00:00:00	17:00:00	18:00:00	26	135	3955	2700	1.46
9873	ขึ้นเลียบแม่น้ำ	13.710806	100.5517956	exat	working	2022-06-09T00:00:00	18:00:00	19:00:00	31	79	2578	2700	0.95
9874	ขึ้นเลียบแม่น้ำ	13.710806	100.5517956	exat	working	2022-07-09T00:00:00	5:00:00	6:00:00	31	20	621	2700	0.23
9875	ขึ้นเลียบแม่น้ำ	13.710806	100.5517956	exat	working	2022-07-09T00:00:00	6:00:00	7:00:00	22	64	1850	2700	0.69
9876	ขึ้นเลียบแม่น้ำ	13.710806	100.5517956	exat	working	2022-07-09T00:00:00	7:00:00	8:00:00	23	93	2599	2700	0.96
9877	ขึ้นเลียบแม่น้ำ	13.710806	100.5517956	exat	working	2022-07-09T00:00:00	8:00:00	9:00:00	20	122	3871	2700	1.43
9878	ขึ้นเลียบแม่น้ำ	13.710806	100.5517956	exat	working	2022-07-09T00:00:00	9:00:00	10:00:00	15	121	3788	2700	1.40
9879	ขึ้นเลียบแม่น้ำ	13.710806	100.5517956	exat	working	2022-07-09T00:00:00	10:00:00	11:00:00	19	121	3824	2700	1.42
9880	ขึ้นเลียบแม่น้ำ	13.710806	100.5517956	exat	working	2022-07-09T00:00:00	11:00:00	12:00:00	22	100	2962	2700	1.10
9881	ขึ้นเลียบแม่น้ำ	13.710806	100.5517956	exat	working	2022-07-09T00:00:00	12:00:00	13:00:00	15	121	3854	2700	1.43
9882	ขึ้นเลียบแม่น้ำ	13.710806	100.5517956	exat	working	2022-07-09T00:00:00	13:00:00	14:00:00	15	121	3698	2700	1.37
9883	ขึ้นเลียบแม่น้ำ	13.710806	100.5517956	exat	working	2022-07-09T00:00:00	14:00:00	15:00:00	17	121	3787	2700	1.40
9884	ขึ้นเลียบแม่น้ำ	13.710806	100.5517956	exat	working	2022-07-09T00:00:00	15:00:00	16:00:00	18	121	3767	2700	1.40
9885	ขึ้นเลียบแม่น้ำ	13.710806	100.5517956	exat	working	2022-07-09T00:00:00	16:00:00	17:00:00	18	121	6132	2700	2.27
9886	ขึ้นเลียบแม่น้ำ	13.710806	100.5517956	exat	working	2022-07-09T00:00:00	17:00:00	18:00:00	16	121	5162	2700	1.91
9887	ขึ้นเลียบแม่น้ำ	13.710806	100.5517956	exat	working	2022-07-09T00:00:00	18:00:00	19:00:00	25	66	2186	2700	0.81
9888	ขึ้นเลียบแม่น้ำ	13.710806	100.5517956	exat	working	2022-08-09T00:00:00	5:00:00	6:00:00	15	41	466	2700	0.17
9889	ขึ้นเลียบแม่น้ำ	13.710806	100.5517956	exat	working	2022-08-09T00:00:00	6:00:00	7:00:00	11	122	1465	2700	0.54
9890	ขึ้นเลียบแม่น้ำ	13.710806	100.5517956	exat	working	2022-08-09T00:00:00	7:00:00	8:00:00	12	121	1466	2700	0.54
9891	ขึ้นเลียบแม่น้ำ	13.710806	100.5517956	exat	working	2022-08-09T00:00:00	8:00:00	9:00:00	28	81	2215	2700	0.82
9892	ขึ้นเลียบแม่น้ำ	13.710806	100.5517956	exat	working	2022-08-09T00:00:00	9:00:00	10:00:00	25	79	2166	2700	0.80
9893	ขึ้นเลียบแม่น้ำ	13.710806	100.5517956	exat	working	2022-08-09T00:00:00	10:00:00	11:00:00	25	78	2181	2700	0.81
9894	ขึ้นเลียบแม่น้ำ	13.710806	100.5517956	exat	working	2022-08-09T00:00:00	11:00:00	12:00:00	29	92	2487	2700	0.92
9895	ขึ้นเลียบแม่น้ำ	13.710806	100.5517956	exat	working	2022-08-09T00:00:00	12:00:00	13:00:00	24	79	2168	2700	0.80
9896	ขึ้นเลียบแม่น้ำ	13.710806	100.5517956	exat	working	2022-08-09T00:00:00	13:00:00	14:00:00	24	78	2071	2700	0.77
9897	ขึ้นเลียบแม่น้ำ	13.710806	100.5517956	exat	working	2022-08-09T00:00:00	14:00:00	15:00:00	26	76	2081	2700	0.77
9898	ขึ้นเลียบแม่น้ำ	13.710806	100.5517956	exat	working	2022-08-09T00:00:00	15:00:00	16:00:00	26	78	2131	2700	0.79
9899	ขึ้นเลียบแม่น้ำ	13.710806	100.5517956	exat	working	2022-08-09T00:00:00	16:00:00	17:00:00	27	126	4876	2700	1.81
9900	ขึ้นเลียบแม่น้ำ	13.710806	100.5517956	exat	working	2022-08-09T00:00:00	17:00:00	18:00:00	26	166	5562	2700	2.06
9901	ขึ้นเลียบแม่น้ำ	13.710806	100.5517956	exat	working	2022-08-09T00:00:00	18:00:00	19:00:00	13	121	1380	2700	0.51
9902	ขึ้นเลียบแม่น้ำ	13.710806	100.5517956	exat	working	2022-09-09T00:00:00	5:00:00	6:00:00	29	37	353	2700	0.13
9903	ขึ้นเลียบแม่น้ำ	13.710806	100.5517956	exat	working	2022-09-09T00:00:00	6:00:00	7:00:00	21	121	1084	2700	0.40
9904	ขึ้นเลียบแม่น้ำ	13.710806	100.5517956	exat	working	2022-09-09T00:00:00	7:00:00	8:00:00	21	121	384	2700	0.14
9905	ขึ้นเลียบแม่น้ำ	13.710806	100.5517956	exat	working	2022-09-09T00:00:00	8:00:00	9:00:00	37	74	561	2700	0.21
9906	ขึ้นเลียบแม่น้ำ	13.710806	100.5517956	exat	working	2022-09-09T00:00:00	9:00:00	10:00:00	36	73	528	2700	0.20
9907	ขึ้นเลียบแม่น้ำ	13.710806	100.5517956	exat	working	2022-09-09T00:00:00	10:00:00	11:00:00	32	69	503	2700	0.19
9908	ขึ้นเลียบแม่น้ำ	13.710806	100.5517956	exat	working	2022-09-09T00:00:00	11:00:00	12:00:00	37	84	2017	2700	0.75
9909	ขึ้นเลียบแม่น้ำ	13.710806	100.5517956	exat	working	2022-09-09T00:00:00	12:00:00	13:00:00	34	72	544	2700	0.20
9910	ขึ้นเลียบแม่น้ำ	13.710806	100.5517956	exat	working	2022-09-09T00:00:00	13:00:00	14:00:00	32	70	485	2700	0.18
9911	ขึ้นเลียบแม่น้ำ	13.710806	100.5517956	exat	working	2022-09-09T00:00:00	14:00:00	15:00:00	36	69	421	2700	0.16
9912	ขึ้นเลียบแม่น้ำ	13.710806	100.5517956	exat	working	2022-09-09T00:00:00	15:00:00	16:00:00	34	72	428	2700	0.16
9913	ขึ้นเลียบแม่น้ำ	13.710806	100.5517956	exat	working	2022-09-09T00:00:00	16:00:00	17:00:00	37	88	3720	2700	1.38
9914	ขึ้นเลียบแม่น้ำ	13.710806	100.5517956	exat	working	2022-09-09T00:00:00	17:00:00	18:00:00	37	150	6072	2700	2.25
9915	ขึ้นเลียบแม่น้ำ	13.710806	100.5517956	exat	working	2022-09-09T00:00:00	18:00:00	19:00:00	21	121	535	2700	0.20
9916	ขึ้นเลียบแม่น้ำ	13.710806	100.5517956	exat	working	2022-10-09T00:00:00	5:00:00	6:00:00	29	39	116	2700	0.04
9917	ขึ้นเลียบแม่น้ำ	13.710806	100.5517956	exat	holiday	2022-10-09T00:00:00	6:00:00	7:00:00	21	121	355	2700	0.13
9918	ขึ้นเลียบแม่น้ำ	13.710806	100.5517956	exat	holiday	2022-10-09T00:00:00	8:00:00	9:00:00	37	59	378	2700	0.14
9919	ขึ้นเลียบแม่น้ำ	13.710806	100.5517956	exat	working	2022-10-09T00:00:00	9:00:00	10:00:00	34	54	312	2700	0.12
9920	ขึ้นเลียบแม่น้ำ	13.710806	100.5517956	exat	working	2022-10-09T00:00:00	10:00:00	11:00:00	32	56	327	2700	0.12
9921	ขึ้นเลียบแม่น้ำ	13.710806	100.5517956	exat	holiday	2022-10-09T00:00:00	11:00:00	12:00:00	37	108	4245	2700	1.57
9922	ขึ้นเลียบแม่น้ำ	13.710806	100.5517956	exat	working	2022-10-09T00:00:00	12:00:00	13:00:00	32	57	373	2700	0.14
9923	ขึ้นเลียบแม่น้ำ	13.710806	100.5517956	exat	working	2022-10-09T00:00:00	13:00:00	14:00:00	35	57	316	2700	0.12
9924	ขึ้นเลียบแม่น้ำ	13.710806	100.5517956	exat	working	2022-10-09T00:00:00	14:00:00	15:00:00	34	55	306	2700	0.11
9925	ขึ้นเลียบแม่น้ำ	13.710806	100.5517956	exat	working	2022-10-09T00:00:00	15:00:00	16:00:00	34	54	363	2700	0.13
9926	ขึ้นเลียบแม่น้ำ	13.710806	100.5517956	exat	holiday	2022-10-09T00:00:00	16:00:00	17:00:00	37	79	1479	2700	0.55
9927	ขึ้นเลียบแม่น้ำ	13.710806	100.5517956	exat	holiday	2022-10-09T00:00:00	17:00:00	18:00:00	37	107	4948	2700	1.83
9928	ขึ้นเลียบแม่น้ำ	13.710806	100.5517956	exat	holiday	2022-10-09T00:00:00	18:00:00	19:00:00	37	70	4075	2700	1.51
9929	ขึ้นเลียบแม่น้ำ	13.710806	100.5517956	exat	working	2022-11-09T00:00:00	5:00:00	6:00:00	30	37	72	2700	0.03
9930	ขึ้นเลียบแม่น้ำ	13.710806	100.5517956	exat	holiday	2022-11-09T00:00:00	6:00:00	7:00:00	21	121	228	2700	0.08
9931	ขึ้นเลียบแม่น้ำ	13.710806	100.5517956	exat	holiday	2022-11-09T00:00:00	8:00:00	9:00:00	22	35	225	2700	0.08
9932	ขึ้นเลียบแม่น้ำ	13.710806	100.5517956	exat	working	2022-11-09T00:00:00	9:00:00	10:00:00	20	122	177	2700	0.07
9933	ขึ้นเลียบแม่น้ำ	13.710806	100.5517956	exat	working	2022-11-09T00:00:00	10:00:00	11:00:00	20	121	186	2700	0.07
9934	ขึ้นเลียบแม่น้ำ	13.710806	100.5517956	exat	holiday	2022-11-09T00:00:00	11:00:00	12:00:00	22	65	2536	2700	0.94
9935	ขึ้นเลียบแม่น้ำ	13.710806	100.5517956	exat	working	2022-11-09T00:00:00	12:00:00	13:00:00	20	122	198	2700	0.07
9936	ขึ้นเลียบแม่น้ำ	13.710806	100.5517956	exat	working	2022-11-09T00:00:00	13:00:00	14:00:00	21	121	176	2700	0.07
9937	ขึ้นเลียบแม่น้ำ	13.710806	100.5517956	exat	working	2022-11-09T00:00:00	14:00:00	15:00:00	21	121	195	2700	0.07
9938	ขึ้นเลียบแม่น้ำ	13.710806	100.5517956	exat	working	2022-11-09T00:00:00	15:00:00	16:00:00	21	121	191	2700	0.07
9939	ขึ้นเลียบแม่น้ำ	13.710806	100.5517956	exat	holiday	2022-11-09T00:00:00	16:00:00	17:00:00	22	47	877	2700	0.32
9940	ขึ้นเลียบแม่น้ำ	13.710806	100.5517956	exat	holiday	2022-11-09T00:00:00	17:00:00	18:00:00	22	64	2996	2700	1.11
9941	ขึ้นเลียบแม่น้ำ	13.710806	100.5517956	exat	holiday	2022-11-09T00:00:00	18:00:00	19:00:00	22	42	2433	2700	0.90
9942	ต่างระดับท่าเรือ_2	13.7150379	100.5558236	exat	working	2022-05-09T00:00:00	5:00:00	6:00:00	65	12	425	1800	0.24
9943	ต่างระดับท่าเรือ_2	13.7150379	100.5558236	exat	working	2022-05-09T00:00:00	6:00:00	7:00:00	46	36	1286	1800	0.71
9944	ต่างระดับท่าเรือ_2	13.7150379	100.5558236	exat	working	2022-05-09T00:00:00	7:00:00	8:00:00	64	32	1631	1800	0.91
9945	ต่างระดับท่าเรือ_2	13.7150379	100.5558236	exat	working	2022-05-09T00:00:00	8:00:00	9:00:00	78	42	1472	1800	0.82
9946	ต่างระดับท่าเรือ_2	13.7150379	100.5558236	exat	working	2022-05-09T00:00:00	9:00:00	10:00:00	77	37	1470	1800	0.82
9947	ต่างระดับท่าเรือ_2	13.7150379	100.5558236	exat	working	2022-05-09T00:00:00	10:00:00	11:00:00	77	36	1303	1800	0.72
9948	ต่างระดับท่าเรือ_2	13.7150379	100.5558236	exat	working	2022-05-09T00:00:00	11:00:00	12:00:00	43	60	1800	1800	1.00
9949	ต่างระดับท่าเรือ_2	13.7150379	100.5558236	exat	working	2022-05-09T00:00:00	12:00:00	13:00:00	74	38	1409	1800	0.78
9950	ต่างระดับท่าเรือ_2	13.7150379	100.5558236	exat	working	2022-05-09T00:00:00	13:00:00	14:00:00	74	38	1313	1800	0.73
9951	ต่างระดับท่าเรือ_2	13.7150379	100.5558236	exat	working	2022-05-09T00:00:00	14:00:00	15:00:00	73	40	1404	1800	0.78
9952	ต่างระดับท่าเรือ_2	13.7150379	100.5558236	exat	working	2022-05-09T00:00:00	15:00:00	16:00:00	74	37	1384	1800	0.77
9953	ต่างระดับท่าเรือ_2	13.7150379	100.5558236	exat	working	2022-05-09T00:00:00	16:00:00	17:00:00	91	44	3073	1800	1.71
9954	ต่างระดับท่าเรือ_2	13.7150379	100.5558236	exat	working	2022-05-09T00:00:00	17:00:00	18:00:00	91	46	4182	1800	2.32
9955	ต่างระดับท่าเรือ_2	13.7150379	100.5558236	exat	working	2022-05-09T00:00:00	18:00:00	19:00:00	62	32	1428	1800	0.79
9956	ต่างระดับท่าเรือ_2	13.7150379	100.5558236	exat	working	2022-06-09T00:00:00	5:00:00	6:00:00	97	12	364	1800	0.20
9957	ต่างระดับท่าเรือ_2	13.7150379	100.5558236	exat	working	2022-06-09T00:00:00	6:00:00	7:00:00	68	35	1081	1800	0.60
9958	ต่างระดับท่าเรือ_2	13.7150379	100.5558236	exat	working	2022-06-09T00:00:00	7:00:00	8:00:00	77	26	1824	1800	1.01
9959	ต่างระดับท่าเรือ_2	13.7150379	100.5558236	exat	working	2022-06-09T00:00:00	8:00:00	9:00:00	84	31	1696	1800	0.94
9960	ต่างระดับท่าเรือ_2	13.7150379	100.5558236	exat	working	2022-06-09T00:00:00	9:00:00	10:00:00	84	28	1677	1800	0.93
9961	ต่างระดับท่าเรือ_2	13.7150379	100.5558236	exat	working	2022-06-09T00:00:00	10:00:00	11:00:00	84	27	1598	1800	0.89
9962	ต่างระดับท่าเรือ_2	13.7150379	100.5558236	exat	working	2022-06-09T00:00:00	11:00:00	12:00:00	67	50	2899	1800	1.61
9963	ต่างระดับท่าเรือ_2	13.7150379	100.5558236	exat	working	2022-06-09T00:00:00	12:00:00	13:00:00	82	27	1672	1800	0.93
9964	ต่างระดับท่าเรือ_2	13.7150379	100.5558236	exat	working	2022-06-09T00:00:00	13:00:00	14:00:00	80	27	1568	1800	0.87
9965	ต่างระดับท่าเรือ_2	13.7150379	100.5558236	exat	working	2022-06-09T00:00:00	14:00:00	15:00:00	81	30	1679	1800	0.93
9966	ต่างระดับท่าเรือ_2	13.7150379	100.5558236	exat	working	2022-06-09T00:00:00	15:00:00	16:00:00	81	27	1656	1800	0.92
9967	ต่างระดับท่าเรือ_2	13.7150379	100.5558236	exat	working	2022-06-09T00:00:00	16:00:00	17:00:00	91	41	3126	1800	1.74
9968	ต่างระดับท่าเรือ_2	13.7150379	100.5558236	exat	working	2022-06-09T00:00:00	17:00:00	18:00:00	91	42	3519	1800	1.96
9969	ต่างระดับท่าเรือ_2	13.7150379	100.5558236	exat	working	2022-06-09T00:00:00	18:00:00	19:00:00	76	28	2224	1800	1.24
9970	ต่างระดับท่าเรือ_2	13.7150379	100.5558236	exat	working	2022-07-09T00:00:00	5:00:00	6:00:00	129	11	282	1800	0.16
9971	ต่างระดับท่าเรือ_2	13.7150379	100.5558236	exat	working	2022-07-09T00:00:00	6:00:00	7:00:00	91	35	912	1800	0.51
9972	ต่างระดับท่าเรือ_2	13.7150379	100.5558236	exat	working	2022-07-09T00:00:00	7:00:00	8:00:00	91	20	2020	1800	1.12
9973	ต่างระดับท่าเรือ_2	13.7150379	100.5558236	exat	working	2022-07-09T00:00:00	8:00:00	9:00:00	91	21	2002	1800	1.11
9974	ต่างระดับท่าเรือ_2	13.7150379	100.5558236	exat	working	2022-07-09T00:00:00	9:00:00	10:00:00	90	19	1834	1800	1.02
9975	ต่างระดับท่าเรือ_2	13.7150379	100.5558236	exat	working	2022-07-09T00:00:00	10:00:00	11:00:00	90	17	1927	1800	1.07
9976	ต่างระดับท่าเรือ_2	13.7150379	100.5558236	exat	working	2022-07-09T00:00:00	11:00:00	12:00:00	91	41	3978	1800	2.21
9977	ต่างระดับท่าเรือ_2	13.7150379	100.5558236	exat	working	2022-07-09T00:00:00	12:00:00	13:00:00	90	16	1996	1800	1.11
9978	ต่างระดับท่าเรือ_2	13.7150379	100.5558236	exat	working	2022-07-09T00:00:00	13:00:00	14:00:00	86	17	1895	1800	1.05
9979	ต่างระดับท่าเรือ_2	13.7150379	100.5558236	exat	working	2022-07-09T00:00:00	14:00:00	15:00:00	89	19	1998	1800	1.11
9980	ต่างระดับท่าเรือ_2	13.7150379	100.5558236	exat	working	2022-07-09T00:00:00	15:00:00	16:00:00	88	17	1994	1800	1.11
9981	ต่างระดับท่าเรือ_2	13.7150379	100.5558236	exat	working	2022-07-09T00:00:00	16:00:00	17:00:00	91	39	3093	1800	1.72
9982	ต่างระดับท่าเรือ_2	13.7150379	100.5558236	exat	working	2022-07-09T00:00:00	17:00:00	18:00:00	91	37	2925	1800	1.63
9983	ต่างระดับท่าเรือ_2	13.7150379	100.5558236	exat	working	2022-07-09T00:00:00	18:00:00	19:00:00	91	25	3071	1800	1.71
9984	ต่างระดับท่าเรือ_2	13.7150379	100.5558236	exat	working	2022-08-09T00:00:00	5:00:00	6:00:00	130	8	266	1800	0.15
9985	ต่างระดับท่าเรือ_2	13.7150379	100.5558236	exat	working	2022-08-09T00:00:00	6:00:00	7:00:00	91	24	809	1800	0.45
9986	ต่างระดับท่าเรือ_2	13.7150379	100.5558236	exat	working	2022-08-09T00:00:00	7:00:00	8:00:00	91	23	1745	1800	0.97
9987	ต่างระดับท่าเรือ_2	13.7150379	100.5558236	exat	working	2022-08-09T00:00:00	8:00:00	9:00:00	91	23	1744	1800	0.97
9988	ต่างระดับท่าเรือ_2	13.7150379	100.5558236	exat	working	2022-08-09T00:00:00	9:00:00	10:00:00	89	20	1668	1800	0.93
9989	ต่างระดับท่าเรือ_2	13.7150379	100.5558236	exat	working	2022-08-09T00:00:00	10:00:00	11:00:00	89	20	1670	1800	0.93
9990	ต่างระดับท่าเรือ_2	13.7150379	100.5558236	exat	working	2022-08-09T00:00:00	11:00:00	12:00:00	91	30	2561	1800	1.42
9991	ต่างระดับท่าเรือ_2	13.7150379	100.5558236	exat	working	2022-08-09T00:00:00	12:00:00	13:00:00	90	19	1643	1800	0.91
9992	ต่างระดับท่าเรือ_2	13.7150379	100.5558236	exat	working	2022-08-09T00:00:00	13:00:00	14:00:00	86	20	1596	1800	0.89
9993	ต่างระดับท่าเรือ_2	13.7150379	100.5558236	exat	working	2022-08-09T00:00:00	14:00:00	15:00:00	88	21	1676	1800	0.93
9994	ต่างระดับท่าเรือ_2	13.7150379	100.5558236	exat	working	2022-08-09T00:00:00	15:00:00	16:00:00	87	20	1618	1800	0.90
9995	ต่างระดับท่าเรือ_2	13.7150379	100.5558236	exat	working	2022-08-09T00:00:00	16:00:00	17:00:00	84	28	2417	1800	1.34
9996	ต่างระดับท่าเรือ_2	13.7150379	100.5558236	exat	working	2022-08-09T00:00:00	17:00:00	18:00:00	91	28	2359	1800	1.31
9997	ต่างระดับท่าเรือ_2	13.7150379	100.5558236	exat	working	2022-08-09T00:00:00	18:00:00	19:00:00	91	24	2449	1800	1.36
9998	ต่างระดับท่าเรือ_2	13.7150379	100.5558236	exat	working	2022-09-09T00:00:00	5:00:00	6:00:00	129	5	226	1800	0.13
9999	ต่างระดับท่าเรือ_2	13.7150379	100.5558236	exat	working	2022-09-09T00:00:00	6:00:00	7:00:00	91	14	715	1800	0.40
10000	ต่างระดับท่าเรือ_2	13.7150379	100.5558236	exat	working	2022-09-09T00:00:00	7:00:00	8:00:00	91	27	1440	1800	0.80
10001	ต่างระดับท่าเรือ_2	13.7150379	100.5558236	exat	working	2022-09-09T00:00:00	8:00:00	9:00:00	91	25	1448	1800	0.80
10002	ต่างระดับท่าเรือ_2	13.7150379	100.5558236	exat	working	2022-09-09T00:00:00	9:00:00	10:00:00	88	20	1406	1800	0.78
10003	ต่างระดับท่าเรือ_2	13.7150379	100.5558236	exat	working	2022-09-09T00:00:00	10:00:00	11:00:00	87	23	1406	1800	0.78
10004	ต่างระดับท่าเรือ_2	13.7150379	100.5558236	exat	working	2022-09-09T00:00:00	11:00:00	12:00:00	91	19	1102	1800	0.61
10005	ต่างระดับท่าเรือ_2	13.7150379	100.5558236	exat	working	2022-09-09T00:00:00	12:00:00	13:00:00	90	22	1313	1800	0.73
10006	ต่างระดับท่าเรือ_2	13.7150379	100.5558236	exat	working	2022-09-09T00:00:00	13:00:00	14:00:00	87	22	1312	1800	0.73
10007	ต่างระดับท่าเรือ_2	13.7150379	100.5558236	exat	working	2022-09-09T00:00:00	14:00:00	15:00:00	87	23	1347	1800	0.75
10008	ต่างระดับท่าเรือ_2	13.7150379	100.5558236	exat	working	2022-09-09T00:00:00	15:00:00	16:00:00	87	24	1272	1800	0.71
10009	ต่างระดับท่าเรือ_2	13.7150379	100.5558236	exat	working	2022-09-09T00:00:00	16:00:00	17:00:00	77	17	1807	1800	1.00
10010	ต่างระดับท่าเรือ_2	13.7150379	100.5558236	exat	working	2022-09-09T00:00:00	17:00:00	18:00:00	91	19	1830	1800	1.02
10011	ต่างระดับท่าเรือ_2	13.7150379	100.5558236	exat	working	2022-09-09T00:00:00	18:00:00	19:00:00	91	22	1809	1800	1.01
10012	ต่างระดับท่าเรือ_2	13.7150379	100.5558236	exat	working	2022-10-09T00:00:00	5:00:00	6:00:00	29	42	225	1800	0.13
10013	ต่างระดับท่าเรือ_2	13.7150379	100.5558236	exat	holiday	2022-10-09T00:00:00	6:00:00	7:00:00	21	121	726	1800	0.40
10014	ต่างระดับท่าเรือ_2	13.7150379	100.5558236	exat	holiday	2022-10-09T00:00:00	7:00:00	8:00:00	91	27	1451	1800	0.81
10015	ต่างระดับท่าเรือ_2	13.7150379	100.5558236	exat	holiday	2022-10-09T00:00:00	8:00:00	9:00:00	91	22	2379	1800	1.32
10016	ต่างระดับท่าเรือ_2	13.7150379	100.5558236	exat	working	2022-10-09T00:00:00	9:00:00	10:00:00	86	18	2341	1800	1.30
10017	ต่างระดับท่าเรือ_2	13.7150379	100.5558236	exat	working	2022-10-09T00:00:00	10:00:00	11:00:00	88	17	2276	1800	1.26
10018	ต่างระดับท่าเรือ_2	13.7150379	100.5558236	exat	holiday	2022-10-09T00:00:00	11:00:00	12:00:00	91	29	2189	1800	1.22
10019	ต่างระดับท่าเรือ_2	13.7150379	100.5558236	exat	working	2022-10-09T00:00:00	12:00:00	13:00:00	87	17	2277	1800	1.27
10020	ต่างระดับท่าเรือ_2	13.7150379	100.5558236	exat	working	2022-10-09T00:00:00	13:00:00	14:00:00	86	17	2363	1800	1.31
10021	ต่างระดับท่าเรือ_2	13.7150379	100.5558236	exat	working	2022-10-09T00:00:00	14:00:00	15:00:00	88	19	2292	1800	1.27
10022	ต่างระดับท่าเรือ_2	13.7150379	100.5558236	exat	working	2022-10-09T00:00:00	15:00:00	16:00:00	89	18	2329	1800	1.29
10023	ต่างระดับท่าเรือ_2	13.7150379	100.5558236	exat	holiday	2022-10-09T00:00:00	16:00:00	17:00:00	91	21	1999	1800	1.11
10024	ต่างระดับท่าเรือ_2	13.7150379	100.5558236	exat	holiday	2022-10-09T00:00:00	17:00:00	18:00:00	78	32	2375	1800	1.32
10025	ต่างระดับท่าเรือ_2	13.7150379	100.5558236	exat	holiday	2022-10-09T00:00:00	18:00:00	19:00:00	91	21	1620	1800	0.90
10026	ต่างระดับท่าเรือ_2	13.7150379	100.5558236	exat	working	2022-11-09T00:00:00	5:00:00	6:00:00	29	37	134	1800	0.07
10027	ต่างระดับท่าเรือ_2	13.7150379	100.5558236	exat	holiday	2022-11-09T00:00:00	6:00:00	7:00:00	21	121	434	1800	0.24
10028	ต่างระดับท่าเรือ_2	13.7150379	100.5558236	exat	holiday	2022-11-09T00:00:00	7:00:00	8:00:00	55	16	869	1800	0.48
10029	ต่างระดับท่าเรือ_2	13.7150379	100.5558236	exat	holiday	2022-11-09T00:00:00	8:00:00	9:00:00	55	14	1424	1800	0.79
10030	ต่างระดับท่าเรือ_2	13.7150379	100.5558236	exat	working	2022-11-09T00:00:00	9:00:00	10:00:00	52	11	1433	1800	0.80
10031	ต่างระดับท่าเรือ_2	13.7150379	100.5558236	exat	working	2022-11-09T00:00:00	10:00:00	11:00:00	53	11	1364	1800	0.76
10032	ต่างระดับท่าเรือ_2	13.7150379	100.5558236	exat	holiday	2022-11-09T00:00:00	11:00:00	12:00:00	55	18	1310	1800	0.73
10033	ต่างระดับท่าเรือ_2	13.7150379	100.5558236	exat	working	2022-11-09T00:00:00	12:00:00	13:00:00	52	10	1354	1800	0.75
10034	ต่างระดับท่าเรือ_2	13.7150379	100.5558236	exat	working	2022-11-09T00:00:00	13:00:00	14:00:00	52	10	1405	1800	0.78
10035	ต่างระดับท่าเรือ_2	13.7150379	100.5558236	exat	working	2022-11-09T00:00:00	14:00:00	15:00:00	53	11	1378	1800	0.77
10036	ต่างระดับท่าเรือ_2	13.7150379	100.5558236	exat	working	2022-11-09T00:00:00	15:00:00	16:00:00	54	11	1376	1800	0.76
10037	ต่างระดับท่าเรือ_2	13.7150379	100.5558236	exat	holiday	2022-11-09T00:00:00	16:00:00	17:00:00	55	13	1206	1800	0.67
10038	ต่างระดับท่าเรือ_2	13.7150379	100.5558236	exat	holiday	2022-11-09T00:00:00	17:00:00	18:00:00	47	20	1421	1800	0.79
10039	ต่างระดับท่าเรือ_2	13.7150379	100.5558236	exat	holiday	2022-11-09T00:00:00	18:00:00	19:00:00	55	13	988	1800	0.55
10040	CCTV-71ทางลงบางจาก	13.6830186	100.6029119	exat	working	2022-05-09T00:00:00	5:00:00	6:00:00	103	7	236	2700	0.09
10041	CCTV-71ทางลงบางจาก	13.6830186	100.6029119	exat	working	2022-05-09T00:00:00	6:00:00	7:00:00	73	19	732	2700	0.27
10042	CCTV-71ทางลงบางจาก	13.6830186	100.6029119	exat	working	2022-05-09T00:00:00	7:00:00	8:00:00	73	18	728	2700	0.27
10043	CCTV-71ทางลงบางจาก	13.6830186	100.6029119	exat	working	2022-05-09T00:00:00	8:00:00	9:00:00	66	25	2363	2700	0.88
10044	CCTV-71ทางลงบางจาก	13.6830186	100.6029119	exat	working	2022-05-09T00:00:00	9:00:00	10:00:00	64	22	2246	2700	0.83
10045	CCTV-71ทางลงบางจาก	13.6830186	100.6029119	exat	working	2022-05-09T00:00:00	10:00:00	11:00:00	64	22	2308	2700	0.85
10046	CCTV-71ทางลงบางจาก	13.6830186	100.6029119	exat	working	2022-05-09T00:00:00	11:00:00	12:00:00	72	20	1465	2700	0.54
10047	CCTV-71ทางลงบางจาก	13.6830186	100.6029119	exat	working	2022-05-09T00:00:00	12:00:00	13:00:00	63	20	2222	2700	0.82
10048	CCTV-71ทางลงบางจาก	13.6830186	100.6029119	exat	working	2022-05-09T00:00:00	13:00:00	14:00:00	65	21	2331	2700	0.86
10049	CCTV-71ทางลงบางจาก	13.6830186	100.6029119	exat	working	2022-05-09T00:00:00	14:00:00	15:00:00	61	24	2313	2700	0.86
10050	CCTV-71ทางลงบางจาก	13.6830186	100.6029119	exat	working	2022-05-09T00:00:00	15:00:00	16:00:00	61	20	2279	2700	0.84
10051	CCTV-71ทางลงบางจาก	13.6830186	100.6029119	exat	working	2022-05-09T00:00:00	16:00:00	17:00:00	73	16	925	2700	0.34
10052	CCTV-71ทางลงบางจาก	13.6830186	100.6029119	exat	working	2022-05-09T00:00:00	17:00:00	18:00:00	36	17	365	2700	0.14
10053	CCTV-71ทางลงบางจาก	13.6830186	100.6029119	exat	working	2022-05-09T00:00:00	18:00:00	19:00:00	68	39	1828	2700	0.68
10054	CCTV-71ทางลงบางจาก	13.6830186	100.6029119	exat	working	2022-06-09T00:00:00	5:00:00	6:00:00	103	6	227	2700	0.08
10055	CCTV-71ทางลงบางจาก	13.6830186	100.6029119	exat	working	2022-06-09T00:00:00	6:00:00	7:00:00	73	19	728	2700	0.27
10056	CCTV-71ทางลงบางจาก	13.6830186	100.6029119	exat	working	2022-06-09T00:00:00	7:00:00	8:00:00	73	26	758	2700	0.28
10057	CCTV-71ทางลงบางจาก	13.6830186	100.6029119	exat	working	2022-06-09T00:00:00	8:00:00	9:00:00	69	23	1714	2700	0.63
10058	CCTV-71ทางลงบางจาก	13.6830186	100.6029119	exat	working	2022-06-09T00:00:00	9:00:00	10:00:00	67	21	1632	2700	0.60
10059	CCTV-71ทางลงบางจาก	13.6830186	100.6029119	exat	working	2022-06-09T00:00:00	10:00:00	11:00:00	67	21	1622	2700	0.60
10060	CCTV-71ทางลงบางจาก	13.6830186	100.6029119	exat	working	2022-06-09T00:00:00	11:00:00	12:00:00	72	16	1171	2700	0.43
10061	CCTV-71ทางลงบางจาก	13.6830186	100.6029119	exat	working	2022-06-09T00:00:00	12:00:00	13:00:00	67	18	1619	2700	0.60
10062	CCTV-71ทางลงบางจาก	13.6830186	100.6029119	exat	working	2022-06-09T00:00:00	13:00:00	14:00:00	67	20	1650	2700	0.61
10063	CCTV-71ทางลงบางจาก	13.6830186	100.6029119	exat	working	2022-06-09T00:00:00	14:00:00	15:00:00	66	22	1659	2700	0.61
10064	CCTV-71ทางลงบางจาก	13.6830186	100.6029119	exat	working	2022-06-09T00:00:00	15:00:00	16:00:00	66	19	1677	2700	0.62
10065	CCTV-71ทางลงบางจาก	13.6830186	100.6029119	exat	working	2022-06-09T00:00:00	16:00:00	17:00:00	73	14	842	2700	0.31
10066	CCTV-71ทางลงบางจาก	13.6830186	100.6029119	exat	working	2022-06-09T00:00:00	17:00:00	18:00:00	54	15	728	2700	0.27
10067	CCTV-71ทางลงบางจาก	13.6830186	100.6029119	exat	working	2022-06-09T00:00:00	18:00:00	19:00:00	70	31	1571	2700	0.58
10068	CCTV-71ทางลงบางจาก	13.6830186	100.6029119	exat	working	2022-07-09T00:00:00	5:00:00	6:00:00	103	6	234	2700	0.09
10069	CCTV-71ทางลงบางจาก	13.6830186	100.6029119	exat	working	2022-07-09T00:00:00	6:00:00	7:00:00	73	19	715	2700	0.26
10070	CCTV-71ทางลงบางจาก	13.6830186	100.6029119	exat	working	2022-07-09T00:00:00	7:00:00	8:00:00	73	33	736	2700	0.27
10071	CCTV-71ทางลงบางจาก	13.6830186	100.6029119	exat	working	2022-07-09T00:00:00	8:00:00	9:00:00	73	21	1112	2700	0.41
10072	CCTV-71ทางลงบางจาก	13.6830186	100.6029119	exat	working	2022-07-09T00:00:00	9:00:00	10:00:00	70	19	998	2700	0.37
10073	CCTV-71ทางลงบางจาก	13.6830186	100.6029119	exat	working	2022-07-09T00:00:00	10:00:00	11:00:00	71	21	1037	2700	0.38
10074	CCTV-71ทางลงบางจาก	13.6830186	100.6029119	exat	working	2022-07-09T00:00:00	11:00:00	12:00:00	73	13	927	2700	0.34
10075	CCTV-71ทางลงบางจาก	13.6830186	100.6029119	exat	working	2022-07-09T00:00:00	12:00:00	13:00:00	71	17	1022	2700	0.38
10076	CCTV-71ทางลงบางจาก	13.6830186	100.6029119	exat	working	2022-07-09T00:00:00	13:00:00	14:00:00	68	19	978	2700	0.36
10077	CCTV-71ทางลงบางจาก	13.6830186	100.6029119	exat	working	2022-07-09T00:00:00	14:00:00	15:00:00	71	20	976	2700	0.36
10078	CCTV-71ทางลงบางจาก	13.6830186	100.6029119	exat	working	2022-07-09T00:00:00	15:00:00	16:00:00	72	18	1033	2700	0.38
10079	CCTV-71ทางลงบางจาก	13.6830186	100.6029119	exat	working	2022-07-09T00:00:00	16:00:00	17:00:00	73	13	730	2700	0.27
10080	CCTV-71ทางลงบางจาก	13.6830186	100.6029119	exat	working	2022-07-09T00:00:00	17:00:00	18:00:00	73	13	1083	2700	0.40
10081	CCTV-71ทางลงบางจาก	13.6830186	100.6029119	exat	working	2022-07-09T00:00:00	18:00:00	19:00:00	73	23	1271	2700	0.47
10082	CCTV-71ทางลงบางจาก	13.6830186	100.6029119	exat	working	2022-08-09T00:00:00	5:00:00	6:00:00	103	6	248	2700	0.09
10083	CCTV-71ทางลงบางจาก	13.6830186	100.6029119	exat	working	2022-08-09T00:00:00	6:00:00	7:00:00	73	19	709	2700	0.26
10084	CCTV-71ทางลงบางจาก	13.6830186	100.6029119	exat	working	2022-08-09T00:00:00	7:00:00	8:00:00	73	25	1100	2700	0.41
10085	CCTV-71ทางลงบางจาก	13.6830186	100.6029119	exat	working	2022-08-09T00:00:00	8:00:00	9:00:00	73	17	915	2700	0.34
10086	CCTV-71ทางลงบางจาก	13.6830186	100.6029119	exat	working	2022-08-09T00:00:00	9:00:00	10:00:00	69	13	859	2700	0.32
10087	CCTV-71ทางลงบางจาก	13.6830186	100.6029119	exat	working	2022-08-09T00:00:00	10:00:00	11:00:00	70	16	872	2700	0.32
10088	CCTV-71ทางลงบางจาก	13.6830186	100.6029119	exat	working	2022-08-09T00:00:00	11:00:00	12:00:00	71	15	819	2700	0.30
10089	CCTV-71ทางลงบางจาก	13.6830186	100.6029119	exat	working	2022-08-09T00:00:00	12:00:00	13:00:00	70	13	873	2700	0.32
10090	CCTV-71ทางลงบางจาก	13.6830186	100.6029119	exat	working	2022-08-09T00:00:00	13:00:00	14:00:00	69	16	855	2700	0.32
10091	CCTV-71ทางลงบางจาก	13.6830186	100.6029119	exat	working	2022-08-09T00:00:00	14:00:00	15:00:00	70	14	829	2700	0.31
10092	CCTV-71ทางลงบางจาก	13.6830186	100.6029119	exat	working	2022-08-09T00:00:00	15:00:00	16:00:00	70	13	831	2700	0.31
10093	CCTV-71ทางลงบางจาก	13.6830186	100.6029119	exat	working	2022-08-09T00:00:00	16:00:00	17:00:00	73	15	726	2700	0.27
10094	CCTV-71ทางลงบางจาก	13.6830186	100.6029119	exat	working	2022-08-09T00:00:00	17:00:00	18:00:00	72	16	1359	2700	0.50
10095	CCTV-71ทางลงบางจาก	13.6830186	100.6029119	exat	working	2022-08-09T00:00:00	18:00:00	19:00:00	73	19	1296	2700	0.48
10096	CCTV-71ทางลงบางจาก	13.6830186	100.6029119	exat	working	2022-09-09T00:00:00	5:00:00	6:00:00	103	6	251	2700	0.09
10097	CCTV-71ทางลงบางจาก	13.6830186	100.6029119	exat	working	2022-09-09T00:00:00	6:00:00	7:00:00	73	19	721	2700	0.27
10098	CCTV-71ทางลงบางจาก	13.6830186	100.6029119	exat	working	2022-09-09T00:00:00	7:00:00	8:00:00	73	17	1468	2700	0.54
10099	CCTV-71ทางลงบางจาก	13.6830186	100.6029119	exat	working	2022-09-09T00:00:00	8:00:00	9:00:00	73	13	728	2700	0.27
10100	CCTV-71ทางลงบางจาก	13.6830186	100.6029119	exat	working	2022-09-09T00:00:00	9:00:00	10:00:00	69	8	689	2700	0.26
10101	CCTV-71ทางลงบางจาก	13.6830186	100.6029119	exat	working	2022-09-09T00:00:00	10:00:00	11:00:00	69	11	679	2700	0.25
10102	CCTV-71ทางลงบางจาก	13.6830186	100.6029119	exat	working	2022-09-09T00:00:00	11:00:00	12:00:00	70	17	733	2700	0.27
10103	CCTV-71ทางลงบางจาก	13.6830186	100.6029119	exat	working	2022-09-09T00:00:00	12:00:00	13:00:00	70	10	681	2700	0.25
10104	CCTV-71ทางลงบางจาก	13.6830186	100.6029119	exat	working	2022-09-09T00:00:00	13:00:00	14:00:00	70	12	728	2700	0.27
10105	CCTV-71ทางลงบางจาก	13.6830186	100.6029119	exat	working	2022-09-09T00:00:00	14:00:00	15:00:00	69	9	677	2700	0.25
10106	CCTV-71ทางลงบางจาก	13.6830186	100.6029119	exat	working	2022-09-09T00:00:00	15:00:00	16:00:00	69	9	635	2700	0.24
10107	CCTV-71ทางลงบางจาก	13.6830186	100.6029119	exat	working	2022-09-09T00:00:00	16:00:00	17:00:00	73	17	751	2700	0.28
10108	CCTV-71ทางลงบางจาก	13.6830186	100.6029119	exat	working	2022-09-09T00:00:00	17:00:00	18:00:00	72	20	1649	2700	0.61
10109	CCTV-71ทางลงบางจาก	13.6830186	100.6029119	exat	working	2022-09-09T00:00:00	18:00:00	19:00:00	73	15	1302	2700	0.48
10110	CCTV-71ทางลงบางจาก	13.6830186	100.6029119	exat	working	2022-10-09T00:00:00	5:00:00	6:00:00	105	4	130	2700	0.05
10111	CCTV-71ทางลงบางจาก	13.6830186	100.6029119	exat	holiday	2022-10-09T00:00:00	6:00:00	7:00:00	73	13	379	2700	0.14
10112	CCTV-71ทางลงบางจาก	13.6830186	100.6029119	exat	holiday	2022-10-09T00:00:00	7:00:00	8:00:00	73	15	549	2700	0.20
10113	CCTV-71ทางลงบางจาก	13.6830186	100.6029119	exat	working	2022-10-09T00:00:00	8:00:00	9:00:00	73	13	725	2700	0.27
10114	CCTV-71ทางลงบางจาก	13.6830186	100.6029119	exat	working	2022-10-09T00:00:00	9:00:00	10:00:00	70	8	629	2700	0.23
10115	CCTV-71ทางลงบางจาก	13.6830186	100.6029119	exat	working	2022-10-09T00:00:00	10:00:00	11:00:00	69	9	625	2700	0.23
10116	CCTV-71ทางลงบางจาก	13.6830186	100.6029119	exat	holiday	2022-10-09T00:00:00	11:00:00	12:00:00	73	13	1100	2700	0.41
10117	CCTV-71ทางลงบางจาก	13.6830186	100.6029119	exat	working	2022-10-09T00:00:00	12:00:00	13:00:00	70	12	623	2700	0.23
10118	CCTV-71ทางลงบางจาก	13.6830186	100.6029119	exat	working	2022-10-09T00:00:00	13:00:00	14:00:00	70	10	663	2700	0.25
10119	CCTV-71ทางลงบางจาก	13.6830186	100.6029119	exat	working	2022-10-09T00:00:00	14:00:00	15:00:00	71	11	616	2700	0.23
10120	CCTV-71ทางลงบางจาก	13.6830186	100.6029119	exat	working	2022-10-09T00:00:00	15:00:00	16:00:00	68	10	601	2700	0.22
10121	CCTV-71ทางลงบางจาก	13.6830186	100.6029119	exat	holiday	2022-10-09T00:00:00	16:00:00	17:00:00	73	13	547	2700	0.20
10122	CCTV-71ทางลงบางจาก	13.6830186	100.6029119	exat	holiday	2022-10-09T00:00:00	17:00:00	18:00:00	63	15	1097	2700	0.41
10123	CCTV-71ทางลงบางจาก	13.6830186	100.6029119	exat	holiday	2022-10-09T00:00:00	18:00:00	19:00:00	73	34	729	2700	0.27
10124	CCTV-71ทางลงบางจาก	13.6830186	100.6029119	exat	working	2022-11-09T00:00:00	5:00:00	6:00:00	62	3	70	2700	0.03
10125	CCTV-71ทางลงบางจาก	13.6830186	100.6029119	exat	holiday	2022-11-09T00:00:00	6:00:00	7:00:00	44	8	216	2700	0.08
10126	CCTV-71ทางลงบางจาก	13.6830186	100.6029119	exat	holiday	2022-11-09T00:00:00	7:00:00	8:00:00	44	9	336	2700	0.12
10127	CCTV-71ทางลงบางจาก	13.6830186	100.6029119	exat	working	2022-11-09T00:00:00	8:00:00	9:00:00	44	8	438	2700	0.16
10128	CCTV-71ทางลงบางจาก	13.6830186	100.6029119	exat	working	2022-11-09T00:00:00	9:00:00	10:00:00	42	5	364	2700	0.13
10129	CCTV-71ทางลงบางจาก	13.6830186	100.6029119	exat	working	2022-11-09T00:00:00	10:00:00	11:00:00	42	5	388	2700	0.14
10130	CCTV-71ทางลงบางจาก	13.6830186	100.6029119	exat	holiday	2022-11-09T00:00:00	11:00:00	12:00:00	44	8	670	2700	0.25
10131	CCTV-71ทางลงบางจาก	13.6830186	100.6029119	exat	working	2022-11-09T00:00:00	12:00:00	13:00:00	42	7	357	2700	0.13
10132	CCTV-71ทางลงบางจาก	13.6830186	100.6029119	exat	working	2022-11-09T00:00:00	13:00:00	14:00:00	42	6	384	2700	0.14
10133	CCTV-71ทางลงบางจาก	13.6830186	100.6029119	exat	working	2022-11-09T00:00:00	14:00:00	15:00:00	43	7	389	2700	0.14
10134	CCTV-71ทางลงบางจาก	13.6830186	100.6029119	exat	working	2022-11-09T00:00:00	15:00:00	16:00:00	41	6	352	2700	0.13
10135	CCTV-71ทางลงบางจาก	13.6830186	100.6029119	exat	holiday	2022-11-09T00:00:00	16:00:00	17:00:00	44	8	334	2700	0.12
10136	CCTV-71ทางลงบางจาก	13.6830186	100.6029119	exat	holiday	2022-11-09T00:00:00	17:00:00	18:00:00	38	9	657	2700	0.24
10137	CCTV-71ทางลงบางจาก	13.6830186	100.6029119	exat	holiday	2022-11-09T00:00:00	18:00:00	19:00:00	44	20	430	2700	0.16
10138	CCTV-69เหนือด่านสุขุมวิท62	13.6953936	100.595689	exat	working	2022-05-09T00:00:00	5:00:00	6:00:00	97	5	224	2700	0.08
10139	CCTV-69เหนือด่านสุขุมวิท62	13.6953936	100.595689	exat	working	2022-05-09T00:00:00	6:00:00	7:00:00	68	16	729	2700	0.27
10140	CCTV-69เหนือด่านสุขุมวิท62	13.6953936	100.595689	exat	working	2022-05-09T00:00:00	7:00:00	8:00:00	66	19	1825	2700	0.68
10141	CCTV-69เหนือด่านสุขุมวิท62	13.6953936	100.595689	exat	working	2022-05-09T00:00:00	8:00:00	9:00:00	64	16	2179	2700	0.81
10142	CCTV-69เหนือด่านสุขุมวิท62	13.6953936	100.595689	exat	working	2022-05-09T00:00:00	9:00:00	10:00:00	59	12	2115	2700	0.78
10143	CCTV-69เหนือด่านสุขุมวิท62	13.6953936	100.595689	exat	working	2022-05-09T00:00:00	10:00:00	11:00:00	59	12	2127	2700	0.79
10144	CCTV-69เหนือด่านสุขุมวิท62	13.6953936	100.595689	exat	working	2022-05-09T00:00:00	11:00:00	12:00:00	63	15	526	2700	0.19
10145	CCTV-69เหนือด่านสุขุมวิท62	13.6953936	100.595689	exat	working	2022-05-09T00:00:00	12:00:00	13:00:00	60	12	2055	2700	0.76
10146	CCTV-69เหนือด่านสุขุมวิท62	13.6953936	100.595689	exat	working	2022-05-09T00:00:00	13:00:00	14:00:00	60	12	2091	2700	0.77
10147	CCTV-69เหนือด่านสุขุมวิท62	13.6953936	100.595689	exat	working	2022-05-09T00:00:00	14:00:00	15:00:00	62	11	2131	2700	0.79
10148	CCTV-69เหนือด่านสุขุมวิท62	13.6953936	100.595689	exat	working	2022-05-09T00:00:00	15:00:00	16:00:00	59	14	2069	2700	0.77
10149	CCTV-69เหนือด่านสุขุมวิท62	13.6953936	100.595689	exat	working	2022-05-09T00:00:00	16:00:00	17:00:00	69	17	2181	2700	0.81
10150	CCTV-69เหนือด่านสุขุมวิท62	13.6953936	100.595689	exat	working	2022-05-09T00:00:00	17:00:00	18:00:00	67	13	734	2700	0.27
10151	CCTV-69เหนือด่านสุขุมวิท62	13.6953936	100.595689	exat	working	2022-05-09T00:00:00	18:00:00	19:00:00	66	17	938	2700	0.35
10152	CCTV-69เหนือด่านสุขุมวิท62	13.6953936	100.595689	exat	working	2022-06-09T00:00:00	5:00:00	6:00:00	93	6	297	2700	0.11
10153	CCTV-69เหนือด่านสุขุมวิท62	13.6953936	100.595689	exat	working	2022-06-09T00:00:00	6:00:00	7:00:00	65	17	914	2700	0.34
10154	CCTV-69เหนือด่านสุขุมวิท62	13.6953936	100.595689	exat	working	2022-06-09T00:00:00	7:00:00	8:00:00	68	18	1559	2700	0.58
10155	CCTV-69เหนือด่านสุขุมวิท62	13.6953936	100.595689	exat	working	2022-06-09T00:00:00	8:00:00	9:00:00	63	17	1907	2700	0.71
10156	CCTV-69เหนือด่านสุขุมวิท62	13.6953936	100.595689	exat	working	2022-06-09T00:00:00	9:00:00	10:00:00	58	12	1822	2700	0.67
10157	CCTV-69เหนือด่านสุขุมวิท62	13.6953936	100.595689	exat	working	2022-06-09T00:00:00	10:00:00	11:00:00	58	14	1888	2700	0.70
10158	CCTV-69เหนือด่านสุขุมวิท62	13.6953936	100.595689	exat	working	2022-06-09T00:00:00	11:00:00	12:00:00	64	14	549	2700	0.20
10159	CCTV-69เหนือด่านสุขุมวิท62	13.6953936	100.595689	exat	working	2022-06-09T00:00:00	12:00:00	13:00:00	60	15	1821	2700	0.67
10160	CCTV-69เหนือด่านสุขุมวิท62	13.6953936	100.595689	exat	working	2022-06-09T00:00:00	13:00:00	14:00:00	59	13	1866	2700	0.69
10161	CCTV-69เหนือด่านสุขุมวิท62	13.6953936	100.595689	exat	working	2022-06-09T00:00:00	14:00:00	15:00:00	61	14	1813	2700	0.67
10162	CCTV-69เหนือด่านสุขุมวิท62	13.6953936	100.595689	exat	working	2022-06-09T00:00:00	15:00:00	16:00:00	57	14	1836	2700	0.68
10163	CCTV-69เหนือด่านสุขุมวิท62	13.6953936	100.595689	exat	working	2022-06-09T00:00:00	16:00:00	17:00:00	67	17	1843	2700	0.68
10164	CCTV-69เหนือด่านสุขุมวิท62	13.6953936	100.595689	exat	working	2022-06-09T00:00:00	17:00:00	18:00:00	64	14	816	2700	0.30
10165	CCTV-69เหนือด่านสุขุมวิท62	13.6953936	100.595689	exat	working	2022-06-09T00:00:00	18:00:00	19:00:00	66	16	910	2700	0.34
10166	CCTV-69เหนือด่านสุขุมวิท62	13.6953936	100.595689	exat	working	2022-07-09T00:00:00	5:00:00	6:00:00	88	6	358	2700	0.13
10167	CCTV-69เหนือด่านสุขุมวิท62	13.6953936	100.595689	exat	working	2022-07-09T00:00:00	6:00:00	7:00:00	63	18	1115	2700	0.41
10168	CCTV-69เหนือด่านสุขุมวิท62	13.6953936	100.595689	exat	working	2022-07-09T00:00:00	7:00:00	8:00:00	69	16	1284	2700	0.48
10169	CCTV-69เหนือด่านสุขุมวิท62	13.6953936	100.595689	exat	working	2022-07-09T00:00:00	8:00:00	9:00:00	61	18	1621	2700	0.60
10170	CCTV-69เหนือด่านสุขุมวิท62	13.6953936	100.595689	exat	working	2022-07-09T00:00:00	9:00:00	10:00:00	57	13	1524	2700	0.56
10171	CCTV-69เหนือด่านสุขุมวิท62	13.6953936	100.595689	exat	working	2022-07-09T00:00:00	10:00:00	11:00:00	57	16	1632	2700	0.60
10172	CCTV-69เหนือด่านสุขุมวิท62	13.6953936	100.595689	exat	working	2022-07-09T00:00:00	11:00:00	12:00:00	65	13	563	2700	0.21
10173	CCTV-69เหนือด่านสุขุมวิท62	13.6953936	100.595689	exat	working	2022-07-09T00:00:00	12:00:00	13:00:00	59	17	1594	2700	0.59
10174	CCTV-69เหนือด่านสุขุมวิท62	13.6953936	100.595689	exat	working	2022-07-09T00:00:00	13:00:00	14:00:00	59	13	1605	2700	0.59
10175	CCTV-69เหนือด่านสุขุมวิท62	13.6953936	100.595689	exat	working	2022-07-09T00:00:00	14:00:00	15:00:00	59	17	1516	2700	0.56
10176	CCTV-69เหนือด่านสุขุมวิท62	13.6953936	100.595689	exat	working	2022-07-09T00:00:00	15:00:00	16:00:00	56	15	1583	2700	0.59
10177	CCTV-69เหนือด่านสุขุมวิท62	13.6953936	100.595689	exat	working	2022-07-09T00:00:00	16:00:00	17:00:00	66	17	1465	2700	0.54
10178	CCTV-69เหนือด่านสุขุมวิท62	13.6953936	100.595689	exat	working	2022-07-09T00:00:00	17:00:00	18:00:00	62	14	927	2700	0.34
10179	CCTV-69เหนือด่านสุขุมวิท62	13.6953936	100.595689	exat	working	2022-07-09T00:00:00	18:00:00	19:00:00	67	16	903	2700	0.33
10180	CCTV-69เหนือด่านสุขุมวิท62	13.6953936	100.595689	exat	working	2022-08-09T00:00:00	5:00:00	6:00:00	81	5	308	2700	0.11
10181	CCTV-69เหนือด่านสุขุมวิท62	13.6953936	100.595689	exat	working	2022-08-09T00:00:00	6:00:00	7:00:00	57	15	935	2700	0.35
10182	CCTV-69เหนือด่านสุขุมวิท62	13.6953936	100.595689	exat	working	2022-08-09T00:00:00	7:00:00	8:00:00	68	16	1083	2700	0.40
10183	CCTV-69เหนือด่านสุขุมวิท62	13.6953936	100.595689	exat	working	2022-08-09T00:00:00	8:00:00	9:00:00	65	24	1527	2700	0.57
10184	CCTV-69เหนือด่านสุขุมวิท62	13.6953936	100.595689	exat	working	2022-08-09T00:00:00	9:00:00	10:00:00	60	19	1441	2700	0.53
10185	CCTV-69เหนือด่านสุขุมวิท62	13.6953936	100.595689	exat	working	2022-08-09T00:00:00	10:00:00	11:00:00	61	21	1523	2700	0.56
10186	CCTV-69เหนือด่านสุขุมวิท62	13.6953936	100.595689	exat	working	2022-08-09T00:00:00	11:00:00	12:00:00	57	16	638	2700	0.24
10187	CCTV-69เหนือด่านสุขุมวิท62	13.6953936	100.595689	exat	working	2022-08-09T00:00:00	12:00:00	13:00:00	62	21	1528	2700	0.57
10188	CCTV-69เหนือด่านสุขุมวิท62	13.6953936	100.595689	exat	working	2022-08-09T00:00:00	13:00:00	14:00:00	61	19	1479	2700	0.55
10189	CCTV-69เหนือด่านสุขุมวิท62	13.6953936	100.595689	exat	working	2022-08-09T00:00:00	14:00:00	15:00:00	61	21	1500	2700	0.56
10190	CCTV-69เหนือด่านสุขุมวิท62	13.6953936	100.595689	exat	working	2022-08-09T00:00:00	15:00:00	16:00:00	60	22	1531	2700	0.57
10191	CCTV-69เหนือด่านสุขุมวิท62	13.6953936	100.595689	exat	working	2022-08-09T00:00:00	16:00:00	17:00:00	69	15	901	2700	0.33
10192	CCTV-69เหนือด่านสุขุมวิท62	13.6953936	100.595689	exat	working	2022-08-09T00:00:00	17:00:00	18:00:00	64	15	1208	2700	0.45
10193	CCTV-69เหนือด่านสุขุมวิท62	13.6953936	100.595689	exat	working	2022-08-09T00:00:00	18:00:00	19:00:00	65	16	893	2700	0.33
10194	CCTV-69เหนือด่านสุขุมวิท62	13.6953936	100.595689	exat	working	2022-09-09T00:00:00	5:00:00	6:00:00	73	5	232	2700	0.09
10195	CCTV-69เหนือด่านสุขุมวิท62	13.6953936	100.595689	exat	working	2022-09-09T00:00:00	6:00:00	7:00:00	52	13	727	2700	0.27
10196	CCTV-69เหนือด่านสุขุมวิท62	13.6953936	100.595689	exat	working	2022-09-09T00:00:00	7:00:00	8:00:00	67	15	913	2700	0.34
10197	CCTV-69เหนือด่านสุขุมวิท62	13.6953936	100.595689	exat	working	2022-09-09T00:00:00	8:00:00	9:00:00	68	30	1443	2700	0.53
10198	CCTV-69เหนือด่านสุขุมวิท62	13.6953936	100.595689	exat	working	2022-09-09T00:00:00	9:00:00	10:00:00	63	26	1367	2700	0.51
10199	CCTV-69เหนือด่านสุขุมวิท62	13.6953936	100.595689	exat	working	2022-09-09T00:00:00	10:00:00	11:00:00	64	26	1452	2700	0.54
10200	CCTV-69เหนือด่านสุขุมวิท62	13.6953936	100.595689	exat	working	2022-09-09T00:00:00	11:00:00	12:00:00	50	20	711	2700	0.26
10201	CCTV-69เหนือด่านสุขุมวิท62	13.6953936	100.595689	exat	working	2022-09-09T00:00:00	12:00:00	13:00:00	64	26	1431	2700	0.53
10202	CCTV-69เหนือด่านสุขุมวิท62	13.6953936	100.595689	exat	working	2022-09-09T00:00:00	13:00:00	14:00:00	63	25	1403	2700	0.52
10203	CCTV-69เหนือด่านสุขุมวิท62	13.6953936	100.595689	exat	working	2022-09-09T00:00:00	14:00:00	15:00:00	63	26	1419	2700	0.53
10204	CCTV-69เหนือด่านสุขุมวิท62	13.6953936	100.595689	exat	working	2022-09-09T00:00:00	15:00:00	16:00:00	63	29	1438	2700	0.53
10205	CCTV-69เหนือด่านสุขุมวิท62	13.6953936	100.595689	exat	working	2022-09-09T00:00:00	16:00:00	17:00:00	73	13	366	2700	0.14
10206	CCTV-69เหนือด่านสุขุมวิท62	13.6953936	100.595689	exat	working	2022-09-09T00:00:00	17:00:00	18:00:00	66	15	1460	2700	0.54
10207	CCTV-69เหนือด่านสุขุมวิท62	13.6953936	100.595689	exat	working	2022-09-09T00:00:00	18:00:00	19:00:00	64	16	916	2700	0.34
10208	CCTV-69เหนือด่านสุขุมวิท62	13.6953936	100.595689	exat	working	2022-10-09T00:00:00	5:00:00	6:00:00	101	4	177	2700	0.07
10209	CCTV-69เหนือด่านสุขุมวิท62	13.6953936	100.595689	exat	holiday	2022-10-09T00:00:00	6:00:00	7:00:00	71	13	536	2700	0.20
10210	CCTV-69เหนือด่านสุขุมวิท62	13.6953936	100.595689	exat	holiday	2022-10-09T00:00:00	7:00:00	8:00:00	58	14	1451	2700	0.54
10211	CCTV-69เหนือด่านสุขุมวิท62	13.6953936	100.595689	exat	holiday	2022-10-09T00:00:00	8:00:00	9:00:00	46	13	368	2700	0.14
10212	CCTV-69เหนือด่านสุขุมวิท62	13.6953936	100.595689	exat	working	2022-10-09T00:00:00	9:00:00	10:00:00	45	11	334	2700	0.12
10213	CCTV-69เหนือด่านสุขุมวิท62	13.6953936	100.595689	exat	working	2022-10-09T00:00:00	10:00:00	11:00:00	41	11	310	2700	0.11
10214	CCTV-69เหนือด่านสุขุมวิท62	13.6953936	100.595689	exat	holiday	2022-10-09T00:00:00	11:00:00	12:00:00	48	14	899	2700	0.33
10215	CCTV-69เหนือด่านสุขุมวิท62	13.6953936	100.595689	exat	working	2022-10-09T00:00:00	12:00:00	13:00:00	41	8	256	2700	0.09
10216	CCTV-69เหนือด่านสุขุมวิท62	13.6953936	100.595689	exat	working	2022-10-09T00:00:00	13:00:00	14:00:00	42	9	341	2700	0.13
10217	CCTV-69เหนือด่านสุขุมวิท62	13.6953936	100.595689	exat	working	2022-10-09T00:00:00	14:00:00	15:00:00	43	9	227	2700	0.08
10218	CCTV-69เหนือด่านสุขุมวิท62	13.6953936	100.595689	exat	working	2022-10-09T00:00:00	15:00:00	16:00:00	45	9	358	2700	0.13
10219	CCTV-69เหนือด่านสุขุมวิท62	13.6953936	100.595689	exat	holiday	2022-10-09T00:00:00	16:00:00	17:00:00	62	16	1091	2700	0.40
10220	CCTV-69เหนือด่านสุขุมวิท62	13.6953936	100.595689	exat	holiday	2022-10-09T00:00:00	17:00:00	18:00:00	51	16	1100	2700	0.41
10221	CCTV-69เหนือด่านสุขุมวิท62	13.6953936	100.595689	exat	working	2022-11-09T00:00:00	5:00:00	6:00:00	61	3	102	2700	0.04
10222	CCTV-69เหนือด่านสุขุมวิท62	13.6953936	100.595689	exat	holiday	2022-11-09T00:00:00	6:00:00	7:00:00	43	8	331	2700	0.12
10223	CCTV-69เหนือด่านสุขุมวิท62	13.6953936	100.595689	exat	holiday	2022-11-09T00:00:00	7:00:00	8:00:00	35	9	894	2700	0.33
10224	CCTV-69เหนือด่านสุขุมวิท62	13.6953936	100.595689	exat	holiday	2022-11-09T00:00:00	8:00:00	9:00:00	28	8	236	2700	0.09
10225	CCTV-69เหนือด่านสุขุมวิท62	13.6953936	100.595689	exat	working	2022-11-09T00:00:00	9:00:00	10:00:00	27	7	202	2700	0.07
10226	CCTV-69เหนือด่านสุขุมวิท62	13.6953936	100.595689	exat	working	2022-11-09T00:00:00	10:00:00	11:00:00	25	7	190	2700	0.07
10227	CCTV-69เหนือด่านสุขุมวิท62	13.6953936	100.595689	exat	holiday	2022-11-09T00:00:00	11:00:00	12:00:00	29	9	531	2700	0.20
10228	CCTV-69เหนือด่านสุขุมวิท62	13.6953936	100.595689	exat	working	2022-11-09T00:00:00	12:00:00	13:00:00	25	5	173	2700	0.06
10229	CCTV-69เหนือด่านสุขุมวิท62	13.6953936	100.595689	exat	working	2022-11-09T00:00:00	13:00:00	14:00:00	25	6	205	2700	0.08
10230	CCTV-69เหนือด่านสุขุมวิท62	13.6953936	100.595689	exat	working	2022-11-09T00:00:00	14:00:00	15:00:00	26	5	127	2700	0.05
10231	CCTV-69เหนือด่านสุขุมวิท62	13.6953936	100.595689	exat	working	2022-11-09T00:00:00	15:00:00	16:00:00	27	5	233	2700	0.09
10232	CCTV-69เหนือด่านสุขุมวิท62	13.6953936	100.595689	exat	holiday	2022-11-09T00:00:00	16:00:00	17:00:00	37	10	668	2700	0.25
10233	CCTV-69เหนือด่านสุขุมวิท62	13.6953936	100.595689	exat	holiday	2022-11-09T00:00:00	17:00:00	18:00:00	31	10	658	2700	0.24
10234	CCTV-65ท่าเรือเชื่อมเข้าS1	13.6979308	100.5915148	exat	working	2022-05-09T00:00:00	5:00:00	6:00:00	106	17	277	1800	0.15
10235	CCTV-65ท่าเรือเชื่อมเข้าS1	13.6979308	100.5915148	exat	working	2022-05-09T00:00:00	6:00:00	7:00:00	73	53	914	1800	0.51
10236	CCTV-65ท่าเรือเชื่อมเข้าS1	13.6979308	100.5915148	exat	working	2022-05-09T00:00:00	7:00:00	8:00:00	73	38	742	1800	0.41
10237	CCTV-65ท่าเรือเชื่อมเข้าS1	13.6979308	100.5915148	exat	working	2022-05-09T00:00:00	8:00:00	9:00:00	73	41	1279	1800	0.71
10238	CCTV-65ท่าเรือเชื่อมเข้าS1	13.6979308	100.5915148	exat	working	2022-05-09T00:00:00	9:00:00	10:00:00	69	37	1205	1800	0.67
10239	CCTV-65ท่าเรือเชื่อมเข้าS1	13.6979308	100.5915148	exat	working	2022-05-09T00:00:00	10:00:00	11:00:00	70	37	1227	1800	0.68
10240	CCTV-65ท่าเรือเชื่อมเข้าS1	13.6979308	100.5915148	exat	working	2022-05-09T00:00:00	11:00:00	12:00:00	73	39	533	1800	0.30
10241	CCTV-65ท่าเรือเชื่อมเข้าS1	13.6979308	100.5915148	exat	working	2022-05-09T00:00:00	12:00:00	13:00:00	69	40	1260	1800	0.70
10242	CCTV-65ท่าเรือเชื่อมเข้าS1	13.6979308	100.5915148	exat	working	2022-05-09T00:00:00	13:00:00	14:00:00	71	38	1135	1800	0.63
10243	CCTV-65ท่าเรือเชื่อมเข้าS1	13.6979308	100.5915148	exat	working	2022-05-09T00:00:00	14:00:00	15:00:00	72	40	1206	1800	0.67
10244	CCTV-65ท่าเรือเชื่อมเข้าS1	13.6979308	100.5915148	exat	working	2022-05-09T00:00:00	15:00:00	16:00:00	70	40	1119	1800	0.62
10245	CCTV-65ท่าเรือเชื่อมเข้าS1	13.6979308	100.5915148	exat	working	2022-05-09T00:00:00	16:00:00	17:00:00	73	42	2199	1800	1.22
10246	CCTV-65ท่าเรือเชื่อมเข้าS1	13.6979308	100.5915148	exat	working	2022-05-09T00:00:00	17:00:00	18:00:00	73	41	1470	1800	0.82
10247	CCTV-65ท่าเรือเชื่อมเข้าS1	13.6979308	100.5915148	exat	working	2022-05-09T00:00:00	18:00:00	19:00:00	73	50	1443	1800	0.80
10248	CCTV-65ท่าเรือเชื่อมเข้าS1	13.6979308	100.5915148	exat	working	2022-06-09T00:00:00	5:00:00	6:00:00	103	15	319	1800	0.18
10249	CCTV-65ท่าเรือเชื่อมเข้าS1	13.6979308	100.5915148	exat	working	2022-06-09T00:00:00	6:00:00	7:00:00	73	43	1012	1800	0.56
10250	CCTV-65ท่าเรือเชื่อมเข้าS1	13.6979308	100.5915148	exat	working	2022-06-09T00:00:00	7:00:00	8:00:00	73	40	1095	1800	0.61
10251	CCTV-65ท่าเรือเชื่อมเข้าS1	13.6979308	100.5915148	exat	working	2022-06-09T00:00:00	8:00:00	9:00:00	40	40	1001	1800	0.56
10252	CCTV-65ท่าเรือเชื่อมเข้าS1	13.6979308	100.5915148	exat	working	2022-06-09T00:00:00	9:00:00	10:00:00	36	38	925	1800	0.51
10253	CCTV-65ท่าเรือเชื่อมเข้าS1	13.6979308	100.5915148	exat	working	2022-06-09T00:00:00	10:00:00	11:00:00	35	36	936	1800	0.52
10254	CCTV-65ท่าเรือเชื่อมเข้าS1	13.6979308	100.5915148	exat	working	2022-06-09T00:00:00	11:00:00	12:00:00	73	39	810	1800	0.45
10255	CCTV-65ท่าเรือเชื่อมเข้าS1	13.6979308	100.5915148	exat	working	2022-06-09T00:00:00	12:00:00	13:00:00	36	39	976	1800	0.54
10256	CCTV-65ท่าเรือเชื่อมเข้าS1	13.6979308	100.5915148	exat	working	2022-06-09T00:00:00	13:00:00	14:00:00	38	38	949	1800	0.53
10257	CCTV-65ท่าเรือเชื่อมเข้าS1	13.6979308	100.5915148	exat	working	2022-06-09T00:00:00	14:00:00	15:00:00	38	40	907	1800	0.50
10258	CCTV-65ท่าเรือเชื่อมเข้าS1	13.6979308	100.5915148	exat	working	2022-06-09T00:00:00	15:00:00	16:00:00	37	40	900	1800	0.50
10259	CCTV-65ท่าเรือเชื่อมเข้าS1	13.6979308	100.5915148	exat	working	2022-06-09T00:00:00	16:00:00	17:00:00	73	39	1556	1800	0.86
10260	CCTV-65ท่าเรือเชื่อมเข้าS1	13.6979308	100.5915148	exat	working	2022-06-09T00:00:00	17:00:00	18:00:00	73	48	1353	1800	0.75
10261	CCTV-65ท่าเรือเชื่อมเข้าS1	13.6979308	100.5915148	exat	working	2022-06-09T00:00:00	18:00:00	19:00:00	73	42	1006	1800	0.56
10262	CCTV-65ท่าเรือเชื่อมเข้าS1	13.6979308	100.5915148	exat	working	2022-07-09T00:00:00	5:00:00	6:00:00	105	11	344	1800	0.19
10263	CCTV-65ท่าเรือเชื่อมเข้าS1	13.6979308	100.5915148	exat	working	2022-07-09T00:00:00	6:00:00	7:00:00	73	33	1094	1800	0.61
10264	CCTV-65ท่าเรือเชื่อมเข้าS1	13.6979308	100.5915148	exat	working	2022-07-09T00:00:00	7:00:00	8:00:00	73	43	1482	1800	0.82
10265	CCTV-65ท่าเรือเชื่อมเข้าS1	13.6979308	100.5915148	exat	working	2022-07-09T00:00:00	8:00:00	9:00:00	7	121	733	1800	0.41
10266	CCTV-65ท่าเรือเชื่อมเข้าS1	13.6979308	100.5915148	exat	working	2022-07-09T00:00:00	9:00:00	10:00:00	3	121	616	1800	0.34
10267	CCTV-65ท่าเรือเชื่อมเข้าS1	13.6979308	100.5915148	exat	working	2022-07-09T00:00:00	10:00:00	11:00:00	0	121	643	1800	0.36
10268	CCTV-65ท่าเรือเชื่อมเข้าS1	13.6979308	100.5915148	exat	working	2022-07-09T00:00:00	11:00:00	12:00:00	73	38	1082	1800	0.60
10269	CCTV-65ท่าเรือเชื่อมเข้าS1	13.6979308	100.5915148	exat	working	2022-07-09T00:00:00	12:00:00	13:00:00	4	122	716	1800	0.40
10270	CCTV-65ท่าเรือเชื่อมเข้าS1	13.6979308	100.5915148	exat	working	2022-07-09T00:00:00	13:00:00	14:00:00	5	121	731	1800	0.41
10271	CCTV-65ท่าเรือเชื่อมเข้าS1	13.6979308	100.5915148	exat	working	2022-07-09T00:00:00	14:00:00	15:00:00	4	121	597	1800	0.33
10272	CCTV-65ท่าเรือเชื่อมเข้าS1	13.6979308	100.5915148	exat	working	2022-07-09T00:00:00	15:00:00	16:00:00	4	121	714	1800	0.40
10273	CCTV-65ท่าเรือเชื่อมเข้าS1	13.6979308	100.5915148	exat	working	2022-07-09T00:00:00	16:00:00	17:00:00	73	36	895	1800	0.50
10274	CCTV-65ท่าเรือเชื่อมเข้าS1	13.6979308	100.5915148	exat	working	2022-07-09T00:00:00	17:00:00	18:00:00	73	54	1284	1800	0.71
10275	CCTV-65ท่าเรือเชื่อมเข้าS1	13.6979308	100.5915148	exat	working	2022-07-09T00:00:00	18:00:00	19:00:00	73	33	557	1800	0.31
10276	CCTV-65ท่าเรือเชื่อมเข้าS1	13.6979308	100.5915148	exat	working	2022-08-09T00:00:00	5:00:00	6:00:00	52	8	302	1800	0.17
10277	CCTV-65ท่าเรือเชื่อมเข้าS1	13.6979308	100.5915148	exat	working	2022-08-09T00:00:00	6:00:00	7:00:00	37	25	992	1800	0.55
10278	CCTV-65ท่าเรือเชื่อมเข้าS1	13.6979308	100.5915148	exat	working	2022-08-09T00:00:00	7:00:00	8:00:00	37	34	1120	1800	0.62
10279	CCTV-65ท่าเรือเชื่อมเข้าS1	13.6979308	100.5915148	exat	working	2022-08-09T00:00:00	8:00:00	9:00:00	40	41	1098	1800	0.61
10280	CCTV-65ท่าเรือเชื่อมเข้าS1	13.6979308	100.5915148	exat	working	2022-08-09T00:00:00	9:00:00	10:00:00	36	40	1011	1800	0.56
10281	CCTV-65ท่าเรือเชื่อมเข้าS1	13.6979308	100.5915148	exat	working	2022-08-09T00:00:00	10:00:00	11:00:00	36	37	991	1800	0.55
10282	CCTV-65ท่าเรือเชื่อมเข้าS1	13.6979308	100.5915148	exat	working	2022-08-09T00:00:00	11:00:00	12:00:00	73	53	1459	1800	0.81
10283	CCTV-65ท่าเรือเชื่อมเข้าS1	13.6979308	100.5915148	exat	working	2022-08-09T00:00:00	12:00:00	13:00:00	38	39	1050	1800	0.58
10284	CCTV-65ท่าเรือเชื่อมเข้าS1	13.6979308	100.5915148	exat	working	2022-08-09T00:00:00	13:00:00	14:00:00	38	40	1100	1800	0.61
10285	CCTV-65ท่าเรือเชื่อมเข้าS1	13.6979308	100.5915148	exat	working	2022-08-09T00:00:00	14:00:00	15:00:00	36	41	1029	1800	0.57
10286	CCTV-65ท่าเรือเชื่อมเข้าS1	13.6979308	100.5915148	exat	working	2022-08-09T00:00:00	15:00:00	16:00:00	38	40	1042	1800	0.58
10287	CCTV-65ท่าเรือเชื่อมเข้าS1	13.6979308	100.5915148	exat	working	2022-08-09T00:00:00	16:00:00	17:00:00	73	38	1460	1800	0.81
10288	CCTV-65ท่าเรือเชื่อมเข้าS1	13.6979308	100.5915148	exat	working	2022-08-09T00:00:00	17:00:00	18:00:00	73	40	1363	1800	0.76
10289	CCTV-65ท่าเรือเชื่อมเข้าS1	13.6979308	100.5915148	exat	working	2022-08-09T00:00:00	18:00:00	19:00:00	73	37	1364	1800	0.76
10290	CCTV-65ท่าเรือเชื่อมเข้าS1	13.6979308	100.5915148	exat	working	2022-09-09T00:00:00	5:00:00	6:00:00	29	41	299	1800	0.17
10291	CCTV-65ท่าเรือเชื่อมเข้าS1	13.6979308	100.5915148	exat	working	2022-09-09T00:00:00	6:00:00	7:00:00	21	121	919	1800	0.51
10292	CCTV-65ท่าเรือเชื่อมเข้าS1	13.6979308	100.5915148	exat	working	2022-09-09T00:00:00	7:00:00	8:00:00	21	121	733	1800	0.41
10293	CCTV-65ท่าเรือเชื่อมเข้าS1	13.6979308	100.5915148	exat	working	2022-09-09T00:00:00	8:00:00	9:00:00	73	43	1461	1800	0.81
10294	CCTV-65ท่าเรือเชื่อมเข้าS1	13.6979308	100.5915148	exat	working	2022-09-09T00:00:00	9:00:00	10:00:00	69	42	1401	1800	0.78
10295	CCTV-65ท่าเรือเชื่อมเข้าS1	13.6979308	100.5915148	exat	working	2022-09-09T00:00:00	10:00:00	11:00:00	71	38	1339	1800	0.74
10296	CCTV-65ท่าเรือเชื่อมเข้าS1	13.6979308	100.5915148	exat	working	2022-09-09T00:00:00	11:00:00	12:00:00	73	68	1817	1800	1.01
10297	CCTV-65ท่าเรือเชื่อมเข้าS1	13.6979308	100.5915148	exat	working	2022-09-09T00:00:00	12:00:00	13:00:00	72	40	1354	1800	0.75
10298	CCTV-65ท่าเรือเชื่อมเข้าS1	13.6979308	100.5915148	exat	working	2022-09-09T00:00:00	13:00:00	14:00:00	70	42	1441	1800	0.80
10299	CCTV-65ท่าเรือเชื่อมเข้าS1	13.6979308	100.5915148	exat	working	2022-09-09T00:00:00	14:00:00	15:00:00	68	42	1441	1800	0.80
10300	CCTV-65ท่าเรือเชื่อมเข้าS1	13.6979308	100.5915148	exat	working	2022-09-09T00:00:00	15:00:00	16:00:00	72	41	1375	1800	0.76
10301	CCTV-65ท่าเรือเชื่อมเข้าS1	13.6979308	100.5915148	exat	working	2022-09-09T00:00:00	16:00:00	17:00:00	73	41	2018	1800	1.12
10302	CCTV-65ท่าเรือเชื่อมเข้าS1	13.6979308	100.5915148	exat	working	2022-09-09T00:00:00	17:00:00	18:00:00	73	26	1468	1800	0.82
10303	CCTV-65ท่าเรือเชื่อมเข้าS1	13.6979308	100.5915148	exat	working	2022-09-09T00:00:00	18:00:00	19:00:00	73	41	2199	1800	1.22
10304	CCTV-65ท่าเรือเชื่อมเข้าS1	13.6979308	100.5915148	exat	working	2022-10-09T00:00:00	5:00:00	6:00:00	104	12	238	1800	0.13
10305	CCTV-65ท่าเรือเชื่อมเข้าS1	13.6979308	100.5915148	exat	holiday	2022-10-09T00:00:00	6:00:00	7:00:00	73	38	748	1800	0.42
10306	CCTV-65ท่าเรือเชื่อมเข้าS1	13.6979308	100.5915148	exat	holiday	2022-10-09T00:00:00	7:00:00	8:00:00	73	17	383	1800	0.21
10307	CCTV-65ท่าเรือเชื่อมเข้าS1	13.6979308	100.5915148	exat	holiday	2022-10-09T00:00:00	8:00:00	9:00:00	73	38	1109	1800	0.62
10308	CCTV-65ท่าเรือเชื่อมเข้าS1	13.6979308	100.5915148	exat	working	2022-10-09T00:00:00	9:00:00	10:00:00	68	35	937	1800	0.52
10309	CCTV-65ท่าเรือเชื่อมเข้าS1	13.6979308	100.5915148	exat	working	2022-10-09T00:00:00	10:00:00	11:00:00	71	32	1079	1800	0.60
10310	CCTV-65ท่าเรือเชื่อมเข้าS1	13.6979308	100.5915148	exat	holiday	2022-10-09T00:00:00	11:00:00	12:00:00	73	41	1639	1800	0.91
10311	CCTV-65ท่าเรือเชื่อมเข้าS1	13.6979308	100.5915148	exat	working	2022-10-09T00:00:00	12:00:00	13:00:00	68	37	1040	1800	0.58
10312	CCTV-65ท่าเรือเชื่อมเข้าS1	13.6979308	100.5915148	exat	working	2022-10-09T00:00:00	13:00:00	14:00:00	70	35	1053	1800	0.59
10313	CCTV-65ท่าเรือเชื่อมเข้าS1	13.6979308	100.5915148	exat	working	2022-10-09T00:00:00	14:00:00	15:00:00	68	36	1077	1800	0.60
10314	CCTV-65ท่าเรือเชื่อมเข้าS1	13.6979308	100.5915148	exat	working	2022-10-09T00:00:00	15:00:00	16:00:00	72	35	1075	1800	0.60
10315	CCTV-65ท่าเรือเชื่อมเข้าS1	13.6979308	100.5915148	exat	holiday	2022-10-09T00:00:00	16:00:00	17:00:00	73	30	1461	1800	0.81
10316	CCTV-65ท่าเรือเชื่อมเข้าS1	13.6979308	100.5915148	exat	holiday	2022-10-09T00:00:00	17:00:00	18:00:00	73	52	728	1800	0.40
10317	CCTV-65ท่าเรือเชื่อมเข้าS1	13.6979308	100.5915148	exat	holiday	2022-10-09T00:00:00	18:00:00	19:00:00	21	122	1093	1800	0.61
10318	CCTV-65ท่าเรือเชื่อมเข้าS1	13.6979308	100.5915148	exat	working	2022-11-09T00:00:00	5:00:00	6:00:00	62	8	150	1800	0.08
10319	CCTV-65ท่าเรือเชื่อมเข้าS1	13.6979308	100.5915148	exat	holiday	2022-11-09T00:00:00	6:00:00	7:00:00	44	23	440	1800	0.24
10320	CCTV-65ท่าเรือเชื่อมเข้าS1	13.6979308	100.5915148	exat	holiday	2022-11-09T00:00:00	7:00:00	8:00:00	44	11	232	1800	0.13
10321	CCTV-65ท่าเรือเชื่อมเข้าS1	13.6979308	100.5915148	exat	holiday	2022-11-09T00:00:00	8:00:00	9:00:00	44	23	658	1800	0.37
10322	CCTV-65ท่าเรือเชื่อมเข้าS1	13.6979308	100.5915148	exat	working	2022-11-09T00:00:00	9:00:00	10:00:00	41	21	570	1800	0.32
10323	CCTV-65ท่าเรือเชื่อมเข้าS1	13.6979308	100.5915148	exat	working	2022-11-09T00:00:00	10:00:00	11:00:00	43	20	650	1800	0.36
10324	CCTV-65ท่าเรือเชื่อมเข้าS1	13.6979308	100.5915148	exat	holiday	2022-11-09T00:00:00	11:00:00	12:00:00	44	25	978	1800	0.54
10325	CCTV-65ท่าเรือเชื่อมเข้าS1	13.6979308	100.5915148	exat	working	2022-11-09T00:00:00	12:00:00	13:00:00	41	23	629	1800	0.35
10326	CCTV-65ท่าเรือเชื่อมเข้าS1	13.6979308	100.5915148	exat	working	2022-11-09T00:00:00	13:00:00	14:00:00	42	21	629	1800	0.35
10327	CCTV-65ท่าเรือเชื่อมเข้าS1	13.6979308	100.5915148	exat	working	2022-11-09T00:00:00	14:00:00	15:00:00	41	22	651	1800	0.36
10328	CCTV-65ท่าเรือเชื่อมเข้าS1	13.6979308	100.5915148	exat	working	2022-11-09T00:00:00	15:00:00	16:00:00	43	21	662	1800	0.37
10329	CCTV-65ท่าเรือเชื่อมเข้าS1	13.6979308	100.5915148	exat	holiday	2022-11-09T00:00:00	16:00:00	17:00:00	44	18	878	1800	0.49
10330	CCTV-65ท่าเรือเชื่อมเข้าS1	13.6979308	100.5915148	exat	holiday	2022-11-09T00:00:00	17:00:00	18:00:00	44	31	437	1800	0.24
10331	CCTV-65ท่าเรือเชื่อมเข้าS1	13.6979308	100.5915148	exat	holiday	2022-11-09T00:00:00	18:00:00	19:00:00	21	121	654	1800	0.36
10332	CCTV-67S1ทางขึ้นมาจากท่าเรือ	13.6982049	100.591889	exat	working	2022-05-09T00:00:00	5:00:00	6:00:00	94	4	188	2700	0.07
10333	CCTV-67S1ทางขึ้นมาจากท่าเรือ	13.6982049	100.591889	exat	working	2022-05-09T00:00:00	6:00:00	7:00:00	67	11	536	2700	0.20
10334	CCTV-67S1ทางขึ้นมาจากท่าเรือ	13.6982049	100.591889	exat	working	2022-05-09T00:00:00	7:00:00	8:00:00	66	14	1303	2700	0.48
10335	CCTV-67S1ทางขึ้นมาจากท่าเรือ	13.6982049	100.591889	exat	working	2022-05-09T00:00:00	8:00:00	9:00:00	63	16	1829	2700	0.68
10336	CCTV-67S1ทางขึ้นมาจากท่าเรือ	13.6982049	100.591889	exat	working	2022-05-09T00:00:00	9:00:00	10:00:00	60	14	1795	2700	0.66
10337	CCTV-67S1ทางขึ้นมาจากท่าเรือ	13.6982049	100.591889	exat	working	2022-05-09T00:00:00	10:00:00	11:00:00	61	11	1760	2700	0.65
10338	CCTV-67S1ทางขึ้นมาจากท่าเรือ	13.6982049	100.591889	exat	working	2022-05-09T00:00:00	11:00:00	12:00:00	64	14	918	2700	0.34
10339	CCTV-67S1ทางขึ้นมาจากท่าเรือ	13.6982049	100.591889	exat	working	2022-05-09T00:00:00	12:00:00	13:00:00	59	11	1752	2700	0.65
10340	CCTV-67S1ทางขึ้นมาจากท่าเรือ	13.6982049	100.591889	exat	working	2022-05-09T00:00:00	13:00:00	14:00:00	58	14	1696	2700	0.63
10341	CCTV-67S1ทางขึ้นมาจากท่าเรือ	13.6982049	100.591889	exat	working	2022-05-09T00:00:00	14:00:00	15:00:00	59	12	1740	2700	0.64
10342	CCTV-67S1ทางขึ้นมาจากท่าเรือ	13.6982049	100.591889	exat	working	2022-05-09T00:00:00	15:00:00	16:00:00	58	11	1698	2700	0.63
10343	CCTV-67S1ทางขึ้นมาจากท่าเรือ	13.6982049	100.591889	exat	working	2022-05-09T00:00:00	16:00:00	17:00:00	59	18	1651	2700	0.61
10344	CCTV-67S1ทางขึ้นมาจากท่าเรือ	13.6982049	100.591889	exat	working	2022-05-09T00:00:00	17:00:00	18:00:00	73	13	367	2700	0.14
10345	CCTV-67S1ทางขึ้นมาจากท่าเรือ	13.6982049	100.591889	exat	working	2022-05-09T00:00:00	18:00:00	19:00:00	64	22	2014	2700	0.75
10346	CCTV-67S1ทางขึ้นมาจากท่าเรือ	13.6982049	100.591889	exat	working	2022-06-09T00:00:00	5:00:00	6:00:00	89	6	229	2700	0.08
10347	CCTV-67S1ทางขึ้นมาจากท่าเรือ	13.6982049	100.591889	exat	working	2022-06-09T00:00:00	6:00:00	7:00:00	63	19	671	2700	0.25
10348	CCTV-67S1ทางขึ้นมาจากท่าเรือ	13.6982049	100.591889	exat	working	2022-06-09T00:00:00	7:00:00	8:00:00	64	25	1009	2700	0.37
10349	CCTV-67S1ทางขึ้นมาจากท่าเรือ	13.6982049	100.591889	exat	working	2022-06-09T00:00:00	8:00:00	9:00:00	62	29	1564	2700	0.58
10350	CCTV-67S1ทางขึ้นมาจากท่าเรือ	13.6982049	100.591889	exat	working	2022-06-09T00:00:00	9:00:00	10:00:00	59	27	1530	2700	0.57
10351	CCTV-67S1ทางขึ้นมาจากท่าเรือ	13.6982049	100.591889	exat	working	2022-06-09T00:00:00	10:00:00	11:00:00	59	26	1445	2700	0.54
10352	CCTV-67S1ทางขึ้นมาจากท่าเรือ	13.6982049	100.591889	exat	working	2022-06-09T00:00:00	11:00:00	12:00:00	62	23	1112	2700	0.41
10353	CCTV-67S1ทางขึ้นมาจากท่าเรือ	13.6982049	100.591889	exat	working	2022-06-09T00:00:00	12:00:00	13:00:00	58	26	1449	2700	0.54
10354	CCTV-67S1ทางขึ้นมาจากท่าเรือ	13.6982049	100.591889	exat	working	2022-06-09T00:00:00	13:00:00	14:00:00	58	26	1450	2700	0.54
10355	CCTV-67S1ทางขึ้นมาจากท่าเรือ	13.6982049	100.591889	exat	working	2022-06-09T00:00:00	14:00:00	15:00:00	57	26	1442	2700	0.53
10356	CCTV-67S1ทางขึ้นมาจากท่าเรือ	13.6982049	100.591889	exat	working	2022-06-09T00:00:00	15:00:00	16:00:00	59	26	1454	2700	0.54
10357	CCTV-67S1ทางขึ้นมาจากท่าเรือ	13.6982049	100.591889	exat	working	2022-06-09T00:00:00	16:00:00	17:00:00	66	14	1282	2700	0.47
10358	CCTV-67S1ทางขึ้นมาจากท่าเรือ	13.6982049	100.591889	exat	working	2022-06-09T00:00:00	17:00:00	18:00:00	73	16	1094	2700	0.41
10359	CCTV-67S1ทางขึ้นมาจากท่าเรือ	13.6982049	100.591889	exat	working	2022-06-09T00:00:00	18:00:00	19:00:00	54	27	1770	2700	0.66
10360	CCTV-67S1ทางขึ้นมาจากท่าเรือ	13.6982049	100.591889	exat	working	2022-07-09T00:00:00	5:00:00	6:00:00	85	8	256	2700	0.09
10361	CCTV-67S1ทางขึ้นมาจากท่าเรือ	13.6982049	100.591889	exat	working	2022-07-09T00:00:00	6:00:00	7:00:00	59	27	738	2700	0.27
10362	CCTV-67S1ทางขึ้นมาจากท่าเรือ	13.6982049	100.591889	exat	working	2022-07-09T00:00:00	7:00:00	8:00:00	61	36	737	2700	0.27
10363	CCTV-67S1ทางขึ้นมาจากท่าเรือ	13.6982049	100.591889	exat	working	2022-07-09T00:00:00	8:00:00	9:00:00	61	43	1282	2700	0.47
10364	CCTV-67S1ทางขึ้นมาจากท่าเรือ	13.6982049	100.591889	exat	working	2022-07-09T00:00:00	9:00:00	10:00:00	59	41	1256	2700	0.47
10365	CCTV-67S1ทางขึ้นมาจากท่าเรือ	13.6982049	100.591889	exat	working	2022-07-09T00:00:00	10:00:00	11:00:00	57	42	1141	2700	0.42
10366	CCTV-67S1ทางขึ้นมาจากท่าเรือ	13.6982049	100.591889	exat	working	2022-07-09T00:00:00	11:00:00	12:00:00	60	31	1266	2700	0.47
10367	CCTV-67S1ทางขึ้นมาจากท่าเรือ	13.6982049	100.591889	exat	working	2022-07-09T00:00:00	12:00:00	13:00:00	57	41	1154	2700	0.43
10368	CCTV-67S1ทางขึ้นมาจากท่าเรือ	13.6982049	100.591889	exat	working	2022-07-09T00:00:00	13:00:00	14:00:00	58	39	1213	2700	0.45
10369	CCTV-67S1ทางขึ้นมาจากท่าเรือ	13.6982049	100.591889	exat	working	2022-07-09T00:00:00	14:00:00	15:00:00	55	40	1208	2700	0.45
10370	CCTV-67S1ทางขึ้นมาจากท่าเรือ	13.6982049	100.591889	exat	working	2022-07-09T00:00:00	15:00:00	16:00:00	60	42	1212	2700	0.45
10371	CCTV-67S1ทางขึ้นมาจากท่าเรือ	13.6982049	100.591889	exat	working	2022-07-09T00:00:00	16:00:00	17:00:00	73	11	921	2700	0.34
10372	CCTV-67S1ทางขึ้นมาจากท่าเรือ	13.6982049	100.591889	exat	working	2022-07-09T00:00:00	17:00:00	18:00:00	73	20	1835	2700	0.68
10373	CCTV-67S1ทางขึ้นมาจากท่าเรือ	13.6982049	100.591889	exat	working	2022-07-09T00:00:00	18:00:00	19:00:00	45	32	1659	2700	0.61
10374	CCTV-67S1ทางขึ้นมาจากท่าเรือ	13.6982049	100.591889	exat	working	2022-08-09T00:00:00	5:00:00	6:00:00	93	11	290	2700	0.11
10375	CCTV-67S1ทางขึ้นมาจากท่าเรือ	13.6982049	100.591889	exat	working	2022-08-09T00:00:00	6:00:00	7:00:00	66	34	921	2700	0.34
10376	CCTV-67S1ทางขึ้นมาจากท่าเรือ	13.6982049	100.591889	exat	working	2022-08-09T00:00:00	7:00:00	8:00:00	67	29	1490	2700	0.55
10377	CCTV-67S1ทางขึ้นมาจากท่าเรือ	13.6982049	100.591889	exat	working	2022-08-09T00:00:00	8:00:00	9:00:00	31	40	988	2700	0.37
10378	CCTV-67S1ทางขึ้นมาจากท่าเรือ	13.6982049	100.591889	exat	working	2022-08-09T00:00:00	9:00:00	10:00:00	27	36	990	2700	0.37
10379	CCTV-67S1ทางขึ้นมาจากท่าเรือ	13.6982049	100.591889	exat	working	2022-08-09T00:00:00	10:00:00	11:00:00	28	38	886	2700	0.33
10380	CCTV-67S1ทางขึ้นมาจากท่าเรือ	13.6982049	100.591889	exat	working	2022-08-09T00:00:00	11:00:00	12:00:00	66	21	1165	2700	0.43
10381	CCTV-67S1ทางขึ้นมาจากท่าเรือ	13.6982049	100.591889	exat	working	2022-08-09T00:00:00	12:00:00	13:00:00	27	36	893	2700	0.33
10382	CCTV-67S1ทางขึ้นมาจากท่าเรือ	13.6982049	100.591889	exat	working	2022-08-09T00:00:00	13:00:00	14:00:00	27	36	878	2700	0.33
10383	CCTV-67S1ทางขึ้นมาจากท่าเรือ	13.6982049	100.591889	exat	working	2022-08-09T00:00:00	14:00:00	15:00:00	26	36	903	2700	0.33
10384	CCTV-67S1ทางขึ้นมาจากท่าเรือ	13.6982049	100.591889	exat	working	2022-08-09T00:00:00	15:00:00	16:00:00	30	38	933	2700	0.35
10385	CCTV-67S1ทางขึ้นมาจากท่าเรือ	13.6982049	100.591889	exat	working	2022-08-09T00:00:00	16:00:00	17:00:00	57	18	988	2700	0.37
10386	CCTV-67S1ทางขึ้นมาจากท่าเรือ	13.6982049	100.591889	exat	working	2022-08-09T00:00:00	17:00:00	18:00:00	62	26	2200	2700	0.81
10387	CCTV-67S1ทางขึ้นมาจากท่าเรือ	13.6982049	100.591889	exat	working	2022-08-09T00:00:00	18:00:00	19:00:00	56	16	1176	2700	0.44
10388	CCTV-67S1ทางขึ้นมาจากท่าเรือ	13.6982049	100.591889	exat	working	2022-09-09T00:00:00	5:00:00	6:00:00	103	13	366	2700	0.14
10389	CCTV-67S1ทางขึ้นมาจากท่าเรือ	13.6982049	100.591889	exat	working	2022-09-09T00:00:00	6:00:00	7:00:00	73	41	1133	2700	0.42
10390	CCTV-67S1ทางขึ้นมาจากท่าเรือ	13.6982049	100.591889	exat	working	2022-09-09T00:00:00	7:00:00	8:00:00	73	22	2221	2700	0.82
10391	CCTV-67S1ทางขึ้นมาจากท่าเรือ	13.6982049	100.591889	exat	working	2022-09-09T00:00:00	8:00:00	9:00:00	21	121	730	2700	0.27
10392	CCTV-67S1ทางขึ้นมาจากท่าเรือ	13.6982049	100.591889	exat	working	2022-09-09T00:00:00	9:00:00	10:00:00	21	121	707	2700	0.26
10393	CCTV-67S1ทางขึ้นมาจากท่าเรือ	13.6982049	100.591889	exat	working	2022-09-09T00:00:00	10:00:00	11:00:00	21	121	606	2700	0.22
10394	CCTV-67S1ทางขึ้นมาจากท่าเรือ	13.6982049	100.591889	exat	working	2022-09-09T00:00:00	11:00:00	12:00:00	73	11	1087	2700	0.40
10395	CCTV-67S1ทางขึ้นมาจากท่าเรือ	13.6982049	100.591889	exat	working	2022-09-09T00:00:00	12:00:00	13:00:00	21	121	615	2700	0.23
10396	CCTV-67S1ทางขึ้นมาจากท่าเรือ	13.6982049	100.591889	exat	working	2022-09-09T00:00:00	13:00:00	14:00:00	21	122	580	2700	0.21
10397	CCTV-67S1ทางขึ้นมาจากท่าเรือ	13.6982049	100.591889	exat	working	2022-09-09T00:00:00	14:00:00	15:00:00	21	121	615	2700	0.23
10398	CCTV-67S1ทางขึ้นมาจากท่าเรือ	13.6982049	100.591889	exat	working	2022-09-09T00:00:00	15:00:00	16:00:00	21	121	618	2700	0.23
10399	CCTV-67S1ทางขึ้นมาจากท่าเรือ	13.6982049	100.591889	exat	working	2022-09-09T00:00:00	16:00:00	17:00:00	42	26	1109	2700	0.41
10400	CCTV-67S1ทางขึ้นมาจากท่าเรือ	13.6982049	100.591889	exat	working	2022-09-09T00:00:00	17:00:00	18:00:00	51	32	2580	2700	0.96
10401	CCTV-67S1ทางขึ้นมาจากท่าเรือ	13.6982049	100.591889	exat	working	2022-09-09T00:00:00	18:00:00	19:00:00	67	0	748	2700	0.28
10402	CCTV-67S1ทางขึ้นมาจากท่าเรือ	13.6982049	100.591889	exat	working	2022-10-09T00:00:00	5:00:00	6:00:00	73	0	218	2700	0.08
10403	CCTV-67S1ทางขึ้นมาจากท่าเรือ	13.6982049	100.591889	exat	holiday	2022-10-09T00:00:00	6:00:00	7:00:00	52	0	726	2700	0.27
10404	CCTV-67S1ทางขึ้นมาจากท่าเรือ	13.6982049	100.591889	exat	holiday	2022-10-09T00:00:00	7:00:00	8:00:00	73	41	1097	2700	0.41
10405	CCTV-67S1ทางขึ้นมาจากท่าเรือ	13.6982049	100.591889	exat	holiday	2022-10-09T00:00:00	8:00:00	9:00:00	21	121	1438	2700	0.53
10406	CCTV-67S1ทางขึ้นมาจากท่าเรือ	13.6982049	100.591889	exat	working	2022-10-09T00:00:00	9:00:00	10:00:00	21	121	1319	2700	0.49
10407	CCTV-67S1ทางขึ้นมาจากท่าเรือ	13.6982049	100.591889	exat	working	2022-10-09T00:00:00	10:00:00	11:00:00	21	121	1324	2700	0.49
10408	CCTV-67S1ทางขึ้นมาจากท่าเรือ	13.6982049	100.591889	exat	holiday	2022-10-09T00:00:00	11:00:00	12:00:00	53	38	1496	2700	0.55
10409	CCTV-67S1ทางขึ้นมาจากท่าเรือ	13.6982049	100.591889	exat	working	2022-10-09T00:00:00	12:00:00	13:00:00	21	121	1428	2700	0.53
10410	CCTV-67S1ทางขึ้นมาจากท่าเรือ	13.6982049	100.591889	exat	working	2022-10-09T00:00:00	13:00:00	14:00:00	21	121	1394	2700	0.52
10411	CCTV-67S1ทางขึ้นมาจากท่าเรือ	13.6982049	100.591889	exat	working	2022-10-09T00:00:00	14:00:00	15:00:00	21	121	1395	2700	0.52
10412	CCTV-67S1ทางขึ้นมาจากท่าเรือ	13.6982049	100.591889	exat	working	2022-10-09T00:00:00	15:00:00	16:00:00	21	121	1365	2700	0.51
10413	CCTV-67S1ทางขึ้นมาจากท่าเรือ	13.6982049	100.591889	exat	holiday	2022-10-09T00:00:00	16:00:00	17:00:00	73	11	1094	2700	0.41
10414	CCTV-67S1ทางขึ้นมาจากท่าเรือ	13.6982049	100.591889	exat	holiday	2022-10-09T00:00:00	17:00:00	18:00:00	66	18	2198	2700	0.81
10415	CCTV-67S1ทางขึ้นมาจากท่าเรือ	13.6982049	100.591889	exat	holiday	2022-10-09T00:00:00	18:00:00	19:00:00	73	0	730	2700	0.27
10416	CCTV-67S1ทางขึ้นมาจากท่าเรือ	13.6982049	100.591889	exat	working	2022-11-09T00:00:00	5:00:00	6:00:00	43	0	140	2700	0.05
10417	CCTV-67S1ทางขึ้นมาจากท่าเรือ	13.6982049	100.591889	exat	holiday	2022-11-09T00:00:00	6:00:00	7:00:00	31	0	438	2700	0.16
10418	CCTV-67S1ทางขึ้นมาจากท่าเรือ	13.6982049	100.591889	exat	holiday	2022-11-09T00:00:00	7:00:00	8:00:00	44	25	674	2700	0.25
10419	CCTV-67S1ทางขึ้นมาจากท่าเรือ	13.6982049	100.591889	exat	holiday	2022-11-09T00:00:00	8:00:00	9:00:00	21	121	854	2700	0.32
10420	CCTV-67S1ทางขึ้นมาจากท่าเรือ	13.6982049	100.591889	exat	working	2022-11-09T00:00:00	9:00:00	10:00:00	21	121	783	2700	0.29
10421	CCTV-67S1ทางขึ้นมาจากท่าเรือ	13.6982049	100.591889	exat	working	2022-11-09T00:00:00	10:00:00	11:00:00	21	121	807	2700	0.30
10422	CCTV-67S1ทางขึ้นมาจากท่าเรือ	13.6982049	100.591889	exat	holiday	2022-11-09T00:00:00	11:00:00	12:00:00	32	23	916	2700	0.34
10423	CCTV-67S1ทางขึ้นมาจากท่าเรือ	13.6982049	100.591889	exat	working	2022-11-09T00:00:00	12:00:00	13:00:00	21	122	877	2700	0.32
10424	CCTV-67S1ทางขึ้นมาจากท่าเรือ	13.6982049	100.591889	exat	working	2022-11-09T00:00:00	13:00:00	14:00:00	21	121	826	2700	0.31
10425	CCTV-67S1ทางขึ้นมาจากท่าเรือ	13.6982049	100.591889	exat	working	2022-11-09T00:00:00	14:00:00	15:00:00	21	121	846	2700	0.31
10426	CCTV-67S1ทางขึ้นมาจากท่าเรือ	13.6982049	100.591889	exat	working	2022-11-09T00:00:00	15:00:00	16:00:00	21	121	859	2700	0.32
10427	CCTV-67S1ทางขึ้นมาจากท่าเรือ	13.6982049	100.591889	exat	holiday	2022-11-09T00:00:00	16:00:00	17:00:00	44	7	623	2700	0.23
10428	CCTV-67S1ทางขึ้นมาจากท่าเรือ	13.6982049	100.591889	exat	holiday	2022-11-09T00:00:00	17:00:00	18:00:00	40	11	1331	2700	0.49
10429	CCTV-67S1ทางขึ้นมาจากท่าเรือ	13.6982049	100.591889	exat	holiday	2022-11-09T00:00:00	18:00:00	19:00:00	44	0	453	2700	0.17
10430	CCTV-33หน้าด่านอาจณรงค์1	13.7013993	100.591934	exat	working	2022-05-09T00:00:00	5:00:00	6:00:00	58	5	124	2700	0.05
10431	CCTV-33หน้าด่านอาจณรงค์1	13.7013993	100.591934	exat	working	2022-05-09T00:00:00	6:00:00	7:00:00	41	14	380	2700	0.14
10432	CCTV-33หน้าด่านอาจณรงค์1	13.7013993	100.591934	exat	working	2022-05-09T00:00:00	7:00:00	8:00:00	44	25	1268	2700	0.47
10433	CCTV-33หน้าด่านอาจณรงค์1	13.7013993	100.591934	exat	working	2022-05-09T00:00:00	8:00:00	9:00:00	38	44	1819	2700	0.67
10434	CCTV-33หน้าด่านอาจณรงค์1	13.7013993	100.591934	exat	working	2022-05-09T00:00:00	9:00:00	10:00:00	34	39	1740	2700	0.64
10435	CCTV-33หน้าด่านอาจณรงค์1	13.7013993	100.591934	exat	working	2022-05-09T00:00:00	10:00:00	11:00:00	36	41	1828	2700	0.68
10436	CCTV-33หน้าด่านอาจณรงค์1	13.7013993	100.591934	exat	working	2022-05-09T00:00:00	11:00:00	12:00:00	49	31	1471	2700	0.54
10437	CCTV-33หน้าด่านอาจณรงค์1	13.7013993	100.591934	exat	working	2022-05-09T00:00:00	12:00:00	13:00:00	36	39	1808	2700	0.67
10438	CCTV-33หน้าด่านอาจณรงค์1	13.7013993	100.591934	exat	working	2022-05-09T00:00:00	13:00:00	14:00:00	34	40	1660	2700	0.61
10439	CCTV-33หน้าด่านอาจณรงค์1	13.7013993	100.591934	exat	working	2022-05-09T00:00:00	14:00:00	15:00:00	35	42	1778	2700	0.66
10440	CCTV-33หน้าด่านอาจณรงค์1	13.7013993	100.591934	exat	working	2022-05-09T00:00:00	15:00:00	16:00:00	37	39	1741	2700	0.64
10441	CCTV-33หน้าด่านอาจณรงค์1	13.7013993	100.591934	exat	working	2022-05-09T00:00:00	16:00:00	17:00:00	40	28	1428	2700	0.53
10442	CCTV-33หน้าด่านอาจณรงค์1	13.7013993	100.591934	exat	working	2022-05-09T00:00:00	17:00:00	18:00:00	40	23	1467	2700	0.54
10443	CCTV-33หน้าด่านอาจณรงค์1	13.7013993	100.591934	exat	working	2022-05-09T00:00:00	18:00:00	19:00:00	46	15	550	2700	0.20
10444	CCTV-33หน้าด่านอาจณรงค์1	13.7013993	100.591934	exat	working	2022-06-09T00:00:00	5:00:00	6:00:00	55	8	192	2700	0.07
10445	CCTV-33หน้าด่านอาจณรงค์1	13.7013993	100.591934	exat	working	2022-06-09T00:00:00	6:00:00	7:00:00	39	22	561	2700	0.21
10446	CCTV-33หน้าด่านอาจณรงค์1	13.7013993	100.591934	exat	working	2022-06-09T00:00:00	7:00:00	8:00:00	45	25	1101	2700	0.41
10447	CCTV-33หน้าด่านอาจณรงค์1	13.7013993	100.591934	exat	working	2022-06-09T00:00:00	8:00:00	9:00:00	38	41	1720	2700	0.64
10448	CCTV-33หน้าด่านอาจณรงค์1	13.7013993	100.591934	exat	working	2022-06-09T00:00:00	9:00:00	10:00:00	36	38	1658	2700	0.61
10449	CCTV-33หน้าด่านอาจณรงค์1	13.7013993	100.591934	exat	working	2022-06-09T00:00:00	10:00:00	11:00:00	35	38	1737	2700	0.64
10450	CCTV-33หน้าด่านอาจณรงค์1	13.7013993	100.591934	exat	working	2022-06-09T00:00:00	11:00:00	12:00:00	42	27	1274	2700	0.47
10451	CCTV-33หน้าด่านอาจณรงค์1	13.7013993	100.591934	exat	working	2022-06-09T00:00:00	12:00:00	13:00:00	35	38	1681	2700	0.62
10452	CCTV-33หน้าด่านอาจณรงค์1	13.7013993	100.591934	exat	working	2022-06-09T00:00:00	13:00:00	14:00:00	36	39	1629	2700	0.60
10453	CCTV-33หน้าด่านอาจณรงค์1	13.7013993	100.591934	exat	working	2022-06-09T00:00:00	14:00:00	15:00:00	36	40	1630	2700	0.60
10454	CCTV-33หน้าด่านอาจณรงค์1	13.7013993	100.591934	exat	working	2022-06-09T00:00:00	15:00:00	16:00:00	37	37	1653	2700	0.61
10455	CCTV-33หน้าด่านอาจณรงค์1	13.7013993	100.591934	exat	working	2022-06-09T00:00:00	16:00:00	17:00:00	37	24	1185	2700	0.44
10456	CCTV-33หน้าด่านอาจณรงค์1	13.7013993	100.591934	exat	working	2022-06-09T00:00:00	17:00:00	18:00:00	47	25	1371	2700	0.51
10457	CCTV-33หน้าด่านอาจณรงค์1	13.7013993	100.591934	exat	working	2022-06-09T00:00:00	18:00:00	19:00:00	44	21	911	2700	0.34
10458	CCTV-33หน้าด่านอาจณรงค์1	13.7013993	100.591934	exat	working	2022-07-09T00:00:00	5:00:00	6:00:00	52	11	248	2700	0.09
10459	CCTV-33หน้าด่านอาจณรงค์1	13.7013993	100.591934	exat	working	2022-07-09T00:00:00	6:00:00	7:00:00	37	31	724	2700	0.27
10460	CCTV-33หน้าด่านอาจณรงค์1	13.7013993	100.591934	exat	working	2022-07-09T00:00:00	7:00:00	8:00:00	46	24	910	2700	0.34
10461	CCTV-33หน้าด่านอาจณรงค์1	13.7013993	100.591934	exat	working	2022-07-09T00:00:00	8:00:00	9:00:00	39	39	1650	2700	0.61
10462	CCTV-33หน้าด่านอาจณรงค์1	13.7013993	100.591934	exat	working	2022-07-09T00:00:00	9:00:00	10:00:00	38	37	1589	2700	0.59
10463	CCTV-33หน้าด่านอาจณรงค์1	13.7013993	100.591934	exat	working	2022-07-09T00:00:00	10:00:00	11:00:00	34	34	1626	2700	0.60
10464	CCTV-33หน้าด่านอาจณรงค์1	13.7013993	100.591934	exat	working	2022-07-09T00:00:00	11:00:00	12:00:00	36	22	1093	2700	0.40
10465	CCTV-33หน้าด่านอาจณรงค์1	13.7013993	100.591934	exat	working	2022-07-09T00:00:00	12:00:00	13:00:00	34	38	1566	2700	0.58
10466	CCTV-33หน้าด่านอาจณรงค์1	13.7013993	100.591934	exat	working	2022-07-09T00:00:00	13:00:00	14:00:00	38	38	1519	2700	0.56
10467	CCTV-33หน้าด่านอาจณรงค์1	13.7013993	100.591934	exat	working	2022-07-09T00:00:00	14:00:00	15:00:00	37	38	1520	2700	0.56
10468	CCTV-33หน้าด่านอาจณรงค์1	13.7013993	100.591934	exat	working	2022-07-09T00:00:00	15:00:00	16:00:00	38	34	1604	2700	0.59
10469	CCTV-33หน้าด่านอาจณรงค์1	13.7013993	100.591934	exat	working	2022-07-09T00:00:00	16:00:00	17:00:00	35	19	927	2700	0.34
10470	CCTV-33หน้าด่านอาจณรงค์1	13.7013993	100.591934	exat	working	2022-07-09T00:00:00	17:00:00	18:00:00	54	27	1278	2700	0.47
10471	CCTV-33หน้าด่านอาจณรงค์1	13.7013993	100.591934	exat	working	2022-07-09T00:00:00	18:00:00	19:00:00	41	28	1270	2700	0.47
10472	CCTV-33หน้าด่านอาจณรงค์1	13.7013993	100.591934	exat	working	2022-08-09T00:00:00	5:00:00	6:00:00	53	10	369	2700	0.14
10473	CCTV-33หน้าด่านอาจณรงค์1	13.7013993	100.591934	exat	working	2022-08-09T00:00:00	6:00:00	7:00:00	38	31	1194	2700	0.44
10474	CCTV-33หน้าด่านอาจณรงค์1	13.7013993	100.591934	exat	working	2022-08-09T00:00:00	7:00:00	8:00:00	40	24	1100	2700	0.41
10475	CCTV-33หน้าด่านอาจณรงค์1	13.7013993	100.591934	exat	working	2022-08-09T00:00:00	8:00:00	9:00:00	36	111	2552	2700	0.95
10476	CCTV-33หน้าด่านอาจณรงค์1	13.7013993	100.591934	exat	working	2022-08-09T00:00:00	9:00:00	10:00:00	35	108	2500	2700	0.93
10477	CCTV-33หน้าด่านอาจณรงค์1	13.7013993	100.591934	exat	working	2022-08-09T00:00:00	10:00:00	11:00:00	31	106	2515	2700	0.93
10478	CCTV-33หน้าด่านอาจณรงค์1	13.7013993	100.591934	exat	working	2022-08-09T00:00:00	11:00:00	12:00:00	39	40	1625	2700	0.60
10479	CCTV-33หน้าด่านอาจณรงค์1	13.7013993	100.591934	exat	working	2022-08-09T00:00:00	12:00:00	13:00:00	33	108	2491	2700	0.92
10480	CCTV-33หน้าด่านอาจณรงค์1	13.7013993	100.591934	exat	working	2022-08-09T00:00:00	13:00:00	14:00:00	35	109	2461	2700	0.91
10481	CCTV-33หน้าด่านอาจณรงค์1	13.7013993	100.591934	exat	working	2022-08-09T00:00:00	14:00:00	15:00:00	33	107	2438	2700	0.90
10482	CCTV-33หน้าด่านอาจณรงค์1	13.7013993	100.591934	exat	working	2022-08-09T00:00:00	15:00:00	16:00:00	33	109	2537	2700	0.94
10483	CCTV-33หน้าด่านอาจณรงค์1	13.7013993	100.591934	exat	working	2022-08-09T00:00:00	16:00:00	17:00:00	41	18	1476	2700	0.55
10484	CCTV-33หน้าด่านอาจณรงค์1	13.7013993	100.591934	exat	working	2022-08-09T00:00:00	17:00:00	18:00:00	47	30	1645	2700	0.61
10485	CCTV-33หน้าด่านอาจณรงค์1	13.7013993	100.591934	exat	working	2022-08-09T00:00:00	18:00:00	19:00:00	47	24	1285	2700	0.48
10486	CCTV-33หน้าด่านอาจณรงค์1	13.7013993	100.591934	exat	working	2022-09-09T00:00:00	5:00:00	6:00:00	55	10	498	2700	0.18
10487	CCTV-33หน้าด่านอาจณรงค์1	13.7013993	100.591934	exat	working	2022-09-09T00:00:00	6:00:00	7:00:00	39	32	1628	2700	0.60
10488	CCTV-33หน้าด่านอาจณรงค์1	13.7013993	100.591934	exat	working	2022-09-09T00:00:00	7:00:00	8:00:00	35	25	1280	2700	0.47
10489	CCTV-33หน้าด่านอาจณรงค์1	13.7013993	100.591934	exat	working	2022-09-09T00:00:00	8:00:00	9:00:00	33	181	3450	2700	1.28
10490	CCTV-33หน้าด่านอาจณรงค์1	13.7013993	100.591934	exat	working	2022-09-09T00:00:00	9:00:00	10:00:00	32	179	3397	2700	1.26
10491	CCTV-33หน้าด่านอาจณรงค์1	13.7013993	100.591934	exat	working	2022-09-09T00:00:00	10:00:00	11:00:00	28	178	3413	2700	1.26
10492	CCTV-33หน้าด่านอาจณรงค์1	13.7013993	100.591934	exat	working	2022-09-09T00:00:00	11:00:00	12:00:00	42	59	2213	2700	0.82
10493	CCTV-33หน้าด่านอาจณรงค์1	13.7013993	100.591934	exat	working	2022-09-09T00:00:00	12:00:00	13:00:00	31	178	3376	2700	1.25
10494	CCTV-33หน้าด่านอาจณรงค์1	13.7013993	100.591934	exat	working	2022-09-09T00:00:00	13:00:00	14:00:00	32	180	3352	2700	1.24
10495	CCTV-33หน้าด่านอาจณรงค์1	13.7013993	100.591934	exat	working	2022-09-09T00:00:00	14:00:00	15:00:00	30	177	3349	2700	1.24
10496	CCTV-33หน้าด่านอาจณรงค์1	13.7013993	100.591934	exat	working	2022-09-09T00:00:00	15:00:00	16:00:00	29	182	3448	2700	1.28
10497	CCTV-33หน้าด่านอาจณรงค์1	13.7013993	100.591934	exat	working	2022-09-09T00:00:00	16:00:00	17:00:00	48	17	1973	2700	0.73
10498	CCTV-33หน้าด่านอาจณรงค์1	13.7013993	100.591934	exat	working	2022-09-09T00:00:00	17:00:00	18:00:00	41	34	1999	2700	0.74
10499	CCTV-33หน้าด่านอาจณรงค์1	13.7013993	100.591934	exat	working	2022-09-09T00:00:00	18:00:00	19:00:00	52	19	1246	2700	0.46
10500	CCTV-33หน้าด่านอาจณรงค์1	13.7013993	100.591934	exat	working	2022-10-09T00:00:00	5:00:00	6:00:00	43	16	127	2700	0.05
10501	CCTV-33หน้าด่านอาจณรงค์1	13.7013993	100.591934	exat	holiday	2022-10-09T00:00:00	6:00:00	7:00:00	31	51	376	2700	0.14
10502	CCTV-33หน้าด่านอาจณรงค์1	13.7013993	100.591934	exat	holiday	2022-10-09T00:00:00	7:00:00	8:00:00	62	38	727	2700	0.27
10503	CCTV-33หน้าด่านอาจณรงค์1	13.7013993	100.591934	exat	holiday	2022-10-09T00:00:00	8:00:00	9:00:00	37	19	1102	2700	0.41
10504	CCTV-33หน้าด่านอาจณรงค์1	13.7013993	100.591934	exat	working	2022-10-09T00:00:00	9:00:00	10:00:00	35	14	1050	2700	0.39
10505	CCTV-33หน้าด่านอาจณรงค์1	13.7013993	100.591934	exat	working	2022-10-09T00:00:00	10:00:00	11:00:00	33	18	1073	2700	0.40
10506	CCTV-33หน้าด่านอาจณรงค์1	13.7013993	100.591934	exat	holiday	2022-10-09T00:00:00	11:00:00	12:00:00	44	19	1284	2700	0.48
10507	CCTV-33หน้าด่านอาจณรงค์1	13.7013993	100.591934	exat	working	2022-10-09T00:00:00	12:00:00	13:00:00	33	14	1012	2700	0.37
10508	CCTV-33หน้าด่านอาจณรงค์1	13.7013993	100.591934	exat	working	2022-10-09T00:00:00	13:00:00	14:00:00	35	17	949	2700	0.35
10509	CCTV-33หน้าด่านอาจณรงค์1	13.7013993	100.591934	exat	working	2022-10-09T00:00:00	14:00:00	15:00:00	36	15	1084	2700	0.40
10510	CCTV-33หน้าด่านอาจณรงค์1	13.7013993	100.591934	exat	working	2022-10-09T00:00:00	15:00:00	16:00:00	32	14	996	2700	0.37
10511	CCTV-33หน้าด่านอาจณรงค์1	13.7013993	100.591934	exat	holiday	2022-10-09T00:00:00	16:00:00	17:00:00	44	39	1818	2700	0.67
10512	CCTV-33หน้าด่านอาจณรงค์1	13.7013993	100.591934	exat	holiday	2022-10-09T00:00:00	17:00:00	18:00:00	35	28	1826	2700	0.68
10513	CCTV-33หน้าด่านอาจณรงค์1	13.7013993	100.591934	exat	holiday	2022-10-09T00:00:00	18:00:00	19:00:00	26	51	913	2700	0.34
10514	CCTV-33หน้าด่านอาจณรงค์1	13.7013993	100.591934	exat	working	2022-11-09T00:00:00	5:00:00	6:00:00	27	37	68	2700	0.03
10515	CCTV-33หน้าด่านอาจณรงค์1	13.7013993	100.591934	exat	holiday	2022-11-09T00:00:00	6:00:00	7:00:00	19	121	213	2700	0.08
10516	CCTV-33หน้าด่านอาจณรงค์1	13.7013993	100.591934	exat	holiday	2022-11-09T00:00:00	7:00:00	8:00:00	38	23	440	2700	0.16
10517	CCTV-33หน้าด่านอาจณรงค์1	13.7013993	100.591934	exat	holiday	2022-11-09T00:00:00	8:00:00	9:00:00	23	12	656	2700	0.24
10518	CCTV-33หน้าด่านอาจณรงค์1	13.7013993	100.591934	exat	working	2022-11-09T00:00:00	9:00:00	10:00:00	21	121	641	2700	0.24
10519	CCTV-33หน้าด่านอาจณรงค์1	13.7013993	100.591934	exat	working	2022-11-09T00:00:00	10:00:00	11:00:00	20	121	660	2700	0.24
10520	CCTV-33หน้าด่านอาจณรงค์1	13.7013993	100.591934	exat	holiday	2022-11-09T00:00:00	11:00:00	12:00:00	26	12	762	2700	0.28
10521	CCTV-33หน้าด่านอาจณรงค์1	13.7013993	100.591934	exat	working	2022-11-09T00:00:00	12:00:00	13:00:00	20	121	611	2700	0.23
10522	CCTV-33หน้าด่านอาจณรงค์1	13.7013993	100.591934	exat	working	2022-11-09T00:00:00	13:00:00	14:00:00	21	121	573	2700	0.21
10523	CCTV-33หน้าด่านอาจณรงค์1	13.7013993	100.591934	exat	working	2022-11-09T00:00:00	14:00:00	15:00:00	22	9	650	2700	0.24
10524	CCTV-33หน้าด่านอาจณรงค์1	13.7013993	100.591934	exat	working	2022-11-09T00:00:00	15:00:00	16:00:00	20	121	598	2700	0.22
10525	CCTV-33หน้าด่านอาจณรงค์1	13.7013993	100.591934	exat	holiday	2022-11-09T00:00:00	16:00:00	17:00:00	27	24	1102	2700	0.41
10526	CCTV-33หน้าด่านอาจณรงค์1	13.7013993	100.591934	exat	holiday	2022-11-09T00:00:00	17:00:00	18:00:00	21	121	1090	2700	0.40
10527	CCTV-33หน้าด่านอาจณรงค์1	13.7013993	100.591934	exat	holiday	2022-11-09T00:00:00	18:00:00	19:00:00	16	121	551	2700	0.20
10528	CCTV-03ทางลง50	13.7099677	100.5974572	exat	working	2022-05-09T00:00:00	5:00:00	6:00:00	29	39	123	1800	0.07
10529	CCTV-03ทางลง50	13.7099677	100.5974572	exat	working	2022-05-09T00:00:00	6:00:00	7:00:00	21	121	363	1800	0.20
10530	CCTV-03ทางลง50	13.7099677	100.5974572	exat	working	2022-05-09T00:00:00	7:00:00	8:00:00	32	18	911	1800	0.51
10531	CCTV-03ทางลง50	13.7099677	100.5974572	exat	working	2022-05-09T00:00:00	8:00:00	9:00:00	44	24	1660	1800	0.92
10532	CCTV-03ทางลง50	13.7099677	100.5974572	exat	working	2022-05-09T00:00:00	9:00:00	10:00:00	40	22	1605	1800	0.89
10533	CCTV-03ทางลง50	13.7099677	100.5974572	exat	working	2022-05-09T00:00:00	10:00:00	11:00:00	38	21	1547	1800	0.86
10534	CCTV-03ทางลง50	13.7099677	100.5974572	exat	working	2022-05-09T00:00:00	11:00:00	12:00:00	91	13	539	1800	0.30
10535	CCTV-03ทางลง50	13.7099677	100.5974572	exat	working	2022-05-09T00:00:00	12:00:00	13:00:00	41	22	1627	1800	0.90
10536	CCTV-03ทางลง50	13.7099677	100.5974572	exat	working	2022-05-09T00:00:00	13:00:00	14:00:00	42	23	1542	1800	0.86
10537	CCTV-03ทางลง50	13.7099677	100.5974572	exat	working	2022-05-09T00:00:00	14:00:00	15:00:00	43	22	1466	1800	0.81
10538	CCTV-03ทางลง50	13.7099677	100.5974572	exat	working	2022-05-09T00:00:00	15:00:00	16:00:00	41	19	1511	1800	0.84
10539	CCTV-03ทางลง50	13.7099677	100.5974572	exat	working	2022-05-09T00:00:00	16:00:00	17:00:00	17	121	2561	1800	1.42
10540	CCTV-03ทางลง50	13.7099677	100.5974572	exat	working	2022-05-09T00:00:00	17:00:00	18:00:00	16	121	1822	1800	1.01
10541	CCTV-03ทางลง50	13.7099677	100.5974572	exat	working	2022-05-09T00:00:00	18:00:00	19:00:00	21	121	2355	1800	1.31
10542	CCTV-03ทางลง50	13.7099677	100.5974572	exat	working	2022-06-09T00:00:00	5:00:00	6:00:00	66	8	151	1800	0.08
10543	CCTV-03ทางลง50	13.7099677	100.5974572	exat	working	2022-06-09T00:00:00	6:00:00	7:00:00	46	24	455	1800	0.25
10544	CCTV-03ทางลง50	13.7099677	100.5974572	exat	working	2022-06-09T00:00:00	7:00:00	8:00:00	61	15	730	1800	0.41
10545	CCTV-03ทางลง50	13.7099677	100.5974572	exat	working	2022-06-09T00:00:00	8:00:00	9:00:00	67	37	982	1800	0.55
10546	CCTV-03ทางลง50	13.7099677	100.5974572	exat	working	2022-06-09T00:00:00	9:00:00	10:00:00	65	36	949	1800	0.53
10547	CCTV-03ทางลง50	13.7099677	100.5974572	exat	working	2022-06-09T00:00:00	10:00:00	11:00:00	62	36	924	1800	0.51
10548	CCTV-03ทางลง50	13.7099677	100.5974572	exat	working	2022-06-09T00:00:00	11:00:00	12:00:00	91	13	559	1800	0.31
10549	CCTV-03ทางลง50	13.7099677	100.5974572	exat	working	2022-06-09T00:00:00	12:00:00	13:00:00	66	35	942	1800	0.52
10550	CCTV-03ทางลง50	13.7099677	100.5974572	exat	working	2022-06-09T00:00:00	13:00:00	14:00:00	65	36	927	1800	0.52
10551	CCTV-03ทางลง50	13.7099677	100.5974572	exat	working	2022-06-09T00:00:00	14:00:00	15:00:00	66	35	848	1800	0.47
10552	CCTV-03ทางลง50	13.7099677	100.5974572	exat	working	2022-06-09T00:00:00	15:00:00	16:00:00	66	35	933	1800	0.52
10553	CCTV-03ทางลง50	13.7099677	100.5974572	exat	working	2022-06-09T00:00:00	16:00:00	17:00:00	17	121	2536	1800	1.41
10554	CCTV-03ทางลง50	13.7099677	100.5974572	exat	working	2022-06-09T00:00:00	17:00:00	18:00:00	16	122	1839	1800	1.02
10555	CCTV-03ทางลง50	13.7099677	100.5974572	exat	working	2022-06-09T00:00:00	18:00:00	19:00:00	21	122	2361	1800	1.31
10556	CCTV-03ทางลง50	13.7099677	100.5974572	exat	working	2022-07-09T00:00:00	5:00:00	6:00:00	128	12	191	1800	0.11
10557	CCTV-03ทางลง50	13.7099677	100.5974572	exat	working	2022-07-09T00:00:00	6:00:00	7:00:00	91	35	562	1800	0.31
10558	CCTV-03ทางลง50	13.7099677	100.5974572	exat	working	2022-07-09T00:00:00	7:00:00	8:00:00	91	13	532	1800	0.30
10559	CCTV-03ทางลง50	13.7099677	100.5974572	exat	working	2022-07-09T00:00:00	8:00:00	9:00:00	91	51	365	1800	0.20
10560	CCTV-03ทางลง50	13.7099677	100.5974572	exat	working	2022-07-09T00:00:00	9:00:00	10:00:00	89	49	280	1800	0.16
10561	CCTV-03ทางลง50	13.7099677	100.5974572	exat	working	2022-07-09T00:00:00	10:00:00	11:00:00	86	50	303	1800	0.17
10562	CCTV-03ทางลง50	13.7099677	100.5974572	exat	working	2022-07-09T00:00:00	11:00:00	12:00:00	91	13	546	1800	0.30
10563	CCTV-03ทางลง50	13.7099677	100.5974572	exat	working	2022-07-09T00:00:00	12:00:00	13:00:00	90	48	246	1800	0.14
10564	CCTV-03ทางลง50	13.7099677	100.5974572	exat	working	2022-07-09T00:00:00	13:00:00	14:00:00	89	50	327	1800	0.18
10565	CCTV-03ทางลง50	13.7099677	100.5974572	exat	working	2022-07-09T00:00:00	14:00:00	15:00:00	89	48	199	1800	0.11
10566	CCTV-03ทางลง50	13.7099677	100.5974572	exat	working	2022-07-09T00:00:00	15:00:00	16:00:00	91	50	354	1800	0.20
10567	CCTV-03ทางลง50	13.7099677	100.5974572	exat	working	2022-07-09T00:00:00	16:00:00	17:00:00	17	122	2546	1800	1.41
10568	CCTV-03ทางลง50	13.7099677	100.5974572	exat	working	2022-07-09T00:00:00	17:00:00	18:00:00	16	121	1801	1800	1.00
10569	CCTV-03ทางลง50	13.7099677	100.5974572	exat	working	2022-07-09T00:00:00	18:00:00	19:00:00	21	122	2383	1800	1.32
10570	CCTV-03ทางลง50	13.7099677	100.5974572	exat	working	2022-08-09T00:00:00	5:00:00	6:00:00	67	8	212	1800	0.12
10571	CCTV-03ทางลง50	13.7099677	100.5974572	exat	working	2022-08-09T00:00:00	6:00:00	7:00:00	48	24	637	1800	0.35
10572	CCTV-03ทางลง50	13.7099677	100.5974572	exat	working	2022-08-09T00:00:00	7:00:00	8:00:00	91	13	1194	1800	0.66
10573	CCTV-03ทางลง50	13.7099677	100.5974572	exat	working	2022-08-09T00:00:00	8:00:00	9:00:00	56	32	1005	1800	0.56
10574	CCTV-03ทางลง50	13.7099677	100.5974572	exat	working	2022-08-09T00:00:00	9:00:00	10:00:00	55	30	905	1800	0.50
10575	CCTV-03ทางลง50	13.7099677	100.5974572	exat	working	2022-08-09T00:00:00	10:00:00	11:00:00	52	31	941	1800	0.52
10576	CCTV-03ทางลง50	13.7099677	100.5974572	exat	working	2022-08-09T00:00:00	11:00:00	12:00:00	46	16	818	1800	0.45
10577	CCTV-03ทางลง50	13.7099677	100.5974572	exat	working	2022-08-09T00:00:00	12:00:00	13:00:00	55	29	931	1800	0.52
10578	CCTV-03ทางลง50	13.7099677	100.5974572	exat	working	2022-08-09T00:00:00	13:00:00	14:00:00	55	30	935	1800	0.52
10579	CCTV-03ทางลง50	13.7099677	100.5974572	exat	working	2022-08-09T00:00:00	14:00:00	15:00:00	54	29	883	1800	0.49
10580	CCTV-03ทางลง50	13.7099677	100.5974572	exat	working	2022-08-09T00:00:00	15:00:00	16:00:00	55	30	989	1800	0.55
10581	CCTV-03ทางลง50	13.7099677	100.5974572	exat	working	2022-08-09T00:00:00	16:00:00	17:00:00	13	122	1836	1800	1.02
10582	CCTV-03ทางลง50	13.7099677	100.5974572	exat	working	2022-08-09T00:00:00	17:00:00	18:00:00	37	31	1638	1800	0.91
10583	CCTV-03ทางลง50	13.7099677	100.5974572	exat	working	2022-08-09T00:00:00	18:00:00	19:00:00	17	121	1368	1800	0.76
10584	CCTV-03ทางลง50	13.7099677	100.5974572	exat	working	2022-09-09T00:00:00	5:00:00	6:00:00	8	41	221	1800	0.12
10585	CCTV-03ทางลง50	13.7099677	100.5974572	exat	working	2022-09-09T00:00:00	6:00:00	7:00:00	6	121	726	1800	0.40
10586	CCTV-03ทางลง50	13.7099677	100.5974572	exat	working	2022-09-09T00:00:00	7:00:00	8:00:00	91	14	1824	1800	1.01
10587	CCTV-03ทางลง50	13.7099677	100.5974572	exat	working	2022-09-09T00:00:00	8:00:00	9:00:00	22	14	1628	1800	0.90
10588	CCTV-03ทางลง50	13.7099677	100.5974572	exat	working	2022-09-09T00:00:00	9:00:00	10:00:00	21	121	1547	1800	0.86
10589	CCTV-03ทางลง50	13.7099677	100.5974572	exat	working	2022-09-09T00:00:00	10:00:00	11:00:00	17	121	1590	1800	0.88
10590	CCTV-03ทางลง50	13.7099677	100.5974572	exat	working	2022-09-09T00:00:00	11:00:00	12:00:00	21	121	1084	1800	0.60
10591	CCTV-03ทางลง50	13.7099677	100.5974572	exat	working	2022-09-09T00:00:00	12:00:00	13:00:00	19	121	1606	1800	0.89
10592	CCTV-03ทางลง50	13.7099677	100.5974572	exat	working	2022-09-09T00:00:00	13:00:00	14:00:00	21	121	1505	1800	0.84
10593	CCTV-03ทางลง50	13.7099677	100.5974572	exat	working	2022-09-09T00:00:00	14:00:00	15:00:00	19	121	1537	1800	0.85
10594	CCTV-03ทางลง50	13.7099677	100.5974572	exat	working	2022-09-09T00:00:00	15:00:00	16:00:00	19	121	1637	1800	0.91
10595	CCTV-03ทางลง50	13.7099677	100.5974572	exat	working	2022-09-09T00:00:00	16:00:00	17:00:00	9	121	1089	1800	0.61
10596	CCTV-03ทางลง50	13.7099677	100.5974572	exat	working	2022-09-09T00:00:00	17:00:00	18:00:00	57	13	1456	1800	0.81
10597	CCTV-03ทางลง50	13.7099677	100.5974572	exat	working	2022-09-09T00:00:00	18:00:00	19:00:00	13	121	353	1800	0.20
10598	CCTV-03ทางลง50	13.7099677	100.5974572	exat	working	2022-10-09T00:00:00	5:00:00	6:00:00	127	17	121	1800	0.07
10599	CCTV-03ทางลง50	13.7099677	100.5974572	exat	holiday	2022-10-09T00:00:00	6:00:00	7:00:00	91	51	363	1800	0.20
10600	CCTV-03ทางลง50	13.7099677	100.5974572	exat	holiday	2022-10-09T00:00:00	7:00:00	8:00:00	21	121	534	1800	0.30
10601	CCTV-03ทางลง50	13.7099677	100.5974572	exat	holiday	2022-10-09T00:00:00	8:00:00	9:00:00	21	121	365	1800	0.20
10602	CCTV-03ทางลง50	13.7099677	100.5974572	exat	working	2022-10-09T00:00:00	9:00:00	10:00:00	21	121	222	1800	0.12
10603	CCTV-03ทางลง50	13.7099677	100.5974572	exat	working	2022-10-09T00:00:00	10:00:00	11:00:00	21	121	278	1800	0.15
10604	CCTV-03ทางลง50	13.7099677	100.5974572	exat	holiday	2022-10-09T00:00:00	11:00:00	12:00:00	21	121	742	1800	0.41
10605	CCTV-03ทางลง50	13.7099677	100.5974572	exat	working	2022-10-09T00:00:00	12:00:00	13:00:00	21	121	353	1800	0.20
10606	CCTV-03ทางลง50	13.7099677	100.5974572	exat	working	2022-10-09T00:00:00	13:00:00	14:00:00	21	121	238	1800	0.13
10607	CCTV-03ทางลง50	13.7099677	100.5974572	exat	working	2022-10-09T00:00:00	14:00:00	15:00:00	21	121	214	1800	0.12
10608	CCTV-03ทางลง50	13.7099677	100.5974572	exat	working	2022-10-09T00:00:00	15:00:00	16:00:00	21	122	245	1800	0.14
10609	CCTV-03ทางลง50	13.7099677	100.5974572	exat	holiday	2022-10-09T00:00:00	16:00:00	17:00:00	6	121	1078	1800	0.60
10610	CCTV-03ทางลง50	13.7099677	100.5974572	exat	holiday	2022-10-09T00:00:00	17:00:00	18:00:00	91	13	382	1800	0.21
10611	CCTV-03ทางลง50	13.7099677	100.5974572	exat	working	2022-11-09T00:00:00	5:00:00	6:00:00	79	10	65	1800	0.04
10612	CCTV-03ทางลง50	13.7099677	100.5974572	exat	holiday	2022-11-09T00:00:00	6:00:00	7:00:00	55	31	203	1800	0.11
10613	CCTV-03ทางลง50	13.7099677	100.5974572	exat	holiday	2022-11-09T00:00:00	7:00:00	8:00:00	21	121	330	1800	0.18
10614	CCTV-03ทางลง50	13.7099677	100.5974572	exat	holiday	2022-11-09T00:00:00	8:00:00	9:00:00	21	122	202	1800	0.11
10615	CCTV-03ทางลง50	13.7099677	100.5974572	exat	working	2022-11-09T00:00:00	9:00:00	10:00:00	21	121	121	1800	0.07
10616	CCTV-03ทางลง50	13.7099677	100.5974572	exat	working	2022-11-09T00:00:00	10:00:00	11:00:00	21	121	186	1800	0.10
10617	CCTV-03ทางลง50	13.7099677	100.5974572	exat	holiday	2022-11-09T00:00:00	11:00:00	12:00:00	21	121	430	1800	0.24
10618	CCTV-03ทางลง50	13.7099677	100.5974572	exat	working	2022-11-09T00:00:00	12:00:00	13:00:00	21	121	185	1800	0.10
10619	CCTV-03ทางลง50	13.7099677	100.5974572	exat	working	2022-11-09T00:00:00	13:00:00	14:00:00	21	121	129	1800	0.07
10620	CCTV-03ทางลง50	13.7099677	100.5974572	exat	working	2022-11-09T00:00:00	14:00:00	15:00:00	21	121	120	1800	0.07
10621	CCTV-03ทางลง50	13.7099677	100.5974572	exat	working	2022-11-09T00:00:00	15:00:00	16:00:00	21	121	147	1800	0.08
10622	CCTV-03ทางลง50	13.7099677	100.5974572	exat	holiday	2022-11-09T00:00:00	16:00:00	17:00:00	4	121	653	1800	0.36
10623	CCTV-03ทางลง50	13.7099677	100.5974572	exat	holiday	2022-11-09T00:00:00	17:00:00	18:00:00	55	8	212	1800	0.12
10624	CCTV-04ขึ้นพระโขนง	13.7224093	100.6044163	exat	working	2022-05-09T00:00:00	5:00:00	6:00:00	126	8	523	2700	0.19
10625	CCTV-04ขึ้นพระโขนง	13.7224093	100.6044163	exat	working	2022-05-09T00:00:00	6:00:00	7:00:00	88	26	1640	2700	0.61
10626	CCTV-04ขึ้นพระโขนง	13.7224093	100.6044163	exat	working	2022-05-09T00:00:00	7:00:00	8:00:00	86	29	2356	2700	0.87
10627	CCTV-04ขึ้นพระโขนง	13.7224093	100.6044163	exat	working	2022-05-09T00:00:00	8:00:00	9:00:00	91	47	4689	2700	1.74
10628	CCTV-04ขึ้นพระโขนง	13.7224093	100.6044163	exat	working	2022-05-09T00:00:00	9:00:00	10:00:00	88	46	4636	2700	1.72
10629	CCTV-04ขึ้นพระโขนง	13.7224093	100.6044163	exat	working	2022-05-09T00:00:00	10:00:00	11:00:00	87	42	4663	2700	1.73
10630	CCTV-04ขึ้นพระโขนง	13.7224093	100.6044163	exat	working	2022-05-09T00:00:00	11:00:00	12:00:00	88	22	1454	2700	0.54
10631	CCTV-04ขึ้นพระโขนง	13.7224093	100.6044163	exat	working	2022-05-09T00:00:00	12:00:00	13:00:00	87	43	4651	2700	1.72
10632	CCTV-04ขึ้นพระโขนง	13.7224093	100.6044163	exat	working	2022-05-09T00:00:00	13:00:00	14:00:00	88	42	4630	2700	1.71
10633	CCTV-04ขึ้นพระโขนง	13.7224093	100.6044163	exat	working	2022-05-09T00:00:00	14:00:00	15:00:00	90	44	4679	2700	1.73
10634	CCTV-04ขึ้นพระโขนง	13.7224093	100.6044163	exat	working	2022-05-09T00:00:00	15:00:00	16:00:00	88	43	4680	2700	1.73
10635	CCTV-04ขึ้นพระโขนง	13.7224093	100.6044163	exat	working	2022-05-09T00:00:00	16:00:00	17:00:00	82	40	2550	2700	0.94
10636	CCTV-04ขึ้นพระโขนง	13.7224093	100.6044163	exat	working	2022-05-09T00:00:00	17:00:00	18:00:00	88	55	5829	2700	2.16
10637	CCTV-04ขึ้นพระโขนง	13.7224093	100.6044163	exat	working	2022-05-09T00:00:00	18:00:00	19:00:00	81	49	5836	2700	2.16
10638	CCTV-04ขึ้นพระโขนง	13.7224093	100.6044163	exat	working	2022-06-09T00:00:00	5:00:00	6:00:00	117	10	640	2700	0.24
10639	CCTV-04ขึ้นพระโขนง	13.7224093	100.6044163	exat	working	2022-06-09T00:00:00	6:00:00	7:00:00	82	32	2078	2700	0.77
10640	CCTV-04ขึ้นพระโขนง	13.7224093	100.6044163	exat	working	2022-06-09T00:00:00	7:00:00	8:00:00	88	28	2559	2700	0.95
10641	CCTV-04ขึ้นพระโขนง	13.7224093	100.6044163	exat	working	2022-06-09T00:00:00	8:00:00	9:00:00	82	54	5352	2700	1.98
10642	CCTV-04ขึ้นพระโขนง	13.7224093	100.6044163	exat	working	2022-06-09T00:00:00	9:00:00	10:00:00	79	53	5293	2700	1.96
10643	CCTV-04ขึ้นพระโขนง	13.7224093	100.6044163	exat	working	2022-06-09T00:00:00	10:00:00	11:00:00	79	51	5337	2700	1.98
10644	CCTV-04ขึ้นพระโขนง	13.7224093	100.6044163	exat	working	2022-06-09T00:00:00	11:00:00	12:00:00	89	29	1817	2700	0.67
10645	CCTV-04ขึ้นพระโขนง	13.7224093	100.6044163	exat	working	2022-06-09T00:00:00	12:00:00	13:00:00	78	52	5283	2700	1.96
10646	CCTV-04ขึ้นพระโขนง	13.7224093	100.6044163	exat	working	2022-06-09T00:00:00	13:00:00	14:00:00	81	51	5235	2700	1.94
10647	CCTV-04ขึ้นพระโขนง	13.7224093	100.6044163	exat	working	2022-06-09T00:00:00	14:00:00	15:00:00	81	52	5252	2700	1.95
10648	CCTV-04ขึ้นพระโขนง	13.7224093	100.6044163	exat	working	2022-06-09T00:00:00	15:00:00	16:00:00	80	52	5288	2700	1.96
10649	CCTV-04ขึ้นพระโขนง	13.7224093	100.6044163	exat	working	2022-06-09T00:00:00	16:00:00	17:00:00	80	41	3568	2700	1.32
10650	CCTV-04ขึ้นพระโขนง	13.7224093	100.6044163	exat	working	2022-06-09T00:00:00	17:00:00	18:00:00	82	48	4985	2700	1.85
10651	CCTV-04ขึ้นพระโขนง	13.7224093	100.6044163	exat	working	2022-06-09T00:00:00	18:00:00	19:00:00	81	43	4691	2700	1.74
10652	CCTV-04ขึ้นพระโขนง	13.7224093	100.6044163	exat	working	2022-07-09T00:00:00	5:00:00	6:00:00	110	13	892	2700	0.33
10653	CCTV-04ขึ้นพระโขนง	13.7224093	100.6044163	exat	working	2022-07-09T00:00:00	6:00:00	7:00:00	76	39	2540	2700	0.94
10654	CCTV-04ขึ้นพระโขนง	13.7224093	100.6044163	exat	working	2022-07-09T00:00:00	7:00:00	8:00:00	91	26	2702	2700	1.00
10655	CCTV-04ขึ้นพระโขนง	13.7224093	100.6044163	exat	working	2022-07-09T00:00:00	8:00:00	9:00:00	74	62	5997	2700	2.22
10656	CCTV-04ขึ้นพระโขนง	13.7224093	100.6044163	exat	working	2022-07-09T00:00:00	9:00:00	10:00:00	69	60	5925	2700	2.19
10657	CCTV-04ขึ้นพระโขนง	13.7224093	100.6044163	exat	working	2022-07-09T00:00:00	10:00:00	11:00:00	70	60	6054	2700	2.24
10658	CCTV-04ขึ้นพระโขนง	13.7224093	100.6044163	exat	working	2022-07-09T00:00:00	11:00:00	12:00:00	91	37	2179	2700	0.81
10659	CCTV-04ขึ้นพระโขนง	13.7224093	100.6044163	exat	working	2022-07-09T00:00:00	12:00:00	13:00:00	69	61	5901	2700	2.19
10660	CCTV-04ขึ้นพระโขนง	13.7224093	100.6044163	exat	working	2022-07-09T00:00:00	13:00:00	14:00:00	73	59	5802	2700	2.15
10661	CCTV-04ขึ้นพระโขนง	13.7224093	100.6044163	exat	working	2022-07-09T00:00:00	14:00:00	15:00:00	73	60	5862	2700	2.17
10662	CCTV-04ขึ้นพระโขนง	13.7224093	100.6044163	exat	working	2022-07-09T00:00:00	15:00:00	16:00:00	73	60	5841	2700	2.16
10663	CCTV-04ขึ้นพระโขนง	13.7224093	100.6044163	exat	working	2022-07-09T00:00:00	16:00:00	17:00:00	78	43	4537	2700	1.68
10664	CCTV-04ขึ้นพระโขนง	13.7224093	100.6044163	exat	working	2022-07-09T00:00:00	17:00:00	18:00:00	77	41	4173	2700	1.55
10665	CCTV-04ขึ้นพระโขนง	13.7224093	100.6044163	exat	working	2022-07-09T00:00:00	18:00:00	19:00:00	82	37	3643	2700	1.35
10666	CCTV-04ขึ้นพระโขนง	13.7224093	100.6044163	exat	working	2022-08-09T00:00:00	5:00:00	6:00:00	117	11	611	2700	0.23
10667	CCTV-04ขึ้นพระโขนง	13.7224093	100.6044163	exat	working	2022-08-09T00:00:00	6:00:00	7:00:00	83	31	1983	2700	0.73
10668	CCTV-04ขึ้นพระโขนง	13.7224093	100.6044163	exat	working	2022-08-09T00:00:00	7:00:00	8:00:00	89	33	3171	2700	1.17
10669	CCTV-04ขึ้นพระโขนง	13.7224093	100.6044163	exat	working	2022-08-09T00:00:00	8:00:00	9:00:00	82	49	5376	2700	1.99
10670	CCTV-04ขึ้นพระโขนง	13.7224093	100.6044163	exat	working	2022-08-09T00:00:00	9:00:00	10:00:00	78	47	5279	2700	1.96
10671	CCTV-04ขึ้นพระโขนง	13.7224093	100.6044163	exat	working	2022-08-09T00:00:00	10:00:00	11:00:00	80	46	5379	2700	1.99
10672	CCTV-04ขึ้นพระโขนง	13.7224093	100.6044163	exat	working	2022-08-09T00:00:00	11:00:00	12:00:00	69	93	2823	2700	1.05
10673	CCTV-04ขึ้นพระโขนง	13.7224093	100.6044163	exat	working	2022-08-09T00:00:00	12:00:00	13:00:00	79	47	5268	2700	1.95
10674	CCTV-04ขึ้นพระโขนง	13.7224093	100.6044163	exat	working	2022-08-09T00:00:00	13:00:00	14:00:00	82	48	5245	2700	1.94
10675	CCTV-04ขึ้นพระโขนง	13.7224093	100.6044163	exat	working	2022-08-09T00:00:00	14:00:00	15:00:00	79	47	5313	2700	1.97
10676	CCTV-04ขึ้นพระโขนง	13.7224093	100.6044163	exat	working	2022-08-09T00:00:00	15:00:00	16:00:00	79	49	5267	2700	1.95
10677	CCTV-04ขึ้นพระโขนง	13.7224093	100.6044163	exat	working	2022-08-09T00:00:00	16:00:00	17:00:00	78	36	3820	2700	1.41
10678	CCTV-04ขึ้นพระโขนง	13.7224093	100.6044163	exat	working	2022-08-09T00:00:00	17:00:00	18:00:00	84	47	4186	2700	1.55
10679	CCTV-04ขึ้นพระโขนง	13.7224093	100.6044163	exat	working	2022-08-09T00:00:00	18:00:00	19:00:00	86	35	2813	2700	1.04
10680	CCTV-04ขึ้นพระโขนง	13.7224093	100.6044163	exat	working	2022-09-09T00:00:00	5:00:00	6:00:00	132	7	456	2700	0.17
10681	CCTV-04ขึ้นพระโขนง	13.7224093	100.6044163	exat	working	2022-09-09T00:00:00	6:00:00	7:00:00	91	23	1454	2700	0.54
10682	CCTV-04ขึ้นพระโขนง	13.7224093	100.6044163	exat	working	2022-09-09T00:00:00	7:00:00	8:00:00	87	40	3617	2700	1.34
10683	CCTV-04ขึ้นพระโขนง	13.7224093	100.6044163	exat	working	2022-09-09T00:00:00	8:00:00	9:00:00	91	37	4728	2700	1.75
10684	CCTV-04ขึ้นพระโขนง	13.7224093	100.6044163	exat	working	2022-09-09T00:00:00	9:00:00	10:00:00	88	34	4695	2700	1.74
10685	CCTV-04ขึ้นพระโขนง	13.7224093	100.6044163	exat	working	2022-09-09T00:00:00	10:00:00	11:00:00	91	32	4732	2700	1.75
10686	CCTV-04ขึ้นพระโขนง	13.7224093	100.6044163	exat	working	2022-09-09T00:00:00	11:00:00	12:00:00	48	148	3481	2700	1.29
10687	CCTV-04ขึ้นพระโขนง	13.7224093	100.6044163	exat	working	2022-09-09T00:00:00	12:00:00	13:00:00	90	34	4648	2700	1.72
10688	CCTV-04ขึ้นพระโขนง	13.7224093	100.6044163	exat	working	2022-09-09T00:00:00	13:00:00	14:00:00	90	36	4669	2700	1.73
10689	CCTV-04ขึ้นพระโขนง	13.7224093	100.6044163	exat	working	2022-09-09T00:00:00	14:00:00	15:00:00	85	33	4704	2700	1.74
10690	CCTV-04ขึ้นพระโขนง	13.7224093	100.6044163	exat	working	2022-09-09T00:00:00	15:00:00	16:00:00	85	37	4646	2700	1.72
10691	CCTV-04ขึ้นพระโขนง	13.7224093	100.6044163	exat	working	2022-09-09T00:00:00	16:00:00	17:00:00	78	30	3055	2700	1.13
10692	CCTV-04ขึ้นพระโขนง	13.7224093	100.6044163	exat	working	2022-09-09T00:00:00	17:00:00	18:00:00	90	54	4151	2700	1.54
10693	CCTV-04ขึ้นพระโขนง	13.7224093	100.6044163	exat	working	2022-09-09T00:00:00	18:00:00	19:00:00	91	33	2005	2700	0.74
10694	CCTV-04ขึ้นพระโขนง	13.7224093	100.6044163	exat	working	2022-10-09T00:00:00	5:00:00	6:00:00	125	6	605	2700	0.22
10695	CCTV-04ขึ้นพระโขนง	13.7224093	100.6044163	exat	holiday	2022-10-09T00:00:00	6:00:00	7:00:00	89	19	1802	2700	0.67
10696	CCTV-04ขึ้นพระโขนง	13.7224093	100.6044163	exat	holiday	2022-10-09T00:00:00	7:00:00	8:00:00	91	25	1630	2700	0.60
10697	CCTV-04ขึ้นพระโขนง	13.7224093	100.6044163	exat	holiday	2022-10-09T00:00:00	8:00:00	9:00:00	91	45	2926	2700	1.08
10698	CCTV-04ขึ้นพระโขนง	13.7224093	100.6044163	exat	working	2022-10-09T00:00:00	9:00:00	10:00:00	86	42	2860	2700	1.06
10699	CCTV-04ขึ้นพระโขนง	13.7224093	100.6044163	exat	working	2022-10-09T00:00:00	10:00:00	11:00:00	91	44	2790	2700	1.03
10700	CCTV-04ขึ้นพระโขนง	13.7224093	100.6044163	exat	holiday	2022-10-09T00:00:00	11:00:00	12:00:00	83	27	2362	2700	0.87
10701	CCTV-04ขึ้นพระโขนง	13.7224093	100.6044163	exat	working	2022-10-09T00:00:00	12:00:00	13:00:00	89	43	2851	2700	1.06
10702	CCTV-04ขึ้นพระโขนง	13.7224093	100.6044163	exat	working	2022-10-09T00:00:00	13:00:00	14:00:00	87	40	2825	2700	1.05
10703	CCTV-04ขึ้นพระโขนง	13.7224093	100.6044163	exat	working	2022-10-09T00:00:00	14:00:00	15:00:00	86	43	2777	2700	1.03
10704	CCTV-04ขึ้นพระโขนง	13.7224093	100.6044163	exat	working	2022-10-09T00:00:00	15:00:00	16:00:00	89	41	2853	2700	1.06
10705	CCTV-04ขึ้นพระโขนง	13.7224093	100.6044163	exat	holiday	2022-10-09T00:00:00	16:00:00	17:00:00	91	29	2748	2700	1.02
10706	CCTV-04ขึ้นพระโขนง	13.7224093	100.6044163	exat	holiday	2022-10-09T00:00:00	17:00:00	18:00:00	66	39	2895	2700	1.07
10707	CCTV-04ขึ้นพระโขนง	13.7224093	100.6044163	exat	holiday	2022-10-09T00:00:00	18:00:00	19:00:00	91	25	1634	2700	0.61
10708	CCTV-04ขึ้นพระโขนง	13.7224093	100.6044163	exat	working	2022-11-09T00:00:00	5:00:00	6:00:00	75	4	333	2700	0.12
10709	CCTV-04ขึ้นพระโขนง	13.7224093	100.6044163	exat	holiday	2022-11-09T00:00:00	6:00:00	7:00:00	53	12	1096	2700	0.41
10710	CCTV-04ขึ้นพระโขนง	13.7224093	100.6044163	exat	holiday	2022-11-09T00:00:00	7:00:00	8:00:00	55	15	981	2700	0.36
10711	CCTV-04ขึ้นพระโขนง	13.7224093	100.6044163	exat	holiday	2022-11-09T00:00:00	8:00:00	9:00:00	55	27	1748	2700	0.65
10712	CCTV-04ขึ้นพระโขนง	13.7224093	100.6044163	exat	working	2022-11-09T00:00:00	9:00:00	10:00:00	52	25	1691	2700	0.63
10713	CCTV-04ขึ้นพระโขนง	13.7224093	100.6044163	exat	working	2022-11-09T00:00:00	10:00:00	11:00:00	55	26	1723	2700	0.64
10714	CCTV-04ขึ้นพระโขนง	13.7224093	100.6044163	exat	holiday	2022-11-09T00:00:00	11:00:00	12:00:00	50	16	1419	2700	0.53
10715	CCTV-04ขึ้นพระโขนง	13.7224093	100.6044163	exat	working	2022-11-09T00:00:00	12:00:00	13:00:00	54	26	1712	2700	0.63
10716	CCTV-04ขึ้นพระโขนง	13.7224093	100.6044163	exat	working	2022-11-09T00:00:00	13:00:00	14:00:00	52	24	1665	2700	0.62
10717	CCTV-04ขึ้นพระโขนง	13.7224093	100.6044163	exat	working	2022-11-09T00:00:00	14:00:00	15:00:00	52	26	1689	2700	0.63
10718	CCTV-04ขึ้นพระโขนง	13.7224093	100.6044163	exat	working	2022-11-09T00:00:00	15:00:00	16:00:00	54	25	1730	2700	0.64
10719	CCTV-04ขึ้นพระโขนง	13.7224093	100.6044163	exat	holiday	2022-11-09T00:00:00	16:00:00	17:00:00	55	18	1641	2700	0.61
10720	CCTV-04ขึ้นพระโขนง	13.7224093	100.6044163	exat	holiday	2022-11-09T00:00:00	17:00:00	18:00:00	40	24	1743	2700	0.65
10721	CCTV-04ขึ้นพระโขนง	13.7224093	100.6044163	exat	holiday	2022-11-09T00:00:00	18:00:00	19:00:00	55	15	958	2700	0.35
10722	CCTV-05โค้งก่อนลงพัฒนาการ1	13.7222046	100.6043229	exat	working	2022-05-09T00:00:00	5:00:00	6:00:00	103	12	775	2700	0.29
10723	CCTV-05โค้งก่อนลงพัฒนาการ1	13.7222046	100.6043229	exat	working	2022-05-09T00:00:00	6:00:00	7:00:00	73	38	2374	2700	0.88
10724	CCTV-05โค้งก่อนลงพัฒนาการ1	13.7222046	100.6043229	exat	working	2022-05-09T00:00:00	7:00:00	8:00:00	73	31	1991	2700	0.74
10725	CCTV-05โค้งก่อนลงพัฒนาการ1	13.7222046	100.6043229	exat	working	2022-05-09T00:00:00	8:00:00	9:00:00	73	60	4047	2700	1.50
10726	CCTV-05โค้งก่อนลงพัฒนาการ1	13.7222046	100.6043229	exat	working	2022-05-09T00:00:00	9:00:00	10:00:00	68	57	4045	2700	1.50
10727	CCTV-05โค้งก่อนลงพัฒนาการ1	13.7222046	100.6043229	exat	working	2022-05-09T00:00:00	10:00:00	11:00:00	68	60	4031	2700	1.49
10728	CCTV-05โค้งก่อนลงพัฒนาการ1	13.7222046	100.6043229	exat	working	2022-05-09T00:00:00	11:00:00	12:00:00	73	40	1665	2700	0.62
10729	CCTV-05โค้งก่อนลงพัฒนาการ1	13.7222046	100.6043229	exat	working	2022-05-09T00:00:00	12:00:00	13:00:00	68	59	4006	2700	1.48
10730	CCTV-05โค้งก่อนลงพัฒนาการ1	13.7222046	100.6043229	exat	working	2022-05-09T00:00:00	13:00:00	14:00:00	70	58	3900	2700	1.44
10731	CCTV-05โค้งก่อนลงพัฒนาการ1	13.7222046	100.6043229	exat	working	2022-05-09T00:00:00	14:00:00	15:00:00	71	57	3980	2700	1.47
10732	CCTV-05โค้งก่อนลงพัฒนาการ1	13.7222046	100.6043229	exat	working	2022-05-09T00:00:00	15:00:00	16:00:00	70	57	3927	2700	1.45
10733	CCTV-05โค้งก่อนลงพัฒนาการ1	13.7222046	100.6043229	exat	working	2022-05-09T00:00:00	16:00:00	17:00:00	73	42	2740	2700	1.01
10734	CCTV-05โค้งก่อนลงพัฒนาการ1	13.7222046	100.6043229	exat	working	2022-05-09T00:00:00	17:00:00	18:00:00	73	49	3116	2700	1.15
10735	CCTV-05โค้งก่อนลงพัฒนาการ1	13.7222046	100.6043229	exat	working	2022-05-09T00:00:00	18:00:00	19:00:00	67	37	3129	2700	1.16
10736	CCTV-05โค้งก่อนลงพัฒนาการ1	13.7222046	100.6043229	exat	working	2022-06-09T00:00:00	5:00:00	6:00:00	102	10	805	2700	0.30
10737	CCTV-05โค้งก่อนลงพัฒนาการ1	13.7222046	100.6043229	exat	working	2022-06-09T00:00:00	6:00:00	7:00:00	71	33	2647	2700	0.98
10738	CCTV-05โค้งก่อนลงพัฒนาการ1	13.7222046	100.6043229	exat	working	2022-06-09T00:00:00	7:00:00	8:00:00	73	32	2379	2700	0.88
10739	CCTV-05โค้งก่อนลงพัฒนาการ1	13.7222046	100.6043229	exat	working	2022-06-09T00:00:00	8:00:00	9:00:00	73	61	4129	2700	1.53
10740	CCTV-05โค้งก่อนลงพัฒนาการ1	13.7222046	100.6043229	exat	working	2022-06-09T00:00:00	9:00:00	10:00:00	70	58	4013	2700	1.49
10741	CCTV-05โค้งก่อนลงพัฒนาการ1	13.7222046	100.6043229	exat	working	2022-06-09T00:00:00	10:00:00	11:00:00	69	58	4038	2700	1.50
10742	CCTV-05โค้งก่อนลงพัฒนาการ1	13.7222046	100.6043229	exat	working	2022-06-09T00:00:00	11:00:00	12:00:00	73	41	1647	2700	0.61
10743	CCTV-05โค้งก่อนลงพัฒนาการ1	13.7222046	100.6043229	exat	working	2022-06-09T00:00:00	12:00:00	13:00:00	69	58	4051	2700	1.50
10744	CCTV-05โค้งก่อนลงพัฒนาการ1	13.7222046	100.6043229	exat	working	2022-06-09T00:00:00	13:00:00	14:00:00	71	58	3968	2700	1.47
10745	CCTV-05โค้งก่อนลงพัฒนาการ1	13.7222046	100.6043229	exat	working	2022-06-09T00:00:00	14:00:00	15:00:00	71	57	4086	2700	1.51
10746	CCTV-05โค้งก่อนลงพัฒนาการ1	13.7222046	100.6043229	exat	working	2022-06-09T00:00:00	15:00:00	16:00:00	70	59	4039	2700	1.50
10747	CCTV-05โค้งก่อนลงพัฒนาการ1	13.7222046	100.6043229	exat	working	2022-06-09T00:00:00	16:00:00	17:00:00	71	42	3171	2700	1.17
10748	CCTV-05โค้งก่อนลงพัฒนาการ1	13.7222046	100.6043229	exat	working	2022-06-09T00:00:00	17:00:00	18:00:00	72	53	3673	2700	1.36
10749	CCTV-05โค้งก่อนลงพัฒนาการ1	13.7222046	100.6043229	exat	working	2022-06-09T00:00:00	18:00:00	19:00:00	69	36	3371	2700	1.25
10750	CCTV-05โค้งก่อนลงพัฒนาการ1	13.7222046	100.6043229	exat	working	2022-07-09T00:00:00	5:00:00	6:00:00	100	9	903	2700	0.33
10751	CCTV-05โค้งก่อนลงพัฒนาการ1	13.7222046	100.6043229	exat	working	2022-07-09T00:00:00	6:00:00	7:00:00	70	28	2915	2700	1.08
10752	CCTV-05โค้งก่อนลงพัฒนาการ1	13.7222046	100.6043229	exat	working	2022-07-09T00:00:00	7:00:00	8:00:00	73	33	2751	2700	1.02
10753	CCTV-05โค้งก่อนลงพัฒนาการ1	13.7222046	100.6043229	exat	working	2022-07-09T00:00:00	8:00:00	9:00:00	73	62	4203	2700	1.56
10754	CCTV-05โค้งก่อนลงพัฒนาการ1	13.7222046	100.6043229	exat	working	2022-07-09T00:00:00	9:00:00	10:00:00	71	58	4151	2700	1.54
10755	CCTV-05โค้งก่อนลงพัฒนาการ1	13.7222046	100.6043229	exat	working	2022-07-09T00:00:00	10:00:00	11:00:00	70	57	4117	2700	1.52
10756	CCTV-05โค้งก่อนลงพัฒนาการ1	13.7222046	100.6043229	exat	working	2022-07-09T00:00:00	11:00:00	12:00:00	73	42	1645	2700	0.61
10757	CCTV-05โค้งก่อนลงพัฒนาการ1	13.7222046	100.6043229	exat	working	2022-07-09T00:00:00	12:00:00	13:00:00	70	57	4108	2700	1.52
10758	CCTV-05โค้งก่อนลงพัฒนาการ1	13.7222046	100.6043229	exat	working	2022-07-09T00:00:00	13:00:00	14:00:00	71	58	4093	2700	1.52
10759	CCTV-05โค้งก่อนลงพัฒนาการ1	13.7222046	100.6043229	exat	working	2022-07-09T00:00:00	14:00:00	15:00:00	71	58	4134	2700	1.53
10760	CCTV-05โค้งก่อนลงพัฒนาการ1	13.7222046	100.6043229	exat	working	2022-07-09T00:00:00	15:00:00	16:00:00	71	61	4105	2700	1.52
10761	CCTV-05โค้งก่อนลงพัฒนาการ1	13.7222046	100.6043229	exat	working	2022-07-09T00:00:00	16:00:00	17:00:00	70	42	3688	2700	1.37
10762	CCTV-05โค้งก่อนลงพัฒนาการ1	13.7222046	100.6043229	exat	working	2022-07-09T00:00:00	17:00:00	18:00:00	72	57	4233	2700	1.57
10763	CCTV-05โค้งก่อนลงพัฒนาการ1	13.7222046	100.6043229	exat	working	2022-07-09T00:00:00	18:00:00	19:00:00	71	36	3655	2700	1.35
10764	CCTV-05โค้งก่อนลงพัฒนาการ1	13.7222046	100.6043229	exat	working	2022-08-09T00:00:00	5:00:00	6:00:00	103	8	898	2700	0.33
10765	CCTV-05โค้งก่อนลงพัฒนาการ1	13.7222046	100.6043229	exat	working	2022-08-09T00:00:00	6:00:00	7:00:00	71	25	2739	2700	1.01
10766	CCTV-05โค้งก่อนลงพัฒนาการ1	13.7222046	100.6043229	exat	working	2022-08-09T00:00:00	7:00:00	8:00:00	73	30	1916	2700	0.71
10767	CCTV-05โค้งก่อนลงพัฒนาการ1	13.7222046	100.6043229	exat	working	2022-08-09T00:00:00	8:00:00	9:00:00	73	61	3552	2700	1.32
10768	CCTV-05โค้งก่อนลงพัฒนาการ1	13.7222046	100.6043229	exat	working	2022-08-09T00:00:00	9:00:00	10:00:00	70	57	3469	2700	1.28
10769	CCTV-05โค้งก่อนลงพัฒนาการ1	13.7222046	100.6043229	exat	working	2022-08-09T00:00:00	10:00:00	11:00:00	69	56	3468	2700	1.28
10770	CCTV-05โค้งก่อนลงพัฒนาการ1	13.7222046	100.6043229	exat	working	2022-08-09T00:00:00	11:00:00	12:00:00	72	44	1927	2700	0.71
10771	CCTV-05โค้งก่อนลงพัฒนาการ1	13.7222046	100.6043229	exat	working	2022-08-09T00:00:00	12:00:00	13:00:00	70	57	3529	2700	1.31
10772	CCTV-05โค้งก่อนลงพัฒนาการ1	13.7222046	100.6043229	exat	working	2022-08-09T00:00:00	13:00:00	14:00:00	72	59	3404	2700	1.26
10773	CCTV-05โค้งก่อนลงพัฒนาการ1	13.7222046	100.6043229	exat	working	2022-08-09T00:00:00	14:00:00	15:00:00	69	58	3495	2700	1.29
10774	CCTV-05โค้งก่อนลงพัฒนาการ1	13.7222046	100.6043229	exat	working	2022-08-09T00:00:00	15:00:00	16:00:00	70	60	3448	2700	1.28
10775	CCTV-05โค้งก่อนลงพัฒนาการ1	13.7222046	100.6043229	exat	working	2022-08-09T00:00:00	16:00:00	17:00:00	71	37	3192	2700	1.18
10776	CCTV-05โค้งก่อนลงพัฒนาการ1	13.7222046	100.6043229	exat	working	2022-08-09T00:00:00	17:00:00	18:00:00	72	52	3494	2700	1.29
10777	CCTV-05โค้งก่อนลงพัฒนาการ1	13.7222046	100.6043229	exat	working	2022-08-09T00:00:00	18:00:00	19:00:00	72	32	2658	2700	0.98
10778	CCTV-05โค้งก่อนลงพัฒนาการ1	13.7222046	100.6043229	exat	working	2022-09-09T00:00:00	5:00:00	6:00:00	104	8	894	2700	0.33
10779	CCTV-05โค้งก่อนลงพัฒนาการ1	13.7222046	100.6043229	exat	working	2022-09-09T00:00:00	6:00:00	7:00:00	73	23	2570	2700	0.95
10780	CCTV-05โค้งก่อนลงพัฒนาการ1	13.7222046	100.6043229	exat	working	2022-09-09T00:00:00	7:00:00	8:00:00	73	26	1110	2700	0.41
10781	CCTV-05โค้งก่อนลงพัฒนาการ1	13.7222046	100.6043229	exat	working	2022-09-09T00:00:00	8:00:00	9:00:00	73	61	2938	2700	1.09
10782	CCTV-05โค้งก่อนลงพัฒนาการ1	13.7222046	100.6043229	exat	working	2022-09-09T00:00:00	9:00:00	10:00:00	69	56	2859	2700	1.06
10783	CCTV-05โค้งก่อนลงพัฒนาการ1	13.7222046	100.6043229	exat	working	2022-09-09T00:00:00	10:00:00	11:00:00	68	56	2853	2700	1.06
10784	CCTV-05โค้งก่อนลงพัฒนาการ1	13.7222046	100.6043229	exat	working	2022-09-09T00:00:00	11:00:00	12:00:00	72	47	2196	2700	0.81
10785	CCTV-05โค้งก่อนลงพัฒนาการ1	13.7222046	100.6043229	exat	working	2022-09-09T00:00:00	12:00:00	13:00:00	70	56	2899	2700	1.07
10786	CCTV-05โค้งก่อนลงพัฒนาการ1	13.7222046	100.6043229	exat	working	2022-09-09T00:00:00	13:00:00	14:00:00	72	60	2761	2700	1.02
10787	CCTV-05โค้งก่อนลงพัฒนาการ1	13.7222046	100.6043229	exat	working	2022-09-09T00:00:00	14:00:00	15:00:00	68	58	2824	2700	1.05
10788	CCTV-05โค้งก่อนลงพัฒนาการ1	13.7222046	100.6043229	exat	working	2022-09-09T00:00:00	15:00:00	16:00:00	70	59	2844	2700	1.05
10789	CCTV-05โค้งก่อนลงพัฒนาการ1	13.7222046	100.6043229	exat	working	2022-09-09T00:00:00	16:00:00	17:00:00	72	33	2729	2700	1.01
10790	CCTV-05โค้งก่อนลงพัฒนาการ1	13.7222046	100.6043229	exat	working	2022-09-09T00:00:00	17:00:00	18:00:00	73	47	2733	2700	1.01
10791	CCTV-05โค้งก่อนลงพัฒนาการ1	13.7222046	100.6043229	exat	working	2022-09-09T00:00:00	18:00:00	19:00:00	73	29	1641	2700	0.61
10792	CCTV-05โค้งก่อนลงพัฒนาการ1	13.7222046	100.6043229	exat	working	2022-10-09T00:00:00	5:00:00	6:00:00	102	9	348	2700	0.13
10793	CCTV-05โค้งก่อนลงพัฒนาการ1	13.7222046	100.6043229	exat	holiday	2022-10-09T00:00:00	6:00:00	7:00:00	73	27	1094	2700	0.41
10794	CCTV-05โค้งก่อนลงพัฒนาการ1	13.7222046	100.6043229	exat	holiday	2022-10-09T00:00:00	7:00:00	8:00:00	73	15	729	2700	0.27
10795	CCTV-05โค้งก่อนลงพัฒนาการ1	13.7222046	100.6043229	exat	holiday	2022-10-09T00:00:00	8:00:00	9:00:00	73	37	2186	2700	0.81
10796	CCTV-05โค้งก่อนลงพัฒนาการ1	13.7222046	100.6043229	exat	working	2022-10-09T00:00:00	9:00:00	10:00:00	72	32	2108	2700	0.78
10797	CCTV-05โค้งก่อนลงพัฒนาการ1	13.7222046	100.6043229	exat	working	2022-10-09T00:00:00	10:00:00	11:00:00	68	36	2128	2700	0.79
10798	CCTV-05โค้งก่อนลงพัฒนาการ1	13.7222046	100.6043229	exat	holiday	2022-10-09T00:00:00	11:00:00	12:00:00	73	20	1116	2700	0.41
10799	CCTV-05โค้งก่อนลงพัฒนาการ1	13.7222046	100.6043229	exat	working	2022-10-09T00:00:00	12:00:00	13:00:00	69	32	2187	2700	0.81
10800	CCTV-05โค้งก่อนลงพัฒนาการ1	13.7222046	100.6043229	exat	working	2022-10-09T00:00:00	13:00:00	14:00:00	68	34	2108	2700	0.78
10801	CCTV-05โค้งก่อนลงพัฒนาการ1	13.7222046	100.6043229	exat	working	2022-10-09T00:00:00	14:00:00	15:00:00	70	32	2182	2700	0.81
10802	CCTV-05โค้งก่อนลงพัฒนาการ1	13.7222046	100.6043229	exat	working	2022-10-09T00:00:00	15:00:00	16:00:00	70	34	2054	2700	0.76
10803	CCTV-05โค้งก่อนลงพัฒนาการ1	13.7222046	100.6043229	exat	holiday	2022-10-09T00:00:00	16:00:00	17:00:00	65	42	2186	2700	0.81
10804	CCTV-05โค้งก่อนลงพัฒนาการ1	13.7222046	100.6043229	exat	holiday	2022-10-09T00:00:00	17:00:00	18:00:00	66	43	3833	2700	1.42
10805	CCTV-05โค้งก่อนลงพัฒนาการ1	13.7222046	100.6043229	exat	holiday	2022-10-09T00:00:00	18:00:00	19:00:00	65	22	2015	2700	0.75
10806	CCTV-05โค้งก่อนลงพัฒนาการ1	13.7222046	100.6043229	exat	working	2022-11-09T00:00:00	5:00:00	6:00:00	63	5	196	2700	0.07
10807	CCTV-05โค้งก่อนลงพัฒนาการ1	13.7222046	100.6043229	exat	holiday	2022-11-09T00:00:00	6:00:00	7:00:00	44	16	647	2700	0.24
10808	CCTV-05โค้งก่อนลงพัฒนาการ1	13.7222046	100.6043229	exat	holiday	2022-11-09T00:00:00	7:00:00	8:00:00	44	9	428	2700	0.16
10809	CCTV-05โค้งก่อนลงพัฒนาการ1	13.7222046	100.6043229	exat	holiday	2022-11-09T00:00:00	8:00:00	9:00:00	44	23	1333	2700	0.49
10810	CCTV-05โค้งก่อนลงพัฒนาการ1	13.7222046	100.6043229	exat	working	2022-11-09T00:00:00	9:00:00	10:00:00	43	19	1260	2700	0.47
10811	CCTV-05โค้งก่อนลงพัฒนาการ1	13.7222046	100.6043229	exat	working	2022-11-09T00:00:00	10:00:00	11:00:00	41	22	1275	2700	0.47
10812	CCTV-05โค้งก่อนลงพัฒนาการ1	13.7222046	100.6043229	exat	holiday	2022-11-09T00:00:00	11:00:00	12:00:00	44	12	659	2700	0.24
10813	CCTV-05โค้งก่อนลงพัฒนาการ1	13.7222046	100.6043229	exat	working	2022-11-09T00:00:00	12:00:00	13:00:00	42	19	1292	2700	0.48
10814	CCTV-05โค้งก่อนลงพัฒนาการ1	13.7222046	100.6043229	exat	working	2022-11-09T00:00:00	13:00:00	14:00:00	41	20	1260	2700	0.47
10815	CCTV-05โค้งก่อนลงพัฒนาการ1	13.7222046	100.6043229	exat	working	2022-11-09T00:00:00	14:00:00	15:00:00	42	19	1317	2700	0.49
10816	CCTV-05โค้งก่อนลงพัฒนาการ1	13.7222046	100.6043229	exat	working	2022-11-09T00:00:00	15:00:00	16:00:00	42	20	1257	2700	0.47
10817	CCTV-05โค้งก่อนลงพัฒนาการ1	13.7222046	100.6043229	exat	holiday	2022-11-09T00:00:00	16:00:00	17:00:00	39	25	1307	2700	0.48
10818	CCTV-05โค้งก่อนลงพัฒนาการ1	13.7222046	100.6043229	exat	holiday	2022-11-09T00:00:00	17:00:00	18:00:00	40	26	2294	2700	0.85
10819	CCTV-05โค้งก่อนลงพัฒนาการ1	13.7222046	100.6043229	exat	holiday	2022-11-09T00:00:00	18:00:00	19:00:00	39	14	1211	2700	0.45
10820	CCTV-80ทางลงพัฒนาการ1	13.7365258	100.6041018	exat	working	2022-05-09T00:00:00	5:00:00	6:00:00	94	5	343	1800	0.19
10821	CCTV-80ทางลงพัฒนาการ1	13.7365258	100.6041018	exat	working	2022-05-09T00:00:00	6:00:00	7:00:00	67	16	1087	1800	0.60
10822	CCTV-80ทางลงพัฒนาการ1	13.7365258	100.6041018	exat	working	2022-05-09T00:00:00	7:00:00	8:00:00	89	30	2902	1800	1.61
10823	CCTV-80ทางลงพัฒนาการ1	13.7365258	100.6041018	exat	working	2022-05-09T00:00:00	8:00:00	9:00:00	59	21	1281	1800	0.71
10824	CCTV-80ทางลงพัฒนาการ1	13.7365258	100.6041018	exat	working	2022-05-09T00:00:00	9:00:00	10:00:00	58	18	1279	1800	0.71
10825	CCTV-80ทางลงพัฒนาการ1	13.7365258	100.6041018	exat	working	2022-05-09T00:00:00	10:00:00	11:00:00	56	20	1184	1800	0.66
10826	CCTV-80ทางลงพัฒนาการ1	13.7365258	100.6041018	exat	working	2022-05-09T00:00:00	11:00:00	12:00:00	58	13	545	1800	0.30
10827	CCTV-80ทางลงพัฒนาการ1	13.7365258	100.6041018	exat	working	2022-05-09T00:00:00	12:00:00	13:00:00	56	17	1125	1800	0.63
10828	CCTV-80ทางลงพัฒนาการ1	13.7365258	100.6041018	exat	working	2022-05-09T00:00:00	13:00:00	14:00:00	57	19	1267	1800	0.70
10829	CCTV-80ทางลงพัฒนาการ1	13.7365258	100.6041018	exat	working	2022-05-09T00:00:00	14:00:00	15:00:00	54	18	1206	1800	0.67
10830	CCTV-80ทางลงพัฒนาการ1	13.7365258	100.6041018	exat	working	2022-05-09T00:00:00	15:00:00	16:00:00	57	17	1205	1800	0.67
10831	CCTV-80ทางลงพัฒนาการ1	13.7365258	100.6041018	exat	working	2022-05-09T00:00:00	16:00:00	17:00:00	62	13	362	1800	0.20
10832	CCTV-80ทางลงพัฒนาการ1	13.7365258	100.6041018	exat	working	2022-05-09T00:00:00	17:00:00	18:00:00	58	15	911	1800	0.51
10833	CCTV-80ทางลงพัฒนาการ1	13.7365258	100.6041018	exat	working	2022-05-09T00:00:00	18:00:00	19:00:00	49	18	727	1800	0.40
10834	CCTV-80ทางลงพัฒนาการ1	13.7365258	100.6041018	exat	working	2022-06-09T00:00:00	5:00:00	6:00:00	88	5	274	1800	0.15
10835	CCTV-80ทางลงพัฒนาการ1	13.7365258	100.6041018	exat	working	2022-06-09T00:00:00	6:00:00	7:00:00	63	15	814	1800	0.45
10836	CCTV-80ทางลงพัฒนาการ1	13.7365258	100.6041018	exat	working	2022-06-09T00:00:00	7:00:00	8:00:00	69	22	1812	1800	1.01
10837	CCTV-80ทางลงพัฒนาการ1	13.7365258	100.6041018	exat	working	2022-06-09T00:00:00	8:00:00	9:00:00	60	19	921	1800	0.51
10838	CCTV-80ทางลงพัฒนาการ1	13.7365258	100.6041018	exat	working	2022-06-09T00:00:00	9:00:00	10:00:00	58	16	845	1800	0.47
10839	CCTV-80ทางลงพัฒนาการ1	13.7365258	100.6041018	exat	working	2022-06-09T00:00:00	10:00:00	11:00:00	57	18	769	1800	0.43
10840	CCTV-80ทางลงพัฒนาการ1	13.7365258	100.6041018	exat	working	2022-06-09T00:00:00	11:00:00	12:00:00	56	13	437	1800	0.24
10841	CCTV-80ทางลงพัฒนาการ1	13.7365258	100.6041018	exat	working	2022-06-09T00:00:00	12:00:00	13:00:00	57	15	844	1800	0.47
10842	CCTV-80ทางลงพัฒนาการ1	13.7365258	100.6041018	exat	working	2022-06-09T00:00:00	13:00:00	14:00:00	56	18	885	1800	0.49
10843	CCTV-80ทางลงพัฒนาการ1	13.7365258	100.6041018	exat	working	2022-06-09T00:00:00	14:00:00	15:00:00	56	16	881	1800	0.49
10844	CCTV-80ทางลงพัฒนาการ1	13.7365258	100.6041018	exat	working	2022-06-09T00:00:00	15:00:00	16:00:00	57	16	776	1800	0.43
10845	CCTV-80ทางลงพัฒนาการ1	13.7365258	100.6041018	exat	working	2022-06-09T00:00:00	16:00:00	17:00:00	63	13	364	1800	0.20
10846	CCTV-80ทางลงพัฒนาการ1	13.7365258	100.6041018	exat	working	2022-06-09T00:00:00	17:00:00	18:00:00	59	23	801	1800	0.45
10847	CCTV-80ทางลงพัฒนาการ1	13.7365258	100.6041018	exat	working	2022-06-09T00:00:00	18:00:00	19:00:00	54	16	636	1800	0.35
10848	CCTV-80ทางลงพัฒนาการ1	13.7365258	100.6041018	exat	working	2022-07-09T00:00:00	5:00:00	6:00:00	84	5	178	1800	0.10
10849	CCTV-80ทางลงพัฒนาการ1	13.7365258	100.6041018	exat	working	2022-07-09T00:00:00	6:00:00	7:00:00	60	14	557	1800	0.31
10850	CCTV-80ทางลงพัฒนาการ1	13.7365258	100.6041018	exat	working	2022-07-09T00:00:00	7:00:00	8:00:00	50	14	729	1800	0.41
10851	CCTV-80ทางลงพัฒนาการ1	13.7365258	100.6041018	exat	working	2022-07-09T00:00:00	8:00:00	9:00:00	61	17	526	1800	0.29
10852	CCTV-80ทางลงพัฒนาการ1	13.7365258	100.6041018	exat	working	2022-07-09T00:00:00	9:00:00	10:00:00	58	15	533	1800	0.30
10853	CCTV-80ทางลงพัฒนาการ1	13.7365258	100.6041018	exat	working	2022-07-09T00:00:00	10:00:00	11:00:00	58	16	387	1800	0.22
10854	CCTV-80ทางลงพัฒนาการ1	13.7365258	100.6041018	exat	working	2022-07-09T00:00:00	11:00:00	12:00:00	55	13	364	1800	0.20
10855	CCTV-80ทางลงพัฒนาการ1	13.7365258	100.6041018	exat	working	2022-07-09T00:00:00	12:00:00	13:00:00	58	13	495	1800	0.28
10856	CCTV-80ทางลงพัฒนาการ1	13.7365258	100.6041018	exat	working	2022-07-09T00:00:00	13:00:00	14:00:00	56	16	533	1800	0.30
10857	CCTV-80ทางลงพัฒนาการ1	13.7365258	100.6041018	exat	working	2022-07-09T00:00:00	14:00:00	15:00:00	58	14	546	1800	0.30
10858	CCTV-80ทางลงพัฒนาการ1	13.7365258	100.6041018	exat	working	2022-07-09T00:00:00	15:00:00	16:00:00	57	14	408	1800	0.23
10859	CCTV-80ทางลงพัฒนาการ1	13.7365258	100.6041018	exat	working	2022-07-09T00:00:00	16:00:00	17:00:00	64	13	362	1800	0.20
10860	CCTV-80ทางลงพัฒนาการ1	13.7365258	100.6041018	exat	working	2022-07-09T00:00:00	17:00:00	18:00:00	60	30	728	1800	0.40
10861	CCTV-80ทางลงพัฒนาการ1	13.7365258	100.6041018	exat	working	2022-07-09T00:00:00	18:00:00	19:00:00	60	14	543	1800	0.30
10862	CCTV-80ทางลงพัฒนาการ1	13.7365258	100.6041018	exat	working	2022-08-09T00:00:00	5:00:00	6:00:00	85	5	186	1800	0.10
10863	CCTV-80ทางลงพัฒนาการ1	13.7365258	100.6041018	exat	working	2022-08-09T00:00:00	6:00:00	7:00:00	60	14	543	1800	0.30
10864	CCTV-80ทางลงพัฒนาการ1	13.7365258	100.6041018	exat	working	2022-08-09T00:00:00	7:00:00	8:00:00	58	20	984	1800	0.55
10865	CCTV-80ทางลงพัฒนาการ1	13.7365258	100.6041018	exat	working	2022-08-09T00:00:00	8:00:00	9:00:00	55	15	636	1800	0.35
10866	CCTV-80ทางลงพัฒนาการ1	13.7365258	100.6041018	exat	working	2022-08-09T00:00:00	9:00:00	10:00:00	54	12	610	1800	0.34
10867	CCTV-80ทางลงพัฒนาการ1	13.7365258	100.6041018	exat	working	2022-08-09T00:00:00	10:00:00	11:00:00	53	13	518	1800	0.29
10868	CCTV-80ทางลงพัฒนาการ1	13.7365258	100.6041018	exat	working	2022-08-09T00:00:00	11:00:00	12:00:00	56	18	898	1800	0.50
10869	CCTV-80ทางลงพัฒนาการ1	13.7365258	100.6041018	exat	working	2022-08-09T00:00:00	12:00:00	13:00:00	52	12	560	1800	0.31
10870	CCTV-80ทางลงพัฒนาการ1	13.7365258	100.6041018	exat	working	2022-08-09T00:00:00	13:00:00	14:00:00	52	13	641	1800	0.36
10871	CCTV-80ทางลงพัฒนาการ1	13.7365258	100.6041018	exat	working	2022-08-09T00:00:00	14:00:00	15:00:00	54	13	623	1800	0.35
10872	CCTV-80ทางลงพัฒนาการ1	13.7365258	100.6041018	exat	working	2022-08-09T00:00:00	15:00:00	16:00:00	52	14	514	1800	0.29
10873	CCTV-80ทางลงพัฒนาการ1	13.7365258	100.6041018	exat	working	2022-08-09T00:00:00	16:00:00	17:00:00	56	17	984	1800	0.55
10874	CCTV-80ทางลงพัฒนาการ1	13.7365258	100.6041018	exat	working	2022-08-09T00:00:00	17:00:00	18:00:00	67	29	1097	1800	0.61
10875	CCTV-80ทางลงพัฒนาการ1	13.7365258	100.6041018	exat	working	2022-08-09T00:00:00	18:00:00	19:00:00	68	22	1335	1800	0.74
10876	CCTV-80ทางลงพัฒนาการ1	13.7365258	100.6041018	exat	working	2022-09-09T00:00:00	5:00:00	6:00:00	85	5	180	1800	0.10
10877	CCTV-80ทางลงพัฒนาการ1	13.7365258	100.6041018	exat	working	2022-09-09T00:00:00	6:00:00	7:00:00	60	14	543	1800	0.30
10878	CCTV-80ทางลงพัฒนาการ1	13.7365258	100.6041018	exat	working	2022-09-09T00:00:00	7:00:00	8:00:00	66	25	1265	1800	0.70
10879	CCTV-80ทางลงพัฒนาการ1	13.7365258	100.6041018	exat	working	2022-09-09T00:00:00	8:00:00	9:00:00	50	14	727	1800	0.40
10880	CCTV-80ทางลงพัฒนาการ1	13.7365258	100.6041018	exat	working	2022-09-09T00:00:00	9:00:00	10:00:00	49	10	720	1800	0.40
10881	CCTV-80ทางลงพัฒนาการ1	13.7365258	100.6041018	exat	working	2022-09-09T00:00:00	10:00:00	11:00:00	48	9	609	1800	0.34
10882	CCTV-80ทางลงพัฒนาการ1	13.7365258	100.6041018	exat	working	2022-09-09T00:00:00	11:00:00	12:00:00	57	23	1439	1800	0.80
10883	CCTV-80ทางลงพัฒนาการ1	13.7365258	100.6041018	exat	working	2022-09-09T00:00:00	12:00:00	13:00:00	47	10	647	1800	0.36
10884	CCTV-80ทางลงพัฒนาการ1	13.7365258	100.6041018	exat	working	2022-09-09T00:00:00	13:00:00	14:00:00	48	9	727	1800	0.40
10885	CCTV-80ทางลงพัฒนาการ1	13.7365258	100.6041018	exat	working	2022-09-09T00:00:00	14:00:00	15:00:00	49	13	685	1800	0.38
10886	CCTV-80ทางลงพัฒนาการ1	13.7365258	100.6041018	exat	working	2022-09-09T00:00:00	15:00:00	16:00:00	47	13	622	1800	0.35
10887	CCTV-80ทางลงพัฒนาการ1	13.7365258	100.6041018	exat	working	2022-09-09T00:00:00	16:00:00	17:00:00	47	20	1664	1800	0.92
10888	CCTV-80ทางลงพัฒนาการ1	13.7365258	100.6041018	exat	working	2022-09-09T00:00:00	17:00:00	18:00:00	74	28	1447	1800	0.80
10889	CCTV-80ทางลงพัฒนาการ1	13.7365258	100.6041018	exat	working	2022-09-09T00:00:00	18:00:00	19:00:00	76	31	2176	1800	1.21
10890	CCTV-80ทางลงพัฒนาการ1	13.7365258	100.6041018	exat	working	2022-10-09T00:00:00	5:00:00	6:00:00	86	4	169	1800	0.09
10891	CCTV-80ทางลงพัฒนาการ1	13.7365258	100.6041018	exat	working	2022-10-09T00:00:00	6:00:00	7:00:00	60	14	545	1800	0.30
10892	CCTV-80ทางลงพัฒนาการ1	13.7365258	100.6041018	exat	holiday	2022-10-09T00:00:00	7:00:00	8:00:00	66	32	544	1800	0.30
10893	CCTV-80ทางลงพัฒนาการ1	13.7365258	100.6041018	exat	holiday	2022-10-09T00:00:00	8:00:00	9:00:00	68	51	362	1800	0.20
10894	CCTV-80ทางลงพัฒนาการ1	13.7365258	100.6041018	exat	working	2022-10-09T00:00:00	9:00:00	10:00:00	64	49	205	1800	0.11
10895	CCTV-80ทางลงพัฒนาการ1	13.7365258	100.6041018	exat	working	2022-10-09T00:00:00	10:00:00	11:00:00	65	47	296	1800	0.16
10896	CCTV-80ทางลงพัฒนาการ1	13.7365258	100.6041018	exat	holiday	2022-10-09T00:00:00	11:00:00	12:00:00	91	14	1093	1800	0.61
10897	CCTV-80ทางลงพัฒนาการ1	13.7365258	100.6041018	exat	working	2022-10-09T00:00:00	12:00:00	13:00:00	64	47	312	1800	0.17
10898	CCTV-80ทางลงพัฒนาการ1	13.7365258	100.6041018	exat	working	2022-10-09T00:00:00	13:00:00	14:00:00	67	49	250	1800	0.14
10899	CCTV-80ทางลงพัฒนาการ1	13.7365258	100.6041018	exat	working	2022-10-09T00:00:00	14:00:00	15:00:00	64	49	365	1800	0.20
10900	CCTV-80ทางลงพัฒนาการ1	13.7365258	100.6041018	exat	working	2022-10-09T00:00:00	15:00:00	16:00:00	64	47	282	1800	0.16
10901	CCTV-80ทางลงพัฒนาการ1	13.7365258	100.6041018	exat	holiday	2022-10-09T00:00:00	16:00:00	17:00:00	91	16	1465	1800	0.81
10902	CCTV-80ทางลงพัฒนาการ1	13.7365258	100.6041018	exat	holiday	2022-10-09T00:00:00	17:00:00	18:00:00	76	22	2208	1800	1.23
10903	CCTV-80ทางลงพัฒนาการ1	13.7365258	100.6041018	exat	working	2022-10-09T00:00:00	18:00:00	19:00:00	76	31	2187	1800	1.22
10904	CCTV-80ทางลงพัฒนาการ1	13.7365258	100.6041018	exat	working	2022-11-09T00:00:00	5:00:00	6:00:00	50	3	108	1800	0.06
10905	CCTV-80ทางลงพัฒนาการ1	13.7365258	100.6041018	exat	working	2022-11-09T00:00:00	6:00:00	7:00:00	36	9	324	1800	0.18
10906	CCTV-80ทางลงพัฒนาการ1	13.7365258	100.6041018	exat	holiday	2022-11-09T00:00:00	7:00:00	8:00:00	40	19	317	1800	0.18
10907	CCTV-80ทางลงพัฒนาการ1	13.7365258	100.6041018	exat	holiday	2022-11-09T00:00:00	8:00:00	9:00:00	41	31	217	1800	0.12
10908	CCTV-80ทางลงพัฒนาการ1	13.7365258	100.6041018	exat	working	2022-11-09T00:00:00	9:00:00	10:00:00	39	30	111	1800	0.06
10909	CCTV-80ทางลงพัฒนาการ1	13.7365258	100.6041018	exat	working	2022-11-09T00:00:00	10:00:00	11:00:00	39	28	162	1800	0.09
10910	CCTV-80ทางลงพัฒนาการ1	13.7365258	100.6041018	exat	holiday	2022-11-09T00:00:00	11:00:00	12:00:00	55	9	650	1800	0.36
10911	CCTV-80ทางลงพัฒนาการ1	13.7365258	100.6041018	exat	working	2022-11-09T00:00:00	12:00:00	13:00:00	39	28	181	1800	0.10
10912	CCTV-80ทางลงพัฒนาการ1	13.7365258	100.6041018	exat	working	2022-11-09T00:00:00	13:00:00	14:00:00	40	29	174	1800	0.10
10913	CCTV-80ทางลงพัฒนาการ1	13.7365258	100.6041018	exat	working	2022-11-09T00:00:00	14:00:00	15:00:00	38	30	199	1800	0.11
10914	CCTV-80ทางลงพัฒนาการ1	13.7365258	100.6041018	exat	working	2022-11-09T00:00:00	15:00:00	16:00:00	38	29	185	1800	0.10
10915	CCTV-80ทางลงพัฒนาการ1	13.7365258	100.6041018	exat	holiday	2022-11-09T00:00:00	16:00:00	17:00:00	55	10	889	1800	0.49
10916	CCTV-80ทางลงพัฒนาการ1	13.7365258	100.6041018	exat	holiday	2022-11-09T00:00:00	17:00:00	18:00:00	46	13	1309	1800	0.73
10917	CCTV-80ทางลงพัฒนาการ1	13.7365258	100.6041018	exat	working	2022-11-09T00:00:00	18:00:00	19:00:00	46	19	1339	1800	0.74
10918	CCTV-07ขึ้นพัฒนาการ2	13.742556	100.6050302	exat	working	2022-05-09T00:00:00	5:00:00	6:00:00	30	40	121	1800	0.07
10919	CCTV-07ขึ้นพัฒนาการ2	13.742556	100.6050302	exat	working	2022-05-09T00:00:00	6:00:00	7:00:00	21	121	382	1800	0.21
10920	CCTV-07ขึ้นพัฒนาการ2	13.742556	100.6050302	exat	working	2022-05-09T00:00:00	7:00:00	8:00:00	21	121	365	1800	0.20
10921	CCTV-07ขึ้นพัฒนาการ2	13.742556	100.6050302	exat	working	2022-05-09T00:00:00	8:00:00	9:00:00	21	121	922	1800	0.51
10922	CCTV-07ขึ้นพัฒนาการ2	13.742556	100.6050302	exat	working	2022-05-09T00:00:00	9:00:00	10:00:00	21	121	831	1800	0.46
10923	CCTV-07ขึ้นพัฒนาการ2	13.742556	100.6050302	exat	working	2022-05-09T00:00:00	10:00:00	11:00:00	21	121	808	1800	0.45
10924	CCTV-07ขึ้นพัฒนาการ2	13.742556	100.6050302	exat	working	2022-05-09T00:00:00	11:00:00	12:00:00	21	121	715	1800	0.40
10925	CCTV-07ขึ้นพัฒนาการ2	13.742556	100.6050302	exat	working	2022-05-09T00:00:00	12:00:00	13:00:00	21	122	825	1800	0.46
10926	CCTV-07ขึ้นพัฒนาการ2	13.742556	100.6050302	exat	working	2022-05-09T00:00:00	13:00:00	14:00:00	21	121	897	1800	0.50
10927	CCTV-07ขึ้นพัฒนาการ2	13.742556	100.6050302	exat	working	2022-05-09T00:00:00	14:00:00	15:00:00	21	121	855	1800	0.48
10928	CCTV-07ขึ้นพัฒนาการ2	13.742556	100.6050302	exat	working	2022-05-09T00:00:00	15:00:00	16:00:00	21	121	908	1800	0.50
10929	CCTV-07ขึ้นพัฒนาการ2	13.742556	100.6050302	exat	working	2022-05-09T00:00:00	16:00:00	17:00:00	21	122	918	1800	0.51
10930	CCTV-07ขึ้นพัฒนาการ2	13.742556	100.6050302	exat	working	2022-05-09T00:00:00	17:00:00	18:00:00	21	121	365	1800	0.20
10931	CCTV-07ขึ้นพัฒนาการ2	13.742556	100.6050302	exat	working	2022-05-09T00:00:00	18:00:00	19:00:00	21	122	365	1800	0.20
10932	CCTV-07ขึ้นพัฒนาการ2	13.742556	100.6050302	exat	working	2022-06-09T00:00:00	5:00:00	6:00:00	29	37	121	1800	0.07
10933	CCTV-07ขึ้นพัฒนาการ2	13.742556	100.6050302	exat	working	2022-06-09T00:00:00	6:00:00	7:00:00	21	121	365	1800	0.20
10934	CCTV-07ขึ้นพัฒนาการ2	13.742556	100.6050302	exat	working	2022-06-09T00:00:00	7:00:00	8:00:00	21	121	534	1800	0.30
10935	CCTV-07ขึ้นพัฒนาการ2	13.742556	100.6050302	exat	working	2022-06-09T00:00:00	8:00:00	9:00:00	21	121	636	1800	0.35
10936	CCTV-07ขึ้นพัฒนาการ2	13.742556	100.6050302	exat	working	2022-06-09T00:00:00	9:00:00	10:00:00	21	121	591	1800	0.33
10937	CCTV-07ขึ้นพัฒนาการ2	13.742556	100.6050302	exat	working	2022-06-09T00:00:00	10:00:00	11:00:00	21	121	548	1800	0.30
10938	CCTV-07ขึ้นพัฒนาการ2	13.742556	100.6050302	exat	working	2022-06-09T00:00:00	11:00:00	12:00:00	21	121	733	1800	0.41
10939	CCTV-07ขึ้นพัฒนาการ2	13.742556	100.6050302	exat	working	2022-06-09T00:00:00	12:00:00	13:00:00	21	122	578	1800	0.32
10940	CCTV-07ขึ้นพัฒนาการ2	13.742556	100.6050302	exat	working	2022-06-09T00:00:00	13:00:00	14:00:00	21	121	612	1800	0.34
10941	CCTV-07ขึ้นพัฒนาการ2	13.742556	100.6050302	exat	working	2022-06-09T00:00:00	14:00:00	15:00:00	21	122	605	1800	0.34
10942	CCTV-07ขึ้นพัฒนาการ2	13.742556	100.6050302	exat	working	2022-06-09T00:00:00	15:00:00	16:00:00	21	121	621	1800	0.35
10943	CCTV-07ขึ้นพัฒนาการ2	13.742556	100.6050302	exat	working	2022-06-09T00:00:00	16:00:00	17:00:00	21	121	806	1800	0.45
10944	CCTV-07ขึ้นพัฒนาการ2	13.742556	100.6050302	exat	working	2022-06-09T00:00:00	17:00:00	18:00:00	21	121	744	1800	0.41
10945	CCTV-07ขึ้นพัฒนาการ2	13.742556	100.6050302	exat	working	2022-06-09T00:00:00	18:00:00	19:00:00	21	121	358	1800	0.20
10946	CCTV-07ขึ้นพัฒนาการ2	13.742556	100.6050302	exat	working	2022-07-09T00:00:00	5:00:00	6:00:00	29	43	113	1800	0.06
10947	CCTV-07ขึ้นพัฒนาการ2	13.742556	100.6050302	exat	working	2022-07-09T00:00:00	6:00:00	7:00:00	21	121	368	1800	0.20
10948	CCTV-07ขึ้นพัฒนาการ2	13.742556	100.6050302	exat	working	2022-07-09T00:00:00	7:00:00	8:00:00	21	121	717	1800	0.40
10949	CCTV-07ขึ้นพัฒนาการ2	13.742556	100.6050302	exat	working	2022-07-09T00:00:00	8:00:00	9:00:00	21	121	365	1800	0.20
10950	CCTV-07ขึ้นพัฒนาการ2	13.742556	100.6050302	exat	working	2022-07-09T00:00:00	9:00:00	10:00:00	21	121	340	1800	0.19
10951	CCTV-07ขึ้นพัฒนาการ2	13.742556	100.6050302	exat	working	2022-07-09T00:00:00	10:00:00	11:00:00	21	121	320	1800	0.18
10952	CCTV-07ขึ้นพัฒนาการ2	13.742556	100.6050302	exat	working	2022-07-09T00:00:00	11:00:00	12:00:00	21	122	728	1800	0.40
10953	CCTV-07ขึ้นพัฒนาการ2	13.742556	100.6050302	exat	working	2022-07-09T00:00:00	12:00:00	13:00:00	21	121	286	1800	0.16
10954	CCTV-07ขึ้นพัฒนาการ2	13.742556	100.6050302	exat	working	2022-07-09T00:00:00	13:00:00	14:00:00	21	121	300	1800	0.17
10955	CCTV-07ขึ้นพัฒนาการ2	13.742556	100.6050302	exat	working	2022-07-09T00:00:00	14:00:00	15:00:00	21	121	378	1800	0.21
10956	CCTV-07ขึ้นพัฒนาการ2	13.742556	100.6050302	exat	working	2022-07-09T00:00:00	15:00:00	16:00:00	21	121	335	1800	0.19
10957	CCTV-07ขึ้นพัฒนาการ2	13.742556	100.6050302	exat	working	2022-07-09T00:00:00	16:00:00	17:00:00	21	121	729	1800	0.41
10958	CCTV-07ขึ้นพัฒนาการ2	13.742556	100.6050302	exat	working	2022-07-09T00:00:00	17:00:00	18:00:00	21	121	1107	1800	0.62
10959	CCTV-07ขึ้นพัฒนาการ2	13.742556	100.6050302	exat	working	2022-08-09T00:00:00	5:00:00	6:00:00	30	38	120	1800	0.07
10960	CCTV-07ขึ้นพัฒนาการ2	13.742556	100.6050302	exat	working	2022-08-09T00:00:00	6:00:00	7:00:00	21	121	366	1800	0.20
10961	CCTV-07ขึ้นพัฒนาการ2	13.742556	100.6050302	exat	working	2022-08-09T00:00:00	7:00:00	8:00:00	21	121	1183	1800	0.66
10962	CCTV-07ขึ้นพัฒนาการ2	13.742556	100.6050302	exat	working	2022-08-09T00:00:00	8:00:00	9:00:00	21	121	553	1800	0.31
10963	CCTV-07ขึ้นพัฒนาการ2	13.742556	100.6050302	exat	working	2022-08-09T00:00:00	9:00:00	10:00:00	21	121	524	1800	0.29
10964	CCTV-07ขึ้นพัฒนาการ2	13.742556	100.6050302	exat	working	2022-08-09T00:00:00	10:00:00	11:00:00	21	122	519	1800	0.29
10965	CCTV-07ขึ้นพัฒนาการ2	13.742556	100.6050302	exat	working	2022-08-09T00:00:00	11:00:00	12:00:00	21	121	932	1800	0.52
10966	CCTV-07ขึ้นพัฒนาการ2	13.742556	100.6050302	exat	working	2022-08-09T00:00:00	12:00:00	13:00:00	21	121	467	1800	0.26
10967	CCTV-07ขึ้นพัฒนาการ2	13.742556	100.6050302	exat	working	2022-08-09T00:00:00	13:00:00	14:00:00	21	121	461	1800	0.26
10968	CCTV-07ขึ้นพัฒนาการ2	13.742556	100.6050302	exat	working	2022-08-09T00:00:00	14:00:00	15:00:00	21	121	549	1800	0.31
10969	CCTV-07ขึ้นพัฒนาการ2	13.742556	100.6050302	exat	working	2022-08-09T00:00:00	15:00:00	16:00:00	21	121	473	1800	0.26
10970	CCTV-07ขึ้นพัฒนาการ2	13.742556	100.6050302	exat	working	2022-08-09T00:00:00	16:00:00	17:00:00	21	122	730	1800	0.41
10971	CCTV-07ขึ้นพัฒนาการ2	13.742556	100.6050302	exat	working	2022-08-09T00:00:00	17:00:00	18:00:00	21	121	744	1800	0.41
10972	CCTV-07ขึ้นพัฒนาการ2	13.742556	100.6050302	exat	working	2022-08-09T00:00:00	18:00:00	19:00:00	21	121	914	1800	0.51
10973	CCTV-07ขึ้นพัฒนาการ2	13.742556	100.6050302	exat	working	2022-09-09T00:00:00	5:00:00	6:00:00	29	40	116	1800	0.06
10974	CCTV-07ขึ้นพัฒนาการ2	13.742556	100.6050302	exat	working	2022-09-09T00:00:00	6:00:00	7:00:00	21	122	366	1800	0.20
10975	CCTV-07ขึ้นพัฒนาการ2	13.742556	100.6050302	exat	working	2022-09-09T00:00:00	7:00:00	8:00:00	21	122	1647	1800	0.92
10976	CCTV-07ขึ้นพัฒนาการ2	13.742556	100.6050302	exat	working	2022-09-09T00:00:00	8:00:00	9:00:00	21	121	733	1800	0.41
10977	CCTV-07ขึ้นพัฒนาการ2	13.742556	100.6050302	exat	working	2022-09-09T00:00:00	9:00:00	10:00:00	21	122	665	1800	0.37
10978	CCTV-07ขึ้นพัฒนาการ2	13.742556	100.6050302	exat	working	2022-09-09T00:00:00	10:00:00	11:00:00	21	122	699	1800	0.39
10979	CCTV-07ขึ้นพัฒนาการ2	13.742556	100.6050302	exat	working	2022-09-09T00:00:00	11:00:00	12:00:00	21	121	1094	1800	0.61
10980	CCTV-07ขึ้นพัฒนาการ2	13.742556	100.6050302	exat	working	2022-09-09T00:00:00	12:00:00	13:00:00	21	121	600	1800	0.33
10981	CCTV-07ขึ้นพัฒนาการ2	13.742556	100.6050302	exat	working	2022-09-09T00:00:00	13:00:00	14:00:00	21	121	614	1800	0.34
10982	CCTV-07ขึ้นพัฒนาการ2	13.742556	100.6050302	exat	working	2022-09-09T00:00:00	14:00:00	15:00:00	21	121	732	1800	0.41
10983	CCTV-07ขึ้นพัฒนาการ2	13.742556	100.6050302	exat	working	2022-09-09T00:00:00	15:00:00	16:00:00	21	121	620	1800	0.34
10984	CCTV-07ขึ้นพัฒนาการ2	13.742556	100.6050302	exat	working	2022-09-09T00:00:00	16:00:00	17:00:00	21	121	712	1800	0.40
10985	CCTV-07ขึ้นพัฒนาการ2	13.742556	100.6050302	exat	working	2022-09-09T00:00:00	17:00:00	18:00:00	21	121	353	1800	0.20
10986	CCTV-07ขึ้นพัฒนาการ2	13.742556	100.6050302	exat	working	2022-09-09T00:00:00	18:00:00	19:00:00	21	121	910	1800	0.51
10987	CCTV-07ขึ้นพัฒนาการ2	13.742556	100.6050302	exat	working	2022-10-09T00:00:00	5:00:00	6:00:00	29	39	132	1800	0.07
10988	CCTV-07ขึ้นพัฒนาการ2	13.742556	100.6050302	exat	holiday	2022-10-09T00:00:00	6:00:00	7:00:00	21	121	385	1800	0.21
10989	CCTV-07ขึ้นพัฒนาการ2	13.742556	100.6050302	exat	holiday	2022-10-09T00:00:00	7:00:00	8:00:00	21	122	546	1800	0.30
10990	CCTV-07ขึ้นพัฒนาการ2	13.742556	100.6050302	exat	holiday	2022-10-09T00:00:00	8:00:00	9:00:00	21	121	549	1800	0.31
10991	CCTV-07ขึ้นพัฒนาการ2	13.742556	100.6050302	exat	working	2022-10-09T00:00:00	9:00:00	10:00:00	21	121	405	1800	0.23
10992	CCTV-07ขึ้นพัฒนาการ2	13.742556	100.6050302	exat	working	2022-10-09T00:00:00	10:00:00	11:00:00	21	122	426	1800	0.24
10993	CCTV-07ขึ้นพัฒนาการ2	13.742556	100.6050302	exat	working	2022-10-09T00:00:00	11:00:00	12:00:00	21	121	1094	1800	0.61
10994	CCTV-07ขึ้นพัฒนาการ2	13.742556	100.6050302	exat	working	2022-10-09T00:00:00	12:00:00	13:00:00	21	121	399	1800	0.22
10995	CCTV-07ขึ้นพัฒนาการ2	13.742556	100.6050302	exat	working	2022-10-09T00:00:00	13:00:00	14:00:00	21	121	493	1800	0.27
10996	CCTV-07ขึ้นพัฒนาการ2	13.742556	100.6050302	exat	working	2022-10-09T00:00:00	14:00:00	15:00:00	21	121	522	1800	0.29
10997	CCTV-07ขึ้นพัฒนาการ2	13.742556	100.6050302	exat	working	2022-10-09T00:00:00	15:00:00	16:00:00	21	122	524	1800	0.29
10998	CCTV-07ขึ้นพัฒนาการ2	13.742556	100.6050302	exat	holiday	2022-10-09T00:00:00	16:00:00	17:00:00	21	122	729	1800	0.41
10999	CCTV-07ขึ้นพัฒนาการ2	13.742556	100.6050302	exat	holiday	2022-10-09T00:00:00	18:00:00	19:00:00	21	122	717	1800	0.40
11000	CCTV-07ขึ้นพัฒนาการ2	13.742556	100.6050302	exat	working	2022-11-09T00:00:00	5:00:00	6:00:00	29	38	81	1800	0.05
11001	CCTV-07ขึ้นพัฒนาการ2	13.742556	100.6050302	exat	holiday	2022-11-09T00:00:00	6:00:00	7:00:00	21	122	236	1800	0.13
11002	CCTV-07ขึ้นพัฒนาการ2	13.742556	100.6050302	exat	holiday	2022-11-09T00:00:00	7:00:00	8:00:00	21	121	329	1800	0.18
11003	CCTV-07ขึ้นพัฒนาการ2	13.742556	100.6050302	exat	holiday	2022-11-09T00:00:00	8:00:00	9:00:00	21	121	328	1800	0.18
11004	CCTV-07ขึ้นพัฒนาการ2	13.742556	100.6050302	exat	working	2022-11-09T00:00:00	9:00:00	10:00:00	21	121	232	1800	0.13
11005	CCTV-07ขึ้นพัฒนาการ2	13.742556	100.6050302	exat	working	2022-11-09T00:00:00	10:00:00	11:00:00	21	121	245	1800	0.14
11006	CCTV-07ขึ้นพัฒนาการ2	13.742556	100.6050302	exat	working	2022-11-09T00:00:00	11:00:00	12:00:00	21	121	646	1800	0.36
11007	CCTV-07ขึ้นพัฒนาการ2	13.742556	100.6050302	exat	working	2022-11-09T00:00:00	12:00:00	13:00:00	21	121	245	1800	0.14
11008	CCTV-07ขึ้นพัฒนาการ2	13.742556	100.6050302	exat	working	2022-11-09T00:00:00	13:00:00	14:00:00	21	122	286	1800	0.16
11009	CCTV-07ขึ้นพัฒนาการ2	13.742556	100.6050302	exat	working	2022-11-09T00:00:00	14:00:00	15:00:00	21	121	303	1800	0.17
11010	CCTV-07ขึ้นพัฒนาการ2	13.742556	100.6050302	exat	working	2022-11-09T00:00:00	15:00:00	16:00:00	21	121	302	1800	0.17
11011	CCTV-07ขึ้นพัฒนาการ2	13.742556	100.6050302	exat	holiday	2022-11-09T00:00:00	16:00:00	17:00:00	21	121	437	1800	0.24
11012	CCTV-07ขึ้นพัฒนาการ2	13.742556	100.6050302	exat	holiday	2022-11-09T00:00:00	18:00:00	19:00:00	21	121	429	1800	0.24
11013	CCTV-13ทางขึ้นพระราม9_2ลงพระราม2	13.7810955	100.6077724	exat	working	2022-05-09T00:00:00	5:00:00	6:00:00	130	50	1253	2700	0.46
11014	CCTV-13ทางขึ้นพระราม9_2ลงพระราม2	13.7810955	100.6077724	exat	working	2022-05-09T00:00:00	6:00:00	7:00:00	91	152	3643	2700	1.35
11015	CCTV-13ทางขึ้นพระราม9_2ลงพระราม2	13.7810955	100.6077724	exat	working	2022-05-09T00:00:00	7:00:00	8:00:00	91	182	3844	2700	1.42
11016	CCTV-13ทางขึ้นพระราม9_2ลงพระราม2	13.7810955	100.6077724	exat	working	2022-05-09T00:00:00	8:00:00	9:00:00	91	181	4195	2700	1.55
11017	CCTV-13ทางขึ้นพระราม9_2ลงพระราม2	13.7810955	100.6077724	exat	working	2022-05-09T00:00:00	9:00:00	10:00:00	90	182	4145	2700	1.54
11018	CCTV-13ทางขึ้นพระราม9_2ลงพระราม2	13.7810955	100.6077724	exat	working	2022-05-09T00:00:00	10:00:00	11:00:00	86	181	4145	2700	1.54
11019	CCTV-13ทางขึ้นพระราม9_2ลงพระราม2	13.7810955	100.6077724	exat	working	2022-05-09T00:00:00	11:00:00	12:00:00	91	77	1461	2700	0.54
11020	CCTV-13ทางขึ้นพระราม9_2ลงพระราม2	13.7810955	100.6077724	exat	working	2022-05-09T00:00:00	12:00:00	13:00:00	87	178	4092	2700	1.52
11021	CCTV-13ทางขึ้นพระราม9_2ลงพระราม2	13.7810955	100.6077724	exat	working	2022-05-09T00:00:00	13:00:00	14:00:00	88	178	4027	2700	1.49
11022	CCTV-13ทางขึ้นพระราม9_2ลงพระราม2	13.7810955	100.6077724	exat	working	2022-05-09T00:00:00	14:00:00	15:00:00	86	179	4142	2700	1.53
11023	CCTV-13ทางขึ้นพระราม9_2ลงพระราม2	13.7810955	100.6077724	exat	working	2022-05-09T00:00:00	15:00:00	16:00:00	86	178	4093	2700	1.52
11024	CCTV-13ทางขึ้นพระราม9_2ลงพระราม2	13.7810955	100.6077724	exat	working	2022-05-09T00:00:00	16:00:00	17:00:00	91	182	3850	2700	1.43
11025	CCTV-13ทางขึ้นพระราม9_2ลงพระราม2	13.7810955	100.6077724	exat	working	2022-05-09T00:00:00	17:00:00	18:00:00	91	182	7156	2700	2.65
11026	CCTV-13ทางขึ้นพระราม9_2ลงพระราม2	13.7810955	100.6077724	exat	working	2022-05-09T00:00:00	18:00:00	19:00:00	91	181	7084	2700	2.62
11027	CCTV-13ทางขึ้นพระราม9_2ลงพระราม2	13.7810955	100.6077724	exat	working	2022-06-09T00:00:00	5:00:00	6:00:00	130	52	735	2700	0.27
11028	CCTV-13ทางขึ้นพระราม9_2ลงพระราม2	13.7810955	100.6077724	exat	working	2022-06-09T00:00:00	6:00:00	7:00:00	91	166	2376	2700	0.88
11029	CCTV-13ทางขึ้นพระราม9_2ลงพระราม2	13.7810955	100.6077724	exat	working	2022-06-09T00:00:00	7:00:00	8:00:00	46	171	3573	2700	1.32
11030	CCTV-13ทางขึ้นพระราม9_2ลงพระราม2	13.7810955	100.6077724	exat	working	2022-06-09T00:00:00	8:00:00	9:00:00	91	182	4469	2700	1.66
11031	CCTV-13ทางขึ้นพระราม9_2ลงพระราม2	13.7810955	100.6077724	exat	working	2022-06-09T00:00:00	9:00:00	10:00:00	88	180	4438	2700	1.64
11032	CCTV-13ทางขึ้นพระราม9_2ลงพระราม2	13.7810955	100.6077724	exat	working	2022-06-09T00:00:00	10:00:00	11:00:00	88	180	4433	2700	1.64
11033	CCTV-13ทางขึ้นพระราม9_2ลงพระราม2	13.7810955	100.6077724	exat	working	2022-06-09T00:00:00	11:00:00	12:00:00	91	105	2730	2700	1.01
11034	CCTV-13ทางขึ้นพระราม9_2ลงพระราม2	13.7810955	100.6077724	exat	working	2022-06-09T00:00:00	12:00:00	13:00:00	87	178	4402	2700	1.63
11035	CCTV-13ทางขึ้นพระราม9_2ลงพระราม2	13.7810955	100.6077724	exat	working	2022-06-09T00:00:00	13:00:00	14:00:00	87	178	4368	2700	1.62
11036	CCTV-13ทางขึ้นพระราม9_2ลงพระราม2	13.7810955	100.6077724	exat	working	2022-06-09T00:00:00	14:00:00	15:00:00	88	177	4350	2700	1.61
11037	CCTV-13ทางขึ้นพระราม9_2ลงพระราม2	13.7810955	100.6077724	exat	working	2022-06-09T00:00:00	15:00:00	16:00:00	88	178	4297	2700	1.59
11038	CCTV-13ทางขึ้นพระราม9_2ลงพระราม2	13.7810955	100.6077724	exat	working	2022-06-09T00:00:00	16:00:00	17:00:00	91	181	5696	2700	2.11
11039	CCTV-13ทางขึ้นพระราม9_2ลงพระราม2	13.7810955	100.6077724	exat	working	2022-06-09T00:00:00	17:00:00	18:00:00	91	181	7378	2700	2.73
11040	CCTV-13ทางขึ้นพระราม9_2ลงพระราม2	13.7810955	100.6077724	exat	working	2022-06-09T00:00:00	18:00:00	19:00:00	91	181	6596	2700	2.44
11041	CCTV-13ทางขึ้นพระราม9_2ลงพระราม2	13.7810955	100.6077724	exat	working	2022-07-09T00:00:00	5:00:00	6:00:00	128	55	373	2700	0.14
11042	CCTV-13ทางขึ้นพระราม9_2ลงพระราม2	13.7810955	100.6077724	exat	working	2022-07-09T00:00:00	6:00:00	7:00:00	91	181	1091	2700	0.40
11043	CCTV-13ทางขึ้นพระราม9_2ลงพระราม2	13.7810955	100.6077724	exat	working	2022-07-09T00:00:00	7:00:00	8:00:00	21	121	3310	2700	1.23
11044	CCTV-13ทางขึ้นพระราม9_2ลงพระราม2	13.7810955	100.6077724	exat	working	2022-07-09T00:00:00	8:00:00	9:00:00	91	181	4764	2700	1.76
11045	CCTV-13ทางขึ้นพระราม9_2ลงพระราม2	13.7810955	100.6077724	exat	working	2022-07-09T00:00:00	9:00:00	10:00:00	86	178	4702	2700	1.74
11046	CCTV-13ทางขึ้นพระราม9_2ลงพระราม2	13.7810955	100.6077724	exat	working	2022-07-09T00:00:00	10:00:00	11:00:00	90	178	4688	2700	1.74
11047	CCTV-13ทางขึ้นพระราม9_2ลงพระราม2	13.7810955	100.6077724	exat	working	2022-07-09T00:00:00	11:00:00	12:00:00	91	134	4040	2700	1.50
11048	CCTV-13ทางขึ้นพระราม9_2ลงพระราม2	13.7810955	100.6077724	exat	working	2022-07-09T00:00:00	12:00:00	13:00:00	86	179	4696	2700	1.74
11049	CCTV-13ทางขึ้นพระราม9_2ลงพระราม2	13.7810955	100.6077724	exat	working	2022-07-09T00:00:00	13:00:00	14:00:00	86	180	4705	2700	1.74
11050	CCTV-13ทางขึ้นพระราม9_2ลงพระราม2	13.7810955	100.6077724	exat	working	2022-07-09T00:00:00	14:00:00	15:00:00	90	176	4587	2700	1.70
11051	CCTV-13ทางขึ้นพระราม9_2ลงพระราม2	13.7810955	100.6077724	exat	working	2022-07-09T00:00:00	15:00:00	16:00:00	90	181	4550	2700	1.69
11052	CCTV-13ทางขึ้นพระราม9_2ลงพระราม2	13.7810955	100.6077724	exat	working	2022-07-09T00:00:00	16:00:00	17:00:00	91	181	7494	2700	2.78
11053	CCTV-13ทางขึ้นพระราม9_2ลงพระราม2	13.7810955	100.6077724	exat	working	2022-07-09T00:00:00	17:00:00	18:00:00	91	181	7694	2700	2.85
11054	CCTV-13ทางขึ้นพระราม9_2ลงพระราม2	13.7810955	100.6077724	exat	working	2022-07-09T00:00:00	18:00:00	19:00:00	91	182	6019	2700	2.23
11055	CCTV-13ทางขึ้นพระราม9_2ลงพระราม2	13.7810955	100.6077724	exat	working	2022-08-09T00:00:00	5:00:00	6:00:00	66	50	456	2700	0.17
11056	CCTV-13ทางขึ้นพระราม9_2ลงพระราม2	13.7810955	100.6077724	exat	working	2022-08-09T00:00:00	6:00:00	7:00:00	46	153	1382	2700	0.51
11057	CCTV-13ทางขึ้นพระราม9_2ลงพระราม2	13.7810955	100.6077724	exat	working	2022-08-09T00:00:00	7:00:00	8:00:00	21	121	3477	2700	1.29
11058	CCTV-13ทางขึ้นพระราม9_2ลงพระราม2	13.7810955	100.6077724	exat	working	2022-08-09T00:00:00	8:00:00	9:00:00	91	182	4744	2700	1.76
11059	CCTV-13ทางขึ้นพระราม9_2ลงพระราม2	13.7810955	100.6077724	exat	working	2022-08-09T00:00:00	9:00:00	10:00:00	87	178	4682	2700	1.73
11060	CCTV-13ทางขึ้นพระราม9_2ลงพระราม2	13.7810955	100.6077724	exat	working	2022-08-09T00:00:00	10:00:00	11:00:00	90	178	4710	2700	1.74
11061	CCTV-13ทางขึ้นพระราม9_2ลงพระราม2	13.7810955	100.6077724	exat	working	2022-08-09T00:00:00	11:00:00	12:00:00	91	134	4041	2700	1.50
11062	CCTV-13ทางขึ้นพระราม9_2ลงพระราม2	13.7810955	100.6077724	exat	working	2022-08-09T00:00:00	12:00:00	13:00:00	87	178	4655	2700	1.72
11063	CCTV-13ทางขึ้นพระราม9_2ลงพระราม2	13.7810955	100.6077724	exat	working	2022-08-09T00:00:00	13:00:00	14:00:00	87	179	4711	2700	1.74
11064	CCTV-13ทางขึ้นพระราม9_2ลงพระราม2	13.7810955	100.6077724	exat	working	2022-08-09T00:00:00	14:00:00	15:00:00	90	176	4610	2700	1.71
11065	CCTV-13ทางขึ้นพระราม9_2ลงพระราม2	13.7810955	100.6077724	exat	working	2022-08-09T00:00:00	15:00:00	16:00:00	89	178	4567	2700	1.69
11066	CCTV-13ทางขึ้นพระราม9_2ลงพระราม2	13.7810955	100.6077724	exat	working	2022-08-09T00:00:00	16:00:00	17:00:00	91	181	7888	2700	2.92
11067	CCTV-13ทางขึ้นพระราม9_2ลงพระราม2	13.7810955	100.6077724	exat	working	2022-08-09T00:00:00	17:00:00	18:00:00	91	181	7100	2700	2.63
11068	CCTV-13ทางขึ้นพระราม9_2ลงพระราม2	13.7810955	100.6077724	exat	working	2022-08-09T00:00:00	18:00:00	19:00:00	91	181	6637	2700	2.46
11069	CCTV-13ทางขึ้นพระราม9_2ลงพระราม2	13.7810955	100.6077724	exat	working	2022-09-09T00:00:00	5:00:00	6:00:00	29	39	529	2700	0.20
11070	CCTV-13ทางขึ้นพระราม9_2ลงพระราม2	13.7810955	100.6077724	exat	working	2022-09-09T00:00:00	6:00:00	7:00:00	21	122	1633	2700	0.60
11071	CCTV-13ทางขึ้นพระราม9_2ลงพระราม2	13.7810955	100.6077724	exat	working	2022-09-09T00:00:00	7:00:00	8:00:00	21	121	3632	2700	1.35
11072	CCTV-13ทางขึ้นพระราม9_2ลงพระราม2	13.7810955	100.6077724	exat	working	2022-09-09T00:00:00	8:00:00	9:00:00	91	182	4755	2700	1.76
11073	CCTV-13ทางขึ้นพระราม9_2ลงพระราม2	13.7810955	100.6077724	exat	working	2022-09-09T00:00:00	9:00:00	10:00:00	87	176	4733	2700	1.75
11074	CCTV-13ทางขึ้นพระราม9_2ลงพระราม2	13.7810955	100.6077724	exat	working	2022-09-09T00:00:00	10:00:00	11:00:00	90	179	4728	2700	1.75
11075	CCTV-13ทางขึ้นพระราม9_2ลงพระราม2	13.7810955	100.6077724	exat	working	2022-09-09T00:00:00	11:00:00	12:00:00	91	134	4039	2700	1.50
11076	CCTV-13ทางขึ้นพระราม9_2ลงพระราม2	13.7810955	100.6077724	exat	working	2022-09-09T00:00:00	12:00:00	13:00:00	87	178	4589	2700	1.70
11077	CCTV-13ทางขึ้นพระราม9_2ลงพระราม2	13.7810955	100.6077724	exat	working	2022-09-09T00:00:00	13:00:00	14:00:00	88	178	4657	2700	1.72
11078	CCTV-13ทางขึ้นพระราม9_2ลงพระราม2	13.7810955	100.6077724	exat	working	2022-09-09T00:00:00	14:00:00	15:00:00	90	175	4695	2700	1.74
11079	CCTV-13ทางขึ้นพระราม9_2ลงพระราม2	13.7810955	100.6077724	exat	working	2022-09-09T00:00:00	15:00:00	16:00:00	87	178	4625	2700	1.71
11080	CCTV-13ทางขึ้นพระราม9_2ลงพระราม2	13.7810955	100.6077724	exat	working	2022-09-09T00:00:00	16:00:00	17:00:00	91	181	8221	2700	3.04
11081	CCTV-13ทางขึ้นพระราม9_2ลงพระราม2	13.7810955	100.6077724	exat	working	2022-09-09T00:00:00	17:00:00	18:00:00	91	182	6565	2700	2.43
11082	CCTV-13ทางขึ้นพระราม9_2ลงพระราม2	13.7810955	100.6077724	exat	working	2022-09-09T00:00:00	18:00:00	19:00:00	91	182	7337	2700	2.72
11083	CCTV-13ทางขึ้นพระราม9_2ลงพระราม2	13.7810955	100.6077724	exat	working	2022-10-09T00:00:00	5:00:00	6:00:00	29	37	376	2700	0.14
11084	CCTV-13ทางขึ้นพระราม9_2ลงพระราม2	13.7810955	100.6077724	exat	holiday	2022-10-09T00:00:00	6:00:00	7:00:00	21	121	1095	2700	0.41
11085	CCTV-13ทางขึ้นพระราม9_2ลงพระราม2	13.7810955	100.6077724	exat	holiday	2022-10-09T00:00:00	7:00:00	8:00:00	91	125	2369	2700	0.88
11086	CCTV-13ทางขึ้นพระราม9_2ลงพระราม2	13.7810955	100.6077724	exat	holiday	2022-10-09T00:00:00	8:00:00	9:00:00	91	102	2220	2700	0.82
11087	CCTV-13ทางขึ้นพระราม9_2ลงพระราม2	13.7810955	100.6077724	exat	working	2022-10-09T00:00:00	9:00:00	10:00:00	86	101	2043	2700	0.76
11088	CCTV-13ทางขึ้นพระราม9_2ลงพระราม2	13.7810955	100.6077724	exat	working	2022-10-09T00:00:00	10:00:00	11:00:00	90	95	2059	2700	0.76
11089	CCTV-13ทางขึ้นพระราม9_2ลงพระราม2	13.7810955	100.6077724	exat	holiday	2022-10-09T00:00:00	11:00:00	12:00:00	91	153	4405	2700	1.63
11090	CCTV-13ทางขึ้นพระราม9_2ลงพระราม2	13.7810955	100.6077724	exat	working	2022-10-09T00:00:00	12:00:00	13:00:00	87	97	2109	2700	0.78
11091	CCTV-13ทางขึ้นพระราม9_2ลงพระราม2	13.7810955	100.6077724	exat	working	2022-10-09T00:00:00	13:00:00	14:00:00	89	101	2122	2700	0.79
11092	CCTV-13ทางขึ้นพระราม9_2ลงพระราม2	13.7810955	100.6077724	exat	working	2022-10-09T00:00:00	14:00:00	15:00:00	88	101	2206	2700	0.82
11093	CCTV-13ทางขึ้นพระราม9_2ลงพระราม2	13.7810955	100.6077724	exat	working	2022-10-09T00:00:00	15:00:00	16:00:00	89	97	2073	2700	0.77
11094	CCTV-13ทางขึ้นพระราม9_2ลงพระราม2	13.7810955	100.6077724	exat	holiday	2022-10-09T00:00:00	16:00:00	17:00:00	91	162	4754	2700	1.76
11095	CCTV-13ทางขึ้นพระราม9_2ลงพระราม2	13.7810955	100.6077724	exat	holiday	2022-10-09T00:00:00	17:00:00	18:00:00	91	182	5281	2700	1.96
11096	CCTV-13ทางขึ้นพระราม9_2ลงพระราม2	13.7810955	100.6077724	exat	holiday	2022-10-09T00:00:00	18:00:00	19:00:00	91	163	2938	2700	1.09
11097	CCTV-13ทางขึ้นพระราม9_2ลงพระราม2	13.7810955	100.6077724	exat	working	2022-11-09T00:00:00	5:00:00	6:00:00	29	39	219	2700	0.08
11098	CCTV-13ทางขึ้นพระราม9_2ลงพระราม2	13.7810955	100.6077724	exat	holiday	2022-11-09T00:00:00	6:00:00	7:00:00	21	121	661	2700	0.24
11099	CCTV-13ทางขึ้นพระราม9_2ลงพระราม2	13.7810955	100.6077724	exat	holiday	2022-11-09T00:00:00	7:00:00	8:00:00	55	75	1445	2700	0.54
11100	CCTV-13ทางขึ้นพระราม9_2ลงพระราม2	13.7810955	100.6077724	exat	holiday	2022-11-09T00:00:00	8:00:00	9:00:00	55	62	1367	2700	0.51
11101	CCTV-13ทางขึ้นพระราม9_2ลงพระราม2	13.7810955	100.6077724	exat	working	2022-11-09T00:00:00	9:00:00	10:00:00	52	61	1222	2700	0.45
11102	CCTV-13ทางขึ้นพระราม9_2ลงพระราม2	13.7810955	100.6077724	exat	working	2022-11-09T00:00:00	10:00:00	11:00:00	54	57	1248	2700	0.46
11103	CCTV-13ทางขึ้นพระราม9_2ลงพระราม2	13.7810955	100.6077724	exat	holiday	2022-11-09T00:00:00	11:00:00	12:00:00	55	92	2638	2700	0.98
11104	CCTV-13ทางขึ้นพระราม9_2ลงพระราม2	13.7810955	100.6077724	exat	working	2022-11-09T00:00:00	12:00:00	13:00:00	52	59	1284	2700	0.48
11105	CCTV-13ทางขึ้นพระราม9_2ลงพระราม2	13.7810955	100.6077724	exat	working	2022-11-09T00:00:00	13:00:00	14:00:00	54	61	1275	2700	0.47
11106	CCTV-13ทางขึ้นพระราม9_2ลงพระราม2	13.7810955	100.6077724	exat	working	2022-11-09T00:00:00	14:00:00	15:00:00	53	61	1291	2700	0.48
11107	CCTV-13ทางขึ้นพระราม9_2ลงพระราม2	13.7810955	100.6077724	exat	working	2022-11-09T00:00:00	15:00:00	16:00:00	54	58	1269	2700	0.47
11108	CCTV-13ทางขึ้นพระราม9_2ลงพระราม2	13.7810955	100.6077724	exat	holiday	2022-11-09T00:00:00	16:00:00	17:00:00	55	97	2861	2700	1.06
11109	CCTV-13ทางขึ้นพระราม9_2ลงพระราม2	13.7810955	100.6077724	exat	holiday	2022-11-09T00:00:00	17:00:00	18:00:00	55	109	3191	2700	1.18
11110	CCTV-13ทางขึ้นพระราม9_2ลงพระราม2	13.7810955	100.6077724	exat	holiday	2022-11-09T00:00:00	18:00:00	19:00:00	55	98	1735	2700	0.64
11111	TV41 37_001 B ทางพิเศษฉลองรัช-ปากซอยประดิษฐ์มนูธรรม 15	13.7947982	100.6123996	exat	working	2022-05-09T00:00:00	5:00:00	6:00:00	47	5	130	2700	0.05
11112	TV41 37_001 B ทางพิเศษฉลองรัช-ปากซอยประดิษฐ์มนูธรรม 15	13.7947982	100.6123996	exat	working	2022-05-09T00:00:00	6:00:00	7:00:00	33	16	377	2700	0.14
11113	TV41 37_001 B ทางพิเศษฉลองรัช-ปากซอยประดิษฐ์มนูธรรม 15	13.7947982	100.6123996	exat	working	2022-05-09T00:00:00	7:00:00	8:00:00	33	14	714	2700	0.26
11114	TV41 37_001 B ทางพิเศษฉลองรัช-ปากซอยประดิษฐ์มนูธรรม 15	13.7947982	100.6123996	exat	working	2022-05-09T00:00:00	8:00:00	9:00:00	33	13	547	2700	0.20
11115	TV41 37_001 B ทางพิเศษฉลองรัช-ปากซอยประดิษฐ์มนูธรรม 15	13.7947982	100.6123996	exat	working	2022-05-09T00:00:00	9:00:00	10:00:00	30	11	383	2700	0.14
11116	TV41 37_001 B ทางพิเศษฉลองรัช-ปากซอยประดิษฐ์มนูธรรม 15	13.7947982	100.6123996	exat	working	2022-05-09T00:00:00	10:00:00	11:00:00	30	10	412	2700	0.15
11117	TV41 37_001 B ทางพิเศษฉลองรัช-ปากซอยประดิษฐ์มนูธรรม 15	13.7947982	100.6123996	exat	working	2022-05-09T00:00:00	11:00:00	12:00:00	32	27	727	2700	0.27
11118	TV41 37_001 B ทางพิเศษฉลองรัช-ปากซอยประดิษฐ์มนูธรรม 15	13.7947982	100.6123996	exat	working	2022-05-09T00:00:00	12:00:00	13:00:00	28	12	436	2700	0.16
11119	TV41 37_001 B ทางพิเศษฉลองรัช-ปากซอยประดิษฐ์มนูธรรม 15	13.7947982	100.6123996	exat	working	2022-05-09T00:00:00	13:00:00	14:00:00	31	9	413	2700	0.15
11120	TV41 37_001 B ทางพิเศษฉลองรัช-ปากซอยประดิษฐ์มนูธรรม 15	13.7947982	100.6123996	exat	working	2022-05-09T00:00:00	14:00:00	15:00:00	32	12	480	2700	0.18
11121	TV41 37_001 B ทางพิเศษฉลองรัช-ปากซอยประดิษฐ์มนูธรรม 15	13.7947982	100.6123996	exat	working	2022-05-09T00:00:00	15:00:00	16:00:00	29	11	522	2700	0.19
11122	TV41 37_001 B ทางพิเศษฉลองรัช-ปากซอยประดิษฐ์มนูธรรม 15	13.7947982	100.6123996	exat	working	2022-05-09T00:00:00	16:00:00	17:00:00	33	26	1084	2700	0.40
11123	TV41 37_001 B ทางพิเศษฉลองรัช-ปากซอยประดิษฐ์มนูธรรม 15	13.7947982	100.6123996	exat	working	2022-05-09T00:00:00	17:00:00	18:00:00	38	20	1835	2700	0.68
11124	TV41 37_001 B ทางพิเศษฉลองรัช-ปากซอยประดิษฐ์มนูธรรม 15	13.7947982	100.6123996	exat	working	2022-05-09T00:00:00	18:00:00	19:00:00	30	24	1099	2700	0.41
11125	TV41 37_001 B ทางพิเศษฉลองรัช-ปากซอยประดิษฐ์มนูธรรม 15	13.7947982	100.6123996	exat	working	2022-06-09T00:00:00	5:00:00	6:00:00	50	5	111	2700	0.04
11126	TV41 37_001 B ทางพิเศษฉลองรัช-ปากซอยประดิษฐ์มนูธรรม 15	13.7947982	100.6123996	exat	working	2022-06-09T00:00:00	6:00:00	7:00:00	35	14	368	2700	0.14
11127	TV41 37_001 B ทางพิเศษฉลองรัช-ปากซอยประดิษฐ์มนูธรรม 15	13.7947982	100.6123996	exat	working	2022-06-09T00:00:00	7:00:00	8:00:00	44	19	625	2700	0.23
11128	TV41 37_001 B ทางพิเศษฉลองรัช-ปากซอยประดิษฐ์มนูธรรม 15	13.7947982	100.6123996	exat	working	2022-06-09T00:00:00	8:00:00	9:00:00	31	14	552	2700	0.20
11129	TV41 37_001 B ทางพิเศษฉลองรัช-ปากซอยประดิษฐ์มนูธรรม 15	13.7947982	100.6123996	exat	working	2022-06-09T00:00:00	9:00:00	10:00:00	29	12	402	2700	0.15
11130	TV41 37_001 B ทางพิเศษฉลองรัช-ปากซอยประดิษฐ์มนูธรรม 15	13.7947982	100.6123996	exat	working	2022-06-09T00:00:00	10:00:00	11:00:00	27	12	437	2700	0.16
11131	TV41 37_001 B ทางพิเศษฉลองรัช-ปากซอยประดิษฐ์มนูธรรม 15	13.7947982	100.6123996	exat	working	2022-06-09T00:00:00	11:00:00	12:00:00	32	27	726	2700	0.27
11132	TV41 37_001 B ทางพิเศษฉลองรัช-ปากซอยประดิษฐ์มนูธรรม 15	13.7947982	100.6123996	exat	working	2022-06-09T00:00:00	12:00:00	13:00:00	28	13	421	2700	0.16
11133	TV41 37_001 B ทางพิเศษฉลองรัช-ปากซอยประดิษฐ์มนูธรรม 15	13.7947982	100.6123996	exat	working	2022-06-09T00:00:00	13:00:00	14:00:00	29	10	421	2700	0.16
11134	TV41 37_001 B ทางพิเศษฉลองรัช-ปากซอยประดิษฐ์มนูธรรม 15	13.7947982	100.6123996	exat	working	2022-06-09T00:00:00	14:00:00	15:00:00	28	12	438	2700	0.16
11135	TV41 37_001 B ทางพิเศษฉลองรัช-ปากซอยประดิษฐ์มนูธรรม 15	13.7947982	100.6123996	exat	working	2022-06-09T00:00:00	15:00:00	16:00:00	26	12	493	2700	0.18
11136	TV41 37_001 B ทางพิเศษฉลองรัช-ปากซอยประดิษฐ์มนูธรรม 15	13.7947982	100.6123996	exat	working	2022-06-09T00:00:00	16:00:00	17:00:00	33	29	1017	2700	0.38
11137	TV41 37_001 B ทางพิเศษฉลองรัช-ปากซอยประดิษฐ์มนูธรรม 15	13.7947982	100.6123996	exat	working	2022-06-09T00:00:00	17:00:00	18:00:00	37	19	1560	2700	0.58
11138	TV41 37_001 B ทางพิเศษฉลองรัช-ปากซอยประดิษฐ์มนูธรรม 15	13.7947982	100.6123996	exat	working	2022-06-09T00:00:00	18:00:00	19:00:00	34	23	1269	2700	0.47
11139	TV41 37_001 B ทางพิเศษฉลองรัช-ปากซอยประดิษฐ์มนูธรรม 15	13.7947982	100.6123996	exat	working	2022-07-09T00:00:00	5:00:00	6:00:00	52	4	132	2700	0.05
11140	TV41 37_001 B ทางพิเศษฉลองรัช-ปากซอยประดิษฐ์มนูธรรม 15	13.7947982	100.6123996	exat	working	2022-07-09T00:00:00	6:00:00	7:00:00	37	13	382	2700	0.14
11141	TV41 37_001 B ทางพิเศษฉลองรัช-ปากซอยประดิษฐ์มนูธรรม 15	13.7947982	100.6123996	exat	working	2022-07-09T00:00:00	7:00:00	8:00:00	54	23	550	2700	0.20
11142	TV41 37_001 B ทางพิเศษฉลองรัช-ปากซอยประดิษฐ์มนูธรรม 15	13.7947982	100.6123996	exat	working	2022-07-09T00:00:00	8:00:00	9:00:00	29	16	531	2700	0.20
11143	TV41 37_001 B ทางพิเศษฉลองรัช-ปากซอยประดิษฐ์มนูธรรม 15	13.7947982	100.6123996	exat	working	2022-07-09T00:00:00	9:00:00	10:00:00	28	13	388	2700	0.14
11144	TV41 37_001 B ทางพิเศษฉลองรัช-ปากซอยประดิษฐ์มนูธรรม 15	13.7947982	100.6123996	exat	working	2022-07-09T00:00:00	10:00:00	11:00:00	23	14	461	2700	0.17
11145	TV41 37_001 B ทางพิเศษฉลองรัช-ปากซอยประดิษฐ์มนูธรรม 15	13.7947982	100.6123996	exat	working	2022-07-09T00:00:00	11:00:00	12:00:00	32	27	730	2700	0.27
11146	TV41 37_001 B ทางพิเศษฉลองรัช-ปากซอยประดิษฐ์มนูธรรม 15	13.7947982	100.6123996	exat	working	2022-07-09T00:00:00	12:00:00	13:00:00	28	14	450	2700	0.17
11147	TV41 37_001 B ทางพิเศษฉลองรัช-ปากซอยประดิษฐ์มนูธรรม 15	13.7947982	100.6123996	exat	working	2022-07-09T00:00:00	13:00:00	14:00:00	27	12	446	2700	0.17
11148	TV41 37_001 B ทางพิเศษฉลองรัช-ปากซอยประดิษฐ์มนูธรรม 15	13.7947982	100.6123996	exat	working	2022-07-09T00:00:00	14:00:00	15:00:00	24	13	408	2700	0.15
11149	TV41 37_001 B ทางพิเศษฉลองรัช-ปากซอยประดิษฐ์มนูธรรม 15	13.7947982	100.6123996	exat	working	2022-07-09T00:00:00	15:00:00	16:00:00	24	13	404	2700	0.15
11150	TV41 37_001 B ทางพิเศษฉลองรัช-ปากซอยประดิษฐ์มนูธรรม 15	13.7947982	100.6123996	exat	working	2022-07-09T00:00:00	16:00:00	17:00:00	32	31	920	2700	0.34
11151	TV41 37_001 B ทางพิเศษฉลองรัช-ปากซอยประดิษฐ์มนูธรรม 15	13.7947982	100.6123996	exat	working	2022-07-09T00:00:00	17:00:00	18:00:00	37	18	1258	2700	0.47
11152	TV41 37_001 B ทางพิเศษฉลองรัช-ปากซอยประดิษฐ์มนูธรรม 15	13.7947982	100.6123996	exat	working	2022-07-09T00:00:00	18:00:00	19:00:00	37	23	1464	2700	0.54
11153	TV41 37_001 B ทางพิเศษฉลองรัช-ปากซอยประดิษฐ์มนูธรรม 15	13.7947982	100.6123996	exat	working	2022-08-09T00:00:00	5:00:00	6:00:00	47	5	159	2700	0.06
11154	TV41 37_001 B ทางพิเศษฉลองรัช-ปากซอยประดิษฐ์มนูธรรม 15	13.7947982	100.6123996	exat	working	2022-08-09T00:00:00	6:00:00	7:00:00	34	15	462	2700	0.17
11155	TV41 37_001 B ทางพิเศษฉลองรัช-ปากซอยประดิษฐ์มนูธรรม 15	13.7947982	100.6123996	exat	working	2022-08-09T00:00:00	7:00:00	8:00:00	42	22	921	2700	0.34
11156	TV41 37_001 B ทางพิเศษฉลองรัช-ปากซอยประดิษฐ์มนูธรรม 15	13.7947982	100.6123996	exat	working	2022-08-09T00:00:00	8:00:00	9:00:00	40	19	827	2700	0.31
11157	TV41 37_001 B ทางพิเศษฉลองรัช-ปากซอยประดิษฐ์มนูธรรม 15	13.7947982	100.6123996	exat	working	2022-08-09T00:00:00	9:00:00	10:00:00	37	16	689	2700	0.26
11158	TV41 37_001 B ทางพิเศษฉลองรัช-ปากซอยประดิษฐ์มนูธรรม 15	13.7947982	100.6123996	exat	working	2022-08-09T00:00:00	10:00:00	11:00:00	36	16	777	2700	0.29
11159	TV41 37_001 B ทางพิเศษฉลองรัช-ปากซอยประดิษฐ์มนูธรรม 15	13.7947982	100.6123996	exat	working	2022-08-09T00:00:00	11:00:00	12:00:00	37	20	907	2700	0.34
11160	TV41 37_001 B ทางพิเศษฉลองรัช-ปากซอยประดิษฐ์มนูธรรม 15	13.7947982	100.6123996	exat	working	2022-08-09T00:00:00	12:00:00	13:00:00	39	18	708	2700	0.26
11161	TV41 37_001 B ทางพิเศษฉลองรัช-ปากซอยประดิษฐ์มนูธรรม 15	13.7947982	100.6123996	exat	working	2022-08-09T00:00:00	13:00:00	14:00:00	38	17	747	2700	0.28
11162	TV41 37_001 B ทางพิเศษฉลองรัช-ปากซอยประดิษฐ์มนูธรรม 15	13.7947982	100.6123996	exat	working	2022-08-09T00:00:00	14:00:00	15:00:00	35	17	674	2700	0.25
11163	TV41 37_001 B ทางพิเศษฉลองรัช-ปากซอยประดิษฐ์มนูธรรม 15	13.7947982	100.6123996	exat	working	2022-08-09T00:00:00	15:00:00	16:00:00	35	17	717	2700	0.27
11164	TV41 37_001 B ทางพิเศษฉลองรัช-ปากซอยประดิษฐ์มนูธรรม 15	13.7947982	100.6123996	exat	working	2022-08-09T00:00:00	16:00:00	17:00:00	32	35	1297	2700	0.48
11165	TV41 37_001 B ทางพิเศษฉลองรัช-ปากซอยประดิษฐ์มนูธรรม 15	13.7947982	100.6123996	exat	working	2022-08-09T00:00:00	17:00:00	18:00:00	41	23	1657	2700	0.61
11166	TV41 37_001 B ทางพิเศษฉลองรัช-ปากซอยประดิษฐ์มนูธรรม 15	13.7947982	100.6123996	exat	working	2022-08-09T00:00:00	18:00:00	19:00:00	37	24	1564	2700	0.58
11167	TV41 37_001 B ทางพิเศษฉลองรัช-ปากซอยประดิษฐ์มนูธรรม 15	13.7947982	100.6123996	exat	working	2022-09-09T00:00:00	5:00:00	6:00:00	47	5	109	2700	0.04
11168	TV41 37_001 B ทางพิเศษฉลองรัช-ปากซอยประดิษฐ์มนูธรรม 15	13.7947982	100.6123996	exat	working	2022-09-09T00:00:00	6:00:00	7:00:00	33	16	344	2700	0.13
11169	TV41 37_001 B ทางพิเศษฉลองรัช-ปากซอยประดิษฐ์มนูธรรม 15	13.7947982	100.6123996	exat	working	2022-09-09T00:00:00	7:00:00	8:00:00	29	21	1290	2700	0.48
11170	TV41 37_001 B ทางพิเศษฉลองรัช-ปากซอยประดิษฐ์มนูธรรม 15	13.7947982	100.6123996	exat	working	2022-09-09T00:00:00	8:00:00	9:00:00	50	23	1083	2700	0.40
11171	TV41 37_001 B ทางพิเศษฉลองรัช-ปากซอยประดิษฐ์มนูธรรม 15	13.7947982	100.6123996	exat	working	2022-09-09T00:00:00	9:00:00	10:00:00	46	19	945	2700	0.35
11172	TV41 37_001 B ทางพิเศษฉลองรัช-ปากซอยประดิษฐ์มนูธรรม 15	13.7947982	100.6123996	exat	working	2022-09-09T00:00:00	10:00:00	11:00:00	49	18	1091	2700	0.40
11173	TV41 37_001 B ทางพิเศษฉลองรัช-ปากซอยประดิษฐ์มนูธรรม 15	13.7947982	100.6123996	exat	working	2022-09-09T00:00:00	11:00:00	12:00:00	43	13	1102	2700	0.41
11174	TV41 37_001 B ทางพิเศษฉลองรัช-ปากซอยประดิษฐ์มนูธรรม 15	13.7947982	100.6123996	exat	working	2022-09-09T00:00:00	12:00:00	13:00:00	49	22	970	2700	0.36
11175	TV41 37_001 B ทางพิเศษฉลองรัช-ปากซอยประดิษฐ์มนูธรรม 15	13.7947982	100.6123996	exat	working	2022-09-09T00:00:00	13:00:00	14:00:00	48	22	1066	2700	0.39
11176	TV41 37_001 B ทางพิเศษฉลองรัช-ปากซอยประดิษฐ์มนูธรรม 15	13.7947982	100.6123996	exat	working	2022-09-09T00:00:00	14:00:00	15:00:00	45	21	945	2700	0.35
11177	TV41 37_001 B ทางพิเศษฉลองรัช-ปากซอยประดิษฐ์มนูธรรม 15	13.7947982	100.6123996	exat	working	2022-09-09T00:00:00	15:00:00	16:00:00	46	21	1057	2700	0.39
11178	TV41 37_001 B ทางพิเศษฉลองรัช-ปากซอยประดิษฐ์มนูธรรม 15	13.7947982	100.6123996	exat	working	2022-09-09T00:00:00	16:00:00	17:00:00	33	39	1658	2700	0.61
11179	TV41 37_001 B ทางพิเศษฉลองรัช-ปากซอยประดิษฐ์มนูธรรม 15	13.7947982	100.6123996	exat	working	2022-09-09T00:00:00	17:00:00	18:00:00	46	27	2003	2700	0.74
11180	TV41 37_001 B ทางพิเศษฉลองรัช-ปากซอยประดิษฐ์มนูธรรม 15	13.7947982	100.6123996	exat	working	2022-09-09T00:00:00	18:00:00	19:00:00	36	25	1626	2700	0.60
11181	TV41 37_001 B ทางพิเศษฉลองรัช-ปากซอยประดิษฐ์มนูธรรม 15	13.7947982	100.6123996	exat	working	2022-10-09T00:00:00	5:00:00	6:00:00	32	4	113	2700	0.04
11182	TV41 37_001 B ทางพิเศษฉลองรัช-ปากซอยประดิษฐ์มนูธรรม 15	13.7947982	100.6123996	exat	holiday	2022-10-09T00:00:00	6:00:00	7:00:00	23	13	367	2700	0.14
11183	TV41 37_001 B ทางพิเศษฉลองรัช-ปากซอยประดิษฐ์มนูธรรม 15	13.7947982	100.6123996	exat	holiday	2022-10-09T00:00:00	7:00:00	8:00:00	23	13	368	2700	0.14
11184	TV41 37_001 B ทางพิเศษฉลองรัช-ปากซอยประดิษฐ์มนูธรรม 15	13.7947982	100.6123996	exat	holiday	2022-10-09T00:00:00	8:00:00	9:00:00	32	13	365	2700	0.14
11185	TV41 37_001 B ทางพิเศษฉลองรัช-ปากซอยประดิษฐ์มนูธรรม 15	13.7947982	100.6123996	exat	working	2022-10-09T00:00:00	9:00:00	10:00:00	28	12	345	2700	0.13
11186	TV41 37_001 B ทางพิเศษฉลองรัช-ปากซอยประดิษฐ์มนูธรรม 15	13.7947982	100.6123996	exat	working	2022-10-09T00:00:00	10:00:00	11:00:00	28	11	338	2700	0.13
11187	TV41 37_001 B ทางพิเศษฉลองรัช-ปากซอยประดิษฐ์มนูธรรม 15	13.7947982	100.6123996	exat	holiday	2022-10-09T00:00:00	11:00:00	12:00:00	32	21	746	2700	0.28
11188	TV41 37_001 B ทางพิเศษฉลองรัช-ปากซอยประดิษฐ์มนูธรรม 15	13.7947982	100.6123996	exat	working	2022-10-09T00:00:00	12:00:00	13:00:00	28	11	316	2700	0.12
11189	TV41 37_001 B ทางพิเศษฉลองรัช-ปากซอยประดิษฐ์มนูธรรม 15	13.7947982	100.6123996	exat	working	2022-10-09T00:00:00	13:00:00	14:00:00	28	9	336	2700	0.12
11190	TV41 37_001 B ทางพิเศษฉลองรัช-ปากซอยประดิษฐ์มนูธรรม 15	13.7947982	100.6123996	exat	working	2022-10-09T00:00:00	14:00:00	15:00:00	31	11	282	2700	0.10
11191	TV41 37_001 B ทางพิเศษฉลองรัช-ปากซอยประดิษฐ์มนูธรรม 15	13.7947982	100.6123996	exat	working	2022-10-09T00:00:00	15:00:00	16:00:00	30	12	303	2700	0.11
11192	TV41 37_001 B ทางพิเศษฉลองรัช-ปากซอยประดิษฐ์มนูธรรม 15	13.7947982	100.6123996	exat	holiday	2022-10-09T00:00:00	16:00:00	17:00:00	44	26	1447	2700	0.54
11193	TV41 37_001 B ทางพิเศษฉลองรัช-ปากซอยประดิษฐ์มนูธรรม 15	13.7947982	100.6123996	exat	holiday	2022-10-09T00:00:00	17:00:00	18:00:00	42	29	1457	2700	0.54
11194	TV41 37_001 B ทางพิเศษฉลองรัช-ปากซอยประดิษฐ์มนูธรรม 15	13.7947982	100.6123996	exat	working	2022-11-09T00:00:00	5:00:00	6:00:00	19	37	74	2700	0.03
11195	TV41 37_001 B ทางพิเศษฉลองรัช-ปากซอยประดิษฐ์มนูธรรม 15	13.7947982	100.6123996	exat	holiday	2022-11-09T00:00:00	6:00:00	7:00:00	14	121	221	2700	0.08
11196	TV41 37_001 B ทางพิเศษฉลองรัช-ปากซอยประดิษฐ์มนูธรรม 15	13.7947982	100.6123996	exat	holiday	2022-11-09T00:00:00	7:00:00	8:00:00	14	121	220	2700	0.08
11197	TV41 37_001 B ทางพิเศษฉลองรัช-ปากซอยประดิษฐ์มนูธรรม 15	13.7947982	100.6123996	exat	holiday	2022-11-09T00:00:00	8:00:00	9:00:00	19	121	216	2700	0.08
11198	TV41 37_001 B ทางพิเศษฉลองรัช-ปากซอยประดิษฐ์มนูธรรม 15	13.7947982	100.6123996	exat	working	2022-11-09T00:00:00	9:00:00	10:00:00	17	122	196	2700	0.07
11199	TV41 37_001 B ทางพิเศษฉลองรัช-ปากซอยประดิษฐ์มนูธรรม 15	13.7947982	100.6123996	exat	working	2022-11-09T00:00:00	10:00:00	11:00:00	17	121	203	2700	0.08
11200	TV41 37_001 B ทางพิเศษฉลองรัช-ปากซอยประดิษฐ์มนูธรรม 15	13.7947982	100.6123996	exat	holiday	2022-11-09T00:00:00	11:00:00	12:00:00	20	121	440	2700	0.16
11201	TV41 37_001 B ทางพิเศษฉลองรัช-ปากซอยประดิษฐ์มนูธรรม 15	13.7947982	100.6123996	exat	working	2022-11-09T00:00:00	12:00:00	13:00:00	17	121	196	2700	0.07
11202	TV41 37_001 B ทางพิเศษฉลองรัช-ปากซอยประดิษฐ์มนูธรรม 15	13.7947982	100.6123996	exat	working	2022-11-09T00:00:00	13:00:00	14:00:00	17	121	212	2700	0.08
11203	TV41 37_001 B ทางพิเศษฉลองรัช-ปากซอยประดิษฐ์มนูธรรม 15	13.7947982	100.6123996	exat	working	2022-11-09T00:00:00	14:00:00	15:00:00	19	121	172	2700	0.06
11204	TV41 37_001 B ทางพิเศษฉลองรัช-ปากซอยประดิษฐ์มนูธรรม 15	13.7947982	100.6123996	exat	working	2022-11-09T00:00:00	15:00:00	16:00:00	18	121	183	2700	0.07
11205	TV41 37_001 B ทางพิเศษฉลองรัช-ปากซอยประดิษฐ์มนูธรรม 15	13.7947982	100.6123996	exat	holiday	2022-11-09T00:00:00	16:00:00	17:00:00	27	16	876	2700	0.32
11206	TV41 37_001 B ทางพิเศษฉลองรัช-ปากซอยประดิษฐ์มนูธรรม 15	13.7947982	100.6123996	exat	holiday	2022-11-09T00:00:00	17:00:00	18:00:00	25	18	880	2700	0.33
11207	TV68 0_493 9-2 ถ.ประดิษฐ์มนูธรรม - ปากซอยร่วมใจ	13.7951149	100.6129868	exat	working	2022-05-09T00:00:00	5:00:00	6:00:00	71	35	2317	2700	0.86
11208	TV68 0_493 9-2 ถ.ประดิษฐ์มนูธรรม - ปากซอยร่วมใจ	13.7951149	100.6129868	exat	working	2022-05-09T00:00:00	6:00:00	7:00:00	50	113	7275	2700	2.69
11209	TV68 0_493 9-2 ถ.ประดิษฐ์มนูธรรม - ปากซอยร่วมใจ	13.7951149	100.6129868	exat	working	2022-05-09T00:00:00	7:00:00	8:00:00	35	171	5652	2700	2.09
11210	TV68 0_493 9-2 ถ.ประดิษฐ์มนูธรรม - ปากซอยร่วมใจ	13.7951149	100.6129868	exat	working	2022-05-09T00:00:00	8:00:00	9:00:00	28	181	6406	2700	2.37
11211	TV68 0_493 9-2 ถ.ประดิษฐ์มนูธรรม - ปากซอยร่วมใจ	13.7951149	100.6129868	exat	working	2022-05-09T00:00:00	9:00:00	10:00:00	22	178	6324	2700	2.34
11212	TV68 0_493 9-2 ถ.ประดิษฐ์มนูธรรม - ปากซอยร่วมใจ	13.7951149	100.6129868	exat	working	2022-05-09T00:00:00	10:00:00	11:00:00	27	180	6418	2700	2.38
11213	TV68 0_493 9-2 ถ.ประดิษฐ์มนูธรรม - ปากซอยร่วมใจ	13.7951149	100.6129868	exat	working	2022-05-09T00:00:00	11:00:00	12:00:00	72	20	2587	2700	0.96
11214	TV68 0_493 9-2 ถ.ประดิษฐ์มนูธรรม - ปากซอยร่วมใจ	13.7951149	100.6129868	exat	working	2022-05-09T00:00:00	12:00:00	13:00:00	23	176	6356	2700	2.35
11215	TV68 0_493 9-2 ถ.ประดิษฐ์มนูธรรม - ปากซอยร่วมใจ	13.7951149	100.6129868	exat	working	2022-05-09T00:00:00	13:00:00	14:00:00	23	178	6343	2700	2.35
11216	TV68 0_493 9-2 ถ.ประดิษฐ์มนูธรรม - ปากซอยร่วมใจ	13.7951149	100.6129868	exat	working	2022-05-09T00:00:00	14:00:00	15:00:00	24	180	6359	2700	2.36
11217	TV68 0_493 9-2 ถ.ประดิษฐ์มนูธรรม - ปากซอยร่วมใจ	13.7951149	100.6129868	exat	working	2022-05-09T00:00:00	15:00:00	16:00:00	27	177	6294	2700	2.33
11218	TV68 0_493 9-2 ถ.ประดิษฐ์มนูธรรม - ปากซอยร่วมใจ	13.7951149	100.6129868	exat	working	2022-05-09T00:00:00	16:00:00	17:00:00	71	21	2535	2700	0.94
11219	TV68 0_493 9-2 ถ.ประดิษฐ์มนูธรรม - ปากซอยร่วมใจ	13.7951149	100.6129868	exat	working	2022-05-09T00:00:00	17:00:00	18:00:00	73	16	2019	2700	0.75
11220	TV68 0_493 9-2 ถ.ประดิษฐ์มนูธรรม - ปากซอยร่วมใจ	13.7951149	100.6129868	exat	working	2022-05-09T00:00:00	18:00:00	19:00:00	70	23	2530	2700	0.94
11221	TV68 0_493 9-2 ถ.ประดิษฐ์มนูธรรม - ปากซอยร่วมใจ	13.7951149	100.6129868	exat	working	2022-06-09T00:00:00	5:00:00	6:00:00	73	34	2415	2700	0.89
11222	TV68 0_493 9-2 ถ.ประดิษฐ์มนูธรรม - ปากซอยร่วมใจ	13.7951149	100.6129868	exat	working	2022-06-09T00:00:00	6:00:00	7:00:00	51	103	7317	2700	2.71
11223	TV68 0_493 9-2 ถ.ประดิษฐ์มนูธรรม - ปากซอยร่วมใจ	13.7951149	100.6129868	exat	working	2022-06-09T00:00:00	7:00:00	8:00:00	28	176	5414	2700	2.01
11224	TV68 0_493 9-2 ถ.ประดิษฐ์มนูธรรม - ปากซอยร่วมใจ	13.7951149	100.6129868	exat	working	2022-06-09T00:00:00	8:00:00	9:00:00	27	157	5749	2700	2.13
11225	TV68 0_493 9-2 ถ.ประดิษฐ์มนูธรรม - ปากซอยร่วมใจ	13.7951149	100.6129868	exat	working	2022-06-09T00:00:00	9:00:00	10:00:00	23	155	5731	2700	2.12
11226	TV68 0_493 9-2 ถ.ประดิษฐ์มนูธรรม - ปากซอยร่วมใจ	13.7951149	100.6129868	exat	working	2022-06-09T00:00:00	10:00:00	11:00:00	25	156	5790	2700	2.14
11227	TV68 0_493 9-2 ถ.ประดิษฐ์มนูธรรม - ปากซอยร่วมใจ	13.7951149	100.6129868	exat	working	2022-06-09T00:00:00	11:00:00	12:00:00	72	22	2655	2700	0.98
11228	TV68 0_493 9-2 ถ.ประดิษฐ์มนูธรรม - ปากซอยร่วมใจ	13.7951149	100.6129868	exat	working	2022-06-09T00:00:00	12:00:00	13:00:00	23	152	5672	2700	2.10
11229	TV68 0_493 9-2 ถ.ประดิษฐ์มนูธรรม - ปากซอยร่วมใจ	13.7951149	100.6129868	exat	working	2022-06-09T00:00:00	13:00:00	14:00:00	24	155	5658	2700	2.10
11230	TV68 0_493 9-2 ถ.ประดิษฐ์มนูธรรม - ปากซอยร่วมใจ	13.7951149	100.6129868	exat	working	2022-06-09T00:00:00	14:00:00	15:00:00	24	156	5683	2700	2.10
11231	TV68 0_493 9-2 ถ.ประดิษฐ์มนูธรรม - ปากซอยร่วมใจ	13.7951149	100.6129868	exat	working	2022-06-09T00:00:00	15:00:00	16:00:00	25	153	5626	2700	2.08
11232	TV68 0_493 9-2 ถ.ประดิษฐ์มนูธรรม - ปากซอยร่วมใจ	13.7951149	100.6129868	exat	working	2022-06-09T00:00:00	16:00:00	17:00:00	70	22	3010	2700	1.11
11233	TV68 0_493 9-2 ถ.ประดิษฐ์มนูธรรม - ปากซอยร่วมใจ	13.7951149	100.6129868	exat	working	2022-06-09T00:00:00	17:00:00	18:00:00	72	19	2208	2700	0.82
11234	TV68 0_493 9-2 ถ.ประดิษฐ์มนูธรรม - ปากซอยร่วมใจ	13.7951149	100.6129868	exat	working	2022-06-09T00:00:00	18:00:00	19:00:00	71	23	2558	2700	0.95
11235	TV68 0_493 9-2 ถ.ประดิษฐ์มนูธรรม - ปากซอยร่วมใจ	13.7951149	100.6129868	exat	working	2022-07-09T00:00:00	5:00:00	6:00:00	73	29	2307	2700	0.85
11236	TV68 0_493 9-2 ถ.ประดิษฐ์มนูธรรม - ปากซอยร่วมใจ	13.7951149	100.6129868	exat	working	2022-07-09T00:00:00	6:00:00	7:00:00	51	92	7294	2700	2.70
11237	TV68 0_493 9-2 ถ.ประดิษฐ์มนูธรรม - ปากซอยร่วมใจ	13.7951149	100.6129868	exat	working	2022-07-09T00:00:00	7:00:00	8:00:00	21	121	5121	2700	1.90
11238	TV68 0_493 9-2 ถ.ประดิษฐ์มนูธรรม - ปากซอยร่วมใจ	13.7951149	100.6129868	exat	working	2022-07-09T00:00:00	8:00:00	9:00:00	27	133	5113	2700	1.89
11239	TV68 0_493 9-2 ถ.ประดิษฐ์มนูธรรม - ปากซอยร่วมใจ	13.7951149	100.6129868	exat	working	2022-07-09T00:00:00	9:00:00	10:00:00	24	133	5163	2700	1.91
11240	TV68 0_493 9-2 ถ.ประดิษฐ์มนูธรรม - ปากซอยร่วมใจ	13.7951149	100.6129868	exat	working	2022-07-09T00:00:00	10:00:00	11:00:00	23	131	5190	2700	1.92
11241	TV68 0_493 9-2 ถ.ประดิษฐ์มนูธรรม - ปากซอยร่วมใจ	13.7951149	100.6129868	exat	working	2022-07-09T00:00:00	11:00:00	12:00:00	72	23	2750	2700	1.02
11242	TV68 0_493 9-2 ถ.ประดิษฐ์มนูธรรม - ปากซอยร่วมใจ	13.7951149	100.6129868	exat	working	2022-07-09T00:00:00	12:00:00	13:00:00	23	128	5008	2700	1.85
11243	TV68 0_493 9-2 ถ.ประดิษฐ์มนูธรรม - ปากซอยร่วมใจ	13.7951149	100.6129868	exat	working	2022-07-09T00:00:00	13:00:00	14:00:00	25	131	4975	2700	1.84
11244	TV68 0_493 9-2 ถ.ประดิษฐ์มนูธรรม - ปากซอยร่วมใจ	13.7951149	100.6129868	exat	working	2022-07-09T00:00:00	14:00:00	15:00:00	23	133	5002	2700	1.85
11245	TV68 0_493 9-2 ถ.ประดิษฐ์มนูธรรม - ปากซอยร่วมใจ	13.7951149	100.6129868	exat	working	2022-07-09T00:00:00	15:00:00	16:00:00	22	129	4959	2700	1.84
11246	TV68 0_493 9-2 ถ.ประดิษฐ์มนูธรรม - ปากซอยร่วมใจ	13.7951149	100.6129868	exat	working	2022-07-09T00:00:00	16:00:00	17:00:00	68	23	3490	2700	1.29
11247	TV68 0_493 9-2 ถ.ประดิษฐ์มนูธรรม - ปากซอยร่วมใจ	13.7951149	100.6129868	exat	working	2022-07-09T00:00:00	17:00:00	18:00:00	71	21	2373	2700	0.88
11248	TV68 0_493 9-2 ถ.ประดิษฐ์มนูธรรม - ปากซอยร่วมใจ	13.7951149	100.6129868	exat	working	2022-07-09T00:00:00	18:00:00	19:00:00	72	24	2569	2700	0.95
11249	TV68 0_493 9-2 ถ.ประดิษฐ์มนูธรรม - ปากซอยร่วมใจ	13.7951149	100.6129868	exat	working	2022-08-09T00:00:00	5:00:00	6:00:00	76	23	2092	2700	0.77
11250	TV68 0_493 9-2 ถ.ประดิษฐ์มนูธรรม - ปากซอยร่วมใจ	13.7951149	100.6129868	exat	working	2022-08-09T00:00:00	6:00:00	7:00:00	54	73	6794	2700	2.52
11251	TV68 0_493 9-2 ถ.ประดิษฐ์มนูธรรม - ปากซอยร่วมใจ	13.7951149	100.6129868	exat	working	2022-08-09T00:00:00	7:00:00	8:00:00	26	163	4564	2700	1.69
11252	TV68 0_493 9-2 ถ.ประดิษฐ์มนูธรรม - ปากซอยร่วมใจ	13.7951149	100.6129868	exat	working	2022-08-09T00:00:00	8:00:00	9:00:00	34	139	5824	2700	2.16
11253	TV68 0_493 9-2 ถ.ประดิษฐ์มนูธรรม - ปากซอยร่วมใจ	13.7951149	100.6129868	exat	working	2022-08-09T00:00:00	9:00:00	10:00:00	29	137	5843	2700	2.16
11254	TV68 0_493 9-2 ถ.ประดิษฐ์มนูธรรม - ปากซอยร่วมใจ	13.7951149	100.6129868	exat	working	2022-08-09T00:00:00	10:00:00	11:00:00	30	137	5812	2700	2.15
11255	TV68 0_493 9-2 ถ.ประดิษฐ์มนูธรรม - ปากซอยร่วมใจ	13.7951149	100.6129868	exat	working	2022-08-09T00:00:00	11:00:00	12:00:00	72	24	2832	2700	1.05
11256	TV68 0_493 9-2 ถ.ประดิษฐ์มนูธรรม - ปากซอยร่วมใจ	13.7951149	100.6129868	exat	working	2022-08-09T00:00:00	12:00:00	13:00:00	30	135	5780	2700	2.14
11257	TV68 0_493 9-2 ถ.ประดิษฐ์มนูธรรม - ปากซอยร่วมใจ	13.7951149	100.6129868	exat	working	2022-08-09T00:00:00	13:00:00	14:00:00	31	139	5783	2700	2.14
11258	TV68 0_493 9-2 ถ.ประดิษฐ์มนูธรรม - ปากซอยร่วมใจ	13.7951149	100.6129868	exat	working	2022-08-09T00:00:00	14:00:00	15:00:00	30	138	5763	2700	2.13
11259	TV68 0_493 9-2 ถ.ประดิษฐ์มนูธรรม - ปากซอยร่วมใจ	13.7951149	100.6129868	exat	working	2022-08-09T00:00:00	15:00:00	16:00:00	31	135	5765	2700	2.14
11260	TV68 0_493 9-2 ถ.ประดิษฐ์มนูธรรม - ปากซอยร่วมใจ	13.7951149	100.6129868	exat	working	2022-08-09T00:00:00	16:00:00	17:00:00	70	22	3119	2700	1.16
11261	TV68 0_493 9-2 ถ.ประดิษฐ์มนูธรรม - ปากซอยร่วมใจ	13.7951149	100.6129868	exat	working	2022-08-09T00:00:00	17:00:00	18:00:00	72	20	2291	2700	0.85
11262	TV68 0_493 9-2 ถ.ประดิษฐ์มนูธรรม - ปากซอยร่วมใจ	13.7951149	100.6129868	exat	working	2022-08-09T00:00:00	18:00:00	19:00:00	66	22	2475	2700	0.92
11263	TV68 0_493 9-2 ถ.ประดิษฐ์มนูธรรม - ปากซอยร่วมใจ	13.7951149	100.6129868	exat	working	2022-09-09T00:00:00	5:00:00	6:00:00	80	18	1914	2700	0.71
11264	TV68 0_493 9-2 ถ.ประดิษฐ์มนูธรรม - ปากซอยร่วมใจ	13.7951149	100.6129868	exat	working	2022-09-09T00:00:00	6:00:00	7:00:00	57	53	6221	2700	2.30
11265	TV68 0_493 9-2 ถ.ประดิษฐ์มนูธรรม - ปากซอยร่วมใจ	13.7951149	100.6129868	exat	working	2022-09-09T00:00:00	7:00:00	8:00:00	32	143	4014	2700	1.49
11266	TV68 0_493 9-2 ถ.ประดิษฐ์มนูธรรม - ปากซอยร่วมใจ	13.7951149	100.6129868	exat	working	2022-09-09T00:00:00	8:00:00	9:00:00	41	145	6603	2700	2.45
11267	TV68 0_493 9-2 ถ.ประดิษฐ์มนูธรรม - ปากซอยร่วมใจ	13.7951149	100.6129868	exat	working	2022-09-09T00:00:00	9:00:00	10:00:00	35	141	6580	2700	2.44
11268	TV68 0_493 9-2 ถ.ประดิษฐ์มนูธรรม - ปากซอยร่วมใจ	13.7951149	100.6129868	exat	working	2022-09-09T00:00:00	10:00:00	11:00:00	36	141	6510	2700	2.41
11269	TV68 0_493 9-2 ถ.ประดิษฐ์มนูธรรม - ปากซอยร่วมใจ	13.7951149	100.6129868	exat	working	2022-09-09T00:00:00	11:00:00	12:00:00	71	25	2928	2700	1.08
11270	TV68 0_493 9-2 ถ.ประดิษฐ์มนูธรรม - ปากซอยร่วมใจ	13.7951149	100.6129868	exat	working	2022-09-09T00:00:00	12:00:00	13:00:00	37	142	6574	2700	2.43
11271	TV68 0_493 9-2 ถ.ประดิษฐ์มนูธรรม - ปากซอยร่วมใจ	13.7951149	100.6129868	exat	working	2022-09-09T00:00:00	13:00:00	14:00:00	38	144	6588	2700	2.44
11272	TV68 0_493 9-2 ถ.ประดิษฐ์มนูธรรม - ปากซอยร่วมใจ	13.7951149	100.6129868	exat	working	2022-09-09T00:00:00	14:00:00	15:00:00	36	142	6394	2700	2.37
11273	TV68 0_493 9-2 ถ.ประดิษฐ์มนูธรรม - ปากซอยร่วมใจ	13.7951149	100.6129868	exat	working	2022-09-09T00:00:00	15:00:00	16:00:00	39	142	6600	2700	2.44
11274	TV68 0_493 9-2 ถ.ประดิษฐ์มนูธรรม - ปากซอยร่วมใจ	13.7951149	100.6129868	exat	working	2022-09-09T00:00:00	16:00:00	17:00:00	72	21	2747	2700	1.02
11275	TV68 0_493 9-2 ถ.ประดิษฐ์มนูธรรม - ปากซอยร่วมใจ	13.7951149	100.6129868	exat	working	2022-09-09T00:00:00	17:00:00	18:00:00	73	19	2176	2700	0.81
11276	TV68 0_493 9-2 ถ.ประดิษฐ์มนูธรรม - ปากซอยร่วมใจ	13.7951149	100.6129868	exat	working	2022-09-09T00:00:00	18:00:00	19:00:00	59	20	2368	2700	0.88
11277	TV68 0_493 9-2 ถ.ประดิษฐ์มนูธรรม - ปากซอยร่วมใจ	13.7951149	100.6129868	exat	working	2022-10-09T00:00:00	5:00:00	6:00:00	97	4	285	2700	0.11
11278	TV68 0_493 9-2 ถ.ประดิษฐ์มนูธรรม - ปากซอยร่วมใจ	13.7951149	100.6129868	exat	holiday	2022-10-09T00:00:00	6:00:00	7:00:00	69	13	914	2700	0.34
11279	TV68 0_493 9-2 ถ.ประดิษฐ์มนูธรรม - ปากซอยร่วมใจ	13.7951149	100.6129868	exat	holiday	2022-10-09T00:00:00	7:00:00	8:00:00	73	18	1443	2700	0.53
11280	TV68 0_493 9-2 ถ.ประดิษฐ์มนูธรรม - ปากซอยร่วมใจ	13.7951149	100.6129868	exat	holiday	2022-10-09T00:00:00	8:00:00	9:00:00	72	19	2014	2700	0.75
11281	TV68 0_493 9-2 ถ.ประดิษฐ์มนูธรรม - ปากซอยร่วมใจ	13.7951149	100.6129868	exat	working	2022-10-09T00:00:00	9:00:00	10:00:00	71	14	1896	2700	0.70
11282	TV68 0_493 9-2 ถ.ประดิษฐ์มนูธรรม - ปากซอยร่วมใจ	13.7951149	100.6129868	exat	working	2022-10-09T00:00:00	10:00:00	11:00:00	70	14	1928	2700	0.71
11283	TV68 0_493 9-2 ถ.ประดิษฐ์มนูธรรม - ปากซอยร่วมใจ	13.7951149	100.6129868	exat	holiday	2022-10-09T00:00:00	11:00:00	12:00:00	70	29	3675	2700	1.36
11284	TV68 0_493 9-2 ถ.ประดิษฐ์มนูธรรม - ปากซอยร่วมใจ	13.7951149	100.6129868	exat	working	2022-10-09T00:00:00	12:00:00	13:00:00	71	17	1941	2700	0.72
11285	TV68 0_493 9-2 ถ.ประดิษฐ์มนูธรรม - ปากซอยร่วมใจ	13.7951149	100.6129868	exat	working	2022-10-09T00:00:00	13:00:00	14:00:00	68	15	1924	2700	0.71
11286	TV68 0_493 9-2 ถ.ประดิษฐ์มนูธรรม - ปากซอยร่วมใจ	13.7951149	100.6129868	exat	working	2022-10-09T00:00:00	14:00:00	15:00:00	67	16	1890	2700	0.70
11287	TV68 0_493 9-2 ถ.ประดิษฐ์มนูธรรม - ปากซอยร่วมใจ	13.7951149	100.6129868	exat	working	2022-10-09T00:00:00	15:00:00	16:00:00	67	14	2006	2700	0.74
11288	TV68 0_493 9-2 ถ.ประดิษฐ์มนูธรรม - ปากซอยร่วมใจ	13.7951149	100.6129868	exat	holiday	2022-10-09T00:00:00	16:00:00	17:00:00	67	26	3112	2700	1.15
11289	TV68 0_493 9-2 ถ.ประดิษฐ์มนูธรรม - ปากซอยร่วมใจ	13.7951149	100.6129868	exat	holiday	2022-10-09T00:00:00	17:00:00	18:00:00	59	23	3126	2700	1.16
11290	TV68 0_493 9-2 ถ.ประดิษฐ์มนูธรรม - ปากซอยร่วมใจ	13.7951149	100.6129868	exat	holiday	2022-10-09T00:00:00	18:00:00	19:00:00	62	26	2018	2700	0.75
11291	TV68 0_493 9-2 ถ.ประดิษฐ์มนูธรรม - ปากซอยร่วมใจ	13.7951149	100.6129868	exat	working	2022-11-09T00:00:00	5:00:00	6:00:00	60	3	186	2700	0.07
11292	TV68 0_493 9-2 ถ.ประดิษฐ์มนูธรรม - ปากซอยร่วมใจ	13.7951149	100.6129868	exat	holiday	2022-11-09T00:00:00	6:00:00	7:00:00	42	8	533	2700	0.20
11293	TV68 0_493 9-2 ถ.ประดิษฐ์มนูธรรม - ปากซอยร่วมใจ	13.7951149	100.6129868	exat	holiday	2022-11-09T00:00:00	7:00:00	8:00:00	44	11	880	2700	0.33
11294	TV68 0_493 9-2 ถ.ประดิษฐ์มนูธรรม - ปากซอยร่วมใจ	13.7951149	100.6129868	exat	holiday	2022-11-09T00:00:00	8:00:00	9:00:00	44	12	1208	2700	0.45
11295	TV68 0_493 9-2 ถ.ประดิษฐ์มนูธรรม - ปากซอยร่วมใจ	13.7951149	100.6129868	exat	working	2022-11-09T00:00:00	9:00:00	10:00:00	43	8	1155	2700	0.43
11296	TV68 0_493 9-2 ถ.ประดิษฐ์มนูธรรม - ปากซอยร่วมใจ	13.7951149	100.6129868	exat	working	2022-11-09T00:00:00	10:00:00	11:00:00	42	9	1162	2700	0.43
11297	TV68 0_493 9-2 ถ.ประดิษฐ์มนูธรรม - ปากซอยร่วมใจ	13.7951149	100.6129868	exat	holiday	2022-11-09T00:00:00	11:00:00	12:00:00	42	17	2200	2700	0.81
11298	TV68 0_493 9-2 ถ.ประดิษฐ์มนูธรรม - ปากซอยร่วมใจ	13.7951149	100.6129868	exat	working	2022-11-09T00:00:00	12:00:00	13:00:00	43	11	1171	2700	0.43
11299	TV68 0_493 9-2 ถ.ประดิษฐ์มนูธรรม - ปากซอยร่วมใจ	13.7951149	100.6129868	exat	working	2022-11-09T00:00:00	13:00:00	14:00:00	41	9	1146	2700	0.42
11300	TV68 0_493 9-2 ถ.ประดิษฐ์มนูธรรม - ปากซอยร่วมใจ	13.7951149	100.6129868	exat	working	2022-11-09T00:00:00	14:00:00	15:00:00	40	10	1134	2700	0.42
11301	TV68 0_493 9-2 ถ.ประดิษฐ์มนูธรรม - ปากซอยร่วมใจ	13.7951149	100.6129868	exat	working	2022-11-09T00:00:00	15:00:00	16:00:00	40	8	1215	2700	0.45
11302	TV68 0_493 9-2 ถ.ประดิษฐ์มนูธรรม - ปากซอยร่วมใจ	13.7951149	100.6129868	exat	holiday	2022-11-09T00:00:00	16:00:00	17:00:00	40	16	1857	2700	0.69
11303	TV68 0_493 9-2 ถ.ประดิษฐ์มนูธรรม - ปากซอยร่วมใจ	13.7951149	100.6129868	exat	holiday	2022-11-09T00:00:00	17:00:00	18:00:00	35	14	1850	2700	0.69
11304	TV68 0_493 9-2 ถ.ประดิษฐ์มนูธรรม - ปากซอยร่วมใจ	13.7951149	100.6129868	exat	holiday	2022-11-09T00:00:00	18:00:00	19:00:00	37	16	1201	2700	0.44
11305	TV49 45_182 B ทางพิเศษฉลองรัช-ถ.ลาดพร้าว	13.780113	100.6074617	exat	working	2022-05-09T00:00:00	5:00:00	6:00:00	105	6	442	2700	0.16
11306	TV49 45_182 B ทางพิเศษฉลองรัช-ถ.ลาดพร้าว	13.780113	100.6074617	exat	working	2022-05-09T00:00:00	6:00:00	7:00:00	73	19	1458	2700	0.54
11307	TV49 45_182 B ทางพิเศษฉลองรัช-ถ.ลาดพร้าว	13.780113	100.6074617	exat	working	2022-05-09T00:00:00	7:00:00	8:00:00	73	17	739	2700	0.27
11308	TV49 45_182 B ทางพิเศษฉลองรัช-ถ.ลาดพร้าว	13.780113	100.6074617	exat	working	2022-05-09T00:00:00	8:00:00	9:00:00	71	20	1459	2700	0.54
11309	TV49 45_182 B ทางพิเศษฉลองรัช-ถ.ลาดพร้าว	13.780113	100.6074617	exat	working	2022-05-09T00:00:00	9:00:00	10:00:00	68	17	1374	2700	0.51
11310	TV49 45_182 B ทางพิเศษฉลองรัช-ถ.ลาดพร้าว	13.780113	100.6074617	exat	working	2022-05-09T00:00:00	10:00:00	11:00:00	66	18	1377	2700	0.51
11311	TV49 45_182 B ทางพิเศษฉลองรัช-ถ.ลาดพร้าว	13.780113	100.6074617	exat	working	2022-05-09T00:00:00	11:00:00	12:00:00	73	26	1281	2700	0.47
11312	TV49 45_182 B ทางพิเศษฉลองรัช-ถ.ลาดพร้าว	13.780113	100.6074617	exat	working	2022-05-09T00:00:00	12:00:00	13:00:00	70	18	1390	2700	0.51
11313	TV49 45_182 B ทางพิเศษฉลองรัช-ถ.ลาดพร้าว	13.780113	100.6074617	exat	working	2022-05-09T00:00:00	13:00:00	14:00:00	66	16	1323	2700	0.49
11314	TV49 45_182 B ทางพิเศษฉลองรัช-ถ.ลาดพร้าว	13.780113	100.6074617	exat	working	2022-05-09T00:00:00	14:00:00	15:00:00	66	19	1422	2700	0.53
11315	TV49 45_182 B ทางพิเศษฉลองรัช-ถ.ลาดพร้าว	13.780113	100.6074617	exat	working	2022-05-09T00:00:00	15:00:00	16:00:00	67	19	1387	2700	0.51
11316	TV49 45_182 B ทางพิเศษฉลองรัช-ถ.ลาดพร้าว	13.780113	100.6074617	exat	working	2022-05-09T00:00:00	16:00:00	17:00:00	67	24	2026	2700	0.75
11317	TV49 45_182 B ทางพิเศษฉลองรัช-ถ.ลาดพร้าว	13.780113	100.6074617	exat	working	2022-05-09T00:00:00	17:00:00	18:00:00	71	30	3654	2700	1.35
11318	TV49 45_182 B ทางพิเศษฉลองรัช-ถ.ลาดพร้าว	13.780113	100.6074617	exat	working	2022-05-09T00:00:00	18:00:00	19:00:00	71	38	4378	2700	1.62
11319	TV49 45_182 B ทางพิเศษฉลองรัช-ถ.ลาดพร้าว	13.780113	100.6074617	exat	working	2022-06-09T00:00:00	5:00:00	6:00:00	103	6	301	2700	0.11
11320	TV49 45_182 B ทางพิเศษฉลองรัช-ถ.ลาดพร้าว	13.780113	100.6074617	exat	working	2022-06-09T00:00:00	6:00:00	7:00:00	73	18	1006	2700	0.37
11321	TV49 45_182 B ทางพิเศษฉลองรัช-ถ.ลาดพร้าว	13.780113	100.6074617	exat	working	2022-06-09T00:00:00	7:00:00	8:00:00	73	19	1006	2700	0.37
11322	TV49 45_182 B ทางพิเศษฉลองรัช-ถ.ลาดพร้าว	13.780113	100.6074617	exat	working	2022-06-09T00:00:00	8:00:00	9:00:00	72	19	1285	2700	0.48
11323	TV49 45_182 B ทางพิเศษฉลองรัช-ถ.ลาดพร้าว	13.780113	100.6074617	exat	working	2022-06-09T00:00:00	9:00:00	10:00:00	68	14	1232	2700	0.46
11324	TV49 45_182 B ทางพิเศษฉลองรัช-ถ.ลาดพร้าว	13.780113	100.6074617	exat	working	2022-06-09T00:00:00	10:00:00	11:00:00	68	16	1176	2700	0.44
11325	TV49 45_182 B ทางพิเศษฉลองรัช-ถ.ลาดพร้าว	13.780113	100.6074617	exat	working	2022-06-09T00:00:00	11:00:00	12:00:00	73	26	1286	2700	0.48
11326	TV49 45_182 B ทางพิเศษฉลองรัช-ถ.ลาดพร้าว	13.780113	100.6074617	exat	working	2022-06-09T00:00:00	12:00:00	13:00:00	71	15	1228	2700	0.45
11327	TV49 45_182 B ทางพิเศษฉลองรัช-ถ.ลาดพร้าว	13.780113	100.6074617	exat	working	2022-06-09T00:00:00	13:00:00	14:00:00	69	16	1160	2700	0.43
11328	TV49 45_182 B ทางพิเศษฉลองรัช-ถ.ลาดพร้าว	13.780113	100.6074617	exat	working	2022-06-09T00:00:00	14:00:00	15:00:00	69	16	1191	2700	0.44
11329	TV49 45_182 B ทางพิเศษฉลองรัช-ถ.ลาดพร้าว	13.780113	100.6074617	exat	working	2022-06-09T00:00:00	15:00:00	16:00:00	67	17	1161	2700	0.43
11330	TV49 45_182 B ทางพิเศษฉลองรัช-ถ.ลาดพร้าว	13.780113	100.6074617	exat	working	2022-06-09T00:00:00	16:00:00	17:00:00	69	34	3460	2700	1.28
11331	TV49 45_182 B ทางพิเศษฉลองรัช-ถ.ลาดพร้าว	13.780113	100.6074617	exat	working	2022-06-09T00:00:00	17:00:00	18:00:00	70	31	3192	2700	1.18
11332	TV49 45_182 B ทางพิเศษฉลองรัช-ถ.ลาดพร้าว	13.780113	100.6074617	exat	working	2022-06-09T00:00:00	18:00:00	19:00:00	71	37	4205	2700	1.56
11333	TV49 45_182 B ทางพิเศษฉลองรัช-ถ.ลาดพร้าว	13.780113	100.6074617	exat	working	2022-07-09T00:00:00	5:00:00	6:00:00	104	6	183	2700	0.07
11334	TV49 45_182 B ทางพิเศษฉลองรัช-ถ.ลาดพร้าว	13.780113	100.6074617	exat	working	2022-07-09T00:00:00	6:00:00	7:00:00	73	17	550	2700	0.20
11335	TV49 45_182 B ทางพิเศษฉลองรัช-ถ.ลาดพร้าว	13.780113	100.6074617	exat	working	2022-07-09T00:00:00	7:00:00	8:00:00	73	20	1275	2700	0.47
11336	TV49 45_182 B ทางพิเศษฉลองรัช-ถ.ลาดพร้าว	13.780113	100.6074617	exat	working	2022-07-09T00:00:00	8:00:00	9:00:00	73	17	1101	2700	0.41
11337	TV49 45_182 B ทางพิเศษฉลองรัช-ถ.ลาดพร้าว	13.780113	100.6074617	exat	working	2022-07-09T00:00:00	9:00:00	10:00:00	69	12	1046	2700	0.39
11338	TV49 45_182 B ทางพิเศษฉลองรัช-ถ.ลาดพร้าว	13.780113	100.6074617	exat	working	2022-07-09T00:00:00	10:00:00	11:00:00	71	14	972	2700	0.36
11339	TV49 45_182 B ทางพิเศษฉลองรัช-ถ.ลาดพร้าว	13.780113	100.6074617	exat	working	2022-07-09T00:00:00	11:00:00	12:00:00	73	26	1285	2700	0.48
11340	TV49 45_182 B ทางพิเศษฉลองรัช-ถ.ลาดพร้าว	13.780113	100.6074617	exat	working	2022-07-09T00:00:00	12:00:00	13:00:00	72	12	1041	2700	0.39
11341	TV49 45_182 B ทางพิเศษฉลองรัช-ถ.ลาดพร้าว	13.780113	100.6074617	exat	working	2022-07-09T00:00:00	13:00:00	14:00:00	72	15	983	2700	0.36
11342	TV49 45_182 B ทางพิเศษฉลองรัช-ถ.ลาดพร้าว	13.780113	100.6074617	exat	working	2022-07-09T00:00:00	14:00:00	15:00:00	72	14	969	2700	0.36
11343	TV49 45_182 B ทางพิเศษฉลองรัช-ถ.ลาดพร้าว	13.780113	100.6074617	exat	working	2022-07-09T00:00:00	15:00:00	16:00:00	68	15	938	2700	0.35
11344	TV49 45_182 B ทางพิเศษฉลองรัช-ถ.ลาดพร้าว	13.780113	100.6074617	exat	working	2022-07-09T00:00:00	16:00:00	17:00:00	72	43	4877	2700	1.81
11345	TV49 45_182 B ทางพิเศษฉลองรัช-ถ.ลาดพร้าว	13.780113	100.6074617	exat	working	2022-07-09T00:00:00	17:00:00	18:00:00	68	32	2735	2700	1.01
11346	TV49 45_182 B ทางพิเศษฉลองรัช-ถ.ลาดพร้าว	13.780113	100.6074617	exat	working	2022-07-09T00:00:00	18:00:00	19:00:00	72	37	4037	2700	1.50
11347	TV49 45_182 B ทางพิเศษฉลองรัช-ถ.ลาดพร้าว	13.780113	100.6074617	exat	working	2022-08-09T00:00:00	5:00:00	6:00:00	104	6	174	2700	0.06
11348	TV49 45_182 B ทางพิเศษฉลองรัช-ถ.ลาดพร้าว	13.780113	100.6074617	exat	working	2022-08-09T00:00:00	6:00:00	7:00:00	73	17	548	2700	0.20
11349	TV49 45_182 B ทางพิเศษฉลองรัช-ถ.ลาดพร้าว	13.780113	100.6074617	exat	working	2022-08-09T00:00:00	7:00:00	8:00:00	45	71	1828	2700	0.68
11350	TV49 45_182 B ทางพิเศษฉลองรัช-ถ.ลาดพร้าว	13.780113	100.6074617	exat	working	2022-08-09T00:00:00	8:00:00	9:00:00	73	28	2024	2700	0.75
11351	TV49 45_182 B ทางพิเศษฉลองรัช-ถ.ลาดพร้าว	13.780113	100.6074617	exat	working	2022-08-09T00:00:00	9:00:00	10:00:00	70	23	1828	2700	0.68
11352	TV49 45_182 B ทางพิเศษฉลองรัช-ถ.ลาดพร้าว	13.780113	100.6074617	exat	working	2022-08-09T00:00:00	10:00:00	11:00:00	70	25	1890	2700	0.70
11353	TV49 45_182 B ทางพิเศษฉลองรัช-ถ.ลาดพร้าว	13.780113	100.6074617	exat	working	2022-08-09T00:00:00	11:00:00	12:00:00	73	23	1740	2700	0.64
11354	TV49 45_182 B ทางพิเศษฉลองรัช-ถ.ลาดพร้าว	13.780113	100.6074617	exat	working	2022-08-09T00:00:00	12:00:00	13:00:00	70	24	1956	2700	0.72
11355	TV49 45_182 B ทางพิเศษฉลองรัช-ถ.ลาดพร้าว	13.780113	100.6074617	exat	working	2022-08-09T00:00:00	13:00:00	14:00:00	71	26	1835	2700	0.68
11356	TV49 45_182 B ทางพิเศษฉลองรัช-ถ.ลาดพร้าว	13.780113	100.6074617	exat	working	2022-08-09T00:00:00	14:00:00	15:00:00	71	25	1891	2700	0.70
11357	TV49 45_182 B ทางพิเศษฉลองรัช-ถ.ลาดพร้าว	13.780113	100.6074617	exat	working	2022-08-09T00:00:00	15:00:00	16:00:00	68	25	1879	2700	0.70
11358	TV49 45_182 B ทางพิเศษฉลองรัช-ถ.ลาดพร้าว	13.780113	100.6074617	exat	working	2022-08-09T00:00:00	16:00:00	17:00:00	72	36	3667	2700	1.36
11359	TV49 45_182 B ทางพิเศษฉลองรัช-ถ.ลาดพร้าว	13.780113	100.6074617	exat	working	2022-08-09T00:00:00	17:00:00	18:00:00	69	32	2859	2700	1.06
11360	TV49 45_182 B ทางพิเศษฉลองรัช-ถ.ลาดพร้าว	13.780113	100.6074617	exat	working	2022-08-09T00:00:00	18:00:00	19:00:00	71	44	3483	2700	1.29
11361	TV49 45_182 B ทางพิเศษฉลองรัช-ถ.ลาดพร้าว	13.780113	100.6074617	exat	working	2022-09-09T00:00:00	5:00:00	6:00:00	103	6	184	2700	0.07
11362	TV49 45_182 B ทางพิเศษฉลองรัช-ถ.ลาดพร้าว	13.780113	100.6074617	exat	working	2022-09-09T00:00:00	6:00:00	7:00:00	73	17	549	2700	0.20
11363	TV49 45_182 B ทางพิเศษฉลองรัช-ถ.ลาดพร้าว	13.780113	100.6074617	exat	working	2022-09-09T00:00:00	7:00:00	8:00:00	17	122	2361	2700	0.87
11364	TV49 45_182 B ทางพิเศษฉลองรัช-ถ.ลาดพร้าว	13.780113	100.6074617	exat	working	2022-09-09T00:00:00	8:00:00	9:00:00	73	38	2974	2700	1.10
11365	TV49 45_182 B ทางพิเศษฉลองรัช-ถ.ลาดพร้าว	13.780113	100.6074617	exat	working	2022-09-09T00:00:00	9:00:00	10:00:00	69	34	2854	2700	1.06
11366	TV49 45_182 B ทางพิเศษฉลองรัช-ถ.ลาดพร้าว	13.780113	100.6074617	exat	working	2022-09-09T00:00:00	10:00:00	11:00:00	70	37	2800	2700	1.04
11367	TV49 45_182 B ทางพิเศษฉลองรัช-ถ.ลาดพร้าว	13.780113	100.6074617	exat	working	2022-09-09T00:00:00	11:00:00	12:00:00	73	21	2198	2700	0.81
11368	TV49 45_182 B ทางพิเศษฉลองรัช-ถ.ลาดพร้าว	13.780113	100.6074617	exat	working	2022-09-09T00:00:00	12:00:00	13:00:00	68	37	2842	2700	1.05
11369	TV49 45_182 B ทางพิเศษฉลองรัช-ถ.ลาดพร้าว	13.780113	100.6074617	exat	working	2022-09-09T00:00:00	13:00:00	14:00:00	69	37	2766	2700	1.02
11370	TV49 45_182 B ทางพิเศษฉลองรัช-ถ.ลาดพร้าว	13.780113	100.6074617	exat	working	2022-09-09T00:00:00	14:00:00	15:00:00	70	36	2886	2700	1.07
11371	TV49 45_182 B ทางพิเศษฉลองรัช-ถ.ลาดพร้าว	13.780113	100.6074617	exat	working	2022-09-09T00:00:00	15:00:00	16:00:00	68	36	2842	2700	1.05
11372	TV49 45_182 B ทางพิเศษฉลองรัช-ถ.ลาดพร้าว	13.780113	100.6074617	exat	working	2022-09-09T00:00:00	16:00:00	17:00:00	73	29	2375	2700	0.88
11373	TV49 45_182 B ทางพิเศษฉลองรัช-ถ.ลาดพร้าว	13.780113	100.6074617	exat	working	2022-09-09T00:00:00	17:00:00	18:00:00	70	32	2938	2700	1.09
11374	TV49 45_182 B ทางพิเศษฉลองรัช-ถ.ลาดพร้าว	13.780113	100.6074617	exat	working	2022-09-09T00:00:00	18:00:00	19:00:00	71	51	2938	2700	1.09
11375	TV49 45_182 B ทางพิเศษฉลองรัช-ถ.ลาดพร้าว	13.780113	100.6074617	exat	working	2022-10-09T00:00:00	5:00:00	6:00:00	104	5	228	2700	0.08
11376	TV49 45_182 B ทางพิเศษฉลองรัช-ถ.ลาดพร้าว	13.780113	100.6074617	exat	holiday	2022-10-09T00:00:00	6:00:00	7:00:00	73	17	745	2700	0.28
11377	TV49 45_182 B ทางพิเศษฉลองรัช-ถ.ลาดพร้าว	13.780113	100.6074617	exat	holiday	2022-10-09T00:00:00	7:00:00	8:00:00	73	39	538	2700	0.20
11378	TV49 45_182 B ทางพิเศษฉลองรัช-ถ.ลาดพร้าว	13.780113	100.6074617	exat	holiday	2022-10-09T00:00:00	8:00:00	9:00:00	73	18	914	2700	0.34
11379	TV49 45_182 B ทางพิเศษฉลองรัช-ถ.ลาดพร้าว	13.780113	100.6074617	exat	working	2022-10-09T00:00:00	9:00:00	10:00:00	69	15	786	2700	0.29
11380	TV49 45_182 B ทางพิเศษฉลองรัช-ถ.ลาดพร้าว	13.780113	100.6074617	exat	working	2022-10-09T00:00:00	10:00:00	11:00:00	69	17	899	2700	0.33
11381	TV49 45_182 B ทางพิเศษฉลองรัช-ถ.ลาดพร้าว	13.780113	100.6074617	exat	holiday	2022-10-09T00:00:00	11:00:00	12:00:00	73	26	1462	2700	0.54
11382	TV49 45_182 B ทางพิเศษฉลองรัช-ถ.ลาดพร้าว	13.780113	100.6074617	exat	working	2022-10-09T00:00:00	12:00:00	13:00:00	70	15	873	2700	0.32
11383	TV49 45_182 B ทางพิเศษฉลองรัช-ถ.ลาดพร้าว	13.780113	100.6074617	exat	working	2022-10-09T00:00:00	13:00:00	14:00:00	72	15	821	2700	0.30
11384	TV49 45_182 B ทางพิเศษฉลองรัช-ถ.ลาดพร้าว	13.780113	100.6074617	exat	working	2022-10-09T00:00:00	14:00:00	15:00:00	69	16	857	2700	0.32
11385	TV49 45_182 B ทางพิเศษฉลองรัช-ถ.ลาดพร้าว	13.780113	100.6074617	exat	working	2022-10-09T00:00:00	15:00:00	16:00:00	71	16	915	2700	0.34
11386	TV49 45_182 B ทางพิเศษฉลองรัช-ถ.ลาดพร้าว	13.780113	100.6074617	exat	holiday	2022-10-09T00:00:00	16:00:00	17:00:00	73	36	1471	2700	0.54
11387	TV49 45_182 B ทางพิเศษฉลองรัช-ถ.ลาดพร้าว	13.780113	100.6074617	exat	holiday	2022-10-09T00:00:00	17:00:00	18:00:00	71	44	2930	2700	1.09
11388	TV49 45_182 B ทางพิเศษฉลองรัช-ถ.ลาดพร้าว	13.780113	100.6074617	exat	holiday	2022-10-09T00:00:00	18:00:00	19:00:00	60	21	1118	2700	0.41
11389	TV49 45_182 B ทางพิเศษฉลองรัช-ถ.ลาดพร้าว	13.780113	100.6074617	exat	working	2022-11-09T00:00:00	5:00:00	6:00:00	63	4	136	2700	0.05
11390	TV49 45_182 B ทางพิเศษฉลองรัช-ถ.ลาดพร้าว	13.780113	100.6074617	exat	holiday	2022-11-09T00:00:00	6:00:00	7:00:00	44	11	430	2700	0.16
11391	TV49 45_182 B ทางพิเศษฉลองรัช-ถ.ลาดพร้าว	13.780113	100.6074617	exat	holiday	2022-11-09T00:00:00	7:00:00	8:00:00	44	24	323	2700	0.12
11392	TV49 45_182 B ทางพิเศษฉลองรัช-ถ.ลาดพร้าว	13.780113	100.6074617	exat	holiday	2022-11-09T00:00:00	8:00:00	9:00:00	44	11	546	2700	0.20
11393	TV49 45_182 B ทางพิเศษฉลองรัช-ถ.ลาดพร้าว	13.780113	100.6074617	exat	working	2022-11-09T00:00:00	9:00:00	10:00:00	42	9	477	2700	0.18
11394	TV49 45_182 B ทางพิเศษฉลองรัช-ถ.ลาดพร้าว	13.780113	100.6074617	exat	working	2022-11-09T00:00:00	10:00:00	11:00:00	42	10	556	2700	0.21
11395	TV49 45_182 B ทางพิเศษฉลองรัช-ถ.ลาดพร้าว	13.780113	100.6074617	exat	holiday	2022-11-09T00:00:00	11:00:00	12:00:00	44	16	883	2700	0.33
11396	TV49 45_182 B ทางพิเศษฉลองรัช-ถ.ลาดพร้าว	13.780113	100.6074617	exat	working	2022-11-09T00:00:00	12:00:00	13:00:00	42	9	531	2700	0.20
11397	TV49 45_182 B ทางพิเศษฉลองรัช-ถ.ลาดพร้าว	13.780113	100.6074617	exat	working	2022-11-09T00:00:00	13:00:00	14:00:00	43	9	490	2700	0.18
11398	TV49 45_182 B ทางพิเศษฉลองรัช-ถ.ลาดพร้าว	13.780113	100.6074617	exat	working	2022-11-09T00:00:00	14:00:00	15:00:00	42	10	493	2700	0.18
11399	TV49 45_182 B ทางพิเศษฉลองรัช-ถ.ลาดพร้าว	13.780113	100.6074617	exat	working	2022-11-09T00:00:00	15:00:00	16:00:00	43	10	565	2700	0.21
11400	TV49 45_182 B ทางพิเศษฉลองรัช-ถ.ลาดพร้าว	13.780113	100.6074617	exat	holiday	2022-11-09T00:00:00	16:00:00	17:00:00	44	22	846	2700	0.31
11401	TV49 45_182 B ทางพิเศษฉลองรัช-ถ.ลาดพร้าว	13.780113	100.6074617	exat	holiday	2022-11-09T00:00:00	17:00:00	18:00:00	43	27	1729	2700	0.64
11402	TV49 45_182 B ทางพิเศษฉลองรัช-ถ.ลาดพร้าว	13.780113	100.6074617	exat	holiday	2022-11-09T00:00:00	18:00:00	19:00:00	36	13	653	2700	0.24
11403	TV22 18_123  A ด่านสุขาภิบาล	13.8868189	100.6496725	exat	working	2022-05-09T00:00:00	5:00:00	6:00:00	70	7	457	5400	0.08
11404	TV22 18_123  A ด่านสุขาภิบาล	13.8868189	100.6496725	exat	working	2022-05-09T00:00:00	6:00:00	7:00:00	50	20	1474	5400	0.27
11405	TV22 18_123  A ด่านสุขาภิบาล	13.8868189	100.6496725	exat	working	2022-05-09T00:00:00	7:00:00	8:00:00	39	22	919	5400	0.17
11406	TV22 18_123  A ด่านสุขาภิบาล	13.8868189	100.6496725	exat	working	2022-05-09T00:00:00	8:00:00	9:00:00	37	57	1084	5400	0.20
11407	TV22 18_123  A ด่านสุขาภิบาล	13.8868189	100.6496725	exat	working	2022-05-09T00:00:00	9:00:00	10:00:00	33	52	970	5400	0.18
11408	TV22 18_123  A ด่านสุขาภิบาล	13.8868189	100.6496725	exat	working	2022-05-09T00:00:00	10:00:00	11:00:00	36	57	932	5400	0.17
11409	TV22 18_123  A ด่านสุขาภิบาล	13.8868189	100.6496725	exat	working	2022-05-09T00:00:00	11:00:00	12:00:00	40	27	1091	5400	0.20
11410	TV22 18_123  A ด่านสุขาภิบาล	13.8868189	100.6496725	exat	working	2022-05-09T00:00:00	12:00:00	13:00:00	33	52	1021	5400	0.19
11411	TV22 18_123  A ด่านสุขาภิบาล	13.8868189	100.6496725	exat	working	2022-05-09T00:00:00	13:00:00	14:00:00	36	52	954	5400	0.18
11412	TV22 18_123  A ด่านสุขาภิบาล	13.8868189	100.6496725	exat	working	2022-05-09T00:00:00	14:00:00	15:00:00	33	55	1023	5400	0.19
11413	TV22 18_123  A ด่านสุขาภิบาล	13.8868189	100.6496725	exat	working	2022-05-09T00:00:00	15:00:00	16:00:00	34	55	1063	5400	0.20
11414	TV22 18_123  A ด่านสุขาภิบาล	13.8868189	100.6496725	exat	working	2022-05-09T00:00:00	16:00:00	17:00:00	37	50	1467	5400	0.27
11415	TV22 18_123  A ด่านสุขาภิบาล	13.8868189	100.6496725	exat	working	2022-05-09T00:00:00	17:00:00	18:00:00	46	19	1094	5400	0.20
11416	TV22 18_123  A ด่านสุขาภิบาล	13.8868189	100.6496725	exat	working	2022-05-09T00:00:00	18:00:00	19:00:00	33	26	1466	5400	0.27
11417	TV22 18_123  A ด่านสุขาภิบาล	13.8868189	100.6496725	exat	working	2022-06-09T00:00:00	5:00:00	6:00:00	63	6	338	5400	0.06
11418	TV22 18_123  A ด่านสุขาภิบาล	13.8868189	100.6496725	exat	working	2022-06-09T00:00:00	6:00:00	7:00:00	44	17	1089	5400	0.20
11419	TV22 18_123  A ด่านสุขาภิบาล	13.8868189	100.6496725	exat	working	2022-06-09T00:00:00	7:00:00	8:00:00	42	25	1013	5400	0.19
11420	TV22 18_123  A ด่านสุขาภิบาล	13.8868189	100.6496725	exat	working	2022-06-09T00:00:00	8:00:00	9:00:00	40	49	1746	5400	0.32
11421	TV22 18_123  A ด่านสุขาภิบาล	13.8868189	100.6496725	exat	working	2022-06-09T00:00:00	9:00:00	10:00:00	38	46	1648	5400	0.31
11422	TV22 18_123  A ด่านสุขาภิบาล	13.8868189	100.6496725	exat	working	2022-06-09T00:00:00	10:00:00	11:00:00	37	47	1639	5400	0.30
11423	TV22 18_123  A ด่านสุขาภิบาล	13.8868189	100.6496725	exat	working	2022-06-09T00:00:00	11:00:00	12:00:00	35	28	1184	5400	0.22
11424	TV22 18_123  A ด่านสุขาภิบาล	13.8868189	100.6496725	exat	working	2022-06-09T00:00:00	12:00:00	13:00:00	37	45	1721	5400	0.32
11425	TV22 18_123  A ด่านสุขาภิบาล	13.8868189	100.6496725	exat	working	2022-06-09T00:00:00	13:00:00	14:00:00	39	44	1652	5400	0.31
11426	TV22 18_123  A ด่านสุขาภิบาล	13.8868189	100.6496725	exat	working	2022-06-09T00:00:00	14:00:00	15:00:00	35	48	1690	5400	0.31
11427	TV22 18_123  A ด่านสุขาภิบาล	13.8868189	100.6496725	exat	working	2022-06-09T00:00:00	15:00:00	16:00:00	36	47	1698	5400	0.31
11428	TV22 18_123  A ด่านสุขาภิบาล	13.8868189	100.6496725	exat	working	2022-06-09T00:00:00	16:00:00	17:00:00	49	44	1185	5400	0.22
11429	TV22 18_123  A ด่านสุขาภิบาล	13.8868189	100.6496725	exat	working	2022-06-09T00:00:00	17:00:00	18:00:00	41	30	804	5400	0.15
11430	TV22 18_123  A ด่านสุขาภิบาล	13.8868189	100.6496725	exat	working	2022-06-09T00:00:00	18:00:00	19:00:00	36	23	1165	5400	0.22
11431	TV22 18_123  A ด่านสุขาภิบาล	13.8868189	100.6496725	exat	working	2022-07-09T00:00:00	5:00:00	6:00:00	54	5	237	5400	0.04
11432	TV22 18_123  A ด่านสุขาภิบาล	13.8868189	100.6496725	exat	working	2022-07-09T00:00:00	6:00:00	7:00:00	39	14	741	5400	0.14
11433	TV22 18_123  A ด่านสุขาภิบาล	13.8868189	100.6496725	exat	working	2022-07-09T00:00:00	7:00:00	8:00:00	44	28	1110	5400	0.21
11434	TV22 18_123  A ด่านสุขาภิบาล	13.8868189	100.6496725	exat	working	2022-07-09T00:00:00	8:00:00	9:00:00	43	41	2380	5400	0.44
11435	TV22 18_123  A ด่านสุขาภิบาล	13.8868189	100.6496725	exat	working	2022-07-09T00:00:00	9:00:00	10:00:00	42	40	2352	5400	0.44
11436	TV22 18_123  A ด่านสุขาภิบาล	13.8868189	100.6496725	exat	working	2022-07-09T00:00:00	10:00:00	11:00:00	38	37	2364	5400	0.44
11437	TV22 18_123  A ด่านสุขาภิบาล	13.8868189	100.6496725	exat	working	2022-07-09T00:00:00	11:00:00	12:00:00	30	30	1282	5400	0.24
11438	TV22 18_123  A ด่านสุขาภิบาล	13.8868189	100.6496725	exat	working	2022-07-09T00:00:00	12:00:00	13:00:00	40	37	2358	5400	0.44
11439	TV22 18_123  A ด่านสุขาภิบาล	13.8868189	100.6496725	exat	working	2022-07-09T00:00:00	13:00:00	14:00:00	42	36	2325	5400	0.43
11440	TV22 18_123  A ด่านสุขาภิบาล	13.8868189	100.6496725	exat	working	2022-07-09T00:00:00	14:00:00	15:00:00	38	40	2293	5400	0.42
11441	TV22 18_123  A ด่านสุขาภิบาล	13.8868189	100.6496725	exat	working	2022-07-09T00:00:00	15:00:00	16:00:00	39	39	2337	5400	0.43
11442	TV22 18_123  A ด่านสุขาภิบาล	13.8868189	100.6496725	exat	working	2022-07-09T00:00:00	16:00:00	17:00:00	61	37	930	5400	0.17
11443	TV22 18_123  A ด่านสุขาภิบาล	13.8868189	100.6496725	exat	working	2022-07-09T00:00:00	17:00:00	18:00:00	36	42	542	5400	0.10
11444	TV22 18_123  A ด่านสุขาภิบาล	13.8868189	100.6496725	exat	working	2022-07-09T00:00:00	18:00:00	19:00:00	40	21	929	5400	0.17
11445	TV22 18_123  A ด่านสุขาภิบาล	13.8868189	100.6496725	exat	working	2022-08-09T00:00:00	5:00:00	6:00:00	66	5	314	5400	0.06
11446	TV22 18_123  A ด่านสุขาภิบาล	13.8868189	100.6496725	exat	working	2022-08-09T00:00:00	6:00:00	7:00:00	47	15	896	5400	0.17
11447	TV22 18_123  A ด่านสุขาภิบาล	13.8868189	100.6496725	exat	working	2022-08-09T00:00:00	7:00:00	8:00:00	49	31	1471	5400	0.27
11448	TV22 18_123  A ด่านสุขาภิบาล	13.8868189	100.6496725	exat	working	2022-08-09T00:00:00	8:00:00	9:00:00	44	36	1821	5400	0.34
11449	TV22 18_123  A ด่านสุขาภิบาล	13.8868189	100.6496725	exat	working	2022-08-09T00:00:00	9:00:00	10:00:00	43	34	1780	5400	0.33
11450	TV22 18_123  A ด่านสุขาภิบาล	13.8868189	100.6496725	exat	working	2022-08-09T00:00:00	10:00:00	11:00:00	41	33	1773	5400	0.33
11451	TV22 18_123  A ด่านสุขาภิบาล	13.8868189	100.6496725	exat	working	2022-08-09T00:00:00	11:00:00	12:00:00	30	37	978	5400	0.18
11452	TV22 18_123  A ด่านสุขาภิบาล	13.8868189	100.6496725	exat	working	2022-08-09T00:00:00	12:00:00	13:00:00	42	34	1809	5400	0.34
11453	TV22 18_123  A ด่านสุขาภิบาล	13.8868189	100.6496725	exat	working	2022-08-09T00:00:00	13:00:00	14:00:00	41	33	1800	5400	0.33
11454	TV22 18_123  A ด่านสุขาภิบาล	13.8868189	100.6496725	exat	working	2022-08-09T00:00:00	14:00:00	15:00:00	40	35	1726	5400	0.32
11455	TV22 18_123  A ด่านสุขาภิบาล	13.8868189	100.6496725	exat	working	2022-08-09T00:00:00	15:00:00	16:00:00	40	34	1747	5400	0.32
11456	TV22 18_123  A ด่านสุขาภิบาล	13.8868189	100.6496725	exat	working	2022-08-09T00:00:00	16:00:00	17:00:00	56	30	1546	5400	0.29
11457	TV22 18_123  A ด่านสุขาภิบาล	13.8868189	100.6496725	exat	working	2022-08-09T00:00:00	17:00:00	18:00:00	36	36	823	5400	0.15
11458	TV22 18_123  A ด่านสุขาภิบาล	13.8868189	100.6496725	exat	working	2022-08-09T00:00:00	18:00:00	19:00:00	41	20	807	5400	0.15
11459	TV22 18_123  A ด่านสุขาภิบาล	13.8868189	100.6496725	exat	working	2022-09-09T00:00:00	5:00:00	6:00:00	77	6	336	5400	0.06
11460	TV22 18_123  A ด่านสุขาภิบาล	13.8868189	100.6496725	exat	working	2022-09-09T00:00:00	6:00:00	7:00:00	55	17	1111	5400	0.21
11461	TV22 18_123  A ด่านสุขาภิบาล	13.8868189	100.6496725	exat	working	2022-09-09T00:00:00	7:00:00	8:00:00	55	35	1839	5400	0.34
11462	TV22 18_123  A ด่านสุขาภิบาล	13.8868189	100.6496725	exat	working	2022-09-09T00:00:00	8:00:00	9:00:00	45	31	1279	5400	0.24
11463	TV22 18_123  A ด่านสุขาภิบาล	13.8868189	100.6496725	exat	working	2022-09-09T00:00:00	9:00:00	10:00:00	43	28	1216	5400	0.23
11464	TV22 18_123  A ด่านสุขาภิบาล	13.8868189	100.6496725	exat	working	2022-09-09T00:00:00	10:00:00	11:00:00	43	30	1218	5400	0.23
11465	TV22 18_123  A ด่านสุขาภิบาล	13.8868189	100.6496725	exat	working	2022-09-09T00:00:00	11:00:00	12:00:00	31	45	716	5400	0.13
11466	TV22 18_123  A ด่านสุขาภิบาล	13.8868189	100.6496725	exat	working	2022-09-09T00:00:00	12:00:00	13:00:00	44	30	1242	5400	0.23
11467	TV22 18_123  A ด่านสุขาภิบาล	13.8868189	100.6496725	exat	working	2022-09-09T00:00:00	13:00:00	14:00:00	41	30	1206	5400	0.22
11468	TV22 18_123  A ด่านสุขาภิบาล	13.8868189	100.6496725	exat	working	2022-09-09T00:00:00	14:00:00	15:00:00	41	31	1143	5400	0.21
11469	TV22 18_123  A ด่านสุขาภิบาล	13.8868189	100.6496725	exat	working	2022-09-09T00:00:00	15:00:00	16:00:00	42	29	1213	5400	0.22
11470	TV22 18_123  A ด่านสุขาภิบาล	13.8868189	100.6496725	exat	working	2022-09-09T00:00:00	16:00:00	17:00:00	50	24	2179	5400	0.40
11471	TV22 18_123  A ด่านสุขาภิบาล	13.8868189	100.6496725	exat	working	2022-09-09T00:00:00	17:00:00	18:00:00	36	29	1087	5400	0.20
11472	TV22 18_123  A ด่านสุขาภิบาล	13.8868189	100.6496725	exat	working	2022-09-09T00:00:00	18:00:00	19:00:00	43	20	732	5400	0.14
11473	TV22 18_123  A ด่านสุขาภิบาล	13.8868189	100.6496725	exat	working	2022-10-09T00:00:00	5:00:00	6:00:00	42	14	280	5400	0.05
11474	TV22 18_123  A ด่านสุขาภิบาล	13.8868189	100.6496725	exat	holiday	2022-10-09T00:00:00	6:00:00	7:00:00	30	40	818	5400	0.15
11475	TV22 18_123  A ด่านสุขาภิบาล	13.8868189	100.6496725	exat	holiday	2022-10-09T00:00:00	7:00:00	8:00:00	30	40	918	5400	0.17
11476	TV22 18_123  A ด่านสุขาภิบาล	13.8868189	100.6496725	exat	holiday	2022-10-09T00:00:00	8:00:00	9:00:00	32	27	537	5400	0.10
11477	TV22 18_123  A ด่านสุขาภิบาล	13.8868189	100.6496725	exat	working	2022-10-09T00:00:00	9:00:00	10:00:00	27	23	460	5400	0.09
11478	TV22 18_123  A ด่านสุขาภิบาล	13.8868189	100.6496725	exat	working	2022-10-09T00:00:00	10:00:00	11:00:00	27	27	370	5400	0.07
11479	TV22 18_123  A ด่านสุขาภิบาล	13.8868189	100.6496725	exat	holiday	2022-10-09T00:00:00	11:00:00	12:00:00	36	23	1093	5400	0.20
11480	TV22 18_123  A ด่านสุขาภิบาล	13.8868189	100.6496725	exat	working	2022-10-09T00:00:00	12:00:00	13:00:00	31	24	518	5400	0.10
11481	TV22 18_123  A ด่านสุขาภิบาล	13.8868189	100.6496725	exat	working	2022-10-09T00:00:00	13:00:00	14:00:00	30	23	441	5400	0.08
11482	TV22 18_123  A ด่านสุขาภิบาล	13.8868189	100.6496725	exat	working	2022-10-09T00:00:00	14:00:00	15:00:00	30	22	523	5400	0.10
11483	TV22 18_123  A ด่านสุขาภิบาล	13.8868189	100.6496725	exat	working	2022-10-09T00:00:00	15:00:00	16:00:00	27	21	441	5400	0.08
11484	TV22 18_123  A ด่านสุขาภิบาล	13.8868189	100.6496725	exat	holiday	2022-10-09T00:00:00	16:00:00	17:00:00	43	39	531	5400	0.10
11485	TV22 18_123  A ด่านสุขาภิบาล	13.8868189	100.6496725	exat	holiday	2022-10-09T00:00:00	17:00:00	18:00:00	37	28	1641	5400	0.30
11486	TV22 18_123  A ด่านสุขาภิบาล	13.8868189	100.6496725	exat	holiday	2022-10-09T00:00:00	18:00:00	19:00:00	32	23	715	5400	0.13
11487	TV22 18_123  A ด่านสุขาภิบาล	13.8868189	100.6496725	exat	working	2022-11-09T00:00:00	5:00:00	6:00:00	41	13	138	5400	0.03
11488	TV22 18_123  A ด่านสุขาภิบาล	13.8868189	100.6496725	exat	holiday	2022-11-09T00:00:00	6:00:00	7:00:00	30	40	418	5400	0.08
11489	TV22 18_123  A ด่านสุขาภิบาล	13.8868189	100.6496725	exat	holiday	2022-11-09T00:00:00	7:00:00	8:00:00	18	121	549	5400	0.10
11490	TV22 18_123  A ด่านสุขาภิบาล	13.8868189	100.6496725	exat	holiday	2022-11-09T00:00:00	8:00:00	9:00:00	20	121	330	5400	0.06
11491	TV22 18_123  A ด่านสุขาภิบาล	13.8868189	100.6496725	exat	working	2022-11-09T00:00:00	9:00:00	10:00:00	16	121	275	5400	0.05
11492	TV22 18_123  A ด่านสุขาภิบาล	13.8868189	100.6496725	exat	working	2022-11-09T00:00:00	10:00:00	11:00:00	16	121	230	5400	0.04
11493	TV22 18_123  A ด่านสุขาภิบาล	13.8868189	100.6496725	exat	holiday	2022-11-09T00:00:00	11:00:00	12:00:00	22	14	656	5400	0.12
11494	TV22 18_123  A ด่านสุขาภิบาล	13.8868189	100.6496725	exat	working	2022-11-09T00:00:00	12:00:00	13:00:00	19	121	308	5400	0.06
11495	TV22 18_123  A ด่านสุขาภิบาล	13.8868189	100.6496725	exat	working	2022-11-09T00:00:00	13:00:00	14:00:00	18	121	260	5400	0.05
11496	TV22 18_123  A ด่านสุขาภิบาล	13.8868189	100.6496725	exat	working	2022-11-09T00:00:00	14:00:00	15:00:00	18	121	316	5400	0.06
11497	TV22 18_123  A ด่านสุขาภิบาล	13.8868189	100.6496725	exat	working	2022-11-09T00:00:00	15:00:00	16:00:00	17	121	283	5400	0.05
11498	TV22 18_123  A ด่านสุขาภิบาล	13.8868189	100.6496725	exat	holiday	2022-11-09T00:00:00	16:00:00	17:00:00	26	23	343	5400	0.06
11499	TV22 18_123  A ด่านสุขาภิบาล	13.8868189	100.6496725	exat	holiday	2022-11-09T00:00:00	17:00:00	18:00:00	23	17	975	5400	0.18
11500	TV22 18_123  A ด่านสุขาภิบาล	13.8868189	100.6496725	exat	holiday	2022-11-09T00:00:00	18:00:00	19:00:00	19	121	452	5400	0.08
11501	CCTV11 11_800A บางเมือง-ปากน้ำ	13.8439	100.636366	exat	working	2022-05-09T00:00:00	5:00:00	6:00:00	30	39	2055	2700	0.76
11502	CCTV11 11_800A บางเมือง-ปากน้ำ	13.8439	100.636366	exat	working	2022-05-09T00:00:00	6:00:00	7:00:00	21	121	6458	2700	2.39
11503	CCTV11 11_800A บางเมือง-ปากน้ำ	13.8439	100.636366	exat	working	2022-05-09T00:00:00	7:00:00	8:00:00	27	144	4964	2700	1.84
11504	CCTV11 11_800A บางเมือง-ปากน้ำ	13.8439	100.636366	exat	working	2022-05-09T00:00:00	8:00:00	9:00:00	24	154	4060	2700	1.50
11505	CCTV11 11_800A บางเมือง-ปากน้ำ	13.8439	100.636366	exat	working	2022-05-09T00:00:00	9:00:00	10:00:00	19	121	4074	2700	1.51
11506	CCTV11 11_800A บางเมือง-ปากน้ำ	13.8439	100.636366	exat	working	2022-05-09T00:00:00	10:00:00	11:00:00	21	121	4014	2700	1.49
11507	CCTV11 11_800A บางเมือง-ปากน้ำ	13.8439	100.636366	exat	working	2022-05-09T00:00:00	11:00:00	12:00:00	21	121	750	2700	0.28
11508	CCTV11 11_800A บางเมือง-ปากน้ำ	13.8439	100.636366	exat	working	2022-05-09T00:00:00	12:00:00	13:00:00	19	121	3970	2700	1.47
11509	CCTV11 11_800A บางเมือง-ปากน้ำ	13.8439	100.636366	exat	working	2022-05-09T00:00:00	13:00:00	14:00:00	20	121	3978	2700	1.47
11510	CCTV11 11_800A บางเมือง-ปากน้ำ	13.8439	100.636366	exat	working	2022-05-09T00:00:00	14:00:00	15:00:00	23	149	3976	2700	1.47
11511	CCTV11 11_800A บางเมือง-ปากน้ำ	13.8439	100.636366	exat	working	2022-05-09T00:00:00	15:00:00	16:00:00	21	121	3946	2700	1.46
11512	CCTV11 11_800A บางเมือง-ปากน้ำ	13.8439	100.636366	exat	working	2022-05-09T00:00:00	16:00:00	17:00:00	16	121	560	2700	0.21
11513	CCTV11 11_800A บางเมือง-ปากน้ำ	13.8439	100.636366	exat	working	2022-05-09T00:00:00	18:00:00	19:00:00	21	121	350	2700	0.13
11514	CCTV11 11_800A บางเมือง-ปากน้ำ	13.8439	100.636366	exat	working	2022-06-09T00:00:00	5:00:00	6:00:00	30	40	2157	2700	0.80
11515	CCTV11 11_800A บางเมือง-ปากน้ำ	13.8439	100.636366	exat	working	2022-06-09T00:00:00	6:00:00	7:00:00	21	121	6462	2700	2.39
11516	CCTV11 11_800A บางเมือง-ปากน้ำ	13.8439	100.636366	exat	working	2022-06-09T00:00:00	7:00:00	8:00:00	14	122	3430	2700	1.27
11517	CCTV11 11_800A บางเมือง-ปากน้ำ	13.8439	100.636366	exat	working	2022-06-09T00:00:00	8:00:00	9:00:00	27	137	4153	2700	1.54
11518	CCTV11 11_800A บางเมือง-ปากน้ำ	13.8439	100.636366	exat	working	2022-06-09T00:00:00	9:00:00	10:00:00	22	135	4107	2700	1.52
11519	CCTV11 11_800A บางเมือง-ปากน้ำ	13.8439	100.636366	exat	working	2022-06-09T00:00:00	10:00:00	11:00:00	24	133	4132	2700	1.53
11520	CCTV11 11_800A บางเมือง-ปากน้ำ	13.8439	100.636366	exat	working	2022-06-09T00:00:00	11:00:00	12:00:00	21	121	558	2700	0.21
11521	CCTV11 11_800A บางเมือง-ปากน้ำ	13.8439	100.636366	exat	working	2022-06-09T00:00:00	12:00:00	13:00:00	23	134	4072	2700	1.51
11522	CCTV11 11_800A บางเมือง-ปากน้ำ	13.8439	100.636366	exat	working	2022-06-09T00:00:00	13:00:00	14:00:00	23	131	4120	2700	1.53
11523	CCTV11 11_800A บางเมือง-ปากน้ำ	13.8439	100.636366	exat	working	2022-06-09T00:00:00	14:00:00	15:00:00	23	131	4064	2700	1.51
11524	CCTV11 11_800A บางเมือง-ปากน้ำ	13.8439	100.636366	exat	working	2022-06-09T00:00:00	15:00:00	16:00:00	24	133	4076	2700	1.51
11525	CCTV11 11_800A บางเมือง-ปากน้ำ	13.8439	100.636366	exat	working	2022-06-09T00:00:00	16:00:00	17:00:00	16	121	568	2700	0.21
11526	CCTV11 11_800A บางเมือง-ปากน้ำ	13.8439	100.636366	exat	working	2022-06-09T00:00:00	17:00:00	18:00:00	21	121	571	2700	0.21
11527	CCTV11 11_800A บางเมือง-ปากน้ำ	13.8439	100.636366	exat	working	2022-06-09T00:00:00	18:00:00	19:00:00	21	121	368	2700	0.14
11528	CCTV11 11_800A บางเมือง-ปากน้ำ	13.8439	100.636366	exat	working	2022-07-09T00:00:00	5:00:00	6:00:00	29	38	2243	2700	0.83
11529	CCTV11 11_800A บางเมือง-ปากน้ำ	13.8439	100.636366	exat	working	2022-07-09T00:00:00	6:00:00	7:00:00	21	122	6480	2700	2.40
11530	CCTV11 11_800A บางเมือง-ปากน้ำ	13.8439	100.636366	exat	working	2022-07-09T00:00:00	7:00:00	8:00:00	21	121	1852	2700	0.69
11531	CCTV11 11_800A บางเมือง-ปากน้ำ	13.8439	100.636366	exat	working	2022-07-09T00:00:00	8:00:00	9:00:00	29	118	4252	2700	1.57
11532	CCTV11 11_800A บางเมือง-ปากน้ำ	13.8439	100.636366	exat	working	2022-07-09T00:00:00	9:00:00	10:00:00	25	118	4192	2700	1.55
11533	CCTV11 11_800A บางเมือง-ปากน้ำ	13.8439	100.636366	exat	working	2022-07-09T00:00:00	10:00:00	11:00:00	27	113	4242	2700	1.57
11534	CCTV11 11_800A บางเมือง-ปากน้ำ	13.8439	100.636366	exat	working	2022-07-09T00:00:00	11:00:00	12:00:00	21	121	383	2700	0.14
11535	CCTV11 11_800A บางเมือง-ปากน้ำ	13.8439	100.636366	exat	working	2022-07-09T00:00:00	12:00:00	13:00:00	27	115	4248	2700	1.57
11536	CCTV11 11_800A บางเมือง-ปากน้ำ	13.8439	100.636366	exat	working	2022-07-09T00:00:00	13:00:00	14:00:00	26	113	4227	2700	1.57
11537	CCTV11 11_800A บางเมือง-ปากน้ำ	13.8439	100.636366	exat	working	2022-07-09T00:00:00	14:00:00	15:00:00	23	113	4154	2700	1.54
11538	CCTV11 11_800A บางเมือง-ปากน้ำ	13.8439	100.636366	exat	working	2022-07-09T00:00:00	15:00:00	16:00:00	27	113	4215	2700	1.56
11539	CCTV11 11_800A บางเมือง-ปากน้ำ	13.8439	100.636366	exat	working	2022-07-09T00:00:00	16:00:00	17:00:00	16	122	541	2700	0.20
11540	CCTV11 11_800A บางเมือง-ปากน้ำ	13.8439	100.636366	exat	working	2022-07-09T00:00:00	17:00:00	18:00:00	21	121	555	2700	0.21
11541	CCTV11 11_800A บางเมือง-ปากน้ำ	13.8439	100.636366	exat	working	2022-07-09T00:00:00	18:00:00	19:00:00	21	121	368	2700	0.14
11542	CCTV11 11_800A บางเมือง-ปากน้ำ	13.8439	100.636366	exat	working	2022-08-09T00:00:00	5:00:00	6:00:00	29	37	926	2700	0.34
11543	CCTV11 11_800A บางเมือง-ปากน้ำ	13.8439	100.636366	exat	working	2022-08-09T00:00:00	6:00:00	7:00:00	21	121	2651	2700	0.98
11544	CCTV11 11_800A บางเมือง-ปากน้ำ	13.8439	100.636366	exat	working	2022-08-09T00:00:00	7:00:00	8:00:00	6	121	1117	2700	0.41
11545	CCTV11 11_800A บางเมือง-ปากน้ำ	13.8439	100.636366	exat	working	2022-08-09T00:00:00	8:00:00	9:00:00	15	122	2319	2700	0.86
11546	CCTV11 11_800A บางเมือง-ปากน้ำ	13.8439	100.636366	exat	working	2022-08-09T00:00:00	9:00:00	10:00:00	12	121	2248	2700	0.83
11547	CCTV11 11_800A บางเมือง-ปากน้ำ	13.8439	100.636366	exat	working	2022-08-09T00:00:00	10:00:00	11:00:00	13	121	2288	2700	0.85
11548	CCTV11 11_800A บางเมือง-ปากน้ำ	13.8439	100.636366	exat	working	2022-08-09T00:00:00	11:00:00	12:00:00	19	121	556	2700	0.21
11549	CCTV11 11_800A บางเมือง-ปากน้ำ	13.8439	100.636366	exat	working	2022-08-09T00:00:00	12:00:00	13:00:00	14	121	2287	2700	0.85
11550	CCTV11 11_800A บางเมือง-ปากน้ำ	13.8439	100.636366	exat	working	2022-08-09T00:00:00	13:00:00	14:00:00	13	121	2235	2700	0.83
11551	CCTV11 11_800A บางเมือง-ปากน้ำ	13.8439	100.636366	exat	working	2022-08-09T00:00:00	14:00:00	15:00:00	11	121	2217	2700	0.82
11552	CCTV11 11_800A บางเมือง-ปากน้ำ	13.8439	100.636366	exat	working	2022-08-09T00:00:00	15:00:00	16:00:00	13	121	2249	2700	0.83
11553	CCTV11 11_800A บางเมือง-ปากน้ำ	13.8439	100.636366	exat	working	2022-08-09T00:00:00	16:00:00	17:00:00	8	121	454	2700	0.17
11554	CCTV11 11_800A บางเมือง-ปากน้ำ	13.8439	100.636366	exat	working	2022-08-09T00:00:00	17:00:00	18:00:00	21	121	565	2700	0.21
11555	CCTV11 11_800A บางเมือง-ปากน้ำ	13.8439	100.636366	exat	working	2022-08-09T00:00:00	18:00:00	19:00:00	21	121	732	2700	0.27
11556	CCTV11 11_800A บางเมือง-ปากน้ำ	13.8439	100.636366	exat	working	2022-09-09T00:00:00	5:00:00	6:00:00	30	38	124	2700	0.05
11557	CCTV11 11_800A บางเมือง-ปากน้ำ	13.8439	100.636366	exat	working	2022-09-09T00:00:00	6:00:00	7:00:00	21	121	368	2700	0.14
11558	CCTV11 11_800A บางเมือง-ปากน้ำ	13.8439	100.636366	exat	working	2022-09-09T00:00:00	7:00:00	8:00:00	11	121	373	2700	0.14
11559	CCTV11 11_800A บางเมือง-ปากน้ำ	13.8439	100.636366	exat	working	2022-09-09T00:00:00	8:00:00	9:00:00	21	121	373	2700	0.14
11560	CCTV11 11_800A บางเมือง-ปากน้ำ	13.8439	100.636366	exat	working	2022-09-09T00:00:00	9:00:00	10:00:00	21	121	266	2700	0.10
11561	CCTV11 11_800A บางเมือง-ปากน้ำ	13.8439	100.636366	exat	working	2022-09-09T00:00:00	10:00:00	11:00:00	21	121	314	2700	0.12
11562	CCTV11 11_800A บางเมือง-ปากน้ำ	13.8439	100.636366	exat	working	2022-09-09T00:00:00	11:00:00	12:00:00	37	28	729	2700	0.27
11563	CCTV11 11_800A บางเมือง-ปากน้ำ	13.8439	100.636366	exat	working	2022-09-09T00:00:00	12:00:00	13:00:00	0	122	304	2700	0.11
11564	CCTV11 11_800A บางเมือง-ปากน้ำ	13.8439	100.636366	exat	working	2022-09-09T00:00:00	13:00:00	14:00:00	21	122	296	2700	0.11
11565	CCTV11 11_800A บางเมือง-ปากน้ำ	13.8439	100.636366	exat	working	2022-09-09T00:00:00	14:00:00	15:00:00	21	122	288	2700	0.11
11566	CCTV11 11_800A บางเมือง-ปากน้ำ	13.8439	100.636366	exat	working	2022-09-09T00:00:00	15:00:00	16:00:00	21	121	325	2700	0.12
11567	CCTV11 11_800A บางเมือง-ปากน้ำ	13.8439	100.636366	exat	working	2022-09-09T00:00:00	16:00:00	17:00:00	21	121	380	2700	0.14
11568	CCTV11 11_800A บางเมือง-ปากน้ำ	13.8439	100.636366	exat	working	2022-09-09T00:00:00	17:00:00	18:00:00	21	121	568	2700	0.21
11569	CCTV11 11_800A บางเมือง-ปากน้ำ	13.8439	100.636366	exat	working	2022-09-09T00:00:00	18:00:00	19:00:00	21	121	1109	2700	0.41
11570	CCTV11 11_800A บางเมือง-ปากน้ำ	13.8439	100.636366	exat	working	2022-10-09T00:00:00	5:00:00	6:00:00	29	39	113	2700	0.04
11571	CCTV11 11_800A บางเมือง-ปากน้ำ	13.8439	100.636366	exat	holiday	2022-10-09T00:00:00	6:00:00	7:00:00	21	121	325	2700	0.12
11572	CCTV11 11_800A บางเมือง-ปากน้ำ	13.8439	100.636366	exat	holiday	2022-10-09T00:00:00	7:00:00	8:00:00	21	121	370	2700	0.14
11573	CCTV11 11_800A บางเมือง-ปากน้ำ	13.8439	100.636366	exat	holiday	2022-10-09T00:00:00	8:00:00	9:00:00	21	121	1094	2700	0.41
11574	CCTV11 11_800A บางเมือง-ปากน้ำ	13.8439	100.636366	exat	working	2022-10-09T00:00:00	9:00:00	10:00:00	21	121	972	2700	0.36
11575	CCTV11 11_800A บางเมือง-ปากน้ำ	13.8439	100.636366	exat	working	2022-10-09T00:00:00	10:00:00	11:00:00	21	121	1005	2700	0.37
11576	CCTV11 11_800A บางเมือง-ปากน้ำ	13.8439	100.636366	exat	holiday	2022-10-09T00:00:00	11:00:00	12:00:00	21	121	724	2700	0.27
11577	CCTV11 11_800A บางเมือง-ปากน้ำ	13.8439	100.636366	exat	working	2022-10-09T00:00:00	12:00:00	13:00:00	21	121	1035	2700	0.38
11578	CCTV11 11_800A บางเมือง-ปากน้ำ	13.8439	100.636366	exat	working	2022-10-09T00:00:00	13:00:00	14:00:00	21	121	1013	2700	0.38
11579	CCTV11 11_800A บางเมือง-ปากน้ำ	13.8439	100.636366	exat	working	2022-10-09T00:00:00	14:00:00	15:00:00	21	121	991	2700	0.37
11580	CCTV11 11_800A บางเมือง-ปากน้ำ	13.8439	100.636366	exat	working	2022-10-09T00:00:00	15:00:00	16:00:00	21	121	1049	2700	0.39
11581	CCTV11 11_800A บางเมือง-ปากน้ำ	13.8439	100.636366	exat	holiday	2022-10-09T00:00:00	16:00:00	17:00:00	21	121	757	2700	0.28
11582	CCTV11 11_800A บางเมือง-ปากน้ำ	13.8439	100.636366	exat	holiday	2022-10-09T00:00:00	17:00:00	18:00:00	37	32	368	2700	0.14
11583	CCTV11 11_800A บางเมือง-ปากน้ำ	13.8439	100.636366	exat	holiday	2022-10-09T00:00:00	18:00:00	19:00:00	31	31	1830	2700	0.68
11584	CCTV11 11_800A บางเมือง-ปากน้ำ	13.8439	100.636366	exat	working	2022-11-09T00:00:00	5:00:00	6:00:00	29	40	73	2700	0.03
11585	CCTV11 11_800A บางเมือง-ปากน้ำ	13.8439	100.636366	exat	holiday	2022-11-09T00:00:00	6:00:00	7:00:00	21	121	216	2700	0.08
11586	CCTV11 11_800A บางเมือง-ปากน้ำ	13.8439	100.636366	exat	holiday	2022-11-09T00:00:00	7:00:00	8:00:00	21	121	241	2700	0.09
11587	CCTV11 11_800A บางเมือง-ปากน้ำ	13.8439	100.636366	exat	holiday	2022-11-09T00:00:00	8:00:00	9:00:00	21	121	655	2700	0.24
11588	CCTV11 11_800A บางเมือง-ปากน้ำ	13.8439	100.636366	exat	working	2022-11-09T00:00:00	9:00:00	10:00:00	21	121	577	2700	0.21
11589	CCTV11 11_800A บางเมือง-ปากน้ำ	13.8439	100.636366	exat	working	2022-11-09T00:00:00	10:00:00	11:00:00	21	121	593	2700	0.22
11590	CCTV11 11_800A บางเมือง-ปากน้ำ	13.8439	100.636366	exat	holiday	2022-11-09T00:00:00	11:00:00	12:00:00	21	122	457	2700	0.17
11591	CCTV11 11_800A บางเมือง-ปากน้ำ	13.8439	100.636366	exat	working	2022-11-09T00:00:00	12:00:00	13:00:00	21	121	624	2700	0.23
11592	CCTV11 11_800A บางเมือง-ปากน้ำ	13.8439	100.636366	exat	working	2022-11-09T00:00:00	13:00:00	14:00:00	21	122	612	2700	0.23
11593	CCTV11 11_800A บางเมือง-ปากน้ำ	13.8439	100.636366	exat	working	2022-11-09T00:00:00	14:00:00	15:00:00	21	121	615	2700	0.23
11594	CCTV11 11_800A บางเมือง-ปากน้ำ	13.8439	100.636366	exat	working	2022-11-09T00:00:00	15:00:00	16:00:00	21	121	620	2700	0.23
11595	CCTV11 11_800A บางเมือง-ปากน้ำ	13.8439	100.636366	exat	holiday	2022-11-09T00:00:00	16:00:00	17:00:00	21	121	446	2700	0.17
11596	CCTV11 11_800A บางเมือง-ปากน้ำ	13.8439	100.636366	exat	holiday	2022-11-09T00:00:00	17:00:00	18:00:00	22	19	240	2700	0.09
11597	CCTV11 11_800A บางเมือง-ปากน้ำ	13.8439	100.636366	exat	holiday	2022-11-09T00:00:00	18:00:00	19:00:00	19	122	1094	2700	0.41
11598	CCTV15 15_950A ปากน้ำ-สะพานกาญจนา	13.6290971	100.5875437	exat	working	2022-05-09T00:00:00	5:00:00	6:00:00	72	15	462	2700	0.17
11599	CCTV15 15_950A ปากน้ำ-สะพานกาญจนา	13.6290971	100.5875437	exat	working	2022-05-09T00:00:00	6:00:00	7:00:00	52	42	1448	2700	0.54
11600	CCTV15 15_950A ปากน้ำ-สะพานกาญจนา	13.6290971	100.5875437	exat	working	2022-05-09T00:00:00	7:00:00	8:00:00	58	29	1613	2700	0.60
11601	CCTV15 15_950A ปากน้ำ-สะพานกาญจนา	13.6290971	100.5875437	exat	working	2022-05-09T00:00:00	8:00:00	9:00:00	53	32	1649	2700	0.61
11602	CCTV15 15_950A ปากน้ำ-สะพานกาญจนา	13.6290971	100.5875437	exat	working	2022-05-09T00:00:00	9:00:00	10:00:00	51	28	1575	2700	0.58
11603	CCTV15 15_950A ปากน้ำ-สะพานกาญจนา	13.6290971	100.5875437	exat	working	2022-05-09T00:00:00	10:00:00	11:00:00	50	31	1624	2700	0.60
11604	CCTV15 15_950A ปากน้ำ-สะพานกาญจนา	13.6290971	100.5875437	exat	working	2022-05-09T00:00:00	11:00:00	12:00:00	78	30	1805	2700	0.67
11605	CCTV15 15_950A ปากน้ำ-สะพานกาญจนา	13.6290971	100.5875437	exat	working	2022-05-09T00:00:00	12:00:00	13:00:00	51	30	1609	2700	0.60
11606	CCTV15 15_950A ปากน้ำ-สะพานกาญจนา	13.6290971	100.5875437	exat	working	2022-05-09T00:00:00	13:00:00	14:00:00	51	30	1591	2700	0.59
11607	CCTV15 15_950A ปากน้ำ-สะพานกาญจนา	13.6290971	100.5875437	exat	working	2022-05-09T00:00:00	14:00:00	15:00:00	52	30	1512	2700	0.56
11608	CCTV15 15_950A ปากน้ำ-สะพานกาญจนา	13.6290971	100.5875437	exat	working	2022-05-09T00:00:00	15:00:00	16:00:00	48	31	1532	2700	0.57
11609	CCTV15 15_950A ปากน้ำ-สะพานกาญจนา	13.6290971	100.5875437	exat	working	2022-05-09T00:00:00	16:00:00	17:00:00	69	26	1277	2700	0.47
11610	CCTV15 15_950A ปากน้ำ-สะพานกาญจนา	13.6290971	100.5875437	exat	working	2022-05-09T00:00:00	17:00:00	18:00:00	78	30	1810	2700	0.67
11611	CCTV15 15_950A ปากน้ำ-สะพานกาญจนา	13.6290971	100.5875437	exat	working	2022-05-09T00:00:00	18:00:00	19:00:00	78	26	543	2700	0.20
11612	CCTV15 15_950A ปากน้ำ-สะพานกาญจนา	13.6290971	100.5875437	exat	working	2022-06-09T00:00:00	5:00:00	6:00:00	82	11	472	2700	0.17
11613	CCTV15 15_950A ปากน้ำ-สะพานกาญจนา	13.6290971	100.5875437	exat	working	2022-06-09T00:00:00	6:00:00	7:00:00	58	34	1442	2700	0.53
11614	CCTV15 15_950A ปากน้ำ-สะพานกาญจนา	13.6290971	100.5875437	exat	working	2022-06-09T00:00:00	7:00:00	8:00:00	61	39	1540	2700	0.57
11615	CCTV15 15_950A ปากน้ำ-สะพานกาญจนา	13.6290971	100.5875437	exat	working	2022-06-09T00:00:00	8:00:00	9:00:00	65	28	1355	2700	0.50
11616	CCTV15 15_950A ปากน้ำ-สะพานกาญจนา	13.6290971	100.5875437	exat	working	2022-06-09T00:00:00	9:00:00	10:00:00	64	25	1245	2700	0.46
11617	CCTV15 15_950A ปากน้ำ-สะพานกาญจนา	13.6290971	100.5875437	exat	working	2022-06-09T00:00:00	10:00:00	11:00:00	63	26	1321	2700	0.49
11618	CCTV15 15_950A ปากน้ำ-สะพานกาญจนา	13.6290971	100.5875437	exat	working	2022-06-09T00:00:00	11:00:00	12:00:00	69	26	1359	2700	0.50
11619	CCTV15 15_950A ปากน้ำ-สะพานกาญจนา	13.6290971	100.5875437	exat	working	2022-06-09T00:00:00	12:00:00	13:00:00	63	27	1336	2700	0.49
11620	CCTV15 15_950A ปากน้ำ-สะพานกาญจนา	13.6290971	100.5875437	exat	working	2022-06-09T00:00:00	13:00:00	14:00:00	62	25	1298	2700	0.48
11621	CCTV15 15_950A ปากน้ำ-สะพานกาญจนา	13.6290971	100.5875437	exat	working	2022-06-09T00:00:00	14:00:00	15:00:00	63	26	1310	2700	0.49
11622	CCTV15 15_950A ปากน้ำ-สะพานกาญจนา	13.6290971	100.5875437	exat	working	2022-06-09T00:00:00	15:00:00	16:00:00	62	25	1302	2700	0.48
11623	CCTV15 15_950A ปากน้ำ-สะพานกาญจนา	13.6290971	100.5875437	exat	working	2022-06-09T00:00:00	16:00:00	17:00:00	66	23	1083	2700	0.40
11624	CCTV15 15_950A ปากน้ำ-สะพานกาญจนา	13.6290971	100.5875437	exat	working	2022-06-09T00:00:00	17:00:00	18:00:00	74	23	1183	2700	0.44
11625	CCTV15 15_950A ปากน้ำ-สะพานกาญจนา	13.6290971	100.5875437	exat	working	2022-06-09T00:00:00	18:00:00	19:00:00	69	26	723	2700	0.27
11626	CCTV15 15_950A ปากน้ำ-สะพานกาญจนา	13.6290971	100.5875437	exat	working	2022-07-09T00:00:00	5:00:00	6:00:00	92	9	440	2700	0.16
11627	CCTV15 15_950A ปากน้ำ-สะพานกาญจนา	13.6290971	100.5875437	exat	working	2022-07-09T00:00:00	6:00:00	7:00:00	64	25	1458	2700	0.54
11628	CCTV15 15_950A ปากน้ำ-สะพานกาญจนา	13.6290971	100.5875437	exat	working	2022-07-09T00:00:00	7:00:00	8:00:00	65	48	1419	2700	0.53
11629	CCTV15 15_950A ปากน้ำ-สะพานกาญจนา	13.6290971	100.5875437	exat	working	2022-07-09T00:00:00	8:00:00	9:00:00	77	24	1104	2700	0.41
11630	CCTV15 15_950A ปากน้ำ-สะพานกาญจนา	13.6290971	100.5875437	exat	working	2022-07-09T00:00:00	9:00:00	10:00:00	76	22	973	2700	0.36
11631	CCTV15 15_950A ปากน้ำ-สะพานกาญจนา	13.6290971	100.5875437	exat	working	2022-07-09T00:00:00	10:00:00	11:00:00	76	21	1045	2700	0.39
11632	CCTV15 15_950A ปากน้ำ-สะพานกาญจนา	13.6290971	100.5875437	exat	working	2022-07-09T00:00:00	11:00:00	12:00:00	59	22	911	2700	0.34
11633	CCTV15 15_950A ปากน้ำ-สะพานกาญจนา	13.6290971	100.5875437	exat	working	2022-07-09T00:00:00	12:00:00	13:00:00	76	23	1079	2700	0.40
11634	CCTV15 15_950A ปากน้ำ-สะพานกาญจนา	13.6290971	100.5875437	exat	working	2022-07-09T00:00:00	13:00:00	14:00:00	74	20	1000	2700	0.37
11635	CCTV15 15_950A ปากน้ำ-สะพานกาญจนา	13.6290971	100.5875437	exat	working	2022-07-09T00:00:00	14:00:00	15:00:00	74	22	1104	2700	0.41
11636	CCTV15 15_950A ปากน้ำ-สะพานกาญจนา	13.6290971	100.5875437	exat	working	2022-07-09T00:00:00	15:00:00	16:00:00	76	19	1092	2700	0.40
11637	CCTV15 15_950A ปากน้ำ-สะพานกาญจนา	13.6290971	100.5875437	exat	working	2022-07-09T00:00:00	16:00:00	17:00:00	63	20	925	2700	0.34
11638	CCTV15 15_950A ปากน้ำ-สะพานกาญจนา	13.6290971	100.5875437	exat	working	2022-07-09T00:00:00	17:00:00	18:00:00	69	17	558	2700	0.21
11639	CCTV15 15_950A ปากน้ำ-สะพานกาญจนา	13.6290971	100.5875437	exat	working	2022-07-09T00:00:00	18:00:00	19:00:00	60	27	892	2700	0.33
11640	CCTV15 15_950A ปากน้ำ-สะพานกาญจนา	13.6290971	100.5875437	exat	working	2022-08-09T00:00:00	5:00:00	6:00:00	85	10	390	2700	0.14
11641	CCTV15 15_950A ปากน้ำ-สะพานกาญจนา	13.6290971	100.5875437	exat	working	2022-08-09T00:00:00	6:00:00	7:00:00	60	28	1183	2700	0.44
11642	CCTV15 15_950A ปากน้ำ-สะพานกาญจนา	13.6290971	100.5875437	exat	working	2022-08-09T00:00:00	7:00:00	8:00:00	66	38	1656	2700	0.61
11643	CCTV15 15_950A ปากน้ำ-สะพานกาญจนา	13.6290971	100.5875437	exat	working	2022-08-09T00:00:00	8:00:00	9:00:00	75	30	996	2700	0.37
11644	CCTV15 15_950A ปากน้ำ-สะพานกาญจนา	13.6290971	100.5875437	exat	working	2022-08-09T00:00:00	9:00:00	10:00:00	74	26	870	2700	0.32
11645	CCTV15 15_950A ปากน้ำ-สะพานกาญจนา	13.6290971	100.5875437	exat	working	2022-08-09T00:00:00	10:00:00	11:00:00	72	27	970	2700	0.36
11646	CCTV15 15_950A ปากน้ำ-สะพานกาญจนา	13.6290971	100.5875437	exat	working	2022-08-09T00:00:00	11:00:00	12:00:00	61	22	912	2700	0.34
11647	CCTV15 15_950A ปากน้ำ-สะพานกาญจนา	13.6290971	100.5875437	exat	working	2022-08-09T00:00:00	12:00:00	13:00:00	72	28	953	2700	0.35
11648	CCTV15 15_950A ปากน้ำ-สะพานกาญจนา	13.6290971	100.5875437	exat	working	2022-08-09T00:00:00	13:00:00	14:00:00	72	26	888	2700	0.33
11649	CCTV15 15_950A ปากน้ำ-สะพานกาญจนา	13.6290971	100.5875437	exat	working	2022-08-09T00:00:00	14:00:00	15:00:00	72	27	942	2700	0.35
11650	CCTV15 15_950A ปากน้ำ-สะพานกาญจนา	13.6290971	100.5875437	exat	working	2022-08-09T00:00:00	15:00:00	16:00:00	72	26	962	2700	0.36
11651	CCTV15 15_950A ปากน้ำ-สะพานกาญจนา	13.6290971	100.5875437	exat	working	2022-08-09T00:00:00	16:00:00	17:00:00	64	20	1000	2700	0.37
11652	CCTV15 15_950A ปากน้ำ-สะพานกาญจนา	13.6290971	100.5875437	exat	working	2022-08-09T00:00:00	17:00:00	18:00:00	65	22	1019	2700	0.38
11653	CCTV15 15_950A ปากน้ำ-สะพานกาญจนา	13.6290971	100.5875437	exat	working	2022-08-09T00:00:00	18:00:00	19:00:00	65	23	1091	2700	0.40
11654	CCTV15 15_950A ปากน้ำ-สะพานกาญจนา	13.6290971	100.5875437	exat	working	2022-09-09T00:00:00	5:00:00	6:00:00	79	11	291	2700	0.11
11655	CCTV15 15_950A ปากน้ำ-สะพานกาญจนา	13.6290971	100.5875437	exat	working	2022-09-09T00:00:00	6:00:00	7:00:00	56	31	908	2700	0.34
11656	CCTV15 15_950A ปากน้ำ-สะพานกาญจนา	13.6290971	100.5875437	exat	working	2022-09-09T00:00:00	7:00:00	8:00:00	67	28	1818	2700	0.67
11657	CCTV15 15_950A ปากน้ำ-สะพานกาญจนา	13.6290971	100.5875437	exat	working	2022-09-09T00:00:00	8:00:00	9:00:00	73	36	906	2700	0.34
11658	CCTV15 15_950A ปากน้ำ-สะพานกาญจนา	13.6290971	100.5875437	exat	working	2022-09-09T00:00:00	9:00:00	10:00:00	71	31	765	2700	0.28
11659	CCTV15 15_950A ปากน้ำ-สะพานกาญจนา	13.6290971	100.5875437	exat	working	2022-09-09T00:00:00	10:00:00	11:00:00	69	33	890	2700	0.33
11660	CCTV15 15_950A ปากน้ำ-สะพานกาญจนา	13.6290971	100.5875437	exat	working	2022-09-09T00:00:00	11:00:00	12:00:00	63	22	897	2700	0.33
11661	CCTV15 15_950A ปากน้ำ-สะพานกาญจนา	13.6290971	100.5875437	exat	working	2022-09-09T00:00:00	12:00:00	13:00:00	68	33	805	2700	0.30
11662	CCTV15 15_950A ปากน้ำ-สะพานกาญจนา	13.6290971	100.5875437	exat	working	2022-09-09T00:00:00	13:00:00	14:00:00	70	33	807	2700	0.30
11663	CCTV15 15_950A ปากน้ำ-สะพานกาญจนา	13.6290971	100.5875437	exat	working	2022-09-09T00:00:00	14:00:00	15:00:00	70	33	804	2700	0.30
11664	CCTV15 15_950A ปากน้ำ-สะพานกาญจนา	13.6290971	100.5875437	exat	working	2022-09-09T00:00:00	15:00:00	16:00:00	68	33	821	2700	0.30
11665	CCTV15 15_950A ปากน้ำ-สะพานกาญจนา	13.6290971	100.5875437	exat	working	2022-09-09T00:00:00	16:00:00	17:00:00	65	19	1102	2700	0.41
11666	CCTV15 15_950A ปากน้ำ-สะพานกาญจนา	13.6290971	100.5875437	exat	working	2022-09-09T00:00:00	17:00:00	18:00:00	60	26	1454	2700	0.54
11667	CCTV15 15_950A ปากน้ำ-สะพานกาญจนา	13.6290971	100.5875437	exat	working	2022-09-09T00:00:00	18:00:00	19:00:00	70	20	1288	2700	0.48
11668	CCTV15 15_950A ปากน้ำ-สะพานกาญจนา	13.6290971	100.5875437	exat	working	2022-10-09T00:00:00	5:00:00	6:00:00	82	8	219	2700	0.08
11669	CCTV15 15_950A ปากน้ำ-สะพานกาญจนา	13.6290971	100.5875437	exat	holiday	2022-10-09T00:00:00	6:00:00	7:00:00	59	24	729	2700	0.27
11670	CCTV15 15_950A ปากน้ำ-สะพานกาญจนา	13.6290971	100.5875437	exat	holiday	2022-10-09T00:00:00	7:00:00	8:00:00	57	27	1090	2700	0.40
11671	CCTV15 15_950A ปากน้ำ-สะพานกาญจนา	13.6290971	100.5875437	exat	holiday	2022-10-09T00:00:00	8:00:00	9:00:00	62	18	1274	2700	0.47
11672	CCTV15 15_950A ปากน้ำ-สะพานกาญจนา	13.6290971	100.5875437	exat	working	2022-10-09T00:00:00	9:00:00	10:00:00	61	16	1218	2700	0.45
11673	CCTV15 15_950A ปากน้ำ-สะพานกาญจนา	13.6290971	100.5875437	exat	working	2022-10-09T00:00:00	10:00:00	11:00:00	58	15	1138	2700	0.42
11674	CCTV15 15_950A ปากน้ำ-สะพานกาญจนา	13.6290971	100.5875437	exat	working	2022-10-09T00:00:00	11:00:00	12:00:00	63	22	910	2700	0.34
11675	CCTV15 15_950A ปากน้ำ-สะพานกาญจนา	13.6290971	100.5875437	exat	working	2022-10-09T00:00:00	12:00:00	13:00:00	59	16	1225	2700	0.45
11676	CCTV15 15_950A ปากน้ำ-สะพานกาญจนา	13.6290971	100.5875437	exat	working	2022-10-09T00:00:00	13:00:00	14:00:00	59	17	1171	2700	0.43
11677	CCTV15 15_950A ปากน้ำ-สะพานกาญจนา	13.6290971	100.5875437	exat	working	2022-10-09T00:00:00	14:00:00	15:00:00	60	13	1228	2700	0.45
11678	CCTV15 15_950A ปากน้ำ-สะพานกาญจนา	13.6290971	100.5875437	exat	working	2022-10-09T00:00:00	15:00:00	16:00:00	59	13	1153	2700	0.43
11679	CCTV15 15_950A ปากน้ำ-สะพานกาญจนา	13.6290971	100.5875437	exat	holiday	2022-10-09T00:00:00	16:00:00	17:00:00	65	21	1651	2700	0.61
11680	CCTV15 15_950A ปากน้ำ-สะพานกาญจนา	13.6290971	100.5875437	exat	holiday	2022-10-09T00:00:00	17:00:00	18:00:00	76	51	2893	2700	1.07
11681	CCTV15 15_950A ปากน้ำ-สะพานกาญจนา	13.6290971	100.5875437	exat	holiday	2022-10-09T00:00:00	18:00:00	19:00:00	56	27	1449	2700	0.54
11682	CCTV15 15_950A ปากน้ำ-สะพานกาญจนา	13.6290971	100.5875437	exat	working	2022-11-09T00:00:00	5:00:00	6:00:00	51	5	138	2700	0.05
11683	CCTV15 15_950A ปากน้ำ-สะพานกาญจนา	13.6290971	100.5875437	exat	holiday	2022-11-09T00:00:00	6:00:00	7:00:00	36	15	433	2700	0.16
11684	CCTV15 15_950A ปากน้ำ-สะพานกาญจนา	13.6290971	100.5875437	exat	holiday	2022-11-09T00:00:00	7:00:00	8:00:00	34	16	666	2700	0.25
11685	CCTV15 15_950A ปากน้ำ-สะพานกาญจนา	13.6290971	100.5875437	exat	holiday	2022-11-09T00:00:00	8:00:00	9:00:00	38	11	757	2700	0.28
11686	CCTV15 15_950A ปากน้ำ-สะพานกาญจนา	13.6290971	100.5875437	exat	working	2022-11-09T00:00:00	9:00:00	10:00:00	37	10	730	2700	0.27
11687	CCTV15 15_950A ปากน้ำ-สะพานกาญจนา	13.6290971	100.5875437	exat	working	2022-11-09T00:00:00	10:00:00	11:00:00	35	9	678	2700	0.25
11688	CCTV15 15_950A ปากน้ำ-สะพานกาญจนา	13.6290971	100.5875437	exat	working	2022-11-09T00:00:00	11:00:00	12:00:00	38	13	545	2700	0.20
11689	CCTV15 15_950A ปากน้ำ-สะพานกาญจนา	13.6290971	100.5875437	exat	working	2022-11-09T00:00:00	12:00:00	13:00:00	36	10	727	2700	0.27
11690	CCTV15 15_950A ปากน้ำ-สะพานกาญจนา	13.6290971	100.5875437	exat	working	2022-11-09T00:00:00	13:00:00	14:00:00	36	11	704	2700	0.26
11691	CCTV15 15_950A ปากน้ำ-สะพานกาญจนา	13.6290971	100.5875437	exat	working	2022-11-09T00:00:00	14:00:00	15:00:00	36	8	748	2700	0.28
11692	CCTV15 15_950A ปากน้ำ-สะพานกาญจนา	13.6290971	100.5875437	exat	working	2022-11-09T00:00:00	15:00:00	16:00:00	36	8	697	2700	0.26
11693	CCTV15 15_950A ปากน้ำ-สะพานกาญจนา	13.6290971	100.5875437	exat	holiday	2022-11-09T00:00:00	16:00:00	17:00:00	39	13	985	2700	0.36
11694	CCTV15 15_950A ปากน้ำ-สะพานกาญจนา	13.6290971	100.5875437	exat	holiday	2022-11-09T00:00:00	17:00:00	18:00:00	46	31	1731	2700	0.64
11695	CCTV15 15_950A ปากน้ำ-สะพานกาญจนา	13.6290971	100.5875437	exat	holiday	2022-11-09T00:00:00	18:00:00	19:00:00	34	17	868	2700	0.32
11696	CCTV16 17_000A ปากน้ำ-สะพานกาญจนา	13.6214183	100.5093979	exat	working	2022-05-09T00:00:00	5:00:00	6:00:00	130	9	168	2700	0.06
11697	CCTV16 17_000A ปากน้ำ-สะพานกาญจนา	13.6214183	100.5093979	exat	working	2022-05-09T00:00:00	6:00:00	7:00:00	91	26	543	2700	0.20
11698	CCTV16 17_000A ปากน้ำ-สะพานกาญจนา	13.6214183	100.5093979	exat	working	2022-05-09T00:00:00	7:00:00	8:00:00	91	18	1269	2700	0.47
11699	CCTV16 17_000A ปากน้ำ-สะพานกาญจนา	13.6214183	100.5093979	exat	working	2022-05-09T00:00:00	8:00:00	9:00:00	91	20	1819	2700	0.67
11700	CCTV16 17_000A ปากน้ำ-สะพานกาญจนา	13.6214183	100.5093979	exat	working	2022-05-09T00:00:00	9:00:00	10:00:00	90	13	1741	2700	0.64
11701	CCTV16 17_000A ปากน้ำ-สะพานกาญจนา	13.6214183	100.5093979	exat	working	2022-05-09T00:00:00	10:00:00	11:00:00	90	14	1805	2700	0.67
11702	CCTV16 17_000A ปากน้ำ-สะพานกาญจนา	13.6214183	100.5093979	exat	working	2022-05-09T00:00:00	11:00:00	12:00:00	15	121	1817	2700	0.67
11703	CCTV16 17_000A ปากน้ำ-สะพานกาญจนา	13.6214183	100.5093979	exat	working	2022-05-09T00:00:00	12:00:00	13:00:00	86	17	1732	2700	0.64
11704	CCTV16 17_000A ปากน้ำ-สะพานกาญจนา	13.6214183	100.5093979	exat	working	2022-05-09T00:00:00	13:00:00	14:00:00	85	21	1863	2700	0.69
11705	CCTV16 17_000A ปากน้ำ-สะพานกาญจนา	13.6214183	100.5093979	exat	working	2022-05-09T00:00:00	14:00:00	15:00:00	89	18	1701	2700	0.63
11706	CCTV16 17_000A ปากน้ำ-สะพานกาญจนา	13.6214183	100.5093979	exat	working	2022-05-09T00:00:00	15:00:00	16:00:00	88	18	1705	2700	0.63
11707	CCTV16 17_000A ปากน้ำ-สะพานกาญจนา	13.6214183	100.5093979	exat	working	2022-05-09T00:00:00	16:00:00	17:00:00	91	41	706	2700	0.26
11708	CCTV16 17_000A ปากน้ำ-สะพานกาญจนา	13.6214183	100.5093979	exat	working	2022-05-09T00:00:00	17:00:00	18:00:00	91	21	359	2700	0.13
11709	CCTV16 17_000A ปากน้ำ-สะพานกาญจนา	13.6214183	100.5093979	exat	working	2022-05-09T00:00:00	18:00:00	19:00:00	21	121	1450	2700	0.54
11710	CCTV16 17_000A ปากน้ำ-สะพานกาญจนา	13.6214183	100.5093979	exat	working	2022-06-09T00:00:00	5:00:00	6:00:00	130	8	224	2700	0.08
11711	CCTV16 17_000A ปากน้ำ-สะพานกาญจนา	13.6214183	100.5093979	exat	working	2022-06-09T00:00:00	6:00:00	7:00:00	91	23	651	2700	0.24
11712	CCTV16 17_000A ปากน้ำ-สะพานกาญจนา	13.6214183	100.5093979	exat	working	2022-06-09T00:00:00	7:00:00	8:00:00	91	18	1277	2700	0.47
11713	CCTV16 17_000A ปากน้ำ-สะพานกาญจนา	13.6214183	100.5093979	exat	working	2022-06-09T00:00:00	8:00:00	9:00:00	91	18	1101	2700	0.41
11714	CCTV16 17_000A ปากน้ำ-สะพานกาญจนา	13.6214183	100.5093979	exat	working	2022-06-09T00:00:00	9:00:00	10:00:00	89	16	990	2700	0.37
11715	CCTV16 17_000A ปากน้ำ-สะพานกาญจนา	13.6214183	100.5093979	exat	working	2022-06-09T00:00:00	10:00:00	11:00:00	89	14	1017	2700	0.38
11716	CCTV16 17_000A ปากน้ำ-สะพานกาญจนา	13.6214183	100.5093979	exat	working	2022-06-09T00:00:00	11:00:00	12:00:00	53	106	1536	2700	0.57
11717	CCTV16 17_000A ปากน้ำ-สะพานกาญจนา	13.6214183	100.5093979	exat	working	2022-06-09T00:00:00	12:00:00	13:00:00	88	16	1022	2700	0.38
11718	CCTV16 17_000A ปากน้ำ-สะพานกาญจนา	13.6214183	100.5093979	exat	working	2022-06-09T00:00:00	13:00:00	14:00:00	88	16	1092	2700	0.40
11719	CCTV16 17_000A ปากน้ำ-สะพานกาญจนา	13.6214183	100.5093979	exat	working	2022-06-09T00:00:00	14:00:00	15:00:00	89	16	967	2700	0.36
11720	CCTV16 17_000A ปากน้ำ-สะพานกาญจนา	13.6214183	100.5093979	exat	working	2022-06-09T00:00:00	15:00:00	16:00:00	89	16	1003	2700	0.37
11721	CCTV16 17_000A ปากน้ำ-สะพานกาญจนา	13.6214183	100.5093979	exat	working	2022-06-09T00:00:00	16:00:00	17:00:00	91	33	1276	2700	0.47
11722	CCTV16 17_000A ปากน้ำ-สะพานกาญจนา	13.6214183	100.5093979	exat	working	2022-06-09T00:00:00	17:00:00	18:00:00	91	21	885	2700	0.33
11723	CCTV16 17_000A ปากน้ำ-สะพานกาญจนา	13.6214183	100.5093979	exat	working	2022-06-09T00:00:00	18:00:00	19:00:00	46	30	1487	2700	0.55
11724	CCTV16 17_000A ปากน้ำ-สะพานกาญจนา	13.6214183	100.5093979	exat	working	2022-07-09T00:00:00	5:00:00	6:00:00	128	7	238	2700	0.09
11725	CCTV16 17_000A ปากน้ำ-สะพานกาญจนา	13.6214183	100.5093979	exat	working	2022-07-09T00:00:00	6:00:00	7:00:00	91	21	716	2700	0.27
11726	CCTV16 17_000A ปากน้ำ-สะพานกาญจนา	13.6214183	100.5093979	exat	working	2022-07-09T00:00:00	8:00:00	9:00:00	91	17	365	2700	0.14
11727	CCTV16 17_000A ปากน้ำ-สะพานกาญจนา	13.6214183	100.5093979	exat	working	2022-07-09T00:00:00	9:00:00	10:00:00	87	12	339	2700	0.13
11728	CCTV16 17_000A ปากน้ำ-สะพานกาญจนา	13.6214183	100.5093979	exat	working	2022-07-09T00:00:00	10:00:00	11:00:00	88	14	239	2700	0.09
11729	CCTV16 17_000A ปากน้ำ-สะพานกาญจนา	13.6214183	100.5093979	exat	working	2022-07-09T00:00:00	11:00:00	12:00:00	91	31	1269	2700	0.47
11730	CCTV16 17_000A ปากน้ำ-สะพานกาญจนา	13.6214183	100.5093979	exat	working	2022-07-09T00:00:00	12:00:00	13:00:00	90	15	298	2700	0.11
11731	CCTV16 17_000A ปากน้ำ-สะพานกาญจนา	13.6214183	100.5093979	exat	working	2022-07-09T00:00:00	13:00:00	14:00:00	90	12	313	2700	0.12
11732	CCTV16 17_000A ปากน้ำ-สะพานกาญจนา	13.6214183	100.5093979	exat	working	2022-07-09T00:00:00	14:00:00	15:00:00	88	14	235	2700	0.09
11733	CCTV16 17_000A ปากน้ำ-สะพานกาญจนา	13.6214183	100.5093979	exat	working	2022-07-09T00:00:00	15:00:00	16:00:00	90	15	291	2700	0.11
11734	CCTV16 17_000A ปากน้ำ-สะพานกาญจนา	13.6214183	100.5093979	exat	working	2022-07-09T00:00:00	16:00:00	17:00:00	91	25	1818	2700	0.67
11735	CCTV16 17_000A ปากน้ำ-สะพานกาญจนา	13.6214183	100.5093979	exat	working	2022-07-09T00:00:00	17:00:00	18:00:00	91	21	1467	2700	0.54
11736	CCTV16 17_000A ปากน้ำ-สะพานกาญจนา	13.6214183	100.5093979	exat	working	2022-07-09T00:00:00	18:00:00	19:00:00	91	29	1433	2700	0.53
11737	CCTV16 17_000A ปากน้ำ-สะพานกาญจนา	13.6214183	100.5093979	exat	working	2022-08-09T00:00:00	5:00:00	6:00:00	129	8	239	2700	0.09
11738	CCTV16 17_000A ปากน้ำ-สะพานกาญจนา	13.6214183	100.5093979	exat	working	2022-08-09T00:00:00	6:00:00	7:00:00	91	23	715	2700	0.26
11739	CCTV16 17_000A ปากน้ำ-สะพานกาญจนา	13.6214183	100.5093979	exat	working	2022-08-09T00:00:00	7:00:00	8:00:00	91	24	1278	2700	0.47
11740	CCTV16 17_000A ปากน้ำ-สะพานกาญจนา	13.6214183	100.5093979	exat	working	2022-08-09T00:00:00	8:00:00	9:00:00	91	21	361	2700	0.13
11741	CCTV16 17_000A ปากน้ำ-สะพานกาญจนา	13.6214183	100.5093979	exat	working	2022-08-09T00:00:00	9:00:00	10:00:00	89	19	468	2700	0.17
11742	CCTV16 17_000A ปากน้ำ-สะพานกาญจนา	13.6214183	100.5093979	exat	working	2022-08-09T00:00:00	10:00:00	11:00:00	88	17	232	2700	0.09
11743	CCTV16 17_000A ปากน้ำ-สะพานกาญจนา	13.6214183	100.5093979	exat	working	2022-08-09T00:00:00	11:00:00	12:00:00	91	28	998	2700	0.37
11744	CCTV16 17_000A ปากน้ำ-สะพานกาญจนา	13.6214183	100.5093979	exat	working	2022-08-09T00:00:00	12:00:00	13:00:00	89	19	264	2700	0.10
11745	CCTV16 17_000A ปากน้ำ-สะพานกาญจนา	13.6214183	100.5093979	exat	working	2022-08-09T00:00:00	13:00:00	14:00:00	90	17	271	2700	0.10
11746	CCTV16 17_000A ปากน้ำ-สะพานกาญจนา	13.6214183	100.5093979	exat	working	2022-08-09T00:00:00	14:00:00	15:00:00	89	17	239	2700	0.09
11747	CCTV16 17_000A ปากน้ำ-สะพานกาญจนา	13.6214183	100.5093979	exat	working	2022-08-09T00:00:00	15:00:00	16:00:00	90	19	306	2700	0.11
11748	CCTV16 17_000A ปากน้ำ-สะพานกาญจนา	13.6214183	100.5093979	exat	working	2022-08-09T00:00:00	16:00:00	17:00:00	91	24	1544	2700	0.57
11749	CCTV16 17_000A ปากน้ำ-สะพานกาญจนา	13.6214183	100.5093979	exat	working	2022-08-09T00:00:00	17:00:00	18:00:00	91	25	1631	2700	0.60
11750	CCTV16 17_000A ปากน้ำ-สะพานกาญจนา	13.6214183	100.5093979	exat	working	2022-08-09T00:00:00	18:00:00	19:00:00	91	32	1730	2700	0.64
11751	CCTV16 17_000A ปากน้ำ-สะพานกาญจนา	13.6214183	100.5093979	exat	working	2022-09-09T00:00:00	5:00:00	6:00:00	129	9	223	2700	0.08
11752	CCTV16 17_000A ปากน้ำ-สะพานกาญจนา	13.6214183	100.5093979	exat	working	2022-09-09T00:00:00	6:00:00	7:00:00	91	25	742	2700	0.27
11753	CCTV16 17_000A ปากน้ำ-สะพานกาญจนา	13.6214183	100.5093979	exat	working	2022-09-09T00:00:00	7:00:00	8:00:00	91	24	1282	2700	0.47
11754	CCTV16 17_000A ปากน้ำ-สะพานกาญจนา	13.6214183	100.5093979	exat	working	2022-09-09T00:00:00	8:00:00	9:00:00	91	24	345	2700	0.13
11755	CCTV16 17_000A ปากน้ำ-สะพานกาญจนา	13.6214183	100.5093979	exat	working	2022-09-09T00:00:00	9:00:00	10:00:00	90	21	209	2700	0.08
11756	CCTV16 17_000A ปากน้ำ-สะพานกาญจนา	13.6214183	100.5093979	exat	working	2022-09-09T00:00:00	10:00:00	11:00:00	88	19	234	2700	0.09
11757	CCTV16 17_000A ปากน้ำ-สะพานกาญจนา	13.6214183	100.5093979	exat	working	2022-09-09T00:00:00	11:00:00	12:00:00	91	25	724	2700	0.27
11758	CCTV16 17_000A ปากน้ำ-สะพานกาญจนา	13.6214183	100.5093979	exat	working	2022-09-09T00:00:00	12:00:00	13:00:00	87	23	241	2700	0.09
11759	CCTV16 17_000A ปากน้ำ-สะพานกาญจนา	13.6214183	100.5093979	exat	working	2022-09-09T00:00:00	13:00:00	14:00:00	89	22	220	2700	0.08
11760	CCTV16 17_000A ปากน้ำ-สะพานกาญจนา	13.6214183	100.5093979	exat	working	2022-09-09T00:00:00	14:00:00	15:00:00	89	20	263	2700	0.10
11761	CCTV16 17_000A ปากน้ำ-สะพานกาญจนา	13.6214183	100.5093979	exat	working	2022-09-09T00:00:00	15:00:00	16:00:00	89	23	293	2700	0.11
11762	CCTV16 17_000A ปากน้ำ-สะพานกาญจนา	13.6214183	100.5093979	exat	working	2022-09-09T00:00:00	16:00:00	17:00:00	91	23	1277	2700	0.47
11763	CCTV16 17_000A ปากน้ำ-สะพานกาญจนา	13.6214183	100.5093979	exat	working	2022-09-09T00:00:00	17:00:00	18:00:00	91	30	1818	2700	0.67
11764	CCTV16 17_000A ปากน้ำ-สะพานกาญจนา	13.6214183	100.5093979	exat	working	2022-09-09T00:00:00	18:00:00	19:00:00	91	35	1975	2700	0.73
11765	CCTV16 17_000A ปากน้ำ-สะพานกาญจนา	13.6214183	100.5093979	exat	working	2022-10-09T00:00:00	5:00:00	6:00:00	30	6	219	2700	0.08
11766	CCTV16 17_000A ปากน้ำ-สะพานกาญจนา	13.6214183	100.5093979	exat	holiday	2022-10-09T00:00:00	6:00:00	7:00:00	22	18	723	2700	0.27
11767	CCTV16 17_000A ปากน้ำ-สะพานกาญจนา	13.6214183	100.5093979	exat	holiday	2022-10-09T00:00:00	7:00:00	8:00:00	91	23	2179	2700	0.81
11768	CCTV16 17_000A ปากน้ำ-สะพานกาญจนา	13.6214183	100.5093979	exat	holiday	2022-10-09T00:00:00	8:00:00	9:00:00	91	17	723	2700	0.27
11769	CCTV16 17_000A ปากน้ำ-สะพานกาญจนา	13.6214183	100.5093979	exat	working	2022-10-09T00:00:00	9:00:00	10:00:00	86	12	661	2700	0.24
11770	CCTV16 17_000A ปากน้ำ-สะพานกาญจนา	13.6214183	100.5093979	exat	working	2022-10-09T00:00:00	10:00:00	11:00:00	88	13	570	2700	0.21
11771	CCTV16 17_000A ปากน้ำ-สะพานกาญจนา	13.6214183	100.5093979	exat	holiday	2022-10-09T00:00:00	11:00:00	12:00:00	30	34	1443	2700	0.53
11772	CCTV16 17_000A ปากน้ำ-สะพานกาญจนา	13.6214183	100.5093979	exat	working	2022-10-09T00:00:00	12:00:00	13:00:00	88	14	645	2700	0.24
11773	CCTV16 17_000A ปากน้ำ-สะพานกาญจนา	13.6214183	100.5093979	exat	working	2022-10-09T00:00:00	13:00:00	14:00:00	89	15	586	2700	0.22
11774	CCTV16 17_000A ปากน้ำ-สะพานกาญจนา	13.6214183	100.5093979	exat	working	2022-10-09T00:00:00	14:00:00	15:00:00	89	16	678	2700	0.25
11775	CCTV16 17_000A ปากน้ำ-สะพานกาญจนา	13.6214183	100.5093979	exat	working	2022-10-09T00:00:00	15:00:00	16:00:00	84	13	670	2700	0.25
11776	CCTV16 17_000A ปากน้ำ-สะพานกาญจนา	13.6214183	100.5093979	exat	holiday	2022-10-09T00:00:00	16:00:00	17:00:00	91	41	1993	2700	0.74
11777	CCTV16 17_000A ปากน้ำ-สะพานกาญจนา	13.6214183	100.5093979	exat	holiday	2022-10-09T00:00:00	17:00:00	18:00:00	91	20	905	2700	0.34
11778	CCTV16 17_000A ปากน้ำ-สะพานกาญจนา	13.6214183	100.5093979	exat	holiday	2022-10-09T00:00:00	18:00:00	19:00:00	91	18	1097	2700	0.41
11779	CCTV16 17_000A ปากน้ำ-สะพานกาญจนา	13.6214183	100.5093979	exat	working	2022-11-09T00:00:00	5:00:00	6:00:00	18	42	140	2700	0.05
11780	CCTV16 17_000A ปากน้ำ-สะพานกาญจนา	13.6214183	100.5093979	exat	holiday	2022-11-09T00:00:00	6:00:00	7:00:00	13	122	419	2700	0.16
11781	CCTV16 17_000A ปากน้ำ-สะพานกาญจนา	13.6214183	100.5093979	exat	holiday	2022-11-09T00:00:00	7:00:00	8:00:00	55	14	1299	2700	0.48
11782	CCTV16 17_000A ปากน้ำ-สะพานกาญจนา	13.6214183	100.5093979	exat	holiday	2022-11-09T00:00:00	8:00:00	9:00:00	55	11	454	2700	0.17
11783	CCTV16 17_000A ปากน้ำ-สะพานกาญจนา	13.6214183	100.5093979	exat	working	2022-11-09T00:00:00	9:00:00	10:00:00	52	7	390	2700	0.14
11784	CCTV16 17_000A ปากน้ำ-สะพานกาญจนา	13.6214183	100.5093979	exat	working	2022-11-09T00:00:00	10:00:00	11:00:00	53	8	353	2700	0.13
11785	CCTV16 17_000A ปากน้ำ-สะพานกาญจนา	13.6214183	100.5093979	exat	holiday	2022-11-09T00:00:00	11:00:00	12:00:00	18	121	889	2700	0.33
11786	CCTV16 17_000A ปากน้ำ-สะพานกาญจนา	13.6214183	100.5093979	exat	working	2022-11-09T00:00:00	12:00:00	13:00:00	53	9	390	2700	0.14
11787	CCTV16 17_000A ปากน้ำ-สะพานกาญจนา	13.6214183	100.5093979	exat	working	2022-11-09T00:00:00	13:00:00	14:00:00	54	9	346	2700	0.13
11788	CCTV16 17_000A ปากน้ำ-สะพานกาญจนา	13.6214183	100.5093979	exat	working	2022-11-09T00:00:00	14:00:00	15:00:00	54	10	408	2700	0.15
11789	CCTV16 17_000A ปากน้ำ-สะพานกาญจนา	13.6214183	100.5093979	exat	working	2022-11-09T00:00:00	15:00:00	16:00:00	51	8	393	2700	0.15
11790	CCTV16 17_000A ปากน้ำ-สะพานกาญจนา	13.6214183	100.5093979	exat	holiday	2022-11-09T00:00:00	16:00:00	17:00:00	55	25	1199	2700	0.44
11791	CCTV16 17_000A ปากน้ำ-สะพานกาญจนา	13.6214183	100.5093979	exat	holiday	2022-11-09T00:00:00	17:00:00	18:00:00	55	12	529	2700	0.20
11792	CCTV16 17_000A ปากน้ำ-สะพานกาญจนา	13.6214183	100.5093979	exat	holiday	2022-11-09T00:00:00	18:00:00	19:00:00	55	11	655	2700	0.24
11793	CCTV17 18_221B สะพานกาญจนา-ปู่เจ้า	13.6319078	100.5787415	exat	working	2022-05-09T00:00:00	5:00:00	6:00:00	110	13	1099	2700	0.41
11794	CCTV17 18_221B สะพานกาญจนา-ปู่เจ้า	13.6319078	100.5787415	exat	working	2022-05-09T00:00:00	6:00:00	7:00:00	76	38	3412	2700	1.26
11795	CCTV17 18_221B สะพานกาญจนา-ปู่เจ้า	13.6319078	100.5787415	exat	working	2022-05-09T00:00:00	7:00:00	8:00:00	91	41	3430	2700	1.27
11796	CCTV17 18_221B สะพานกาญจนา-ปู่เจ้า	13.6319078	100.5787415	exat	working	2022-05-09T00:00:00	8:00:00	9:00:00	82	24	1973	2700	0.73
11797	CCTV17 18_221B สะพานกาญจนา-ปู่เจ้า	13.6319078	100.5787415	exat	working	2022-05-09T00:00:00	9:00:00	10:00:00	77	20	1949	2700	0.72
11798	CCTV17 18_221B สะพานกาญจนา-ปู่เจ้า	13.6319078	100.5787415	exat	working	2022-05-09T00:00:00	10:00:00	11:00:00	77	21	1905	2700	0.71
11799	CCTV17 18_221B สะพานกาญจนา-ปู่เจ้า	13.6319078	100.5787415	exat	working	2022-05-09T00:00:00	11:00:00	12:00:00	70	37	3283	2700	1.22
11800	CCTV17 18_221B สะพานกาญจนา-ปู่เจ้า	13.6319078	100.5787415	exat	working	2022-05-09T00:00:00	12:00:00	13:00:00	78	23	1853	2700	0.69
11801	CCTV17 18_221B สะพานกาญจนา-ปู่เจ้า	13.6319078	100.5787415	exat	working	2022-05-09T00:00:00	13:00:00	14:00:00	81	21	1978	2700	0.73
11802	CCTV17 18_221B สะพานกาญจนา-ปู่เจ้า	13.6319078	100.5787415	exat	working	2022-05-09T00:00:00	14:00:00	15:00:00	79	23	1901	2700	0.70
11803	CCTV17 18_221B สะพานกาญจนา-ปู่เจ้า	13.6319078	100.5787415	exat	working	2022-05-09T00:00:00	15:00:00	16:00:00	78	21	1876	2700	0.69
11804	CCTV17 18_221B สะพานกาญจนา-ปู่เจ้า	13.6319078	100.5787415	exat	working	2022-05-09T00:00:00	16:00:00	17:00:00	72	23	2007	2700	0.74
11805	CCTV17 18_221B สะพานกาญจนา-ปู่เจ้า	13.6319078	100.5787415	exat	working	2022-05-09T00:00:00	17:00:00	18:00:00	59	39	2180	2700	0.81
11806	CCTV17 18_221B สะพานกาญจนา-ปู่เจ้า	13.6319078	100.5787415	exat	working	2022-05-09T00:00:00	18:00:00	19:00:00	73	19	1273	2700	0.47
11807	CCTV17 18_221B สะพานกาญจนา-ปู่เจ้า	13.6319078	100.5787415	exat	working	2022-06-09T00:00:00	5:00:00	6:00:00	107	11	1057	2700	0.39
11808	CCTV17 18_221B สะพานกาญจนา-ปู่เจ้า	13.6319078	100.5787415	exat	working	2022-06-09T00:00:00	6:00:00	7:00:00	75	33	3052	2700	1.13
11809	CCTV17 18_221B สะพานกาญจนา-ปู่เจ้า	13.6319078	100.5787415	exat	working	2022-06-09T00:00:00	7:00:00	8:00:00	81	32	2636	2700	0.98
11810	CCTV17 18_221B สะพานกาญจนา-ปู่เจ้า	13.6319078	100.5787415	exat	working	2022-06-09T00:00:00	8:00:00	9:00:00	80	26	1993	2700	0.74
11811	CCTV17 18_221B สะพานกาญจนา-ปู่เจ้า	13.6319078	100.5787415	exat	working	2022-06-09T00:00:00	9:00:00	10:00:00	75	23	2002	2700	0.74
11812	CCTV17 18_221B สะพานกาญจนา-ปู่เจ้า	13.6319078	100.5787415	exat	working	2022-06-09T00:00:00	10:00:00	11:00:00	77	23	1871	2700	0.69
11813	CCTV17 18_221B สะพานกาญจนา-ปู่เจ้า	13.6319078	100.5787415	exat	working	2022-06-09T00:00:00	11:00:00	12:00:00	73	25	2011	2700	0.74
11814	CCTV17 18_221B สะพานกาญจนา-ปู่เจ้า	13.6319078	100.5787415	exat	working	2022-06-09T00:00:00	12:00:00	13:00:00	77	24	1860	2700	0.69
11815	CCTV17 18_221B สะพานกาญจนา-ปู่เจ้า	13.6319078	100.5787415	exat	working	2022-06-09T00:00:00	13:00:00	14:00:00	79	22	1970	2700	0.73
11816	CCTV17 18_221B สะพานกาญจนา-ปู่เจ้า	13.6319078	100.5787415	exat	working	2022-06-09T00:00:00	14:00:00	15:00:00	78	25	1916	2700	0.71
11817	CCTV17 18_221B สะพานกาญจนา-ปู่เจ้า	13.6319078	100.5787415	exat	working	2022-06-09T00:00:00	15:00:00	16:00:00	78	22	1926	2700	0.71
11818	CCTV17 18_221B สะพานกาญจนา-ปู่เจ้า	13.6319078	100.5787415	exat	working	2022-06-09T00:00:00	16:00:00	17:00:00	79	24	2197	2700	0.81
11819	CCTV17 18_221B สะพานกาญจนา-ปู่เจ้า	13.6319078	100.5787415	exat	working	2022-06-09T00:00:00	17:00:00	18:00:00	63	33	2094	2700	0.78
11820	CCTV17 18_221B สะพานกาญจนา-ปู่เจ้า	13.6319078	100.5787415	exat	working	2022-06-09T00:00:00	18:00:00	19:00:00	72	29	1360	2700	0.50
11821	CCTV17 18_221B สะพานกาญจนา-ปู่เจ้า	13.6319078	100.5787415	exat	working	2022-07-09T00:00:00	5:00:00	6:00:00	105	9	946	2700	0.35
11822	CCTV17 18_221B สะพานกาญจนา-ปู่เจ้า	13.6319078	100.5787415	exat	working	2022-07-09T00:00:00	6:00:00	7:00:00	73	27	2742	2700	1.02
11823	CCTV17 18_221B สะพานกาญจนา-ปู่เจ้า	13.6319078	100.5787415	exat	working	2022-07-09T00:00:00	7:00:00	8:00:00	72	22	1810	2700	0.67
11824	CCTV17 18_221B สะพานกาญจนา-ปู่เจ้า	13.6319078	100.5787415	exat	working	2022-07-09T00:00:00	8:00:00	9:00:00	78	27	1990	2700	0.74
11825	CCTV17 18_221B สะพานกาญจนา-ปู่เจ้า	13.6319078	100.5787415	exat	working	2022-07-09T00:00:00	9:00:00	10:00:00	73	25	2031	2700	0.75
11826	CCTV17 18_221B สะพานกาญจนา-ปู่เจ้า	13.6319078	100.5787415	exat	working	2022-07-09T00:00:00	10:00:00	11:00:00	77	25	1904	2700	0.71
11827	CCTV17 18_221B สะพานกาญจนา-ปู่เจ้า	13.6319078	100.5787415	exat	working	2022-07-09T00:00:00	11:00:00	12:00:00	76	13	745	2700	0.28
11828	CCTV17 18_221B สะพานกาญจนา-ปู่เจ้า	13.6319078	100.5787415	exat	working	2022-07-09T00:00:00	12:00:00	13:00:00	75	26	1837	2700	0.68
11829	CCTV17 18_221B สะพานกาญจนา-ปู่เจ้า	13.6319078	100.5787415	exat	working	2022-07-09T00:00:00	13:00:00	14:00:00	77	24	1959	2700	0.73
11830	CCTV17 18_221B สะพานกาญจนา-ปู่เจ้า	13.6319078	100.5787415	exat	working	2022-07-09T00:00:00	14:00:00	15:00:00	77	26	1954	2700	0.72
11831	CCTV17 18_221B สะพานกาญจนา-ปู่เจ้า	13.6319078	100.5787415	exat	working	2022-07-09T00:00:00	15:00:00	16:00:00	77	24	1975	2700	0.73
11832	CCTV17 18_221B สะพานกาญจนา-ปู่เจ้า	13.6319078	100.5787415	exat	working	2022-07-09T00:00:00	16:00:00	17:00:00	87	26	2352	2700	0.87
11833	CCTV17 18_221B สะพานกาญจนา-ปู่เจ้า	13.6319078	100.5787415	exat	working	2022-07-09T00:00:00	17:00:00	18:00:00	67	28	1978	2700	0.73
11834	CCTV17 18_221B สะพานกาญจนา-ปู่เจ้า	13.6319078	100.5787415	exat	working	2022-07-09T00:00:00	18:00:00	19:00:00	71	40	1451	2700	0.54
11835	CCTV17 18_221B สะพานกาญจนา-ปู่เจ้า	13.6319078	100.5787415	exat	working	2022-08-09T00:00:00	5:00:00	6:00:00	115	10	927	2700	0.34
11836	CCTV17 18_221B สะพานกาญจนา-ปู่เจ้า	13.6319078	100.5787415	exat	working	2022-08-09T00:00:00	6:00:00	7:00:00	81	32	3069	2700	1.14
11837	CCTV17 18_221B สะพานกาญจนา-ปู่เจ้า	13.6319078	100.5787415	exat	working	2022-08-09T00:00:00	7:00:00	8:00:00	72	21	1903	2700	0.70
11838	CCTV17 18_221B สะพานกาญจนา-ปู่เจ้า	13.6319078	100.5787415	exat	working	2022-08-09T00:00:00	8:00:00	9:00:00	83	27	2068	2700	0.77
11839	CCTV17 18_221B สะพานกาญจนา-ปู่เจ้า	13.6319078	100.5787415	exat	working	2022-08-09T00:00:00	9:00:00	10:00:00	78	23	2017	2700	0.75
11840	CCTV17 18_221B สะพานกาญจนา-ปู่เจ้า	13.6319078	100.5787415	exat	working	2022-08-09T00:00:00	10:00:00	11:00:00	81	24	2008	2700	0.74
11841	CCTV17 18_221B สะพานกาญจนา-ปู่เจ้า	13.6319078	100.5787415	exat	working	2022-08-09T00:00:00	11:00:00	12:00:00	73	19	1548	2700	0.57
11842	CCTV17 18_221B สะพานกาญจนา-ปู่เจ้า	13.6319078	100.5787415	exat	working	2022-08-09T00:00:00	12:00:00	13:00:00	80	23	1930	2700	0.71
11843	CCTV17 18_221B สะพานกาญจนา-ปู่เจ้า	13.6319078	100.5787415	exat	working	2022-08-09T00:00:00	13:00:00	14:00:00	81	22	2064	2700	0.76
11844	CCTV17 18_221B สะพานกาญจนา-ปู่เจ้า	13.6319078	100.5787415	exat	working	2022-08-09T00:00:00	14:00:00	15:00:00	80	25	2025	2700	0.75
11845	CCTV17 18_221B สะพานกาญจนา-ปู่เจ้า	13.6319078	100.5787415	exat	working	2022-08-09T00:00:00	15:00:00	16:00:00	80	23	2117	2700	0.78
11846	CCTV17 18_221B สะพานกาญจนา-ปู่เจ้า	13.6319078	100.5787415	exat	working	2022-08-09T00:00:00	16:00:00	17:00:00	89	27	1815	2700	0.67
11847	CCTV17 18_221B สะพานกาญจนา-ปู่เจ้า	13.6319078	100.5787415	exat	working	2022-08-09T00:00:00	17:00:00	18:00:00	79	27	2630	2700	0.97
11848	CCTV17 18_221B สะพานกาญจนา-ปู่เจ้า	13.6319078	100.5787415	exat	working	2022-08-09T00:00:00	18:00:00	19:00:00	81	30	1824	2700	0.68
11849	CCTV17 18_221B สะพานกาญจนา-ปู่เจ้า	13.6319078	100.5787415	exat	working	2022-09-09T00:00:00	5:00:00	6:00:00	125	12	1169	2700	0.43
11850	CCTV17 18_221B สะพานกาญจนา-ปู่เจ้า	13.6319078	100.5787415	exat	working	2022-09-09T00:00:00	6:00:00	7:00:00	88	37	3448	2700	1.28
11851	CCTV17 18_221B สะพานกาญจนา-ปู่เจ้า	13.6319078	100.5787415	exat	working	2022-09-09T00:00:00	7:00:00	8:00:00	72	19	2004	2700	0.74
11852	CCTV17 18_221B สะพานกาญจนา-ปู่เจ้า	13.6319078	100.5787415	exat	working	2022-09-09T00:00:00	8:00:00	9:00:00	89	26	2177	2700	0.81
11853	CCTV17 18_221B สะพานกาญจนา-ปู่เจ้า	13.6319078	100.5787415	exat	working	2022-09-09T00:00:00	9:00:00	10:00:00	84	21	2007	2700	0.74
11854	CCTV17 18_221B สะพานกาญจนา-ปู่เจ้า	13.6319078	100.5787415	exat	working	2022-09-09T00:00:00	10:00:00	11:00:00	84	23	2157	2700	0.80
11855	CCTV17 18_221B สะพานกาญจนา-ปู่เจ้า	13.6319078	100.5787415	exat	working	2022-09-09T00:00:00	11:00:00	12:00:00	70	25	2365	2700	0.88
11856	CCTV17 18_221B สะพานกาญจนา-ปู่เจ้า	13.6319078	100.5787415	exat	working	2022-09-09T00:00:00	12:00:00	13:00:00	85	21	2035	2700	0.75
11857	CCTV17 18_221B สะพานกาญจนา-ปู่เจ้า	13.6319078	100.5787415	exat	working	2022-09-09T00:00:00	13:00:00	14:00:00	86	20	2169	2700	0.80
11858	CCTV17 18_221B สะพานกาญจนา-ปู่เจ้า	13.6319078	100.5787415	exat	working	2022-09-09T00:00:00	14:00:00	15:00:00	84	24	2089	2700	0.77
11859	CCTV17 18_221B สะพานกาญจนา-ปู่เจ้า	13.6319078	100.5787415	exat	working	2022-09-09T00:00:00	15:00:00	16:00:00	84	22	2139	2700	0.79
11860	CCTV17 18_221B สะพานกาญจนา-ปู่เจ้า	13.6319078	100.5787415	exat	working	2022-09-09T00:00:00	16:00:00	17:00:00	91	28	1275	2700	0.47
11861	CCTV17 18_221B สะพานกาญจนา-ปู่เจ้า	13.6319078	100.5787415	exat	working	2022-09-09T00:00:00	17:00:00	18:00:00	91	25	3272	2700	1.21
11862	CCTV17 18_221B สะพานกาญจนา-ปู่เจ้า	13.6319078	100.5787415	exat	working	2022-09-09T00:00:00	18:00:00	19:00:00	91	21	2188	2700	0.81
11863	CCTV17 18_221B สะพานกาญจนา-ปู่เจ้า	13.6319078	100.5787415	exat	working	2022-10-09T00:00:00	5:00:00	6:00:00	96	21	924	2700	0.34
11864	CCTV17 18_221B สะพานกาญจนา-ปู่เจ้า	13.6319078	100.5787415	exat	holiday	2022-10-09T00:00:00	6:00:00	7:00:00	68	61	2883	2700	1.07
11865	CCTV17 18_221B สะพานกาญจนา-ปู่เจ้า	13.6319078	100.5787415	exat	holiday	2022-10-09T00:00:00	7:00:00	8:00:00	70	19	1267	2700	0.47
11866	CCTV17 18_221B สะพานกาญจนา-ปู่เจ้า	13.6319078	100.5787415	exat	holiday	2022-10-09T00:00:00	8:00:00	9:00:00	82	28	1990	2700	0.74
11867	CCTV17 18_221B สะพานกาญจนา-ปู่เจ้า	13.6319078	100.5787415	exat	working	2022-10-09T00:00:00	9:00:00	10:00:00	79	25	1890	2700	0.70
11868	CCTV17 18_221B สะพานกาญจนา-ปู่เจ้า	13.6319078	100.5787415	exat	working	2022-10-09T00:00:00	10:00:00	11:00:00	78	24	1898	2700	0.70
11869	CCTV17 18_221B สะพานกาญจนา-ปู่เจ้า	13.6319078	100.5787415	exat	holiday	2022-10-09T00:00:00	11:00:00	12:00:00	76	46	4899	2700	1.81
11870	CCTV17 18_221B สะพานกาญจนา-ปู่เจ้า	13.6319078	100.5787415	exat	working	2022-10-09T00:00:00	12:00:00	13:00:00	77	27	1924	2700	0.71
11871	CCTV17 18_221B สะพานกาญจนา-ปู่เจ้า	13.6319078	100.5787415	exat	working	2022-10-09T00:00:00	13:00:00	14:00:00	78	26	1866	2700	0.69
11872	CCTV17 18_221B สะพานกาญจนา-ปู่เจ้า	13.6319078	100.5787415	exat	working	2022-10-09T00:00:00	14:00:00	15:00:00	81	23	1927	2700	0.71
11873	CCTV17 18_221B สะพานกาญจนา-ปู่เจ้า	13.6319078	100.5787415	exat	working	2022-10-09T00:00:00	15:00:00	16:00:00	79	25	1958	2700	0.73
11874	CCTV17 18_221B สะพานกาญจนา-ปู่เจ้า	13.6319078	100.5787415	exat	holiday	2022-10-09T00:00:00	16:00:00	17:00:00	84	29	3094	2700	1.15
11875	CCTV17 18_221B สะพานกาญจนา-ปู่เจ้า	13.6319078	100.5787415	exat	holiday	2022-10-09T00:00:00	17:00:00	18:00:00	76	33	3263	2700	1.21
11876	CCTV17 18_221B สะพานกาญจนา-ปู่เจ้า	13.6319078	100.5787415	exat	holiday	2022-10-09T00:00:00	18:00:00	19:00:00	74	26	2371	2700	0.88
11877	CCTV17 18_221B สะพานกาญจนา-ปู่เจ้า	13.6319078	100.5787415	exat	working	2022-11-09T00:00:00	5:00:00	6:00:00	57	12	530	2700	0.20
11878	CCTV17 18_221B สะพานกาญจนา-ปู่เจ้า	13.6319078	100.5787415	exat	holiday	2022-11-09T00:00:00	6:00:00	7:00:00	41	37	1743	2700	0.65
11879	CCTV17 18_221B สะพานกาญจนา-ปู่เจ้า	13.6319078	100.5787415	exat	holiday	2022-11-09T00:00:00	7:00:00	8:00:00	42	12	752	2700	0.28
11880	CCTV17 18_221B สะพานกาญจนา-ปู่เจ้า	13.6319078	100.5787415	exat	holiday	2022-11-09T00:00:00	8:00:00	9:00:00	49	17	1216	2700	0.45
11881	CCTV17 18_221B สะพานกาญจนา-ปู่เจ้า	13.6319078	100.5787415	exat	working	2022-11-09T00:00:00	9:00:00	10:00:00	48	15	1132	2700	0.42
11882	CCTV17 18_221B สะพานกาญจนา-ปู่เจ้า	13.6319078	100.5787415	exat	working	2022-11-09T00:00:00	10:00:00	11:00:00	47	15	1148	2700	0.43
11883	CCTV17 18_221B สะพานกาญจนา-ปู่เจ้า	13.6319078	100.5787415	exat	holiday	2022-11-09T00:00:00	11:00:00	12:00:00	46	28	2917	2700	1.08
11884	CCTV17 18_221B สะพานกาญจนา-ปู่เจ้า	13.6319078	100.5787415	exat	working	2022-11-09T00:00:00	12:00:00	13:00:00	46	17	1154	2700	0.43
11885	CCTV17 18_221B สะพานกาญจนา-ปู่เจ้า	13.6319078	100.5787415	exat	working	2022-11-09T00:00:00	13:00:00	14:00:00	47	16	1120	2700	0.41
11886	CCTV17 18_221B สะพานกาญจนา-ปู่เจ้า	13.6319078	100.5787415	exat	working	2022-11-09T00:00:00	14:00:00	15:00:00	49	14	1154	2700	0.43
11887	CCTV17 18_221B สะพานกาญจนา-ปู่เจ้า	13.6319078	100.5787415	exat	working	2022-11-09T00:00:00	15:00:00	16:00:00	47	15	1178	2700	0.44
11888	CCTV17 18_221B สะพานกาญจนา-ปู่เจ้า	13.6319078	100.5787415	exat	holiday	2022-11-09T00:00:00	16:00:00	17:00:00	51	18	1859	2700	0.69
11889	CCTV17 18_221B สะพานกาญจนา-ปู่เจ้า	13.6319078	100.5787415	exat	holiday	2022-11-09T00:00:00	17:00:00	18:00:00	46	20	1949	2700	0.72
11890	CCTV17 18_221B สะพานกาญจนา-ปู่เจ้า	13.6319078	100.5787415	exat	holiday	2022-11-09T00:00:00	18:00:00	19:00:00	44	16	1421	2700	0.53
11891	CCTV19 20_100B สะพานกาญจนา-ปากน้ำ	13.6320539	100.5791169	exat	working	2022-05-09T00:00:00	5:00:00	6:00:00	111	7	185	2700	0.07
11892	CCTV19 20_100B สะพานกาญจนา-ปากน้ำ	13.6320539	100.5791169	exat	working	2022-05-09T00:00:00	6:00:00	7:00:00	79	21	551	2700	0.20
11893	CCTV19 20_100B สะพานกาญจนา-ปากน้ำ	13.6320539	100.5791169	exat	working	2022-05-09T00:00:00	7:00:00	8:00:00	73	20	1095	2700	0.41
11894	CCTV19 20_100B สะพานกาญจนา-ปากน้ำ	13.6320539	100.5791169	exat	working	2022-05-09T00:00:00	8:00:00	9:00:00	88	34	2542	2700	0.94
11895	CCTV19 20_100B สะพานกาญจนา-ปากน้ำ	13.6320539	100.5791169	exat	working	2022-05-09T00:00:00	9:00:00	10:00:00	87	31	2414	2700	0.89
11896	CCTV19 20_100B สะพานกาญจนา-ปากน้ำ	13.6320539	100.5791169	exat	working	2022-05-09T00:00:00	10:00:00	11:00:00	87	30	2438	2700	0.90
11897	CCTV19 20_100B สะพานกาญจนา-ปากน้ำ	13.6320539	100.5791169	exat	working	2022-05-09T00:00:00	11:00:00	12:00:00	81	42	912	2700	0.34
11898	CCTV19 20_100B สะพานกาญจนา-ปากน้ำ	13.6320539	100.5791169	exat	working	2022-05-09T00:00:00	12:00:00	13:00:00	83	32	2429	2700	0.90
11899	CCTV19 20_100B สะพานกาญจนา-ปากน้ำ	13.6320539	100.5791169	exat	working	2022-05-09T00:00:00	13:00:00	14:00:00	87	33	2409	2700	0.89
11900	CCTV19 20_100B สะพานกาญจนา-ปากน้ำ	13.6320539	100.5791169	exat	working	2022-05-09T00:00:00	14:00:00	15:00:00	83	31	2454	2700	0.91
11901	CCTV19 20_100B สะพานกาญจนา-ปากน้ำ	13.6320539	100.5791169	exat	working	2022-05-09T00:00:00	15:00:00	16:00:00	86	31	2429	2700	0.90
11902	CCTV19 20_100B สะพานกาญจนา-ปากน้ำ	13.6320539	100.5791169	exat	working	2022-05-09T00:00:00	16:00:00	17:00:00	91	22	1622	2700	0.60
11903	CCTV19 20_100B สะพานกาญจนา-ปากน้ำ	13.6320539	100.5791169	exat	working	2022-05-09T00:00:00	17:00:00	18:00:00	86	21	906	2700	0.34
11904	CCTV19 20_100B สะพานกาญจนา-ปากน้ำ	13.6320539	100.5791169	exat	working	2022-05-09T00:00:00	18:00:00	19:00:00	86	34	1814	2700	0.67
11905	CCTV19 20_100B สะพานกาญจนา-ปากน้ำ	13.6320539	100.5791169	exat	working	2022-06-09T00:00:00	5:00:00	6:00:00	57	7	251	2700	0.09
11906	CCTV19 20_100B สะพานกาญจนา-ปากน้ำ	13.6320539	100.5791169	exat	working	2022-06-09T00:00:00	6:00:00	7:00:00	40	21	819	2700	0.30
11907	CCTV19 20_100B สะพานกาญจนา-ปากน้ำ	13.6320539	100.5791169	exat	working	2022-06-09T00:00:00	7:00:00	8:00:00	37	23	1370	2700	0.51
11908	CCTV19 20_100B สะพานกาญจนา-ปากน้ำ	13.6320539	100.5791169	exat	working	2022-06-09T00:00:00	8:00:00	9:00:00	44	29	1910	2700	0.71
11909	CCTV19 20_100B สะพานกาญจนา-ปากน้ำ	13.6320539	100.5791169	exat	working	2022-06-09T00:00:00	9:00:00	10:00:00	42	26	1803	2700	0.67
11910	CCTV19 20_100B สะพานกาญจนา-ปากน้ำ	13.6320539	100.5791169	exat	working	2022-06-09T00:00:00	10:00:00	11:00:00	43	26	1837	2700	0.68
11911	CCTV19 20_100B สะพานกาญจนา-ปากน้ำ	13.6320539	100.5791169	exat	working	2022-06-09T00:00:00	11:00:00	12:00:00	41	33	983	2700	0.36
11912	CCTV19 20_100B สะพานกาญจนา-ปากน้ำ	13.6320539	100.5791169	exat	working	2022-06-09T00:00:00	12:00:00	13:00:00	41	27	1778	2700	0.66
11913	CCTV19 20_100B สะพานกาญจนา-ปากน้ำ	13.6320539	100.5791169	exat	working	2022-06-09T00:00:00	13:00:00	14:00:00	42	28	1781	2700	0.66
11914	CCTV19 20_100B สะพานกาญจนา-ปากน้ำ	13.6320539	100.5791169	exat	working	2022-06-09T00:00:00	14:00:00	15:00:00	42	26	1840	2700	0.68
11915	CCTV19 20_100B สะพานกาญจนา-ปากน้ำ	13.6320539	100.5791169	exat	working	2022-06-09T00:00:00	15:00:00	16:00:00	42	26	1818	2700	0.67
11916	CCTV19 20_100B สะพานกาญจนา-ปากน้ำ	13.6320539	100.5791169	exat	working	2022-06-09T00:00:00	16:00:00	17:00:00	46	20	1716	2700	0.64
11917	CCTV19 20_100B สะพานกาญจนา-ปากน้ำ	13.6320539	100.5791169	exat	working	2022-06-09T00:00:00	17:00:00	18:00:00	43	22	812	2700	0.30
11918	CCTV19 20_100B สะพานกาญจนา-ปากน้ำ	13.6320539	100.5791169	exat	working	2022-06-09T00:00:00	18:00:00	19:00:00	43	32	1827	2700	0.68
11919	CCTV19 20_100B สะพานกาญจนา-ปากน้ำ	13.6320539	100.5791169	exat	working	2022-07-09T00:00:00	5:00:00	6:00:00	29	42	334	2700	0.12
11920	CCTV19 20_100B สะพานกาญจนา-ปากน้ำ	13.6320539	100.5791169	exat	working	2022-07-09T00:00:00	6:00:00	7:00:00	21	121	1090	2700	0.40
11921	CCTV19 20_100B สะพานกาญจนา-ปากน้ำ	13.6320539	100.5791169	exat	working	2022-07-09T00:00:00	7:00:00	8:00:00	21	121	1636	2700	0.61
11922	CCTV19 20_100B สะพานกาญจนา-ปากน้ำ	13.6320539	100.5791169	exat	working	2022-07-09T00:00:00	8:00:00	9:00:00	21	121	1253	2700	0.46
11923	CCTV19 20_100B สะพานกาญจนา-ปากน้ำ	13.6320539	100.5791169	exat	working	2022-07-09T00:00:00	9:00:00	10:00:00	21	121	1197	2700	0.44
11924	CCTV19 20_100B สะพานกาญจนา-ปากน้ำ	13.6320539	100.5791169	exat	working	2022-07-09T00:00:00	10:00:00	11:00:00	21	121	1251	2700	0.46
11925	CCTV19 20_100B สะพานกาญจนา-ปากน้ำ	13.6320539	100.5791169	exat	working	2022-07-09T00:00:00	11:00:00	12:00:00	21	121	1094	2700	0.41
11926	CCTV19 20_100B สะพานกาญจนา-ปากน้ำ	13.6320539	100.5791169	exat	working	2022-07-09T00:00:00	12:00:00	13:00:00	21	121	1142	2700	0.42
11927	CCTV19 20_100B สะพานกาญจนา-ปากน้ำ	13.6320539	100.5791169	exat	working	2022-07-09T00:00:00	13:00:00	14:00:00	21	121	1156	2700	0.43
11928	CCTV19 20_100B สะพานกาญจนา-ปากน้ำ	13.6320539	100.5791169	exat	working	2022-07-09T00:00:00	14:00:00	15:00:00	21	121	1234	2700	0.46
11929	CCTV19 20_100B สะพานกาญจนา-ปากน้ำ	13.6320539	100.5791169	exat	working	2022-07-09T00:00:00	15:00:00	16:00:00	21	121	1225	2700	0.45
11930	CCTV19 20_100B สะพานกาญจนา-ปากน้ำ	13.6320539	100.5791169	exat	working	2022-07-09T00:00:00	16:00:00	17:00:00	21	121	1835	2700	0.68
11931	CCTV19 20_100B สะพานกาญจนา-ปากน้ำ	13.6320539	100.5791169	exat	working	2022-07-09T00:00:00	17:00:00	18:00:00	21	121	713	2700	0.26
11932	CCTV19 20_100B สะพานกาญจนา-ปากน้ำ	13.6320539	100.5791169	exat	working	2022-07-09T00:00:00	18:00:00	19:00:00	21	121	1792	2700	0.66
11933	CCTV19 20_100B สะพานกาญจนา-ปากน้ำ	13.6320539	100.5791169	exat	working	2022-08-09T00:00:00	5:00:00	6:00:00	54	6	319	2700	0.12
11934	CCTV19 20_100B สะพานกาญจนา-ปากน้ำ	13.6320539	100.5791169	exat	working	2022-08-09T00:00:00	6:00:00	7:00:00	38	19	994	2700	0.37
11935	CCTV19 20_100B สะพานกาญจนา-ปากน้ำ	13.6320539	100.5791169	exat	working	2022-08-09T00:00:00	7:00:00	8:00:00	32	34	1088	2700	0.40
11936	CCTV19 20_100B สะพานกาญจนา-ปากน้ำ	13.6320539	100.5791169	exat	working	2022-08-09T00:00:00	8:00:00	9:00:00	39	24	1373	2700	0.51
11937	CCTV19 20_100B สะพานกาญจนา-ปากน้ำ	13.6320539	100.5791169	exat	working	2022-08-09T00:00:00	9:00:00	10:00:00	36	21	1251	2700	0.46
11938	CCTV19 20_100B สะพานกาญจนา-ปากน้ำ	13.6320539	100.5791169	exat	working	2022-08-09T00:00:00	10:00:00	11:00:00	38	21	1350	2700	0.50
11939	CCTV19 20_100B สะพานกาญจนา-ปากน้ำ	13.6320539	100.5791169	exat	working	2022-08-09T00:00:00	11:00:00	12:00:00	39	22	990	2700	0.37
11940	CCTV19 20_100B สะพานกาญจนา-ปากน้ำ	13.6320539	100.5791169	exat	working	2022-08-09T00:00:00	12:00:00	13:00:00	37	22	1238	2700	0.46
11941	CCTV19 20_100B สะพานกาญจนา-ปากน้ำ	13.6320539	100.5791169	exat	working	2022-08-09T00:00:00	13:00:00	14:00:00	37	21	1271	2700	0.47
11942	CCTV19 20_100B สะพานกาญจนา-ปากน้ำ	13.6320539	100.5791169	exat	working	2022-08-09T00:00:00	14:00:00	15:00:00	38	22	1313	2700	0.49
11943	CCTV19 20_100B สะพานกาญจนา-ปากน้ำ	13.6320539	100.5791169	exat	working	2022-08-09T00:00:00	15:00:00	16:00:00	36	21	1345	2700	0.50
11944	CCTV19 20_100B สะพานกาญจนา-ปากน้ำ	13.6320539	100.5791169	exat	working	2022-08-09T00:00:00	16:00:00	17:00:00	32	29	1466	2700	0.54
11945	CCTV19 20_100B สะพานกาญจนา-ปากน้ำ	13.6320539	100.5791169	exat	working	2022-08-09T00:00:00	17:00:00	18:00:00	34	26	890	2700	0.33
11946	CCTV19 20_100B สะพานกาญจนา-ปากน้ำ	13.6320539	100.5791169	exat	working	2022-08-09T00:00:00	18:00:00	19:00:00	32	43	1554	2700	0.58
11947	CCTV19 20_100B สะพานกาญจนา-ปากน้ำ	13.6320539	100.5791169	exat	working	2022-09-09T00:00:00	5:00:00	6:00:00	106	6	311	2700	0.12
11948	CCTV19 20_100B สะพานกาญจนา-ปากน้ำ	13.6320539	100.5791169	exat	working	2022-09-09T00:00:00	6:00:00	7:00:00	75	17	904	2700	0.33
11949	CCTV19 20_100B สะพานกาญจนา-ปากน้ำ	13.6320539	100.5791169	exat	working	2022-09-09T00:00:00	7:00:00	8:00:00	63	44	586	2700	0.22
11950	CCTV19 20_100B สะพานกาญจนา-ปากน้ำ	13.6320539	100.5791169	exat	working	2022-09-09T00:00:00	8:00:00	9:00:00	78	24	1446	2700	0.54
11951	CCTV19 20_100B สะพานกาญจนา-ปากน้ำ	13.6320539	100.5791169	exat	working	2022-09-09T00:00:00	9:00:00	10:00:00	76	20	1307	2700	0.48
11952	CCTV19 20_100B สะพานกาญจนา-ปากน้ำ	13.6320539	100.5791169	exat	working	2022-09-09T00:00:00	10:00:00	11:00:00	77	19	1449	2700	0.54
11953	CCTV19 20_100B สะพานกาญจนา-ปากน้ำ	13.6320539	100.5791169	exat	working	2022-09-09T00:00:00	11:00:00	12:00:00	77	20	909	2700	0.34
11954	CCTV19 20_100B สะพานกาญจนา-ปากน้ำ	13.6320539	100.5791169	exat	working	2022-09-09T00:00:00	12:00:00	13:00:00	75	23	1347	2700	0.50
11955	CCTV19 20_100B สะพานกาญจนา-ปากน้ำ	13.6320539	100.5791169	exat	working	2022-09-09T00:00:00	13:00:00	14:00:00	75	20	1355	2700	0.50
11956	CCTV19 20_100B สะพานกาญจนา-ปากน้ำ	13.6320539	100.5791169	exat	working	2022-09-09T00:00:00	14:00:00	15:00:00	77	23	1368	2700	0.51
11957	CCTV19 20_100B สะพานกาญจนา-ปากน้ำ	13.6320539	100.5791169	exat	working	2022-09-09T00:00:00	15:00:00	16:00:00	73	21	1470	2700	0.54
11958	CCTV19 20_100B สะพานกาญจนา-ปากน้ำ	13.6320539	100.5791169	exat	working	2022-09-09T00:00:00	16:00:00	17:00:00	64	42	1057	2700	0.39
11959	CCTV19 20_100B สะพานกาญจนา-ปากน้ำ	13.6320539	100.5791169	exat	working	2022-09-09T00:00:00	17:00:00	18:00:00	68	29	1091	2700	0.40
11960	CCTV19 20_100B สะพานกาญจนา-ปากน้ำ	13.6320539	100.5791169	exat	working	2022-09-09T00:00:00	18:00:00	19:00:00	63	56	1266	2700	0.47
11961	CCTV20 20_100A สะพานกาญจนา-บางครุ	13.6389489	100.5538607	exat	working	2022-05-09T00:00:00	5:00:00	6:00:00	112	22	354	2700	0.13
11962	CCTV20 20_100A สะพานกาญจนา-บางครุ	13.6389489	100.5538607	exat	working	2022-05-09T00:00:00	6:00:00	7:00:00	78	67	1099	2700	0.41
11963	CCTV20 20_100A สะพานกาญจนา-บางครุ	13.6389489	100.5538607	exat	working	2022-05-09T00:00:00	7:00:00	8:00:00	80	50	1083	2700	0.40
11964	CCTV20 20_100A สะพานกาญจนา-บางครุ	13.6389489	100.5538607	exat	working	2022-05-09T00:00:00	8:00:00	9:00:00	91	32	1989	2700	0.74
11965	CCTV20 20_100A สะพานกาญจนา-บางครุ	13.6389489	100.5538607	exat	working	2022-05-09T00:00:00	9:00:00	10:00:00	90	29	1865	2700	0.69
11966	CCTV20 20_100A สะพานกาญจนา-บางครุ	13.6389489	100.5538607	exat	working	2022-05-09T00:00:00	10:00:00	11:00:00	86	27	1987	2700	0.74
11967	CCTV20 20_100A สะพานกาญจนา-บางครุ	13.6389489	100.5538607	exat	working	2022-05-09T00:00:00	11:00:00	12:00:00	91	24	1836	2700	0.68
11968	CCTV20 20_100A สะพานกาญจนา-บางครุ	13.6389489	100.5538607	exat	working	2022-05-09T00:00:00	12:00:00	13:00:00	89	31	1893	2700	0.70
11969	CCTV20 20_100A สะพานกาญจนา-บางครุ	13.6389489	100.5538607	exat	working	2022-05-09T00:00:00	13:00:00	14:00:00	90	28	1860	2700	0.69
11970	CCTV20 20_100A สะพานกาญจนา-บางครุ	13.6389489	100.5538607	exat	working	2022-05-09T00:00:00	14:00:00	15:00:00	90	29	1938	2700	0.72
11971	CCTV20 20_100A สะพานกาญจนา-บางครุ	13.6389489	100.5538607	exat	working	2022-05-09T00:00:00	15:00:00	16:00:00	89	31	1915	2700	0.71
11972	CCTV20 20_100A สะพานกาญจนา-บางครุ	13.6389489	100.5538607	exat	working	2022-05-09T00:00:00	16:00:00	17:00:00	66	35	2897	2700	1.07
11973	CCTV20 20_100A สะพานกาญจนา-บางครุ	13.6389489	100.5538607	exat	working	2022-05-09T00:00:00	17:00:00	18:00:00	76	27	2004	2700	0.74
11974	CCTV20 20_100A สะพานกาญจนา-บางครุ	13.6389489	100.5538607	exat	working	2022-05-09T00:00:00	18:00:00	19:00:00	75	60	3595	2700	1.33
11975	CCTV20 20_100A สะพานกาญจนา-บางครุ	13.6389489	100.5538607	exat	working	2022-06-09T00:00:00	5:00:00	6:00:00	118	17	241	2700	0.09
11976	CCTV20 20_100A สะพานกาญจนา-บางครุ	13.6389489	100.5538607	exat	working	2022-06-09T00:00:00	6:00:00	7:00:00	84	54	729	2700	0.27
11977	CCTV20 20_100A สะพานกาญจนา-บางครุ	13.6389489	100.5538607	exat	working	2022-06-09T00:00:00	7:00:00	8:00:00	85	39	828	2700	0.31
11978	CCTV20 20_100A สะพานกาญจนา-บางครุ	13.6389489	100.5538607	exat	working	2022-06-09T00:00:00	8:00:00	9:00:00	88	31	1439	2700	0.53
11979	CCTV20 20_100A สะพานกาญจนา-บางครุ	13.6389489	100.5538607	exat	working	2022-06-09T00:00:00	9:00:00	10:00:00	87	27	1378	2700	0.51
11980	CCTV20 20_100A สะพานกาญจนา-บางครุ	13.6389489	100.5538607	exat	working	2022-06-09T00:00:00	10:00:00	11:00:00	84	26	1371	2700	0.51
11981	CCTV20 20_100A สะพานกาญจนา-บางครุ	13.6389489	100.5538607	exat	working	2022-06-09T00:00:00	11:00:00	12:00:00	91	22	1743	2700	0.65
11982	CCTV20 20_100A สะพานกาญจนา-บางครุ	13.6389489	100.5538607	exat	working	2022-06-09T00:00:00	12:00:00	13:00:00	85	29	1335	2700	0.49
11983	CCTV20 20_100A สะพานกาญจนา-บางครุ	13.6389489	100.5538607	exat	working	2022-06-09T00:00:00	13:00:00	14:00:00	86	28	1358	2700	0.50
11984	CCTV20 20_100A สะพานกาญจนา-บางครุ	13.6389489	100.5538607	exat	working	2022-06-09T00:00:00	14:00:00	15:00:00	85	27	1375	2700	0.51
11985	CCTV20 20_100A สะพานกาญจนา-บางครุ	13.6389489	100.5538607	exat	working	2022-06-09T00:00:00	15:00:00	16:00:00	85	28	1412	2700	0.52
11986	CCTV20 20_100A สะพานกาญจนา-บางครุ	13.6389489	100.5538607	exat	working	2022-06-09T00:00:00	16:00:00	17:00:00	76	34	2461	2700	0.91
11987	CCTV20 20_100A สะพานกาญจนา-บางครุ	13.6389489	100.5538607	exat	working	2022-06-09T00:00:00	17:00:00	18:00:00	83	30	2088	2700	0.77
11988	CCTV20 20_100A สะพานกาญจนา-บางครุ	13.6389489	100.5538607	exat	working	2022-06-09T00:00:00	18:00:00	19:00:00	81	39	2354	2700	0.87
11989	CCTV20 20_100A สะพานกาญจนา-บางครุ	13.6389489	100.5538607	exat	working	2022-07-09T00:00:00	5:00:00	6:00:00	127	14	108	2700	0.04
11990	CCTV20 20_100A สะพานกาญจนา-บางครุ	13.6389489	100.5538607	exat	working	2022-07-09T00:00:00	6:00:00	7:00:00	91	42	348	2700	0.13
11991	CCTV20 20_100A สะพานกาญจนา-บางครุ	13.6389489	100.5538607	exat	working	2022-07-09T00:00:00	7:00:00	8:00:00	91	27	540	2700	0.20
11992	CCTV20 20_100A สะพานกาญจนา-บางครุ	13.6389489	100.5538607	exat	working	2022-07-09T00:00:00	8:00:00	9:00:00	85	29	910	2700	0.34
11993	CCTV20 20_100A สะพานกาญจนา-บางครุ	13.6389489	100.5538607	exat	working	2022-07-09T00:00:00	9:00:00	10:00:00	84	24	861	2700	0.32
11994	CCTV20 20_100A สะพานกาญจนา-บางครุ	13.6389489	100.5538607	exat	working	2022-07-09T00:00:00	10:00:00	11:00:00	83	25	812	2700	0.30
11995	CCTV20 20_100A สะพานกาญจนา-บางครุ	13.6389489	100.5538607	exat	working	2022-07-09T00:00:00	11:00:00	12:00:00	91	20	1632	2700	0.60
11996	CCTV20 20_100A สะพานกาญจนา-บางครุ	13.6389489	100.5538607	exat	working	2022-07-09T00:00:00	12:00:00	13:00:00	81	28	753	2700	0.28
11997	CCTV20 20_100A สะพานกาญจนา-บางครุ	13.6389489	100.5538607	exat	working	2022-07-09T00:00:00	13:00:00	14:00:00	83	28	832	2700	0.31
11998	CCTV20 20_100A สะพานกาญจนา-บางครุ	13.6389489	100.5538607	exat	working	2022-07-09T00:00:00	14:00:00	15:00:00	80	25	815	2700	0.30
11999	CCTV20 20_100A สะพานกาญจนา-บางครุ	13.6389489	100.5538607	exat	working	2022-07-09T00:00:00	15:00:00	16:00:00	81	24	873	2700	0.32
12000	CCTV20 20_100A สะพานกาญจนา-บางครุ	13.6389489	100.5538607	exat	working	2022-07-09T00:00:00	16:00:00	17:00:00	85	33	1996	2700	0.74
12001	CCTV20 20_100A สะพานกาญจนา-บางครุ	13.6389489	100.5538607	exat	working	2022-07-09T00:00:00	17:00:00	18:00:00	91	33	2174	2700	0.81
12002	CCTV20 20_100A สะพานกาญจนา-บางครุ	13.6389489	100.5538607	exat	working	2022-07-09T00:00:00	18:00:00	19:00:00	87	18	1095	2700	0.41
12003	CCTV20 20_100A สะพานกาญจนา-บางครุ	13.6389489	100.5538607	exat	working	2022-08-09T00:00:00	5:00:00	6:00:00	128	9	179	2700	0.07
12004	CCTV20 20_100A สะพานกาญจนา-บางครุ	13.6389489	100.5538607	exat	working	2022-08-09T00:00:00	6:00:00	7:00:00	91	29	527	2700	0.20
12005	CCTV20 20_100A สะพานกาญจนา-บางครุ	13.6389489	100.5538607	exat	working	2022-08-09T00:00:00	7:00:00	8:00:00	91	33	629	2700	0.23
12006	CCTV20 20_100A สะพานกาญจนา-บางครุ	13.6389489	100.5538607	exat	working	2022-08-09T00:00:00	8:00:00	9:00:00	83	28	1001	2700	0.37
12007	CCTV20 20_100A สะพานกาญจนา-บางครุ	13.6389489	100.5538607	exat	working	2022-08-09T00:00:00	9:00:00	10:00:00	81	25	913	2700	0.34
12008	CCTV20 20_100A สะพานกาญจนา-บางครุ	13.6389489	100.5538607	exat	working	2022-08-09T00:00:00	10:00:00	11:00:00	80	24	878	2700	0.33
12009	CCTV20 20_100A สะพานกาญจนา-บางครุ	13.6389489	100.5538607	exat	working	2022-08-09T00:00:00	11:00:00	12:00:00	70	36	1779	2700	0.66
12010	CCTV20 20_100A สะพานกาญจนา-บางครุ	13.6389489	100.5538607	exat	working	2022-08-09T00:00:00	12:00:00	13:00:00	79	26	901	2700	0.33
12011	CCTV20 20_100A สะพานกาญจนา-บางครุ	13.6389489	100.5538607	exat	working	2022-08-09T00:00:00	13:00:00	14:00:00	79	26	902	2700	0.33
12012	CCTV20 20_100A สะพานกาญจนา-บางครุ	13.6389489	100.5538607	exat	working	2022-08-09T00:00:00	14:00:00	15:00:00	79	24	964	2700	0.36
12013	CCTV20 20_100A สะพานกาญจนา-บางครุ	13.6389489	100.5538607	exat	working	2022-08-09T00:00:00	15:00:00	16:00:00	79	25	953	2700	0.35
12014	CCTV20 20_100A สะพานกาญจนา-บางครุ	13.6389489	100.5538607	exat	working	2022-08-09T00:00:00	16:00:00	17:00:00	84	30	2011	2700	0.74
12015	CCTV20 20_100A สะพานกาญจนา-บางครุ	13.6389489	100.5538607	exat	working	2022-08-09T00:00:00	17:00:00	18:00:00	88	39	2167	2700	0.80
12016	CCTV20 20_100A สะพานกาญจนา-บางครุ	13.6389489	100.5538607	exat	working	2022-08-09T00:00:00	18:00:00	19:00:00	83	28	1639	2700	0.61
12017	CCTV20 20_100A สะพานกาญจนา-บางครุ	13.6389489	100.5538607	exat	working	2022-09-09T00:00:00	5:00:00	6:00:00	130	6	223	2700	0.08
12018	CCTV20 20_100A สะพานกาญจนา-บางครุ	13.6389489	100.5538607	exat	working	2022-09-09T00:00:00	6:00:00	7:00:00	91	17	733	2700	0.27
12019	CCTV20 20_100A สะพานกาญจนา-บางครุ	13.6389489	100.5538607	exat	working	2022-09-09T00:00:00	7:00:00	8:00:00	91	38	729	2700	0.27
12020	CCTV20 20_100A สะพานกาญจนา-บางครุ	13.6389489	100.5538607	exat	working	2022-09-09T00:00:00	8:00:00	9:00:00	81	27	1087	2700	0.40
12021	CCTV20 20_100A สะพานกาญจนา-บางครุ	13.6389489	100.5538607	exat	working	2022-09-09T00:00:00	9:00:00	10:00:00	77	25	995	2700	0.37
12022	CCTV20 20_100A สะพานกาญจนา-บางครุ	13.6389489	100.5538607	exat	working	2022-09-09T00:00:00	10:00:00	11:00:00	78	24	938	2700	0.35
12023	CCTV20 20_100A สะพานกาญจนา-บางครุ	13.6389489	100.5538607	exat	working	2022-09-09T00:00:00	11:00:00	12:00:00	50	53	2012	2700	0.75
12024	CCTV20 20_100A สะพานกาญจนา-บางครุ	13.6389489	100.5538607	exat	working	2022-09-09T00:00:00	12:00:00	13:00:00	77	23	1053	2700	0.39
12025	CCTV20 20_100A สะพานกาญจนา-บางครุ	13.6389489	100.5538607	exat	working	2022-09-09T00:00:00	13:00:00	14:00:00	75	25	1005	2700	0.37
12026	CCTV20 20_100A สะพานกาญจนา-บางครุ	13.6389489	100.5538607	exat	working	2022-09-09T00:00:00	14:00:00	15:00:00	79	24	1093	2700	0.40
12027	CCTV20 20_100A สะพานกาญจนา-บางครุ	13.6389489	100.5538607	exat	working	2022-09-09T00:00:00	15:00:00	16:00:00	78	27	1023	2700	0.38
12028	CCTV20 20_100A สะพานกาญจนา-บางครุ	13.6389489	100.5538607	exat	working	2022-09-09T00:00:00	16:00:00	17:00:00	83	27	2005	2700	0.74
12029	CCTV20 20_100A สะพานกาญจนา-บางครุ	13.6389489	100.5538607	exat	working	2022-09-09T00:00:00	17:00:00	18:00:00	86	45	2160	2700	0.80
12030	CCTV20 20_100A สะพานกาญจนา-บางครุ	13.6389489	100.5538607	exat	working	2022-09-09T00:00:00	18:00:00	19:00:00	80	38	2169	2700	0.80
12031	CCTV20 20_100A สะพานกาญจนา-บางครุ	13.6389489	100.5538607	exat	working	2022-10-09T00:00:00	5:00:00	6:00:00	127	8	239	2700	0.09
12032	CCTV20 20_100A สะพานกาญจนา-บางครุ	13.6389489	100.5538607	exat	holiday	2022-10-09T00:00:00	6:00:00	7:00:00	91	25	734	2700	0.27
12033	CCTV20 20_100A สะพานกาญจนา-บางครุ	13.6389489	100.5538607	exat	holiday	2022-10-09T00:00:00	7:00:00	8:00:00	91	24	365	2700	0.14
12034	CCTV20 20_100A สะพานกาญจนา-บางครุ	13.6389489	100.5538607	exat	holiday	2022-10-09T00:00:00	8:00:00	9:00:00	79	23	909	2700	0.34
12035	CCTV20 20_100A สะพานกาญจนา-บางครุ	13.6389489	100.5538607	exat	working	2022-10-09T00:00:00	9:00:00	10:00:00	76	20	895	2700	0.33
12036	CCTV20 20_100A สะพานกาญจนา-บางครุ	13.6389489	100.5538607	exat	working	2022-10-09T00:00:00	10:00:00	11:00:00	77	20	770	2700	0.29
12037	CCTV20 20_100A สะพานกาญจนา-บางครุ	13.6389489	100.5538607	exat	holiday	2022-10-09T00:00:00	11:00:00	12:00:00	91	30	1285	2700	0.48
12038	CCTV20 20_100A สะพานกาญจนา-บางครุ	13.6389489	100.5538607	exat	working	2022-10-09T00:00:00	12:00:00	13:00:00	77	22	747	2700	0.28
12039	CCTV20 20_100A สะพานกาญจนา-บางครุ	13.6389489	100.5538607	exat	working	2022-10-09T00:00:00	13:00:00	14:00:00	78	19	811	2700	0.30
12040	CCTV20 20_100A สะพานกาญจนา-บางครุ	13.6389489	100.5538607	exat	working	2022-10-09T00:00:00	14:00:00	15:00:00	77	18	873	2700	0.32
12041	CCTV20 20_100A สะพานกาญจนา-บางครุ	13.6389489	100.5538607	exat	working	2022-10-09T00:00:00	15:00:00	16:00:00	77	19	815	2700	0.30
12042	CCTV20 20_100A สะพานกาญจนา-บางครุ	13.6389489	100.5538607	exat	holiday	2022-10-09T00:00:00	16:00:00	17:00:00	80	51	2361	2700	0.87
12043	CCTV20 20_100A สะพานกาญจนา-บางครุ	13.6389489	100.5538607	exat	holiday	2022-10-09T00:00:00	17:00:00	18:00:00	24	80	2902	2700	1.07
12044	CCTV20 20_100A สะพานกาญจนา-บางครุ	13.6389489	100.5538607	exat	holiday	2022-10-09T00:00:00	18:00:00	19:00:00	32	62	2710	2700	1.00
12045	CCTV20 20_100A สะพานกาญจนา-บางครุ	13.6389489	100.5538607	exat	working	2022-11-09T00:00:00	5:00:00	6:00:00	78	5	133	2700	0.05
12046	CCTV20 20_100A สะพานกาญจนา-บางครุ	13.6389489	100.5538607	exat	holiday	2022-11-09T00:00:00	6:00:00	7:00:00	55	15	435	2700	0.16
12047	CCTV20 20_100A สะพานกาญจนา-บางครุ	13.6389489	100.5538607	exat	holiday	2022-11-09T00:00:00	7:00:00	8:00:00	55	15	202	2700	0.07
12048	CCTV20 20_100A สะพานกาญจนา-บางครุ	13.6389489	100.5538607	exat	holiday	2022-11-09T00:00:00	8:00:00	9:00:00	48	14	545	2700	0.20
12049	CCTV20 20_100A สะพานกาญจนา-บางครุ	13.6389489	100.5538607	exat	working	2022-11-09T00:00:00	9:00:00	10:00:00	46	12	527	2700	0.20
12050	CCTV20 20_100A สะพานกาญจนา-บางครุ	13.6389489	100.5538607	exat	working	2022-11-09T00:00:00	10:00:00	11:00:00	46	12	470	2700	0.17
12051	CCTV20 20_100A สะพานกาญจนา-บางครุ	13.6389489	100.5538607	exat	holiday	2022-11-09T00:00:00	11:00:00	12:00:00	55	18	762	2700	0.28
12052	CCTV20 20_100A สะพานกาญจนา-บางครุ	13.6389489	100.5538607	exat	working	2022-11-09T00:00:00	12:00:00	13:00:00	46	13	462	2700	0.17
12053	CCTV20 20_100A สะพานกาญจนา-บางครุ	13.6389489	100.5538607	exat	working	2022-11-09T00:00:00	13:00:00	14:00:00	47	12	489	2700	0.18
12054	CCTV20 20_100A สะพานกาญจนา-บางครุ	13.6389489	100.5538607	exat	working	2022-11-09T00:00:00	14:00:00	15:00:00	47	11	521	2700	0.19
12055	CCTV20 20_100A สะพานกาญจนา-บางครุ	13.6389489	100.5538607	exat	working	2022-11-09T00:00:00	15:00:00	16:00:00	46	11	481	2700	0.18
12056	CCTV20 20_100A สะพานกาญจนา-บางครุ	13.6389489	100.5538607	exat	holiday	2022-11-09T00:00:00	16:00:00	17:00:00	48	31	1419	2700	0.53
12057	CCTV20 20_100A สะพานกาญจนา-บางครุ	13.6389489	100.5538607	exat	holiday	2022-11-09T00:00:00	17:00:00	18:00:00	14	122	1743	2700	0.65
12058	CCTV20 20_100A สะพานกาญจนา-บางครุ	13.6389489	100.5538607	exat	holiday	2022-11-09T00:00:00	18:00:00	19:00:00	20	121	1623	2700	0.60
12059	CCTV24 1_700A บางครุ-บางขุนเทียน	13.6312088	100.5335246	exat	working	2022-05-09T00:00:00	5:00:00	6:00:00	104	24	822	2700	0.30
12060	CCTV24 1_700A บางครุ-บางขุนเทียน	13.6312088	100.5335246	exat	working	2022-05-09T00:00:00	6:00:00	7:00:00	73	68	2551	2700	0.94
12061	CCTV24 1_700A บางครุ-บางขุนเทียน	13.6312088	100.5335246	exat	working	2022-05-09T00:00:00	7:00:00	8:00:00	54	28	1800	2700	0.67
12062	CCTV24 1_700A บางครุ-บางขุนเทียน	13.6312088	100.5335246	exat	working	2022-05-09T00:00:00	8:00:00	9:00:00	63	59	3804	2700	1.41
12063	CCTV24 1_700A บางครุ-บางขุนเทียน	13.6312088	100.5335246	exat	working	2022-05-09T00:00:00	9:00:00	10:00:00	59	55	3722	2700	1.38
12064	CCTV24 1_700A บางครุ-บางขุนเทียน	13.6312088	100.5335246	exat	working	2022-05-09T00:00:00	10:00:00	11:00:00	60	55	3742	2700	1.39
12065	CCTV24 1_700A บางครุ-บางขุนเทียน	13.6312088	100.5335246	exat	working	2022-05-09T00:00:00	11:00:00	12:00:00	80	77	2168	2700	0.80
12066	CCTV24 1_700A บางครุ-บางขุนเทียน	13.6312088	100.5335246	exat	working	2022-05-09T00:00:00	12:00:00	13:00:00	61	56	3775	2700	1.40
12067	CCTV24 1_700A บางครุ-บางขุนเทียน	13.6312088	100.5335246	exat	working	2022-05-09T00:00:00	13:00:00	14:00:00	61	58	3785	2700	1.40
12068	CCTV24 1_700A บางครุ-บางขุนเทียน	13.6312088	100.5335246	exat	working	2022-05-09T00:00:00	14:00:00	15:00:00	59	57	3746	2700	1.39
12069	CCTV24 1_700A บางครุ-บางขุนเทียน	13.6312088	100.5335246	exat	working	2022-05-09T00:00:00	15:00:00	16:00:00	62	59	3585	2700	1.33
12070	CCTV24 1_700A บางครุ-บางขุนเทียน	13.6312088	100.5335246	exat	working	2022-05-09T00:00:00	16:00:00	17:00:00	91	46	4722	2700	1.75
12071	CCTV24 1_700A บางครุ-บางขุนเทียน	13.6312088	100.5335246	exat	working	2022-05-09T00:00:00	17:00:00	18:00:00	90	34	3105	2700	1.15
12072	CCTV24 1_700A บางครุ-บางขุนเทียน	13.6312088	100.5335246	exat	working	2022-05-09T00:00:00	18:00:00	19:00:00	78	39	3441	2700	1.27
12073	CCTV24 1_700A บางครุ-บางขุนเทียน	13.6312088	100.5335246	exat	working	2022-06-09T00:00:00	5:00:00	6:00:00	105	23	796	2700	0.29
12074	CCTV24 1_700A บางครุ-บางขุนเทียน	13.6312088	100.5335246	exat	working	2022-06-09T00:00:00	6:00:00	7:00:00	73	68	2541	2700	0.94
12075	CCTV24 1_700A บางครุ-บางขุนเทียน	13.6312088	100.5335246	exat	working	2022-06-09T00:00:00	7:00:00	8:00:00	54	28	1826	2700	0.68
12076	CCTV24 1_700A บางครุ-บางขุนเทียน	13.6312088	100.5335246	exat	working	2022-06-09T00:00:00	8:00:00	9:00:00	63	59	3805	2700	1.41
12077	CCTV24 1_700A บางครุ-บางขุนเทียน	13.6312088	100.5335246	exat	working	2022-06-09T00:00:00	9:00:00	10:00:00	59	56	3772	2700	1.40
12078	CCTV24 1_700A บางครุ-บางขุนเทียน	13.6312088	100.5335246	exat	working	2022-06-09T00:00:00	10:00:00	11:00:00	60	56	3746	2700	1.39
12079	CCTV24 1_700A บางครุ-บางขุนเทียน	13.6312088	100.5335246	exat	working	2022-06-09T00:00:00	11:00:00	12:00:00	73	68	2217	2700	0.82
12080	CCTV24 1_700A บางครุ-บางขุนเทียน	13.6312088	100.5335246	exat	working	2022-06-09T00:00:00	12:00:00	13:00:00	60	57	3764	2700	1.39
12081	CCTV24 1_700A บางครุ-บางขุนเทียน	13.6312088	100.5335246	exat	working	2022-06-09T00:00:00	13:00:00	14:00:00	62	56	3719	2700	1.38
12082	CCTV24 1_700A บางครุ-บางขุนเทียน	13.6312088	100.5335246	exat	working	2022-06-09T00:00:00	14:00:00	15:00:00	59	56	3760	2700	1.39
12083	CCTV24 1_700A บางครุ-บางขุนเทียน	13.6312088	100.5335246	exat	working	2022-06-09T00:00:00	15:00:00	16:00:00	60	57	3622	2700	1.34
12084	CCTV24 1_700A บางครุ-บางขุนเทียน	13.6312088	100.5335246	exat	working	2022-06-09T00:00:00	16:00:00	17:00:00	69	77	4275	2700	1.58
12085	CCTV24 1_700A บางครุ-บางขุนเทียน	13.6312088	100.5335246	exat	working	2022-06-09T00:00:00	17:00:00	18:00:00	68	59	3910	2700	1.45
12086	CCTV24 1_700A บางครุ-บางขุนเทียน	13.6312088	100.5335246	exat	working	2022-06-09T00:00:00	18:00:00	19:00:00	68	42	3255	2700	1.21
12087	CCTV24 1_700A บางครุ-บางขุนเทียน	13.6312088	100.5335246	exat	working	2022-07-09T00:00:00	5:00:00	6:00:00	105	22	798	2700	0.30
12088	CCTV24 1_700A บางครุ-บางขุนเทียน	13.6312088	100.5335246	exat	working	2022-07-09T00:00:00	6:00:00	7:00:00	73	68	2512	2700	0.93
12089	CCTV24 1_700A บางครุ-บางขุนเทียน	13.6312088	100.5335246	exat	working	2022-07-09T00:00:00	7:00:00	8:00:00	54	28	1807	2700	0.67
12090	CCTV24 1_700A บางครุ-บางขุนเทียน	13.6312088	100.5335246	exat	working	2022-07-09T00:00:00	8:00:00	9:00:00	63	59	3807	2700	1.41
12091	CCTV24 1_700A บางครุ-บางขุนเทียน	13.6312088	100.5335246	exat	working	2022-07-09T00:00:00	9:00:00	10:00:00	58	57	3779	2700	1.40
12092	CCTV24 1_700A บางครุ-บางขุนเทียน	13.6312088	100.5335246	exat	working	2022-07-09T00:00:00	10:00:00	11:00:00	61	57	3749	2700	1.39
12093	CCTV24 1_700A บางครุ-บางขุนเทียน	13.6312088	100.5335246	exat	working	2022-07-09T00:00:00	11:00:00	12:00:00	67	59	2187	2700	0.81
12094	CCTV24 1_700A บางครุ-บางขุนเทียน	13.6312088	100.5335246	exat	working	2022-07-09T00:00:00	12:00:00	13:00:00	59	57	3778	2700	1.40
12095	CCTV24 1_700A บางครุ-บางขุนเทียน	13.6312088	100.5335246	exat	working	2022-07-09T00:00:00	13:00:00	14:00:00	62	54	3755	2700	1.39
12096	CCTV24 1_700A บางครุ-บางขุนเทียน	13.6312088	100.5335246	exat	working	2022-07-09T00:00:00	14:00:00	15:00:00	60	54	3724	2700	1.38
12097	CCTV24 1_700A บางครุ-บางขุนเทียน	13.6312088	100.5335246	exat	working	2022-07-09T00:00:00	15:00:00	16:00:00	58	55	3627	2700	1.34
12098	CCTV24 1_700A บางครุ-บางขุนเทียน	13.6312088	100.5335246	exat	working	2022-07-09T00:00:00	16:00:00	17:00:00	47	108	3825	2700	1.42
12099	CCTV24 1_700A บางครุ-บางขุนเทียน	13.6312088	100.5335246	exat	working	2022-07-09T00:00:00	17:00:00	18:00:00	47	83	4723	2700	1.75
12100	CCTV24 1_700A บางครุ-บางขุนเทียน	13.6312088	100.5335246	exat	working	2022-07-09T00:00:00	18:00:00	19:00:00	57	44	3100	2700	1.15
12101	CCTV24 1_700A บางครุ-บางขุนเทียน	13.6312088	100.5335246	exat	working	2022-08-09T00:00:00	5:00:00	6:00:00	105	23	817	2700	0.30
12102	CCTV24 1_700A บางครุ-บางขุนเทียน	13.6312088	100.5335246	exat	working	2022-08-09T00:00:00	6:00:00	7:00:00	73	68	2533	2700	0.94
12103	CCTV24 1_700A บางครุ-บางขุนเทียน	13.6312088	100.5335246	exat	working	2022-08-09T00:00:00	7:00:00	8:00:00	54	28	1827	2700	0.68
12104	CCTV24 1_700A บางครุ-บางขุนเทียน	13.6312088	100.5335246	exat	working	2022-08-09T00:00:00	8:00:00	9:00:00	63	59	3806	2700	1.41
12105	CCTV24 1_700A บางครุ-บางขุนเทียน	13.6312088	100.5335246	exat	working	2022-08-09T00:00:00	9:00:00	10:00:00	60	56	3764	2700	1.39
12106	CCTV24 1_700A บางครุ-บางขุนเทียน	13.6312088	100.5335246	exat	working	2022-08-09T00:00:00	10:00:00	11:00:00	60	57	3744	2700	1.39
12107	CCTV24 1_700A บางครุ-บางขุนเทียน	13.6312088	100.5335246	exat	working	2022-08-09T00:00:00	11:00:00	12:00:00	73	68	2213	2700	0.82
12108	CCTV24 1_700A บางครุ-บางขุนเทียน	13.6312088	100.5335246	exat	working	2022-08-09T00:00:00	12:00:00	13:00:00	58	57	3775	2700	1.40
12109	CCTV24 1_700A บางครุ-บางขุนเทียน	13.6312088	100.5335246	exat	working	2022-08-09T00:00:00	13:00:00	14:00:00	62	55	3753	2700	1.39
12110	CCTV24 1_700A บางครุ-บางขุนเทียน	13.6312088	100.5335246	exat	working	2022-08-09T00:00:00	14:00:00	15:00:00	61	56	3704	2700	1.37
12111	CCTV24 1_700A บางครุ-บางขุนเทียน	13.6312088	100.5335246	exat	working	2022-08-09T00:00:00	15:00:00	16:00:00	60	56	3667	2700	1.36
12112	CCTV24 1_700A บางครุ-บางขุนเทียน	13.6312088	100.5335246	exat	working	2022-08-09T00:00:00	16:00:00	17:00:00	69	76	3896	2700	1.44
12113	CCTV24 1_700A บางครุ-บางขุนเทียน	13.6312088	100.5335246	exat	working	2022-08-09T00:00:00	17:00:00	18:00:00	67	55	3763	2700	1.39
12114	CCTV24 1_700A บางครุ-บางขุนเทียน	13.6312088	100.5335246	exat	working	2022-08-09T00:00:00	18:00:00	19:00:00	74	32	2271	2700	0.84
12115	CCTV24 1_700A บางครุ-บางขุนเทียน	13.6312088	100.5335246	exat	working	2022-09-09T00:00:00	5:00:00	6:00:00	103	23	818	2700	0.30
12116	CCTV24 1_700A บางครุ-บางขุนเทียน	13.6312088	100.5335246	exat	working	2022-09-09T00:00:00	6:00:00	7:00:00	73	68	2568	2700	0.95
12117	CCTV24 1_700A บางครุ-บางขุนเทียน	13.6312088	100.5335246	exat	working	2022-09-09T00:00:00	7:00:00	8:00:00	54	28	1810	2700	0.67
12118	CCTV24 1_700A บางครุ-บางขุนเทียน	13.6312088	100.5335246	exat	working	2022-09-09T00:00:00	8:00:00	9:00:00	63	59	3823	2700	1.42
12119	CCTV24 1_700A บางครุ-บางขุนเทียน	13.6312088	100.5335246	exat	working	2022-09-09T00:00:00	9:00:00	10:00:00	61	55	3724	2700	1.38
12120	CCTV24 1_700A บางครุ-บางขุนเทียน	13.6312088	100.5335246	exat	working	2022-09-09T00:00:00	10:00:00	11:00:00	59	57	3778	2700	1.40
12121	CCTV24 1_700A บางครุ-บางขุนเทียน	13.6312088	100.5335246	exat	working	2022-09-09T00:00:00	11:00:00	12:00:00	80	77	2174	2700	0.81
12122	CCTV24 1_700A บางครุ-บางขุนเทียน	13.6312088	100.5335246	exat	working	2022-09-09T00:00:00	12:00:00	13:00:00	57	56	3789	2700	1.40
12123	CCTV24 1_700A บางครุ-บางขุนเทียน	13.6312088	100.5335246	exat	working	2022-09-09T00:00:00	13:00:00	14:00:00	62	57	3783	2700	1.40
12124	CCTV24 1_700A บางครุ-บางขุนเทียน	13.6312088	100.5335246	exat	working	2022-09-09T00:00:00	14:00:00	15:00:00	62	58	3594	2700	1.33
12125	CCTV24 1_700A บางครุ-บางขุนเทียน	13.6312088	100.5335246	exat	working	2022-09-09T00:00:00	15:00:00	16:00:00	61	57	3715	2700	1.38
12126	CCTV24 1_700A บางครุ-บางขุนเทียน	13.6312088	100.5335246	exat	working	2022-09-09T00:00:00	16:00:00	17:00:00	91	45	3996	2700	1.48
12127	CCTV24 1_700A บางครุ-บางขุนเทียน	13.6312088	100.5335246	exat	working	2022-09-09T00:00:00	17:00:00	18:00:00	86	26	2822	2700	1.05
12128	CCTV24 1_700A บางครุ-บางขุนเทียน	13.6312088	100.5335246	exat	working	2022-09-09T00:00:00	18:00:00	19:00:00	91	19	1450	2700	0.54
12129	CCTV24 1_700A บางครุ-บางขุนเทียน	13.6312088	100.5335246	exat	working	2022-10-09T00:00:00	5:00:00	6:00:00	110	6	545	2700	0.20
12130	CCTV24 1_700A บางครุ-บางขุนเทียน	13.6312088	100.5335246	exat	holiday	2022-10-09T00:00:00	6:00:00	7:00:00	77	17	1621	2700	0.60
12131	CCTV24 1_700A บางครุ-บางขุนเทียน	13.6312088	100.5335246	exat	holiday	2022-10-09T00:00:00	7:00:00	8:00:00	90	28	2545	2700	0.94
12132	CCTV24 1_700A บางครุ-บางขุนเทียน	13.6312088	100.5335246	exat	holiday	2022-10-09T00:00:00	8:00:00	9:00:00	91	33	2369	2700	0.88
12133	CCTV24 1_700A บางครุ-บางขุนเทียน	13.6312088	100.5335246	exat	working	2022-10-09T00:00:00	9:00:00	10:00:00	90	32	2189	2700	0.81
12134	CCTV24 1_700A บางครุ-บางขุนเทียน	13.6312088	100.5335246	exat	working	2022-10-09T00:00:00	10:00:00	11:00:00	90	28	2268	2700	0.84
12135	CCTV24 1_700A บางครุ-บางขุนเทียน	13.6312088	100.5335246	exat	holiday	2022-10-09T00:00:00	11:00:00	12:00:00	91	48	4144	2700	1.53
12136	CCTV24 1_700A บางครุ-บางขุนเทียน	13.6312088	100.5335246	exat	working	2022-10-09T00:00:00	12:00:00	13:00:00	87	29	2283	2700	0.85
12137	CCTV24 1_700A บางครุ-บางขุนเทียน	13.6312088	100.5335246	exat	working	2022-10-09T00:00:00	13:00:00	14:00:00	90	29	2266	2700	0.84
12138	CCTV24 1_700A บางครุ-บางขุนเทียน	13.6312088	100.5335246	exat	working	2022-10-09T00:00:00	14:00:00	15:00:00	89	29	2366	2700	0.88
12139	CCTV24 1_700A บางครุ-บางขุนเทียน	13.6312088	100.5335246	exat	working	2022-10-09T00:00:00	15:00:00	16:00:00	87	32	2225	2700	0.82
12140	CCTV24 1_700A บางครุ-บางขุนเทียน	13.6312088	100.5335246	exat	holiday	2022-10-09T00:00:00	16:00:00	17:00:00	91	38	3083	2700	1.14
12141	CCTV24 1_700A บางครุ-บางขุนเทียน	13.6312088	100.5335246	exat	holiday	2022-10-09T00:00:00	17:00:00	18:00:00	91	31	2915	2700	1.08
12142	CCTV24 1_700A บางครุ-บางขุนเทียน	13.6312088	100.5335246	exat	holiday	2022-10-09T00:00:00	18:00:00	19:00:00	91	16	914	2700	0.34
12143	CCTV24 1_700A บางครุ-บางขุนเทียน	13.6312088	100.5335246	exat	working	2022-11-09T00:00:00	5:00:00	6:00:00	65	3	330	2700	0.12
12144	CCTV24 1_700A บางครุ-บางขุนเทียน	13.6312088	100.5335246	exat	holiday	2022-11-09T00:00:00	6:00:00	7:00:00	46	10	984	2700	0.36
12145	CCTV24 1_700A บางครุ-บางขุนเทียน	13.6312088	100.5335246	exat	holiday	2022-11-09T00:00:00	7:00:00	8:00:00	54	17	1521	2700	0.56
12146	CCTV24 1_700A บางครุ-บางขุนเทียน	13.6312088	100.5335246	exat	holiday	2022-11-09T00:00:00	8:00:00	9:00:00	55	20	1419	2700	0.53
12147	CCTV24 1_700A บางครุ-บางขุนเทียน	13.6312088	100.5335246	exat	working	2022-11-09T00:00:00	9:00:00	10:00:00	54	19	1316	2700	0.49
12148	CCTV24 1_700A บางครุ-บางขุนเทียน	13.6312088	100.5335246	exat	working	2022-11-09T00:00:00	10:00:00	11:00:00	54	17	1366	2700	0.51
12149	CCTV24 1_700A บางครุ-บางขุนเทียน	13.6312088	100.5335246	exat	holiday	2022-11-09T00:00:00	11:00:00	12:00:00	55	29	2512	2700	0.93
12150	CCTV24 1_700A บางครุ-บางขุนเทียน	13.6312088	100.5335246	exat	working	2022-11-09T00:00:00	12:00:00	13:00:00	53	18	1347	2700	0.50
12151	CCTV24 1_700A บางครุ-บางขุนเทียน	13.6312088	100.5335246	exat	working	2022-11-09T00:00:00	13:00:00	14:00:00	54	18	1362	2700	0.50
12152	CCTV24 1_700A บางครุ-บางขุนเทียน	13.6312088	100.5335246	exat	working	2022-11-09T00:00:00	14:00:00	15:00:00	54	18	1430	2700	0.53
12153	CCTV24 1_700A บางครุ-บางขุนเทียน	13.6312088	100.5335246	exat	working	2022-11-09T00:00:00	15:00:00	16:00:00	52	19	1333	2700	0.49
12154	CCTV24 1_700A บางครุ-บางขุนเทียน	13.6312088	100.5335246	exat	holiday	2022-11-09T00:00:00	16:00:00	17:00:00	55	23	1854	2700	0.69
12155	CCTV24 1_700A บางครุ-บางขุนเทียน	13.6312088	100.5335246	exat	holiday	2022-11-09T00:00:00	17:00:00	18:00:00	55	19	1738	2700	0.64
12156	CCTV24 1_700A บางครุ-บางขุนเทียน	13.6312088	100.5335246	exat	holiday	2022-11-09T00:00:00	18:00:00	19:00:00	55	10	544	2700	0.20
12157	CCTV34 12_500A บางครุ-บางขุนเทียน 	13.6257061	100.4698372	exat	working	2022-05-09T00:00:00	5:00:00	6:00:00	90	14	377	2700	0.14
12158	CCTV34 12_500A บางครุ-บางขุนเทียน 	13.6257061	100.4698372	exat	working	2022-05-09T00:00:00	6:00:00	7:00:00	64	43	1076	2700	0.40
12159	CCTV34 12_500A บางครุ-บางขุนเทียน 	13.6257061	100.4698372	exat	working	2022-05-09T00:00:00	7:00:00	8:00:00	54	70	2882	2700	1.07
12160	CCTV34 12_500A บางครุ-บางขุนเทียน 	13.6257061	100.4698372	exat	working	2022-05-09T00:00:00	8:00:00	9:00:00	55	51	1800	2700	0.67
12161	CCTV34 12_500A บางครุ-บางขุนเทียน 	13.6257061	100.4698372	exat	working	2022-05-09T00:00:00	9:00:00	10:00:00	52	46	1642	2700	0.61
12162	CCTV34 12_500A บางครุ-บางขุนเทียน 	13.6257061	100.4698372	exat	working	2022-05-09T00:00:00	10:00:00	11:00:00	52	49	1765	2700	0.65
12163	CCTV34 12_500A บางครุ-บางขุนเทียน 	13.6257061	100.4698372	exat	working	2022-05-09T00:00:00	11:00:00	12:00:00	30	153	3441	2700	1.27
12164	CCTV34 12_500A บางครุ-บางขุนเทียน 	13.6257061	100.4698372	exat	working	2022-05-09T00:00:00	12:00:00	13:00:00	53	49	1749	2700	0.65
12165	CCTV34 12_500A บางครุ-บางขุนเทียน 	13.6257061	100.4698372	exat	working	2022-05-09T00:00:00	13:00:00	14:00:00	49	49	1818	2700	0.67
12166	CCTV34 12_500A บางครุ-บางขุนเทียน 	13.6257061	100.4698372	exat	working	2022-05-09T00:00:00	14:00:00	15:00:00	50	47	1710	2700	0.63
12167	CCTV34 12_500A บางครุ-บางขุนเทียน 	13.6257061	100.4698372	exat	working	2022-05-09T00:00:00	15:00:00	16:00:00	51	53	1720	2700	0.64
12168	CCTV34 12_500A บางครุ-บางขุนเทียน 	13.6257061	100.4698372	exat	working	2022-05-09T00:00:00	16:00:00	17:00:00	91	36	3110	2700	1.15
12169	CCTV34 12_500A บางครุ-บางขุนเทียน 	13.6257061	100.4698372	exat	working	2022-05-09T00:00:00	17:00:00	18:00:00	91	58	4323	2700	1.60
12170	CCTV34 12_500A บางครุ-บางขุนเทียน 	13.6257061	100.4698372	exat	working	2022-05-09T00:00:00	18:00:00	19:00:00	91	29	1826	2700	0.68
12171	CCTV34 12_500A บางครุ-บางขุนเทียน 	13.6257061	100.4698372	exat	working	2022-06-09T00:00:00	5:00:00	6:00:00	90	15	332	2700	0.12
12172	CCTV34 12_500A บางครุ-บางขุนเทียน 	13.6257061	100.4698372	exat	working	2022-06-09T00:00:00	6:00:00	7:00:00	64	43	1091	2700	0.40
12173	CCTV34 12_500A บางครุ-บางขุนเทียน 	13.6257061	100.4698372	exat	working	2022-06-09T00:00:00	7:00:00	8:00:00	54	70	2884	2700	1.07
12174	CCTV34 12_500A บางครุ-บางขุนเทียน 	13.6257061	100.4698372	exat	working	2022-06-09T00:00:00	8:00:00	9:00:00	55	51	1801	2700	0.67
12175	CCTV34 12_500A บางครุ-บางขุนเทียน 	13.6257061	100.4698372	exat	working	2022-06-09T00:00:00	9:00:00	10:00:00	53	46	1707	2700	0.63
12176	CCTV34 12_500A บางครุ-บางขุนเทียน 	13.6257061	100.4698372	exat	working	2022-06-09T00:00:00	10:00:00	11:00:00	52	47	1739	2700	0.64
12177	CCTV34 12_500A บางครุ-บางขุนเทียน 	13.6257061	100.4698372	exat	working	2022-06-09T00:00:00	11:00:00	12:00:00	29	167	3600	2700	1.33
12178	CCTV34 12_500A บางครุ-บางขุนเทียน 	13.6257061	100.4698372	exat	working	2022-06-09T00:00:00	12:00:00	13:00:00	52	49	1694	2700	0.63
12179	CCTV34 12_500A บางครุ-บางขุนเทียน 	13.6257061	100.4698372	exat	working	2022-06-09T00:00:00	13:00:00	14:00:00	49	47	1793	2700	0.66
12180	CCTV34 12_500A บางครุ-บางขุนเทียน 	13.6257061	100.4698372	exat	working	2022-06-09T00:00:00	14:00:00	15:00:00	50	48	1758	2700	0.65
12181	CCTV34 12_500A บางครุ-บางขุนเทียน 	13.6257061	100.4698372	exat	working	2022-06-09T00:00:00	15:00:00	16:00:00	50	51	1745	2700	0.65
12182	CCTV34 12_500A บางครุ-บางขุนเทียน 	13.6257061	100.4698372	exat	working	2022-06-09T00:00:00	16:00:00	17:00:00	77	78	3606	2700	1.34
12183	CCTV34 12_500A บางครุ-บางขุนเทียน 	13.6257061	100.4698372	exat	working	2022-06-09T00:00:00	17:00:00	18:00:00	80	87	4910	2700	1.82
12184	CCTV34 12_500A บางครุ-บางขุนเทียน 	13.6257061	100.4698372	exat	working	2022-06-09T00:00:00	18:00:00	19:00:00	76	35	1903	2700	0.70
12185	CCTV34 12_500A บางครุ-บางขุนเทียน 	13.6257061	100.4698372	exat	working	2022-07-09T00:00:00	5:00:00	6:00:00	91	15	352	2700	0.13
12186	CCTV34 12_500A บางครุ-บางขุนเทียน 	13.6257061	100.4698372	exat	working	2022-07-09T00:00:00	6:00:00	7:00:00	64	43	1078	2700	0.40
12187	CCTV34 12_500A บางครุ-บางขุนเทียน 	13.6257061	100.4698372	exat	working	2022-07-09T00:00:00	7:00:00	8:00:00	54	70	2897	2700	1.07
12188	CCTV34 12_500A บางครุ-บางขุนเทียน 	13.6257061	100.4698372	exat	working	2022-07-09T00:00:00	8:00:00	9:00:00	55	51	1808	2700	0.67
12189	CCTV34 12_500A บางครุ-บางขุนเทียน 	13.6257061	100.4698372	exat	working	2022-07-09T00:00:00	9:00:00	10:00:00	53	46	1803	2700	0.67
12190	CCTV34 12_500A บางครุ-บางขุนเทียน 	13.6257061	100.4698372	exat	working	2022-07-09T00:00:00	10:00:00	11:00:00	52	45	1750	2700	0.65
12191	CCTV34 12_500A บางครุ-บางขุนเทียน 	13.6257061	100.4698372	exat	working	2022-07-09T00:00:00	11:00:00	12:00:00	29	181	3736	2700	1.38
12192	CCTV34 12_500A บางครุ-บางขุนเทียน 	13.6257061	100.4698372	exat	working	2022-07-09T00:00:00	12:00:00	13:00:00	51	49	1660	2700	0.61
12193	CCTV34 12_500A บางครุ-บางขุนเทียน 	13.6257061	100.4698372	exat	working	2022-07-09T00:00:00	13:00:00	14:00:00	49	46	1787	2700	0.66
12194	CCTV34 12_500A บางครุ-บางขุนเทียน 	13.6257061	100.4698372	exat	working	2022-07-09T00:00:00	14:00:00	15:00:00	51	49	1773	2700	0.66
12195	CCTV34 12_500A บางครุ-บางขุนเทียน 	13.6257061	100.4698372	exat	working	2022-07-09T00:00:00	15:00:00	16:00:00	50	48	1756	2700	0.65
12196	CCTV34 12_500A บางครุ-บางขุนเทียน 	13.6257061	100.4698372	exat	working	2022-07-09T00:00:00	16:00:00	17:00:00	63	120	4197	2700	1.55
12197	CCTV34 12_500A บางครุ-บางขุนเทียน 	13.6257061	100.4698372	exat	working	2022-07-09T00:00:00	17:00:00	18:00:00	69	116	5424	2700	2.01
12198	CCTV34 12_500A บางครุ-บางขุนเทียน 	13.6257061	100.4698372	exat	working	2022-07-09T00:00:00	18:00:00	19:00:00	61	42	1988	2700	0.74
12199	CCTV34 12_500A บางครุ-บางขุนเทียน 	13.6257061	100.4698372	exat	working	2022-08-09T00:00:00	5:00:00	6:00:00	89	15	367	2700	0.14
12200	CCTV34 12_500A บางครุ-บางขุนเทียน 	13.6257061	100.4698372	exat	working	2022-08-09T00:00:00	6:00:00	7:00:00	64	43	1074	2700	0.40
12201	CCTV34 12_500A บางครุ-บางขุนเทียน 	13.6257061	100.4698372	exat	working	2022-08-09T00:00:00	7:00:00	8:00:00	54	70	2914	2700	1.08
12202	CCTV34 12_500A บางครุ-บางขุนเทียน 	13.6257061	100.4698372	exat	working	2022-08-09T00:00:00	8:00:00	9:00:00	55	51	1809	2700	0.67
12203	CCTV34 12_500A บางครุ-บางขุนเทียน 	13.6257061	100.4698372	exat	working	2022-08-09T00:00:00	9:00:00	10:00:00	52	47	1751	2700	0.65
12204	CCTV34 12_500A บางครุ-บางขุนเทียน 	13.6257061	100.4698372	exat	working	2022-08-09T00:00:00	10:00:00	11:00:00	53	45	1748	2700	0.65
12205	CCTV34 12_500A บางครุ-บางขุนเทียน 	13.6257061	100.4698372	exat	working	2022-08-09T00:00:00	11:00:00	12:00:00	29	182	3740	2700	1.39
12206	CCTV34 12_500A บางครุ-บางขุนเทียน 	13.6257061	100.4698372	exat	working	2022-08-09T00:00:00	12:00:00	13:00:00	50	48	1741	2700	0.64
12207	CCTV34 12_500A บางครุ-บางขุนเทียน 	13.6257061	100.4698372	exat	working	2022-08-09T00:00:00	13:00:00	14:00:00	51	46	1784	2700	0.66
12208	CCTV34 12_500A บางครุ-บางขุนเทียน 	13.6257061	100.4698372	exat	working	2022-08-09T00:00:00	14:00:00	15:00:00	50	49	1771	2700	0.66
12209	CCTV34 12_500A บางครุ-บางขุนเทียน 	13.6257061	100.4698372	exat	working	2022-08-09T00:00:00	15:00:00	16:00:00	50	49	1701	2700	0.63
12210	CCTV34 12_500A บางครุ-บางขุนเทียน 	13.6257061	100.4698372	exat	working	2022-08-09T00:00:00	16:00:00	17:00:00	66	148	3904	2700	1.45
12211	CCTV34 12_500A บางครุ-บางขุนเทียน 	13.6257061	100.4698372	exat	working	2022-08-09T00:00:00	17:00:00	18:00:00	80	104	4897	2700	1.81
12212	CCTV34 12_500A บางครุ-บางขุนเทียน 	13.6257061	100.4698372	exat	working	2022-08-09T00:00:00	18:00:00	19:00:00	76	111	3723	2700	1.38
12213	CCTV34 12_500A บางครุ-บางขุนเทียน 	13.6257061	100.4698372	exat	working	2022-09-09T00:00:00	5:00:00	6:00:00	91	15	374	2700	0.14
12214	CCTV34 12_500A บางครุ-บางขุนเทียน 	13.6257061	100.4698372	exat	working	2022-09-09T00:00:00	6:00:00	7:00:00	64	43	1074	2700	0.40
12215	CCTV34 12_500A บางครุ-บางขุนเทียน 	13.6257061	100.4698372	exat	working	2022-09-09T00:00:00	7:00:00	8:00:00	54	70	2922	2700	1.08
12216	CCTV34 12_500A บางครุ-บางขุนเทียน 	13.6257061	100.4698372	exat	working	2022-09-09T00:00:00	8:00:00	9:00:00	55	51	1825	2700	0.68
12217	CCTV34 12_500A บางครุ-บางขุนเทียน 	13.6257061	100.4698372	exat	working	2022-09-09T00:00:00	9:00:00	10:00:00	51	48	1753	2700	0.65
12218	CCTV34 12_500A บางครุ-บางขุนเทียน 	13.6257061	100.4698372	exat	working	2022-09-09T00:00:00	10:00:00	11:00:00	53	46	1732	2700	0.64
12219	CCTV34 12_500A บางครุ-บางขุนเทียน 	13.6257061	100.4698372	exat	working	2022-09-09T00:00:00	11:00:00	12:00:00	29	181	3787	2700	1.40
12220	CCTV34 12_500A บางครุ-บางขุนเทียน 	13.6257061	100.4698372	exat	working	2022-09-09T00:00:00	12:00:00	13:00:00	50	47	1817	2700	0.67
12221	CCTV34 12_500A บางครุ-บางขุนเทียน 	13.6257061	100.4698372	exat	working	2022-09-09T00:00:00	13:00:00	14:00:00	52	46	1783	2700	0.66
12222	CCTV34 12_500A บางครุ-บางขุนเทียน 	13.6257061	100.4698372	exat	working	2022-09-09T00:00:00	14:00:00	15:00:00	49	49	1786	2700	0.66
12223	CCTV34 12_500A บางครุ-บางขุนเทียน 	13.6257061	100.4698372	exat	working	2022-09-09T00:00:00	15:00:00	16:00:00	51	49	1683	2700	0.62
12224	CCTV34 12_500A บางครุ-บางขุนเทียน 	13.6257061	100.4698372	exat	working	2022-09-09T00:00:00	16:00:00	17:00:00	69	175	3645	2700	1.35
12225	CCTV34 12_500A บางครุ-บางขุนเทียน 	13.6257061	100.4698372	exat	working	2022-09-09T00:00:00	17:00:00	18:00:00	91	91	4351	2700	1.61
12226	CCTV34 12_500A บางครุ-บางขุนเทียน 	13.6257061	100.4698372	exat	working	2022-09-09T00:00:00	18:00:00	19:00:00	91	181	5439	2700	2.01
12227	CCTV34 12_500A บางครุ-บางขุนเทียน 	13.6257061	100.4698372	exat	working	2022-10-09T00:00:00	5:00:00	6:00:00	131	20	1252	2700	0.46
12228	CCTV34 12_500A บางครุ-บางขุนเทียน 	13.6257061	100.4698372	exat	holiday	2022-10-09T00:00:00	6:00:00	7:00:00	91	63	3987	2700	1.48
12229	CCTV34 12_500A บางครุ-บางขุนเทียน 	13.6257061	100.4698372	exat	holiday	2022-10-09T00:00:00	7:00:00	8:00:00	91	43	2701	2700	1.00
12230	CCTV34 12_500A บางครุ-บางขุนเทียน 	13.6257061	100.4698372	exat	holiday	2022-10-09T00:00:00	8:00:00	9:00:00	91	52	4368	2700	1.62
12231	CCTV34 12_500A บางครุ-บางขุนเทียน 	13.6257061	100.4698372	exat	working	2022-10-09T00:00:00	9:00:00	10:00:00	88	49	4251	2700	1.57
12232	CCTV34 12_500A บางครุ-บางขุนเทียน 	13.6257061	100.4698372	exat	working	2022-10-09T00:00:00	10:00:00	11:00:00	87	51	4375	2700	1.62
12233	CCTV34 12_500A บางครุ-บางขุนเทียน 	13.6257061	100.4698372	exat	holiday	2022-10-09T00:00:00	11:00:00	12:00:00	91	57	3622	2700	1.34
12234	CCTV34 12_500A บางครุ-บางขุนเทียน 	13.6257061	100.4698372	exat	working	2022-10-09T00:00:00	12:00:00	13:00:00	90	47	4242	2700	1.57
12235	CCTV34 12_500A บางครุ-บางขุนเทียน 	13.6257061	100.4698372	exat	working	2022-10-09T00:00:00	13:00:00	14:00:00	87	49	4281	2700	1.59
12236	CCTV34 12_500A บางครุ-บางขุนเทียน 	13.6257061	100.4698372	exat	working	2022-10-09T00:00:00	14:00:00	15:00:00	87	47	4265	2700	1.58
12237	CCTV34 12_500A บางครุ-บางขุนเทียน 	13.6257061	100.4698372	exat	working	2022-10-09T00:00:00	15:00:00	16:00:00	90	49	4274	2700	1.58
12238	CCTV34 12_500A บางครุ-บางขุนเทียน 	13.6257061	100.4698372	exat	holiday	2022-10-09T00:00:00	16:00:00	17:00:00	50	160	3995	2700	1.48
12239	CCTV34 12_500A บางครุ-บางขุนเทียน 	13.6257061	100.4698372	exat	holiday	2022-10-09T00:00:00	17:00:00	18:00:00	66	175	3266	2700	1.21
12240	CCTV34 12_500A บางครุ-บางขุนเทียน 	13.6257061	100.4698372	exat	holiday	2022-10-09T00:00:00	18:00:00	19:00:00	28	131	2708	2700	1.00
12241	CCTV34 12_500A บางครุ-บางขุนเทียน 	13.6257061	100.4698372	exat	working	2022-11-09T00:00:00	5:00:00	6:00:00	78	12	785	2700	0.29
12242	CCTV34 12_500A บางครุ-บางขุนเทียน 	13.6257061	100.4698372	exat	holiday	2022-11-09T00:00:00	6:00:00	7:00:00	55	38	2400	2700	0.89
12243	CCTV34 12_500A บางครุ-บางขุนเทียน 	13.6257061	100.4698372	exat	holiday	2022-11-09T00:00:00	7:00:00	8:00:00	55	26	1646	2700	0.61
12244	CCTV34 12_500A บางครุ-บางขุนเทียน 	13.6257061	100.4698372	exat	holiday	2022-11-09T00:00:00	8:00:00	9:00:00	55	31	2609	2700	0.97
12245	CCTV34 12_500A บางครุ-บางขุนเทียน 	13.6257061	100.4698372	exat	working	2022-11-09T00:00:00	9:00:00	10:00:00	53	30	2555	2700	0.95
12246	CCTV34 12_500A บางครุ-บางขุนเทียน 	13.6257061	100.4698372	exat	working	2022-11-09T00:00:00	10:00:00	11:00:00	52	31	2622	2700	0.97
12247	CCTV34 12_500A บางครุ-บางขุนเทียน 	13.6257061	100.4698372	exat	holiday	2022-11-09T00:00:00	11:00:00	12:00:00	55	34	2185	2700	0.81
12248	CCTV34 12_500A บางครุ-บางขุนเทียน 	13.6257061	100.4698372	exat	working	2022-11-09T00:00:00	12:00:00	13:00:00	54	28	2533	2700	0.94
12249	CCTV34 12_500A บางครุ-บางขุนเทียน 	13.6257061	100.4698372	exat	working	2022-11-09T00:00:00	13:00:00	14:00:00	52	30	2584	2700	0.96
12250	CCTV34 12_500A บางครุ-บางขุนเทียน 	13.6257061	100.4698372	exat	working	2022-11-09T00:00:00	14:00:00	15:00:00	52	29	2542	2700	0.94
12251	CCTV34 12_500A บางครุ-บางขุนเทียน 	13.6257061	100.4698372	exat	working	2022-11-09T00:00:00	15:00:00	16:00:00	54	29	2569	2700	0.95
12252	CCTV34 12_500A บางครุ-บางขุนเทียน 	13.6257061	100.4698372	exat	holiday	2022-11-09T00:00:00	16:00:00	17:00:00	30	96	2379	2700	0.88
12253	CCTV34 12_500A บางครุ-บางขุนเทียน 	13.6257061	100.4698372	exat	holiday	2022-11-09T00:00:00	17:00:00	18:00:00	40	105	1945	2700	0.72
12254	CCTV34 12_500A บางครุ-บางขุนเทียน 	13.6257061	100.4698372	exat	holiday	2022-11-09T00:00:00	18:00:00	19:00:00	17	121	1614	2700	0.60
12255	CCTV35 13_500B เข้าด่านฯบางขุนเทียน1 	13.6407072	100.412505	exat	working	2022-05-09T00:00:00	5:00:00	6:00:00	132	44	1186	2700	0.44
12256	CCTV35 13_500B เข้าด่านฯบางขุนเทียน1 	13.6407072	100.412505	exat	working	2022-05-09T00:00:00	6:00:00	7:00:00	91	142	3866	2700	1.43
12257	CCTV35 13_500B เข้าด่านฯบางขุนเทียน1 	13.6407072	100.412505	exat	working	2022-05-09T00:00:00	7:00:00	8:00:00	91	31	3815	2700	1.41
12258	CCTV35 13_500B เข้าด่านฯบางขุนเทียน1 	13.6407072	100.412505	exat	working	2022-05-09T00:00:00	8:00:00	9:00:00	91	40	2921	2700	1.08
12259	CCTV35 13_500B เข้าด่านฯบางขุนเทียน1 	13.6407072	100.412505	exat	working	2022-05-09T00:00:00	9:00:00	10:00:00	89	38	2898	2700	1.07
12260	CCTV35 13_500B เข้าด่านฯบางขุนเทียน1 	13.6407072	100.412505	exat	working	2022-05-09T00:00:00	10:00:00	11:00:00	89	36	2858	2700	1.06
12261	CCTV35 13_500B เข้าด่านฯบางขุนเทียน1 	13.6407072	100.412505	exat	working	2022-05-09T00:00:00	11:00:00	12:00:00	66	53	3811	2700	1.41
12262	CCTV35 13_500B เข้าด่านฯบางขุนเทียน1 	13.6407072	100.412505	exat	working	2022-05-09T00:00:00	12:00:00	13:00:00	90	37	2825	2700	1.05
12263	CCTV35 13_500B เข้าด่านฯบางขุนเทียน1 	13.6407072	100.412505	exat	working	2022-05-09T00:00:00	13:00:00	14:00:00	86	38	2887	2700	1.07
12264	CCTV35 13_500B เข้าด่านฯบางขุนเทียน1 	13.6407072	100.412505	exat	working	2022-05-09T00:00:00	14:00:00	15:00:00	85	38	2862	2700	1.06
12265	CCTV35 13_500B เข้าด่านฯบางขุนเทียน1 	13.6407072	100.412505	exat	working	2022-05-09T00:00:00	15:00:00	16:00:00	85	36	2875	2700	1.06
12266	CCTV35 13_500B เข้าด่านฯบางขุนเทียน1 	13.6407072	100.412505	exat	working	2022-05-09T00:00:00	16:00:00	17:00:00	91	31	2546	2700	0.94
12267	CCTV35 13_500B เข้าด่านฯบางขุนเทียน1 	13.6407072	100.412505	exat	working	2022-05-09T00:00:00	17:00:00	18:00:00	91	30	3251	2700	1.20
12268	CCTV35 13_500B เข้าด่านฯบางขุนเทียน1 	13.6407072	100.412505	exat	working	2022-05-09T00:00:00	18:00:00	19:00:00	91	31	2934	2700	1.09
12269	CCTV35 13_500B เข้าด่านฯบางขุนเทียน1 	13.6407072	100.412505	exat	working	2022-06-09T00:00:00	5:00:00	6:00:00	128	47	1165	2700	0.43
12270	CCTV35 13_500B เข้าด่านฯบางขุนเทียน1 	13.6407072	100.412505	exat	working	2022-06-09T00:00:00	6:00:00	7:00:00	91	142	3826	2700	1.42
12271	CCTV35 13_500B เข้าด่านฯบางขุนเทียน1 	13.6407072	100.412505	exat	working	2022-06-09T00:00:00	7:00:00	8:00:00	91	31	3833	2700	1.42
12272	CCTV35 13_500B เข้าด่านฯบางขุนเทียน1 	13.6407072	100.412505	exat	working	2022-06-09T00:00:00	8:00:00	9:00:00	91	40	2913	2700	1.08
12273	CCTV35 13_500B เข้าด่านฯบางขุนเทียน1 	13.6407072	100.412505	exat	working	2022-06-09T00:00:00	9:00:00	10:00:00	88	36	2828	2700	1.05
12274	CCTV35 13_500B เข้าด่านฯบางขุนเทียน1 	13.6407072	100.412505	exat	working	2022-06-09T00:00:00	10:00:00	11:00:00	88	36	2862	2700	1.06
12275	CCTV35 13_500B เข้าด่านฯบางขุนเทียน1 	13.6407072	100.412505	exat	working	2022-06-09T00:00:00	11:00:00	12:00:00	78	37	3156	2700	1.17
12276	CCTV35 13_500B เข้าด่านฯบางขุนเทียน1 	13.6407072	100.412505	exat	working	2022-06-09T00:00:00	12:00:00	13:00:00	90	36	2803	2700	1.04
12277	CCTV35 13_500B เข้าด่านฯบางขุนเทียน1 	13.6407072	100.412505	exat	working	2022-06-09T00:00:00	13:00:00	14:00:00	88	38	2871	2700	1.06
12278	CCTV35 13_500B เข้าด่านฯบางขุนเทียน1 	13.6407072	100.412505	exat	working	2022-06-09T00:00:00	14:00:00	15:00:00	87	39	2803	2700	1.04
12279	CCTV35 13_500B เข้าด่านฯบางขุนเทียน1 	13.6407072	100.412505	exat	working	2022-06-09T00:00:00	15:00:00	16:00:00	85	37	2816	2700	1.04
12280	CCTV35 13_500B เข้าด่านฯบางขุนเทียน1 	13.6407072	100.412505	exat	working	2022-06-09T00:00:00	16:00:00	17:00:00	91	31	2637	2700	0.98
12281	CCTV35 13_500B เข้าด่านฯบางขุนเทียน1 	13.6407072	100.412505	exat	working	2022-06-09T00:00:00	17:00:00	18:00:00	91	28	2926	2700	1.08
12282	CCTV35 13_500B เข้าด่านฯบางขุนเทียน1 	13.6407072	100.412505	exat	working	2022-06-09T00:00:00	18:00:00	19:00:00	91	29	2903	2700	1.08
12283	CCTV35 13_500B เข้าด่านฯบางขุนเทียน1 	13.6407072	100.412505	exat	working	2022-07-09T00:00:00	5:00:00	6:00:00	129	45	1175	2700	0.44
12284	CCTV35 13_500B เข้าด่านฯบางขุนเทียน1 	13.6407072	100.412505	exat	working	2022-07-09T00:00:00	6:00:00	7:00:00	91	142	3796	2700	1.41
12285	CCTV35 13_500B เข้าด่านฯบางขุนเทียน1 	13.6407072	100.412505	exat	working	2022-07-09T00:00:00	7:00:00	8:00:00	91	31	3802	2700	1.41
12286	CCTV35 13_500B เข้าด่านฯบางขุนเทียน1 	13.6407072	100.412505	exat	working	2022-07-09T00:00:00	8:00:00	9:00:00	91	40	2944	2700	1.09
12287	CCTV35 13_500B เข้าด่านฯบางขุนเทียน1 	13.6407072	100.412505	exat	working	2022-07-09T00:00:00	9:00:00	10:00:00	86	35	2725	2700	1.01
12288	CCTV35 13_500B เข้าด่านฯบางขุนเทียน1 	13.6407072	100.412505	exat	working	2022-07-09T00:00:00	10:00:00	11:00:00	88	36	2876	2700	1.07
12289	CCTV35 13_500B เข้าด่านฯบางขุนเทียน1 	13.6407072	100.412505	exat	working	2022-07-09T00:00:00	11:00:00	12:00:00	91	21	2532	2700	0.94
12290	CCTV35 13_500B เข้าด่านฯบางขุนเทียน1 	13.6407072	100.412505	exat	working	2022-07-09T00:00:00	12:00:00	13:00:00	89	35	2747	2700	1.02
12291	CCTV35 13_500B เข้าด่านฯบางขุนเทียน1 	13.6407072	100.412505	exat	working	2022-07-09T00:00:00	13:00:00	14:00:00	90	38	2874	2700	1.06
12292	CCTV35 13_500B เข้าด่านฯบางขุนเทียน1 	13.6407072	100.412505	exat	working	2022-07-09T00:00:00	14:00:00	15:00:00	90	39	2748	2700	1.02
12293	CCTV35 13_500B เข้าด่านฯบางขุนเทียน1 	13.6407072	100.412505	exat	working	2022-07-09T00:00:00	15:00:00	16:00:00	86	38	2871	2700	1.06
12294	CCTV35 13_500B เข้าด่านฯบางขุนเทียน1 	13.6407072	100.412505	exat	working	2022-07-09T00:00:00	16:00:00	17:00:00	91	31	2715	2700	1.01
12295	CCTV35 13_500B เข้าด่านฯบางขุนเทียน1 	13.6407072	100.412505	exat	working	2022-07-09T00:00:00	17:00:00	18:00:00	91	26	2545	2700	0.94
12296	CCTV35 13_500B เข้าด่านฯบางขุนเทียน1 	13.6407072	100.412505	exat	working	2022-07-09T00:00:00	18:00:00	19:00:00	91	27	2900	2700	1.07
12297	CCTV35 13_500B เข้าด่านฯบางขุนเทียน1 	13.6407072	100.412505	exat	working	2022-08-09T00:00:00	5:00:00	6:00:00	128	46	1222	2700	0.45
12298	CCTV35 13_500B เข้าด่านฯบางขุนเทียน1 	13.6407072	100.412505	exat	working	2022-08-09T00:00:00	6:00:00	7:00:00	91	142	3802	2700	1.41
12299	CCTV35 13_500B เข้าด่านฯบางขุนเทียน1 	13.6407072	100.412505	exat	working	2022-08-09T00:00:00	7:00:00	8:00:00	91	31	3805	2700	1.41
12300	CCTV35 13_500B เข้าด่านฯบางขุนเทียน1 	13.6407072	100.412505	exat	working	2022-08-09T00:00:00	8:00:00	9:00:00	91	40	2910	2700	1.08
12301	CCTV35 13_500B เข้าด่านฯบางขุนเทียน1 	13.6407072	100.412505	exat	working	2022-08-09T00:00:00	9:00:00	10:00:00	88	36	2773	2700	1.03
12302	CCTV35 13_500B เข้าด่านฯบางขุนเทียน1 	13.6407072	100.412505	exat	working	2022-08-09T00:00:00	10:00:00	11:00:00	88	37	2901	2700	1.07
12303	CCTV35 13_500B เข้าด่านฯบางขุนเทียน1 	13.6407072	100.412505	exat	working	2022-08-09T00:00:00	11:00:00	12:00:00	91	21	2514	2700	0.93
12304	CCTV35 13_500B เข้าด่านฯบางขุนเทียน1 	13.6407072	100.412505	exat	working	2022-08-09T00:00:00	12:00:00	13:00:00	88	36	2759	2700	1.02
12305	CCTV35 13_500B เข้าด่านฯบางขุนเทียน1 	13.6407072	100.412505	exat	working	2022-08-09T00:00:00	13:00:00	14:00:00	90	37	2853	2700	1.06
12306	CCTV35 13_500B เข้าด่านฯบางขุนเทียน1 	13.6407072	100.412505	exat	working	2022-08-09T00:00:00	14:00:00	15:00:00	88	38	2760	2700	1.02
12307	CCTV35 13_500B เข้าด่านฯบางขุนเทียน1 	13.6407072	100.412505	exat	working	2022-08-09T00:00:00	15:00:00	16:00:00	87	38	2879	2700	1.07
12308	CCTV35 13_500B เข้าด่านฯบางขุนเทียน1 	13.6407072	100.412505	exat	working	2022-08-09T00:00:00	16:00:00	17:00:00	91	31	3355	2700	1.24
12309	CCTV35 13_500B เข้าด่านฯบางขุนเทียน1 	13.6407072	100.412505	exat	working	2022-08-09T00:00:00	17:00:00	18:00:00	91	48	3946	2700	1.46
12310	CCTV35 13_500B เข้าด่านฯบางขุนเทียน1 	13.6407072	100.412505	exat	working	2022-08-09T00:00:00	18:00:00	19:00:00	77	39	4011	2700	1.49
12311	CCTV35 13_500B เข้าด่านฯบางขุนเทียน1 	13.6407072	100.412505	exat	working	2022-09-09T00:00:00	5:00:00	6:00:00	130	43	1239	2700	0.46
12312	CCTV35 13_500B เข้าด่านฯบางขุนเทียน1 	13.6407072	100.412505	exat	working	2022-09-09T00:00:00	6:00:00	7:00:00	91	141	3820	2700	1.41
12313	CCTV35 13_500B เข้าด่านฯบางขุนเทียน1 	13.6407072	100.412505	exat	working	2022-09-09T00:00:00	7:00:00	8:00:00	91	31	3814	2700	1.41
12314	CCTV35 13_500B เข้าด่านฯบางขุนเทียน1 	13.6407072	100.412505	exat	working	2022-09-09T00:00:00	8:00:00	9:00:00	91	40	2876	2700	1.07
12315	CCTV35 13_500B เข้าด่านฯบางขุนเทียน1 	13.6407072	100.412505	exat	working	2022-09-09T00:00:00	9:00:00	10:00:00	89	37	2767	2700	1.02
12316	CCTV35 13_500B เข้าด่านฯบางขุนเทียน1 	13.6407072	100.412505	exat	working	2022-09-09T00:00:00	10:00:00	11:00:00	88	37	2919	2700	1.08
12317	CCTV35 13_500B เข้าด่านฯบางขุนเทียน1 	13.6407072	100.412505	exat	working	2022-09-09T00:00:00	11:00:00	12:00:00	91	21	2561	2700	0.95
12318	CCTV35 13_500B เข้าด่านฯบางขุนเทียน1 	13.6407072	100.412505	exat	working	2022-09-09T00:00:00	12:00:00	13:00:00	86	37	2779	2700	1.03
12319	CCTV35 13_500B เข้าด่านฯบางขุนเทียน1 	13.6407072	100.412505	exat	working	2022-09-09T00:00:00	13:00:00	14:00:00	90	37	2874	2700	1.06
12320	CCTV35 13_500B เข้าด่านฯบางขุนเทียน1 	13.6407072	100.412505	exat	working	2022-09-09T00:00:00	14:00:00	15:00:00	86	37	2712	2700	1.00
12321	CCTV35 13_500B เข้าด่านฯบางขุนเทียน1 	13.6407072	100.412505	exat	working	2022-09-09T00:00:00	15:00:00	16:00:00	88	39	2835	2700	1.05
12322	CCTV35 13_500B เข้าด่านฯบางขุนเทียน1 	13.6407072	100.412505	exat	working	2022-09-09T00:00:00	16:00:00	17:00:00	91	31	3970	2700	1.47
12323	CCTV35 13_500B เข้าด่านฯบางขุนเทียน1 	13.6407072	100.412505	exat	working	2022-09-09T00:00:00	17:00:00	18:00:00	91	71	5423	2700	2.01
12324	CCTV35 13_500B เข้าด่านฯบางขุนเทียน1 	13.6407072	100.412505	exat	working	2022-09-09T00:00:00	18:00:00	19:00:00	63	51	5060	2700	1.87
12325	CCTV35 13_500B เข้าด่านฯบางขุนเทียน1 	13.6407072	100.412505	exat	working	2022-10-09T00:00:00	5:00:00	6:00:00	109	15	758	2700	0.28
12326	CCTV35 13_500B เข้าด่านฯบางขุนเทียน1 	13.6407072	100.412505	exat	holiday	2022-10-09T00:00:00	6:00:00	7:00:00	76	44	2356	2700	0.87
12327	CCTV35 13_500B เข้าด่านฯบางขุนเทียน1 	13.6407072	100.412505	exat	holiday	2022-10-09T00:00:00	7:00:00	8:00:00	91	30	2009	2700	0.74
12328	CCTV35 13_500B เข้าด่านฯบางขุนเทียน1 	13.6407072	100.412505	exat	holiday	2022-10-09T00:00:00	8:00:00	9:00:00	91	41	2721	2700	1.01
12329	CCTV35 13_500B เข้าด่านฯบางขุนเทียน1 	13.6407072	100.412505	exat	working	2022-10-09T00:00:00	9:00:00	10:00:00	89	36	2601	2700	0.96
12330	CCTV35 13_500B เข้าด่านฯบางขุนเทียน1 	13.6407072	100.412505	exat	working	2022-10-09T00:00:00	10:00:00	11:00:00	86	38	2587	2700	0.96
12331	CCTV35 13_500B เข้าด่านฯบางขุนเทียน1 	13.6407072	100.412505	exat	holiday	2022-10-09T00:00:00	11:00:00	12:00:00	91	41	3102	2700	1.15
12332	CCTV35 13_500B เข้าด่านฯบางขุนเทียน1 	13.6407072	100.412505	exat	working	2022-10-09T00:00:00	12:00:00	13:00:00	89	40	2679	2700	0.99
12333	CCTV35 13_500B เข้าด่านฯบางขุนเทียน1 	13.6407072	100.412505	exat	working	2022-10-09T00:00:00	13:00:00	14:00:00	86	37	2674	2700	0.99
12334	CCTV35 13_500B เข้าด่านฯบางขุนเทียน1 	13.6407072	100.412505	exat	working	2022-10-09T00:00:00	14:00:00	15:00:00	87	38	2697	2700	1.00
12335	CCTV35 13_500B เข้าด่านฯบางขุนเทียน1 	13.6407072	100.412505	exat	working	2022-10-09T00:00:00	15:00:00	16:00:00	87	37	2592	2700	0.96
12336	CCTV35 13_500B เข้าด่านฯบางขุนเทียน1 	13.6407072	100.412505	exat	holiday	2022-10-09T00:00:00	16:00:00	17:00:00	91	38	3429	2700	1.27
12337	CCTV35 13_500B เข้าด่านฯบางขุนเทียน1 	13.6407072	100.412505	exat	holiday	2022-10-09T00:00:00	17:00:00	18:00:00	91	19	2190	2700	0.81
12338	CCTV35 13_500B เข้าด่านฯบางขุนเทียน1 	13.6407072	100.412505	exat	holiday	2022-10-09T00:00:00	18:00:00	19:00:00	91	22	2914	2700	1.08
12339	CCTV35 13_500B เข้าด่านฯบางขุนเทียน1 	13.6407072	100.412505	exat	working	2022-11-09T00:00:00	5:00:00	6:00:00	65	8	492	2700	0.18
12340	CCTV35 13_500B เข้าด่านฯบางขุนเทียน1 	13.6407072	100.412505	exat	holiday	2022-11-09T00:00:00	6:00:00	7:00:00	46	26	1411	2700	0.52
12341	CCTV35 13_500B เข้าด่านฯบางขุนเทียน1 	13.6407072	100.412505	exat	holiday	2022-11-09T00:00:00	7:00:00	8:00:00	55	18	1181	2700	0.44
12342	CCTV35 13_500B เข้าด่านฯบางขุนเทียน1 	13.6407072	100.412505	exat	holiday	2022-11-09T00:00:00	8:00:00	9:00:00	55	25	1648	2700	0.61
12343	CCTV35 13_500B เข้าด่านฯบางขุนเทียน1 	13.6407072	100.412505	exat	working	2022-11-09T00:00:00	9:00:00	10:00:00	54	22	1609	2700	0.60
12344	CCTV35 13_500B เข้าด่านฯบางขุนเทียน1 	13.6407072	100.412505	exat	working	2022-11-09T00:00:00	10:00:00	11:00:00	52	23	1576	2700	0.58
12345	CCTV35 13_500B เข้าด่านฯบางขุนเทียน1 	13.6407072	100.412505	exat	holiday	2022-11-09T00:00:00	11:00:00	12:00:00	55	25	1832	2700	0.68
12346	CCTV35 13_500B เข้าด่านฯบางขุนเทียน1 	13.6407072	100.412505	exat	working	2022-11-09T00:00:00	12:00:00	13:00:00	53	24	1622	2700	0.60
12347	CCTV35 13_500B เข้าด่านฯบางขุนเทียน1 	13.6407072	100.412505	exat	working	2022-11-09T00:00:00	13:00:00	14:00:00	52	22	1620	2700	0.60
12348	CCTV35 13_500B เข้าด่านฯบางขุนเทียน1 	13.6407072	100.412505	exat	working	2022-11-09T00:00:00	14:00:00	15:00:00	52	23	1623	2700	0.60
12349	CCTV35 13_500B เข้าด่านฯบางขุนเทียน1 	13.6407072	100.412505	exat	working	2022-11-09T00:00:00	15:00:00	16:00:00	52	22	1558	2700	0.58
12350	CCTV35 13_500B เข้าด่านฯบางขุนเทียน1 	13.6407072	100.412505	exat	holiday	2022-11-09T00:00:00	16:00:00	17:00:00	55	23	2079	2700	0.77
12351	CCTV35 13_500B เข้าด่านฯบางขุนเทียน1 	13.6407072	100.412505	exat	holiday	2022-11-09T00:00:00	17:00:00	18:00:00	55	11	1301	2700	0.48
12352	CCTV35 13_500B เข้าด่านฯบางขุนเทียน1 	13.6407072	100.412505	exat	holiday	2022-11-09T00:00:00	18:00:00	19:00:00	55	13	1728	2700	0.64
12353	CCTV42 หน้าด่านบางแก้ว2	13.7502425	100.549468	exat	working	2022-05-09T00:00:00	5:00:00	6:00:00	81	20	2277	2700	0.84
12354	CCTV42 หน้าด่านบางแก้ว2	13.7502425	100.549468	exat	working	2022-05-09T00:00:00	6:00:00	7:00:00	58	62	6535	2700	2.42
12355	CCTV42 หน้าด่านบางแก้ว2	13.7502425	100.549468	exat	working	2022-05-09T00:00:00	7:00:00	8:00:00	43	88	6189	2700	2.29
12356	CCTV42 หน้าด่านบางแก้ว2	13.7502425	100.549468	exat	working	2022-05-09T00:00:00	8:00:00	9:00:00	47	73	4944	2700	1.83
12357	CCTV42 หน้าด่านบางแก้ว2	13.7502425	100.549468	exat	working	2022-05-09T00:00:00	9:00:00	10:00:00	45	69	4857	2700	1.80
12358	CCTV42 หน้าด่านบางแก้ว2	13.7502425	100.549468	exat	working	2022-05-09T00:00:00	10:00:00	11:00:00	42	71	4852	2700	1.80
12359	CCTV42 หน้าด่านบางแก้ว2	13.7502425	100.549468	exat	working	2022-05-09T00:00:00	11:00:00	12:00:00	46	100	7110	2700	2.63
12360	CCTV42 หน้าด่านบางแก้ว2	13.7502425	100.549468	exat	working	2022-05-09T00:00:00	12:00:00	13:00:00	43	69	4895	2700	1.81
12361	CCTV42 หน้าด่านบางแก้ว2	13.7502425	100.549468	exat	working	2022-05-09T00:00:00	13:00:00	14:00:00	46	70	4837	2700	1.79
12362	CCTV42 หน้าด่านบางแก้ว2	13.7502425	100.549468	exat	working	2022-05-09T00:00:00	14:00:00	15:00:00	42	70	4815	2700	1.78
12363	CCTV42 หน้าด่านบางแก้ว2	13.7502425	100.549468	exat	working	2022-05-09T00:00:00	15:00:00	16:00:00	47	70	4829	2700	1.79
12364	CCTV42 หน้าด่านบางแก้ว2	13.7502425	100.549468	exat	working	2022-05-09T00:00:00	16:00:00	17:00:00	30	173	7117	2700	2.64
12365	CCTV42 หน้าด่านบางแก้ว2	13.7502425	100.549468	exat	working	2022-05-09T00:00:00	17:00:00	18:00:00	51	182	1278	2700	0.47
12366	CCTV42 หน้าด่านบางแก้ว2	13.7502425	100.549468	exat	working	2022-05-09T00:00:00	18:00:00	19:00:00	30	181	4821	2700	1.79
12367	CCTV42 หน้าด่านบางแก้ว2	13.7502425	100.549468	exat	working	2022-06-09T00:00:00	5:00:00	6:00:00	81	20	2137	2700	0.79
12368	CCTV42 หน้าด่านบางแก้ว2	13.7502425	100.549468	exat	working	2022-06-09T00:00:00	6:00:00	7:00:00	58	62	6556	2700	2.43
12369	CCTV42 หน้าด่านบางแก้ว2	13.7502425	100.549468	exat	working	2022-06-09T00:00:00	7:00:00	8:00:00	43	88	6204	2700	2.30
12370	CCTV42 หน้าด่านบางแก้ว2	13.7502425	100.549468	exat	working	2022-06-09T00:00:00	8:00:00	9:00:00	47	73	4905	2700	1.82
12371	CCTV42 หน้าด่านบางแก้ว2	13.7502425	100.549468	exat	working	2022-06-09T00:00:00	9:00:00	10:00:00	44	68	4803	2700	1.78
12372	CCTV42 หน้าด่านบางแก้ว2	13.7502425	100.549468	exat	working	2022-06-09T00:00:00	10:00:00	11:00:00	43	70	4844	2700	1.79
12373	CCTV42 หน้าด่านบางแก้ว2	13.7502425	100.549468	exat	working	2022-06-09T00:00:00	11:00:00	12:00:00	39	100	5931	2700	2.20
12374	CCTV42 หน้าด่านบางแก้ว2	13.7502425	100.549468	exat	working	2022-06-09T00:00:00	12:00:00	13:00:00	44	71	4881	2700	1.81
12375	CCTV42 หน้าด่านบางแก้ว2	13.7502425	100.549468	exat	working	2022-06-09T00:00:00	13:00:00	14:00:00	45	69	4845	2700	1.79
12376	CCTV42 หน้าด่านบางแก้ว2	13.7502425	100.549468	exat	working	2022-06-09T00:00:00	14:00:00	15:00:00	43	69	4809	2700	1.78
12377	CCTV42 หน้าด่านบางแก้ว2	13.7502425	100.549468	exat	working	2022-06-09T00:00:00	15:00:00	16:00:00	45	69	4826	2700	1.79
12378	CCTV42 หน้าด่านบางแก้ว2	13.7502425	100.549468	exat	working	2022-06-09T00:00:00	16:00:00	17:00:00	34	177	6392	2700	2.37
12379	CCTV42 หน้าด่านบางแก้ว2	13.7502425	100.549468	exat	working	2022-06-09T00:00:00	17:00:00	18:00:00	42	182	3536	2700	1.31
12380	CCTV42 หน้าด่านบางแก้ว2	13.7502425	100.549468	exat	working	2022-06-09T00:00:00	18:00:00	19:00:00	34	170	4550	2700	1.69
12381	CCTV42 หน้าด่านบางแก้ว2	13.7502425	100.549468	exat	working	2022-07-09T00:00:00	5:00:00	6:00:00	82	20	2234	2700	0.83
12382	CCTV42 หน้าด่านบางแก้ว2	13.7502425	100.549468	exat	working	2022-07-09T00:00:00	6:00:00	7:00:00	58	62	6572	2700	2.43
12383	CCTV42 หน้าด่านบางแก้ว2	13.7502425	100.549468	exat	working	2022-07-09T00:00:00	7:00:00	8:00:00	43	88	6197	2700	2.30
12384	CCTV42 หน้าด่านบางแก้ว2	13.7502425	100.549468	exat	working	2022-07-09T00:00:00	8:00:00	9:00:00	47	73	4948	2700	1.83
12385	CCTV42 หน้าด่านบางแก้ว2	13.7502425	100.549468	exat	working	2022-07-09T00:00:00	9:00:00	10:00:00	42	68	4790	2700	1.77
12386	CCTV42 หน้าด่านบางแก้ว2	13.7502425	100.549468	exat	working	2022-07-09T00:00:00	10:00:00	11:00:00	45	68	4847	2700	1.80
12387	CCTV42 หน้าด่านบางแก้ว2	13.7502425	100.549468	exat	working	2022-07-09T00:00:00	11:00:00	12:00:00	33	99	4751	2700	1.76
12388	CCTV42 หน้าด่านบางแก้ว2	13.7502425	100.549468	exat	working	2022-07-09T00:00:00	12:00:00	13:00:00	45	72	4877	2700	1.81
12389	CCTV42 หน้าด่านบางแก้ว2	13.7502425	100.549468	exat	working	2022-07-09T00:00:00	13:00:00	14:00:00	45	69	4828	2700	1.79
12390	CCTV42 หน้าด่านบางแก้ว2	13.7502425	100.549468	exat	working	2022-07-09T00:00:00	14:00:00	15:00:00	43	68	4815	2700	1.78
12391	CCTV42 หน้าด่านบางแก้ว2	13.7502425	100.549468	exat	working	2022-07-09T00:00:00	15:00:00	16:00:00	43	68	4798	2700	1.78
12392	CCTV42 หน้าด่านบางแก้ว2	13.7502425	100.549468	exat	working	2022-07-09T00:00:00	16:00:00	17:00:00	39	182	5636	2700	2.09
12393	CCTV42 หน้าด่านบางแก้ว2	13.7502425	100.549468	exat	working	2022-07-09T00:00:00	17:00:00	18:00:00	32	182	5830	2700	2.16
12394	CCTV42 หน้าด่านบางแก้ว2	13.7502425	100.549468	exat	working	2022-07-09T00:00:00	18:00:00	19:00:00	38	159	4175	2700	1.55
12395	CCTV42 หน้าด่านบางแก้ว2	13.7502425	100.549468	exat	working	2022-08-09T00:00:00	5:00:00	6:00:00	73	19	1934	2700	0.72
12396	CCTV42 หน้าด่านบางแก้ว2	13.7502425	100.549468	exat	working	2022-08-09T00:00:00	6:00:00	7:00:00	52	57	5730	2700	2.12
12397	CCTV42 หน้าด่านบางแก้ว2	13.7502425	100.549468	exat	working	2022-08-09T00:00:00	7:00:00	8:00:00	45	89	6396	2700	2.37
12398	CCTV42 หน้าด่านบางแก้ว2	13.7502425	100.549468	exat	working	2022-08-09T00:00:00	8:00:00	9:00:00	46	102	6304	2700	2.33
12399	CCTV42 หน้าด่านบางแก้ว2	13.7502425	100.549468	exat	working	2022-08-09T00:00:00	9:00:00	10:00:00	41	97	6173	2700	2.29
12400	CCTV42 หน้าด่านบางแก้ว2	13.7502425	100.549468	exat	working	2022-08-09T00:00:00	10:00:00	11:00:00	44	98	6222	2700	2.30
12401	CCTV42 หน้าด่านบางแก้ว2	13.7502425	100.549468	exat	working	2022-08-09T00:00:00	11:00:00	12:00:00	34	107	5737	2700	2.12
12402	CCTV42 หน้าด่านบางแก้ว2	13.7502425	100.549468	exat	working	2022-08-09T00:00:00	12:00:00	13:00:00	44	100	6218	2700	2.30
12403	CCTV42 หน้าด่านบางแก้ว2	13.7502425	100.549468	exat	working	2022-08-09T00:00:00	13:00:00	14:00:00	44	98	6196	2700	2.29
12404	CCTV42 หน้าด่านบางแก้ว2	13.7502425	100.549468	exat	working	2022-08-09T00:00:00	14:00:00	15:00:00	42	97	6201	2700	2.30
12405	CCTV42 หน้าด่านบางแก้ว2	13.7502425	100.549468	exat	working	2022-08-09T00:00:00	15:00:00	16:00:00	42	97	6159	2700	2.28
12406	CCTV42 หน้าด่านบางแก้ว2	13.7502425	100.549468	exat	working	2022-08-09T00:00:00	16:00:00	17:00:00	36	181	5307	2700	1.97
12407	CCTV42 หน้าด่านบางแก้ว2	13.7502425	100.549468	exat	working	2022-08-09T00:00:00	17:00:00	18:00:00	25	182	4586	2700	1.70
12408	CCTV42 หน้าด่านบางแก้ว2	13.7502425	100.549468	exat	working	2022-08-09T00:00:00	18:00:00	19:00:00	35	141	4793	2700	1.78
12409	CCTV42 หน้าด่านบางแก้ว2	13.7502425	100.549468	exat	working	2022-09-09T00:00:00	5:00:00	6:00:00	67	16	1570	2700	0.58
12410	CCTV42 หน้าด่านบางแก้ว2	13.7502425	100.549468	exat	working	2022-09-09T00:00:00	6:00:00	7:00:00	47	51	4893	2700	1.81
12411	CCTV42 หน้าด่านบางแก้ว2	13.7502425	100.549468	exat	working	2022-09-09T00:00:00	7:00:00	8:00:00	47	89	6566	2700	2.43
12412	CCTV42 หน้าด่านบางแก้ว2	13.7502425	100.549468	exat	working	2022-09-09T00:00:00	8:00:00	9:00:00	44	131	7627	2700	2.82
12413	CCTV42 หน้าด่านบางแก้ว2	13.7502425	100.549468	exat	working	2022-09-09T00:00:00	9:00:00	10:00:00	40	126	7561	2700	2.80
12414	CCTV42 หน้าด่านบางแก้ว2	13.7502425	100.549468	exat	working	2022-09-09T00:00:00	10:00:00	11:00:00	44	128	7609	2700	2.82
12415	CCTV42 หน้าด่านบางแก้ว2	13.7502425	100.549468	exat	working	2022-09-09T00:00:00	11:00:00	12:00:00	36	115	6644	2700	2.46
12416	CCTV42 หน้าด่านบางแก้ว2	13.7502425	100.549468	exat	working	2022-09-09T00:00:00	12:00:00	13:00:00	43	129	7543	2700	2.79
12417	CCTV42 หน้าด่านบางแก้ว2	13.7502425	100.549468	exat	working	2022-09-09T00:00:00	13:00:00	14:00:00	43	127	7509	2700	2.78
12418	CCTV42 หน้าด่านบางแก้ว2	13.7502425	100.549468	exat	working	2022-09-09T00:00:00	14:00:00	15:00:00	41	126	7646	2700	2.83
12419	CCTV42 หน้าด่านบางแก้ว2	13.7502425	100.549468	exat	working	2022-09-09T00:00:00	15:00:00	16:00:00	41	127	7524	2700	2.79
12420	CCTV42 หน้าด่านบางแก้ว2	13.7502425	100.549468	exat	working	2022-09-09T00:00:00	16:00:00	17:00:00	32	182	4896	2700	1.81
12421	CCTV42 หน้าด่านบางแก้ว2	13.7502425	100.549468	exat	working	2022-09-09T00:00:00	17:00:00	18:00:00	19	121	3276	2700	1.21
12422	CCTV42 หน้าด่านบางแก้ว2	13.7502425	100.549468	exat	working	2022-09-09T00:00:00	18:00:00	19:00:00	32	124	5485	2700	2.03
12423	CCTV42 หน้าด่านบางแก้ว2	13.7502425	100.549468	exat	working	2022-10-09T00:00:00	5:00:00	6:00:00	75	10	777	2700	0.29
12424	CCTV42 หน้าด่านบางแก้ว2	13.7502425	100.549468	exat	holiday	2022-10-09T00:00:00	6:00:00	7:00:00	54	31	2381	2700	0.88
12425	CCTV42 หน้าด่านบางแก้ว2	13.7502425	100.549468	exat	holiday	2022-10-09T00:00:00	7:00:00	8:00:00	52	52	4583	2700	1.70
12426	CCTV42 หน้าด่านบางแก้ว2	13.7502425	100.549468	exat	holiday	2022-10-09T00:00:00	8:00:00	9:00:00	55	51	4394	2700	1.63
12427	CCTV42 หน้าด่านบางแก้ว2	13.7502425	100.549468	exat	working	2022-10-09T00:00:00	9:00:00	10:00:00	50	48	4315	2700	1.60
12428	CCTV42 หน้าด่านบางแก้ว2	13.7502425	100.549468	exat	working	2022-10-09T00:00:00	10:00:00	11:00:00	53	47	4337	2700	1.61
12429	CCTV42 หน้าด่านบางแก้ว2	13.7502425	100.549468	exat	holiday	2022-10-09T00:00:00	11:00:00	12:00:00	38	151	6926	2700	2.57
12430	CCTV42 หน้าด่านบางแก้ว2	13.7502425	100.549468	exat	working	2022-10-09T00:00:00	12:00:00	13:00:00	52	49	4319	2700	1.60
12431	CCTV42 หน้าด่านบางแก้ว2	13.7502425	100.549468	exat	working	2022-10-09T00:00:00	13:00:00	14:00:00	54	50	4258	2700	1.58
12432	CCTV42 หน้าด่านบางแก้ว2	13.7502425	100.549468	exat	working	2022-10-09T00:00:00	14:00:00	15:00:00	55	46	4377	2700	1.62
12433	CCTV42 หน้าด่านบางแก้ว2	13.7502425	100.549468	exat	working	2022-10-09T00:00:00	15:00:00	16:00:00	50	49	4230	2700	1.57
12434	CCTV42 หน้าด่านบางแก้ว2	13.7502425	100.549468	exat	holiday	2022-10-09T00:00:00	16:00:00	17:00:00	26	181	6437	2700	2.38
12435	CCTV42 หน้าด่านบางแก้ว2	13.7502425	100.549468	exat	holiday	2022-10-09T00:00:00	17:00:00	18:00:00	26	182	7085	2700	2.62
12436	CCTV42 หน้าด่านบางแก้ว2	13.7502425	100.549468	exat	holiday	2022-10-09T00:00:00	18:00:00	19:00:00	28	139	5086	2700	1.88
12437	CCTV42 หน้าด่านบางแก้ว2	13.7502425	100.549468	exat	working	2022-11-09T00:00:00	5:00:00	6:00:00	46	7	461	2700	0.17
12438	CCTV42 หน้าด่านบางแก้ว2	13.7502425	100.549468	exat	holiday	2022-11-09T00:00:00	6:00:00	7:00:00	33	19	1425	2700	0.53
12439	CCTV42 หน้าด่านบางแก้ว2	13.7502425	100.549468	exat	holiday	2022-11-09T00:00:00	7:00:00	8:00:00	31	31	2714	2700	1.01
12440	CCTV42 หน้าด่านบางแก้ว2	13.7502425	100.549468	exat	holiday	2022-11-09T00:00:00	8:00:00	9:00:00	33	31	2601	2700	0.96
12441	CCTV42 หน้าด่านบางแก้ว2	13.7502425	100.549468	exat	working	2022-11-09T00:00:00	9:00:00	10:00:00	30	29	2600	2700	0.96
12442	CCTV42 หน้าด่านบางแก้ว2	13.7502425	100.549468	exat	working	2022-11-09T00:00:00	10:00:00	11:00:00	32	28	2597	2700	0.96
12443	CCTV42 หน้าด่านบางแก้ว2	13.7502425	100.549468	exat	holiday	2022-11-09T00:00:00	11:00:00	12:00:00	23	90	4160	2700	1.54
12444	CCTV42 หน้าด่านบางแก้ว2	13.7502425	100.549468	exat	working	2022-11-09T00:00:00	12:00:00	13:00:00	31	30	2599	2700	0.96
12445	CCTV42 หน้าด่านบางแก้ว2	13.7502425	100.549468	exat	working	2022-11-09T00:00:00	13:00:00	14:00:00	32	30	2570	2700	0.95
12446	CCTV42 หน้าด่านบางแก้ว2	13.7502425	100.549468	exat	working	2022-11-09T00:00:00	14:00:00	15:00:00	33	28	2634	2700	0.98
12447	CCTV42 หน้าด่านบางแก้ว2	13.7502425	100.549468	exat	working	2022-11-09T00:00:00	15:00:00	16:00:00	30	30	2544	2700	0.94
12448	CCTV42 หน้าด่านบางแก้ว2	13.7502425	100.549468	exat	holiday	2022-11-09T00:00:00	16:00:00	17:00:00	16	122	3930	2700	1.46
12449	CCTV42 หน้าด่านบางแก้ว2	13.7502425	100.549468	exat	holiday	2022-11-09T00:00:00	17:00:00	18:00:00	16	122	4275	2700	1.58
12450	CCTV42 หน้าด่านบางแก้ว2	13.7502425	100.549468	exat	holiday	2022-11-09T00:00:00	18:00:00	19:00:00	17	122	3044	2700	1.13
12451	CCTV05 มักกะสัน2	13.7545453	100.5231508	exat	working	2022-05-09T00:00:00	5:00:00	6:00:00	106	7	177	1800	0.10
12452	CCTV05 มักกะสัน2	13.7545453	100.5231508	exat	working	2022-05-09T00:00:00	6:00:00	7:00:00	76	23	546	1800	0.30
12453	CCTV05 มักกะสัน2	13.7545453	100.5231508	exat	working	2022-05-09T00:00:00	7:00:00	8:00:00	56	28	1642	1800	0.91
12454	CCTV05 มักกะสัน2	13.7545453	100.5231508	exat	working	2022-05-09T00:00:00	8:00:00	9:00:00	62	22	1102	1800	0.61
12455	CCTV05 มักกะสัน2	13.7545453	100.5231508	exat	working	2022-05-09T00:00:00	9:00:00	10:00:00	58	21	1023	1800	0.57
12456	CCTV05 มักกะสัน2	13.7545453	100.5231508	exat	working	2022-05-09T00:00:00	10:00:00	11:00:00	58	18	934	1800	0.52
12457	CCTV05 มักกะสัน2	13.7545453	100.5231508	exat	working	2022-05-09T00:00:00	11:00:00	12:00:00	33	68	2924	1800	1.62
12458	CCTV05 มักกะสัน2	13.7545453	100.5231508	exat	working	2022-05-09T00:00:00	12:00:00	13:00:00	59	19	1000	1800	0.56
12459	CCTV05 มักกะสัน2	13.7545453	100.5231508	exat	working	2022-05-09T00:00:00	13:00:00	14:00:00	56	20	1074	1800	0.60
12460	CCTV05 มักกะสัน2	13.7545453	100.5231508	exat	working	2022-05-09T00:00:00	14:00:00	15:00:00	57	19	1061	1800	0.59
12461	CCTV05 มักกะสัน2	13.7545453	100.5231508	exat	working	2022-05-09T00:00:00	15:00:00	16:00:00	57	19	1017	1800	0.57
12462	CCTV05 มักกะสัน2	13.7545453	100.5231508	exat	working	2022-05-09T00:00:00	16:00:00	17:00:00	57	18	741	1800	0.41
12463	CCTV05 มักกะสัน2	13.7545453	100.5231508	exat	working	2022-05-09T00:00:00	17:00:00	18:00:00	59	19	930	1800	0.52
12464	CCTV05 มักกะสัน2	13.7545453	100.5231508	exat	working	2022-05-09T00:00:00	18:00:00	19:00:00	53	21	730	1800	0.41
12465	CCTV05 มักกะสัน2	13.7545453	100.5231508	exat	working	2022-06-09T00:00:00	5:00:00	6:00:00	106	8	189	1800	0.11
12466	CCTV05 มักกะสัน2	13.7545453	100.5231508	exat	working	2022-06-09T00:00:00	6:00:00	7:00:00	76	23	546	1800	0.30
12467	CCTV05 มักกะสัน2	13.7545453	100.5231508	exat	working	2022-06-09T00:00:00	7:00:00	8:00:00	56	28	1648	1800	0.92
12468	CCTV05 มักกะสัน2	13.7545453	100.5231508	exat	working	2022-06-09T00:00:00	8:00:00	9:00:00	62	22	1110	1800	0.62
12469	CCTV05 มักกะสัน2	13.7545453	100.5231508	exat	working	2022-06-09T00:00:00	9:00:00	10:00:00	58	20	1006	1800	0.56
12470	CCTV05 มักกะสัน2	13.7545453	100.5231508	exat	working	2022-06-09T00:00:00	10:00:00	11:00:00	58	18	963	1800	0.54
12471	CCTV05 มักกะสัน2	13.7545453	100.5231508	exat	working	2022-06-09T00:00:00	11:00:00	12:00:00	46	47	2022	1800	1.12
12472	CCTV05 มักกะสัน2	13.7545453	100.5231508	exat	working	2022-06-09T00:00:00	12:00:00	13:00:00	60	19	996	1800	0.55
12473	CCTV05 มักกะสัน2	13.7545453	100.5231508	exat	working	2022-06-09T00:00:00	13:00:00	14:00:00	58	20	1014	1800	0.56
12474	CCTV05 มักกะสัน2	13.7545453	100.5231508	exat	working	2022-06-09T00:00:00	14:00:00	15:00:00	57	19	1076	1800	0.60
12475	CCTV05 มักกะสัน2	13.7545453	100.5231508	exat	working	2022-06-09T00:00:00	15:00:00	16:00:00	59	20	1019	1800	0.57
12476	CCTV05 มักกะสัน2	13.7545453	100.5231508	exat	working	2022-06-09T00:00:00	16:00:00	17:00:00	57	18	723	1800	0.40
12477	CCTV05 มักกะสัน2	13.7545453	100.5231508	exat	working	2022-06-09T00:00:00	17:00:00	18:00:00	51	19	731	1800	0.41
12478	CCTV05 มักกะสัน2	13.7545453	100.5231508	exat	working	2022-06-09T00:00:00	18:00:00	19:00:00	39	33	914	1800	0.51
12479	CCTV05 มักกะสัน2	13.7545453	100.5231508	exat	working	2022-07-09T00:00:00	5:00:00	6:00:00	107	8	168	1800	0.09
12480	CCTV05 มักกะสัน2	13.7545453	100.5231508	exat	working	2022-07-09T00:00:00	6:00:00	7:00:00	76	23	539	1800	0.30
12481	CCTV05 มักกะสัน2	13.7545453	100.5231508	exat	working	2022-07-09T00:00:00	7:00:00	8:00:00	56	28	1651	1800	0.92
12482	CCTV05 มักกะสัน2	13.7545453	100.5231508	exat	working	2022-07-09T00:00:00	8:00:00	9:00:00	62	22	1075	1800	0.60
12483	CCTV05 มักกะสัน2	13.7545453	100.5231508	exat	working	2022-07-09T00:00:00	9:00:00	10:00:00	58	18	1021	1800	0.57
12484	CCTV05 มักกะสัน2	13.7545453	100.5231508	exat	working	2022-07-09T00:00:00	10:00:00	11:00:00	59	17	995	1800	0.55
12485	CCTV05 มักกะสัน2	13.7545453	100.5231508	exat	working	2022-07-09T00:00:00	11:00:00	12:00:00	58	25	1087	1800	0.60
12486	CCTV05 มักกะสัน2	13.7545453	100.5231508	exat	working	2022-07-09T00:00:00	12:00:00	13:00:00	60	19	999	1800	0.56
12487	CCTV05 มักกะสัน2	13.7545453	100.5231508	exat	working	2022-07-09T00:00:00	13:00:00	14:00:00	60	20	948	1800	0.53
12488	CCTV05 มักกะสัน2	13.7545453	100.5231508	exat	working	2022-07-09T00:00:00	14:00:00	15:00:00	57	19	1095	1800	0.61
12489	CCTV05 มักกะสัน2	13.7545453	100.5231508	exat	working	2022-07-09T00:00:00	15:00:00	16:00:00	60	21	995	1800	0.55
12490	CCTV05 มักกะสัน2	13.7545453	100.5231508	exat	working	2022-07-09T00:00:00	16:00:00	17:00:00	57	18	733	1800	0.41
12491	CCTV05 มักกะสัน2	13.7545453	100.5231508	exat	working	2022-07-09T00:00:00	17:00:00	18:00:00	44	19	553	1800	0.31
12492	CCTV05 มักกะสัน2	13.7545453	100.5231508	exat	working	2022-07-09T00:00:00	18:00:00	19:00:00	26	46	1092	1800	0.61
12493	CCTV05 มักกะสัน2	13.7545453	100.5231508	exat	working	2022-08-09T00:00:00	5:00:00	6:00:00	95	8	350	1800	0.19
12494	CCTV05 มักกะสัน2	13.7545453	100.5231508	exat	working	2022-08-09T00:00:00	6:00:00	7:00:00	68	25	1010	1800	0.56
12495	CCTV05 มักกะสัน2	13.7545453	100.5231508	exat	working	2022-08-09T00:00:00	7:00:00	8:00:00	45	28	1372	1800	0.76
12496	CCTV05 มักกะสัน2	13.7545453	100.5231508	exat	working	2022-08-09T00:00:00	8:00:00	9:00:00	56	30	1640	1800	0.91
12497	CCTV05 มักกะสัน2	13.7545453	100.5231508	exat	working	2022-08-09T00:00:00	9:00:00	10:00:00	52	25	1585	1800	0.88
12498	CCTV05 มักกะสัน2	13.7545453	100.5231508	exat	working	2022-08-09T00:00:00	10:00:00	11:00:00	54	25	1558	1800	0.87
12499	CCTV05 มักกะสัน2	13.7545453	100.5231508	exat	working	2022-08-09T00:00:00	11:00:00	12:00:00	47	35	1017	1800	0.57
12500	CCTV05 มักกะสัน2	13.7545453	100.5231508	exat	working	2022-08-09T00:00:00	12:00:00	13:00:00	52	27	1503	1800	0.84
12501	CCTV05 มักกะสัน2	13.7545453	100.5231508	exat	working	2022-08-09T00:00:00	13:00:00	14:00:00	54	28	1509	1800	0.84
12502	CCTV05 มักกะสัน2	13.7545453	100.5231508	exat	working	2022-08-09T00:00:00	14:00:00	15:00:00	53	25	1630	1800	0.91
12503	CCTV05 มักกะสัน2	13.7545453	100.5231508	exat	working	2022-08-09T00:00:00	15:00:00	16:00:00	53	27	1546	1800	0.86
12504	CCTV05 มักกะสัน2	13.7545453	100.5231508	exat	working	2022-08-09T00:00:00	16:00:00	17:00:00	53	19	998	1800	0.55
12505	CCTV05 มักกะสัน2	13.7545453	100.5231508	exat	working	2022-08-09T00:00:00	17:00:00	18:00:00	49	24	1192	1800	0.66
12506	CCTV05 มักกะสัน2	13.7545453	100.5231508	exat	working	2022-08-09T00:00:00	18:00:00	19:00:00	36	40	1262	1800	0.70
12507	CCTV05 มักกะสัน2	13.7545453	100.5231508	exat	working	2022-09-09T00:00:00	5:00:00	6:00:00	85	10	492	1800	0.27
12508	CCTV05 มักกะสัน2	13.7545453	100.5231508	exat	working	2022-09-09T00:00:00	6:00:00	7:00:00	60	27	1464	1800	0.81
12509	CCTV05 มักกะสัน2	13.7545453	100.5231508	exat	working	2022-09-09T00:00:00	7:00:00	8:00:00	34	28	1114	1800	0.62
12510	CCTV05 มักกะสัน2	13.7545453	100.5231508	exat	working	2022-09-09T00:00:00	8:00:00	9:00:00	50	37	2195	1800	1.22
12511	CCTV05 มักกะสัน2	13.7545453	100.5231508	exat	working	2022-09-09T00:00:00	9:00:00	10:00:00	47	32	2149	1800	1.19
12512	CCTV05 มักกะสัน2	13.7545453	100.5231508	exat	working	2022-09-09T00:00:00	10:00:00	11:00:00	49	34	2124	1800	1.18
12513	CCTV05 มักกะสัน2	13.7545453	100.5231508	exat	working	2022-09-09T00:00:00	11:00:00	12:00:00	37	46	911	1800	0.51
12514	CCTV05 มักกะสัน2	13.7545453	100.5231508	exat	working	2022-09-09T00:00:00	12:00:00	13:00:00	45	34	2038	1800	1.13
12515	CCTV05 มักกะสัน2	13.7545453	100.5231508	exat	working	2022-09-09T00:00:00	13:00:00	14:00:00	48	36	2065	1800	1.15
12516	CCTV05 มักกะสัน2	13.7545453	100.5231508	exat	working	2022-09-09T00:00:00	14:00:00	15:00:00	48	32	2099	1800	1.17
12517	CCTV05 มักกะสัน2	13.7545453	100.5231508	exat	working	2022-09-09T00:00:00	15:00:00	16:00:00	46	33	2123	1800	1.18
12518	CCTV05 มักกะสัน2	13.7545453	100.5231508	exat	working	2022-09-09T00:00:00	16:00:00	17:00:00	49	21	1262	1800	0.70
12519	CCTV05 มักกะสัน2	13.7545453	100.5231508	exat	working	2022-09-09T00:00:00	17:00:00	18:00:00	54	29	1831	1800	1.02
12520	CCTV05 มักกะสัน2	13.7545453	100.5231508	exat	working	2022-09-09T00:00:00	18:00:00	19:00:00	46	33	1464	1800	0.81
12521	CCTV05 มักกะสัน2	13.7545453	100.5231508	exat	working	2022-10-09T00:00:00	5:00:00	6:00:00	56	5	116	1800	0.06
12522	CCTV05 มักกะสัน2	13.7545453	100.5231508	exat	holiday	2022-10-09T00:00:00	6:00:00	7:00:00	40	17	356	1800	0.20
12523	CCTV05 มักกะสัน2	13.7545453	100.5231508	exat	holiday	2022-10-09T00:00:00	7:00:00	8:00:00	44	17	539	1800	0.30
12524	CCTV05 มักกะสัน2	13.7545453	100.5231508	exat	holiday	2022-10-09T00:00:00	8:00:00	9:00:00	50	34	1827	1800	1.02
12525	CCTV05 มักกะสัน2	13.7545453	100.5231508	exat	working	2022-10-09T00:00:00	9:00:00	10:00:00	46	31	1705	1800	0.95
12526	CCTV05 มักกะสัน2	13.7545453	100.5231508	exat	working	2022-10-09T00:00:00	10:00:00	11:00:00	45	30	1706	1800	0.95
12527	CCTV05 มักกะสัน2	13.7545453	100.5231508	exat	holiday	2022-10-09T00:00:00	11:00:00	12:00:00	45	27	1462	1800	0.81
12528	CCTV05 มักกะสัน2	13.7545453	100.5231508	exat	working	2022-10-09T00:00:00	12:00:00	13:00:00	48	31	1779	1800	0.99
12529	CCTV05 มักกะสัน2	13.7545453	100.5231508	exat	working	2022-10-09T00:00:00	13:00:00	14:00:00	47	29	1773	1800	0.99
12530	CCTV05 มักกะสัน2	13.7545453	100.5231508	exat	working	2022-10-09T00:00:00	14:00:00	15:00:00	47	33	1767	1800	0.98
12531	CCTV05 มักกะสัน2	13.7545453	100.5231508	exat	working	2022-10-09T00:00:00	15:00:00	16:00:00	46	29	1744	1800	0.97
12532	CCTV05 มักกะสัน2	13.7545453	100.5231508	exat	holiday	2022-10-09T00:00:00	16:00:00	17:00:00	44	24	731	1800	0.41
12533	CCTV05 มักกะสัน2	13.7545453	100.5231508	exat	holiday	2022-10-09T00:00:00	17:00:00	18:00:00	39	27	1623	1800	0.90
12534	CCTV05 มักกะสัน2	13.7545453	100.5231508	exat	holiday	2022-10-09T00:00:00	18:00:00	19:00:00	21	121	732	1800	0.41
12535	CCTV05 มักกะสัน2	13.7545453	100.5231508	exat	working	2022-11-09T00:00:00	5:00:00	6:00:00	34	4	72	1800	0.04
12536	CCTV05 มักกะสัน2	13.7545453	100.5231508	exat	holiday	2022-11-09T00:00:00	6:00:00	7:00:00	24	11	234	1800	0.13
12537	CCTV05 มักกะสัน2	13.7545453	100.5231508	exat	holiday	2022-11-09T00:00:00	7:00:00	8:00:00	27	11	341	1800	0.19
12538	CCTV05 มักกะสัน2	13.7545453	100.5231508	exat	holiday	2022-11-09T00:00:00	8:00:00	9:00:00	30	21	1089	1800	0.61
12539	CCTV05 มักกะสัน2	13.7545453	100.5231508	exat	working	2022-11-09T00:00:00	9:00:00	10:00:00	28	19	1031	1800	0.57
12540	CCTV05 มักกะสัน2	13.7545453	100.5231508	exat	working	2022-11-09T00:00:00	10:00:00	11:00:00	27	18	1030	1800	0.57
12541	CCTV05 มักกะสัน2	13.7545453	100.5231508	exat	holiday	2022-11-09T00:00:00	11:00:00	12:00:00	27	16	885	1800	0.49
12542	CCTV05 มักกะสัน2	13.7545453	100.5231508	exat	working	2022-11-09T00:00:00	12:00:00	13:00:00	29	19	1036	1800	0.58
12543	CCTV05 มักกะสัน2	13.7545453	100.5231508	exat	working	2022-11-09T00:00:00	13:00:00	14:00:00	28	18	1069	1800	0.59
12544	CCTV05 มักกะสัน2	13.7545453	100.5231508	exat	working	2022-11-09T00:00:00	14:00:00	15:00:00	28	20	1051	1800	0.58
12545	CCTV05 มักกะสัน2	13.7545453	100.5231508	exat	working	2022-11-09T00:00:00	15:00:00	16:00:00	28	17	1057	1800	0.59
12546	CCTV05 มักกะสัน2	13.7545453	100.5231508	exat	holiday	2022-11-09T00:00:00	16:00:00	17:00:00	27	15	423	1800	0.24
12547	CCTV05 มักกะสัน2	13.7545453	100.5231508	exat	holiday	2022-11-09T00:00:00	17:00:00	18:00:00	23	16	982	1800	0.55
12548	CCTV05 มักกะสัน2	13.7545453	100.5231508	exat	holiday	2022-11-09T00:00:00	18:00:00	19:00:00	13	121	436	1800	0.24
12549	CCTV30 ทางลงอุรุพงษ์	13.7848944	100.5354082	exat	working	2022-05-09T00:00:00	5:00:00	6:00:00	35	64	2030	2700	0.75
12550	CCTV30 ทางลงอุรุพงษ์	13.7848944	100.5354082	exat	working	2022-05-09T00:00:00	6:00:00	7:00:00	25	181	6215	2700	2.30
12551	CCTV30 ทางลงอุรุพงษ์	13.7848944	100.5354082	exat	working	2022-05-09T00:00:00	7:00:00	8:00:00	23	182	7810	2700	2.89
12552	CCTV30 ทางลงอุรุพงษ์	13.7848944	100.5354082	exat	working	2022-05-09T00:00:00	8:00:00	9:00:00	28	48	4363	2700	1.62
12553	CCTV30 ทางลงอุรุพงษ์	13.7848944	100.5354082	exat	working	2022-05-09T00:00:00	9:00:00	10:00:00	26	42	4320	2700	1.60
12554	CCTV30 ทางลงอุรุพงษ์	13.7848944	100.5354082	exat	working	2022-05-09T00:00:00	10:00:00	11:00:00	26	45	4301	2700	1.59
12555	CCTV30 ทางลงอุรุพงษ์	13.7848944	100.5354082	exat	working	2022-05-09T00:00:00	11:00:00	12:00:00	15	122	4749	2700	1.76
12556	CCTV30 ทางลงอุรุพงษ์	13.7848944	100.5354082	exat	working	2022-05-09T00:00:00	12:00:00	13:00:00	26	43	4317	2700	1.60
12557	CCTV30 ทางลงอุรุพงษ์	13.7848944	100.5354082	exat	working	2022-05-09T00:00:00	13:00:00	14:00:00	24	43	4277	2700	1.58
12558	CCTV30 ทางลงอุรุพงษ์	13.7848944	100.5354082	exat	working	2022-05-09T00:00:00	14:00:00	15:00:00	24	45	4321	2700	1.60
12559	CCTV30 ทางลงอุรุพงษ์	13.7848944	100.5354082	exat	working	2022-05-09T00:00:00	15:00:00	16:00:00	25	41	4184	2700	1.55
12560	CCTV30 ทางลงอุรุพงษ์	13.7848944	100.5354082	exat	working	2022-05-09T00:00:00	16:00:00	17:00:00	27	181	6768	2700	2.51
12561	CCTV30 ทางลงอุรุพงษ์	13.7848944	100.5354082	exat	working	2022-05-09T00:00:00	17:00:00	18:00:00	31	181	6719	2700	2.49
12562	CCTV30 ทางลงอุรุพงษ์	13.7848944	100.5354082	exat	working	2022-05-09T00:00:00	18:00:00	19:00:00	35	80	3296	2700	1.22
12563	CCTV30 ทางลงอุรุพงษ์	13.7848944	100.5354082	exat	working	2022-06-09T00:00:00	5:00:00	6:00:00	34	59	1982	2700	0.73
12564	CCTV30 ทางลงอุรุพงษ์	13.7848944	100.5354082	exat	working	2022-06-09T00:00:00	6:00:00	7:00:00	25	181	6183	2700	2.29
12565	CCTV30 ทางลงอุรุพงษ์	13.7848944	100.5354082	exat	working	2022-06-09T00:00:00	7:00:00	8:00:00	23	181	7812	2700	2.89
12566	CCTV30 ทางลงอุรุพงษ์	13.7848944	100.5354082	exat	working	2022-06-09T00:00:00	8:00:00	9:00:00	28	48	4402	2700	1.63
12567	CCTV30 ทางลงอุรุพงษ์	13.7848944	100.5354082	exat	working	2022-06-09T00:00:00	9:00:00	10:00:00	25	44	4338	2700	1.61
12568	CCTV30 ทางลงอุรุพงษ์	13.7848944	100.5354082	exat	working	2022-06-09T00:00:00	10:00:00	11:00:00	25	44	4303	2700	1.59
12569	CCTV30 ทางลงอุรุพงษ์	13.7848944	100.5354082	exat	working	2022-06-09T00:00:00	11:00:00	12:00:00	19	122	4105	2700	1.52
12570	CCTV30 ทางลงอุรุพงษ์	13.7848944	100.5354082	exat	working	2022-06-09T00:00:00	12:00:00	13:00:00	26	43	4317	2700	1.60
12571	CCTV30 ทางลงอุรุพงษ์	13.7848944	100.5354082	exat	working	2022-06-09T00:00:00	13:00:00	14:00:00	23	45	4277	2700	1.58
12572	CCTV30 ทางลงอุรุพงษ์	13.7848944	100.5354082	exat	working	2022-06-09T00:00:00	14:00:00	15:00:00	26	45	4261	2700	1.58
12573	CCTV30 ทางลงอุรุพงษ์	13.7848944	100.5354082	exat	working	2022-06-09T00:00:00	15:00:00	16:00:00	26	43	4246	2700	1.57
12574	CCTV30 ทางลงอุรุพงษ์	13.7848944	100.5354082	exat	working	2022-06-09T00:00:00	16:00:00	17:00:00	29	115	5091	2700	1.89
12575	CCTV30 ทางลงอุรุพงษ์	13.7848944	100.5354082	exat	working	2022-06-09T00:00:00	17:00:00	18:00:00	30	115	5237	2700	1.94
12576	CCTV30 ทางลงอุรุพงษ์	13.7848944	100.5354082	exat	working	2022-06-09T00:00:00	18:00:00	19:00:00	40	61	3468	2700	1.28
12577	CCTV30 ทางลงอุรุพงษ์	13.7848944	100.5354082	exat	working	2022-07-09T00:00:00	5:00:00	6:00:00	35	57	2107	2700	0.78
12578	CCTV30 ทางลงอุรุพงษ์	13.7848944	100.5354082	exat	working	2022-07-09T00:00:00	6:00:00	7:00:00	25	182	6203	2700	2.30
12579	CCTV30 ทางลงอุรุพงษ์	13.7848944	100.5354082	exat	working	2022-07-09T00:00:00	7:00:00	8:00:00	23	181	7810	2700	2.89
12580	CCTV30 ทางลงอุรุพงษ์	13.7848944	100.5354082	exat	working	2022-07-09T00:00:00	8:00:00	9:00:00	28	48	4379	2700	1.62
12581	CCTV30 ทางลงอุรุพงษ์	13.7848944	100.5354082	exat	working	2022-07-09T00:00:00	9:00:00	10:00:00	24	46	4312	2700	1.60
12582	CCTV30 ทางลงอุรุพงษ์	13.7848944	100.5354082	exat	working	2022-07-09T00:00:00	10:00:00	11:00:00	23	44	4273	2700	1.58
12583	CCTV30 ทางลงอุรุพงษ์	13.7848944	100.5354082	exat	working	2022-07-09T00:00:00	11:00:00	12:00:00	23	44	3462	2700	1.28
12584	CCTV30 ทางลงอุรุพงษ์	13.7848944	100.5354082	exat	working	2022-07-09T00:00:00	12:00:00	13:00:00	25	44	4395	2700	1.63
12585	CCTV30 ทางลงอุรุพงษ์	13.7848944	100.5354082	exat	working	2022-07-09T00:00:00	13:00:00	14:00:00	23	47	4261	2700	1.58
12586	CCTV30 ทางลงอุรุพงษ์	13.7848944	100.5354082	exat	working	2022-07-09T00:00:00	14:00:00	15:00:00	27	44	4237	2700	1.57
12587	CCTV30 ทางลงอุรุพงษ์	13.7848944	100.5354082	exat	working	2022-07-09T00:00:00	15:00:00	16:00:00	27	45	4279	2700	1.58
12588	CCTV30 ทางลงอุรุพงษ์	13.7848944	100.5354082	exat	working	2022-07-09T00:00:00	16:00:00	17:00:00	31	50	3462	2700	1.28
12589	CCTV30 ทางลงอุรุพงษ์	13.7848944	100.5354082	exat	working	2022-07-09T00:00:00	17:00:00	18:00:00	29	49	3830	2700	1.42
12590	CCTV30 ทางลงอุรุพงษ์	13.7848944	100.5354082	exat	working	2022-07-09T00:00:00	18:00:00	19:00:00	45	43	3654	2700	1.35
12591	CCTV30 ทางลงอุรุพงษ์	13.7848944	100.5354082	exat	working	2022-08-09T00:00:00	5:00:00	6:00:00	42	56	2263	2700	0.84
12592	CCTV30 ทางลงอุรุพงษ์	13.7848944	100.5354082	exat	working	2022-08-09T00:00:00	6:00:00	7:00:00	30	174	6903	2700	2.56
12593	CCTV30 ทางลงอุรุพงษ์	13.7848944	100.5354082	exat	working	2022-08-09T00:00:00	7:00:00	8:00:00	28	142	6852	2700	2.54
12594	CCTV30 ทางลงอุรุพงษ์	13.7848944	100.5354082	exat	working	2022-08-09T00:00:00	8:00:00	9:00:00	31	88	5172	2700	1.92
12595	CCTV30 ทางลงอุรุพงษ์	13.7848944	100.5354082	exat	working	2022-08-09T00:00:00	9:00:00	10:00:00	29	85	5168	2700	1.91
12596	CCTV30 ทางลงอุรุพงษ์	13.7848944	100.5354082	exat	working	2022-08-09T00:00:00	10:00:00	11:00:00	27	86	5150	2700	1.91
12597	CCTV30 ทางลงอุรุพงษ์	13.7848944	100.5354082	exat	working	2022-08-09T00:00:00	11:00:00	12:00:00	28	109	4340	2700	1.61
12598	CCTV30 ทางลงอุรุพงษ์	13.7848944	100.5354082	exat	working	2022-08-09T00:00:00	12:00:00	13:00:00	29	84	5128	2700	1.90
12599	CCTV30 ทางลงอุรุพงษ์	13.7848944	100.5354082	exat	working	2022-08-09T00:00:00	13:00:00	14:00:00	27	87	5043	2700	1.87
12600	CCTV30 ทางลงอุรุพงษ์	13.7848944	100.5354082	exat	working	2022-08-09T00:00:00	14:00:00	15:00:00	29	87	5117	2700	1.90
12601	CCTV30 ทางลงอุรุพงษ์	13.7848944	100.5354082	exat	working	2022-08-09T00:00:00	15:00:00	16:00:00	30	88	5116	2700	1.89
12602	CCTV30 ทางลงอุรุพงษ์	13.7848944	100.5354082	exat	working	2022-08-09T00:00:00	16:00:00	17:00:00	45	70	4962	2700	1.84
12603	CCTV30 ทางลงอุรุพงษ์	13.7848944	100.5354082	exat	working	2022-08-09T00:00:00	17:00:00	18:00:00	48	58	5162	2700	1.91
12604	CCTV30 ทางลงอุรุพงษ์	13.7848944	100.5354082	exat	working	2022-08-09T00:00:00	18:00:00	19:00:00	54	50	4672	2700	1.73
12605	CCTV30 ทางลงอุรุพงษ์	13.7848944	100.5354082	exat	working	2022-09-09T00:00:00	5:00:00	6:00:00	47	52	2264	2700	0.84
12606	CCTV30 ทางลงอุรุพงษ์	13.7848944	100.5354082	exat	working	2022-09-09T00:00:00	6:00:00	7:00:00	34	168	7485	2700	2.77
12607	CCTV30 ทางลงอุรุพงษ์	13.7848944	100.5354082	exat	working	2022-09-09T00:00:00	7:00:00	8:00:00	32	103	5829	2700	2.16
12608	CCTV30 ทางลงอุรุพงษ์	13.7848944	100.5354082	exat	working	2022-09-09T00:00:00	8:00:00	9:00:00	34	129	6016	2700	2.23
12609	CCTV30 ทางลงอุรุพงษ์	13.7848944	100.5354082	exat	working	2022-09-09T00:00:00	9:00:00	10:00:00	33	124	5929	2700	2.20
12610	CCTV30 ทางลงอุรุพงษ์	13.7848944	100.5354082	exat	working	2022-09-09T00:00:00	10:00:00	11:00:00	30	129	5930	2700	2.20
12611	CCTV30 ทางลงอุรุพงษ์	13.7848944	100.5354082	exat	working	2022-09-09T00:00:00	11:00:00	12:00:00	34	176	5126	2700	1.90
12612	CCTV30 ทางลงอุรุพงษ์	13.7848944	100.5354082	exat	working	2022-09-09T00:00:00	12:00:00	13:00:00	33	124	5925	2700	2.19
12613	CCTV30 ทางลงอุรุพงษ์	13.7848944	100.5354082	exat	working	2022-09-09T00:00:00	13:00:00	14:00:00	32	128	5875	2700	2.18
12614	CCTV30 ทางลงอุรุพงษ์	13.7848944	100.5354082	exat	working	2022-09-09T00:00:00	14:00:00	15:00:00	31	130	5986	2700	2.22
12615	CCTV30 ทางลงอุรุพงษ์	13.7848944	100.5354082	exat	working	2022-09-09T00:00:00	15:00:00	16:00:00	33	131	5845	2700	2.16
12616	CCTV30 ทางลงอุรุพงษ์	13.7848944	100.5354082	exat	working	2022-09-09T00:00:00	16:00:00	17:00:00	59	89	6595	2700	2.44
12617	CCTV30 ทางลงอุรุพงษ์	13.7848944	100.5354082	exat	working	2022-09-09T00:00:00	17:00:00	18:00:00	67	67	6577	2700	2.44
12618	CCTV30 ทางลงอุรุพงษ์	13.7848944	100.5354082	exat	working	2022-09-09T00:00:00	18:00:00	19:00:00	63	57	5644	2700	2.09
12619	CCTV30 ทางลงอุรุพงษ์	13.7848944	100.5354082	exat	working	2022-10-09T00:00:00	5:00:00	6:00:00	121	13	958	2700	0.35
12620	CCTV30 ทางลงอุรุพงษ์	13.7848944	100.5354082	exat	holiday	2022-10-09T00:00:00	6:00:00	7:00:00	87	41	3091	2700	1.14
12621	CCTV30 ทางลงอุรุพงษ์	13.7848944	100.5354082	exat	holiday	2022-10-09T00:00:00	7:00:00	8:00:00	82	34	4930	2700	1.83
12622	CCTV30 ทางลงอุรุพงษ์	13.7848944	100.5354082	exat	holiday	2022-10-09T00:00:00	8:00:00	9:00:00	81	59	7822	2700	2.90
12623	CCTV30 ทางลงอุรุพงษ์	13.7848944	100.5354082	exat	working	2022-10-09T00:00:00	9:00:00	10:00:00	79	58	7775	2700	2.88
12624	CCTV30 ทางลงอุรุพงษ์	13.7848944	100.5354082	exat	working	2022-10-09T00:00:00	10:00:00	11:00:00	79	54	7867	2700	2.91
12625	CCTV30 ทางลงอุรุพงษ์	13.7848944	100.5354082	exat	holiday	2022-10-09T00:00:00	11:00:00	12:00:00	72	65	5629	2700	2.08
12626	CCTV30 ทางลงอุรุพงษ์	13.7848944	100.5354082	exat	working	2022-10-09T00:00:00	12:00:00	13:00:00	78	58	7681	2700	2.84
12627	CCTV30 ทางลงอุรุพงษ์	13.7848944	100.5354082	exat	working	2022-10-09T00:00:00	13:00:00	14:00:00	76	58	7804	2700	2.89
12628	CCTV30 ทางลงอุรุพงษ์	13.7848944	100.5354082	exat	working	2022-10-09T00:00:00	14:00:00	15:00:00	78	57	7774	2700	2.88
12629	CCTV30 ทางลงอุรุพงษ์	13.7848944	100.5354082	exat	working	2022-10-09T00:00:00	15:00:00	16:00:00	77	54	7780	2700	2.88
12630	CCTV30 ทางลงอุรุพงษ์	13.7848944	100.5354082	exat	holiday	2022-10-09T00:00:00	16:00:00	17:00:00	53	73	6378	2700	2.36
12631	CCTV30 ทางลงอุรุพงษ์	13.7848944	100.5354082	exat	holiday	2022-10-09T00:00:00	17:00:00	18:00:00	51	112	4207	2700	1.56
12632	CCTV30 ทางลงอุรุพงษ์	13.7848944	100.5354082	exat	holiday	2022-10-09T00:00:00	18:00:00	19:00:00	48	61	4730	2700	1.75
12633	CCTV30 ทางลงอุรุพงษ์	13.7848944	100.5354082	exat	working	2022-11-09T00:00:00	5:00:00	6:00:00	74	8	589	2700	0.22
12634	CCTV30 ทางลงอุรุพงษ์	13.7848944	100.5354082	exat	holiday	2022-11-09T00:00:00	6:00:00	7:00:00	52	25	1857	2700	0.69
12635	CCTV30 ทางลงอุรุพงษ์	13.7848944	100.5354082	exat	holiday	2022-11-09T00:00:00	7:00:00	8:00:00	50	21	2960	2700	1.10
12636	CCTV30 ทางลงอุรุพงษ์	13.7848944	100.5354082	exat	holiday	2022-11-09T00:00:00	8:00:00	9:00:00	49	36	4721	2700	1.75
12637	CCTV30 ทางลงอุรุพงษ์	13.7848944	100.5354082	exat	working	2022-11-09T00:00:00	9:00:00	10:00:00	47	35	4679	2700	1.73
12638	CCTV30 ทางลงอุรุพงษ์	13.7848944	100.5354082	exat	working	2022-11-09T00:00:00	10:00:00	11:00:00	47	33	4697	2700	1.74
12639	CCTV30 ทางลงอุรุพงษ์	13.7848944	100.5354082	exat	holiday	2022-11-09T00:00:00	11:00:00	12:00:00	43	39	3380	2700	1.25
12640	CCTV30 ทางลงอุรุพงษ์	13.7848944	100.5354082	exat	working	2022-11-09T00:00:00	12:00:00	13:00:00	47	35	4635	2700	1.72
12641	CCTV30 ทางลงอุรุพงษ์	13.7848944	100.5354082	exat	working	2022-11-09T00:00:00	13:00:00	14:00:00	46	35	4681	2700	1.73
12642	CCTV30 ทางลงอุรุพงษ์	13.7848944	100.5354082	exat	working	2022-11-09T00:00:00	14:00:00	15:00:00	47	35	4626	2700	1.71
12643	CCTV30 ทางลงอุรุพงษ์	13.7848944	100.5354082	exat	working	2022-11-09T00:00:00	15:00:00	16:00:00	47	32	4685	2700	1.74
12644	CCTV30 ทางลงอุรุพงษ์	13.7848944	100.5354082	exat	holiday	2022-11-09T00:00:00	16:00:00	17:00:00	32	44	3820	2700	1.41
12645	CCTV30 ทางลงอุรุพงษ์	13.7848944	100.5354082	exat	holiday	2022-11-09T00:00:00	17:00:00	18:00:00	31	67	2515	2700	0.93
12646	CCTV30 ทางลงอุรุพงษ์	13.7848944	100.5354082	exat	holiday	2022-11-09T00:00:00	18:00:00	19:00:00	29	37	2855	2700	1.06
12647	CCTV29 ทางลงยมราช	13.7599774	100.5249092	exat	working	2022-05-09T00:00:00	5:00:00	6:00:00	29	40	227	2700	0.08
12648	CCTV29 ทางลงยมราช	13.7599774	100.5249092	exat	working	2022-05-09T00:00:00	6:00:00	7:00:00	21	122	741	2700	0.27
12649	CCTV29 ทางลงยมราช	13.7599774	100.5249092	exat	working	2022-05-09T00:00:00	7:00:00	8:00:00	56	87	3687	2700	1.37
12650	CCTV29 ทางลงยมราช	13.7599774	100.5249092	exat	working	2022-05-09T00:00:00	8:00:00	9:00:00	21	121	364	2700	0.13
12651	CCTV29 ทางลงยมราช	13.7599774	100.5249092	exat	working	2022-05-09T00:00:00	9:00:00	10:00:00	21	121	318	2700	0.12
12652	CCTV29 ทางลงยมราช	13.7599774	100.5249092	exat	working	2022-05-09T00:00:00	10:00:00	11:00:00	21	122	245	2700	0.09
12653	CCTV29 ทางลงยมราช	13.7599774	100.5249092	exat	working	2022-05-09T00:00:00	11:00:00	12:00:00	73	17	381	2700	0.14
12654	CCTV29 ทางลงยมราช	13.7599774	100.5249092	exat	working	2022-05-09T00:00:00	12:00:00	13:00:00	21	121	235	2700	0.09
12655	CCTV29 ทางลงยมราช	13.7599774	100.5249092	exat	working	2022-05-09T00:00:00	13:00:00	14:00:00	21	121	344	2700	0.13
12656	CCTV29 ทางลงยมราช	13.7599774	100.5249092	exat	working	2022-05-09T00:00:00	14:00:00	15:00:00	21	121	235	2700	0.09
12657	CCTV29 ทางลงยมราช	13.7599774	100.5249092	exat	working	2022-05-09T00:00:00	15:00:00	16:00:00	21	121	345	2700	0.13
12658	CCTV29 ทางลงยมราช	13.7599774	100.5249092	exat	working	2022-05-09T00:00:00	16:00:00	17:00:00	87	17	366	2700	0.14
12659	CCTV29 ทางลงยมราช	13.7599774	100.5249092	exat	working	2022-05-09T00:00:00	17:00:00	18:00:00	87	22	903	2700	0.33
12660	CCTV29 ทางลงยมราช	13.7599774	100.5249092	exat	working	2022-05-09T00:00:00	18:00:00	19:00:00	87	18	1459	2700	0.54
12661	CCTV29 ทางลงยมราช	13.7599774	100.5249092	exat	working	2022-06-09T00:00:00	5:00:00	6:00:00	29	38	259	2700	0.10
12662	CCTV29 ทางลงยมราช	13.7599774	100.5249092	exat	working	2022-06-09T00:00:00	6:00:00	7:00:00	21	121	736	2700	0.27
12663	CCTV29 ทางลงยมราช	13.7599774	100.5249092	exat	working	2022-06-09T00:00:00	7:00:00	8:00:00	56	87	3628	2700	1.34
12664	CCTV29 ทางลงยมราช	13.7599774	100.5249092	exat	working	2022-06-09T00:00:00	8:00:00	9:00:00	21	121	372	2700	0.14
12665	CCTV29 ทางลงยมราช	13.7599774	100.5249092	exat	working	2022-06-09T00:00:00	9:00:00	10:00:00	21	121	302	2700	0.11
12666	CCTV29 ทางลงยมราช	13.7599774	100.5249092	exat	working	2022-06-09T00:00:00	10:00:00	11:00:00	21	121	240	2700	0.09
12667	CCTV29 ทางลงยมราช	13.7599774	100.5249092	exat	working	2022-06-09T00:00:00	11:00:00	12:00:00	73	17	376	2700	0.14
12668	CCTV29 ทางลงยมราช	13.7599774	100.5249092	exat	working	2022-06-09T00:00:00	12:00:00	13:00:00	21	121	290	2700	0.11
12669	CCTV29 ทางลงยมราช	13.7599774	100.5249092	exat	working	2022-06-09T00:00:00	13:00:00	14:00:00	21	121	276	2700	0.10
12670	CCTV29 ทางลงยมราช	13.7599774	100.5249092	exat	working	2022-06-09T00:00:00	14:00:00	15:00:00	21	121	244	2700	0.09
12671	CCTV29 ทางลงยมราช	13.7599774	100.5249092	exat	working	2022-06-09T00:00:00	15:00:00	16:00:00	21	121	285	2700	0.11
12672	CCTV29 ทางลงยมราช	13.7599774	100.5249092	exat	working	2022-06-09T00:00:00	16:00:00	17:00:00	44	17	544	2700	0.20
12673	CCTV29 ทางลงยมราช	13.7599774	100.5249092	exat	working	2022-06-09T00:00:00	17:00:00	18:00:00	77	22	1087	2700	0.40
12674	CCTV29 ทางลงยมราช	13.7599774	100.5249092	exat	working	2022-06-09T00:00:00	18:00:00	19:00:00	87	17	1112	2700	0.41
12675	CCTV29 ทางลงยมราช	13.7599774	100.5249092	exat	working	2022-07-09T00:00:00	5:00:00	6:00:00	29	37	234	2700	0.09
12676	CCTV29 ทางลงยมราช	13.7599774	100.5249092	exat	working	2022-07-09T00:00:00	6:00:00	7:00:00	21	121	723	2700	0.27
12677	CCTV29 ทางลงยมราช	13.7599774	100.5249092	exat	working	2022-07-09T00:00:00	7:00:00	8:00:00	56	87	3611	2700	1.34
12678	CCTV29 ทางลงยมราช	13.7599774	100.5249092	exat	working	2022-07-09T00:00:00	8:00:00	9:00:00	21	122	369	2700	0.14
12679	CCTV29 ทางลงยมราช	13.7599774	100.5249092	exat	working	2022-07-09T00:00:00	9:00:00	10:00:00	21	121	264	2700	0.10
12680	CCTV29 ทางลงยมราช	13.7599774	100.5249092	exat	working	2022-07-09T00:00:00	10:00:00	11:00:00	21	121	227	2700	0.08
12681	CCTV29 ทางลงยมราช	13.7599774	100.5249092	exat	working	2022-07-09T00:00:00	11:00:00	12:00:00	73	17	366	2700	0.14
12682	CCTV29 ทางลงยมราช	13.7599774	100.5249092	exat	working	2022-07-09T00:00:00	12:00:00	13:00:00	21	122	342	2700	0.13
12683	CCTV29 ทางลงยมราช	13.7599774	100.5249092	exat	working	2022-07-09T00:00:00	13:00:00	14:00:00	21	121	211	2700	0.08
12684	CCTV29 ทางลงยมราช	13.7599774	100.5249092	exat	working	2022-07-09T00:00:00	14:00:00	15:00:00	21	121	229	2700	0.08
12685	CCTV29 ทางลงยมราช	13.7599774	100.5249092	exat	working	2022-07-09T00:00:00	15:00:00	16:00:00	21	121	242	2700	0.09
12686	CCTV29 ทางลงยมราช	13.7599774	100.5249092	exat	working	2022-07-09T00:00:00	16:00:00	17:00:00	21	121	730	2700	0.27
12687	CCTV29 ทางลงยมราช	13.7599774	100.5249092	exat	working	2022-07-09T00:00:00	17:00:00	18:00:00	66	21	1277	2700	0.47
12688	CCTV29 ทางลงยมราช	13.7599774	100.5249092	exat	working	2022-07-09T00:00:00	18:00:00	19:00:00	87	17	713	2700	0.26
12689	CCTV29 ทางลงยมราช	13.7599774	100.5249092	exat	working	2022-08-09T00:00:00	5:00:00	6:00:00	37	15	691	2700	0.26
12690	CCTV29 ทางลงยมราช	13.7599774	100.5249092	exat	working	2022-08-09T00:00:00	6:00:00	7:00:00	27	44	2198	2700	0.81
12691	CCTV29 ทางลงยมราช	13.7599774	100.5249092	exat	working	2022-08-09T00:00:00	7:00:00	8:00:00	56	87	3652	2700	1.35
12692	CCTV29 ทางลงยมราช	13.7599774	100.5249092	exat	working	2022-08-09T00:00:00	8:00:00	9:00:00	21	121	1000	2700	0.37
12693	CCTV29 ทางลงยมราช	13.7599774	100.5249092	exat	working	2022-08-09T00:00:00	9:00:00	10:00:00	21	121	884	2700	0.33
12694	CCTV29 ทางลงยมราช	13.7599774	100.5249092	exat	working	2022-08-09T00:00:00	10:00:00	11:00:00	21	121	869	2700	0.32
12695	CCTV29 ทางลงยมราช	13.7599774	100.5249092	exat	working	2022-08-09T00:00:00	11:00:00	12:00:00	80	20	1474	2700	0.55
12696	CCTV29 ทางลงยมราช	13.7599774	100.5249092	exat	working	2022-08-09T00:00:00	12:00:00	13:00:00	21	121	970	2700	0.36
12697	CCTV29 ทางลงยมราช	13.7599774	100.5249092	exat	working	2022-08-09T00:00:00	13:00:00	14:00:00	21	121	923	2700	0.34
12698	CCTV29 ทางลงยมราช	13.7599774	100.5249092	exat	working	2022-08-09T00:00:00	14:00:00	15:00:00	21	121	926	2700	0.34
12699	CCTV29 ทางลงยมราช	13.7599774	100.5249092	exat	working	2022-08-09T00:00:00	15:00:00	16:00:00	21	121	915	2700	0.34
12700	CCTV29 ทางลงยมราช	13.7599774	100.5249092	exat	working	2022-08-09T00:00:00	16:00:00	17:00:00	44	24	2293	2700	0.85
12701	CCTV29 ทางลงยมราช	13.7599774	100.5249092	exat	working	2022-08-09T00:00:00	17:00:00	18:00:00	75	25	2376	2700	0.88
12702	CCTV29 ทางลงยมราช	13.7599774	100.5249092	exat	working	2022-08-09T00:00:00	18:00:00	19:00:00	44	47	2023	2700	0.75
12703	CCTV29 ทางลงยมราช	13.7599774	100.5249092	exat	working	2022-09-09T00:00:00	5:00:00	6:00:00	75	24	1096	2700	0.41
12704	CCTV29 ทางลงยมราช	13.7599774	100.5249092	exat	working	2022-09-09T00:00:00	6:00:00	7:00:00	53	70	3661	2700	1.36
12705	CCTV29 ทางลงยมราช	13.7599774	100.5249092	exat	working	2022-09-09T00:00:00	7:00:00	8:00:00	56	87	3598	2700	1.33
12706	CCTV29 ทางลงยมราช	13.7599774	100.5249092	exat	working	2022-09-09T00:00:00	8:00:00	9:00:00	21	121	1629	2700	0.60
12707	CCTV29 ทางลงยมราช	13.7599774	100.5249092	exat	working	2022-09-09T00:00:00	9:00:00	10:00:00	21	121	1531	2700	0.57
12708	CCTV29 ทางลงยมราช	13.7599774	100.5249092	exat	working	2022-09-09T00:00:00	10:00:00	11:00:00	21	121	1558	2700	0.58
12709	CCTV29 ทางลงยมราช	13.7599774	100.5249092	exat	working	2022-09-09T00:00:00	11:00:00	12:00:00	87	22	2548	2700	0.94
12710	CCTV29 ทางลงยมราช	13.7599774	100.5249092	exat	working	2022-09-09T00:00:00	12:00:00	13:00:00	21	121	1610	2700	0.60
12711	CCTV29 ทางลงยมราช	13.7599774	100.5249092	exat	working	2022-09-09T00:00:00	13:00:00	14:00:00	21	121	1651	2700	0.61
12712	CCTV29 ทางลงยมราช	13.7599774	100.5249092	exat	working	2022-09-09T00:00:00	14:00:00	15:00:00	21	121	1598	2700	0.59
12713	CCTV29 ทางลงยมราช	13.7599774	100.5249092	exat	working	2022-09-09T00:00:00	15:00:00	16:00:00	21	121	1608	2700	0.60
12714	CCTV29 ทางลงยมราช	13.7599774	100.5249092	exat	working	2022-09-09T00:00:00	16:00:00	17:00:00	87	31	3836	2700	1.42
12715	CCTV29 ทางลงยมราช	13.7599774	100.5249092	exat	working	2022-09-09T00:00:00	17:00:00	18:00:00	83	29	3426	2700	1.27
12716	CCTV29 ทางลงยมราช	13.7599774	100.5249092	exat	working	2022-09-09T00:00:00	18:00:00	19:00:00	21	121	3297	2700	1.22
12717	CCTV29 ทางลงยมราช	13.7599774	100.5249092	exat	working	2022-10-09T00:00:00	5:00:00	6:00:00	123	6	174	2700	0.06
12718	CCTV29 ทางลงยมราช	13.7599774	100.5249092	exat	holiday	2022-10-09T00:00:00	6:00:00	7:00:00	87	18	532	2700	0.20
12719	CCTV29 ทางลงยมราช	13.7599774	100.5249092	exat	holiday	2022-10-09T00:00:00	7:00:00	8:00:00	21	122	910	2700	0.34
12720	CCTV29 ทางลงยมราช	13.7599774	100.5249092	exat	holiday	2022-10-09T00:00:00	8:00:00	9:00:00	87	26	1644	2700	0.61
12721	CCTV29 ทางลงยมราช	13.7599774	100.5249092	exat	working	2022-10-09T00:00:00	9:00:00	10:00:00	84	22	1618	2700	0.60
12722	CCTV29 ทางลงยมราช	13.7599774	100.5249092	exat	working	2022-10-09T00:00:00	10:00:00	11:00:00	84	21	1502	2700	0.56
12723	CCTV29 ทางลงยมราช	13.7599774	100.5249092	exat	holiday	2022-10-09T00:00:00	11:00:00	12:00:00	87	23	2768	2700	1.03
12724	CCTV29 ทางลงยมราช	13.7599774	100.5249092	exat	working	2022-10-09T00:00:00	12:00:00	13:00:00	84	23	1523	2700	0.56
12725	CCTV29 ทางลงยมราช	13.7599774	100.5249092	exat	working	2022-10-09T00:00:00	13:00:00	14:00:00	85	24	1497	2700	0.55
12726	CCTV29 ทางลงยมราช	13.7599774	100.5249092	exat	working	2022-10-09T00:00:00	14:00:00	15:00:00	84	23	1538	2700	0.57
12727	CCTV29 ทางลงยมราช	13.7599774	100.5249092	exat	working	2022-10-09T00:00:00	15:00:00	16:00:00	85	21	1635	2700	0.61
12728	CCTV29 ทางลงยมราช	13.7599774	100.5249092	exat	holiday	2022-10-09T00:00:00	16:00:00	17:00:00	87	20	1273	2700	0.47
12729	CCTV29 ทางลงยมราช	13.7599774	100.5249092	exat	holiday	2022-10-09T00:00:00	17:00:00	18:00:00	87	19	1829	2700	0.68
12730	CCTV29 ทางลงยมราช	13.7599774	100.5249092	exat	holiday	2022-10-09T00:00:00	18:00:00	19:00:00	87	22	1099	2700	0.41
12731	CCTV29 ทางลงยมราช	13.7599774	100.5249092	exat	working	2022-11-09T00:00:00	5:00:00	6:00:00	72	4	106	2700	0.04
12732	CCTV29 ทางลงยมราช	13.7599774	100.5249092	exat	holiday	2022-11-09T00:00:00	6:00:00	7:00:00	52	11	313	2700	0.12
12733	CCTV29 ทางลงยมราช	13.7599774	100.5249092	exat	holiday	2022-11-09T00:00:00	7:00:00	8:00:00	21	122	565	2700	0.21
12734	CCTV29 ทางลงยมราช	13.7599774	100.5249092	exat	holiday	2022-11-09T00:00:00	8:00:00	9:00:00	52	16	969	2700	0.36
12735	CCTV29 ทางลงยมราช	13.7599774	100.5249092	exat	working	2022-11-09T00:00:00	9:00:00	10:00:00	51	13	971	2700	0.36
12736	CCTV29 ทางลงยมราช	13.7599774	100.5249092	exat	working	2022-11-09T00:00:00	10:00:00	11:00:00	51	13	898	2700	0.33
12737	CCTV29 ทางลงยมราช	13.7599774	100.5249092	exat	holiday	2022-11-09T00:00:00	11:00:00	12:00:00	52	14	1625	2700	0.60
12738	CCTV29 ทางลงยมราช	13.7599774	100.5249092	exat	working	2022-11-09T00:00:00	12:00:00	13:00:00	50	14	912	2700	0.34
12739	CCTV29 ทางลงยมราช	13.7599774	100.5249092	exat	working	2022-11-09T00:00:00	13:00:00	14:00:00	51	15	900	2700	0.33
12740	CCTV29 ทางลงยมราช	13.7599774	100.5249092	exat	working	2022-11-09T00:00:00	14:00:00	15:00:00	50	14	941	2700	0.35
12741	CCTV29 ทางลงยมราช	13.7599774	100.5249092	exat	working	2022-11-09T00:00:00	15:00:00	16:00:00	51	13	989	2700	0.37
12742	CCTV29 ทางลงยมราช	13.7599774	100.5249092	exat	holiday	2022-11-09T00:00:00	16:00:00	17:00:00	52	12	763	2700	0.28
12743	CCTV29 ทางลงยมราช	13.7599774	100.5249092	exat	holiday	2022-11-09T00:00:00	17:00:00	18:00:00	52	12	1091	2700	0.40
12744	CCTV29 ทางลงยมราช	13.7599774	100.5249092	exat	holiday	2022-11-09T00:00:00	18:00:00	19:00:00	52	13	656	2700	0.24
12745	CCTV12 ก่อนทางลงปะปา2 (พระราม6)	13.8012901	100.5418195	exat	working	2022-05-09T00:00:00	5:00:00	6:00:00	72	9	1162	3600	0.32
12746	CCTV12 ก่อนทางลงปะปา2 (พระราม6)	13.8012901	100.5418195	exat	working	2022-05-09T00:00:00	6:00:00	7:00:00	51	28	3463	3600	0.96
12747	CCTV12 ก่อนทางลงปะปา2 (พระราม6)	13.8012901	100.5418195	exat	working	2022-05-09T00:00:00	7:00:00	8:00:00	39	66	3842	3600	1.07
12748	CCTV12 ก่อนทางลงปะปา2 (พระราม6)	13.8012901	100.5418195	exat	working	2022-05-09T00:00:00	8:00:00	9:00:00	56	27	3253	3600	0.90
12749	CCTV12 ก่อนทางลงปะปา2 (พระราม6)	13.8012901	100.5418195	exat	working	2022-05-09T00:00:00	9:00:00	10:00:00	55	23	3271	3600	0.91
12750	CCTV12 ก่อนทางลงปะปา2 (พระราม6)	13.8012901	100.5418195	exat	working	2022-05-09T00:00:00	10:00:00	11:00:00	53	25	3229	3600	0.90
12751	CCTV12 ก่อนทางลงปะปา2 (พระราม6)	13.8012901	100.5418195	exat	working	2022-05-09T00:00:00	11:00:00	12:00:00	19	121	2008	3600	0.56
12752	CCTV12 ก่อนทางลงปะปา2 (พระราม6)	13.8012901	100.5418195	exat	working	2022-05-09T00:00:00	12:00:00	13:00:00	51	23	3195	3600	0.89
12753	CCTV12 ก่อนทางลงปะปา2 (พระราม6)	13.8012901	100.5418195	exat	working	2022-05-09T00:00:00	13:00:00	14:00:00	53	24	3111	3600	0.86
12754	CCTV12 ก่อนทางลงปะปา2 (พระราม6)	13.8012901	100.5418195	exat	working	2022-05-09T00:00:00	14:00:00	15:00:00	52	23	3194	3600	0.89
12755	CCTV12 ก่อนทางลงปะปา2 (พระราม6)	13.8012901	100.5418195	exat	working	2022-05-09T00:00:00	15:00:00	16:00:00	50	22	3119	3600	0.87
12756	CCTV12 ก่อนทางลงปะปา2 (พระราม6)	13.8012901	100.5418195	exat	working	2022-05-09T00:00:00	16:00:00	17:00:00	27	90	5648	3600	1.57
12757	CCTV12 ก่อนทางลงปะปา2 (พระราม6)	13.8012901	100.5418195	exat	working	2022-05-09T00:00:00	17:00:00	18:00:00	21	121	2731	3600	0.76
12758	CCTV12 ก่อนทางลงปะปา2 (พระราม6)	13.8012901	100.5418195	exat	working	2022-05-09T00:00:00	18:00:00	19:00:00	52	29	2198	3600	0.61
12759	CCTV12 ก่อนทางลงปะปา2 (พระราม6)	13.8012901	100.5418195	exat	working	2022-06-09T00:00:00	5:00:00	6:00:00	72	10	1141	3600	0.32
12760	CCTV12 ก่อนทางลงปะปา2 (พระราม6)	13.8012901	100.5418195	exat	working	2022-06-09T00:00:00	6:00:00	7:00:00	51	28	3472	3600	0.96
12761	CCTV12 ก่อนทางลงปะปา2 (พระราม6)	13.8012901	100.5418195	exat	working	2022-06-09T00:00:00	7:00:00	8:00:00	39	66	3840	3600	1.07
12762	CCTV12 ก่อนทางลงปะปา2 (พระราม6)	13.8012901	100.5418195	exat	working	2022-06-09T00:00:00	8:00:00	9:00:00	56	27	3299	3600	0.92
12763	CCTV12 ก่อนทางลงปะปา2 (พระราม6)	13.8012901	100.5418195	exat	working	2022-06-09T00:00:00	9:00:00	10:00:00	53	25	3252	3600	0.90
12764	CCTV12 ก่อนทางลงปะปา2 (พระราม6)	13.8012901	100.5418195	exat	working	2022-06-09T00:00:00	10:00:00	11:00:00	51	24	3215	3600	0.89
12765	CCTV12 ก่อนทางลงปะปา2 (พระราม6)	13.8012901	100.5418195	exat	working	2022-06-09T00:00:00	11:00:00	12:00:00	49	37	3084	3600	0.86
12766	CCTV12 ก่อนทางลงปะปา2 (พระราม6)	13.8012901	100.5418195	exat	working	2022-06-09T00:00:00	12:00:00	13:00:00	52	24	3204	3600	0.89
12767	CCTV12 ก่อนทางลงปะปา2 (พระราม6)	13.8012901	100.5418195	exat	working	2022-06-09T00:00:00	13:00:00	14:00:00	53	25	3187	3600	0.89
12768	CCTV12 ก่อนทางลงปะปา2 (พระราม6)	13.8012901	100.5418195	exat	working	2022-06-09T00:00:00	14:00:00	15:00:00	52	23	3234	3600	0.90
12769	CCTV12 ก่อนทางลงปะปา2 (พระราม6)	13.8012901	100.5418195	exat	working	2022-06-09T00:00:00	15:00:00	16:00:00	51	22	3195	3600	0.89
12770	CCTV12 ก่อนทางลงปะปา2 (พระราม6)	13.8012901	100.5418195	exat	working	2022-06-09T00:00:00	16:00:00	17:00:00	29	97	5390	3600	1.50
12771	CCTV12 ก่อนทางลงปะปา2 (พระราม6)	13.8012901	100.5418195	exat	working	2022-06-09T00:00:00	17:00:00	18:00:00	18	121	3281	3600	0.91
12772	CCTV12 ก่อนทางลงปะปา2 (พระราม6)	13.8012901	100.5418195	exat	working	2022-06-09T00:00:00	18:00:00	19:00:00	54	25	1999	3600	0.56
12773	CCTV12 ก่อนทางลงปะปา2 (พระราม6)	13.8012901	100.5418195	exat	working	2022-07-09T00:00:00	5:00:00	6:00:00	72	10	1060	3600	0.29
12774	CCTV12 ก่อนทางลงปะปา2 (พระราม6)	13.8012901	100.5418195	exat	working	2022-07-09T00:00:00	6:00:00	7:00:00	51	28	3480	3600	0.97
12775	CCTV12 ก่อนทางลงปะปา2 (พระราม6)	13.8012901	100.5418195	exat	working	2022-07-09T00:00:00	7:00:00	8:00:00	39	66	3835	3600	1.07
12776	CCTV12 ก่อนทางลงปะปา2 (พระราม6)	13.8012901	100.5418195	exat	working	2022-07-09T00:00:00	8:00:00	9:00:00	56	27	3295	3600	0.92
12777	CCTV12 ก่อนทางลงปะปา2 (พระราม6)	13.8012901	100.5418195	exat	working	2022-07-09T00:00:00	9:00:00	10:00:00	52	26	3253	3600	0.90
12778	CCTV12 ก่อนทางลงปะปา2 (พระราม6)	13.8012901	100.5418195	exat	working	2022-07-09T00:00:00	10:00:00	11:00:00	50	23	3234	3600	0.90
12779	CCTV12 ก่อนทางลงปะปา2 (พระราม6)	13.8012901	100.5418195	exat	working	2022-07-09T00:00:00	11:00:00	12:00:00	80	16	4200	3600	1.17
12780	CCTV12 ก่อนทางลงปะปา2 (พระราม6)	13.8012901	100.5418195	exat	working	2022-07-09T00:00:00	12:00:00	13:00:00	53	25	3177	3600	0.88
12781	CCTV12 ก่อนทางลงปะปา2 (พระราม6)	13.8012901	100.5418195	exat	working	2022-07-09T00:00:00	13:00:00	14:00:00	53	26	3230	3600	0.90
12782	CCTV12 ก่อนทางลงปะปา2 (พระราม6)	13.8012901	100.5418195	exat	working	2022-07-09T00:00:00	14:00:00	15:00:00	53	23	3163	3600	0.88
12783	CCTV12 ก่อนทางลงปะปา2 (พระราม6)	13.8012901	100.5418195	exat	working	2022-07-09T00:00:00	15:00:00	16:00:00	52	23	3211	3600	0.89
12784	CCTV12 ก่อนทางลงปะปา2 (พระราม6)	13.8012901	100.5418195	exat	working	2022-07-09T00:00:00	16:00:00	17:00:00	31	105	5091	3600	1.41
12785	CCTV12 ก่อนทางลงปะปา2 (พระราม6)	13.8012901	100.5418195	exat	working	2022-07-09T00:00:00	17:00:00	18:00:00	14	122	3844	3600	1.07
12786	CCTV12 ก่อนทางลงปะปา2 (พระราม6)	13.8012901	100.5418195	exat	working	2022-07-09T00:00:00	18:00:00	19:00:00	55	22	1841	3600	0.51
12787	CCTV12 ก่อนทางลงปะปา2 (พระราม6)	13.8012901	100.5418195	exat	working	2022-08-09T00:00:00	5:00:00	6:00:00	61	20	1408	3600	0.39
12788	CCTV12 ก่อนทางลงปะปา2 (พระราม6)	13.8012901	100.5418195	exat	working	2022-08-09T00:00:00	6:00:00	7:00:00	43	65	4482	3600	1.25
12789	CCTV12 ก่อนทางลงปะปา2 (พระราม6)	13.8012901	100.5418195	exat	working	2022-08-09T00:00:00	7:00:00	8:00:00	33	93	4295	3600	1.19
12790	CCTV12 ก่อนทางลงปะปา2 (พระราม6)	13.8012901	100.5418195	exat	working	2022-08-09T00:00:00	8:00:00	9:00:00	42	69	3638	3600	1.01
12791	CCTV12 ก่อนทางลงปะปา2 (พระราม6)	13.8012901	100.5418195	exat	working	2022-08-09T00:00:00	9:00:00	10:00:00	40	67	3582	3600	1.00
12792	CCTV12 ก่อนทางลงปะปา2 (พระราม6)	13.8012901	100.5418195	exat	working	2022-08-09T00:00:00	10:00:00	11:00:00	39	66	3566	3600	0.99
12793	CCTV12 ก่อนทางลงปะปา2 (พระราม6)	13.8012901	100.5418195	exat	working	2022-08-09T00:00:00	11:00:00	12:00:00	60	30	5046	3600	1.40
12794	CCTV12 ก่อนทางลงปะปา2 (พระราม6)	13.8012901	100.5418195	exat	working	2022-08-09T00:00:00	12:00:00	13:00:00	38	67	3551	3600	0.99
12795	CCTV12 ก่อนทางลงปะปา2 (พระราม6)	13.8012901	100.5418195	exat	working	2022-08-09T00:00:00	13:00:00	14:00:00	38	68	3627	3600	1.01
12796	CCTV12 ก่อนทางลงปะปา2 (พระราม6)	13.8012901	100.5418195	exat	working	2022-08-09T00:00:00	14:00:00	15:00:00	39	66	3589	3600	1.00
12797	CCTV12 ก่อนทางลงปะปา2 (พระราม6)	13.8012901	100.5418195	exat	working	2022-08-09T00:00:00	15:00:00	16:00:00	40	66	3553	3600	0.99
12798	CCTV12 ก่อนทางลงปะปา2 (พระราม6)	13.8012901	100.5418195	exat	working	2022-08-09T00:00:00	16:00:00	17:00:00	31	78	4219	3600	1.17
12799	CCTV12 ก่อนทางลงปะปา2 (พระราม6)	13.8012901	100.5418195	exat	working	2022-08-09T00:00:00	17:00:00	18:00:00	26	87	3261	3600	0.91
12800	CCTV12 ก่อนทางลงปะปา2 (พระราม6)	13.8012901	100.5418195	exat	working	2022-08-09T00:00:00	18:00:00	19:00:00	65	20	2476	3600	0.69
12801	CCTV12 ก่อนทางลงปะปา2 (พระราม6)	13.8012901	100.5418195	exat	working	2022-09-09T00:00:00	5:00:00	6:00:00	51	33	1918	3600	0.53
12802	CCTV12 ก่อนทางลงปะปา2 (พระราม6)	13.8012901	100.5418195	exat	working	2022-09-09T00:00:00	6:00:00	7:00:00	36	102	5474	3600	1.52
12803	CCTV12 ก่อนทางลงปะปา2 (พระราม6)	13.8012901	100.5418195	exat	working	2022-09-09T00:00:00	7:00:00	8:00:00	27	121	4752	3600	1.32
12804	CCTV12 ก่อนทางลงปะปา2 (พระราม6)	13.8012901	100.5418195	exat	working	2022-09-09T00:00:00	8:00:00	9:00:00	29	112	4012	3600	1.11
12805	CCTV12 ก่อนทางลงปะปา2 (พระราม6)	13.8012901	100.5418195	exat	working	2022-09-09T00:00:00	9:00:00	10:00:00	28	107	3878	3600	1.08
12806	CCTV12 ก่อนทางลงปะปา2 (พระราม6)	13.8012901	100.5418195	exat	working	2022-09-09T00:00:00	10:00:00	11:00:00	27	111	3962	3600	1.10
12807	CCTV12 ก่อนทางลงปะปา2 (พระราม6)	13.8012901	100.5418195	exat	working	2022-09-09T00:00:00	11:00:00	12:00:00	41	43	5823	3600	1.62
12808	CCTV12 ก่อนทางลงปะปา2 (พระราม6)	13.8012901	100.5418195	exat	working	2022-09-09T00:00:00	12:00:00	13:00:00	24	110	3966	3600	1.10
12809	CCTV12 ก่อนทางลงปะปา2 (พระราม6)	13.8012901	100.5418195	exat	working	2022-09-09T00:00:00	13:00:00	14:00:00	24	110	4028	3600	1.12
12810	CCTV12 ก่อนทางลงปะปา2 (พระราม6)	13.8012901	100.5418195	exat	working	2022-09-09T00:00:00	14:00:00	15:00:00	25	109	4071	3600	1.13
12811	CCTV12 ก่อนทางลงปะปา2 (พระราม6)	13.8012901	100.5418195	exat	working	2022-09-09T00:00:00	15:00:00	16:00:00	28	110	3949	3600	1.10
12812	CCTV12 ก่อนทางลงปะปา2 (พระราม6)	13.8012901	100.5418195	exat	working	2022-09-09T00:00:00	16:00:00	17:00:00	31	52	3292	3600	0.91
12813	CCTV12 ก่อนทางลงปะปา2 (พระราม6)	13.8012901	100.5418195	exat	working	2022-09-09T00:00:00	17:00:00	18:00:00	39	57	2740	3600	0.76
12814	CCTV12 ก่อนทางลงปะปา2 (พระราม6)	13.8012901	100.5418195	exat	working	2022-09-09T00:00:00	18:00:00	19:00:00	76	17	3117	3600	0.87
12815	CCTV12 ก่อนทางลงปะปา2 (พระราม6)	13.8012901	100.5418195	exat	working	2022-10-09T00:00:00	5:00:00	6:00:00	122	4	674	3600	0.19
12816	CCTV12 ก่อนทางลงปะปา2 (พระราม6)	13.8012901	100.5418195	exat	holiday	2022-10-09T00:00:00	6:00:00	7:00:00	85	11	1993	3600	0.55
12817	CCTV12 ก่อนทางลงปะปา2 (พระราม6)	13.8012901	100.5418195	exat	holiday	2022-10-09T00:00:00	7:00:00	8:00:00	79	18	3506	3600	0.97
12818	CCTV12 ก่อนทางลงปะปา2 (พระราม6)	13.8012901	100.5418195	exat	holiday	2022-10-09T00:00:00	8:00:00	9:00:00	77	20	4721	3600	1.31
12819	CCTV12 ก่อนทางลงปะปา2 (พระราม6)	13.8012901	100.5418195	exat	working	2022-10-09T00:00:00	9:00:00	10:00:00	76	15	4667	3600	1.30
12820	CCTV12 ก่อนทางลงปะปา2 (พระราม6)	13.8012901	100.5418195	exat	working	2022-10-09T00:00:00	10:00:00	11:00:00	74	17	4704	3600	1.31
12821	CCTV12 ก่อนทางลงปะปา2 (พระราม6)	13.8012901	100.5418195	exat	holiday	2022-10-09T00:00:00	11:00:00	12:00:00	29	55	3279	3600	0.91
12822	CCTV12 ก่อนทางลงปะปา2 (พระราม6)	13.8012901	100.5418195	exat	working	2022-10-09T00:00:00	12:00:00	13:00:00	74	16	4725	3600	1.31
12823	CCTV12 ก่อนทางลงปะปา2 (พระราม6)	13.8012901	100.5418195	exat	working	2022-10-09T00:00:00	13:00:00	14:00:00	72	17	4740	3600	1.32
12824	CCTV12 ก่อนทางลงปะปา2 (พระราม6)	13.8012901	100.5418195	exat	working	2022-10-09T00:00:00	14:00:00	15:00:00	76	19	4759	3600	1.32
12825	CCTV12 ก่อนทางลงปะปา2 (พระราม6)	13.8012901	100.5418195	exat	working	2022-10-09T00:00:00	15:00:00	16:00:00	74	19	4622	3600	1.28
12826	CCTV12 ก่อนทางลงปะปา2 (พระราม6)	13.8012901	100.5418195	exat	holiday	2022-10-09T00:00:00	16:00:00	17:00:00	30	39	2199	3600	0.61
12827	CCTV12 ก่อนทางลงปะปา2 (พระราม6)	13.8012901	100.5418195	exat	holiday	2022-10-09T00:00:00	17:00:00	18:00:00	36	37	2365	3600	0.66
12828	CCTV12 ก่อนทางลงปะปา2 (พระราม6)	13.8012901	100.5418195	exat	working	2022-11-09T00:00:00	5:00:00	6:00:00	73	3	377	3600	0.10
12829	CCTV12 ก่อนทางลงปะปา2 (พระราม6)	13.8012901	100.5418195	exat	holiday	2022-11-09T00:00:00	6:00:00	7:00:00	51	7	1197	3600	0.33
12830	CCTV12 ก่อนทางลงปะปา2 (พระราม6)	13.8012901	100.5418195	exat	holiday	2022-11-09T00:00:00	7:00:00	8:00:00	47	11	2071	3600	0.58
12831	CCTV12 ก่อนทางลงปะปา2 (พระราม6)	13.8012901	100.5418195	exat	holiday	2022-11-09T00:00:00	8:00:00	9:00:00	46	12	2857	3600	0.79
12832	CCTV12 ก่อนทางลงปะปา2 (พระราม6)	13.8012901	100.5418195	exat	working	2022-11-09T00:00:00	9:00:00	10:00:00	46	9	2773	3600	0.77
12833	CCTV12 ก่อนทางลงปะปา2 (พระราม6)	13.8012901	100.5418195	exat	working	2022-11-09T00:00:00	10:00:00	11:00:00	45	10	2810	3600	0.78
12834	CCTV12 ก่อนทางลงปะปา2 (พระราม6)	13.8012901	100.5418195	exat	holiday	2022-11-09T00:00:00	11:00:00	12:00:00	17	121	1986	3600	0.55
12835	CCTV12 ก่อนทางลงปะปา2 (พระราม6)	13.8012901	100.5418195	exat	working	2022-11-09T00:00:00	12:00:00	13:00:00	45	10	2839	3600	0.79
12836	CCTV12 ก่อนทางลงปะปา2 (พระราม6)	13.8012901	100.5418195	exat	working	2022-11-09T00:00:00	13:00:00	14:00:00	43	10	2866	3600	0.80
12837	CCTV12 ก่อนทางลงปะปา2 (พระราม6)	13.8012901	100.5418195	exat	working	2022-11-09T00:00:00	14:00:00	15:00:00	46	12	2861	3600	0.79
12838	CCTV12 ก่อนทางลงปะปา2 (พระราม6)	13.8012901	100.5418195	exat	working	2022-11-09T00:00:00	15:00:00	16:00:00	44	12	2785	3600	0.77
12839	CCTV12 ก่อนทางลงปะปา2 (พระราม6)	13.8012901	100.5418195	exat	holiday	2022-11-09T00:00:00	16:00:00	17:00:00	18	122	1314	3600	0.37
12840	CCTV12 ก่อนทางลงปะปา2 (พระราม6)	13.8012901	100.5418195	exat	holiday	2022-11-09T00:00:00	17:00:00	18:00:00	22	23	1417	3600	0.39
12841	CCTV21 ทางลงงามวงศ์วาน 2	13.7942905	100.5392719	exat	working	2022-05-09T00:00:00	5:00:00	6:00:00	42	36	231	1800	0.13
12842	CCTV21 ทางลงงามวงศ์วาน 2	13.7942905	100.5392719	exat	working	2022-05-09T00:00:00	6:00:00	7:00:00	30	102	729	1800	0.41
12843	CCTV21 ทางลงงามวงศ์วาน 2	13.7942905	100.5392719	exat	working	2022-05-09T00:00:00	7:00:00	8:00:00	21	121	1268	1800	0.70
12844	CCTV21 ทางลงงามวงศ์วาน 2	13.7942905	100.5392719	exat	working	2022-05-09T00:00:00	8:00:00	9:00:00	29	182	3285	1800	1.83
12845	CCTV21 ทางลงงามวงศ์วาน 2	13.7942905	100.5392719	exat	working	2022-05-09T00:00:00	9:00:00	10:00:00	27	183	3149	1800	1.75
12846	CCTV21 ทางลงงามวงศ์วาน 2	13.7942905	100.5392719	exat	working	2022-05-09T00:00:00	10:00:00	11:00:00	27	180	3311	1800	1.84
12847	CCTV21 ทางลงงามวงศ์วาน 2	13.7942905	100.5392719	exat	working	2022-05-09T00:00:00	11:00:00	12:00:00	67	33	1280	1800	0.71
12848	CCTV21 ทางลงงามวงศ์วาน 2	13.7942905	100.5392719	exat	working	2022-05-09T00:00:00	12:00:00	13:00:00	28	179	3209	1800	1.78
12849	CCTV21 ทางลงงามวงศ์วาน 2	13.7942905	100.5392719	exat	working	2022-05-09T00:00:00	13:00:00	14:00:00	24	176	3262	1800	1.81
12850	CCTV21 ทางลงงามวงศ์วาน 2	13.7942905	100.5392719	exat	working	2022-05-09T00:00:00	14:00:00	15:00:00	28	178	3163	1800	1.76
12851	CCTV21 ทางลงงามวงศ์วาน 2	13.7942905	100.5392719	exat	working	2022-05-09T00:00:00	15:00:00	16:00:00	25	178	3167	1800	1.76
12852	CCTV21 ทางลงงามวงศ์วาน 2	13.7942905	100.5392719	exat	working	2022-05-09T00:00:00	16:00:00	17:00:00	66	23	1648	1800	0.92
12853	CCTV21 ทางลงงามวงศ์วาน 2	13.7942905	100.5392719	exat	working	2022-05-09T00:00:00	17:00:00	18:00:00	70	38	1282	1800	0.71
12854	CCTV21 ทางลงงามวงศ์วาน 2	13.7942905	100.5392719	exat	working	2022-05-09T00:00:00	18:00:00	19:00:00	73	26	1097	1800	0.61
12855	CCTV21 ทางลงงามวงศ์วาน 2	13.7942905	100.5392719	exat	working	2022-06-09T00:00:00	5:00:00	6:00:00	42	34	241	1800	0.13
12856	CCTV21 ทางลงงามวงศ์วาน 2	13.7942905	100.5392719	exat	working	2022-06-09T00:00:00	6:00:00	7:00:00	30	102	738	1800	0.41
12857	CCTV21 ทางลงงามวงศ์วาน 2	13.7942905	100.5392719	exat	working	2022-06-09T00:00:00	7:00:00	8:00:00	21	121	1277	1800	0.71
12858	CCTV21 ทางลงงามวงศ์วาน 2	13.7942905	100.5392719	exat	working	2022-06-09T00:00:00	8:00:00	9:00:00	29	182	3282	1800	1.82
12859	CCTV21 ทางลงงามวงศ์วาน 2	13.7942905	100.5392719	exat	working	2022-06-09T00:00:00	9:00:00	10:00:00	27	181	3125	1800	1.74
12860	CCTV21 ทางลงงามวงศ์วาน 2	13.7942905	100.5392719	exat	working	2022-06-09T00:00:00	10:00:00	11:00:00	27	181	3262	1800	1.81
12861	CCTV21 ทางลงงามวงศ์วาน 2	13.7942905	100.5392719	exat	working	2022-06-09T00:00:00	11:00:00	12:00:00	65	69	1741	1800	0.97
12862	CCTV21 ทางลงงามวงศ์วาน 2	13.7942905	100.5392719	exat	working	2022-06-09T00:00:00	12:00:00	13:00:00	27	180	3233	1800	1.80
12863	CCTV21 ทางลงงามวงศ์วาน 2	13.7942905	100.5392719	exat	working	2022-06-09T00:00:00	13:00:00	14:00:00	25	179	3263	1800	1.81
12864	CCTV21 ทางลงงามวงศ์วาน 2	13.7942905	100.5392719	exat	working	2022-06-09T00:00:00	14:00:00	15:00:00	27	178	3201	1800	1.78
12865	CCTV21 ทางลงงามวงศ์วาน 2	13.7942905	100.5392719	exat	working	2022-06-09T00:00:00	15:00:00	16:00:00	26	177	3220	1800	1.79
12866	CCTV21 ทางลงงามวงศ์วาน 2	13.7942905	100.5392719	exat	working	2022-06-09T00:00:00	16:00:00	17:00:00	56	67	1640	1800	0.91
12867	CCTV21 ทางลงงามวงศ์วาน 2	13.7942905	100.5392719	exat	working	2022-06-09T00:00:00	17:00:00	18:00:00	61	72	1548	1800	0.86
12868	CCTV21 ทางลงงามวงศ์วาน 2	13.7942905	100.5392719	exat	working	2022-06-09T00:00:00	18:00:00	19:00:00	75	38	1362	1800	0.76
12869	CCTV21 ทางลงงามวงศ์วาน 2	13.7942905	100.5392719	exat	working	2022-07-09T00:00:00	5:00:00	6:00:00	42	34	238	1800	0.13
12870	CCTV21 ทางลงงามวงศ์วาน 2	13.7942905	100.5392719	exat	working	2022-07-09T00:00:00	6:00:00	7:00:00	30	102	734	1800	0.41
12871	CCTV21 ทางลงงามวงศ์วาน 2	13.7942905	100.5392719	exat	working	2022-07-09T00:00:00	7:00:00	8:00:00	21	121	1290	1800	0.72
12872	CCTV21 ทางลงงามวงศ์วาน 2	13.7942905	100.5392719	exat	working	2022-07-09T00:00:00	8:00:00	9:00:00	29	181	3279	1800	1.82
12873	CCTV21 ทางลงงามวงศ์วาน 2	13.7942905	100.5392719	exat	working	2022-07-09T00:00:00	9:00:00	10:00:00	26	180	3147	1800	1.75
12874	CCTV21 ทางลงงามวงศ์วาน 2	13.7942905	100.5392719	exat	working	2022-07-09T00:00:00	10:00:00	11:00:00	27	181	3249	1800	1.81
12875	CCTV21 ทางลงงามวงศ์วาน 2	13.7942905	100.5392719	exat	working	2022-07-09T00:00:00	11:00:00	12:00:00	63	105	2188	1800	1.22
12876	CCTV21 ทางลงงามวงศ์วาน 2	13.7942905	100.5392719	exat	working	2022-07-09T00:00:00	12:00:00	13:00:00	26	179	3236	1800	1.80
12877	CCTV21 ทางลงงามวงศ์วาน 2	13.7942905	100.5392719	exat	working	2022-07-09T00:00:00	13:00:00	14:00:00	26	181	3255	1800	1.81
12878	CCTV21 ทางลงงามวงศ์วาน 2	13.7942905	100.5392719	exat	working	2022-07-09T00:00:00	14:00:00	15:00:00	27	179	3257	1800	1.81
12879	CCTV21 ทางลงงามวงศ์วาน 2	13.7942905	100.5392719	exat	working	2022-07-09T00:00:00	15:00:00	16:00:00	27	176	3239	1800	1.80
12880	CCTV21 ทางลงงามวงศ์วาน 2	13.7942905	100.5392719	exat	working	2022-07-09T00:00:00	16:00:00	17:00:00	45	112	1645	1800	0.91
12881	CCTV21 ทางลงงามวงศ์วาน 2	13.7942905	100.5392719	exat	working	2022-07-09T00:00:00	17:00:00	18:00:00	52	105	1819	1800	1.01
12882	CCTV21 ทางลงงามวงศ์วาน 2	13.7942905	100.5392719	exat	working	2022-07-09T00:00:00	18:00:00	19:00:00	76	50	1644	1800	0.91
12883	CCTV21 ทางลงงามวงศ์วาน 2	13.7942905	100.5392719	exat	working	2022-08-09T00:00:00	5:00:00	6:00:00	85	21	313	1800	0.17
12884	CCTV21 ทางลงงามวงศ์วาน 2	13.7942905	100.5392719	exat	working	2022-08-09T00:00:00	6:00:00	7:00:00	59	60	934	1800	0.52
12885	CCTV21 ทางลงงามวงศ์วาน 2	13.7942905	100.5392719	exat	working	2022-08-09T00:00:00	7:00:00	8:00:00	27	98	821	1800	0.46
12886	CCTV21 ทางลงงามวงศ์วาน 2	13.7942905	100.5392719	exat	working	2022-08-09T00:00:00	8:00:00	9:00:00	46	100	2006	1800	1.11
12887	CCTV21 ทางลงงามวงศ์วาน 2	13.7942905	100.5392719	exat	working	2022-08-09T00:00:00	9:00:00	10:00:00	42	97	1925	1800	1.07
12888	CCTV21 ทางลงงามวงศ์วาน 2	13.7942905	100.5392719	exat	working	2022-08-09T00:00:00	10:00:00	11:00:00	44	97	1951	1800	1.08
12889	CCTV21 ทางลงงามวงศ์วาน 2	13.7942905	100.5392719	exat	working	2022-08-09T00:00:00	11:00:00	12:00:00	38	94	2385	1800	1.33
12890	CCTV21 ทางลงงามวงศ์วาน 2	13.7942905	100.5392719	exat	working	2022-08-09T00:00:00	12:00:00	13:00:00	42	99	1969	1800	1.09
12891	CCTV21 ทางลงงามวงศ์วาน 2	13.7942905	100.5392719	exat	working	2022-08-09T00:00:00	13:00:00	14:00:00	43	99	1923	1800	1.07
12892	CCTV21 ทางลงงามวงศ์วาน 2	13.7942905	100.5392719	exat	working	2022-08-09T00:00:00	14:00:00	15:00:00	43	98	1976	1800	1.10
12893	CCTV21 ทางลงงามวงศ์วาน 2	13.7942905	100.5392719	exat	working	2022-08-09T00:00:00	15:00:00	16:00:00	42	96	1952	1800	1.08
12894	CCTV21 ทางลงงามวงศ์วาน 2	13.7942905	100.5392719	exat	working	2022-08-09T00:00:00	16:00:00	17:00:00	50	97	993	1800	0.55
12895	CCTV21 ทางลงงามวงศ์วาน 2	13.7942905	100.5392719	exat	working	2022-08-09T00:00:00	17:00:00	18:00:00	64	105	2467	1800	1.37
12896	CCTV21 ทางลงงามวงศ์วาน 2	13.7942905	100.5392719	exat	working	2022-08-09T00:00:00	18:00:00	19:00:00	76	50	1634	1800	0.91
12897	CCTV21 ทางลงงามวงศ์วาน 2	13.7942905	100.5392719	exat	working	2022-09-09T00:00:00	5:00:00	6:00:00	122	7	371	1800	0.21
12898	CCTV21 ทางลงงามวงศ์วาน 2	13.7942905	100.5392719	exat	working	2022-09-09T00:00:00	6:00:00	7:00:00	87	19	1108	1800	0.62
12899	CCTV21 ทางลงงามวงศ์วาน 2	13.7942905	100.5392719	exat	working	2022-09-09T00:00:00	7:00:00	8:00:00	34	17	382	1800	0.21
12900	CCTV21 ทางลงงามวงศ์วาน 2	13.7942905	100.5392719	exat	working	2022-09-09T00:00:00	8:00:00	9:00:00	62	20	725	1800	0.40
12901	CCTV21 ทางลงงามวงศ์วาน 2	13.7942905	100.5392719	exat	working	2022-09-09T00:00:00	9:00:00	10:00:00	57	15	688	1800	0.38
12902	CCTV21 ทางลงงามวงศ์วาน 2	13.7942905	100.5392719	exat	working	2022-09-09T00:00:00	10:00:00	11:00:00	60	14	675	1800	0.38
12903	CCTV21 ทางลงงามวงศ์วาน 2	13.7942905	100.5392719	exat	working	2022-09-09T00:00:00	11:00:00	12:00:00	12	121	2548	1800	1.42
12904	CCTV21 ทางลงงามวงศ์วาน 2	13.7942905	100.5392719	exat	working	2022-09-09T00:00:00	12:00:00	13:00:00	58	19	705	1800	0.39
12905	CCTV21 ทางลงงามวงศ์วาน 2	13.7942905	100.5392719	exat	working	2022-09-09T00:00:00	13:00:00	14:00:00	61	18	597	1800	0.33
12906	CCTV21 ทางลงงามวงศ์วาน 2	13.7942905	100.5392719	exat	working	2022-09-09T00:00:00	14:00:00	15:00:00	60	18	695	1800	0.39
12907	CCTV21 ทางลงงามวงศ์วาน 2	13.7942905	100.5392719	exat	working	2022-09-09T00:00:00	15:00:00	16:00:00	56	17	653	1800	0.36
12908	CCTV21 ทางลงงามวงศ์วาน 2	13.7942905	100.5392719	exat	working	2022-09-09T00:00:00	16:00:00	17:00:00	55	81	367	1800	0.20
12909	CCTV21 ทางลงงามวงศ์วาน 2	13.7942905	100.5392719	exat	working	2022-09-09T00:00:00	17:00:00	18:00:00	76	104	3106	1800	1.73
12910	CCTV21 ทางลงงามวงศ์วาน 2	13.7942905	100.5392719	exat	working	2022-09-09T00:00:00	18:00:00	19:00:00	76	50	1623	1800	0.90
12911	CCTV21 ทางลงงามวงศ์วาน 2	13.7942905	100.5392719	exat	working	2022-10-09T00:00:00	5:00:00	6:00:00	122	6	185	1800	0.10
12912	CCTV21 ทางลงงามวงศ์วาน 2	13.7942905	100.5392719	exat	working	2022-10-09T00:00:00	6:00:00	7:00:00	87	19	547	1800	0.30
12913	CCTV21 ทางลงงามวงศ์วาน 2	13.7942905	100.5392719	exat	working	2022-10-09T00:00:00	7:00:00	8:00:00	34	17	183	1800	0.10
12914	CCTV21 ทางลงงามวงศ์วาน 2	13.7942905	100.5392719	exat	working	2022-10-09T00:00:00	8:00:00	9:00:00	62	20	366	1800	0.20
12915	CCTV21 ทางลงงามวงศ์วาน 2	13.7942905	100.5392719	exat	working	2022-10-09T00:00:00	9:00:00	10:00:00	57	15	212	1800	0.12
12916	CCTV21 ทางลงงามวงศ์วาน 2	13.7942905	100.5392719	exat	working	2022-10-09T00:00:00	10:00:00	11:00:00	58	17	331	1800	0.18
12917	CCTV21 ทางลงงามวงศ์วาน 2	13.7942905	100.5392719	exat	holiday	2022-10-09T00:00:00	11:00:00	12:00:00	62	22	382	1800	0.21
12918	CCTV21 ทางลงงามวงศ์วาน 2	13.7942905	100.5392719	exat	working	2022-10-09T00:00:00	12:00:00	13:00:00	61	19	312	1800	0.17
12919	CCTV21 ทางลงงามวงศ์วาน 2	13.7942905	100.5392719	exat	working	2022-10-09T00:00:00	13:00:00	14:00:00	59	19	260	1800	0.14
12920	CCTV21 ทางลงงามวงศ์วาน 2	13.7942905	100.5392719	exat	working	2022-10-09T00:00:00	14:00:00	15:00:00	61	16	336	1800	0.19
12921	CCTV21 ทางลงงามวงศ์วาน 2	13.7942905	100.5392719	exat	working	2022-10-09T00:00:00	15:00:00	16:00:00	60	17	277	1800	0.15
12922	CCTV21 ทางลงงามวงศ์วาน 2	13.7942905	100.5392719	exat	holiday	2022-10-09T00:00:00	16:00:00	17:00:00	38	74	712	1800	0.40
12923	CCTV21 ทางลงงามวงศ์วาน 2	13.7942905	100.5392719	exat	holiday	2022-10-09T00:00:00	17:00:00	18:00:00	23	69	1282	1800	0.71
12924	CCTV21 ทางลงงามวงศ์วาน 2	13.7942905	100.5392719	exat	holiday	2022-10-09T00:00:00	18:00:00	19:00:00	43	21	552	1800	0.31
12925	CCTV21 ทางลงงามวงศ์วาน 2	13.7942905	100.5392719	exat	working	2022-11-09T00:00:00	5:00:00	6:00:00	74	4	101	1800	0.06
12926	CCTV21 ทางลงงามวงศ์วาน 2	13.7942905	100.5392719	exat	working	2022-11-09T00:00:00	6:00:00	7:00:00	52	12	318	1800	0.18
12927	CCTV21 ทางลงงามวงศ์วาน 2	13.7942905	100.5392719	exat	working	2022-11-09T00:00:00	7:00:00	8:00:00	20	121	97	1800	0.05
12928	CCTV21 ทางลงงามวงศ์วาน 2	13.7942905	100.5392719	exat	working	2022-11-09T00:00:00	8:00:00	9:00:00	38	12	232	1800	0.13
12929	CCTV21 ทางลงงามวงศ์วาน 2	13.7942905	100.5392719	exat	working	2022-11-09T00:00:00	9:00:00	10:00:00	34	9	148	1800	0.08
12930	CCTV21 ทางลงงามวงศ์วาน 2	13.7942905	100.5392719	exat	working	2022-11-09T00:00:00	10:00:00	11:00:00	35	11	197	1800	0.11
12931	CCTV21 ทางลงงามวงศ์วาน 2	13.7942905	100.5392719	exat	holiday	2022-11-09T00:00:00	11:00:00	12:00:00	38	13	209	1800	0.12
12932	CCTV21 ทางลงงามวงศ์วาน 2	13.7942905	100.5392719	exat	working	2022-11-09T00:00:00	12:00:00	13:00:00	37	11	187	1800	0.10
12933	CCTV21 ทางลงงามวงศ์วาน 2	13.7942905	100.5392719	exat	working	2022-11-09T00:00:00	13:00:00	14:00:00	35	11	163	1800	0.09
12934	CCTV21 ทางลงงามวงศ์วาน 2	13.7942905	100.5392719	exat	working	2022-11-09T00:00:00	14:00:00	15:00:00	37	10	200	1800	0.11
12935	CCTV21 ทางลงงามวงศ์วาน 2	13.7942905	100.5392719	exat	working	2022-11-09T00:00:00	15:00:00	16:00:00	36	10	167	1800	0.09
12936	CCTV21 ทางลงงามวงศ์วาน 2	13.7942905	100.5392719	exat	holiday	2022-11-09T00:00:00	16:00:00	17:00:00	23	44	443	1800	0.25
12937	CCTV21 ทางลงงามวงศ์วาน 2	13.7942905	100.5392719	exat	holiday	2022-11-09T00:00:00	17:00:00	18:00:00	14	121	765	1800	0.43
12938	CCTV21 ทางลงงามวงศ์วาน 2	13.7942905	100.5392719	exat	holiday	2022-11-09T00:00:00	18:00:00	19:00:00	26	13	329	1800	0.18
12939	CCTV14 ทางขึ้นย่านพหลฯ	13.788193	100.5367473	exat	working	2022-05-09T00:00:00	5:00:00	6:00:00	39	32	708	2700	0.26
12940	CCTV14 ทางขึ้นย่านพหลฯ	13.788193	100.5367473	exat	working	2022-05-09T00:00:00	6:00:00	7:00:00	28	95	2041	2700	0.76
12941	CCTV14 ทางขึ้นย่านพหลฯ	13.788193	100.5367473	exat	working	2022-05-09T00:00:00	7:00:00	8:00:00	21	121	1451	2700	0.54
12942	CCTV14 ทางขึ้นย่านพหลฯ	13.788193	100.5367473	exat	working	2022-05-09T00:00:00	8:00:00	9:00:00	33	182	2538	2700	0.94
12943	CCTV14 ทางขึ้นย่านพหลฯ	13.788193	100.5367473	exat	working	2022-05-09T00:00:00	9:00:00	10:00:00	30	178	2426	2700	0.90
12944	CCTV14 ทางขึ้นย่านพหลฯ	13.788193	100.5367473	exat	working	2022-05-09T00:00:00	10:00:00	11:00:00	27	177	2541	2700	0.94
12945	CCTV14 ทางขึ้นย่านพหลฯ	13.788193	100.5367473	exat	working	2022-05-09T00:00:00	11:00:00	12:00:00	79	57	2567	2700	0.95
12946	CCTV14 ทางขึ้นย่านพหลฯ	13.788193	100.5367473	exat	working	2022-05-09T00:00:00	12:00:00	13:00:00	28	176	2432	2700	0.90
12947	CCTV14 ทางขึ้นย่านพหลฯ	13.788193	100.5367473	exat	working	2022-05-09T00:00:00	13:00:00	14:00:00	31	177	2451	2700	0.91
12948	CCTV14 ทางขึ้นย่านพหลฯ	13.788193	100.5367473	exat	working	2022-05-09T00:00:00	14:00:00	15:00:00	29	177	2449	2700	0.91
12949	CCTV14 ทางขึ้นย่านพหลฯ	13.788193	100.5367473	exat	working	2022-05-09T00:00:00	15:00:00	16:00:00	31	177	2443	2700	0.90
12950	CCTV14 ทางขึ้นย่านพหลฯ	13.788193	100.5367473	exat	working	2022-05-09T00:00:00	16:00:00	17:00:00	66	68	5834	2700	2.16
12951	CCTV14 ทางขึ้นย่านพหลฯ	13.788193	100.5367473	exat	working	2022-05-09T00:00:00	17:00:00	18:00:00	34	182	4720	2700	1.75
12952	CCTV14 ทางขึ้นย่านพหลฯ	13.788193	100.5367473	exat	working	2022-05-09T00:00:00	18:00:00	19:00:00	39	181	4040	2700	1.50
12953	CCTV14 ทางขึ้นย่านพหลฯ	13.788193	100.5367473	exat	working	2022-06-09T00:00:00	5:00:00	6:00:00	39	31	649	2700	0.24
12954	CCTV14 ทางขึ้นย่านพหลฯ	13.788193	100.5367473	exat	working	2022-06-09T00:00:00	6:00:00	7:00:00	28	95	2015	2700	0.75
12955	CCTV14 ทางขึ้นย่านพหลฯ	13.788193	100.5367473	exat	working	2022-06-09T00:00:00	7:00:00	8:00:00	21	121	1482	2700	0.55
12956	CCTV14 ทางขึ้นย่านพหลฯ	13.788193	100.5367473	exat	working	2022-06-09T00:00:00	8:00:00	9:00:00	33	182	2544	2700	0.94
12957	CCTV14 ทางขึ้นย่านพหลฯ	13.788193	100.5367473	exat	working	2022-06-09T00:00:00	9:00:00	10:00:00	29	178	2439	2700	0.90
12958	CCTV14 ทางขึ้นย่านพหลฯ	13.788193	100.5367473	exat	working	2022-06-09T00:00:00	10:00:00	11:00:00	28	179	2513	2700	0.93
12959	CCTV14 ทางขึ้นย่านพหลฯ	13.788193	100.5367473	exat	working	2022-06-09T00:00:00	11:00:00	12:00:00	77	59	3466	2700	1.28
12960	CCTV14 ทางขึ้นย่านพหลฯ	13.788193	100.5367473	exat	working	2022-06-09T00:00:00	12:00:00	13:00:00	29	177	2419	2700	0.90
12961	CCTV14 ทางขึ้นย่านพหลฯ	13.788193	100.5367473	exat	working	2022-06-09T00:00:00	13:00:00	14:00:00	30	176	2443	2700	0.90
12962	CCTV14 ทางขึ้นย่านพหลฯ	13.788193	100.5367473	exat	working	2022-06-09T00:00:00	14:00:00	15:00:00	30	177	2448	2700	0.91
12963	CCTV14 ทางขึ้นย่านพหลฯ	13.788193	100.5367473	exat	working	2022-06-09T00:00:00	15:00:00	16:00:00	30	177	2426	2700	0.90
12964	CCTV14 ทางขึ้นย่านพหลฯ	13.788193	100.5367473	exat	working	2022-06-09T00:00:00	16:00:00	17:00:00	51	116	6209	2700	2.30
12965	CCTV14 ทางขึ้นย่านพหลฯ	13.788193	100.5367473	exat	working	2022-06-09T00:00:00	17:00:00	18:00:00	34	182	6210	2700	2.30
12966	CCTV14 ทางขึ้นย่านพหลฯ	13.788193	100.5367473	exat	working	2022-06-09T00:00:00	18:00:00	19:00:00	33	181	4371	2700	1.62
12967	CCTV14 ทางขึ้นย่านพหลฯ	13.788193	100.5367473	exat	working	2022-07-09T00:00:00	5:00:00	6:00:00	39	29	666	2700	0.25
12968	CCTV14 ทางขึ้นย่านพหลฯ	13.788193	100.5367473	exat	working	2022-07-09T00:00:00	6:00:00	7:00:00	28	95	1999	2700	0.74
12969	CCTV14 ทางขึ้นย่านพหลฯ	13.788193	100.5367473	exat	working	2022-07-09T00:00:00	7:00:00	8:00:00	21	121	1465	2700	0.54
12970	CCTV14 ทางขึ้นย่านพหลฯ	13.788193	100.5367473	exat	working	2022-07-09T00:00:00	8:00:00	9:00:00	33	181	2555	2700	0.95
12971	CCTV14 ทางขึ้นย่านพหลฯ	13.788193	100.5367473	exat	working	2022-07-09T00:00:00	9:00:00	10:00:00	29	177	2452	2700	0.91
12972	CCTV14 ทางขึ้นย่านพหลฯ	13.788193	100.5367473	exat	working	2022-07-09T00:00:00	10:00:00	11:00:00	28	182	2486	2700	0.92
12973	CCTV14 ทางขึ้นย่านพหลฯ	13.788193	100.5367473	exat	working	2022-07-09T00:00:00	11:00:00	12:00:00	75	61	4365	2700	1.62
12974	CCTV14 ทางขึ้นย่านพหลฯ	13.788193	100.5367473	exat	working	2022-07-09T00:00:00	12:00:00	13:00:00	30	176	2424	2700	0.90
12975	CCTV14 ทางขึ้นย่านพหลฯ	13.788193	100.5367473	exat	working	2022-07-09T00:00:00	13:00:00	14:00:00	30	175	2463	2700	0.91
12976	CCTV14 ทางขึ้นย่านพหลฯ	13.788193	100.5367473	exat	working	2022-07-09T00:00:00	14:00:00	15:00:00	31	175	2430	2700	0.90
12977	CCTV14 ทางขึ้นย่านพหลฯ	13.788193	100.5367473	exat	working	2022-07-09T00:00:00	15:00:00	16:00:00	29	178	2413	2700	0.89
12978	CCTV14 ทางขึ้นย่านพหลฯ	13.788193	100.5367473	exat	working	2022-07-09T00:00:00	16:00:00	17:00:00	37	164	6519	2700	2.41
12979	CCTV14 ทางขึ้นย่านพหลฯ	13.788193	100.5367473	exat	working	2022-07-09T00:00:00	17:00:00	18:00:00	34	181	7627	2700	2.82
12980	CCTV14 ทางขึ้นย่านพหลฯ	13.788193	100.5367473	exat	working	2022-07-09T00:00:00	18:00:00	19:00:00	28	181	4758	2700	1.76
12981	CCTV14 ทางขึ้นย่านพหลฯ	13.788193	100.5367473	exat	working	2022-08-09T00:00:00	5:00:00	6:00:00	79	46	878	2700	0.33
12982	CCTV14 ทางขึ้นย่านพหลฯ	13.788193	100.5367473	exat	working	2022-08-09T00:00:00	6:00:00	7:00:00	57	138	2624	2700	0.97
12983	CCTV14 ทางขึ้นย่านพหลฯ	13.788193	100.5367473	exat	working	2022-08-09T00:00:00	7:00:00	8:00:00	44	179	2396	2700	0.89
12984	CCTV14 ทางขึ้นย่านพหลฯ	13.788193	100.5367473	exat	working	2022-08-09T00:00:00	8:00:00	9:00:00	38	143	3280	2700	1.21
12985	CCTV14 ทางขึ้นย่านพหลฯ	13.788193	100.5367473	exat	working	2022-08-09T00:00:00	9:00:00	10:00:00	33	141	3157	2700	1.17
12986	CCTV14 ทางขึ้นย่านพหลฯ	13.788193	100.5367473	exat	working	2022-08-09T00:00:00	10:00:00	11:00:00	34	141	3243	2700	1.20
12987	CCTV14 ทางขึ้นย่านพหลฯ	13.788193	100.5367473	exat	working	2022-08-09T00:00:00	11:00:00	12:00:00	72	68	3944	2700	1.46
12988	CCTV14 ทางขึ้นย่านพหลฯ	13.788193	100.5367473	exat	working	2022-08-09T00:00:00	12:00:00	13:00:00	35	140	3192	2700	1.18
12989	CCTV14 ทางขึ้นย่านพหลฯ	13.788193	100.5367473	exat	working	2022-08-09T00:00:00	13:00:00	14:00:00	34	139	3161	2700	1.17
12990	CCTV14 ทางขึ้นย่านพหลฯ	13.788193	100.5367473	exat	working	2022-08-09T00:00:00	14:00:00	15:00:00	35	138	3168	2700	1.17
12991	CCTV14 ทางขึ้นย่านพหลฯ	13.788193	100.5367473	exat	working	2022-08-09T00:00:00	15:00:00	16:00:00	34	141	3146	2700	1.17
12992	CCTV14 ทางขึ้นย่านพหลฯ	13.788193	100.5367473	exat	working	2022-08-09T00:00:00	16:00:00	17:00:00	33	172	6272	2700	2.32
12993	CCTV14 ทางขึ้นย่านพหลฯ	13.788193	100.5367473	exat	working	2022-08-09T00:00:00	17:00:00	18:00:00	32	182	6546	2700	2.42
12994	CCTV14 ทางขึ้นย่านพหลฯ	13.788193	100.5367473	exat	working	2022-08-09T00:00:00	18:00:00	19:00:00	22	181	5996	2700	2.22
12995	CCTV14 ทางขึ้นย่านพหลฯ	13.788193	100.5367473	exat	working	2022-09-09T00:00:00	5:00:00	6:00:00	124	57	1092	2700	0.40
12996	CCTV14 ทางขึ้นย่านพหลฯ	13.788193	100.5367473	exat	working	2022-09-09T00:00:00	6:00:00	7:00:00	87	182	3285	2700	1.22
12997	CCTV14 ทางขึ้นย่านพหลฯ	13.788193	100.5367473	exat	working	2022-09-09T00:00:00	7:00:00	8:00:00	87	177	3293	2700	1.22
12998	CCTV14 ทางขึ้นย่านพหลฯ	13.788193	100.5367473	exat	working	2022-09-09T00:00:00	8:00:00	9:00:00	43	105	4002	2700	1.48
12999	CCTV14 ทางขึ้นย่านพหลฯ	13.788193	100.5367473	exat	working	2022-09-09T00:00:00	9:00:00	10:00:00	38	106	3958	2700	1.47
13000	CCTV14 ทางขึ้นย่านพหลฯ	13.788193	100.5367473	exat	working	2022-09-09T00:00:00	10:00:00	11:00:00	39	102	3992	2700	1.48
13001	CCTV14 ทางขึ้นย่านพหลฯ	13.788193	100.5367473	exat	working	2022-09-09T00:00:00	11:00:00	12:00:00	68	75	3450	2700	1.28
13002	CCTV14 ทางขึ้นย่านพหลฯ	13.788193	100.5367473	exat	working	2022-09-09T00:00:00	12:00:00	13:00:00	41	103	3961	2700	1.47
13003	CCTV14 ทางขึ้นย่านพหลฯ	13.788193	100.5367473	exat	working	2022-09-09T00:00:00	13:00:00	14:00:00	39	101	3921	2700	1.45
13004	CCTV14 ทางขึ้นย่านพหลฯ	13.788193	100.5367473	exat	working	2022-09-09T00:00:00	14:00:00	15:00:00	39	101	3897	2700	1.44
13005	CCTV14 ทางขึ้นย่านพหลฯ	13.788193	100.5367473	exat	working	2022-09-09T00:00:00	15:00:00	16:00:00	38	102	3901	2700	1.44
13006	CCTV14 ทางขึ้นย่านพหลฯ	13.788193	100.5367473	exat	working	2022-09-09T00:00:00	16:00:00	17:00:00	29	182	6001	2700	2.22
13007	CCTV14 ทางขึ้นย่านพหลฯ	13.788193	100.5367473	exat	working	2022-09-09T00:00:00	17:00:00	18:00:00	29	182	5499	2700	2.04
13008	CCTV14 ทางขึ้นย่านพหลฯ	13.788193	100.5367473	exat	working	2022-09-09T00:00:00	18:00:00	19:00:00	16	122	7308	2700	2.71
13009	CCTV14 ทางขึ้นย่านพหลฯ	13.788193	100.5367473	exat	working	2022-10-09T00:00:00	5:00:00	6:00:00	71	30	466	2700	0.17
13010	CCTV14 ทางขึ้นย่านพหลฯ	13.788193	100.5367473	exat	holiday	2022-10-09T00:00:00	6:00:00	7:00:00	50	90	1448	2700	0.54
13011	CCTV14 ทางขึ้นย่านพหลฯ	13.788193	100.5367473	exat	holiday	2022-10-09T00:00:00	7:00:00	8:00:00	52	105	2759	2700	1.02
13012	CCTV14 ทางขึ้นย่านพหลฯ	13.788193	100.5367473	exat	holiday	2022-10-09T00:00:00	8:00:00	9:00:00	47	111	4383	2700	1.62
13013	CCTV14 ทางขึ้นย่านพหลฯ	13.788193	100.5367473	exat	working	2022-10-09T00:00:00	9:00:00	10:00:00	43	111	4313	2700	1.60
13014	CCTV14 ทางขึ้นย่านพหลฯ	13.788193	100.5367473	exat	working	2022-10-09T00:00:00	10:00:00	11:00:00	42	111	4345	2700	1.61
13015	CCTV14 ทางขึ้นย่านพหลฯ	13.788193	100.5367473	exat	holiday	2022-10-09T00:00:00	11:00:00	12:00:00	87	61	3643	2700	1.35
13016	CCTV14 ทางขึ้นย่านพหลฯ	13.788193	100.5367473	exat	working	2022-10-09T00:00:00	12:00:00	13:00:00	44	107	4292	2700	1.59
13017	CCTV14 ทางขึ้นย่านพหลฯ	13.788193	100.5367473	exat	working	2022-10-09T00:00:00	13:00:00	14:00:00	45	106	4273	2700	1.58
13018	CCTV14 ทางขึ้นย่านพหลฯ	13.788193	100.5367473	exat	working	2022-10-09T00:00:00	14:00:00	15:00:00	46	106	4277	2700	1.58
13019	CCTV14 ทางขึ้นย่านพหลฯ	13.788193	100.5367473	exat	working	2022-10-09T00:00:00	15:00:00	16:00:00	43	106	4349	2700	1.61
13020	CCTV14 ทางขึ้นย่านพหลฯ	13.788193	100.5367473	exat	holiday	2022-10-09T00:00:00	16:00:00	17:00:00	69	166	3830	2700	1.42
13021	CCTV14 ทางขึ้นย่านพหลฯ	13.788193	100.5367473	exat	holiday	2022-10-09T00:00:00	17:00:00	18:00:00	30	178	3277	2700	1.21
13022	CCTV14 ทางขึ้นย่านพหลฯ	13.788193	100.5367473	exat	holiday	2022-10-09T00:00:00	18:00:00	19:00:00	21	121	2191	2700	0.81
13023	CCTV14 ทางขึ้นย่านพหลฯ	13.788193	100.5367473	exat	working	2022-11-09T00:00:00	5:00:00	6:00:00	42	19	289	2700	0.11
13024	CCTV14 ทางขึ้นย่านพหลฯ	13.788193	100.5367473	exat	holiday	2022-11-09T00:00:00	6:00:00	7:00:00	30	54	860	2700	0.32
13025	CCTV14 ทางขึ้นย่านพหลฯ	13.788193	100.5367473	exat	holiday	2022-11-09T00:00:00	7:00:00	8:00:00	32	63	1646	2700	0.61
13026	CCTV14 ทางขึ้นย่านพหลฯ	13.788193	100.5367473	exat	holiday	2022-11-09T00:00:00	8:00:00	9:00:00	28	67	2614	2700	0.97
13027	CCTV14 ทางขึ้นย่านพหลฯ	13.788193	100.5367473	exat	working	2022-11-09T00:00:00	9:00:00	10:00:00	26	66	2603	2700	0.96
13028	CCTV14 ทางขึ้นย่านพหลฯ	13.788193	100.5367473	exat	working	2022-11-09T00:00:00	10:00:00	11:00:00	25	67	2630	2700	0.97
13029	CCTV14 ทางขึ้นย่านพหลฯ	13.788193	100.5367473	exat	holiday	2022-11-09T00:00:00	11:00:00	12:00:00	52	37	2211	2700	0.82
13030	CCTV14 ทางขึ้นย่านพหลฯ	13.788193	100.5367473	exat	working	2022-11-09T00:00:00	12:00:00	13:00:00	27	64	2589	2700	0.96
13031	CCTV14 ทางขึ้นย่านพหลฯ	13.788193	100.5367473	exat	working	2022-11-09T00:00:00	13:00:00	14:00:00	27	64	2571	2700	0.95
13032	CCTV14 ทางขึ้นย่านพหลฯ	13.788193	100.5367473	exat	working	2022-11-09T00:00:00	14:00:00	15:00:00	28	64	2565	2700	0.95
13033	CCTV14 ทางขึ้นย่านพหลฯ	13.788193	100.5367473	exat	working	2022-11-09T00:00:00	15:00:00	16:00:00	26	64	2620	2700	0.97
13034	CCTV14 ทางขึ้นย่านพหลฯ	13.788193	100.5367473	exat	holiday	2022-11-09T00:00:00	16:00:00	17:00:00	42	99	2289	2700	0.85
13035	CCTV14 ทางขึ้นย่านพหลฯ	13.788193	100.5367473	exat	holiday	2022-11-09T00:00:00	17:00:00	18:00:00	18	121	1969	2700	0.73
13036	CCTV14 ทางขึ้นย่านพหลฯ	13.788193	100.5367473	exat	holiday	2022-11-09T00:00:00	18:00:00	19:00:00	13	121	1296	2700	0.48
13037	CCTV01 อโศก 4	13.7710907	100.5332639	exat	working	2022-05-09T00:00:00	5:00:00	6:00:00	122	14	183	1800	0.10
13038	CCTV01 อโศก 4	13.7710907	100.5332639	exat	working	2022-05-09T00:00:00	6:00:00	7:00:00	87	42	528	1800	0.29
13039	CCTV01 อโศก 4	13.7710907	100.5332639	exat	working	2022-05-09T00:00:00	7:00:00	8:00:00	83	23	1457	1800	0.81
13040	CCTV01 อโศก 4	13.7710907	100.5332639	exat	working	2022-05-09T00:00:00	8:00:00	9:00:00	85	23	1641	1800	0.91
13041	CCTV01 อโศก 4	13.7710907	100.5332639	exat	working	2022-05-09T00:00:00	9:00:00	10:00:00	83	18	1587	1800	0.88
13042	CCTV01 อโศก 4	13.7710907	100.5332639	exat	working	2022-05-09T00:00:00	10:00:00	11:00:00	82	19	1534	1800	0.85
13043	CCTV01 อโศก 4	13.7710907	100.5332639	exat	working	2022-05-09T00:00:00	11:00:00	12:00:00	51	42	2545	1800	1.41
13044	CCTV01 อโศก 4	13.7710907	100.5332639	exat	working	2022-05-09T00:00:00	12:00:00	13:00:00	84	18	1582	1800	0.88
13045	CCTV01 อโศก 4	13.7710907	100.5332639	exat	working	2022-05-09T00:00:00	13:00:00	14:00:00	82	20	1591	1800	0.88
13046	CCTV01 อโศก 4	13.7710907	100.5332639	exat	working	2022-05-09T00:00:00	14:00:00	15:00:00	83	19	1575	1800	0.88
13047	CCTV01 อโศก 4	13.7710907	100.5332639	exat	working	2022-05-09T00:00:00	15:00:00	16:00:00	81	18	1581	1800	0.88
13048	CCTV01 อโศก 4	13.7710907	100.5332639	exat	working	2022-05-09T00:00:00	16:00:00	17:00:00	64	95	3265	1800	1.81
13049	CCTV01 อโศก 4	13.7710907	100.5332639	exat	working	2022-05-09T00:00:00	17:00:00	18:00:00	46	110	2734	1800	1.52
13050	CCTV01 อโศก 4	13.7710907	100.5332639	exat	working	2022-06-09T00:00:00	5:00:00	6:00:00	124	15	190	1800	0.11
13051	CCTV01 อโศก 4	13.7710907	100.5332639	exat	working	2022-06-09T00:00:00	6:00:00	7:00:00	87	42	546	1800	0.30
13052	CCTV01 อโศก 4	13.7710907	100.5332639	exat	working	2022-06-09T00:00:00	7:00:00	8:00:00	83	23	1451	1800	0.81
13053	CCTV01 อโศก 4	13.7710907	100.5332639	exat	working	2022-06-09T00:00:00	8:00:00	9:00:00	85	23	1642	1800	0.91
13054	CCTV01 อโศก 4	13.7710907	100.5332639	exat	working	2022-06-09T00:00:00	9:00:00	10:00:00	83	19	1592	1800	0.88
13055	CCTV01 อโศก 4	13.7710907	100.5332639	exat	working	2022-06-09T00:00:00	10:00:00	11:00:00	82	18	1565	1800	0.87
13056	CCTV01 อโศก 4	13.7710907	100.5332639	exat	working	2022-06-09T00:00:00	11:00:00	12:00:00	55	57	2736	1800	1.52
13057	CCTV01 อโศก 4	13.7710907	100.5332639	exat	working	2022-06-09T00:00:00	12:00:00	13:00:00	82	18	1604	1800	0.89
13058	CCTV01 อโศก 4	13.7710907	100.5332639	exat	working	2022-06-09T00:00:00	13:00:00	14:00:00	83	21	1583	1800	0.88
13059	CCTV01 อโศก 4	13.7710907	100.5332639	exat	working	2022-06-09T00:00:00	14:00:00	15:00:00	82	19	1560	1800	0.87
13060	CCTV01 อโศก 4	13.7710907	100.5332639	exat	working	2022-06-09T00:00:00	15:00:00	16:00:00	82	18	1609	1800	0.89
13061	CCTV01 อโศก 4	13.7710907	100.5332639	exat	working	2022-06-09T00:00:00	16:00:00	17:00:00	52	72	3367	1800	1.87
13062	CCTV01 อโศก 4	13.7710907	100.5332639	exat	working	2022-06-09T00:00:00	17:00:00	18:00:00	44	107	2732	1800	1.52
13063	CCTV01 อโศก 4	13.7710907	100.5332639	exat	working	2022-06-09T00:00:00	18:00:00	19:00:00	76	34	1486	1800	0.83
13064	CCTV01 อโศก 4	13.7710907	100.5332639	exat	working	2022-07-09T00:00:00	5:00:00	6:00:00	124	13	191	1800	0.11
13065	CCTV01 อโศก 4	13.7710907	100.5332639	exat	working	2022-07-09T00:00:00	6:00:00	7:00:00	87	42	548	1800	0.30
13066	CCTV01 อโศก 4	13.7710907	100.5332639	exat	working	2022-07-09T00:00:00	7:00:00	8:00:00	83	23	1463	1800	0.81
13067	CCTV01 อโศก 4	13.7710907	100.5332639	exat	working	2022-07-09T00:00:00	8:00:00	9:00:00	85	23	1632	1800	0.91
13068	CCTV01 อโศก 4	13.7710907	100.5332639	exat	working	2022-07-09T00:00:00	9:00:00	10:00:00	83	21	1591	1800	0.88
13069	CCTV01 อโศก 4	13.7710907	100.5332639	exat	working	2022-07-09T00:00:00	10:00:00	11:00:00	83	18	1576	1800	0.88
13070	CCTV01 อโศก 4	13.7710907	100.5332639	exat	working	2022-07-09T00:00:00	11:00:00	12:00:00	60	72	2940	1800	1.63
13071	CCTV01 อโศก 4	13.7710907	100.5332639	exat	working	2022-07-09T00:00:00	12:00:00	13:00:00	81	19	1566	1800	0.87
13072	CCTV01 อโศก 4	13.7710907	100.5332639	exat	working	2022-07-09T00:00:00	13:00:00	14:00:00	85	22	1500	1800	0.83
13073	CCTV01 อโศก 4	13.7710907	100.5332639	exat	working	2022-07-09T00:00:00	14:00:00	15:00:00	81	18	1559	1800	0.87
13074	CCTV01 อโศก 4	13.7710907	100.5332639	exat	working	2022-07-09T00:00:00	15:00:00	16:00:00	82	19	1617	1800	0.90
13075	CCTV01 อโศก 4	13.7710907	100.5332639	exat	working	2022-07-09T00:00:00	16:00:00	17:00:00	41	50	3483	1800	1.94
13076	CCTV01 อโศก 4	13.7710907	100.5332639	exat	working	2022-07-09T00:00:00	17:00:00	18:00:00	42	103	2761	1800	1.53
13077	CCTV01 อโศก 4	13.7710907	100.5332639	exat	working	2022-07-09T00:00:00	18:00:00	19:00:00	76	34	1481	1800	0.82
13078	CCTV01 อโศก 4	13.7710907	100.5332639	exat	working	2022-08-09T00:00:00	5:00:00	6:00:00	111	18	467	1800	0.26
13079	CCTV01 อโศก 4	13.7710907	100.5332639	exat	working	2022-08-09T00:00:00	6:00:00	7:00:00	77	58	1422	1800	0.79
13080	CCTV01 อโศก 4	13.7710907	100.5332639	exat	working	2022-08-09T00:00:00	7:00:00	8:00:00	78	42	2521	1800	1.40
13081	CCTV01 อโศก 4	13.7710907	100.5332639	exat	working	2022-08-09T00:00:00	8:00:00	9:00:00	73	46	2880	1800	1.60
13082	CCTV01 อโศก 4	13.7710907	100.5332639	exat	working	2022-08-09T00:00:00	9:00:00	10:00:00	70	45	2920	1800	1.62
13083	CCTV01 อโศก 4	13.7710907	100.5332639	exat	working	2022-08-09T00:00:00	10:00:00	11:00:00	72	42	2809	1800	1.56
13084	CCTV01 อโศก 4	13.7710907	100.5332639	exat	working	2022-08-09T00:00:00	11:00:00	12:00:00	53	64	3466	1800	1.93
13085	CCTV01 อโศก 4	13.7710907	100.5332639	exat	working	2022-08-09T00:00:00	12:00:00	13:00:00	71	44	2837	1800	1.58
13086	CCTV01 อโศก 4	13.7710907	100.5332639	exat	working	2022-08-09T00:00:00	13:00:00	14:00:00	72	43	2879	1800	1.60
13087	CCTV01 อโศก 4	13.7710907	100.5332639	exat	working	2022-08-09T00:00:00	14:00:00	15:00:00	69	41	2869	1800	1.59
13088	CCTV01 อโศก 4	13.7710907	100.5332639	exat	working	2022-08-09T00:00:00	15:00:00	16:00:00	69	41	2899	1800	1.61
13089	CCTV01 อโศก 4	13.7710907	100.5332639	exat	working	2022-08-09T00:00:00	16:00:00	17:00:00	40	109	3659	1800	2.03
13090	CCTV01 อโศก 4	13.7710907	100.5332639	exat	working	2022-08-09T00:00:00	17:00:00	18:00:00	45	90	3017	1800	1.68
13091	CCTV01 อโศก 4	13.7710907	100.5332639	exat	working	2022-08-09T00:00:00	18:00:00	19:00:00	72	80	1977	1800	1.10
13092	CCTV01 อโศก 4	13.7710907	100.5332639	exat	working	2022-09-09T00:00:00	5:00:00	6:00:00	94	23	666	1800	0.37
13093	CCTV01 อโศก 4	13.7710907	100.5332639	exat	working	2022-09-09T00:00:00	6:00:00	7:00:00	67	74	2158	1800	1.20
13094	CCTV01 อโศก 4	13.7710907	100.5332639	exat	working	2022-09-09T00:00:00	7:00:00	8:00:00	73	61	3599	1800	2.00
13095	CCTV01 อโศก 4	13.7710907	100.5332639	exat	working	2022-09-09T00:00:00	8:00:00	9:00:00	61	70	4215	1800	2.34
13096	CCTV01 อโศก 4	13.7710907	100.5332639	exat	working	2022-09-09T00:00:00	9:00:00	10:00:00	57	69	4186	1800	2.33
13097	CCTV01 อโศก 4	13.7710907	100.5332639	exat	working	2022-09-09T00:00:00	10:00:00	11:00:00	60	67	4112	1800	2.28
13098	CCTV01 อโศก 4	13.7710907	100.5332639	exat	working	2022-09-09T00:00:00	11:00:00	12:00:00	46	57	4000	1800	2.22
13099	CCTV01 อโศก 4	13.7710907	100.5332639	exat	working	2022-09-09T00:00:00	12:00:00	13:00:00	60	69	4123	1800	2.29
13100	CCTV01 อโศก 4	13.7710907	100.5332639	exat	working	2022-09-09T00:00:00	13:00:00	14:00:00	60	64	4107	1800	2.28
13101	CCTV01 อโศก 4	13.7710907	100.5332639	exat	working	2022-09-09T00:00:00	14:00:00	15:00:00	58	63	4073	1800	2.26
13102	CCTV01 อโศก 4	13.7710907	100.5332639	exat	working	2022-09-09T00:00:00	15:00:00	16:00:00	56	64	4163	1800	2.31
13103	CCTV01 อโศก 4	13.7710907	100.5332639	exat	working	2022-09-09T00:00:00	16:00:00	17:00:00	40	168	3830	1800	2.13
13104	CCTV01 อโศก 4	13.7710907	100.5332639	exat	working	2022-09-09T00:00:00	17:00:00	18:00:00	48	77	3302	1800	1.83
13105	CCTV01 อโศก 4	13.7710907	100.5332639	exat	working	2022-09-09T00:00:00	18:00:00	19:00:00	67	125	2577	1800	1.43
13106	CCTV01 อโศก 4	13.7710907	100.5332639	exat	working	2022-10-09T00:00:00	5:00:00	6:00:00	120	18	235	1800	0.13
13107	CCTV01 อโศก 4	13.7710907	100.5332639	exat	holiday	2022-10-09T00:00:00	6:00:00	7:00:00	85	53	730	1800	0.41
13108	CCTV01 อโศก 4	13.7710907	100.5332639	exat	holiday	2022-10-09T00:00:00	7:00:00	8:00:00	40	19	1457	1800	0.81
13109	CCTV01 อโศก 4	13.7710907	100.5332639	exat	holiday	2022-10-09T00:00:00	8:00:00	9:00:00	74	27	1262	1800	0.70
13110	CCTV01 อโศก 4	13.7710907	100.5332639	exat	working	2022-10-09T00:00:00	9:00:00	10:00:00	72	25	1227	1800	0.68
13111	CCTV01 อโศก 4	13.7710907	100.5332639	exat	working	2022-10-09T00:00:00	10:00:00	11:00:00	71	24	1214	1800	0.67
13112	CCTV01 อโศก 4	13.7710907	100.5332639	exat	holiday	2022-10-09T00:00:00	11:00:00	12:00:00	82	36	914	1800	0.51
13113	CCTV01 อโศก 4	13.7710907	100.5332639	exat	working	2022-10-09T00:00:00	12:00:00	13:00:00	71	23	1237	1800	0.69
13114	CCTV01 อโศก 4	13.7710907	100.5332639	exat	working	2022-10-09T00:00:00	13:00:00	14:00:00	73	22	1160	1800	0.64
13115	CCTV01 อโศก 4	13.7710907	100.5332639	exat	working	2022-10-09T00:00:00	14:00:00	15:00:00	72	23	1150	1800	0.64
13116	CCTV01 อโศก 4	13.7710907	100.5332639	exat	working	2022-10-09T00:00:00	15:00:00	16:00:00	70	22	1169	1800	0.65
13117	CCTV01 อโศก 4	13.7710907	100.5332639	exat	holiday	2022-10-09T00:00:00	16:00:00	17:00:00	48	62	2740	1800	1.52
13118	CCTV01 อโศก 4	13.7710907	100.5332639	exat	holiday	2022-10-09T00:00:00	17:00:00	18:00:00	41	102	3818	1800	2.12
13119	CCTV01 อโศก 4	13.7710907	100.5332639	exat	holiday	2022-10-09T00:00:00	18:00:00	19:00:00	56	25	1827	1800	1.02
13120	CCTV01 อโศก 4	13.7710907	100.5332639	exat	working	2022-11-09T00:00:00	5:00:00	6:00:00	72	10	132	1800	0.07
13121	CCTV01 อโศก 4	13.7710907	100.5332639	exat	holiday	2022-11-09T00:00:00	6:00:00	7:00:00	51	32	437	1800	0.24
13122	CCTV01 อโศก 4	13.7710907	100.5332639	exat	holiday	2022-11-09T00:00:00	7:00:00	8:00:00	24	11	875	1800	0.49
13123	CCTV01 อโศก 4	13.7710907	100.5332639	exat	holiday	2022-11-09T00:00:00	8:00:00	9:00:00	45	16	754	1800	0.42
13124	CCTV01 อโศก 4	13.7710907	100.5332639	exat	working	2022-11-09T00:00:00	9:00:00	10:00:00	43	15	743	1800	0.41
13125	CCTV01 อโศก 4	13.7710907	100.5332639	exat	working	2022-11-09T00:00:00	10:00:00	11:00:00	43	15	741	1800	0.41
13126	CCTV01 อโศก 4	13.7710907	100.5332639	exat	holiday	2022-11-09T00:00:00	11:00:00	12:00:00	49	22	526	1800	0.29
13127	CCTV01 อโศก 4	13.7710907	100.5332639	exat	working	2022-11-09T00:00:00	12:00:00	13:00:00	43	14	762	1800	0.42
13128	CCTV01 อโศก 4	13.7710907	100.5332639	exat	working	2022-11-09T00:00:00	13:00:00	14:00:00	44	14	704	1800	0.39
13129	CCTV01 อโศก 4	13.7710907	100.5332639	exat	working	2022-11-09T00:00:00	14:00:00	15:00:00	43	14	684	1800	0.38
13130	CCTV01 อโศก 4	13.7710907	100.5332639	exat	working	2022-11-09T00:00:00	15:00:00	16:00:00	42	13	716	1800	0.40
13131	CCTV01 อโศก 4	13.7710907	100.5332639	exat	holiday	2022-11-09T00:00:00	16:00:00	17:00:00	29	37	1632	1800	0.91
13132	CCTV01 อโศก 4	13.7710907	100.5332639	exat	holiday	2022-11-09T00:00:00	17:00:00	18:00:00	25	61	2283	1800	1.27
13133	CCTV01 อโศก 4	13.7710907	100.5332639	exat	holiday	2022-11-09T00:00:00	18:00:00	19:00:00	34	15	1094	1800	0.61
13134	CCTV10 ทางขึ้นประปา1	13.7134683	100.5200869	exat	working	2022-05-09T00:00:00	5:00:00	6:00:00	105	5	238	1800	0.13
13135	CCTV10 ทางขึ้นประปา1	13.7134683	100.5200869	exat	working	2022-05-09T00:00:00	6:00:00	7:00:00	73	16	732	1800	0.41
13136	CCTV10 ทางขึ้นประปา1	13.7134683	100.5200869	exat	working	2022-05-09T00:00:00	7:00:00	8:00:00	21	121	725	1800	0.40
13137	CCTV10 ทางขึ้นประปา1	13.7134683	100.5200869	exat	working	2022-05-09T00:00:00	8:00:00	9:00:00	21	121	730	1800	0.41
13138	CCTV10 ทางขึ้นประปา1	13.7134683	100.5200869	exat	working	2022-05-09T00:00:00	9:00:00	10:00:00	21	121	658	1800	0.37
13139	CCTV10 ทางขึ้นประปา1	13.7134683	100.5200869	exat	working	2022-05-09T00:00:00	10:00:00	11:00:00	21	121	651	1800	0.36
13140	CCTV10 ทางขึ้นประปา1	13.7134683	100.5200869	exat	working	2022-05-09T00:00:00	11:00:00	12:00:00	67	17	734	1800	0.41
13141	CCTV10 ทางขึ้นประปา1	13.7134683	100.5200869	exat	working	2022-05-09T00:00:00	12:00:00	13:00:00	21	121	656	1800	0.36
13142	CCTV10 ทางขึ้นประปา1	13.7134683	100.5200869	exat	working	2022-05-09T00:00:00	13:00:00	14:00:00	21	122	631	1800	0.35
13143	CCTV10 ทางขึ้นประปา1	13.7134683	100.5200869	exat	working	2022-05-09T00:00:00	14:00:00	15:00:00	21	121	704	1800	0.39
13144	CCTV10 ทางขึ้นประปา1	13.7134683	100.5200869	exat	working	2022-05-09T00:00:00	15:00:00	16:00:00	21	121	626	1800	0.35
13145	CCTV10 ทางขึ้นประปา1	13.7134683	100.5200869	exat	working	2022-05-09T00:00:00	16:00:00	17:00:00	47	29	904	1800	0.50
13146	CCTV10 ทางขึ้นประปา1	13.7134683	100.5200869	exat	working	2022-05-09T00:00:00	17:00:00	18:00:00	55	12	727	1800	0.40
13147	CCTV10 ทางขึ้นประปา1	13.7134683	100.5200869	exat	working	2022-05-09T00:00:00	18:00:00	19:00:00	73	26	532	1800	0.30
13148	CCTV10 ทางขึ้นประปา1	13.7134683	100.5200869	exat	working	2022-06-09T00:00:00	5:00:00	6:00:00	105	6	252	1800	0.14
13149	CCTV10 ทางขึ้นประปา1	13.7134683	100.5200869	exat	working	2022-06-09T00:00:00	6:00:00	7:00:00	73	16	729	1800	0.41
13150	CCTV10 ทางขึ้นประปา1	13.7134683	100.5200869	exat	working	2022-06-09T00:00:00	7:00:00	8:00:00	21	121	731	1800	0.41
13151	CCTV10 ทางขึ้นประปา1	13.7134683	100.5200869	exat	working	2022-06-09T00:00:00	8:00:00	9:00:00	21	122	732	1800	0.41
13152	CCTV10 ทางขึ้นประปา1	13.7134683	100.5200869	exat	working	2022-06-09T00:00:00	9:00:00	10:00:00	21	121	702	1800	0.39
13153	CCTV10 ทางขึ้นประปา1	13.7134683	100.5200869	exat	working	2022-06-09T00:00:00	10:00:00	11:00:00	21	121	629	1800	0.35
13154	CCTV10 ทางขึ้นประปา1	13.7134683	100.5200869	exat	working	2022-06-09T00:00:00	11:00:00	12:00:00	34	16	557	1800	0.31
13155	CCTV10 ทางขึ้นประปา1	13.7134683	100.5200869	exat	working	2022-06-09T00:00:00	12:00:00	13:00:00	21	122	658	1800	0.37
13156	CCTV10 ทางขึ้นประปา1	13.7134683	100.5200869	exat	working	2022-06-09T00:00:00	13:00:00	14:00:00	21	121	682	1800	0.38
13157	CCTV10 ทางขึ้นประปา1	13.7134683	100.5200869	exat	working	2022-06-09T00:00:00	14:00:00	15:00:00	21	122	682	1800	0.38
13158	CCTV10 ทางขึ้นประปา1	13.7134683	100.5200869	exat	working	2022-06-09T00:00:00	15:00:00	16:00:00	21	121	613	1800	0.34
13159	CCTV10 ทางขึ้นประปา1	13.7134683	100.5200869	exat	working	2022-06-09T00:00:00	16:00:00	17:00:00	47	29	927	1800	0.52
13160	CCTV10 ทางขึ้นประปา1	13.7134683	100.5200869	exat	working	2022-06-09T00:00:00	17:00:00	18:00:00	28	14	727	1800	0.40
13161	CCTV10 ทางขึ้นประปา1	13.7134683	100.5200869	exat	working	2022-06-09T00:00:00	18:00:00	19:00:00	37	19	459	1800	0.26
13162	CCTV10 ทางขึ้นประปา1	13.7134683	100.5200869	exat	working	2022-07-09T00:00:00	5:00:00	6:00:00	106	5	252	1800	0.14
13163	CCTV10 ทางขึ้นประปา1	13.7134683	100.5200869	exat	working	2022-07-09T00:00:00	6:00:00	7:00:00	73	16	730	1800	0.41
13164	CCTV10 ทางขึ้นประปา1	13.7134683	100.5200869	exat	working	2022-07-09T00:00:00	7:00:00	8:00:00	21	121	727	1800	0.40
13165	CCTV10 ทางขึ้นประปา1	13.7134683	100.5200869	exat	working	2022-07-09T00:00:00	8:00:00	9:00:00	21	121	730	1800	0.41
13166	CCTV10 ทางขึ้นประปา1	13.7134683	100.5200869	exat	working	2022-07-09T00:00:00	9:00:00	10:00:00	21	122	712	1800	0.40
13167	CCTV10 ทางขึ้นประปา1	13.7134683	100.5200869	exat	working	2022-07-09T00:00:00	10:00:00	11:00:00	21	121	655	1800	0.36
13168	CCTV10 ทางขึ้นประปา1	13.7134683	100.5200869	exat	working	2022-07-09T00:00:00	11:00:00	12:00:00	21	122	364	1800	0.20
13169	CCTV10 ทางขึ้นประปา1	13.7134683	100.5200869	exat	working	2022-07-09T00:00:00	12:00:00	13:00:00	21	122	624	1800	0.35
13170	CCTV10 ทางขึ้นประปา1	13.7134683	100.5200869	exat	working	2022-07-09T00:00:00	13:00:00	14:00:00	21	122	718	1800	0.40
13171	CCTV10 ทางขึ้นประปา1	13.7134683	100.5200869	exat	working	2022-07-09T00:00:00	14:00:00	15:00:00	21	121	669	1800	0.37
13172	CCTV10 ทางขึ้นประปา1	13.7134683	100.5200869	exat	working	2022-07-09T00:00:00	15:00:00	16:00:00	21	121	588	1800	0.33
13173	CCTV10 ทางขึ้นประปา1	13.7134683	100.5200869	exat	working	2022-07-09T00:00:00	16:00:00	17:00:00	47	29	929	1800	0.52
13174	CCTV10 ทางขึ้นประปา1	13.7134683	100.5200869	exat	working	2022-07-09T00:00:00	17:00:00	18:00:00	21	121	717	1800	0.40
13175	CCTV10 ทางขึ้นประปา1	13.7134683	100.5200869	exat	working	2022-07-09T00:00:00	18:00:00	19:00:00	21	121	365	1800	0.20
13176	CCTV10 ทางขึ้นประปา1	13.7134683	100.5200869	exat	working	2022-08-09T00:00:00	5:00:00	6:00:00	106	6	232	1800	0.13
13177	CCTV10 ทางขึ้นประปา1	13.7134683	100.5200869	exat	working	2022-08-09T00:00:00	6:00:00	7:00:00	73	16	736	1800	0.41
13178	CCTV10 ทางขึ้นประปา1	13.7134683	100.5200869	exat	working	2022-08-09T00:00:00	7:00:00	8:00:00	36	20	911	1800	0.51
13179	CCTV10 ทางขึ้นประปา1	13.7134683	100.5200869	exat	working	2022-08-09T00:00:00	8:00:00	9:00:00	21	121	728	1800	0.40
13180	CCTV10 ทางขึ้นประปา1	13.7134683	100.5200869	exat	working	2022-08-09T00:00:00	9:00:00	10:00:00	21	121	682	1800	0.38
13181	CCTV10 ทางขึ้นประปา1	13.7134683	100.5200869	exat	working	2022-08-09T00:00:00	10:00:00	11:00:00	21	121	640	1800	0.36
13182	CCTV10 ทางขึ้นประปา1	13.7134683	100.5200869	exat	working	2022-08-09T00:00:00	11:00:00	12:00:00	34	15	721	1800	0.40
13183	CCTV10 ทางขึ้นประปา1	13.7134683	100.5200869	exat	working	2022-08-09T00:00:00	12:00:00	13:00:00	21	121	646	1800	0.36
13184	CCTV10 ทางขึ้นประปา1	13.7134683	100.5200869	exat	working	2022-08-09T00:00:00	13:00:00	14:00:00	21	121	678	1800	0.38
13185	CCTV10 ทางขึ้นประปา1	13.7134683	100.5200869	exat	working	2022-08-09T00:00:00	14:00:00	15:00:00	21	121	656	1800	0.36
13186	CCTV10 ทางขึ้นประปา1	13.7134683	100.5200869	exat	working	2022-08-09T00:00:00	15:00:00	16:00:00	21	122	591	1800	0.33
13187	CCTV10 ทางขึ้นประปา1	13.7134683	100.5200869	exat	working	2022-08-09T00:00:00	16:00:00	17:00:00	67	22	1454	1800	0.81
13188	CCTV10 ทางขึ้นประปา1	13.7134683	100.5200869	exat	working	2022-08-09T00:00:00	17:00:00	18:00:00	44	15	559	1800	0.31
13189	CCTV10 ทางขึ้นประปา1	13.7134683	100.5200869	exat	working	2022-08-09T00:00:00	18:00:00	19:00:00	38	13	566	1800	0.31
13190	CCTV10 ทางขึ้นประปา1	13.7134683	100.5200869	exat	working	2022-09-09T00:00:00	5:00:00	6:00:00	102	6	226	1800	0.13
13191	CCTV10 ทางขึ้นประปา1	13.7134683	100.5200869	exat	working	2022-09-09T00:00:00	6:00:00	7:00:00	73	16	730	1800	0.41
13192	CCTV10 ทางขึ้นประปา1	13.7134683	100.5200869	exat	working	2022-09-09T00:00:00	7:00:00	8:00:00	72	19	1111	1800	0.62
13193	CCTV10 ทางขึ้นประปา1	13.7134683	100.5200869	exat	working	2022-09-09T00:00:00	8:00:00	9:00:00	21	121	739	1800	0.41
13194	CCTV10 ทางขึ้นประปา1	13.7134683	100.5200869	exat	working	2022-09-09T00:00:00	9:00:00	10:00:00	21	122	652	1800	0.36
13195	CCTV10 ทางขึ้นประปา1	13.7134683	100.5200869	exat	working	2022-09-09T00:00:00	10:00:00	11:00:00	21	121	616	1800	0.34
13196	CCTV10 ทางขึ้นประปา1	13.7134683	100.5200869	exat	working	2022-09-09T00:00:00	11:00:00	12:00:00	67	17	1093	1800	0.61
13197	CCTV10 ทางขึ้นประปา1	13.7134683	100.5200869	exat	working	2022-09-09T00:00:00	12:00:00	13:00:00	21	121	644	1800	0.36
13198	CCTV10 ทางขึ้นประปา1	13.7134683	100.5200869	exat	working	2022-09-09T00:00:00	13:00:00	14:00:00	21	121	657	1800	0.37
13199	CCTV10 ทางขึ้นประปา1	13.7134683	100.5200869	exat	working	2022-09-09T00:00:00	14:00:00	15:00:00	21	121	666	1800	0.37
13200	CCTV10 ทางขึ้นประปา1	13.7134683	100.5200869	exat	working	2022-09-09T00:00:00	15:00:00	16:00:00	21	121	610	1800	0.34
13201	CCTV10 ทางขึ้นประปา1	13.7134683	100.5200869	exat	working	2022-09-09T00:00:00	16:00:00	17:00:00	87	15	2009	1800	1.12
13202	CCTV10 ทางขึ้นประปา1	13.7134683	100.5200869	exat	working	2022-09-09T00:00:00	17:00:00	18:00:00	87	12	357	1800	0.20
13203	CCTV10 ทางขึ้นประปา1	13.7134683	100.5200869	exat	working	2022-09-09T00:00:00	18:00:00	19:00:00	75	14	720	1800	0.40
13204	CCTV10 ทางขึ้นประปา1	13.7134683	100.5200869	exat	working	2022-10-09T00:00:00	5:00:00	6:00:00	87	6	109	1800	0.06
13205	CCTV10 ทางขึ้นประปา1	13.7134683	100.5200869	exat	holiday	2022-10-09T00:00:00	6:00:00	7:00:00	62	18	350	1800	0.19
13206	CCTV10 ทางขึ้นประปา1	13.7134683	100.5200869	exat	holiday	2022-10-09T00:00:00	7:00:00	8:00:00	63	25	1085	1800	0.60
13207	CCTV10 ทางขึ้นประปา1	13.7134683	100.5200869	exat	holiday	2022-10-09T00:00:00	8:00:00	9:00:00	44	40	1469	1800	0.82
13208	CCTV10 ทางขึ้นประปา1	13.7134683	100.5200869	exat	working	2022-10-09T00:00:00	9:00:00	10:00:00	41	39	1366	1800	0.76
13209	CCTV10 ทางขึ้นประปา1	13.7134683	100.5200869	exat	working	2022-10-09T00:00:00	10:00:00	11:00:00	39	37	1418	1800	0.79
13210	CCTV10 ทางขึ้นประปา1	13.7134683	100.5200869	exat	holiday	2022-10-09T00:00:00	11:00:00	12:00:00	21	121	366	1800	0.20
13211	CCTV10 ทางขึ้นประปา1	13.7134683	100.5200869	exat	working	2022-10-09T00:00:00	12:00:00	13:00:00	42	38	1384	1800	0.77
13212	CCTV10 ทางขึ้นประปา1	13.7134683	100.5200869	exat	working	2022-10-09T00:00:00	13:00:00	14:00:00	39	36	1444	1800	0.80
13213	CCTV10 ทางขึ้นประปา1	13.7134683	100.5200869	exat	working	2022-10-09T00:00:00	14:00:00	15:00:00	42	38	1312	1800	0.73
13214	CCTV10 ทางขึ้นประปา1	13.7134683	100.5200869	exat	working	2022-10-09T00:00:00	15:00:00	16:00:00	39	35	1321	1800	0.73
13215	CCTV10 ทางขึ้นประปา1	13.7134683	100.5200869	exat	holiday	2022-10-09T00:00:00	16:00:00	17:00:00	34	18	377	1800	0.21
13216	CCTV10 ทางขึ้นประปา1	13.7134683	100.5200869	exat	holiday	2022-10-09T00:00:00	17:00:00	18:00:00	35	27	566	1800	0.31
13217	CCTV10 ทางขึ้นประปา1	13.7134683	100.5200869	exat	holiday	2022-10-09T00:00:00	18:00:00	19:00:00	21	121	1104	1800	0.61
13218	CCTV10 ทางขึ้นประปา1	13.7134683	100.5200869	exat	working	2022-11-09T00:00:00	5:00:00	6:00:00	52	4	67	1800	0.04
13219	CCTV10 ทางขึ้นประปา1	13.7134683	100.5200869	exat	holiday	2022-11-09T00:00:00	6:00:00	7:00:00	37	11	207	1800	0.12
13220	CCTV10 ทางขึ้นประปา1	13.7134683	100.5200869	exat	holiday	2022-11-09T00:00:00	7:00:00	8:00:00	38	15	673	1800	0.37
13221	CCTV10 ทางขึ้นประปา1	13.7134683	100.5200869	exat	holiday	2022-11-09T00:00:00	8:00:00	9:00:00	27	24	874	1800	0.49
13222	CCTV10 ทางขึ้นประปา1	13.7134683	100.5200869	exat	working	2022-11-09T00:00:00	9:00:00	10:00:00	25	24	829	1800	0.46
13223	CCTV10 ทางขึ้นประปา1	13.7134683	100.5200869	exat	working	2022-11-09T00:00:00	10:00:00	11:00:00	24	22	863	1800	0.48
13224	CCTV10 ทางขึ้นประปา1	13.7134683	100.5200869	exat	holiday	2022-11-09T00:00:00	11:00:00	12:00:00	21	121	203	1800	0.11
13225	CCTV10 ทางขึ้นประปา1	13.7134683	100.5200869	exat	working	2022-11-09T00:00:00	12:00:00	13:00:00	25	23	799	1800	0.44
13226	CCTV10 ทางขึ้นประปา1	13.7134683	100.5200869	exat	working	2022-11-09T00:00:00	13:00:00	14:00:00	23	22	860	1800	0.48
13227	CCTV10 ทางขึ้นประปา1	13.7134683	100.5200869	exat	working	2022-11-09T00:00:00	14:00:00	15:00:00	26	23	803	1800	0.45
13228	CCTV10 ทางขึ้นประปา1	13.7134683	100.5200869	exat	working	2022-11-09T00:00:00	15:00:00	16:00:00	23	21	794	1800	0.44
13229	CCTV10 ทางขึ้นประปา1	13.7134683	100.5200869	exat	holiday	2022-11-09T00:00:00	16:00:00	17:00:00	20	121	225	1800	0.13
13230	CCTV10 ทางขึ้นประปา1	13.7134683	100.5200869	exat	holiday	2022-11-09T00:00:00	17:00:00	18:00:00	21	122	342	1800	0.19
13231	CCTV10 ทางขึ้นประปา1	13.7134683	100.5200869	exat	holiday	2022-11-09T00:00:00	18:00:00	19:00:00	21	122	671	1800	0.37
13232	CCTV27 ต่างระดับพญาไท-YR (พระมงกุฏ)	13.6969702	100.5229255	exat	working	2022-05-09T00:00:00	5:00:00	6:00:00	50	23	503	2700	0.19
13233	CCTV27 ต่างระดับพญาไท-YR (พระมงกุฏ)	13.6969702	100.5229255	exat	working	2022-05-09T00:00:00	6:00:00	7:00:00	36	66	1506	2700	0.56
13234	CCTV27 ต่างระดับพญาไท-YR (พระมงกุฏ)	13.6969702	100.5229255	exat	working	2022-05-09T00:00:00	7:00:00	8:00:00	49	42	2744	2700	1.02
13235	CCTV27 ต่างระดับพญาไท-YR (พระมงกุฏ)	13.6969702	100.5229255	exat	working	2022-05-09T00:00:00	8:00:00	9:00:00	26	60	3435	2700	1.27
13236	CCTV27 ต่างระดับพญาไท-YR (พระมงกุฏ)	13.6969702	100.5229255	exat	working	2022-05-09T00:00:00	9:00:00	10:00:00	22	56	3294	2700	1.22
13237	CCTV27 ต่างระดับพญาไท-YR (พระมงกุฏ)	13.6969702	100.5229255	exat	working	2022-05-09T00:00:00	10:00:00	11:00:00	22	56	3484	2700	1.29
13238	CCTV27 ต่างระดับพญาไท-YR (พระมงกุฏ)	13.6969702	100.5229255	exat	working	2022-05-09T00:00:00	11:00:00	12:00:00	41	40	2540	2700	0.94
13239	CCTV27 ต่างระดับพญาไท-YR (พระมงกุฏ)	13.6969702	100.5229255	exat	working	2022-05-09T00:00:00	12:00:00	13:00:00	25	58	3339	2700	1.24
13240	CCTV27 ต่างระดับพญาไท-YR (พระมงกุฏ)	13.6969702	100.5229255	exat	working	2022-05-09T00:00:00	13:00:00	14:00:00	22	56	3441	2700	1.27
13241	CCTV27 ต่างระดับพญาไท-YR (พระมงกุฏ)	13.6969702	100.5229255	exat	working	2022-05-09T00:00:00	14:00:00	15:00:00	21	121	3305	2700	1.22
13242	CCTV27 ต่างระดับพญาไท-YR (พระมงกุฏ)	13.6969702	100.5229255	exat	working	2022-05-09T00:00:00	15:00:00	16:00:00	25	56	3369	2700	1.25
13243	CCTV27 ต่างระดับพญาไท-YR (พระมงกุฏ)	13.6969702	100.5229255	exat	working	2022-05-09T00:00:00	16:00:00	17:00:00	42	80	4579	2700	1.70
13244	CCTV27 ต่างระดับพญาไท-YR (พระมงกุฏ)	13.6969702	100.5229255	exat	working	2022-05-09T00:00:00	17:00:00	18:00:00	45	50	3317	2700	1.23
13245	CCTV27 ต่างระดับพญาไท-YR (พระมงกุฏ)	13.6969702	100.5229255	exat	working	2022-05-09T00:00:00	18:00:00	19:00:00	39	32	1839	2700	0.68
13246	CCTV27 ต่างระดับพญาไท-YR (พระมงกุฏ)	13.6969702	100.5229255	exat	working	2022-06-09T00:00:00	5:00:00	6:00:00	50	23	509	2700	0.19
13247	CCTV27 ต่างระดับพญาไท-YR (พระมงกุฏ)	13.6969702	100.5229255	exat	working	2022-06-09T00:00:00	6:00:00	7:00:00	36	66	1458	2700	0.54
13248	CCTV27 ต่างระดับพญาไท-YR (พระมงกุฏ)	13.6969702	100.5229255	exat	working	2022-06-09T00:00:00	7:00:00	8:00:00	49	42	2729	2700	1.01
13249	CCTV27 ต่างระดับพญาไท-YR (พระมงกุฏ)	13.6969702	100.5229255	exat	working	2022-06-09T00:00:00	8:00:00	9:00:00	26	60	3468	2700	1.28
13250	CCTV27 ต่างระดับพญาไท-YR (พระมงกุฏ)	13.6969702	100.5229255	exat	working	2022-06-09T00:00:00	9:00:00	10:00:00	24	55	3317	2700	1.23
13251	CCTV27 ต่างระดับพญาไท-YR (พระมงกุฏ)	13.6969702	100.5229255	exat	working	2022-06-09T00:00:00	10:00:00	11:00:00	23	56	3442	2700	1.27
13252	CCTV27 ต่างระดับพญาไท-YR (พระมงกุฏ)	13.6969702	100.5229255	exat	working	2022-06-09T00:00:00	11:00:00	12:00:00	40	49	2860	2700	1.06
13253	CCTV27 ต่างระดับพญาไท-YR (พระมงกุฏ)	13.6969702	100.5229255	exat	working	2022-06-09T00:00:00	12:00:00	13:00:00	24	58	3381	2700	1.25
13254	CCTV27 ต่างระดับพญาไท-YR (พระมงกุฏ)	13.6969702	100.5229255	exat	working	2022-06-09T00:00:00	13:00:00	14:00:00	21	121	3390	2700	1.26
13255	CCTV27 ต่างระดับพญาไท-YR (พระมงกุฏ)	13.6969702	100.5229255	exat	working	2022-06-09T00:00:00	14:00:00	15:00:00	22	56	3332	2700	1.23
13256	CCTV27 ต่างระดับพญาไท-YR (พระมงกุฏ)	13.6969702	100.5229255	exat	working	2022-06-09T00:00:00	15:00:00	16:00:00	24	56	3374	2700	1.25
13257	CCTV27 ต่างระดับพญาไท-YR (พระมงกุฏ)	13.6969702	100.5229255	exat	working	2022-06-09T00:00:00	16:00:00	17:00:00	40	58	3460	2700	1.28
13258	CCTV27 ต่างระดับพญาไท-YR (พระมงกุฏ)	13.6969702	100.5229255	exat	working	2022-06-09T00:00:00	17:00:00	18:00:00	40	61	3017	2700	1.12
13259	CCTV27 ต่างระดับพญาไท-YR (พระมงกุฏ)	13.6969702	100.5229255	exat	working	2022-06-09T00:00:00	18:00:00	19:00:00	35	43	1730	2700	0.64
13260	CCTV27 ต่างระดับพญาไท-YR (พระมงกุฏ)	13.6969702	100.5229255	exat	working	2022-07-09T00:00:00	5:00:00	6:00:00	51	23	478	2700	0.18
13261	CCTV27 ต่างระดับพญาไท-YR (พระมงกุฏ)	13.6969702	100.5229255	exat	working	2022-07-09T00:00:00	6:00:00	7:00:00	36	66	1454	2700	0.54
13262	CCTV27 ต่างระดับพญาไท-YR (พระมงกุฏ)	13.6969702	100.5229255	exat	working	2022-07-09T00:00:00	7:00:00	8:00:00	49	42	2745	2700	1.02
13263	CCTV27 ต่างระดับพญาไท-YR (พระมงกุฏ)	13.6969702	100.5229255	exat	working	2022-07-09T00:00:00	8:00:00	9:00:00	26	60	3475	2700	1.29
13264	CCTV27 ต่างระดับพญาไท-YR (พระมงกุฏ)	13.6969702	100.5229255	exat	working	2022-07-09T00:00:00	9:00:00	10:00:00	25	55	3289	2700	1.22
13265	CCTV27 ต่างระดับพญาไท-YR (พระมงกุฏ)	13.6969702	100.5229255	exat	working	2022-07-09T00:00:00	10:00:00	11:00:00	23	56	3315	2700	1.23
13266	CCTV27 ต่างระดับพญาไท-YR (พระมงกุฏ)	13.6969702	100.5229255	exat	working	2022-07-09T00:00:00	11:00:00	12:00:00	39	59	3046	2700	1.13
13267	CCTV27 ต่างระดับพญาไท-YR (พระมงกุฏ)	13.6969702	100.5229255	exat	working	2022-07-09T00:00:00	12:00:00	13:00:00	22	59	3447	2700	1.28
13268	CCTV27 ต่างระดับพญาไท-YR (พระมงกุฏ)	13.6969702	100.5229255	exat	working	2022-07-09T00:00:00	13:00:00	14:00:00	21	122	3391	2700	1.26
13269	CCTV27 ต่างระดับพญาไท-YR (พระมงกุฏ)	13.6969702	100.5229255	exat	working	2022-07-09T00:00:00	14:00:00	15:00:00	22	59	3351	2700	1.24
13270	CCTV27 ต่างระดับพญาไท-YR (พระมงกุฏ)	13.6969702	100.5229255	exat	working	2022-07-09T00:00:00	15:00:00	16:00:00	23	57	3379	2700	1.25
13271	CCTV27 ต่างระดับพญาไท-YR (พระมงกุฏ)	13.6969702	100.5229255	exat	working	2022-07-09T00:00:00	16:00:00	17:00:00	38	35	2367	2700	0.88
13272	CCTV27 ต่างระดับพญาไท-YR (พระมงกุฏ)	13.6969702	100.5229255	exat	working	2022-07-09T00:00:00	17:00:00	18:00:00	35	72	2751	2700	1.02
13273	CCTV27 ต่างระดับพญาไท-YR (พระมงกุฏ)	13.6969702	100.5229255	exat	working	2022-07-09T00:00:00	18:00:00	19:00:00	32	54	1647	2700	0.61
13274	CCTV27 ต่างระดับพญาไท-YR (พระมงกุฏ)	13.6969702	100.5229255	exat	working	2022-08-09T00:00:00	5:00:00	6:00:00	56	29	1100	2700	0.41
13275	CCTV27 ต่างระดับพญาไท-YR (พระมงกุฏ)	13.6969702	100.5229255	exat	working	2022-08-09T00:00:00	6:00:00	7:00:00	39	83	3614	2700	1.34
13276	CCTV27 ต่างระดับพญาไท-YR (พระมงกุฏ)	13.6969702	100.5229255	exat	working	2022-08-09T00:00:00	7:00:00	8:00:00	47	49	4272	2700	1.58
13277	CCTV27 ต่างระดับพญาไท-YR (พระมงกุฏ)	13.6969702	100.5229255	exat	working	2022-08-09T00:00:00	8:00:00	9:00:00	33	66	4322	2700	1.60
13278	CCTV27 ต่างระดับพญาไท-YR (พระมงกุฏ)	13.6969702	100.5229255	exat	working	2022-08-09T00:00:00	9:00:00	10:00:00	30	62	4196	2700	1.55
13279	CCTV27 ต่างระดับพญาไท-YR (พระมงกุฏ)	13.6969702	100.5229255	exat	working	2022-08-09T00:00:00	10:00:00	11:00:00	29	63	4166	2700	1.54
13280	CCTV27 ต่างระดับพญาไท-YR (พระมงกุฏ)	13.6969702	100.5229255	exat	working	2022-08-09T00:00:00	11:00:00	12:00:00	41	56	3285	2700	1.22
13281	CCTV27 ต่างระดับพญาไท-YR (พระมงกุฏ)	13.6969702	100.5229255	exat	working	2022-08-09T00:00:00	12:00:00	13:00:00	30	64	4245	2700	1.57
13282	CCTV27 ต่างระดับพญาไท-YR (พระมงกุฏ)	13.6969702	100.5229255	exat	working	2022-08-09T00:00:00	13:00:00	14:00:00	29	63	4144	2700	1.53
13283	CCTV27 ต่างระดับพญาไท-YR (พระมงกุฏ)	13.6969702	100.5229255	exat	working	2022-08-09T00:00:00	14:00:00	15:00:00	30	65	4239	2700	1.57
13284	CCTV27 ต่างระดับพญาไท-YR (พระมงกุฏ)	13.6969702	100.5229255	exat	working	2022-08-09T00:00:00	15:00:00	16:00:00	29	62	4166	2700	1.54
13285	CCTV27 ต่างระดับพญาไท-YR (พระมงกุฏ)	13.6969702	100.5229255	exat	working	2022-08-09T00:00:00	16:00:00	17:00:00	39	67	3289	2700	1.22
13286	CCTV27 ต่างระดับพญาไท-YR (พระมงกุฏ)	13.6969702	100.5229255	exat	working	2022-08-09T00:00:00	17:00:00	18:00:00	40	55	2286	2700	0.85
13287	CCTV27 ต่างระดับพญาไท-YR (พระมงกุฏ)	13.6969702	100.5229255	exat	working	2022-08-09T00:00:00	18:00:00	19:00:00	33	113	2927	2700	1.08
13288	CCTV27 ต่างระดับพญาไท-YR (พระมงกุฏ)	13.6969702	100.5229255	exat	working	2022-09-09T00:00:00	5:00:00	6:00:00	57	32	1862	2700	0.69
13289	CCTV27 ต่างระดับพญาไท-YR (พระมงกุฏ)	13.6969702	100.5229255	exat	working	2022-09-09T00:00:00	6:00:00	7:00:00	41	101	5826	2700	2.16
13290	CCTV27 ต่างระดับพญาไท-YR (พระมงกุฏ)	13.6969702	100.5229255	exat	working	2022-09-09T00:00:00	7:00:00	8:00:00	45	55	5854	2700	2.17
13291	CCTV27 ต่างระดับพญาไท-YR (พระมงกุฏ)	13.6969702	100.5229255	exat	working	2022-09-09T00:00:00	8:00:00	9:00:00	40	72	5099	2700	1.89
13292	CCTV27 ต่างระดับพญาไท-YR (พระมงกุฏ)	13.6969702	100.5229255	exat	working	2022-09-09T00:00:00	9:00:00	10:00:00	35	70	5063	2700	1.88
13293	CCTV27 ต่างระดับพญาไท-YR (พระมงกุฏ)	13.6969702	100.5229255	exat	working	2022-09-09T00:00:00	10:00:00	11:00:00	35	71	5048	2700	1.87
13294	CCTV27 ต่างระดับพญาไท-YR (พระมงกุฏ)	13.6969702	100.5229255	exat	working	2022-09-09T00:00:00	11:00:00	12:00:00	43	54	3475	2700	1.29
13295	CCTV27 ต่างระดับพญาไท-YR (พระมงกุฏ)	13.6969702	100.5229255	exat	working	2022-09-09T00:00:00	12:00:00	13:00:00	39	69	5067	2700	1.88
13296	CCTV27 ต่างระดับพญาไท-YR (พระมงกุฏ)	13.6969702	100.5229255	exat	working	2022-09-09T00:00:00	13:00:00	14:00:00	37	67	4988	2700	1.85
13297	CCTV27 ต่างระดับพญาไท-YR (พระมงกุฏ)	13.6969702	100.5229255	exat	working	2022-09-09T00:00:00	14:00:00	15:00:00	38	71	5091	2700	1.89
13298	CCTV27 ต่างระดับพญาไท-YR (พระมงกุฏ)	13.6969702	100.5229255	exat	working	2022-09-09T00:00:00	15:00:00	16:00:00	35	67	5008	2700	1.85
13299	CCTV27 ต่างระดับพญาไท-YR (พระมงกุฏ)	13.6969702	100.5229255	exat	working	2022-09-09T00:00:00	16:00:00	17:00:00	40	100	4176	2700	1.55
13300	CCTV27 ต่างระดับพญาไท-YR (พระมงกุฏ)	13.6969702	100.5229255	exat	working	2022-09-09T00:00:00	17:00:00	18:00:00	44	39	1842	2700	0.68
13301	CCTV27 ต่างระดับพญาไท-YR (พระมงกุฏ)	13.6969702	100.5229255	exat	working	2022-09-09T00:00:00	18:00:00	19:00:00	34	173	4196	2700	1.55
13302	CCTV27 ต่างระดับพญาไท-YR (พระมงกุฏ)	13.6969702	100.5229255	exat	working	2022-10-09T00:00:00	5:00:00	6:00:00	63	15	364	2700	0.13
13303	CCTV27 ต่างระดับพญาไท-YR (พระมงกุฏ)	13.6969702	100.5229255	exat	holiday	2022-10-09T00:00:00	6:00:00	7:00:00	44	44	1095	2700	0.41
13304	CCTV27 ต่างระดับพญาไท-YR (พระมงกุฏ)	13.6969702	100.5229255	exat	holiday	2022-10-09T00:00:00	7:00:00	8:00:00	28	33	1982	2700	0.73
13305	CCTV27 ต่างระดับพญาไท-YR (พระมงกุฏ)	13.6969702	100.5229255	exat	holiday	2022-10-09T00:00:00	8:00:00	9:00:00	39	77	5503	2700	2.04
13306	CCTV27 ต่างระดับพญาไท-YR (พระมงกุฏ)	13.6969702	100.5229255	exat	working	2022-10-09T00:00:00	9:00:00	10:00:00	36	74	5484	2700	2.03
13307	CCTV27 ต่างระดับพญาไท-YR (พระมงกุฏ)	13.6969702	100.5229255	exat	working	2022-10-09T00:00:00	10:00:00	11:00:00	38	74	5536	2700	2.05
13308	CCTV27 ต่างระดับพญาไท-YR (พระมงกุฏ)	13.6969702	100.5229255	exat	working	2022-10-09T00:00:00	11:00:00	12:00:00	43	54	3477	2700	1.29
13309	CCTV27 ต่างระดับพญาไท-YR (พระมงกุฏ)	13.6969702	100.5229255	exat	working	2022-10-09T00:00:00	12:00:00	13:00:00	38	72	5333	2700	1.98
13310	CCTV27 ต่างระดับพญาไท-YR (พระมงกุฏ)	13.6969702	100.5229255	exat	working	2022-10-09T00:00:00	13:00:00	14:00:00	38	70	5444	2700	2.02
13311	CCTV27 ต่างระดับพญาไท-YR (พระมงกุฏ)	13.6969702	100.5229255	exat	working	2022-10-09T00:00:00	14:00:00	15:00:00	38	75	5387	2700	2.00
13312	CCTV27 ต่างระดับพญาไท-YR (พระมงกุฏ)	13.6969702	100.5229255	exat	working	2022-10-09T00:00:00	15:00:00	16:00:00	36	75	5320	2700	1.97
13313	CCTV27 ต่างระดับพญาไท-YR (พระมงกุฏ)	13.6969702	100.5229255	exat	holiday	2022-10-09T00:00:00	16:00:00	17:00:00	17	121	4730	2700	1.75
13314	CCTV27 ต่างระดับพญาไท-YR (พระมงกุฏ)	13.6969702	100.5229255	exat	holiday	2022-10-09T00:00:00	17:00:00	18:00:00	16	122	5851	2700	2.17
13315	CCTV27 ต่างระดับพญาไท-YR (พระมงกุฏ)	13.6969702	100.5229255	exat	holiday	2022-10-09T00:00:00	18:00:00	19:00:00	20	121	1277	2700	0.47
13316	CCTV27 ต่างระดับพญาไท-YR (พระมงกุฏ)	13.6969702	100.5229255	exat	working	2022-11-09T00:00:00	5:00:00	6:00:00	36	9	225	2700	0.08
13317	CCTV27 ต่างระดับพญาไท-YR (พระมงกุฏ)	13.6969702	100.5229255	exat	holiday	2022-11-09T00:00:00	6:00:00	7:00:00	26	27	674	2700	0.25
13318	CCTV27 ต่างระดับพญาไท-YR (พระมงกุฏ)	13.6969702	100.5229255	exat	holiday	2022-11-09T00:00:00	7:00:00	8:00:00	17	121	1206	2700	0.45
13319	CCTV27 ต่างระดับพญาไท-YR (พระมงกุฏ)	13.6969702	100.5229255	exat	holiday	2022-11-09T00:00:00	8:00:00	9:00:00	24	46	3269	2700	1.21
13320	CCTV27 ต่างระดับพญาไท-YR (พระมงกุฏ)	13.6969702	100.5229255	exat	working	2022-11-09T00:00:00	9:00:00	10:00:00	22	45	3259	2700	1.21
13321	CCTV27 ต่างระดับพญาไท-YR (พระมงกุฏ)	13.6969702	100.5229255	exat	working	2022-11-09T00:00:00	10:00:00	11:00:00	23	45	3308	2700	1.23
13322	CCTV27 ต่างระดับพญาไท-YR (พระมงกุฏ)	13.6969702	100.5229255	exat	working	2022-11-09T00:00:00	11:00:00	12:00:00	26	33	2053	2700	0.76
13323	CCTV27 ต่างระดับพญาไท-YR (พระมงกุฏ)	13.6969702	100.5229255	exat	working	2022-11-09T00:00:00	12:00:00	13:00:00	23	44	3203	2700	1.19
13324	CCTV27 ต่างระดับพญาไท-YR (พระมงกุฏ)	13.6969702	100.5229255	exat	working	2022-11-09T00:00:00	13:00:00	14:00:00	23	42	3246	2700	1.20
13325	CCTV27 ต่างระดับพญาไท-YR (พระมงกุฏ)	13.6969702	100.5229255	exat	working	2022-11-09T00:00:00	14:00:00	15:00:00	23	45	3223	2700	1.19
13326	CCTV27 ต่างระดับพญาไท-YR (พระมงกุฏ)	13.6969702	100.5229255	exat	working	2022-11-09T00:00:00	15:00:00	16:00:00	22	45	3183	2700	1.18
13327	CCTV27 ต่างระดับพญาไท-YR (พระมงกุฏ)	13.6969702	100.5229255	exat	holiday	2022-11-09T00:00:00	16:00:00	17:00:00	10	121	2846	2700	1.05
13328	CCTV27 ต่างระดับพญาไท-YR (พระมงกุฏ)	13.6969702	100.5229255	exat	holiday	2022-11-09T00:00:00	17:00:00	18:00:00	10	121	3500	2700	1.30
13329	CCTV27 ต่างระดับพญาไท-YR (พระมงกุฏ)	13.6969702	100.5229255	exat	holiday	2022-11-09T00:00:00	18:00:00	19:00:00	12	121	771	2700	0.29
13330	CCTV36 ทางลงสาทร	13.8272112	100.5437003	exat	working	2022-05-09T00:00:00	5:00:00	6:00:00	48	21	1000	2700	0.37
13331	CCTV36 ทางลงสาทร	13.8272112	100.5437003	exat	working	2022-05-09T00:00:00	6:00:00	7:00:00	34	67	3280	2700	1.21
13332	CCTV36 ทางลงสาทร	13.8272112	100.5437003	exat	working	2022-05-09T00:00:00	7:00:00	8:00:00	43	34	1641	2700	0.61
13333	CCTV36 ทางลงสาทร	13.8272112	100.5437003	exat	working	2022-05-09T00:00:00	8:00:00	9:00:00	43	56	1985	2700	0.74
13334	CCTV36 ทางลงสาทร	13.8272112	100.5437003	exat	working	2022-05-09T00:00:00	9:00:00	10:00:00	39	51	1854	2700	0.69
13335	CCTV36 ทางลงสาทร	13.8272112	100.5437003	exat	working	2022-05-09T00:00:00	10:00:00	11:00:00	40	50	1867	2700	0.69
13336	CCTV36 ทางลงสาทร	13.8272112	100.5437003	exat	working	2022-05-09T00:00:00	11:00:00	12:00:00	51	114	3820	2700	1.41
13337	CCTV36 ทางลงสาทร	13.8272112	100.5437003	exat	working	2022-05-09T00:00:00	12:00:00	13:00:00	41	54	1901	2700	0.70
13338	CCTV36 ทางลงสาทร	13.8272112	100.5437003	exat	working	2022-05-09T00:00:00	13:00:00	14:00:00	42	55	1993	2700	0.74
13339	CCTV36 ทางลงสาทร	13.8272112	100.5437003	exat	working	2022-05-09T00:00:00	14:00:00	15:00:00	42	56	1956	2700	0.72
13340	CCTV36 ทางลงสาทร	13.8272112	100.5437003	exat	working	2022-05-09T00:00:00	15:00:00	16:00:00	41	54	1910	2700	0.71
13341	CCTV36 ทางลงสาทร	13.8272112	100.5437003	exat	working	2022-05-09T00:00:00	16:00:00	17:00:00	46	56	1620	2700	0.60
13342	CCTV36 ทางลงสาทร	13.8272112	100.5437003	exat	working	2022-05-09T00:00:00	17:00:00	18:00:00	53	108	3458	2700	1.28
13343	CCTV36 ทางลงสาทร	13.8272112	100.5437003	exat	working	2022-05-09T00:00:00	18:00:00	19:00:00	48	87	3098	2700	1.15
13344	CCTV36 ทางลงสาทร	13.8272112	100.5437003	exat	working	2022-06-09T00:00:00	5:00:00	6:00:00	48	23	1109	2700	0.41
13345	CCTV36 ทางลงสาทร	13.8272112	100.5437003	exat	working	2022-06-09T00:00:00	6:00:00	7:00:00	34	67	3258	2700	1.21
13346	CCTV36 ทางลงสาทร	13.8272112	100.5437003	exat	working	2022-06-09T00:00:00	7:00:00	8:00:00	43	34	1625	2700	0.60
13347	CCTV36 ทางลงสาทร	13.8272112	100.5437003	exat	working	2022-06-09T00:00:00	8:00:00	9:00:00	43	56	1991	2700	0.74
13348	CCTV36 ทางลงสาทร	13.8272112	100.5437003	exat	working	2022-06-09T00:00:00	9:00:00	10:00:00	39	51	1859	2700	0.69
13349	CCTV36 ทางลงสาทร	13.8272112	100.5437003	exat	working	2022-06-09T00:00:00	10:00:00	11:00:00	39	52	1878	2700	0.70
13350	CCTV36 ทางลงสาทร	13.8272112	100.5437003	exat	working	2022-06-09T00:00:00	11:00:00	12:00:00	46	83	3271	2700	1.21
13351	CCTV36 ทางลงสาทร	13.8272112	100.5437003	exat	working	2022-06-09T00:00:00	12:00:00	13:00:00	39	54	1925	2700	0.71
13352	CCTV36 ทางลงสาทร	13.8272112	100.5437003	exat	working	2022-06-09T00:00:00	13:00:00	14:00:00	41	55	1959	2700	0.73
13353	CCTV36 ทางลงสาทร	13.8272112	100.5437003	exat	working	2022-06-09T00:00:00	14:00:00	15:00:00	41	55	1921	2700	0.71
13354	CCTV36 ทางลงสาทร	13.8272112	100.5437003	exat	working	2022-06-09T00:00:00	15:00:00	16:00:00	40	54	1873	2700	0.69
13355	CCTV36 ทางลงสาทร	13.8272112	100.5437003	exat	working	2022-06-09T00:00:00	16:00:00	17:00:00	40	75	3540	2700	1.31
13356	CCTV36 ทางลงสาทร	13.8272112	100.5437003	exat	working	2022-06-09T00:00:00	17:00:00	18:00:00	27	144	4961	2700	1.84
13357	CCTV36 ทางลงสาทร	13.8272112	100.5437003	exat	working	2022-06-09T00:00:00	18:00:00	19:00:00	24	108	4879	2700	1.81
13358	CCTV36 ทางลงสาทร	13.8272112	100.5437003	exat	working	2022-07-09T00:00:00	5:00:00	6:00:00	48	21	998	2700	0.37
13359	CCTV36 ทางลงสาทร	13.8272112	100.5437003	exat	working	2022-07-09T00:00:00	6:00:00	7:00:00	34	67	3293	2700	1.22
13360	CCTV36 ทางลงสาทร	13.8272112	100.5437003	exat	working	2022-07-09T00:00:00	7:00:00	8:00:00	43	34	1637	2700	0.61
13361	CCTV36 ทางลงสาทร	13.8272112	100.5437003	exat	working	2022-07-09T00:00:00	8:00:00	9:00:00	43	56	1998	2700	0.74
13362	CCTV36 ทางลงสาทร	13.8272112	100.5437003	exat	working	2022-07-09T00:00:00	9:00:00	10:00:00	40	51	1865	2700	0.69
13363	CCTV36 ทางลงสาทร	13.8272112	100.5437003	exat	working	2022-07-09T00:00:00	10:00:00	11:00:00	38	55	1927	2700	0.71
13364	CCTV36 ทางลงสาทร	13.8272112	100.5437003	exat	working	2022-07-09T00:00:00	11:00:00	12:00:00	42	52	2707	2700	1.00
13365	CCTV36 ทางลงสาทร	13.8272112	100.5437003	exat	working	2022-07-09T00:00:00	12:00:00	13:00:00	38	55	1952	2700	0.72
13366	CCTV36 ทางลงสาทร	13.8272112	100.5437003	exat	working	2022-07-09T00:00:00	13:00:00	14:00:00	40	54	1940	2700	0.72
13367	CCTV36 ทางลงสาทร	13.8272112	100.5437003	exat	working	2022-07-09T00:00:00	14:00:00	15:00:00	40	54	1851	2700	0.69
13368	CCTV36 ทางลงสาทร	13.8272112	100.5437003	exat	working	2022-07-09T00:00:00	15:00:00	16:00:00	38	54	1782	2700	0.66
13369	CCTV36 ทางลงสาทร	13.8272112	100.5437003	exat	working	2022-07-09T00:00:00	16:00:00	17:00:00	33	94	5474	2700	2.03
13370	CCTV36 ทางลงสาทร	13.8272112	100.5437003	exat	working	2022-07-09T00:00:00	17:00:00	18:00:00	21	121	6344	2700	2.35
13371	CCTV36 ทางลงสาทร	13.8272112	100.5437003	exat	working	2022-07-09T00:00:00	18:00:00	19:00:00	21	122	6576	2700	2.44
13372	CCTV36 ทางลงสาทร	13.8272112	100.5437003	exat	working	2022-08-09T00:00:00	5:00:00	6:00:00	83	21	1461	2700	0.54
13373	CCTV36 ทางลงสาทร	13.8272112	100.5437003	exat	working	2022-08-09T00:00:00	6:00:00	7:00:00	59	58	4803	2700	1.78
13374	CCTV36 ทางลงสาทร	13.8272112	100.5437003	exat	working	2022-08-09T00:00:00	7:00:00	8:00:00	57	33	2296	2700	0.85
13375	CCTV36 ทางลงสาทร	13.8272112	100.5437003	exat	working	2022-08-09T00:00:00	8:00:00	9:00:00	65	42	2090	2700	0.77
13376	CCTV36 ทางลงสาทร	13.8272112	100.5437003	exat	working	2022-08-09T00:00:00	9:00:00	10:00:00	62	40	1961	2700	0.73
13377	CCTV36 ทางลงสาทร	13.8272112	100.5437003	exat	working	2022-08-09T00:00:00	10:00:00	11:00:00	61	41	1951	2700	0.72
13378	CCTV36 ทางลงสาทร	13.8272112	100.5437003	exat	working	2022-08-09T00:00:00	11:00:00	12:00:00	63	57	4862	2700	1.80
13379	CCTV36 ทางลงสาทร	13.8272112	100.5437003	exat	working	2022-08-09T00:00:00	12:00:00	13:00:00	62	41	2038	2700	0.75
13380	CCTV36 ทางลงสาทร	13.8272112	100.5437003	exat	working	2022-08-09T00:00:00	13:00:00	14:00:00	62	39	2011	2700	0.74
13381	CCTV36 ทางลงสาทร	13.8272112	100.5437003	exat	working	2022-08-09T00:00:00	14:00:00	15:00:00	63	39	2020	2700	0.75
13382	CCTV36 ทางลงสาทร	13.8272112	100.5437003	exat	working	2022-08-09T00:00:00	15:00:00	16:00:00	60	40	1989	2700	0.74
13383	CCTV36 ทางลงสาทร	13.8272112	100.5437003	exat	working	2022-08-09T00:00:00	16:00:00	17:00:00	41	78	3947	2700	1.46
13384	CCTV36 ทางลงสาทร	13.8272112	100.5437003	exat	working	2022-08-09T00:00:00	17:00:00	18:00:00	21	121	4346	2700	1.61
13385	CCTV36 ทางลงสาทร	13.8272112	100.5437003	exat	working	2022-08-09T00:00:00	18:00:00	19:00:00	4	121	4639	2700	1.72
13386	CCTV36 ทางลงสาทร	13.8272112	100.5437003	exat	working	2022-09-09T00:00:00	5:00:00	6:00:00	117	17	2167	2700	0.80
13387	CCTV36 ทางลงสาทร	13.8272112	100.5437003	exat	working	2022-09-09T00:00:00	6:00:00	7:00:00	84	49	6411	2700	2.37
13388	CCTV36 ทางลงสาทร	13.8272112	100.5437003	exat	working	2022-09-09T00:00:00	7:00:00	8:00:00	71	33	2921	2700	1.08
13389	CCTV36 ทางลงสาทร	13.8272112	100.5437003	exat	working	2022-09-09T00:00:00	8:00:00	9:00:00	87	29	2185	2700	0.81
13390	CCTV36 ทางลงสาทร	13.8272112	100.5437003	exat	working	2022-09-09T00:00:00	9:00:00	10:00:00	84	28	2067	2700	0.77
13391	CCTV36 ทางลงสาทร	13.8272112	100.5437003	exat	working	2022-09-09T00:00:00	10:00:00	11:00:00	85	27	1963	2700	0.73
13392	CCTV36 ทางลงสาทร	13.8272112	100.5437003	exat	working	2022-09-09T00:00:00	11:00:00	12:00:00	85	63	6916	2700	2.56
13393	CCTV36 ทางลงสาทร	13.8272112	100.5437003	exat	working	2022-09-09T00:00:00	12:00:00	13:00:00	87	28	2097	2700	0.78
13394	CCTV36 ทางลงสาทร	13.8272112	100.5437003	exat	working	2022-09-09T00:00:00	13:00:00	14:00:00	84	24	2101	2700	0.78
13395	CCTV36 ทางลงสาทร	13.8272112	100.5437003	exat	working	2022-09-09T00:00:00	14:00:00	15:00:00	86	24	2150	2700	0.80
13396	CCTV36 ทางลงสาทร	13.8272112	100.5437003	exat	working	2022-09-09T00:00:00	15:00:00	16:00:00	82	27	2226	2700	0.82
13397	CCTV36 ทางลงสาทร	13.8272112	100.5437003	exat	working	2022-09-09T00:00:00	16:00:00	17:00:00	49	61	2368	2700	0.88
13398	CCTV36 ทางลงสาทร	13.8272112	100.5437003	exat	working	2022-09-09T00:00:00	17:00:00	18:00:00	21	121	2378	2700	0.88
13399	CCTV36 ทางลงสาทร	13.8272112	100.5437003	exat	working	2022-09-09T00:00:00	18:00:00	19:00:00	7	121	2761	2700	1.02
13400	CCTV36 ทางลงสาทร	13.8272112	100.5437003	exat	working	2022-10-09T00:00:00	5:00:00	6:00:00	73	19	811	2700	0.30
13401	CCTV36 ทางลงสาทร	13.8272112	100.5437003	exat	holiday	2022-10-09T00:00:00	6:00:00	7:00:00	52	58	2366	2700	0.88
13402	CCTV36 ทางลงสาทร	13.8272112	100.5437003	exat	holiday	2022-10-09T00:00:00	7:00:00	8:00:00	59	90	4193	2700	1.55
13403	CCTV36 ทางลงสาทร	13.8272112	100.5437003	exat	holiday	2022-10-09T00:00:00	8:00:00	9:00:00	58	74	5829	2700	2.16
13404	CCTV36 ทางลงสาทร	13.8272112	100.5437003	exat	working	2022-10-09T00:00:00	9:00:00	10:00:00	55	69	5891	2700	2.18
13405	CCTV36 ทางลงสาทร	13.8272112	100.5437003	exat	working	2022-10-09T00:00:00	10:00:00	11:00:00	57	71	5796	2700	2.15
13406	CCTV36 ทางลงสาทร	13.8272112	100.5437003	exat	holiday	2022-10-09T00:00:00	11:00:00	12:00:00	55	87	5282	2700	1.96
13407	CCTV36 ทางลงสาทร	13.8272112	100.5437003	exat	working	2022-10-09T00:00:00	12:00:00	13:00:00	54	69	5694	2700	2.11
13408	CCTV36 ทางลงสาทร	13.8272112	100.5437003	exat	working	2022-10-09T00:00:00	13:00:00	14:00:00	57	71	5772	2700	2.14
13409	CCTV36 ทางลงสาทร	13.8272112	100.5437003	exat	working	2022-10-09T00:00:00	14:00:00	15:00:00	53	70	5714	2700	2.12
13410	CCTV36 ทางลงสาทร	13.8272112	100.5437003	exat	working	2022-10-09T00:00:00	15:00:00	16:00:00	56	70	5769	2700	2.14
13411	CCTV36 ทางลงสาทร	13.8272112	100.5437003	exat	holiday	2022-10-09T00:00:00	16:00:00	17:00:00	26	182	3656	2700	1.35
13412	CCTV36 ทางลงสาทร	13.8272112	100.5437003	exat	holiday	2022-10-09T00:00:00	17:00:00	18:00:00	46	81	3831	2700	1.42
13413	CCTV36 ทางลงสาทร	13.8272112	100.5437003	exat	holiday	2022-10-09T00:00:00	18:00:00	19:00:00	33	108	3822	2700	1.42
13414	CCTV36 ทางลงสาทร	13.8272112	100.5437003	exat	working	2022-11-09T00:00:00	5:00:00	6:00:00	44	11	499	2700	0.18
13415	CCTV36 ทางลงสาทร	13.8272112	100.5437003	exat	holiday	2022-11-09T00:00:00	6:00:00	7:00:00	31	35	1441	2700	0.53
13416	CCTV36 ทางลงสาทร	13.8272112	100.5437003	exat	holiday	2022-11-09T00:00:00	7:00:00	8:00:00	35	54	2521	2700	0.93
13417	CCTV36 ทางลงสาทร	13.8272112	100.5437003	exat	holiday	2022-11-09T00:00:00	8:00:00	9:00:00	35	44	3506	2700	1.30
13418	CCTV36 ทางลงสาทร	13.8272112	100.5437003	exat	working	2022-11-09T00:00:00	9:00:00	10:00:00	33	41	3520	2700	1.30
13419	CCTV36 ทางลงสาทร	13.8272112	100.5437003	exat	working	2022-11-09T00:00:00	10:00:00	11:00:00	35	43	3487	2700	1.29
13420	CCTV36 ทางลงสาทร	13.8272112	100.5437003	exat	holiday	2022-11-09T00:00:00	11:00:00	12:00:00	33	52	3174	2700	1.18
13421	CCTV36 ทางลงสาทร	13.8272112	100.5437003	exat	working	2022-11-09T00:00:00	12:00:00	13:00:00	32	42	3394	2700	1.26
13422	CCTV36 ทางลงสาทร	13.8272112	100.5437003	exat	working	2022-11-09T00:00:00	13:00:00	14:00:00	34	43	3456	2700	1.28
13423	CCTV36 ทางลงสาทร	13.8272112	100.5437003	exat	working	2022-11-09T00:00:00	14:00:00	15:00:00	32	42	3441	2700	1.27
13424	CCTV36 ทางลงสาทร	13.8272112	100.5437003	exat	working	2022-11-09T00:00:00	15:00:00	16:00:00	34	42	3435	2700	1.27
13425	CCTV36 ทางลงสาทร	13.8272112	100.5437003	exat	holiday	2022-11-09T00:00:00	16:00:00	17:00:00	16	121	2194	2700	0.81
13426	CCTV36 ทางลงสาทร	13.8272112	100.5437003	exat	holiday	2022-11-09T00:00:00	17:00:00	18:00:00	28	49	2304	2700	0.85
13427	CCTV36 ทางลงสาทร	13.8272112	100.5437003	exat	holiday	2022-11-09T00:00:00	18:00:00	19:00:00	20	121	2307	2700	0.85
13428	CCTV38 ทางลงสาธุฯ3	13.783581	100.5348777	exat	working	2022-05-09T00:00:00	5:00:00	6:00:00	58	18	774	2700	0.29
13429	CCTV38 ทางลงสาธุฯ3	13.783581	100.5348777	exat	working	2022-05-09T00:00:00	6:00:00	7:00:00	41	53	2364	2700	0.88
13430	CCTV38 ทางลงสาธุฯ3	13.783581	100.5348777	exat	working	2022-05-09T00:00:00	7:00:00	8:00:00	62	35	364	2700	0.13
13431	CCTV38 ทางลงสาธุฯ3	13.783581	100.5348777	exat	working	2022-05-09T00:00:00	8:00:00	9:00:00	74	45	920	2700	0.34
13432	CCTV38 ทางลงสาธุฯ3	13.783581	100.5348777	exat	working	2022-05-09T00:00:00	9:00:00	10:00:00	73	40	793	2700	0.29
13433	CCTV38 ทางลงสาธุฯ3	13.783581	100.5348777	exat	working	2022-05-09T00:00:00	10:00:00	11:00:00	71	43	888	2700	0.33
13434	CCTV38 ทางลงสาธุฯ3	13.783581	100.5348777	exat	working	2022-05-09T00:00:00	11:00:00	12:00:00	87	13	1293	2700	0.48
13435	CCTV38 ทางลงสาธุฯ3	13.783581	100.5348777	exat	working	2022-05-09T00:00:00	12:00:00	13:00:00	70	40	761	2700	0.28
13436	CCTV38 ทางลงสาธุฯ3	13.783581	100.5348777	exat	working	2022-05-09T00:00:00	13:00:00	14:00:00	69	41	740	2700	0.27
13437	CCTV38 ทางลงสาธุฯ3	13.783581	100.5348777	exat	working	2022-05-09T00:00:00	14:00:00	15:00:00	72	43	867	2700	0.32
13438	CCTV38 ทางลงสาธุฯ3	13.783581	100.5348777	exat	working	2022-05-09T00:00:00	15:00:00	16:00:00	69	43	697	2700	0.26
13439	CCTV38 ทางลงสาธุฯ3	13.783581	100.5348777	exat	working	2022-05-09T00:00:00	16:00:00	17:00:00	64	55	4217	2700	1.56
13440	CCTV38 ทางลงสาธุฯ3	13.783581	100.5348777	exat	working	2022-05-09T00:00:00	17:00:00	18:00:00	36	118	5472	2700	2.03
13441	CCTV38 ทางลงสาธุฯ3	13.783581	100.5348777	exat	working	2022-05-09T00:00:00	18:00:00	19:00:00	46	52	3302	2700	1.22
13442	CCTV38 ทางลงสาธุฯ3	13.783581	100.5348777	exat	working	2022-06-09T00:00:00	5:00:00	6:00:00	58	18	815	2700	0.30
13443	CCTV38 ทางลงสาธุฯ3	13.783581	100.5348777	exat	working	2022-06-09T00:00:00	6:00:00	7:00:00	41	53	2372	2700	0.88
13444	CCTV38 ทางลงสาธุฯ3	13.783581	100.5348777	exat	working	2022-06-09T00:00:00	7:00:00	8:00:00	62	35	365	2700	0.14
13445	CCTV38 ทางลงสาธุฯ3	13.783581	100.5348777	exat	working	2022-06-09T00:00:00	8:00:00	9:00:00	74	45	910	2700	0.34
13446	CCTV38 ทางลงสาธุฯ3	13.783581	100.5348777	exat	working	2022-06-09T00:00:00	9:00:00	10:00:00	72	41	800	2700	0.30
13447	CCTV38 ทางลงสาธุฯ3	13.783581	100.5348777	exat	working	2022-06-09T00:00:00	10:00:00	11:00:00	70	43	918	2700	0.34
13448	CCTV38 ทางลงสาธุฯ3	13.783581	100.5348777	exat	working	2022-06-09T00:00:00	11:00:00	12:00:00	87	14	822	2700	0.30
13449	CCTV38 ทางลงสาธุฯ3	13.783581	100.5348777	exat	working	2022-06-09T00:00:00	12:00:00	13:00:00	70	40	808	2700	0.30
13450	CCTV38 ทางลงสาธุฯ3	13.783581	100.5348777	exat	working	2022-06-09T00:00:00	13:00:00	14:00:00	71	40	742	2700	0.27
13451	CCTV38 ทางลงสาธุฯ3	13.783581	100.5348777	exat	working	2022-06-09T00:00:00	14:00:00	15:00:00	72	42	851	2700	0.32
13452	CCTV38 ทางลงสาธุฯ3	13.783581	100.5348777	exat	working	2022-06-09T00:00:00	15:00:00	16:00:00	71	42	753	2700	0.28
13453	CCTV38 ทางลงสาธุฯ3	13.783581	100.5348777	exat	working	2022-06-09T00:00:00	16:00:00	17:00:00	64	55	4178	2700	1.55
13454	CCTV38 ทางลงสาธุฯ3	13.783581	100.5348777	exat	working	2022-06-09T00:00:00	17:00:00	18:00:00	49	80	3196	2700	1.18
13455	CCTV38 ทางลงสาธุฯ3	13.783581	100.5348777	exat	working	2022-06-09T00:00:00	18:00:00	19:00:00	46	52	3292	2700	1.22
13456	CCTV38 ทางลงสาธุฯ3	13.783581	100.5348777	exat	working	2022-07-09T00:00:00	5:00:00	6:00:00	59	18	769	2700	0.28
13457	CCTV38 ทางลงสาธุฯ3	13.783581	100.5348777	exat	working	2022-07-09T00:00:00	6:00:00	7:00:00	41	53	2398	2700	0.89
13458	CCTV38 ทางลงสาธุฯ3	13.783581	100.5348777	exat	working	2022-07-09T00:00:00	7:00:00	8:00:00	62	35	368	2700	0.14
13459	CCTV38 ทางลงสาธุฯ3	13.783581	100.5348777	exat	working	2022-07-09T00:00:00	8:00:00	9:00:00	74	45	916	2700	0.34
13460	CCTV38 ทางลงสาธุฯ3	13.783581	100.5348777	exat	working	2022-07-09T00:00:00	9:00:00	10:00:00	71	42	812	2700	0.30
13461	CCTV38 ทางลงสาธุฯ3	13.783581	100.5348777	exat	working	2022-07-09T00:00:00	10:00:00	11:00:00	69	43	896	2700	0.33
13462	CCTV38 ทางลงสาธุฯ3	13.783581	100.5348777	exat	working	2022-07-09T00:00:00	11:00:00	12:00:00	87	15	365	2700	0.14
13463	CCTV38 ทางลงสาธุฯ3	13.783581	100.5348777	exat	working	2022-07-09T00:00:00	12:00:00	13:00:00	69	41	840	2700	0.31
13464	CCTV38 ทางลงสาธุฯ3	13.783581	100.5348777	exat	working	2022-07-09T00:00:00	13:00:00	14:00:00	73	40	739	2700	0.27
13465	CCTV38 ทางลงสาธุฯ3	13.783581	100.5348777	exat	working	2022-07-09T00:00:00	14:00:00	15:00:00	72	41	824	2700	0.31
13466	CCTV38 ทางลงสาธุฯ3	13.783581	100.5348777	exat	working	2022-07-09T00:00:00	15:00:00	16:00:00	72	42	798	2700	0.30
13467	CCTV38 ทางลงสาธุฯ3	13.783581	100.5348777	exat	working	2022-07-09T00:00:00	16:00:00	17:00:00	64	55	4179	2700	1.55
13468	CCTV38 ทางลงสาธุฯ3	13.783581	100.5348777	exat	working	2022-07-09T00:00:00	17:00:00	18:00:00	62	41	904	2700	0.33
13469	CCTV38 ทางลงสาธุฯ3	13.783581	100.5348777	exat	working	2022-07-09T00:00:00	18:00:00	19:00:00	46	52	3297	2700	1.22
13470	CCTV38 ทางลงสาธุฯ3	13.783581	100.5348777	exat	working	2022-08-09T00:00:00	5:00:00	6:00:00	58	19	745	2700	0.28
13471	CCTV38 ทางลงสาธุฯ3	13.783581	100.5348777	exat	working	2022-08-09T00:00:00	6:00:00	7:00:00	41	53	2364	2700	0.88
13472	CCTV38 ทางลงสาธุฯ3	13.783581	100.5348777	exat	working	2022-08-09T00:00:00	7:00:00	8:00:00	51	34	1632	2700	0.60
13473	CCTV38 ทางลงสาธุฯ3	13.783581	100.5348777	exat	working	2022-08-09T00:00:00	8:00:00	9:00:00	61	51	1728	2700	0.64
13474	CCTV38 ทางลงสาธุฯ3	13.783581	100.5348777	exat	working	2022-08-09T00:00:00	9:00:00	10:00:00	58	48	1673	2700	0.62
13475	CCTV38 ทางลงสาธุฯ3	13.783581	100.5348777	exat	working	2022-08-09T00:00:00	10:00:00	11:00:00	58	48	1674	2700	0.62
13476	CCTV38 ทางลงสาธุฯ3	13.783581	100.5348777	exat	working	2022-08-09T00:00:00	11:00:00	12:00:00	62	39	1477	2700	0.55
13477	CCTV38 ทางลงสาธุฯ3	13.783581	100.5348777	exat	working	2022-08-09T00:00:00	12:00:00	13:00:00	57	48	1694	2700	0.63
13478	CCTV38 ทางลงสาธุฯ3	13.783581	100.5348777	exat	working	2022-08-09T00:00:00	13:00:00	14:00:00	60	47	1635	2700	0.61
13479	CCTV38 ทางลงสาธุฯ3	13.783581	100.5348777	exat	working	2022-08-09T00:00:00	14:00:00	15:00:00	59	47	1636	2700	0.61
13480	CCTV38 ทางลงสาธุฯ3	13.783581	100.5348777	exat	working	2022-08-09T00:00:00	15:00:00	16:00:00	59	47	1675	2700	0.62
13481	CCTV38 ทางลงสาธุฯ3	13.783581	100.5348777	exat	working	2022-08-09T00:00:00	16:00:00	17:00:00	63	64	3179	2700	1.18
13482	CCTV38 ทางลงสาธุฯ3	13.783581	100.5348777	exat	working	2022-08-09T00:00:00	17:00:00	18:00:00	53	44	1375	2700	0.51
13483	CCTV38 ทางลงสาธุฯ3	13.783581	100.5348777	exat	working	2022-08-09T00:00:00	18:00:00	19:00:00	48	44	2363	2700	0.88
13484	CCTV38 ทางลงสาธุฯ3	13.783581	100.5348777	exat	working	2022-09-09T00:00:00	5:00:00	6:00:00	58	18	833	2700	0.31
13485	CCTV38 ทางลงสาธุฯ3	13.783581	100.5348777	exat	working	2022-09-09T00:00:00	6:00:00	7:00:00	41	53	2402	2700	0.89
13486	CCTV38 ทางลงสาธุฯ3	13.783581	100.5348777	exat	working	2022-09-09T00:00:00	7:00:00	8:00:00	40	33	2921	2700	1.08
13487	CCTV38 ทางลงสาธุฯ3	13.783581	100.5348777	exat	working	2022-09-09T00:00:00	8:00:00	9:00:00	48	57	2549	2700	0.94
13488	CCTV38 ทางลงสาธุฯ3	13.783581	100.5348777	exat	working	2022-09-09T00:00:00	9:00:00	10:00:00	45	54	2487	2700	0.92
13489	CCTV38 ทางลงสาธุฯ3	13.783581	100.5348777	exat	working	2022-09-09T00:00:00	10:00:00	11:00:00	46	53	2448	2700	0.91
13490	CCTV38 ทางลงสาธุฯ3	13.783581	100.5348777	exat	working	2022-09-09T00:00:00	11:00:00	12:00:00	37	64	2583	2700	0.96
13491	CCTV38 ทางลงสาธุฯ3	13.783581	100.5348777	exat	working	2022-09-09T00:00:00	12:00:00	13:00:00	44	56	2545	2700	0.94
13492	CCTV38 ทางลงสาธุฯ3	13.783581	100.5348777	exat	working	2022-09-09T00:00:00	13:00:00	14:00:00	47	55	2554	2700	0.95
13493	CCTV38 ทางลงสาธุฯ3	13.783581	100.5348777	exat	working	2022-09-09T00:00:00	14:00:00	15:00:00	46	53	2411	2700	0.89
13494	CCTV38 ทางลงสาธุฯ3	13.783581	100.5348777	exat	working	2022-09-09T00:00:00	15:00:00	16:00:00	47	52	2540	2700	0.94
13495	CCTV38 ทางลงสาธุฯ3	13.783581	100.5348777	exat	working	2022-09-09T00:00:00	16:00:00	17:00:00	62	72	2177	2700	0.81
13496	CCTV38 ทางลงสาธุฯ3	13.783581	100.5348777	exat	working	2022-09-09T00:00:00	17:00:00	18:00:00	44	47	1800	2700	0.67
13497	CCTV38 ทางลงสาธุฯ3	13.783581	100.5348777	exat	working	2022-09-09T00:00:00	18:00:00	19:00:00	50	36	1435	2700	0.53
13498	CCTV38 ทางลงสาธุฯ3	13.783581	100.5348777	exat	working	2022-10-09T00:00:00	5:00:00	6:00:00	82	7	629	2700	0.23
13499	CCTV38 ทางลงสาธุฯ3	13.783581	100.5348777	exat	holiday	2022-10-09T00:00:00	6:00:00	7:00:00	58	19	1814	2700	0.67
13500	CCTV38 ทางลงสาธุฯ3	13.783581	100.5348777	exat	holiday	2022-10-09T00:00:00	7:00:00	8:00:00	54	54	5161	2700	1.91
13501	CCTV38 ทางลงสาธุฯ3	13.783581	100.5348777	exat	holiday	2022-10-09T00:00:00	8:00:00	9:00:00	42	56	5074	2700	1.88
13502	CCTV38 ทางลงสาธุฯ3	13.783581	100.5348777	exat	working	2022-10-09T00:00:00	9:00:00	10:00:00	39	51	5086	2700	1.88
13503	CCTV38 ทางลงสาธุฯ3	13.783581	100.5348777	exat	working	2022-10-09T00:00:00	10:00:00	11:00:00	41	52	5028	2700	1.86
13504	CCTV38 ทางลงสาธุฯ3	13.783581	100.5348777	exat	holiday	2022-10-09T00:00:00	11:00:00	12:00:00	40	79	5474	2700	2.03
13505	CCTV38 ทางลงสาธุฯ3	13.783581	100.5348777	exat	working	2022-10-09T00:00:00	12:00:00	13:00:00	38	54	5055	2700	1.87
13506	CCTV38 ทางลงสาธุฯ3	13.783581	100.5348777	exat	working	2022-10-09T00:00:00	13:00:00	14:00:00	40	56	5095	2700	1.89
13507	CCTV38 ทางลงสาธุฯ3	13.783581	100.5348777	exat	working	2022-10-09T00:00:00	14:00:00	15:00:00	38	55	5082	2700	1.88
13508	CCTV38 ทางลงสาธุฯ3	13.783581	100.5348777	exat	working	2022-10-09T00:00:00	15:00:00	16:00:00	37	52	5078	2700	1.88
13509	CCTV38 ทางลงสาธุฯ3	13.783581	100.5348777	exat	holiday	2022-10-09T00:00:00	16:00:00	17:00:00	61	39	4534	2700	1.68
13510	CCTV38 ทางลงสาธุฯ3	13.783581	100.5348777	exat	holiday	2022-10-09T00:00:00	17:00:00	18:00:00	78	21	2366	2700	0.88
13511	CCTV38 ทางลงสาธุฯ3	13.783581	100.5348777	exat	holiday	2022-10-09T00:00:00	18:00:00	19:00:00	37	35	734	2700	0.27
13512	CCTV38 ทางลงสาธุฯ3	13.783581	100.5348777	exat	working	2022-11-09T00:00:00	5:00:00	6:00:00	49	4	343	2700	0.13
13513	CCTV38 ทางลงสาธุฯ3	13.783581	100.5348777	exat	holiday	2022-11-09T00:00:00	6:00:00	7:00:00	35	11	1075	2700	0.40
13514	CCTV38 ทางลงสาธุฯ3	13.783581	100.5348777	exat	holiday	2022-11-09T00:00:00	7:00:00	8:00:00	32	32	3059	2700	1.13
13515	CCTV38 ทางลงสาธุฯ3	13.783581	100.5348777	exat	holiday	2022-11-09T00:00:00	8:00:00	9:00:00	26	34	3038	2700	1.13
13516	CCTV38 ทางลงสาธุฯ3	13.783581	100.5348777	exat	working	2022-11-09T00:00:00	9:00:00	10:00:00	24	31	3021	2700	1.12
13517	CCTV38 ทางลงสาธุฯ3	13.783581	100.5348777	exat	working	2022-11-09T00:00:00	10:00:00	11:00:00	25	31	3011	2700	1.12
13518	CCTV38 ทางลงสาธุฯ3	13.783581	100.5348777	exat	holiday	2022-11-09T00:00:00	11:00:00	12:00:00	24	48	3270	2700	1.21
13519	CCTV38 ทางลงสาธุฯ3	13.783581	100.5348777	exat	working	2022-11-09T00:00:00	12:00:00	13:00:00	23	33	3071	2700	1.14
13520	CCTV38 ทางลงสาธุฯ3	13.783581	100.5348777	exat	working	2022-11-09T00:00:00	13:00:00	14:00:00	24	34	3073	2700	1.14
13521	CCTV38 ทางลงสาธุฯ3	13.783581	100.5348777	exat	working	2022-11-09T00:00:00	14:00:00	15:00:00	23	33	3041	2700	1.13
13522	CCTV38 ทางลงสาธุฯ3	13.783581	100.5348777	exat	working	2022-11-09T00:00:00	15:00:00	16:00:00	23	31	3034	2700	1.12
13523	CCTV38 ทางลงสาธุฯ3	13.783581	100.5348777	exat	holiday	2022-11-09T00:00:00	16:00:00	17:00:00	37	24	2732	2700	1.01
13524	CCTV38 ทางลงสาธุฯ3	13.783581	100.5348777	exat	holiday	2022-11-09T00:00:00	17:00:00	18:00:00	47	13	1403	2700	0.52
13525	CCTV38 ทางลงสาธุฯ3	13.783581	100.5348777	exat	holiday	2022-11-09T00:00:00	18:00:00	19:00:00	23	21	437	2700	0.16
13526	CCTV18 ทางขึ้นรัชดาฯ	13.6946177	100.5258639	exat	working	2022-05-09T00:00:00	5:00:00	6:00:00	124	6	125	1800	0.07
13527	CCTV18 ทางขึ้นรัชดาฯ	13.6946177	100.5258639	exat	working	2022-05-09T00:00:00	6:00:00	7:00:00	87	17	367	1800	0.20
13528	CCTV18 ทางขึ้นรัชดาฯ	13.6946177	100.5258639	exat	working	2022-05-09T00:00:00	7:00:00	8:00:00	21	121	1080	1800	0.60
13529	CCTV18 ทางขึ้นรัชดาฯ	13.6946177	100.5258639	exat	working	2022-05-09T00:00:00	8:00:00	9:00:00	87	17	729	1800	0.41
13530	CCTV18 ทางขึ้นรัชดาฯ	13.6946177	100.5258639	exat	working	2022-05-09T00:00:00	9:00:00	10:00:00	86	12	644	1800	0.36
13531	CCTV18 ทางขึ้นรัชดาฯ	13.6946177	100.5258639	exat	working	2022-05-09T00:00:00	10:00:00	11:00:00	85	16	641	1800	0.36
13532	CCTV18 ทางขึ้นรัชดาฯ	13.6946177	100.5258639	exat	working	2022-05-09T00:00:00	11:00:00	12:00:00	87	40	739	1800	0.41
13533	CCTV18 ทางขึ้นรัชดาฯ	13.6946177	100.5258639	exat	working	2022-05-09T00:00:00	12:00:00	13:00:00	82	15	653	1800	0.36
13534	CCTV18 ทางขึ้นรัชดาฯ	13.6946177	100.5258639	exat	working	2022-05-09T00:00:00	13:00:00	14:00:00	82	12	603	1800	0.34
13535	CCTV18 ทางขึ้นรัชดาฯ	13.6946177	100.5258639	exat	working	2022-05-09T00:00:00	14:00:00	15:00:00	83	16	613	1800	0.34
13536	CCTV18 ทางขึ้นรัชดาฯ	13.6946177	100.5258639	exat	working	2022-05-09T00:00:00	15:00:00	16:00:00	85	16	641	1800	0.36
13537	CCTV18 ทางขึ้นรัชดาฯ	13.6946177	100.5258639	exat	working	2022-05-09T00:00:00	16:00:00	17:00:00	78	36	1096	1800	0.61
13538	CCTV18 ทางขึ้นรัชดาฯ	13.6946177	100.5258639	exat	working	2022-05-09T00:00:00	17:00:00	18:00:00	59	61	1273	1800	0.71
13539	CCTV18 ทางขึ้นรัชดาฯ	13.6946177	100.5258639	exat	working	2022-05-09T00:00:00	18:00:00	19:00:00	61	21	897	1800	0.50
13540	CCTV18 ทางขึ้นรัชดาฯ	13.6946177	100.5258639	exat	working	2022-06-09T00:00:00	5:00:00	6:00:00	124	6	119	1800	0.07
13541	CCTV18 ทางขึ้นรัชดาฯ	13.6946177	100.5258639	exat	working	2022-06-09T00:00:00	6:00:00	7:00:00	87	17	346	1800	0.19
13542	CCTV18 ทางขึ้นรัชดาฯ	13.6946177	100.5258639	exat	working	2022-06-09T00:00:00	7:00:00	8:00:00	21	121	1110	1800	0.62
13543	CCTV18 ทางขึ้นรัชดาฯ	13.6946177	100.5258639	exat	working	2022-06-09T00:00:00	8:00:00	9:00:00	87	17	745	1800	0.41
13544	CCTV18 ทางขึ้นรัชดาฯ	13.6946177	100.5258639	exat	working	2022-06-09T00:00:00	9:00:00	10:00:00	86	14	644	1800	0.36
13545	CCTV18 ทางขึ้นรัชดาฯ	13.6946177	100.5258639	exat	working	2022-06-09T00:00:00	10:00:00	11:00:00	85	14	678	1800	0.38
13546	CCTV18 ทางขึ้นรัชดาฯ	13.6946177	100.5258639	exat	working	2022-06-09T00:00:00	11:00:00	12:00:00	87	40	734	1800	0.41
13547	CCTV18 ทางขึ้นรัชดาฯ	13.6946177	100.5258639	exat	working	2022-06-09T00:00:00	12:00:00	13:00:00	83	14	644	1800	0.36
13548	CCTV18 ทางขึ้นรัชดาฯ	13.6946177	100.5258639	exat	working	2022-06-09T00:00:00	13:00:00	14:00:00	83	13	643	1800	0.36
13549	CCTV18 ทางขึ้นรัชดาฯ	13.6946177	100.5258639	exat	working	2022-06-09T00:00:00	14:00:00	15:00:00	84	15	617	1800	0.34
13550	CCTV18 ทางขึ้นรัชดาฯ	13.6946177	100.5258639	exat	working	2022-06-09T00:00:00	15:00:00	16:00:00	86	14	656	1800	0.36
13551	CCTV18 ทางขึ้นรัชดาฯ	13.6946177	100.5258639	exat	working	2022-06-09T00:00:00	16:00:00	17:00:00	82	27	824	1800	0.46
13552	CCTV18 ทางขึ้นรัชดาฯ	13.6946177	100.5258639	exat	working	2022-06-09T00:00:00	17:00:00	18:00:00	73	44	1200	1800	0.67
13553	CCTV18 ทางขึ้นรัชดาฯ	13.6946177	100.5258639	exat	working	2022-06-09T00:00:00	18:00:00	19:00:00	62	26	1183	1800	0.66
13554	CCTV18 ทางขึ้นรัชดาฯ	13.6946177	100.5258639	exat	working	2022-07-09T00:00:00	5:00:00	6:00:00	124	6	124	1800	0.07
13555	CCTV18 ทางขึ้นรัชดาฯ	13.6946177	100.5258639	exat	working	2022-07-09T00:00:00	6:00:00	7:00:00	87	17	381	1800	0.21
13556	CCTV18 ทางขึ้นรัชดาฯ	13.6946177	100.5258639	exat	working	2022-07-09T00:00:00	7:00:00	8:00:00	21	121	1096	1800	0.61
13557	CCTV18 ทางขึ้นรัชดาฯ	13.6946177	100.5258639	exat	working	2022-07-09T00:00:00	8:00:00	9:00:00	87	17	719	1800	0.40
13558	CCTV18 ทางขึ้นรัชดาฯ	13.6946177	100.5258639	exat	working	2022-07-09T00:00:00	9:00:00	10:00:00	86	15	642	1800	0.36
13559	CCTV18 ทางขึ้นรัชดาฯ	13.6946177	100.5258639	exat	working	2022-07-09T00:00:00	10:00:00	11:00:00	86	11	697	1800	0.39
13560	CCTV18 ทางขึ้นรัชดาฯ	13.6946177	100.5258639	exat	working	2022-07-09T00:00:00	11:00:00	12:00:00	87	40	728	1800	0.40
13561	CCTV18 ทางขึ้นรัชดาฯ	13.6946177	100.5258639	exat	working	2022-07-09T00:00:00	12:00:00	13:00:00	84	14	646	1800	0.36
13562	CCTV18 ทางขึ้นรัชดาฯ	13.6946177	100.5258639	exat	working	2022-07-09T00:00:00	13:00:00	14:00:00	84	14	699	1800	0.39
13563	CCTV18 ทางขึ้นรัชดาฯ	13.6946177	100.5258639	exat	working	2022-07-09T00:00:00	14:00:00	15:00:00	86	14	649	1800	0.36
13564	CCTV18 ทางขึ้นรัชดาฯ	13.6946177	100.5258639	exat	working	2022-07-09T00:00:00	15:00:00	16:00:00	86	13	699	1800	0.39
13565	CCTV18 ทางขึ้นรัชดาฯ	13.6946177	100.5258639	exat	working	2022-07-09T00:00:00	16:00:00	17:00:00	87	17	543	1800	0.30
13566	CCTV18 ทางขึ้นรัชดาฯ	13.6946177	100.5258639	exat	working	2022-07-09T00:00:00	17:00:00	18:00:00	87	27	1077	1800	0.60
13567	CCTV18 ทางขึ้นรัชดาฯ	13.6946177	100.5258639	exat	working	2022-07-09T00:00:00	18:00:00	19:00:00	63	31	1447	1800	0.80
13568	CCTV18 ทางขึ้นรัชดาฯ	13.6946177	100.5258639	exat	working	2022-08-09T00:00:00	5:00:00	6:00:00	123	6	114	1800	0.06
13569	CCTV18 ทางขึ้นรัชดาฯ	13.6946177	100.5258639	exat	working	2022-08-09T00:00:00	6:00:00	7:00:00	87	17	369	1800	0.21
13570	CCTV18 ทางขึ้นรัชดาฯ	13.6946177	100.5258639	exat	working	2022-08-09T00:00:00	7:00:00	8:00:00	21	122	1101	1800	0.61
13571	CCTV18 ทางขึ้นรัชดาฯ	13.6946177	100.5258639	exat	working	2022-08-09T00:00:00	8:00:00	9:00:00	87	17	743	1800	0.41
13572	CCTV18 ทางขึ้นรัชดาฯ	13.6946177	100.5258639	exat	working	2022-08-09T00:00:00	9:00:00	10:00:00	85	15	693	1800	0.39
13573	CCTV18 ทางขึ้นรัชดาฯ	13.6946177	100.5258639	exat	working	2022-08-09T00:00:00	10:00:00	11:00:00	84	14	651	1800	0.36
13574	CCTV18 ทางขึ้นรัชดาฯ	13.6946177	100.5258639	exat	working	2022-08-09T00:00:00	11:00:00	12:00:00	87	29	526	1800	0.29
13575	CCTV18 ทางขึ้นรัชดาฯ	13.6946177	100.5258639	exat	working	2022-08-09T00:00:00	12:00:00	13:00:00	84	14	667	1800	0.37
13576	CCTV18 ทางขึ้นรัชดาฯ	13.6946177	100.5258639	exat	working	2022-08-09T00:00:00	13:00:00	14:00:00	85	15	673	1800	0.37
13577	CCTV18 ทางขึ้นรัชดาฯ	13.6946177	100.5258639	exat	working	2022-08-09T00:00:00	14:00:00	15:00:00	85	13	676	1800	0.38
13578	CCTV18 ทางขึ้นรัชดาฯ	13.6946177	100.5258639	exat	working	2022-08-09T00:00:00	15:00:00	16:00:00	85	14	640	1800	0.36
13579	CCTV18 ทางขึ้นรัชดาฯ	13.6946177	100.5258639	exat	working	2022-08-09T00:00:00	16:00:00	17:00:00	81	18	620	1800	0.34
13580	CCTV18 ทางขึ้นรัชดาฯ	13.6946177	100.5258639	exat	working	2022-08-09T00:00:00	17:00:00	18:00:00	87	27	1097	1800	0.61
13581	CCTV18 ทางขึ้นรัชดาฯ	13.6946177	100.5258639	exat	working	2022-08-09T00:00:00	18:00:00	19:00:00	63	31	1463	1800	0.81
13582	CCTV18 ทางขึ้นรัชดาฯ	13.6946177	100.5258639	exat	working	2022-09-09T00:00:00	5:00:00	6:00:00	126	5	133	1800	0.07
13583	CCTV18 ทางขึ้นรัชดาฯ	13.6946177	100.5258639	exat	working	2022-09-09T00:00:00	6:00:00	7:00:00	87	17	381	1800	0.21
13584	CCTV18 ทางขึ้นรัชดาฯ	13.6946177	100.5258639	exat	working	2022-09-09T00:00:00	7:00:00	8:00:00	21	121	1076	1800	0.60
13585	CCTV18 ทางขึ้นรัชดาฯ	13.6946177	100.5258639	exat	working	2022-09-09T00:00:00	8:00:00	9:00:00	87	17	747	1800	0.42
13586	CCTV18 ทางขึ้นรัชดาฯ	13.6946177	100.5258639	exat	working	2022-09-09T00:00:00	9:00:00	10:00:00	84	15	716	1800	0.40
13587	CCTV18 ทางขึ้นรัชดาฯ	13.6946177	100.5258639	exat	working	2022-09-09T00:00:00	10:00:00	11:00:00	82	16	618	1800	0.34
13588	CCTV18 ทางขึ้นรัชดาฯ	13.6946177	100.5258639	exat	working	2022-09-09T00:00:00	11:00:00	12:00:00	87	17	378	1800	0.21
13589	CCTV18 ทางขึ้นรัชดาฯ	13.6946177	100.5258639	exat	working	2022-09-09T00:00:00	12:00:00	13:00:00	83	13	695	1800	0.39
13590	CCTV18 ทางขึ้นรัชดาฯ	13.6946177	100.5258639	exat	working	2022-09-09T00:00:00	13:00:00	14:00:00	86	15	659	1800	0.37
13591	CCTV18 ทางขึ้นรัชดาฯ	13.6946177	100.5258639	exat	working	2022-09-09T00:00:00	14:00:00	15:00:00	85	12	704	1800	0.39
13592	CCTV18 ทางขึ้นรัชดาฯ	13.6946177	100.5258639	exat	working	2022-09-09T00:00:00	15:00:00	16:00:00	84	14	584	1800	0.32
13593	CCTV18 ทางขึ้นรัชดาฯ	13.6946177	100.5258639	exat	working	2022-09-09T00:00:00	16:00:00	17:00:00	75	19	717	1800	0.40
13594	CCTV18 ทางขึ้นรัชดาฯ	13.6946177	100.5258639	exat	working	2022-09-09T00:00:00	17:00:00	18:00:00	87	27	1094	1800	0.61
13595	CCTV18 ทางขึ้นรัชดาฯ	13.6946177	100.5258639	exat	working	2022-09-09T00:00:00	18:00:00	19:00:00	63	31	1457	1800	0.81
13596	CCTV18 ทางขึ้นรัชดาฯ	13.6946177	100.5258639	exat	working	2022-10-09T00:00:00	5:00:00	6:00:00	125	6	56	1800	0.03
13597	CCTV18 ทางขึ้นรัชดาฯ	13.6946177	100.5258639	exat	working	2022-10-09T00:00:00	6:00:00	7:00:00	87	17	182	1800	0.10
13598	CCTV18 ทางขึ้นรัชดาฯ	13.6946177	100.5258639	exat	holiday	2022-10-09T00:00:00	7:00:00	8:00:00	87	57	549	1800	0.31
13599	CCTV18 ทางขึ้นรัชดาฯ	13.6946177	100.5258639	exat	holiday	2022-10-09T00:00:00	8:00:00	9:00:00	87	17	365	1800	0.20
13600	CCTV18 ทางขึ้นรัชดาฯ	13.6946177	100.5258639	exat	working	2022-10-09T00:00:00	9:00:00	10:00:00	82	14	256	1800	0.14
13601	CCTV18 ทางขึ้นรัชดาฯ	13.6946177	100.5258639	exat	working	2022-10-09T00:00:00	10:00:00	11:00:00	82	15	312	1800	0.17
13602	CCTV18 ทางขึ้นรัชดาฯ	13.6946177	100.5258639	exat	holiday	2022-10-09T00:00:00	11:00:00	12:00:00	87	29	731	1800	0.41
13603	CCTV18 ทางขึ้นรัชดาฯ	13.6946177	100.5258639	exat	working	2022-10-09T00:00:00	12:00:00	13:00:00	86	13	232	1800	0.13
13604	CCTV18 ทางขึ้นรัชดาฯ	13.6946177	100.5258639	exat	working	2022-10-09T00:00:00	13:00:00	14:00:00	84	12	310	1800	0.17
13605	CCTV18 ทางขึ้นรัชดาฯ	13.6946177	100.5258639	exat	working	2022-10-09T00:00:00	14:00:00	15:00:00	85	14	252	1800	0.14
13606	CCTV18 ทางขึ้นรัชดาฯ	13.6946177	100.5258639	exat	working	2022-10-09T00:00:00	15:00:00	16:00:00	84	14	313	1800	0.17
13607	CCTV18 ทางขึ้นรัชดาฯ	13.6946177	100.5258639	exat	holiday	2022-10-09T00:00:00	16:00:00	17:00:00	87	18	731	1800	0.41
13608	CCTV18 ทางขึ้นรัชดาฯ	13.6946177	100.5258639	exat	holiday	2022-10-09T00:00:00	17:00:00	18:00:00	87	17	371	1800	0.21
13609	CCTV18 ทางขึ้นรัชดาฯ	13.6946177	100.5258639	exat	working	2022-11-09T00:00:00	5:00:00	6:00:00	73	4	44	1800	0.02
13610	CCTV18 ทางขึ้นรัชดาฯ	13.6946177	100.5258639	exat	working	2022-11-09T00:00:00	6:00:00	7:00:00	52	11	128	1800	0.07
13611	CCTV18 ทางขึ้นรัชดาฯ	13.6946177	100.5258639	exat	holiday	2022-11-09T00:00:00	7:00:00	8:00:00	52	35	329	1800	0.18
13612	CCTV18 ทางขึ้นรัชดาฯ	13.6946177	100.5258639	exat	holiday	2022-11-09T00:00:00	8:00:00	9:00:00	52	11	238	1800	0.13
13613	CCTV18 ทางขึ้นรัชดาฯ	13.6946177	100.5258639	exat	working	2022-11-09T00:00:00	9:00:00	10:00:00	49	9	165	1800	0.09
13614	CCTV18 ทางขึ้นรัชดาฯ	13.6946177	100.5258639	exat	working	2022-11-09T00:00:00	10:00:00	11:00:00	50	9	175	1800	0.10
13615	CCTV18 ทางขึ้นรัชดาฯ	13.6946177	100.5258639	exat	holiday	2022-11-09T00:00:00	11:00:00	12:00:00	52	18	429	1800	0.24
13616	CCTV18 ทางขึ้นรัชดาฯ	13.6946177	100.5258639	exat	working	2022-11-09T00:00:00	12:00:00	13:00:00	52	8	158	1800	0.09
13617	CCTV18 ทางขึ้นรัชดาฯ	13.6946177	100.5258639	exat	working	2022-11-09T00:00:00	13:00:00	14:00:00	50	7	159	1800	0.09
13618	CCTV18 ทางขึ้นรัชดาฯ	13.6946177	100.5258639	exat	working	2022-11-09T00:00:00	14:00:00	15:00:00	51	9	153	1800	0.09
13619	CCTV18 ทางขึ้นรัชดาฯ	13.6946177	100.5258639	exat	working	2022-11-09T00:00:00	15:00:00	16:00:00	51	9	192	1800	0.11
13620	CCTV18 ทางขึ้นรัชดาฯ	13.6946177	100.5258639	exat	holiday	2022-11-09T00:00:00	16:00:00	17:00:00	52	11	459	1800	0.26
13621	CCTV18 ทางขึ้นรัชดาฯ	13.6946177	100.5258639	exat	holiday	2022-11-09T00:00:00	17:00:00	18:00:00	52	11	219	1800	0.12
13622	CCTV09 ทางลงประปา2	13.7029704	100.5185797	exat	working	2022-05-09T00:00:00	5:00:00	6:00:00	46	20	880	2700	0.33
13623	CCTV09 ทางลงประปา2	13.7029704	100.5185797	exat	working	2022-05-09T00:00:00	6:00:00	7:00:00	33	62	2733	2700	1.01
13624	CCTV09 ทางลงประปา2	13.7029704	100.5185797	exat	working	2022-05-09T00:00:00	7:00:00	8:00:00	32	95	5648	2700	2.09
13625	CCTV09 ทางลงประปา2	13.7029704	100.5185797	exat	working	2022-05-09T00:00:00	8:00:00	9:00:00	27	42	2191	2700	0.81
13626	CCTV09 ทางลงประปา2	13.7029704	100.5185797	exat	working	2022-05-09T00:00:00	9:00:00	10:00:00	24	38	2101	2700	0.78
13627	CCTV09 ทางลงประปา2	13.7029704	100.5185797	exat	working	2022-05-09T00:00:00	10:00:00	11:00:00	26	41	2161	2700	0.80
13628	CCTV09 ทางลงประปา2	13.7029704	100.5185797	exat	working	2022-05-09T00:00:00	11:00:00	12:00:00	36	42	3287	2700	1.22
13629	CCTV09 ทางลงประปา2	13.7029704	100.5185797	exat	working	2022-05-09T00:00:00	12:00:00	13:00:00	26	41	2187	2700	0.81
13630	CCTV09 ทางลงประปา2	13.7029704	100.5185797	exat	working	2022-05-09T00:00:00	13:00:00	14:00:00	24	41	2145	2700	0.79
13631	CCTV09 ทางลงประปา2	13.7029704	100.5185797	exat	working	2022-05-09T00:00:00	14:00:00	15:00:00	26	39	2183	2700	0.81
13632	CCTV09 ทางลงประปา2	13.7029704	100.5185797	exat	working	2022-05-09T00:00:00	15:00:00	16:00:00	24	37	2148	2700	0.80
13633	CCTV09 ทางลงประปา2	13.7029704	100.5185797	exat	working	2022-05-09T00:00:00	16:00:00	17:00:00	48	34	2925	2700	1.08
13634	CCTV09 ทางลงประปา2	13.7029704	100.5185797	exat	working	2022-05-09T00:00:00	17:00:00	18:00:00	38	34	2931	2700	1.09
13635	CCTV09 ทางลงประปา2	13.7029704	100.5185797	exat	working	2022-05-09T00:00:00	18:00:00	19:00:00	62	29	1639	2700	0.61
13636	CCTV09 ทางลงประปา2	13.7029704	100.5185797	exat	working	2022-06-09T00:00:00	5:00:00	6:00:00	46	21	930	2700	0.34
13637	CCTV09 ทางลงประปา2	13.7029704	100.5185797	exat	working	2022-06-09T00:00:00	6:00:00	7:00:00	33	62	2718	2700	1.01
13638	CCTV09 ทางลงประปา2	13.7029704	100.5185797	exat	working	2022-06-09T00:00:00	7:00:00	8:00:00	32	95	5637	2700	2.09
13639	CCTV09 ทางลงประปา2	13.7029704	100.5185797	exat	working	2022-06-09T00:00:00	8:00:00	9:00:00	27	42	2180	2700	0.81
13640	CCTV09 ทางลงประปา2	13.7029704	100.5185797	exat	working	2022-06-09T00:00:00	9:00:00	10:00:00	25	39	2091	2700	0.77
13641	CCTV09 ทางลงประปา2	13.7029704	100.5185797	exat	working	2022-06-09T00:00:00	10:00:00	11:00:00	25	41	2153	2700	0.80
13642	CCTV09 ทางลงประปา2	13.7029704	100.5185797	exat	working	2022-06-09T00:00:00	11:00:00	12:00:00	33	38	2830	2700	1.05
13643	CCTV09 ทางลงประปา2	13.7029704	100.5185797	exat	working	2022-06-09T00:00:00	12:00:00	13:00:00	26	39	2123	2700	0.79
13644	CCTV09 ทางลงประปา2	13.7029704	100.5185797	exat	working	2022-06-09T00:00:00	13:00:00	14:00:00	24	41	2124	2700	0.79
13645	CCTV09 ทางลงประปา2	13.7029704	100.5185797	exat	working	2022-06-09T00:00:00	14:00:00	15:00:00	26	40	2126	2700	0.79
13646	CCTV09 ทางลงประปา2	13.7029704	100.5185797	exat	working	2022-06-09T00:00:00	15:00:00	16:00:00	23	38	2130	2700	0.79
13647	CCTV09 ทางลงประปา2	13.7029704	100.5185797	exat	working	2022-06-09T00:00:00	16:00:00	17:00:00	39	43	2287	2700	0.85
13648	CCTV09 ทางลงประปา2	13.7029704	100.5185797	exat	working	2022-06-09T00:00:00	17:00:00	18:00:00	37	46	2479	2700	0.92
13649	CCTV09 ทางลงประปา2	13.7029704	100.5185797	exat	working	2022-06-09T00:00:00	18:00:00	19:00:00	43	43	2011	2700	0.74
13650	CCTV09 ทางลงประปา2	13.7029704	100.5185797	exat	working	2022-07-09T00:00:00	5:00:00	6:00:00	47	21	917	2700	0.34
13651	CCTV09 ทางลงประปา2	13.7029704	100.5185797	exat	working	2022-07-09T00:00:00	6:00:00	7:00:00	33	62	2727	2700	1.01
13652	CCTV09 ทางลงประปา2	13.7029704	100.5185797	exat	working	2022-07-09T00:00:00	7:00:00	8:00:00	32	95	5654	2700	2.09
13653	CCTV09 ทางลงประปา2	13.7029704	100.5185797	exat	working	2022-07-09T00:00:00	8:00:00	9:00:00	27	42	2183	2700	0.81
13654	CCTV09 ทางลงประปา2	13.7029704	100.5185797	exat	working	2022-07-09T00:00:00	9:00:00	10:00:00	26	40	2078	2700	0.77
13655	CCTV09 ทางลงประปา2	13.7029704	100.5185797	exat	working	2022-07-09T00:00:00	10:00:00	11:00:00	24	41	2202	2700	0.82
13656	CCTV09 ทางลงประปา2	13.7029704	100.5185797	exat	working	2022-07-09T00:00:00	11:00:00	12:00:00	29	35	2383	2700	0.88
13657	CCTV09 ทางลงประปา2	13.7029704	100.5185797	exat	working	2022-07-09T00:00:00	12:00:00	13:00:00	25	37	2067	2700	0.77
13658	CCTV09 ทางลงประปา2	13.7029704	100.5185797	exat	working	2022-07-09T00:00:00	13:00:00	14:00:00	24	40	2109	2700	0.78
13659	CCTV09 ทางลงประปา2	13.7029704	100.5185797	exat	working	2022-07-09T00:00:00	14:00:00	15:00:00	26	41	2120	2700	0.79
13660	CCTV09 ทางลงประปา2	13.7029704	100.5185797	exat	working	2022-07-09T00:00:00	15:00:00	16:00:00	23	40	2108	2700	0.78
13661	CCTV09 ทางลงประปา2	13.7029704	100.5185797	exat	working	2022-07-09T00:00:00	16:00:00	17:00:00	29	51	1644	2700	0.61
13662	CCTV09 ทางลงประปา2	13.7029704	100.5185797	exat	working	2022-07-09T00:00:00	17:00:00	18:00:00	36	58	1998	2700	0.74
13663	CCTV09 ทางลงประปา2	13.7029704	100.5185797	exat	working	2022-07-09T00:00:00	18:00:00	19:00:00	25	58	2364	2700	0.88
13664	CCTV09 ทางลงประปา2	13.7029704	100.5185797	exat	working	2022-08-09T00:00:00	5:00:00	6:00:00	56	19	1126	2700	0.42
13665	CCTV09 ทางลงประปา2	13.7029704	100.5185797	exat	working	2022-08-09T00:00:00	6:00:00	7:00:00	40	58	3449	2700	1.28
13666	CCTV09 ทางลงประปา2	13.7029704	100.5185797	exat	working	2022-08-09T00:00:00	7:00:00	8:00:00	39	72	4812	2700	1.78
13667	CCTV09 ทางลงประปา2	13.7029704	100.5185797	exat	working	2022-08-09T00:00:00	8:00:00	9:00:00	39	46	3379	2700	1.25
13668	CCTV09 ทางลงประปา2	13.7029704	100.5185797	exat	working	2022-08-09T00:00:00	9:00:00	10:00:00	38	43	3270	2700	1.21
13669	CCTV09 ทางลงประปา2	13.7029704	100.5185797	exat	working	2022-08-09T00:00:00	10:00:00	11:00:00	35	45	3321	2700	1.23
13670	CCTV09 ทางลงประปา2	13.7029704	100.5185797	exat	working	2022-08-09T00:00:00	11:00:00	12:00:00	40	35	2549	2700	0.94
13671	CCTV09 ทางลงประปา2	13.7029704	100.5185797	exat	working	2022-08-09T00:00:00	12:00:00	13:00:00	35	42	3286	2700	1.22
13672	CCTV09 ทางลงประปา2	13.7029704	100.5185797	exat	working	2022-08-09T00:00:00	13:00:00	14:00:00	37	43	3309	2700	1.23
13673	CCTV09 ทางลงประปา2	13.7029704	100.5185797	exat	working	2022-08-09T00:00:00	14:00:00	15:00:00	38	44	3258	2700	1.21
13674	CCTV09 ทางลงประปา2	13.7029704	100.5185797	exat	working	2022-08-09T00:00:00	15:00:00	16:00:00	34	42	3305	2700	1.22
13675	CCTV09 ทางลงประปา2	13.7029704	100.5185797	exat	working	2022-08-09T00:00:00	16:00:00	17:00:00	33	68	2728	2700	1.01
13676	CCTV09 ทางลงประปา2	13.7029704	100.5185797	exat	working	2022-08-09T00:00:00	17:00:00	18:00:00	33	52	2458	2700	0.91
13677	CCTV09 ทางลงประปา2	13.7029704	100.5185797	exat	working	2022-08-09T00:00:00	18:00:00	19:00:00	28	60	2622	2700	0.97
13678	CCTV09 ทางลงประปา2	13.7029704	100.5185797	exat	working	2022-09-09T00:00:00	5:00:00	6:00:00	66	17	1436	2700	0.53
13679	CCTV09 ทางลงประปา2	13.7029704	100.5185797	exat	working	2022-09-09T00:00:00	6:00:00	7:00:00	47	55	4214	2700	1.56
13680	CCTV09 ทางลงประปา2	13.7029704	100.5185797	exat	working	2022-09-09T00:00:00	7:00:00	8:00:00	45	49	4024	2700	1.49
13681	CCTV09 ทางลงประปา2	13.7029704	100.5185797	exat	working	2022-09-09T00:00:00	8:00:00	9:00:00	51	51	4556	2700	1.69
13682	CCTV09 ทางลงประปา2	13.7029704	100.5185797	exat	working	2022-09-09T00:00:00	9:00:00	10:00:00	49	46	4456	2700	1.65
13683	CCTV09 ทางลงประปา2	13.7029704	100.5185797	exat	working	2022-09-09T00:00:00	10:00:00	11:00:00	46	48	4461	2700	1.65
13684	CCTV09 ทางลงประปา2	13.7029704	100.5185797	exat	working	2022-09-09T00:00:00	11:00:00	12:00:00	52	35	2723	2700	1.01
13685	CCTV09 ทางลงประปา2	13.7029704	100.5185797	exat	working	2022-09-09T00:00:00	12:00:00	13:00:00	46	47	4490	2700	1.66
13686	CCTV09 ทางลงประปา2	13.7029704	100.5185797	exat	working	2022-09-09T00:00:00	13:00:00	14:00:00	50	47	4487	2700	1.66
13687	CCTV09 ทางลงประปา2	13.7029704	100.5185797	exat	working	2022-09-09T00:00:00	14:00:00	15:00:00	49	47	4425	2700	1.64
13688	CCTV09 ทางลงประปา2	13.7029704	100.5185797	exat	working	2022-09-09T00:00:00	15:00:00	16:00:00	46	45	4489	2700	1.66
13689	CCTV09 ทางลงประปา2	13.7029704	100.5185797	exat	working	2022-09-09T00:00:00	16:00:00	17:00:00	36	84	3850	2700	1.43
13690	CCTV09 ทางลงประปา2	13.7029704	100.5185797	exat	working	2022-09-09T00:00:00	17:00:00	18:00:00	30	47	2946	2700	1.09
13691	CCTV09 ทางลงประปา2	13.7029704	100.5185797	exat	working	2022-09-09T00:00:00	18:00:00	19:00:00	31	62	2918	2700	1.08
13692	CCTV09 ทางลงประปา2	13.7029704	100.5185797	exat	working	2022-10-09T00:00:00	5:00:00	6:00:00	59	12	661	2700	0.24
13693	CCTV09 ทางลงประปา2	13.7029704	100.5185797	exat	holiday	2022-10-09T00:00:00	6:00:00	7:00:00	42	34	1995	2700	0.74
13694	CCTV09 ทางลงประปา2	13.7029704	100.5185797	exat	holiday	2022-10-09T00:00:00	7:00:00	8:00:00	31	41	2005	2700	0.74
13695	CCTV09 ทางลงประปา2	13.7029704	100.5185797	exat	holiday	2022-10-09T00:00:00	8:00:00	9:00:00	32	73	4180	2700	1.55
13696	CCTV09 ทางลงประปา2	13.7029704	100.5185797	exat	working	2022-10-09T00:00:00	9:00:00	10:00:00	29	70	4038	2700	1.50
13697	CCTV09 ทางลงประปา2	13.7029704	100.5185797	exat	working	2022-10-09T00:00:00	10:00:00	11:00:00	29	71	4047	2700	1.50
13698	CCTV09 ทางลงประปา2	13.7029704	100.5185797	exat	holiday	2022-10-09T00:00:00	11:00:00	12:00:00	38	82	4902	2700	1.82
13699	CCTV09 ทางลงประปา2	13.7029704	100.5185797	exat	working	2022-10-09T00:00:00	12:00:00	13:00:00	31	71	4081	2700	1.51
13700	CCTV09 ทางลงประปา2	13.7029704	100.5185797	exat	working	2022-10-09T00:00:00	13:00:00	14:00:00	27	70	4153	2700	1.54
13701	CCTV09 ทางลงประปา2	13.7029704	100.5185797	exat	working	2022-10-09T00:00:00	14:00:00	15:00:00	29	68	4108	2700	1.52
13702	CCTV09 ทางลงประปา2	13.7029704	100.5185797	exat	working	2022-10-09T00:00:00	15:00:00	16:00:00	28	71	4170	2700	1.54
13703	CCTV09 ทางลงประปา2	13.7029704	100.5185797	exat	holiday	2022-10-09T00:00:00	16:00:00	17:00:00	26	99	4550	2700	1.69
13704	CCTV09 ทางลงประปา2	13.7029704	100.5185797	exat	holiday	2022-10-09T00:00:00	17:00:00	18:00:00	39	61	2905	2700	1.08
13705	CCTV09 ทางลงประปา2	13.7029704	100.5185797	exat	holiday	2022-10-09T00:00:00	18:00:00	19:00:00	31	18	536	2700	0.20
13706	CCTV09 ทางลงประปา2	13.7029704	100.5185797	exat	working	2022-11-09T00:00:00	5:00:00	6:00:00	37	7	376	2700	0.14
13707	CCTV09 ทางลงประปา2	13.7029704	100.5185797	exat	holiday	2022-11-09T00:00:00	6:00:00	7:00:00	26	20	1207	2700	0.45
13708	CCTV09 ทางลงประปา2	13.7029704	100.5185797	exat	holiday	2022-11-09T00:00:00	7:00:00	8:00:00	19	121	1198	2700	0.44
13709	CCTV09 ทางลงประปา2	13.7029704	100.5185797	exat	holiday	2022-11-09T00:00:00	8:00:00	9:00:00	19	121	2532	2700	0.94
13710	CCTV09 ทางลงประปา2	13.7029704	100.5185797	exat	working	2022-11-09T00:00:00	9:00:00	10:00:00	17	121	2441	2700	0.90
13711	CCTV09 ทางลงประปา2	13.7029704	100.5185797	exat	working	2022-11-09T00:00:00	10:00:00	11:00:00	17	121	2407	2700	0.89
13712	CCTV09 ทางลงประปา2	13.7029704	100.5185797	exat	holiday	2022-11-09T00:00:00	11:00:00	12:00:00	23	50	2964	2700	1.10
13713	CCTV09 ทางลงประปา2	13.7029704	100.5185797	exat	working	2022-11-09T00:00:00	12:00:00	13:00:00	19	121	2459	2700	0.91
13714	CCTV09 ทางลงประปา2	13.7029704	100.5185797	exat	working	2022-11-09T00:00:00	13:00:00	14:00:00	16	121	2496	2700	0.92
13715	CCTV09 ทางลงประปา2	13.7029704	100.5185797	exat	working	2022-11-09T00:00:00	14:00:00	15:00:00	18	121	2470	2700	0.91
13716	CCTV09 ทางลงประปา2	13.7029704	100.5185797	exat	working	2022-11-09T00:00:00	15:00:00	16:00:00	17	121	2522	2700	0.93
13717	CCTV09 ทางลงประปา2	13.7029704	100.5185797	exat	holiday	2022-11-09T00:00:00	16:00:00	17:00:00	16	121	2748	2700	1.02
13718	CCTV09 ทางลงประปา2	13.7029704	100.5185797	exat	holiday	2022-11-09T00:00:00	17:00:00	18:00:00	24	37	1763	2700	0.65
13719	CCTV09 ทางลงประปา2	13.7029704	100.5185797	exat	holiday	2022-11-09T00:00:00	18:00:00	19:00:00	19	121	322	2700	0.12
13720	CCTV37 ทางลงถ.จันทน์	13.7569958	100.5496269	exat	working	2022-05-09T00:00:00	5:00:00	6:00:00	123	6	536	1800	0.30
13721	CCTV37 ทางลงถ.จันทน์	13.7569958	100.5496269	exat	working	2022-05-09T00:00:00	6:00:00	7:00:00	87	18	1643	1800	0.91
13722	CCTV37 ทางลงถ.จันทน์	13.7569958	100.5496269	exat	working	2022-05-09T00:00:00	7:00:00	8:00:00	87	16	2356	1800	1.31
13723	CCTV37 ทางลงถ.จันทน์	13.7569958	100.5496269	exat	working	2022-05-09T00:00:00	8:00:00	9:00:00	87	14	1837	1800	1.02
13724	CCTV37 ทางลงถ.จันทน์	13.7569958	100.5496269	exat	working	2022-05-09T00:00:00	9:00:00	10:00:00	85	12	1674	1800	0.93
13725	CCTV37 ทางลงถ.จันทน์	13.7569958	100.5496269	exat	working	2022-05-09T00:00:00	10:00:00	11:00:00	87	11	1653	1800	0.92
13726	CCTV37 ทางลงถ.จันทน์	13.7569958	100.5496269	exat	working	2022-05-09T00:00:00	11:00:00	12:00:00	57	74	4950	1800	2.75
13727	CCTV37 ทางลงถ.จันทน์	13.7569958	100.5496269	exat	working	2022-05-09T00:00:00	12:00:00	13:00:00	84	10	1734	1800	0.96
13728	CCTV37 ทางลงถ.จันทน์	13.7569958	100.5496269	exat	working	2022-05-09T00:00:00	13:00:00	14:00:00	86	8	1765	1800	0.98
13729	CCTV37 ทางลงถ.จันทน์	13.7569958	100.5496269	exat	working	2022-05-09T00:00:00	14:00:00	15:00:00	86	11	1789	1800	0.99
13730	CCTV37 ทางลงถ.จันทน์	13.7569958	100.5496269	exat	working	2022-05-09T00:00:00	15:00:00	16:00:00	86	13	1810	1800	1.01
13731	CCTV37 ทางลงถ.จันทน์	13.7569958	100.5496269	exat	working	2022-05-09T00:00:00	16:00:00	17:00:00	24	181	3635	1800	2.02
13732	CCTV37 ทางลงถ.จันทน์	13.7569958	100.5496269	exat	working	2022-05-09T00:00:00	17:00:00	18:00:00	11	121	3738	1800	2.08
13733	CCTV37 ทางลงถ.จันทน์	13.7569958	100.5496269	exat	working	2022-05-09T00:00:00	18:00:00	19:00:00	25	181	4278	1800	2.38
13734	CCTV37 ทางลงถ.จันทน์	13.7569958	100.5496269	exat	working	2022-06-09T00:00:00	5:00:00	6:00:00	124	6	559	1800	0.31
13735	CCTV37 ทางลงถ.จันทน์	13.7569958	100.5496269	exat	working	2022-06-09T00:00:00	6:00:00	7:00:00	87	18	1620	1800	0.90
13736	CCTV37 ทางลงถ.จันทน์	13.7569958	100.5496269	exat	working	2022-06-09T00:00:00	7:00:00	8:00:00	87	16	2360	1800	1.31
13737	CCTV37 ทางลงถ.จันทน์	13.7569958	100.5496269	exat	working	2022-06-09T00:00:00	8:00:00	9:00:00	87	14	1833	1800	1.02
13738	CCTV37 ทางลงถ.จันทน์	13.7569958	100.5496269	exat	working	2022-06-09T00:00:00	9:00:00	10:00:00	85	11	1683	1800	0.94
13739	CCTV37 ทางลงถ.จันทน์	13.7569958	100.5496269	exat	working	2022-06-09T00:00:00	10:00:00	11:00:00	87	12	1709	1800	0.95
13740	CCTV37 ทางลงถ.จันทน์	13.7569958	100.5496269	exat	working	2022-06-09T00:00:00	11:00:00	12:00:00	72	46	4238	1800	2.35
13741	CCTV37 ทางลงถ.จันทน์	13.7569958	100.5496269	exat	working	2022-06-09T00:00:00	12:00:00	13:00:00	85	11	1771	1800	0.98
13742	CCTV37 ทางลงถ.จันทน์	13.7569958	100.5496269	exat	working	2022-06-09T00:00:00	13:00:00	14:00:00	85	10	1770	1800	0.98
13743	CCTV37 ทางลงถ.จันทน์	13.7569958	100.5496269	exat	working	2022-06-09T00:00:00	14:00:00	15:00:00	85	9	1764	1800	0.98
13744	CCTV37 ทางลงถ.จันทน์	13.7569958	100.5496269	exat	working	2022-06-09T00:00:00	15:00:00	16:00:00	85	11	1807	1800	1.00
13745	CCTV37 ทางลงถ.จันทน์	13.7569958	100.5496269	exat	working	2022-06-09T00:00:00	16:00:00	17:00:00	45	126	3186	1800	1.77
13746	CCTV37 ทางลงถ.จันทน์	13.7569958	100.5496269	exat	working	2022-06-09T00:00:00	17:00:00	18:00:00	39	111	3742	1800	2.08
13747	CCTV37 ทางลงถ.จันทน์	13.7569958	100.5496269	exat	working	2022-06-09T00:00:00	18:00:00	19:00:00	56	97	2571	1800	1.43
13748	CCTV37 ทางลงถ.จันทน์	13.7569958	100.5496269	exat	working	2022-07-09T00:00:00	5:00:00	6:00:00	125	6	504	1800	0.28
13749	CCTV37 ทางลงถ.จันทน์	13.7569958	100.5496269	exat	working	2022-07-09T00:00:00	6:00:00	7:00:00	87	18	1650	1800	0.92
13750	CCTV37 ทางลงถ.จันทน์	13.7569958	100.5496269	exat	working	2022-07-09T00:00:00	7:00:00	8:00:00	87	16	2362	1800	1.31
13751	CCTV37 ทางลงถ.จันทน์	13.7569958	100.5496269	exat	working	2022-07-09T00:00:00	8:00:00	9:00:00	87	14	1806	1800	1.00
13752	CCTV37 ทางลงถ.จันทน์	13.7569958	100.5496269	exat	working	2022-07-09T00:00:00	9:00:00	10:00:00	86	10	1704	1800	0.95
13753	CCTV37 ทางลงถ.จันทน์	13.7569958	100.5496269	exat	working	2022-07-09T00:00:00	10:00:00	11:00:00	86	13	1710	1800	0.95
13754	CCTV37 ทางลงถ.จันทน์	13.7569958	100.5496269	exat	working	2022-07-09T00:00:00	11:00:00	12:00:00	87	17	3417	1800	1.90
13755	CCTV37 ทางลงถ.จันทน์	13.7569958	100.5496269	exat	working	2022-07-09T00:00:00	12:00:00	13:00:00	86	13	1801	1800	1.00
13756	CCTV37 ทางลงถ.จันทน์	13.7569958	100.5496269	exat	working	2022-07-09T00:00:00	13:00:00	14:00:00	84	13	1767	1800	0.98
13757	CCTV37 ทางลงถ.จันทน์	13.7569958	100.5496269	exat	working	2022-07-09T00:00:00	14:00:00	15:00:00	84	8	1715	1800	0.95
13758	CCTV37 ทางลงถ.จันทน์	13.7569958	100.5496269	exat	working	2022-07-09T00:00:00	15:00:00	16:00:00	84	10	1836	1800	1.02
13759	CCTV37 ทางลงถ.จันทน์	13.7569958	100.5496269	exat	working	2022-07-09T00:00:00	16:00:00	17:00:00	67	70	2751	1800	1.53
13760	CCTV37 ทางลงถ.จันทน์	13.7569958	100.5496269	exat	working	2022-07-09T00:00:00	17:00:00	18:00:00	68	41	3862	1800	2.15
13761	CCTV37 ทางลงถ.จันทน์	13.7569958	100.5496269	exat	working	2022-07-09T00:00:00	18:00:00	19:00:00	87	13	918	1800	0.51
13762	CCTV37 ทางลงถ.จันทน์	13.7569958	100.5496269	exat	working	2022-08-09T00:00:00	5:00:00	6:00:00	112	5	567	1800	0.32
13763	CCTV37 ทางลงถ.จันทน์	13.7569958	100.5496269	exat	working	2022-08-09T00:00:00	6:00:00	7:00:00	79	16	1622	1800	0.90
13764	CCTV37 ทางลงถ.จันทน์	13.7569958	100.5496269	exat	working	2022-08-09T00:00:00	7:00:00	8:00:00	87	29	2100	1800	1.17
13765	CCTV37 ทางลงถ.จันทน์	13.7569958	100.5496269	exat	working	2022-08-09T00:00:00	8:00:00	9:00:00	87	18	2742	1800	1.52
13766	CCTV37 ทางลงถ.จันทน์	13.7569958	100.5496269	exat	working	2022-08-09T00:00:00	9:00:00	10:00:00	86	14	2650	1800	1.47
13767	CCTV37 ทางลงถ.จันทน์	13.7569958	100.5496269	exat	working	2022-08-09T00:00:00	10:00:00	11:00:00	84	16	2654	1800	1.47
13768	CCTV37 ทางลงถ.จันทน์	13.7569958	100.5496269	exat	working	2022-08-09T00:00:00	11:00:00	12:00:00	87	22	2831	1800	1.57
13769	CCTV37 ทางลงถ.จันทน์	13.7569958	100.5496269	exat	working	2022-08-09T00:00:00	12:00:00	13:00:00	86	15	2685	1800	1.49
13770	CCTV37 ทางลงถ.จันทน์	13.7569958	100.5496269	exat	working	2022-08-09T00:00:00	13:00:00	14:00:00	84	15	2639	1800	1.47
13771	CCTV37 ทางลงถ.จันทน์	13.7569958	100.5496269	exat	working	2022-08-09T00:00:00	14:00:00	15:00:00	84	14	2678	1800	1.49
13772	CCTV37 ทางลงถ.จันทน์	13.7569958	100.5496269	exat	working	2022-08-09T00:00:00	15:00:00	16:00:00	84	13	2649	1800	1.47
13773	CCTV37 ทางลงถ.จันทน์	13.7569958	100.5496269	exat	working	2022-08-09T00:00:00	16:00:00	17:00:00	52	67	2640	1800	1.47
13774	CCTV37 ทางลงถ.จันทน์	13.7569958	100.5496269	exat	working	2022-08-09T00:00:00	17:00:00	18:00:00	63	62	3371	1800	1.87
13775	CCTV37 ทางลงถ.จันทน์	13.7569958	100.5496269	exat	working	2022-08-09T00:00:00	18:00:00	19:00:00	71	37	2095	1800	1.16
13776	CCTV37 ทางลงถ.จันทน์	13.7569958	100.5496269	exat	working	2022-09-09T00:00:00	5:00:00	6:00:00	102	5	566	1800	0.31
13777	CCTV37 ทางลงถ.จันทน์	13.7569958	100.5496269	exat	working	2022-09-09T00:00:00	6:00:00	7:00:00	71	14	1625	1800	0.90
13778	CCTV37 ทางลงถ.จันทน์	13.7569958	100.5496269	exat	working	2022-09-09T00:00:00	7:00:00	8:00:00	87	41	1825	1800	1.01
13779	CCTV37 ทางลงถ.จันทน์	13.7569958	100.5496269	exat	working	2022-09-09T00:00:00	8:00:00	9:00:00	87	22	3673	1800	2.04
13780	CCTV37 ทางลงถ.จันทน์	13.7569958	100.5496269	exat	working	2022-09-09T00:00:00	9:00:00	10:00:00	86	18	3607	1800	2.00
13781	CCTV37 ทางลงถ.จันทน์	13.7569958	100.5496269	exat	working	2022-09-09T00:00:00	10:00:00	11:00:00	82	18	3602	1800	2.00
13782	CCTV37 ทางลงถ.จันทน์	13.7569958	100.5496269	exat	working	2022-09-09T00:00:00	11:00:00	12:00:00	87	26	2190	1800	1.22
13783	CCTV37 ทางลงถ.จันทน์	13.7569958	100.5496269	exat	working	2022-09-09T00:00:00	12:00:00	13:00:00	86	18	3561	1800	1.98
13784	CCTV37 ทางลงถ.จันทน์	13.7569958	100.5496269	exat	working	2022-09-09T00:00:00	13:00:00	14:00:00	83	18	3518	1800	1.95
13785	CCTV37 ทางลงถ.จันทน์	13.7569958	100.5496269	exat	working	2022-09-09T00:00:00	14:00:00	15:00:00	83	20	3637	1800	2.02
13786	CCTV37 ทางลงถ.จันทน์	13.7569958	100.5496269	exat	working	2022-09-09T00:00:00	15:00:00	16:00:00	84	17	3567	1800	1.98
13787	CCTV37 ทางลงถ.จันทน์	13.7569958	100.5496269	exat	working	2022-09-09T00:00:00	16:00:00	17:00:00	36	65	2546	1800	1.41
13788	CCTV37 ทางลงถ.จันทน์	13.7569958	100.5496269	exat	working	2022-09-09T00:00:00	17:00:00	18:00:00	58	82	2908	1800	1.62
13789	CCTV37 ทางลงถ.จันทน์	13.7569958	100.5496269	exat	working	2022-09-09T00:00:00	18:00:00	19:00:00	56	62	3303	1800	1.84
13790	CCTV37 ทางลงถ.จันทน์	13.7569958	100.5496269	exat	working	2022-10-09T00:00:00	5:00:00	6:00:00	122	9	935	1800	0.52
13791	CCTV37 ทางลงถ.จันทน์	13.7569958	100.5496269	exat	holiday	2022-10-09T00:00:00	6:00:00	7:00:00	87	26	2925	1800	1.63
13792	CCTV37 ทางลงถ.จันทน์	13.7569958	100.5496269	exat	holiday	2022-10-09T00:00:00	7:00:00	8:00:00	87	23	1842	1800	1.02
13793	CCTV37 ทางลงถ.จันทน์	13.7569958	100.5496269	exat	holiday	2022-10-09T00:00:00	8:00:00	9:00:00	87	28	2746	1800	1.53
13794	CCTV37 ทางลงถ.จันทน์	13.7569958	100.5496269	exat	working	2022-10-09T00:00:00	9:00:00	10:00:00	82	25	2636	1800	1.46
13795	CCTV37 ทางลงถ.จันทน์	13.7569958	100.5496269	exat	working	2022-10-09T00:00:00	10:00:00	11:00:00	83	26	2627	1800	1.46
13796	CCTV37 ทางลงถ.จันทน์	13.7569958	100.5496269	exat	holiday	2022-10-09T00:00:00	11:00:00	12:00:00	71	26	2742	1800	1.52
13797	CCTV37 ทางลงถ.จันทน์	13.7569958	100.5496269	exat	working	2022-10-09T00:00:00	12:00:00	13:00:00	86	26	2607	1800	1.45
13798	CCTV37 ทางลงถ.จันทน์	13.7569958	100.5496269	exat	working	2022-10-09T00:00:00	13:00:00	14:00:00	85	26	2590	1800	1.44
13799	CCTV37 ทางลงถ.จันทน์	13.7569958	100.5496269	exat	working	2022-10-09T00:00:00	14:00:00	15:00:00	85	25	2664	1800	1.48
13800	CCTV37 ทางลงถ.จันทน์	13.7569958	100.5496269	exat	working	2022-10-09T00:00:00	15:00:00	16:00:00	83	24	2618	1800	1.45
13801	CCTV37 ทางลงถ.จันทน์	13.7569958	100.5496269	exat	holiday	2022-10-09T00:00:00	16:00:00	17:00:00	34	71	1639	1800	0.91
13802	CCTV37 ทางลงถ.จันทน์	13.7569958	100.5496269	exat	holiday	2022-10-09T00:00:00	17:00:00	18:00:00	56	47	2732	1800	1.52
13803	CCTV37 ทางลงถ.จันทน์	13.7569958	100.5496269	exat	holiday	2022-10-09T00:00:00	18:00:00	19:00:00	33	48	2543	1800	1.41
13804	CCTV37 ทางลงถ.จันทน์	13.7569958	100.5496269	exat	working	2022-11-09T00:00:00	5:00:00	6:00:00	73	5	593	1800	0.33
13805	CCTV37 ทางลงถ.จันทน์	13.7569958	100.5496269	exat	holiday	2022-11-09T00:00:00	6:00:00	7:00:00	52	16	1748	1800	0.97
13806	CCTV37 ทางลงถ.จันทน์	13.7569958	100.5496269	exat	holiday	2022-11-09T00:00:00	7:00:00	8:00:00	52	14	1087	1800	0.60
13807	CCTV37 ทางลงถ.จันทน์	13.7569958	100.5496269	exat	holiday	2022-11-09T00:00:00	8:00:00	9:00:00	52	17	1624	1800	0.90
13808	CCTV37 ทางลงถ.จันทน์	13.7569958	100.5496269	exat	working	2022-11-09T00:00:00	9:00:00	10:00:00	49	15	1580	1800	0.88
13809	CCTV37 ทางลงถ.จันทน์	13.7569958	100.5496269	exat	working	2022-11-09T00:00:00	10:00:00	11:00:00	50	16	1565	1800	0.87
13810	CCTV37 ทางลงถ.จันทน์	13.7569958	100.5496269	exat	holiday	2022-11-09T00:00:00	11:00:00	12:00:00	43	16	1633	1800	0.91
13811	CCTV37 ทางลงถ.จันทน์	13.7569958	100.5496269	exat	working	2022-11-09T00:00:00	12:00:00	13:00:00	52	16	1563	1800	0.87
13812	CCTV37 ทางลงถ.จันทน์	13.7569958	100.5496269	exat	working	2022-11-09T00:00:00	13:00:00	14:00:00	51	16	1567	1800	0.87
13813	CCTV37 ทางลงถ.จันทน์	13.7569958	100.5496269	exat	working	2022-11-09T00:00:00	14:00:00	15:00:00	51	15	1620	1800	0.90
13814	CCTV37 ทางลงถ.จันทน์	13.7569958	100.5496269	exat	working	2022-11-09T00:00:00	15:00:00	16:00:00	50	14	1580	1800	0.88
13815	CCTV37 ทางลงถ.จันทน์	13.7569958	100.5496269	exat	holiday	2022-11-09T00:00:00	16:00:00	17:00:00	20	121	986	1800	0.55
13816	CCTV37 ทางลงถ.จันทน์	13.7569958	100.5496269	exat	holiday	2022-11-09T00:00:00	17:00:00	18:00:00	34	29	1648	1800	0.92
13817	CCTV37 ทางลงถ.จันทน์	13.7569958	100.5496269	exat	holiday	2022-11-09T00:00:00	18:00:00	19:00:00	20	121	1536	1800	0.85
13818	CCTV08 ต่างระดับพญาไท (บางโคล่)	13.8927413	100.541133	exat	working	2022-05-09T00:00:00	5:00:00	6:00:00	84	14	1239	2700	0.46
13819	CCTV08 ต่างระดับพญาไท (บางโคล่)	13.8927413	100.541133	exat	working	2022-05-09T00:00:00	6:00:00	7:00:00	59	44	4019	2700	1.49
13820	CCTV08 ต่างระดับพญาไท (บางโคล่)	13.8927413	100.541133	exat	working	2022-05-09T00:00:00	7:00:00	8:00:00	64	19	1100	2700	0.41
13821	CCTV08 ต่างระดับพญาไท (บางโคล่)	13.8927413	100.541133	exat	working	2022-05-09T00:00:00	8:00:00	9:00:00	68	31	1104	2700	0.41
13822	CCTV08 ต่างระดับพญาไท (บางโคล่)	13.8927413	100.541133	exat	working	2022-05-09T00:00:00	9:00:00	10:00:00	67	29	1036	2700	0.38
13823	CCTV08 ต่างระดับพญาไท (บางโคล่)	13.8927413	100.541133	exat	working	2022-05-09T00:00:00	10:00:00	11:00:00	65	29	984	2700	0.36
13824	CCTV08 ต่างระดับพญาไท (บางโคล่)	13.8927413	100.541133	exat	working	2022-05-09T00:00:00	11:00:00	12:00:00	66	25	1829	2700	0.68
13825	CCTV08 ต่างระดับพญาไท (บางโคล่)	13.8927413	100.541133	exat	working	2022-05-09T00:00:00	12:00:00	13:00:00	65	30	1018	2700	0.38
13826	CCTV08 ต่างระดับพญาไท (บางโคล่)	13.8927413	100.541133	exat	working	2022-05-09T00:00:00	13:00:00	14:00:00	65	30	1089	2700	0.40
13827	CCTV08 ต่างระดับพญาไท (บางโคล่)	13.8927413	100.541133	exat	working	2022-05-09T00:00:00	14:00:00	15:00:00	64	27	1007	2700	0.37
13828	CCTV08 ต่างระดับพญาไท (บางโคล่)	13.8927413	100.541133	exat	working	2022-05-09T00:00:00	15:00:00	16:00:00	66	26	1055	2700	0.39
13829	CCTV08 ต่างระดับพญาไท (บางโคล่)	13.8927413	100.541133	exat	working	2022-05-09T00:00:00	16:00:00	17:00:00	69	29	2568	2700	0.95
13830	CCTV08 ต่างระดับพญาไท (บางโคล่)	13.8927413	100.541133	exat	working	2022-05-09T00:00:00	17:00:00	18:00:00	72	20	727	2700	0.27
13831	CCTV08 ต่างระดับพญาไท (บางโคล่)	13.8927413	100.541133	exat	working	2022-05-09T00:00:00	18:00:00	19:00:00	66	39	2179	2700	0.81
13832	CCTV08 ต่างระดับพญาไท (บางโคล่)	13.8927413	100.541133	exat	working	2022-06-09T00:00:00	5:00:00	6:00:00	83	14	1250	2700	0.46
13833	CCTV08 ต่างระดับพญาไท (บางโคล่)	13.8927413	100.541133	exat	working	2022-06-09T00:00:00	6:00:00	7:00:00	59	44	4006	2700	1.48
13834	CCTV08 ต่างระดับพญาไท (บางโคล่)	13.8927413	100.541133	exat	working	2022-06-09T00:00:00	7:00:00	8:00:00	64	19	1077	2700	0.40
13835	CCTV08 ต่างระดับพญาไท (บางโคล่)	13.8927413	100.541133	exat	working	2022-06-09T00:00:00	8:00:00	9:00:00	68	31	1074	2700	0.40
13836	CCTV08 ต่างระดับพญาไท (บางโคล่)	13.8927413	100.541133	exat	working	2022-06-09T00:00:00	9:00:00	10:00:00	65	28	1007	2700	0.37
13837	CCTV08 ต่างระดับพญาไท (บางโคล่)	13.8927413	100.541133	exat	working	2022-06-09T00:00:00	10:00:00	11:00:00	65	29	1013	2700	0.38
13838	CCTV08 ต่างระดับพญาไท (บางโคล่)	13.8927413	100.541133	exat	working	2022-06-09T00:00:00	11:00:00	12:00:00	70	23	1460	2700	0.54
13839	CCTV08 ต่างระดับพญาไท (บางโคล่)	13.8927413	100.541133	exat	working	2022-06-09T00:00:00	12:00:00	13:00:00	66	30	959	2700	0.36
13840	CCTV08 ต่างระดับพญาไท (บางโคล่)	13.8927413	100.541133	exat	working	2022-06-09T00:00:00	13:00:00	14:00:00	64	30	1044	2700	0.39
13841	CCTV08 ต่างระดับพญาไท (บางโคล่)	13.8927413	100.541133	exat	working	2022-06-09T00:00:00	14:00:00	15:00:00	65	27	1019	2700	0.38
13842	CCTV08 ต่างระดับพญาไท (บางโคล่)	13.8927413	100.541133	exat	working	2022-06-09T00:00:00	15:00:00	16:00:00	66	28	1058	2700	0.39
13843	CCTV08 ต่างระดับพญาไท (บางโคล่)	13.8927413	100.541133	exat	working	2022-06-09T00:00:00	16:00:00	17:00:00	71	30	2546	2700	0.94
13844	CCTV08 ต่างระดับพญาไท (บางโคล่)	13.8927413	100.541133	exat	working	2022-06-09T00:00:00	17:00:00	18:00:00	68	21	1103	2700	0.41
13845	CCTV08 ต่างระดับพญาไท (บางโคล่)	13.8927413	100.541133	exat	working	2022-06-09T00:00:00	18:00:00	19:00:00	66	34	2381	2700	0.88
13846	CCTV08 ต่างระดับพญาไท (บางโคล่)	13.8927413	100.541133	exat	working	2022-07-09T00:00:00	5:00:00	6:00:00	84	14	1254	2700	0.46
13847	CCTV08 ต่างระดับพญาไท (บางโคล่)	13.8927413	100.541133	exat	working	2022-07-09T00:00:00	6:00:00	7:00:00	59	44	3988	2700	1.48
13848	CCTV08 ต่างระดับพญาไท (บางโคล่)	13.8927413	100.541133	exat	working	2022-07-09T00:00:00	7:00:00	8:00:00	64	19	1091	2700	0.40
13849	CCTV08 ต่างระดับพญาไท (บางโคล่)	13.8927413	100.541133	exat	working	2022-07-09T00:00:00	8:00:00	9:00:00	68	31	1098	2700	0.41
13850	CCTV08 ต่างระดับพญาไท (บางโคล่)	13.8927413	100.541133	exat	working	2022-07-09T00:00:00	9:00:00	10:00:00	64	26	1045	2700	0.39
13851	CCTV08 ต่างระดับพญาไท (บางโคล่)	13.8927413	100.541133	exat	working	2022-07-09T00:00:00	10:00:00	11:00:00	65	30	997	2700	0.37
13852	CCTV08 ต่างระดับพญาไท (บางโคล่)	13.8927413	100.541133	exat	working	2022-07-09T00:00:00	11:00:00	12:00:00	74	20	1101	2700	0.41
13853	CCTV08 ต่างระดับพญาไท (บางโคล่)	13.8927413	100.541133	exat	working	2022-07-09T00:00:00	12:00:00	13:00:00	67	30	961	2700	0.36
13854	CCTV08 ต่างระดับพญาไท (บางโคล่)	13.8927413	100.541133	exat	working	2022-07-09T00:00:00	13:00:00	14:00:00	63	29	1042	2700	0.39
13855	CCTV08 ต่างระดับพญาไท (บางโคล่)	13.8927413	100.541133	exat	working	2022-07-09T00:00:00	14:00:00	15:00:00	67	26	1028	2700	0.38
13856	CCTV08 ต่างระดับพญาไท (บางโคล่)	13.8927413	100.541133	exat	working	2022-07-09T00:00:00	15:00:00	16:00:00	67	30	1070	2700	0.40
13857	CCTV08 ต่างระดับพญาไท (บางโคล่)	13.8927413	100.541133	exat	working	2022-07-09T00:00:00	16:00:00	17:00:00	72	30	2561	2700	0.95
13858	CCTV08 ต่างระดับพญาไท (บางโคล่)	13.8927413	100.541133	exat	working	2022-07-09T00:00:00	17:00:00	18:00:00	64	21	1462	2700	0.54
13859	CCTV08 ต่างระดับพญาไท (บางโคล่)	13.8927413	100.541133	exat	working	2022-07-09T00:00:00	18:00:00	19:00:00	67	29	2562	2700	0.95
13860	CCTV08 ต่างระดับพญาไท (บางโคล่)	13.8927413	100.541133	exat	working	2022-08-09T00:00:00	5:00:00	6:00:00	94	12	967	2700	0.36
13861	CCTV08 ต่างระดับพญาไท (บางโคล่)	13.8927413	100.541133	exat	working	2022-08-09T00:00:00	6:00:00	7:00:00	66	36	3194	2700	1.18
13862	CCTV08 ต่างระดับพญาไท (บางโคล่)	13.8927413	100.541133	exat	working	2022-08-09T00:00:00	7:00:00	8:00:00	64	25	1278	2700	0.47
13863	CCTV08 ต่างระดับพญาไท (บางโคล่)	13.8927413	100.541133	exat	working	2022-08-09T00:00:00	8:00:00	9:00:00	68	24	766	2700	0.28
13864	CCTV08 ต่างระดับพญาไท (บางโคล่)	13.8927413	100.541133	exat	working	2022-08-09T00:00:00	9:00:00	10:00:00	63	20	637	2700	0.24
13865	CCTV08 ต่างระดับพญาไท (บางโคล่)	13.8927413	100.541133	exat	working	2022-08-09T00:00:00	10:00:00	11:00:00	65	21	635	2700	0.24
13866	CCTV08 ต่างระดับพญาไท (บางโคล่)	13.8927413	100.541133	exat	working	2022-08-09T00:00:00	11:00:00	12:00:00	71	24	1643	2700	0.61
13867	CCTV08 ต่างระดับพญาไท (บางโคล่)	13.8927413	100.541133	exat	working	2022-08-09T00:00:00	12:00:00	13:00:00	64	21	642	2700	0.24
13868	CCTV08 ต่างระดับพญาไท (บางโคล่)	13.8927413	100.541133	exat	working	2022-08-09T00:00:00	13:00:00	14:00:00	63	21	699	2700	0.26
13869	CCTV08 ต่างระดับพญาไท (บางโคล่)	13.8927413	100.541133	exat	working	2022-08-09T00:00:00	14:00:00	15:00:00	64	21	700	2700	0.26
13870	CCTV08 ต่างระดับพญาไท (บางโคล่)	13.8927413	100.541133	exat	working	2022-08-09T00:00:00	15:00:00	16:00:00	66	22	637	2700	0.24
13871	CCTV08 ต่างระดับพญาไท (บางโคล่)	13.8927413	100.541133	exat	working	2022-08-09T00:00:00	16:00:00	17:00:00	69	29	2453	2700	0.91
13872	CCTV08 ต่างระดับพญาไท (บางโคล่)	13.8927413	100.541133	exat	working	2022-08-09T00:00:00	17:00:00	18:00:00	63	26	2009	2700	0.74
13873	CCTV08 ต่างระดับพญาไท (บางโคล่)	13.8927413	100.541133	exat	working	2022-08-09T00:00:00	18:00:00	19:00:00	65	28	1820	2700	0.67
13874	CCTV08 ต่างระดับพญาไท (บางโคล่)	13.8927413	100.541133	exat	working	2022-09-09T00:00:00	5:00:00	6:00:00	104	9	778	2700	0.29
13875	CCTV08 ต่างระดับพญาไท (บางโคล่)	13.8927413	100.541133	exat	working	2022-09-09T00:00:00	6:00:00	7:00:00	72	28	2361	2700	0.87
13876	CCTV08 ต่างระดับพญาไท (บางโคล่)	13.8927413	100.541133	exat	working	2022-09-09T00:00:00	7:00:00	8:00:00	63	31	1473	2700	0.55
13877	CCTV08 ต่างระดับพญาไท (บางโคล่)	13.8927413	100.541133	exat	working	2022-09-09T00:00:00	8:00:00	9:00:00	67	17	365	2700	0.14
13878	CCTV08 ต่างระดับพญาไท (บางโคล่)	13.8927413	100.541133	exat	working	2022-09-09T00:00:00	9:00:00	10:00:00	63	14	273	2700	0.10
13879	CCTV08 ต่างระดับพญาไท (บางโคล่)	13.8927413	100.541133	exat	working	2022-09-09T00:00:00	10:00:00	11:00:00	65	12	282	2700	0.10
13880	CCTV08 ต่างระดับพญาไท (บางโคล่)	13.8927413	100.541133	exat	working	2022-09-09T00:00:00	11:00:00	12:00:00	69	28	2191	2700	0.81
13881	CCTV08 ต่างระดับพญาไท (บางโคล่)	13.8927413	100.541133	exat	working	2022-09-09T00:00:00	12:00:00	13:00:00	62	13	328	2700	0.12
13882	CCTV08 ต่างระดับพญาไท (บางโคล่)	13.8927413	100.541133	exat	working	2022-09-09T00:00:00	13:00:00	14:00:00	62	13	365	2700	0.14
13883	CCTV08 ต่างระดับพญาไท (บางโคล่)	13.8927413	100.541133	exat	working	2022-09-09T00:00:00	14:00:00	15:00:00	62	15	310	2700	0.11
13884	CCTV08 ต่างระดับพญาไท (บางโคล่)	13.8927413	100.541133	exat	working	2022-09-09T00:00:00	15:00:00	16:00:00	65	14	248	2700	0.09
13885	CCTV08 ต่างระดับพญาไท (บางโคล่)	13.8927413	100.541133	exat	working	2022-09-09T00:00:00	16:00:00	17:00:00	65	27	2369	2700	0.88
13886	CCTV08 ต่างระดับพญาไท (บางโคล่)	13.8927413	100.541133	exat	working	2022-09-09T00:00:00	17:00:00	18:00:00	63	32	2544	2700	0.94
13887	CCTV08 ต่างระดับพญาไท (บางโคล่)	13.8927413	100.541133	exat	working	2022-09-09T00:00:00	18:00:00	19:00:00	62	28	1093	2700	0.40
13888	CCTV08 ต่างระดับพญาไท (บางโคล่)	13.8927413	100.541133	exat	working	2022-10-09T00:00:00	5:00:00	6:00:00	106	6	182	2700	0.07
13889	CCTV08 ต่างระดับพญาไท (บางโคล่)	13.8927413	100.541133	exat	holiday	2022-10-09T00:00:00	6:00:00	7:00:00	74	17	564	2700	0.21
13890	CCTV08 ต่างระดับพญาไท (บางโคล่)	13.8927413	100.541133	exat	holiday	2022-10-09T00:00:00	7:00:00	8:00:00	60	39	1646	2700	0.61
13891	CCTV08 ต่างระดับพญาไท (บางโคล่)	13.8927413	100.541133	exat	holiday	2022-10-09T00:00:00	8:00:00	9:00:00	65	30	1455	2700	0.54
13892	CCTV08 ต่างระดับพญาไท (บางโคล่)	13.8927413	100.541133	exat	working	2022-10-09T00:00:00	9:00:00	10:00:00	60	27	1369	2700	0.51
13893	CCTV08 ต่างระดับพญาไท (บางโคล่)	13.8927413	100.541133	exat	working	2022-10-09T00:00:00	10:00:00	11:00:00	63	26	1294	2700	0.48
13894	CCTV08 ต่างระดับพญาไท (บางโคล่)	13.8927413	100.541133	exat	holiday	2022-10-09T00:00:00	11:00:00	12:00:00	60	26	1449	2700	0.54
13895	CCTV08 ต่างระดับพญาไท (บางโคล่)	13.8927413	100.541133	exat	working	2022-10-09T00:00:00	12:00:00	13:00:00	61	28	1278	2700	0.47
13896	CCTV08 ต่างระดับพญาไท (บางโคล่)	13.8927413	100.541133	exat	working	2022-10-09T00:00:00	13:00:00	14:00:00	60	25	1346	2700	0.50
13897	CCTV08 ต่างระดับพญาไท (บางโคล่)	13.8927413	100.541133	exat	working	2022-10-09T00:00:00	14:00:00	15:00:00	59	27	1326	2700	0.49
13898	CCTV08 ต่างระดับพญาไท (บางโคล่)	13.8927413	100.541133	exat	working	2022-10-09T00:00:00	15:00:00	16:00:00	60	27	1392	2700	0.52
13899	CCTV08 ต่างระดับพญาไท (บางโคล่)	13.8927413	100.541133	exat	holiday	2022-10-09T00:00:00	16:00:00	17:00:00	67	20	1469	2700	0.54
13900	CCTV08 ต่างระดับพญาไท (บางโคล่)	13.8927413	100.541133	exat	holiday	2022-10-09T00:00:00	17:00:00	18:00:00	75	23	1643	2700	0.61
13901	CCTV08 ต่างระดับพญาไท (บางโคล่)	13.8927413	100.541133	exat	holiday	2022-10-09T00:00:00	18:00:00	19:00:00	59	48	1272	2700	0.47
13902	CCTV08 ต่างระดับพญาไท (บางโคล่)	13.8927413	100.541133	exat	working	2022-11-09T00:00:00	5:00:00	6:00:00	63	4	103	2700	0.04
13903	CCTV08 ต่างระดับพญาไท (บางโคล่)	13.8927413	100.541133	exat	holiday	2022-11-09T00:00:00	6:00:00	7:00:00	45	11	329	2700	0.12
13904	CCTV08 ต่างระดับพญาไท (บางโคล่)	13.8927413	100.541133	exat	holiday	2022-11-09T00:00:00	7:00:00	8:00:00	36	24	986	2700	0.37
13905	CCTV08 ต่างระดับพญาไท (บางโคล่)	13.8927413	100.541133	exat	holiday	2022-11-09T00:00:00	8:00:00	9:00:00	39	18	893	2700	0.33
13906	CCTV08 ต่างระดับพญาไท (บางโคล่)	13.8927413	100.541133	exat	working	2022-11-09T00:00:00	9:00:00	10:00:00	36	17	820	2700	0.30
13907	CCTV08 ต่างระดับพญาไท (บางโคล่)	13.8927413	100.541133	exat	working	2022-11-09T00:00:00	10:00:00	11:00:00	38	16	800	2700	0.30
13908	CCTV08 ต่างระดับพญาไท (บางโคล่)	13.8927413	100.541133	exat	holiday	2022-11-09T00:00:00	11:00:00	12:00:00	36	16	874	2700	0.32
13909	CCTV08 ต่างระดับพญาไท (บางโคล่)	13.8927413	100.541133	exat	working	2022-11-09T00:00:00	12:00:00	13:00:00	37	17	821	2700	0.30
13910	CCTV08 ต่างระดับพญาไท (บางโคล่)	13.8927413	100.541133	exat	working	2022-11-09T00:00:00	13:00:00	14:00:00	36	15	824	2700	0.31
13911	CCTV08 ต่างระดับพญาไท (บางโคล่)	13.8927413	100.541133	exat	working	2022-11-09T00:00:00	14:00:00	15:00:00	36	17	806	2700	0.30
13912	CCTV08 ต่างระดับพญาไท (บางโคล่)	13.8927413	100.541133	exat	working	2022-11-09T00:00:00	15:00:00	16:00:00	36	16	796	2700	0.29
13913	CCTV08 ต่างระดับพญาไท (บางโคล่)	13.8927413	100.541133	exat	holiday	2022-11-09T00:00:00	16:00:00	17:00:00	41	12	884	2700	0.33
13914	CCTV08 ต่างระดับพญาไท (บางโคล่)	13.8927413	100.541133	exat	holiday	2022-11-09T00:00:00	17:00:00	18:00:00	45	14	1013	2700	0.38
13915	CCTV08 ต่างระดับพญาไท (บางโคล่)	13.8927413	100.541133	exat	holiday	2022-11-09T00:00:00	18:00:00	19:00:00	36	29	769	2700	0.28
13916	CCTV04 ก่อนเข้าต่างระดับมักกะสัน	13.7774262	100.5321564	exat	working	2022-05-09T00:00:00	5:00:00	6:00:00	39	21	684	2700	0.25
13917	CCTV04 ก่อนเข้าต่างระดับมักกะสัน	13.7774262	100.5321564	exat	working	2022-05-09T00:00:00	6:00:00	7:00:00	28	64	2207	2700	0.82
13918	CCTV04 ก่อนเข้าต่างระดับมักกะสัน	13.7774262	100.5321564	exat	working	2022-05-09T00:00:00	7:00:00	8:00:00	35	35	2553	2700	0.95
13919	CCTV04 ก่อนเข้าต่างระดับมักกะสัน	13.7774262	100.5321564	exat	working	2022-05-09T00:00:00	8:00:00	9:00:00	36	54	3071	2700	1.14
13920	CCTV04 ก่อนเข้าต่างระดับมักกะสัน	13.7774262	100.5321564	exat	working	2022-05-09T00:00:00	9:00:00	10:00:00	34	52	3055	2700	1.13
13921	CCTV04 ก่อนเข้าต่างระดับมักกะสัน	13.7774262	100.5321564	exat	working	2022-05-09T00:00:00	10:00:00	11:00:00	35	52	2981	2700	1.10
13922	CCTV04 ก่อนเข้าต่างระดับมักกะสัน	13.7774262	100.5321564	exat	working	2022-05-09T00:00:00	11:00:00	12:00:00	56	37	2399	2700	0.89
13923	CCTV04 ก่อนเข้าต่างระดับมักกะสัน	13.7774262	100.5321564	exat	working	2022-05-09T00:00:00	12:00:00	13:00:00	31	52	2978	2700	1.10
13924	CCTV04 ก่อนเข้าต่างระดับมักกะสัน	13.7774262	100.5321564	exat	working	2022-05-09T00:00:00	13:00:00	14:00:00	35	50	3058	2700	1.13
13925	CCTV04 ก่อนเข้าต่างระดับมักกะสัน	13.7774262	100.5321564	exat	working	2022-05-09T00:00:00	14:00:00	15:00:00	33	47	3047	2700	1.13
13926	CCTV04 ก่อนเข้าต่างระดับมักกะสัน	13.7774262	100.5321564	exat	working	2022-05-09T00:00:00	15:00:00	16:00:00	33	47	2956	2700	1.09
13927	CCTV04 ก่อนเข้าต่างระดับมักกะสัน	13.7774262	100.5321564	exat	working	2022-05-09T00:00:00	16:00:00	17:00:00	15	121	4391	2700	1.63
13928	CCTV04 ก่อนเข้าต่างระดับมักกะสัน	13.7774262	100.5321564	exat	working	2022-05-09T00:00:00	17:00:00	18:00:00	44	181	4670	2700	1.73
13929	CCTV04 ก่อนเข้าต่างระดับมักกะสัน	13.7774262	100.5321564	exat	working	2022-05-09T00:00:00	18:00:00	19:00:00	14	122	2916	2700	1.08
13930	CCTV04 ก่อนเข้าต่างระดับมักกะสัน	13.7774262	100.5321564	exat	working	2022-06-09T00:00:00	5:00:00	6:00:00	39	22	673	2700	0.25
13931	CCTV04 ก่อนเข้าต่างระดับมักกะสัน	13.7774262	100.5321564	exat	working	2022-06-09T00:00:00	6:00:00	7:00:00	28	64	2164	2700	0.80
13932	CCTV04 ก่อนเข้าต่างระดับมักกะสัน	13.7774262	100.5321564	exat	working	2022-06-09T00:00:00	7:00:00	8:00:00	35	35	2550	2700	0.94
13933	CCTV04 ก่อนเข้าต่างระดับมักกะสัน	13.7774262	100.5321564	exat	working	2022-06-09T00:00:00	8:00:00	9:00:00	36	54	3089	2700	1.14
13934	CCTV04 ก่อนเข้าต่างระดับมักกะสัน	13.7774262	100.5321564	exat	working	2022-06-09T00:00:00	9:00:00	10:00:00	35	51	3018	2700	1.12
13935	CCTV04 ก่อนเข้าต่างระดับมักกะสัน	13.7774262	100.5321564	exat	working	2022-06-09T00:00:00	10:00:00	11:00:00	35	52	3014	2700	1.12
13936	CCTV04 ก่อนเข้าต่างระดับมักกะสัน	13.7774262	100.5321564	exat	working	2022-06-09T00:00:00	11:00:00	12:00:00	52	44	2605	2700	0.96
13937	CCTV04 ก่อนเข้าต่างระดับมักกะสัน	13.7774262	100.5321564	exat	working	2022-06-09T00:00:00	12:00:00	13:00:00	32	50	2991	2700	1.11
13938	CCTV04 ก่อนเข้าต่างระดับมักกะสัน	13.7774262	100.5321564	exat	working	2022-06-09T00:00:00	13:00:00	14:00:00	34	50	3021	2700	1.12
13939	CCTV04 ก่อนเข้าต่างระดับมักกะสัน	13.7774262	100.5321564	exat	working	2022-06-09T00:00:00	14:00:00	15:00:00	33	48	3059	2700	1.13
13940	CCTV04 ก่อนเข้าต่างระดับมักกะสัน	13.7774262	100.5321564	exat	working	2022-06-09T00:00:00	15:00:00	16:00:00	33	50	2957	2700	1.10
13941	CCTV04 ก่อนเข้าต่างระดับมักกะสัน	13.7774262	100.5321564	exat	working	2022-06-09T00:00:00	16:00:00	17:00:00	18	121	4594	2700	1.70
13942	CCTV04 ก่อนเข้าต่างระดับมักกะสัน	13.7774262	100.5321564	exat	working	2022-06-09T00:00:00	17:00:00	18:00:00	39	182	5143	2700	1.90
13943	CCTV04 ก่อนเข้าต่างระดับมักกะสัน	13.7774262	100.5321564	exat	working	2022-06-09T00:00:00	18:00:00	19:00:00	17	121	3179	2700	1.18
13944	CCTV04 ก่อนเข้าต่างระดับมักกะสัน	13.7774262	100.5321564	exat	working	2022-07-09T00:00:00	5:00:00	6:00:00	39	22	683	2700	0.25
13945	CCTV04 ก่อนเข้าต่างระดับมักกะสัน	13.7774262	100.5321564	exat	working	2022-07-09T00:00:00	6:00:00	7:00:00	28	64	2187	2700	0.81
13946	CCTV04 ก่อนเข้าต่างระดับมักกะสัน	13.7774262	100.5321564	exat	working	2022-07-09T00:00:00	7:00:00	8:00:00	35	35	2561	2700	0.95
13947	CCTV04 ก่อนเข้าต่างระดับมักกะสัน	13.7774262	100.5321564	exat	working	2022-07-09T00:00:00	8:00:00	9:00:00	36	54	3123	2700	1.16
13948	CCTV04 ก่อนเข้าต่างระดับมักกะสัน	13.7774262	100.5321564	exat	working	2022-07-09T00:00:00	9:00:00	10:00:00	35	49	2985	2700	1.11
13949	CCTV04 ก่อนเข้าต่างระดับมักกะสัน	13.7774262	100.5321564	exat	working	2022-07-09T00:00:00	10:00:00	11:00:00	35	52	3027	2700	1.12
13950	CCTV04 ก่อนเข้าต่างระดับมักกะสัน	13.7774262	100.5321564	exat	working	2022-07-09T00:00:00	11:00:00	12:00:00	48	51	2921	2700	1.08
13951	CCTV04 ก่อนเข้าต่างระดับมักกะสัน	13.7774262	100.5321564	exat	working	2022-07-09T00:00:00	12:00:00	13:00:00	33	49	3013	2700	1.12
13952	CCTV04 ก่อนเข้าต่างระดับมักกะสัน	13.7774262	100.5321564	exat	working	2022-07-09T00:00:00	13:00:00	14:00:00	32	49	3032	2700	1.12
13953	CCTV04 ก่อนเข้าต่างระดับมักกะสัน	13.7774262	100.5321564	exat	working	2022-07-09T00:00:00	14:00:00	15:00:00	34	50	3091	2700	1.14
13954	CCTV04 ก่อนเข้าต่างระดับมักกะสัน	13.7774262	100.5321564	exat	working	2022-07-09T00:00:00	15:00:00	16:00:00	33	52	2983	2700	1.10
13955	CCTV04 ก่อนเข้าต่างระดับมักกะสัน	13.7774262	100.5321564	exat	working	2022-07-09T00:00:00	16:00:00	17:00:00	21	122	4736	2700	1.75
13956	CCTV04 ก่อนเข้าต่างระดับมักกะสัน	13.7774262	100.5321564	exat	working	2022-07-09T00:00:00	17:00:00	18:00:00	33	181	5645	2700	2.09
13957	CCTV04 ก่อนเข้าต่างระดับมักกะสัน	13.7774262	100.5321564	exat	working	2022-07-09T00:00:00	18:00:00	19:00:00	19	122	3446	2700	1.28
13958	CCTV04 ก่อนเข้าต่างระดับมักกะสัน	13.7774262	100.5321564	exat	working	2022-08-09T00:00:00	5:00:00	6:00:00	62	14	560	2700	0.21
13959	CCTV04 ก่อนเข้าต่างระดับมักกะสัน	13.7774262	100.5321564	exat	working	2022-08-09T00:00:00	6:00:00	7:00:00	44	46	1823	2700	0.68
13960	CCTV04 ก่อนเข้าต่างระดับมักกะสัน	13.7774262	100.5321564	exat	working	2022-08-09T00:00:00	7:00:00	8:00:00	45	36	2733	2700	1.01
13961	CCTV04 ก่อนเข้าต่างระดับมักกะสัน	13.7774262	100.5321564	exat	working	2022-08-09T00:00:00	8:00:00	9:00:00	48	47	3300	2700	1.22
13962	CCTV04 ก่อนเข้าต่างระดับมักกะสัน	13.7774262	100.5321564	exat	working	2022-08-09T00:00:00	9:00:00	10:00:00	46	42	3208	2700	1.19
13963	CCTV04 ก่อนเข้าต่างระดับมักกะสัน	13.7774262	100.5321564	exat	working	2022-08-09T00:00:00	10:00:00	11:00:00	46	43	3249	2700	1.20
13964	CCTV04 ก่อนเข้าต่างระดับมักกะสัน	13.7774262	100.5321564	exat	working	2022-08-09T00:00:00	11:00:00	12:00:00	52	43	2458	2700	0.91
13965	CCTV04 ก่อนเข้าต่างระดับมักกะสัน	13.7774262	100.5321564	exat	working	2022-08-09T00:00:00	12:00:00	13:00:00	46	42	3177	2700	1.18
13966	CCTV04 ก่อนเข้าต่างระดับมักกะสัน	13.7774262	100.5321564	exat	working	2022-08-09T00:00:00	13:00:00	14:00:00	44	43	3233	2700	1.20
13967	CCTV04 ก่อนเข้าต่างระดับมักกะสัน	13.7774262	100.5321564	exat	working	2022-08-09T00:00:00	14:00:00	15:00:00	46	42	3211	2700	1.19
13968	CCTV04 ก่อนเข้าต่างระดับมักกะสัน	13.7774262	100.5321564	exat	working	2022-08-09T00:00:00	15:00:00	16:00:00	46	43	3120	2700	1.16
13969	CCTV04 ก่อนเข้าต่างระดับมักกะสัน	13.7774262	100.5321564	exat	working	2022-08-09T00:00:00	16:00:00	17:00:00	22	175	4681	2700	1.73
13970	CCTV04 ก่อนเข้าต่างระดับมักกะสัน	13.7774262	100.5321564	exat	working	2022-08-09T00:00:00	17:00:00	18:00:00	46	182	5391	2700	2.00
13971	CCTV04 ก่อนเข้าต่างระดับมักกะสัน	13.7774262	100.5321564	exat	working	2022-08-09T00:00:00	18:00:00	19:00:00	37	172	3930	2700	1.46
13972	CCTV04 ก่อนเข้าต่างระดับมักกะสัน	13.7774262	100.5321564	exat	working	2022-09-09T00:00:00	5:00:00	6:00:00	86	9	476	2700	0.18
13973	CCTV04 ก่อนเข้าต่างระดับมักกะสัน	13.7774262	100.5321564	exat	working	2022-09-09T00:00:00	6:00:00	7:00:00	60	29	1469	2700	0.54
13974	CCTV04 ก่อนเข้าต่างระดับมักกะสัน	13.7774262	100.5321564	exat	working	2022-09-09T00:00:00	7:00:00	8:00:00	54	38	2942	2700	1.09
13975	CCTV04 ก่อนเข้าต่างระดับมักกะสัน	13.7774262	100.5321564	exat	working	2022-09-09T00:00:00	8:00:00	9:00:00	61	39	3443	2700	1.28
13976	CCTV04 ก่อนเข้าต่างระดับมักกะสัน	13.7774262	100.5321564	exat	working	2022-09-09T00:00:00	9:00:00	10:00:00	56	36	3412	2700	1.26
13977	CCTV04 ก่อนเข้าต่างระดับมักกะสัน	13.7774262	100.5321564	exat	working	2022-09-09T00:00:00	10:00:00	11:00:00	58	34	3472	2700	1.29
13978	CCTV04 ก่อนเข้าต่างระดับมักกะสัน	13.7774262	100.5321564	exat	working	2022-09-09T00:00:00	11:00:00	12:00:00	57	35	2000	2700	0.74
13979	CCTV04 ก่อนเข้าต่างระดับมักกะสัน	13.7774262	100.5321564	exat	working	2022-09-09T00:00:00	12:00:00	13:00:00	59	36	3355	2700	1.24
13980	CCTV04 ก่อนเข้าต่างระดับมักกะสัน	13.7774262	100.5321564	exat	working	2022-09-09T00:00:00	13:00:00	14:00:00	56	36	3361	2700	1.24
13981	CCTV04 ก่อนเข้าต่างระดับมักกะสัน	13.7774262	100.5321564	exat	working	2022-09-09T00:00:00	14:00:00	15:00:00	58	35	3345	2700	1.24
13982	CCTV04 ก่อนเข้าต่างระดับมักกะสัน	13.7774262	100.5321564	exat	working	2022-09-09T00:00:00	15:00:00	16:00:00	60	34	3325	2700	1.23
13983	CCTV04 ก่อนเข้าต่างระดับมักกะสัน	13.7774262	100.5321564	exat	working	2022-09-09T00:00:00	16:00:00	17:00:00	24	182	4636	2700	1.72
13984	CCTV04 ก่อนเข้าต่างระดับมักกะสัน	13.7774262	100.5321564	exat	working	2022-09-09T00:00:00	17:00:00	18:00:00	59	182	5186	2700	1.92
13985	CCTV04 ก่อนเข้าต่างระดับมักกะสัน	13.7774262	100.5321564	exat	working	2022-09-09T00:00:00	18:00:00	19:00:00	55	169	4366	2700	1.62
13986	CCTV04 ก่อนเข้าต่างระดับมักกะสัน	13.7774262	100.5321564	exat	working	2022-10-09T00:00:00	5:00:00	6:00:00	82	8	243	2700	0.09
13987	CCTV04 ก่อนเข้าต่างระดับมักกะสัน	13.7774262	100.5321564	exat	holiday	2022-10-09T00:00:00	6:00:00	7:00:00	57	24	728	2700	0.27
13988	CCTV04 ก่อนเข้าต่างระดับมักกะสัน	13.7774262	100.5321564	exat	holiday	2022-10-09T00:00:00	7:00:00	8:00:00	60	15	1092	2700	0.40
13989	CCTV04 ก่อนเข้าต่างระดับมักกะสัน	13.7774262	100.5321564	exat	holiday	2022-10-09T00:00:00	8:00:00	9:00:00	60	58	1622	2700	0.60
13990	CCTV04 ก่อนเข้าต่างระดับมักกะสัน	13.7774262	100.5321564	exat	working	2022-10-09T00:00:00	9:00:00	10:00:00	59	57	1641	2700	0.61
13991	CCTV04 ก่อนเข้าต่างระดับมักกะสัน	13.7774262	100.5321564	exat	working	2022-10-09T00:00:00	10:00:00	11:00:00	58	58	1550	2700	0.57
13992	CCTV04 ก่อนเข้าต่างระดับมักกะสัน	13.7774262	100.5321564	exat	holiday	2022-10-09T00:00:00	11:00:00	12:00:00	55	46	2562	2700	0.95
13993	CCTV04 ก่อนเข้าต่างระดับมักกะสัน	13.7774262	100.5321564	exat	working	2022-10-09T00:00:00	12:00:00	13:00:00	59	53	1528	2700	0.57
13994	CCTV04 ก่อนเข้าต่างระดับมักกะสัน	13.7774262	100.5321564	exat	working	2022-10-09T00:00:00	13:00:00	14:00:00	56	54	1579	2700	0.58
13995	CCTV04 ก่อนเข้าต่างระดับมักกะสัน	13.7774262	100.5321564	exat	working	2022-10-09T00:00:00	14:00:00	15:00:00	57	56	1586	2700	0.59
13996	CCTV04 ก่อนเข้าต่างระดับมักกะสัน	13.7774262	100.5321564	exat	working	2022-10-09T00:00:00	15:00:00	16:00:00	55	52	1601	2700	0.59
13997	CCTV04 ก่อนเข้าต่างระดับมักกะสัน	13.7774262	100.5321564	exat	holiday	2022-10-09T00:00:00	16:00:00	17:00:00	35	98	3983	2700	1.48
13998	CCTV04 ก่อนเข้าต่างระดับมักกะสัน	13.7774262	100.5321564	exat	holiday	2022-10-09T00:00:00	17:00:00	18:00:00	44	47	2181	2700	0.81
13999	CCTV04 ก่อนเข้าต่างระดับมักกะสัน	13.7774262	100.5321564	exat	holiday	2022-10-09T00:00:00	18:00:00	19:00:00	49	34	2353	2700	0.87
14000	CCTV04 ก่อนเข้าต่างระดับมักกะสัน	13.7774262	100.5321564	exat	working	2022-11-09T00:00:00	5:00:00	6:00:00	47	5	135	2700	0.05
14001	CCTV04 ก่อนเข้าต่างระดับมักกะสัน	13.7774262	100.5321564	exat	holiday	2022-11-09T00:00:00	6:00:00	7:00:00	34	15	419	2700	0.16
14002	CCTV04 ก่อนเข้าต่างระดับมักกะสัน	13.7774262	100.5321564	exat	holiday	2022-11-09T00:00:00	7:00:00	8:00:00	36	9	669	2700	0.25
14003	CCTV04 ก่อนเข้าต่างระดับมักกะสัน	13.7774262	100.5321564	exat	holiday	2022-11-09T00:00:00	8:00:00	9:00:00	36	35	983	2700	0.36
14004	CCTV04 ก่อนเข้าต่างระดับมักกะสัน	13.7774262	100.5321564	exat	working	2022-11-09T00:00:00	9:00:00	10:00:00	35	34	998	2700	0.37
14005	CCTV04 ก่อนเข้าต่างระดับมักกะสัน	13.7774262	100.5321564	exat	working	2022-11-09T00:00:00	10:00:00	11:00:00	35	35	908	2700	0.34
14006	CCTV04 ก่อนเข้าต่างระดับมักกะสัน	13.7774262	100.5321564	exat	holiday	2022-11-09T00:00:00	11:00:00	12:00:00	33	28	1532	2700	0.57
14007	CCTV04 ก่อนเข้าต่างระดับมักกะสัน	13.7774262	100.5321564	exat	working	2022-11-09T00:00:00	12:00:00	13:00:00	36	32	920	2700	0.34
14008	CCTV04 ก่อนเข้าต่างระดับมักกะสัน	13.7774262	100.5321564	exat	working	2022-11-09T00:00:00	13:00:00	14:00:00	34	33	953	2700	0.35
14009	CCTV04 ก่อนเข้าต่างระดับมักกะสัน	13.7774262	100.5321564	exat	working	2022-11-09T00:00:00	14:00:00	15:00:00	34	34	965	2700	0.36
14010	CCTV04 ก่อนเข้าต่างระดับมักกะสัน	13.7774262	100.5321564	exat	working	2022-11-09T00:00:00	15:00:00	16:00:00	33	31	976	2700	0.36
14011	CCTV04 ก่อนเข้าต่างระดับมักกะสัน	13.7774262	100.5321564	exat	holiday	2022-11-09T00:00:00	16:00:00	17:00:00	21	121	2405	2700	0.89
14012	CCTV04 ก่อนเข้าต่างระดับมักกะสัน	13.7774262	100.5321564	exat	holiday	2022-11-09T00:00:00	17:00:00	18:00:00	26	28	1307	2700	0.48
14013	CCTV04 ก่อนเข้าต่างระดับมักกะสัน	13.7774262	100.5321564	exat	holiday	2022-11-09T00:00:00	18:00:00	19:00:00	30	21	1422	2700	0.53
14014	CCTV25 แจ้งวัฒนะ	13.7238599	100.5175447	exat	working	2022-05-09T00:00:00	5:00:00	6:00:00	97	12	249	2700	0.09
14015	CCTV25 แจ้งวัฒนะ	13.7238599	100.5175447	exat	working	2022-05-09T00:00:00	6:00:00	7:00:00	67	37	736	2700	0.27
14016	CCTV25 แจ้งวัฒนะ	13.7238599	100.5175447	exat	working	2022-05-09T00:00:00	7:00:00	8:00:00	54	21	1448	2700	0.54
14017	CCTV25 แจ้งวัฒนะ	13.7238599	100.5175447	exat	working	2022-05-09T00:00:00	8:00:00	9:00:00	59	38	1457	2700	0.54
14018	CCTV25 แจ้งวัฒนะ	13.7238599	100.5175447	exat	working	2022-05-09T00:00:00	9:00:00	10:00:00	58	34	1426	2700	0.53
14019	CCTV25 แจ้งวัฒนะ	13.7238599	100.5175447	exat	working	2022-05-09T00:00:00	10:00:00	11:00:00	58	37	1391	2700	0.52
14020	CCTV25 แจ้งวัฒนะ	13.7238599	100.5175447	exat	working	2022-05-09T00:00:00	11:00:00	12:00:00	49	32	2559	2700	0.95
14021	CCTV25 แจ้งวัฒนะ	13.7238599	100.5175447	exat	working	2022-05-09T00:00:00	12:00:00	13:00:00	55	33	1336	2700	0.49
14022	CCTV25 แจ้งวัฒนะ	13.7238599	100.5175447	exat	working	2022-05-09T00:00:00	13:00:00	14:00:00	54	35	1362	2700	0.50
14023	CCTV25 แจ้งวัฒนะ	13.7238599	100.5175447	exat	working	2022-05-09T00:00:00	14:00:00	15:00:00	55	34	1333	2700	0.49
14024	CCTV25 แจ้งวัฒนะ	13.7238599	100.5175447	exat	working	2022-05-09T00:00:00	15:00:00	16:00:00	56	33	1394	2700	0.52
14025	CCTV25 แจ้งวัฒนะ	13.7238599	100.5175447	exat	working	2022-05-09T00:00:00	16:00:00	17:00:00	58	50	4557	2700	1.69
14026	CCTV25 แจ้งวัฒนะ	13.7238599	100.5175447	exat	working	2022-05-09T00:00:00	17:00:00	18:00:00	56	61	4385	2700	1.62
14027	CCTV25 แจ้งวัฒนะ	13.7238599	100.5175447	exat	working	2022-05-09T00:00:00	18:00:00	19:00:00	57	37	2563	2700	0.95
14028	CCTV25 แจ้งวัฒนะ	13.7238599	100.5175447	exat	working	2022-06-09T00:00:00	5:00:00	6:00:00	96	12	224	2700	0.08
14029	CCTV25 แจ้งวัฒนะ	13.7238599	100.5175447	exat	working	2022-06-09T00:00:00	6:00:00	7:00:00	67	37	720	2700	0.27
14030	CCTV25 แจ้งวัฒนะ	13.7238599	100.5175447	exat	working	2022-06-09T00:00:00	7:00:00	8:00:00	54	21	1446	2700	0.54
14031	CCTV25 แจ้งวัฒนะ	13.7238599	100.5175447	exat	working	2022-06-09T00:00:00	8:00:00	9:00:00	59	38	1456	2700	0.54
14032	CCTV25 แจ้งวัฒนะ	13.7238599	100.5175447	exat	working	2022-06-09T00:00:00	9:00:00	10:00:00	56	35	1390	2700	0.51
14033	CCTV25 แจ้งวัฒนะ	13.7238599	100.5175447	exat	working	2022-06-09T00:00:00	10:00:00	11:00:00	56	36	1404	2700	0.52
14034	CCTV25 แจ้งวัฒนะ	13.7238599	100.5175447	exat	working	2022-06-09T00:00:00	11:00:00	12:00:00	55	33	2198	2700	0.81
14035	CCTV25 แจ้งวัฒนะ	13.7238599	100.5175447	exat	working	2022-06-09T00:00:00	12:00:00	13:00:00	54	33	1367	2700	0.51
14036	CCTV25 แจ้งวัฒนะ	13.7238599	100.5175447	exat	working	2022-06-09T00:00:00	13:00:00	14:00:00	55	36	1354	2700	0.50
14037	CCTV25 แจ้งวัฒนะ	13.7238599	100.5175447	exat	working	2022-06-09T00:00:00	14:00:00	15:00:00	56	36	1292	2700	0.48
14038	CCTV25 แจ้งวัฒนะ	13.7238599	100.5175447	exat	working	2022-06-09T00:00:00	15:00:00	16:00:00	57	34	1368	2700	0.51
14039	CCTV25 แจ้งวัฒนะ	13.7238599	100.5175447	exat	working	2022-06-09T00:00:00	16:00:00	17:00:00	64	49	5288	2700	1.96
14040	CCTV25 แจ้งวัฒนะ	13.7238599	100.5175447	exat	working	2022-06-09T00:00:00	17:00:00	18:00:00	59	53	4203	2700	1.56
14041	CCTV25 แจ้งวัฒนะ	13.7238599	100.5175447	exat	working	2022-06-09T00:00:00	18:00:00	19:00:00	56	46	4264	2700	1.58
14042	CCTV25 แจ้งวัฒนะ	13.7238599	100.5175447	exat	working	2022-07-09T00:00:00	5:00:00	6:00:00	95	12	217	2700	0.08
14043	CCTV25 แจ้งวัฒนะ	13.7238599	100.5175447	exat	working	2022-07-09T00:00:00	6:00:00	7:00:00	67	37	723	2700	0.27
14044	CCTV25 แจ้งวัฒนะ	13.7238599	100.5175447	exat	working	2022-07-09T00:00:00	7:00:00	8:00:00	54	21	1468	2700	0.54
14045	CCTV25 แจ้งวัฒนะ	13.7238599	100.5175447	exat	working	2022-07-09T00:00:00	8:00:00	9:00:00	59	38	1464	2700	0.54
14046	CCTV25 แจ้งวัฒนะ	13.7238599	100.5175447	exat	working	2022-07-09T00:00:00	9:00:00	10:00:00	54	35	1302	2700	0.48
14047	CCTV25 แจ้งวัฒนะ	13.7238599	100.5175447	exat	working	2022-07-09T00:00:00	10:00:00	11:00:00	54	35	1424	2700	0.53
14048	CCTV25 แจ้งวัฒนะ	13.7238599	100.5175447	exat	working	2022-07-09T00:00:00	11:00:00	12:00:00	61	34	1839	2700	0.68
14049	CCTV25 แจ้งวัฒนะ	13.7238599	100.5175447	exat	working	2022-07-09T00:00:00	12:00:00	13:00:00	54	34	1416	2700	0.52
14050	CCTV25 แจ้งวัฒนะ	13.7238599	100.5175447	exat	working	2022-07-09T00:00:00	13:00:00	14:00:00	55	37	1391	2700	0.52
14051	CCTV25 แจ้งวัฒนะ	13.7238599	100.5175447	exat	working	2022-07-09T00:00:00	14:00:00	15:00:00	56	37	1263	2700	0.47
14052	CCTV25 แจ้งวัฒนะ	13.7238599	100.5175447	exat	working	2022-07-09T00:00:00	15:00:00	16:00:00	58	34	1345	2700	0.50
14053	CCTV25 แจ้งวัฒนะ	13.7238599	100.5175447	exat	working	2022-07-09T00:00:00	16:00:00	17:00:00	69	47	6060	2700	2.24
14054	CCTV25 แจ้งวัฒนะ	13.7238599	100.5175447	exat	working	2022-07-09T00:00:00	17:00:00	18:00:00	62	44	3997	2700	1.48
14055	CCTV25 แจ้งวัฒนะ	13.7238599	100.5175447	exat	working	2022-07-09T00:00:00	18:00:00	19:00:00	55	55	6028	2700	2.23
14056	CCTV25 แจ้งวัฒนะ	13.7238599	100.5175447	exat	working	2022-08-09T00:00:00	5:00:00	6:00:00	77	10	272	2700	0.10
14057	CCTV25 แจ้งวัฒนะ	13.7238599	100.5175447	exat	working	2022-08-09T00:00:00	6:00:00	7:00:00	54	30	840	2700	0.31
14058	CCTV25 แจ้งวัฒนะ	13.7238599	100.5175447	exat	working	2022-08-09T00:00:00	7:00:00	8:00:00	43	29	1829	2700	0.68
14059	CCTV25 แจ้งวัฒนะ	13.7238599	100.5175447	exat	working	2022-08-09T00:00:00	8:00:00	9:00:00	43	45	1911	2700	0.71
14060	CCTV25 แจ้งวัฒนะ	13.7238599	100.5175447	exat	working	2022-08-09T00:00:00	9:00:00	10:00:00	40	42	1831	2700	0.68
14061	CCTV25 แจ้งวัฒนะ	13.7238599	100.5175447	exat	working	2022-08-09T00:00:00	10:00:00	11:00:00	38	43	1866	2700	0.69
14062	CCTV25 แจ้งวัฒนะ	13.7238599	100.5175447	exat	working	2022-08-09T00:00:00	11:00:00	12:00:00	44	48	2273	2700	0.84
14063	CCTV25 แจ้งวัฒนะ	13.7238599	100.5175447	exat	working	2022-08-09T00:00:00	12:00:00	13:00:00	39	41	1805	2700	0.67
14064	CCTV25 แจ้งวัฒนะ	13.7238599	100.5175447	exat	working	2022-08-09T00:00:00	13:00:00	14:00:00	40	43	1810	2700	0.67
14065	CCTV25 แจ้งวัฒนะ	13.7238599	100.5175447	exat	working	2022-08-09T00:00:00	14:00:00	15:00:00	39	43	1758	2700	0.65
14066	CCTV25 แจ้งวัฒนะ	13.7238599	100.5175447	exat	working	2022-08-09T00:00:00	15:00:00	16:00:00	40	42	1847	2700	0.68
14067	CCTV25 แจ้งวัฒนะ	13.7238599	100.5175447	exat	working	2022-08-09T00:00:00	16:00:00	17:00:00	49	99	6115	2700	2.26
14068	CCTV25 แจ้งวัฒนะ	13.7238599	100.5175447	exat	working	2022-08-09T00:00:00	17:00:00	18:00:00	42	112	5755	2700	2.13
14069	CCTV25 แจ้งวัฒนะ	13.7238599	100.5175447	exat	working	2022-08-09T00:00:00	18:00:00	19:00:00	41	93	5583	2700	2.07
14070	CCTV25 แจ้งวัฒนะ	13.7238599	100.5175447	exat	working	2022-09-09T00:00:00	5:00:00	6:00:00	57	7	300	2700	0.11
14071	CCTV25 แจ้งวัฒนะ	13.7238599	100.5175447	exat	working	2022-09-09T00:00:00	6:00:00	7:00:00	40	22	910	2700	0.34
14072	CCTV25 แจ้งวัฒนะ	13.7238599	100.5175447	exat	working	2022-09-09T00:00:00	7:00:00	8:00:00	33	36	2184	2700	0.81
14073	CCTV25 แจ้งวัฒนะ	13.7238599	100.5175447	exat	working	2022-09-09T00:00:00	8:00:00	9:00:00	26	52	2356	2700	0.87
14074	CCTV25 แจ้งวัฒนะ	13.7238599	100.5175447	exat	working	2022-09-09T00:00:00	9:00:00	10:00:00	25	48	2338	2700	0.87
14075	CCTV25 แจ้งวัฒนะ	13.7238599	100.5175447	exat	working	2022-09-09T00:00:00	10:00:00	11:00:00	23	50	2267	2700	0.84
14076	CCTV25 แจ้งวัฒนะ	13.7238599	100.5175447	exat	working	2022-09-09T00:00:00	11:00:00	12:00:00	28	61	2753	2700	1.02
14077	CCTV25 แจ้งวัฒนะ	13.7238599	100.5175447	exat	working	2022-09-09T00:00:00	12:00:00	13:00:00	24	47	2186	2700	0.81
14078	CCTV25 แจ้งวัฒนะ	13.7238599	100.5175447	exat	working	2022-09-09T00:00:00	13:00:00	14:00:00	25	48	2229	2700	0.83
14079	CCTV25 แจ้งวัฒนะ	13.7238599	100.5175447	exat	working	2022-09-09T00:00:00	14:00:00	15:00:00	22	50	2304	2700	0.85
14080	CCTV25 แจ้งวัฒนะ	13.7238599	100.5175447	exat	working	2022-09-09T00:00:00	15:00:00	16:00:00	21	121	2338	2700	0.87
14081	CCTV25 แจ้งวัฒนะ	13.7238599	100.5175447	exat	working	2022-09-09T00:00:00	16:00:00	17:00:00	29	150	6250	2700	2.31
14082	CCTV25 แจ้งวัฒนะ	13.7238599	100.5175447	exat	working	2022-09-09T00:00:00	17:00:00	18:00:00	22	182	7512	2700	2.78
14083	CCTV25 แจ้งวัฒนะ	13.7238599	100.5175447	exat	working	2022-09-09T00:00:00	18:00:00	19:00:00	28	132	5124	2700	1.90
14084	CCTV25 แจ้งวัฒนะ	13.7238599	100.5175447	exat	working	2022-10-09T00:00:00	5:00:00	6:00:00	49	7	227	2700	0.08
14085	CCTV25 แจ้งวัฒนะ	13.7238599	100.5175447	exat	holiday	2022-10-09T00:00:00	6:00:00	7:00:00	35	19	713	2700	0.26
14086	CCTV25 แจ้งวัฒนะ	13.7238599	100.5175447	exat	holiday	2022-10-09T00:00:00	7:00:00	8:00:00	35	40	545	2700	0.20
14087	CCTV25 แจ้งวัฒนะ	13.7238599	100.5175447	exat	holiday	2022-10-09T00:00:00	8:00:00	9:00:00	37	46	2027	2700	0.75
14088	CCTV25 แจ้งวัฒนะ	13.7238599	100.5175447	exat	working	2022-10-09T00:00:00	9:00:00	10:00:00	32	43	1934	2700	0.72
14089	CCTV25 แจ้งวัฒนะ	13.7238599	100.5175447	exat	working	2022-10-09T00:00:00	10:00:00	11:00:00	33	41	1889	2700	0.70
14090	CCTV25 แจ้งวัฒนะ	13.7238599	100.5175447	exat	holiday	2022-10-09T00:00:00	11:00:00	12:00:00	34	61	2733	2700	1.01
14091	CCTV25 แจ้งวัฒนะ	13.7238599	100.5175447	exat	working	2022-10-09T00:00:00	12:00:00	13:00:00	32	43	1851	2700	0.69
14092	CCTV25 แจ้งวัฒนะ	13.7238599	100.5175447	exat	working	2022-10-09T00:00:00	13:00:00	14:00:00	36	45	1887	2700	0.70
14093	CCTV25 แจ้งวัฒนะ	13.7238599	100.5175447	exat	working	2022-10-09T00:00:00	14:00:00	15:00:00	32	41	1960	2700	0.73
14094	CCTV25 แจ้งวัฒนะ	13.7238599	100.5175447	exat	working	2022-10-09T00:00:00	15:00:00	16:00:00	33	43	1934	2700	0.72
14095	CCTV25 แจ้งวัฒนะ	13.7238599	100.5175447	exat	holiday	2022-10-09T00:00:00	16:00:00	17:00:00	32	59	4009	2700	1.48
14096	CCTV25 แจ้งวัฒนะ	13.7238599	100.5175447	exat	holiday	2022-10-09T00:00:00	17:00:00	18:00:00	36	55	3281	2700	1.22
14097	CCTV25 แจ้งวัฒนะ	13.7238599	100.5175447	exat	holiday	2022-10-09T00:00:00	18:00:00	19:00:00	58	31	2391	2700	0.89
14098	CCTV25 แจ้งวัฒนะ	13.7238599	100.5175447	exat	working	2022-11-09T00:00:00	5:00:00	6:00:00	29	39	133	2700	0.05
14099	CCTV25 แจ้งวัฒนะ	13.7238599	100.5175447	exat	holiday	2022-11-09T00:00:00	6:00:00	7:00:00	21	121	434	2700	0.16
14100	CCTV25 แจ้งวัฒนะ	13.7238599	100.5175447	exat	holiday	2022-11-09T00:00:00	7:00:00	8:00:00	21	122	349	2700	0.13
14101	CCTV25 แจ้งวัฒนะ	13.7238599	100.5175447	exat	holiday	2022-11-09T00:00:00	8:00:00	9:00:00	23	28	1218	2700	0.45
14102	CCTV25 แจ้งวัฒนะ	13.7238599	100.5175447	exat	working	2022-11-09T00:00:00	9:00:00	10:00:00	20	121	1163	2700	0.43
14103	CCTV25 แจ้งวัฒนะ	13.7238599	100.5175447	exat	working	2022-11-09T00:00:00	10:00:00	11:00:00	20	121	1146	2700	0.42
14104	CCTV25 แจ้งวัฒนะ	13.7238599	100.5175447	exat	holiday	2022-11-09T00:00:00	11:00:00	12:00:00	21	121	1647	2700	0.61
14105	CCTV25 แจ้งวัฒนะ	13.7238599	100.5175447	exat	working	2022-11-09T00:00:00	12:00:00	13:00:00	19	122	1102	2700	0.41
14106	CCTV25 แจ้งวัฒนะ	13.7238599	100.5175447	exat	working	2022-11-09T00:00:00	13:00:00	14:00:00	22	27	1114	2700	0.41
14107	CCTV25 แจ้งวัฒนะ	13.7238599	100.5175447	exat	working	2022-11-09T00:00:00	14:00:00	15:00:00	19	121	1186	2700	0.44
14108	CCTV25 แจ้งวัฒนะ	13.7238599	100.5175447	exat	working	2022-11-09T00:00:00	15:00:00	16:00:00	20	121	1158	2700	0.43
14109	CCTV25 แจ้งวัฒนะ	13.7238599	100.5175447	exat	holiday	2022-11-09T00:00:00	16:00:00	17:00:00	20	121	2415	2700	0.89
14110	CCTV25 แจ้งวัฒนะ	13.7238599	100.5175447	exat	holiday	2022-11-09T00:00:00	17:00:00	18:00:00	22	33	1951	2700	0.72
14111	CCTV25 แจ้งวัฒนะ	13.7238599	100.5175447	exat	holiday	2022-11-09T00:00:00	18:00:00	19:00:00	35	19	1407	2700	0.52
14112	CCTV26 โรงกรองน้ำ	13.7649883	100.5270622	exat	working	2022-05-09T00:00:00	5:00:00	6:00:00	47	13	604	2700	0.22
14113	CCTV26 โรงกรองน้ำ	13.7649883	100.5270622	exat	working	2022-05-09T00:00:00	6:00:00	7:00:00	33	40	1802	2700	0.67
14114	CCTV26 โรงกรองน้ำ	13.7649883	100.5270622	exat	working	2022-05-09T00:00:00	7:00:00	8:00:00	29	73	3092	2700	1.15
14115	CCTV26 โรงกรองน้ำ	13.7649883	100.5270622	exat	working	2022-05-09T00:00:00	8:00:00	9:00:00	31	87	2553	2700	0.95
14116	CCTV26 โรงกรองน้ำ	13.7649883	100.5270622	exat	working	2022-05-09T00:00:00	9:00:00	10:00:00	29	82	2489	2700	0.92
14117	CCTV26 โรงกรองน้ำ	13.7649883	100.5270622	exat	working	2022-05-09T00:00:00	10:00:00	11:00:00	26	80	2384	2700	0.88
14118	CCTV26 โรงกรองน้ำ	13.7649883	100.5270622	exat	working	2022-05-09T00:00:00	11:00:00	12:00:00	21	122	6572	2700	2.43
14119	CCTV26 โรงกรองน้ำ	13.7649883	100.5270622	exat	working	2022-05-09T00:00:00	12:00:00	13:00:00	26	83	2439	2700	0.90
14120	CCTV26 โรงกรองน้ำ	13.7649883	100.5270622	exat	working	2022-05-09T00:00:00	13:00:00	14:00:00	27	87	2528	2700	0.94
14121	CCTV26 โรงกรองน้ำ	13.7649883	100.5270622	exat	working	2022-05-09T00:00:00	14:00:00	15:00:00	29	85	2532	2700	0.94
14122	CCTV26 โรงกรองน้ำ	13.7649883	100.5270622	exat	working	2022-05-09T00:00:00	15:00:00	16:00:00	29	87	2552	2700	0.95
14123	CCTV26 โรงกรองน้ำ	13.7649883	100.5270622	exat	working	2022-05-09T00:00:00	16:00:00	17:00:00	27	88	4195	2700	1.55
14124	CCTV26 โรงกรองน้ำ	13.7649883	100.5270622	exat	working	2022-05-09T00:00:00	17:00:00	18:00:00	20	121	5247	2700	1.94
14125	CCTV26 โรงกรองน้ำ	13.7649883	100.5270622	exat	working	2022-05-09T00:00:00	18:00:00	19:00:00	27	87	2892	2700	1.07
14126	CCTV26 โรงกรองน้ำ	13.7649883	100.5270622	exat	working	2022-06-09T00:00:00	5:00:00	6:00:00	46	13	636	2700	0.24
14127	CCTV26 โรงกรองน้ำ	13.7649883	100.5270622	exat	working	2022-06-09T00:00:00	6:00:00	7:00:00	33	40	1835	2700	0.68
14128	CCTV26 โรงกรองน้ำ	13.7649883	100.5270622	exat	working	2022-06-09T00:00:00	7:00:00	8:00:00	29	73	3105	2700	1.15
14129	CCTV26 โรงกรองน้ำ	13.7649883	100.5270622	exat	working	2022-06-09T00:00:00	8:00:00	9:00:00	31	87	2554	2700	0.95
14130	CCTV26 โรงกรองน้ำ	13.7649883	100.5270622	exat	working	2022-06-09T00:00:00	9:00:00	10:00:00	29	83	2435	2700	0.90
14131	CCTV26 โรงกรองน้ำ	13.7649883	100.5270622	exat	working	2022-06-09T00:00:00	10:00:00	11:00:00	27	82	2404	2700	0.89
14132	CCTV26 โรงกรองน้ำ	13.7649883	100.5270622	exat	working	2022-06-09T00:00:00	11:00:00	12:00:00	27	118	4386	2700	1.62
14133	CCTV26 โรงกรองน้ำ	13.7649883	100.5270622	exat	working	2022-06-09T00:00:00	12:00:00	13:00:00	28	83	2428	2700	0.90
14134	CCTV26 โรงกรองน้ำ	13.7649883	100.5270622	exat	working	2022-06-09T00:00:00	13:00:00	14:00:00	28	86	2508	2700	0.93
14135	CCTV26 โรงกรองน้ำ	13.7649883	100.5270622	exat	working	2022-06-09T00:00:00	14:00:00	15:00:00	29	83	2495	2700	0.92
14136	CCTV26 โรงกรองน้ำ	13.7649883	100.5270622	exat	working	2022-06-09T00:00:00	15:00:00	16:00:00	29	86	2515	2700	0.93
14137	CCTV26 โรงกรองน้ำ	13.7649883	100.5270622	exat	working	2022-06-09T00:00:00	16:00:00	17:00:00	28	79	4378	2700	1.62
14138	CCTV26 โรงกรองน้ำ	13.7649883	100.5270622	exat	working	2022-06-09T00:00:00	17:00:00	18:00:00	26	104	4674	2700	1.73
14139	CCTV26 โรงกรองน้ำ	13.7649883	100.5270622	exat	working	2022-06-09T00:00:00	18:00:00	19:00:00	47	66	2470	2700	0.91
14140	CCTV26 โรงกรองน้ำ	13.7649883	100.5270622	exat	working	2022-07-09T00:00:00	5:00:00	6:00:00	47	14	631	2700	0.23
14141	CCTV26 โรงกรองน้ำ	13.7649883	100.5270622	exat	working	2022-07-09T00:00:00	6:00:00	7:00:00	33	40	1819	2700	0.67
14142	CCTV26 โรงกรองน้ำ	13.7649883	100.5270622	exat	working	2022-07-09T00:00:00	7:00:00	8:00:00	29	73	3094	2700	1.15
14143	CCTV26 โรงกรองน้ำ	13.7649883	100.5270622	exat	working	2022-07-09T00:00:00	8:00:00	9:00:00	31	87	2573	2700	0.95
14144	CCTV26 โรงกรองน้ำ	13.7649883	100.5270622	exat	working	2022-07-09T00:00:00	9:00:00	10:00:00	29	84	2421	2700	0.90
14145	CCTV26 โรงกรองน้ำ	13.7649883	100.5270622	exat	working	2022-07-09T00:00:00	10:00:00	11:00:00	27	84	2417	2700	0.90
14146	CCTV26 โรงกรองน้ำ	13.7649883	100.5270622	exat	working	2022-07-09T00:00:00	11:00:00	12:00:00	32	63	2190	2700	0.81
14147	CCTV26 โรงกรองน้ำ	13.7649883	100.5270622	exat	working	2022-07-09T00:00:00	12:00:00	13:00:00	30	84	2420	2700	0.90
14148	CCTV26 โรงกรองน้ำ	13.7649883	100.5270622	exat	working	2022-07-09T00:00:00	13:00:00	14:00:00	30	86	2443	2700	0.90
14149	CCTV26 โรงกรองน้ำ	13.7649883	100.5270622	exat	working	2022-07-09T00:00:00	14:00:00	15:00:00	29	82	2435	2700	0.90
14150	CCTV26 โรงกรองน้ำ	13.7649883	100.5270622	exat	working	2022-07-09T00:00:00	15:00:00	16:00:00	29	84	2455	2700	0.91
14151	CCTV26 โรงกรองน้ำ	13.7649883	100.5270622	exat	working	2022-07-09T00:00:00	16:00:00	17:00:00	29	71	4551	2700	1.69
14152	CCTV26 โรงกรองน้ำ	13.7649883	100.5270622	exat	working	2022-07-09T00:00:00	17:00:00	18:00:00	31	68	4018	2700	1.49
14153	CCTV26 โรงกรองน้ำ	13.7649883	100.5270622	exat	working	2022-07-09T00:00:00	18:00:00	19:00:00	67	44	2018	2700	0.75
14154	CCTV26 โรงกรองน้ำ	13.7649883	100.5270622	exat	working	2022-08-09T00:00:00	5:00:00	6:00:00	52	19	1056	2700	0.39
14155	CCTV26 โรงกรองน้ำ	13.7649883	100.5270622	exat	working	2022-08-09T00:00:00	6:00:00	7:00:00	37	56	3467	2700	1.28
14156	CCTV26 โรงกรองน้ำ	13.7649883	100.5270622	exat	working	2022-08-09T00:00:00	7:00:00	8:00:00	32	63	3366	2700	1.25
14157	CCTV26 โรงกรองน้ำ	13.7649883	100.5270622	exat	working	2022-08-09T00:00:00	8:00:00	9:00:00	33	81	3388	2700	1.25
14158	CCTV26 โรงกรองน้ำ	13.7649883	100.5270622	exat	working	2022-08-09T00:00:00	9:00:00	10:00:00	31	79	3256	2700	1.21
14159	CCTV26 โรงกรองน้ำ	13.7649883	100.5270622	exat	working	2022-08-09T00:00:00	10:00:00	11:00:00	29	78	3242	2700	1.20
14160	CCTV26 โรงกรองน้ำ	13.7649883	100.5270622	exat	working	2022-08-09T00:00:00	11:00:00	12:00:00	40	68	3358	2700	1.24
14161	CCTV26 โรงกรองน้ำ	13.7649883	100.5270622	exat	working	2022-08-09T00:00:00	12:00:00	13:00:00	30	78	3317	2700	1.23
14162	CCTV26 โรงกรองน้ำ	13.7649883	100.5270622	exat	working	2022-08-09T00:00:00	13:00:00	14:00:00	30	80	3280	2700	1.21
14163	CCTV26 โรงกรองน้ำ	13.7649883	100.5270622	exat	working	2022-08-09T00:00:00	14:00:00	15:00:00	31	77	3273	2700	1.21
14164	CCTV26 โรงกรองน้ำ	13.7649883	100.5270622	exat	working	2022-08-09T00:00:00	15:00:00	16:00:00	30	79	3321	2700	1.23
14165	CCTV26 โรงกรองน้ำ	13.7649883	100.5270622	exat	working	2022-08-09T00:00:00	16:00:00	17:00:00	34	62	4024	2700	1.49
14166	CCTV26 โรงกรองน้ำ	13.7649883	100.5270622	exat	working	2022-08-09T00:00:00	17:00:00	18:00:00	29	64	3922	2700	1.45
14167	CCTV26 โรงกรองน้ำ	13.7649883	100.5270622	exat	working	2022-08-09T00:00:00	18:00:00	19:00:00	53	36	1828	2700	0.68
14168	CCTV26 โรงกรองน้ำ	13.7649883	100.5270622	exat	working	2022-09-09T00:00:00	5:00:00	6:00:00	56	24	1624	2700	0.60
14169	CCTV26 โรงกรองน้ำ	13.7649883	100.5270622	exat	working	2022-09-09T00:00:00	6:00:00	7:00:00	40	71	5115	2700	1.89
14170	CCTV26 โรงกรองน้ำ	13.7649883	100.5270622	exat	working	2022-09-09T00:00:00	7:00:00	8:00:00	35	52	3641	2700	1.35
14171	CCTV26 โรงกรองน้ำ	13.7649883	100.5270622	exat	working	2022-09-09T00:00:00	8:00:00	9:00:00	34	75	4198	2700	1.55
14172	CCTV26 โรงกรองน้ำ	13.7649883	100.5270622	exat	working	2022-09-09T00:00:00	9:00:00	10:00:00	32	74	4098	2700	1.52
14173	CCTV26 โรงกรองน้ำ	13.7649883	100.5270622	exat	working	2022-09-09T00:00:00	10:00:00	11:00:00	30	72	4066	2700	1.51
14174	CCTV26 โรงกรองน้ำ	13.7649883	100.5270622	exat	working	2022-09-09T00:00:00	11:00:00	12:00:00	47	73	4555	2700	1.69
14175	CCTV26 โรงกรองน้ำ	13.7649883	100.5270622	exat	working	2022-09-09T00:00:00	12:00:00	13:00:00	30	72	4167	2700	1.54
14176	CCTV26 โรงกรองน้ำ	13.7649883	100.5270622	exat	working	2022-09-09T00:00:00	13:00:00	14:00:00	29	74	4180	2700	1.55
14177	CCTV26 โรงกรองน้ำ	13.7649883	100.5270622	exat	working	2022-09-09T00:00:00	14:00:00	15:00:00	33	72	4176	2700	1.55
14178	CCTV26 โรงกรองน้ำ	13.7649883	100.5270622	exat	working	2022-09-09T00:00:00	15:00:00	16:00:00	32	73	4187	2700	1.55
14179	CCTV26 โรงกรองน้ำ	13.7649883	100.5270622	exat	working	2022-09-09T00:00:00	16:00:00	17:00:00	39	53	3454	2700	1.28
14180	CCTV26 โรงกรองน้ำ	13.7649883	100.5270622	exat	working	2022-09-09T00:00:00	17:00:00	18:00:00	27	61	3826	2700	1.42
14181	CCTV26 โรงกรองน้ำ	13.7649883	100.5270622	exat	working	2022-09-09T00:00:00	18:00:00	19:00:00	39	27	1654	2700	0.61
14182	CCTV26 โรงกรองน้ำ	13.7649883	100.5270622	exat	working	2022-10-09T00:00:00	5:00:00	6:00:00	62	5	167	2700	0.06
14183	CCTV26 โรงกรองน้ำ	13.7649883	100.5270622	exat	holiday	2022-10-09T00:00:00	6:00:00	7:00:00	44	16	547	2700	0.20
14184	CCTV26 โรงกรองน้ำ	13.7649883	100.5270622	exat	holiday	2022-10-09T00:00:00	7:00:00	8:00:00	44	20	912	2700	0.34
14185	CCTV26 โรงกรองน้ำ	13.7649883	100.5270622	exat	holiday	2022-10-09T00:00:00	8:00:00	9:00:00	45	33	1644	2700	0.61
14186	CCTV26 โรงกรองน้ำ	13.7649883	100.5270622	exat	working	2022-10-09T00:00:00	9:00:00	10:00:00	40	29	1470	2700	0.54
14187	CCTV26 โรงกรองน้ำ	13.7649883	100.5270622	exat	working	2022-10-09T00:00:00	10:00:00	11:00:00	43	31	1502	2700	0.56
14188	CCTV26 โรงกรองน้ำ	13.7649883	100.5270622	exat	holiday	2022-10-09T00:00:00	11:00:00	12:00:00	32	64	4196	2700	1.55
14189	CCTV26 โรงกรองน้ำ	13.7649883	100.5270622	exat	working	2022-10-09T00:00:00	12:00:00	13:00:00	40	28	1544	2700	0.57
14190	CCTV26 โรงกรองน้ำ	13.7649883	100.5270622	exat	working	2022-10-09T00:00:00	13:00:00	14:00:00	42	29	1565	2700	0.58
14191	CCTV26 โรงกรองน้ำ	13.7649883	100.5270622	exat	working	2022-10-09T00:00:00	14:00:00	15:00:00	42	31	1629	2700	0.60
14192	CCTV26 โรงกรองน้ำ	13.7649883	100.5270622	exat	working	2022-10-09T00:00:00	15:00:00	16:00:00	43	29	1592	2700	0.59
14193	CCTV26 โรงกรองน้ำ	13.7649883	100.5270622	exat	holiday	2022-10-09T00:00:00	16:00:00	17:00:00	33	43	3105	2700	1.15
14194	CCTV26 โรงกรองน้ำ	13.7649883	100.5270622	exat	holiday	2022-10-09T00:00:00	17:00:00	18:00:00	24	72	3279	2700	1.21
14195	CCTV26 โรงกรองน้ำ	13.7649883	100.5270622	exat	working	2022-10-09T00:00:00	18:00:00	19:00:00	39	27	1624	2700	0.60
14196	CCTV26 โรงกรองน้ำ	13.7649883	100.5270622	exat	working	2022-11-09T00:00:00	5:00:00	6:00:00	38	3	107	2700	0.04
14197	CCTV26 โรงกรองน้ำ	13.7649883	100.5270622	exat	holiday	2022-11-09T00:00:00	6:00:00	7:00:00	27	10	317	2700	0.12
14198	CCTV26 โรงกรองน้ำ	13.7649883	100.5270622	exat	holiday	2022-11-09T00:00:00	7:00:00	8:00:00	27	12	555	2700	0.21
14199	CCTV26 โรงกรองน้ำ	13.7649883	100.5270622	exat	holiday	2022-11-09T00:00:00	8:00:00	9:00:00	27	20	990	2700	0.37
14200	CCTV26 โรงกรองน้ำ	13.7649883	100.5270622	exat	working	2022-11-09T00:00:00	9:00:00	10:00:00	24	18	881	2700	0.33
14201	CCTV26 โรงกรองน้ำ	13.7649883	100.5270622	exat	working	2022-11-09T00:00:00	10:00:00	11:00:00	26	19	914	2700	0.34
14202	CCTV26 โรงกรองน้ำ	13.7649883	100.5270622	exat	holiday	2022-11-09T00:00:00	11:00:00	12:00:00	19	121	2533	2700	0.94
14203	CCTV26 โรงกรองน้ำ	13.7649883	100.5270622	exat	working	2022-11-09T00:00:00	12:00:00	13:00:00	24	17	927	2700	0.34
14204	CCTV26 โรงกรองน้ำ	13.7649883	100.5270622	exat	working	2022-11-09T00:00:00	13:00:00	14:00:00	25	17	955	2700	0.35
14205	CCTV26 โรงกรองน้ำ	13.7649883	100.5270622	exat	working	2022-11-09T00:00:00	14:00:00	15:00:00	25	19	993	2700	0.37
14206	CCTV26 โรงกรองน้ำ	13.7649883	100.5270622	exat	working	2022-11-09T00:00:00	15:00:00	16:00:00	26	18	964	2700	0.36
14207	CCTV26 โรงกรองน้ำ	13.7649883	100.5270622	exat	holiday	2022-11-09T00:00:00	16:00:00	17:00:00	20	121	1855	2700	0.69
14208	CCTV26 โรงกรองน้ำ	13.7649883	100.5270622	exat	holiday	2022-11-09T00:00:00	17:00:00	18:00:00	15	121	1942	2700	0.72
14209	CCTV26 โรงกรองน้ำ	13.7649883	100.5270622	exat	working	2022-11-09T00:00:00	18:00:00	19:00:00	24	16	984	2700	0.36
14210	CCTV34 ทางลงสีลม(เลิศสิน) 	13.7379294	100.5192347	exat	working	2022-05-09T00:00:00	5:00:00	6:00:00	110	24	1228	2700	0.45
14211	CCTV34 ทางลงสีลม(เลิศสิน) 	13.7379294	100.5192347	exat	working	2022-05-09T00:00:00	6:00:00	7:00:00	77	73	3653	2700	1.35
14212	CCTV34 ทางลงสีลม(เลิศสิน) 	13.7379294	100.5192347	exat	working	2022-05-09T00:00:00	7:00:00	8:00:00	70	57	4210	2700	1.56
14213	CCTV34 ทางลงสีลม(เลิศสิน) 	13.7379294	100.5192347	exat	working	2022-05-09T00:00:00	8:00:00	9:00:00	65	112	5466	2700	2.02
14214	CCTV34 ทางลงสีลม(เลิศสิน) 	13.7379294	100.5192347	exat	working	2022-05-09T00:00:00	9:00:00	10:00:00	63	107	5505	2700	2.04
14215	CCTV34 ทางลงสีลม(เลิศสิน) 	13.7379294	100.5192347	exat	working	2022-05-09T00:00:00	10:00:00	11:00:00	64	110	5484	2700	2.03
14216	CCTV34 ทางลงสีลม(เลิศสิน) 	13.7379294	100.5192347	exat	working	2022-05-09T00:00:00	11:00:00	12:00:00	64	46	2361	2700	0.87
14217	CCTV34 ทางลงสีลม(เลิศสิน) 	13.7379294	100.5192347	exat	working	2022-05-09T00:00:00	12:00:00	13:00:00	62	110	5391	2700	2.00
14218	CCTV34 ทางลงสีลม(เลิศสิน) 	13.7379294	100.5192347	exat	working	2022-05-09T00:00:00	13:00:00	14:00:00	60	107	5469	2700	2.03
14219	CCTV34 ทางลงสีลม(เลิศสิน) 	13.7379294	100.5192347	exat	working	2022-05-09T00:00:00	14:00:00	15:00:00	62	112	5484	2700	2.03
14220	CCTV34 ทางลงสีลม(เลิศสิน) 	13.7379294	100.5192347	exat	working	2022-05-09T00:00:00	15:00:00	16:00:00	62	107	5437	2700	2.01
14221	CCTV34 ทางลงสีลม(เลิศสิน) 	13.7379294	100.5192347	exat	working	2022-05-09T00:00:00	16:00:00	17:00:00	64	57	894	2700	0.33
14222	CCTV34 ทางลงสีลม(เลิศสิน) 	13.7379294	100.5192347	exat	working	2022-05-09T00:00:00	17:00:00	18:00:00	66	90	3720	2700	1.38
14223	CCTV34 ทางลงสีลม(เลิศสิน) 	13.7379294	100.5192347	exat	working	2022-05-09T00:00:00	18:00:00	19:00:00	59	119	4549	2700	1.68
14224	CCTV34 ทางลงสีลม(เลิศสิน) 	13.7379294	100.5192347	exat	working	2022-06-09T00:00:00	5:00:00	6:00:00	111	22	1198	2700	0.44
14225	CCTV34 ทางลงสีลม(เลิศสิน) 	13.7379294	100.5192347	exat	working	2022-06-09T00:00:00	6:00:00	7:00:00	77	73	3628	2700	1.34
14226	CCTV34 ทางลงสีลม(เลิศสิน) 	13.7379294	100.5192347	exat	working	2022-06-09T00:00:00	7:00:00	8:00:00	70	57	4192	2700	1.55
14227	CCTV34 ทางลงสีลม(เลิศสิน) 	13.7379294	100.5192347	exat	working	2022-06-09T00:00:00	8:00:00	9:00:00	65	113	5502	2700	2.04
14228	CCTV34 ทางลงสีลม(เลิศสิน) 	13.7379294	100.5192347	exat	working	2022-06-09T00:00:00	9:00:00	10:00:00	64	107	5382	2700	1.99
14229	CCTV34 ทางลงสีลม(เลิศสิน) 	13.7379294	100.5192347	exat	working	2022-06-09T00:00:00	10:00:00	11:00:00	64	110	5432	2700	2.01
14230	CCTV34 ทางลงสีลม(เลิศสิน) 	13.7379294	100.5192347	exat	working	2022-06-09T00:00:00	11:00:00	12:00:00	67	50	2001	2700	0.74
14231	CCTV34 ทางลงสีลม(เลิศสิน) 	13.7379294	100.5192347	exat	working	2022-06-09T00:00:00	12:00:00	13:00:00	63	108	5382	2700	1.99
14232	CCTV34 ทางลงสีลม(เลิศสิน) 	13.7379294	100.5192347	exat	working	2022-06-09T00:00:00	13:00:00	14:00:00	62	107	5441	2700	2.02
14233	CCTV34 ทางลงสีลม(เลิศสิน) 	13.7379294	100.5192347	exat	working	2022-06-09T00:00:00	14:00:00	15:00:00	61	109	5366	2700	1.99
14234	CCTV34 ทางลงสีลม(เลิศสิน) 	13.7379294	100.5192347	exat	working	2022-06-09T00:00:00	15:00:00	16:00:00	62	107	5358	2700	1.98
14235	CCTV34 ทางลงสีลม(เลิศสิน) 	13.7379294	100.5192347	exat	working	2022-06-09T00:00:00	16:00:00	17:00:00	74	59	2285	2700	0.85
14236	CCTV34 ทางลงสีลม(เลิศสิน) 	13.7379294	100.5192347	exat	working	2022-06-09T00:00:00	17:00:00	18:00:00	67	63	2622	2700	0.97
14237	CCTV34 ทางลงสีลม(เลิศสิน) 	13.7379294	100.5192347	exat	working	2022-06-09T00:00:00	18:00:00	19:00:00	72	99	3267	2700	1.21
14238	CCTV34 ทางลงสีลม(เลิศสิน) 	13.7379294	100.5192347	exat	working	2022-07-09T00:00:00	5:00:00	6:00:00	109	26	1265	2700	0.47
14239	CCTV34 ทางลงสีลม(เลิศสิน) 	13.7379294	100.5192347	exat	working	2022-07-09T00:00:00	6:00:00	7:00:00	77	73	3641	2700	1.35
14240	CCTV34 ทางลงสีลม(เลิศสิน) 	13.7379294	100.5192347	exat	working	2022-07-09T00:00:00	7:00:00	8:00:00	70	57	4208	2700	1.56
14241	CCTV34 ทางลงสีลม(เลิศสิน) 	13.7379294	100.5192347	exat	working	2022-07-09T00:00:00	8:00:00	9:00:00	65	112	5478	2700	2.03
14242	CCTV34 ทางลงสีลม(เลิศสิน) 	13.7379294	100.5192347	exat	working	2022-07-09T00:00:00	9:00:00	10:00:00	64	108	5332	2700	1.97
14243	CCTV34 ทางลงสีลม(เลิศสิน) 	13.7379294	100.5192347	exat	working	2022-07-09T00:00:00	10:00:00	11:00:00	63	110	5473	2700	2.03
14244	CCTV34 ทางลงสีลม(เลิศสิน) 	13.7379294	100.5192347	exat	working	2022-07-09T00:00:00	11:00:00	12:00:00	70	53	1636	2700	0.61
14245	CCTV34 ทางลงสีลม(เลิศสิน) 	13.7379294	100.5192347	exat	working	2022-07-09T00:00:00	12:00:00	13:00:00	64	108	5366	2700	1.99
14246	CCTV34 ทางลงสีลม(เลิศสิน) 	13.7379294	100.5192347	exat	working	2022-07-09T00:00:00	13:00:00	14:00:00	64	107	5425	2700	2.01
14247	CCTV34 ทางลงสีลม(เลิศสิน) 	13.7379294	100.5192347	exat	working	2022-07-09T00:00:00	14:00:00	15:00:00	61	108	5266	2700	1.95
14248	CCTV34 ทางลงสีลม(เลิศสิน) 	13.7379294	100.5192347	exat	working	2022-07-09T00:00:00	15:00:00	16:00:00	62	108	5307	2700	1.97
14249	CCTV34 ทางลงสีลม(เลิศสิน) 	13.7379294	100.5192347	exat	working	2022-07-09T00:00:00	16:00:00	17:00:00	84	62	3679	2700	1.36
14250	CCTV34 ทางลงสีลม(เลิศสิน) 	13.7379294	100.5192347	exat	working	2022-07-09T00:00:00	17:00:00	18:00:00	68	37	1447	2700	0.54
14251	CCTV34 ทางลงสีลม(เลิศสิน) 	13.7379294	100.5192347	exat	working	2022-07-09T00:00:00	18:00:00	19:00:00	85	79	2003	2700	0.74
14252	CCTV34 ทางลงสีลม(เลิศสิน) 	13.7379294	100.5192347	exat	working	2022-08-09T00:00:00	5:00:00	6:00:00	114	19	1091	2700	0.40
14253	CCTV34 ทางลงสีลม(เลิศสิน) 	13.7379294	100.5192347	exat	working	2022-08-09T00:00:00	6:00:00	7:00:00	80	62	3291	2700	1.22
14254	CCTV34 ทางลงสีลม(เลิศสิน) 	13.7379294	100.5192347	exat	working	2022-08-09T00:00:00	7:00:00	8:00:00	78	51	2822	2700	1.05
14255	CCTV34 ทางลงสีลม(เลิศสิน) 	13.7379294	100.5192347	exat	working	2022-08-09T00:00:00	8:00:00	9:00:00	71	76	3836	2700	1.42
14256	CCTV34 ทางลงสีลม(เลิศสิน) 	13.7379294	100.5192347	exat	working	2022-08-09T00:00:00	9:00:00	10:00:00	68	73	3722	2700	1.38
14257	CCTV34 ทางลงสีลม(เลิศสิน) 	13.7379294	100.5192347	exat	working	2022-08-09T00:00:00	10:00:00	11:00:00	69	74	3777	2700	1.40
14258	CCTV34 ทางลงสีลม(เลิศสิน) 	13.7379294	100.5192347	exat	working	2022-08-09T00:00:00	11:00:00	12:00:00	71	61	3277	2700	1.21
14259	CCTV34 ทางลงสีลม(เลิศสิน) 	13.7379294	100.5192347	exat	working	2022-08-09T00:00:00	12:00:00	13:00:00	68	74	3760	2700	1.39
14260	CCTV34 ทางลงสีลม(เลิศสิน) 	13.7379294	100.5192347	exat	working	2022-08-09T00:00:00	13:00:00	14:00:00	70	72	3810	2700	1.41
14261	CCTV34 ทางลงสีลม(เลิศสิน) 	13.7379294	100.5192347	exat	working	2022-08-09T00:00:00	14:00:00	15:00:00	67	73	3702	2700	1.37
14262	CCTV34 ทางลงสีลม(เลิศสิน) 	13.7379294	100.5192347	exat	working	2022-08-09T00:00:00	15:00:00	16:00:00	69	74	3752	2700	1.39
14263	CCTV34 ทางลงสีลม(เลิศสิน) 	13.7379294	100.5192347	exat	working	2022-08-09T00:00:00	16:00:00	17:00:00	77	57	3699	2700	1.37
14264	CCTV34 ทางลงสีลม(เลิศสิน) 	13.7379294	100.5192347	exat	working	2022-08-09T00:00:00	17:00:00	18:00:00	77	43	2860	2700	1.06
14265	CCTV34 ทางลงสีลม(เลิศสิน) 	13.7379294	100.5192347	exat	working	2022-08-09T00:00:00	18:00:00	19:00:00	85	70	2007	2700	0.74
14266	CCTV34 ทางลงสีลม(เลิศสิน) 	13.7379294	100.5192347	exat	working	2022-09-09T00:00:00	5:00:00	6:00:00	118	17	1010	2700	0.37
14267	CCTV34 ทางลงสีลม(เลิศสิน) 	13.7379294	100.5192347	exat	working	2022-09-09T00:00:00	6:00:00	7:00:00	82	52	2904	2700	1.08
14268	CCTV34 ทางลงสีลม(เลิศสิน) 	13.7379294	100.5192347	exat	working	2022-09-09T00:00:00	7:00:00	8:00:00	87	45	1468	2700	0.54
14269	CCTV34 ทางลงสีลม(เลิศสิน) 	13.7379294	100.5192347	exat	working	2022-09-09T00:00:00	8:00:00	9:00:00	77	41	2184	2700	0.81
14270	CCTV34 ทางลงสีลม(เลิศสิน) 	13.7379294	100.5192347	exat	working	2022-09-09T00:00:00	9:00:00	10:00:00	72	38	2105	2700	0.78
14271	CCTV34 ทางลงสีลม(เลิศสิน) 	13.7379294	100.5192347	exat	working	2022-09-09T00:00:00	10:00:00	11:00:00	76	38	2086	2700	0.77
14272	CCTV34 ทางลงสีลม(เลิศสิน) 	13.7379294	100.5192347	exat	working	2022-09-09T00:00:00	11:00:00	12:00:00	72	68	4943	2700	1.83
14273	CCTV34 ทางลงสีลม(เลิศสิน) 	13.7379294	100.5192347	exat	working	2022-09-09T00:00:00	12:00:00	13:00:00	72	39	2165	2700	0.80
14274	CCTV34 ทางลงสีลม(เลิศสิน) 	13.7379294	100.5192347	exat	working	2022-09-09T00:00:00	13:00:00	14:00:00	75	38	2159	2700	0.80
14275	CCTV34 ทางลงสีลม(เลิศสิน) 	13.7379294	100.5192347	exat	working	2022-09-09T00:00:00	14:00:00	15:00:00	73	37	2123	2700	0.79
14276	CCTV34 ทางลงสีลม(เลิศสิน) 	13.7379294	100.5192347	exat	working	2022-09-09T00:00:00	15:00:00	16:00:00	76	40	2175	2700	0.81
14277	CCTV34 ทางลงสีลม(เลิศสิน) 	13.7379294	100.5192347	exat	working	2022-09-09T00:00:00	16:00:00	17:00:00	70	51	3839	2700	1.42
14278	CCTV34 ทางลงสีลม(เลิศสิน) 	13.7379294	100.5192347	exat	working	2022-09-09T00:00:00	17:00:00	18:00:00	86	48	4192	2700	1.55
14279	CCTV34 ทางลงสีลม(เลิศสิน) 	13.7379294	100.5192347	exat	working	2022-09-09T00:00:00	18:00:00	19:00:00	86	62	2017	2700	0.75
14280	CCTV34 ทางลงสีลม(เลิศสิน) 	13.7379294	100.5192347	exat	working	2022-10-09T00:00:00	5:00:00	6:00:00	125	15	718	2700	0.27
14281	CCTV34 ทางลงสีลม(เลิศสิน) 	13.7379294	100.5192347	exat	holiday	2022-10-09T00:00:00	6:00:00	7:00:00	87	47	2198	2700	0.81
14282	CCTV34 ทางลงสีลม(เลิศสิน) 	13.7379294	100.5192347	exat	holiday	2022-10-09T00:00:00	7:00:00	8:00:00	87	43	2183	2700	0.81
14283	CCTV34 ทางลงสีลม(เลิศสิน) 	13.7379294	100.5192347	exat	holiday	2022-10-09T00:00:00	8:00:00	9:00:00	86	56	4930	2700	1.83
14284	CCTV34 ทางลงสีลม(เลิศสิน) 	13.7379294	100.5192347	exat	working	2022-10-09T00:00:00	9:00:00	10:00:00	82	52	4799	2700	1.78
14285	CCTV34 ทางลงสีลม(เลิศสิน) 	13.7379294	100.5192347	exat	working	2022-10-09T00:00:00	10:00:00	11:00:00	81	54	4986	2700	1.85
14286	CCTV34 ทางลงสีลม(เลิศสิน) 	13.7379294	100.5192347	exat	holiday	2022-10-09T00:00:00	11:00:00	12:00:00	84	35	2374	2700	0.88
14287	CCTV34 ทางลงสีลม(เลิศสิน) 	13.7379294	100.5192347	exat	working	2022-10-09T00:00:00	12:00:00	13:00:00	85	54	4830	2700	1.79
14288	CCTV34 ทางลงสีลม(เลิศสิน) 	13.7379294	100.5192347	exat	working	2022-10-09T00:00:00	13:00:00	14:00:00	82	53	4913	2700	1.82
14289	CCTV34 ทางลงสีลม(เลิศสิน) 	13.7379294	100.5192347	exat	working	2022-10-09T00:00:00	14:00:00	15:00:00	84	51	4819	2700	1.78
14290	CCTV34 ทางลงสีลม(เลิศสิน) 	13.7379294	100.5192347	exat	working	2022-10-09T00:00:00	15:00:00	16:00:00	84	55	4772	2700	1.77
14291	CCTV34 ทางลงสีลม(เลิศสิน) 	13.7379294	100.5192347	exat	holiday	2022-10-09T00:00:00	16:00:00	17:00:00	81	54	4000	2700	1.48
14292	CCTV34 ทางลงสีลม(เลิศสิน) 	13.7379294	100.5192347	exat	holiday	2022-10-09T00:00:00	17:00:00	18:00:00	49	124	4201	2700	1.56
14293	CCTV34 ทางลงสีลม(เลิศสิน) 	13.7379294	100.5192347	exat	holiday	2022-10-09T00:00:00	18:00:00	19:00:00	64	25	1646	2700	0.61
14294	CCTV34 ทางลงสีลม(เลิศสิน) 	13.7379294	100.5192347	exat	working	2022-11-09T00:00:00	5:00:00	6:00:00	74	10	440	2700	0.16
14295	CCTV34 ทางลงสีลม(เลิศสิน) 	13.7379294	100.5192347	exat	holiday	2022-11-09T00:00:00	6:00:00	7:00:00	52	29	1306	2700	0.48
14296	CCTV34 ทางลงสีลม(เลิศสิน) 	13.7379294	100.5192347	exat	holiday	2022-11-09T00:00:00	7:00:00	8:00:00	52	26	1309	2700	0.48
14297	CCTV34 ทางลงสีลม(เลิศสิน) 	13.7379294	100.5192347	exat	holiday	2022-11-09T00:00:00	8:00:00	9:00:00	52	34	2959	2700	1.10
14298	CCTV34 ทางลงสีลม(เลิศสิน) 	13.7379294	100.5192347	exat	working	2022-11-09T00:00:00	9:00:00	10:00:00	50	31	2905	2700	1.08
14299	CCTV34 ทางลงสีลม(เลิศสิน) 	13.7379294	100.5192347	exat	working	2022-11-09T00:00:00	10:00:00	11:00:00	49	33	2956	2700	1.09
14300	CCTV34 ทางลงสีลม(เลิศสิน) 	13.7379294	100.5192347	exat	holiday	2022-11-09T00:00:00	11:00:00	12:00:00	50	21	1429	2700	0.53
14301	CCTV34 ทางลงสีลม(เลิศสิน) 	13.7379294	100.5192347	exat	working	2022-11-09T00:00:00	12:00:00	13:00:00	51	33	2883	2700	1.07
14302	CCTV34 ทางลงสีลม(เลิศสิน) 	13.7379294	100.5192347	exat	working	2022-11-09T00:00:00	13:00:00	14:00:00	49	32	2968	2700	1.10
14303	CCTV34 ทางลงสีลม(เลิศสิน) 	13.7379294	100.5192347	exat	working	2022-11-09T00:00:00	14:00:00	15:00:00	51	31	2890	2700	1.07
14304	CCTV34 ทางลงสีลม(เลิศสิน) 	13.7379294	100.5192347	exat	working	2022-11-09T00:00:00	15:00:00	16:00:00	51	33	2886	2700	1.07
14305	CCTV34 ทางลงสีลม(เลิศสิน) 	13.7379294	100.5192347	exat	holiday	2022-11-09T00:00:00	16:00:00	17:00:00	49	33	2402	2700	0.89
14306	CCTV34 ทางลงสีลม(เลิศสิน) 	13.7379294	100.5192347	exat	holiday	2022-11-09T00:00:00	17:00:00	18:00:00	29	74	2524	2700	0.93
14307	CCTV34 ทางลงสีลม(เลิศสิน) 	13.7379294	100.5192347	exat	holiday	2022-11-09T00:00:00	18:00:00	19:00:00	39	15	984	2700	0.36
14308	CCTV28 เหนือรพ.รามา	13.7332062	100.5177293	exat	working	2022-05-09T00:00:00	5:00:00	6:00:00	75	8	520	1800	0.29
14309	CCTV28 เหนือรพ.รามา	13.7332062	100.5177293	exat	working	2022-05-09T00:00:00	6:00:00	7:00:00	54	24	1638	1800	0.91
14310	CCTV28 เหนือรพ.รามา	13.7332062	100.5177293	exat	working	2022-05-09T00:00:00	7:00:00	8:00:00	53	41	1994	1800	1.11
14311	CCTV28 เหนือรพ.รามา	13.7332062	100.5177293	exat	working	2022-05-09T00:00:00	8:00:00	9:00:00	52	43	1454	1800	0.81
14312	CCTV28 เหนือรพ.รามา	13.7332062	100.5177293	exat	working	2022-05-09T00:00:00	9:00:00	10:00:00	51	41	1460	1800	0.81
14313	CCTV28 เหนือรพ.รามา	13.7332062	100.5177293	exat	working	2022-05-09T00:00:00	10:00:00	11:00:00	47	41	1375	1800	0.76
14314	CCTV28 เหนือรพ.รามา	13.7332062	100.5177293	exat	working	2022-05-09T00:00:00	11:00:00	12:00:00	62	46	1628	1800	0.90
14315	CCTV28 เหนือรพ.รามา	13.7332062	100.5177293	exat	working	2022-05-09T00:00:00	12:00:00	13:00:00	47	41	1362	1800	0.76
14316	CCTV28 เหนือรพ.รามา	13.7332062	100.5177293	exat	working	2022-05-09T00:00:00	13:00:00	14:00:00	50	40	1416	1800	0.79
14317	CCTV28 เหนือรพ.รามา	13.7332062	100.5177293	exat	working	2022-05-09T00:00:00	14:00:00	15:00:00	51	41	1362	1800	0.76
14318	CCTV28 เหนือรพ.รามา	13.7332062	100.5177293	exat	working	2022-05-09T00:00:00	15:00:00	16:00:00	50	42	1450	1800	0.81
14319	CCTV28 เหนือรพ.รามา	13.7332062	100.5177293	exat	working	2022-05-09T00:00:00	16:00:00	17:00:00	71	37	1075	1800	0.60
14320	CCTV28 เหนือรพ.รามา	13.7332062	100.5177293	exat	working	2022-05-09T00:00:00	17:00:00	18:00:00	57	21	731	1800	0.41
14321	CCTV28 เหนือรพ.รามา	13.7332062	100.5177293	exat	working	2022-05-09T00:00:00	18:00:00	19:00:00	87	51	364	1800	0.20
14322	CCTV28 เหนือรพ.รามา	13.7332062	100.5177293	exat	working	2022-06-09T00:00:00	5:00:00	6:00:00	77	8	568	1800	0.32
14323	CCTV28 เหนือรพ.รามา	13.7332062	100.5177293	exat	working	2022-06-09T00:00:00	6:00:00	7:00:00	54	24	1633	1800	0.91
14324	CCTV28 เหนือรพ.รามา	13.7332062	100.5177293	exat	working	2022-06-09T00:00:00	7:00:00	8:00:00	53	41	2007	1800	1.12
14325	CCTV28 เหนือรพ.รามา	13.7332062	100.5177293	exat	working	2022-06-09T00:00:00	8:00:00	9:00:00	52	43	1473	1800	0.82
14326	CCTV28 เหนือรพ.รามา	13.7332062	100.5177293	exat	working	2022-06-09T00:00:00	9:00:00	10:00:00	51	41	1384	1800	0.77
14327	CCTV28 เหนือรพ.รามา	13.7332062	100.5177293	exat	working	2022-06-09T00:00:00	10:00:00	11:00:00	47	40	1350	1800	0.75
14328	CCTV28 เหนือรพ.รามา	13.7332062	100.5177293	exat	working	2022-06-09T00:00:00	11:00:00	12:00:00	62	46	1651	1800	0.92
14329	CCTV28 เหนือรพ.รามา	13.7332062	100.5177293	exat	working	2022-06-09T00:00:00	12:00:00	13:00:00	49	40	1373	1800	0.76
14330	CCTV28 เหนือรพ.รามา	13.7332062	100.5177293	exat	working	2022-06-09T00:00:00	13:00:00	14:00:00	50	40	1442	1800	0.80
14331	CCTV28 เหนือรพ.รามา	13.7332062	100.5177293	exat	working	2022-06-09T00:00:00	14:00:00	15:00:00	50	41	1393	1800	0.77
14332	CCTV28 เหนือรพ.รามา	13.7332062	100.5177293	exat	working	2022-06-09T00:00:00	15:00:00	16:00:00	50	41	1396	1800	0.78
14333	CCTV28 เหนือรพ.รามา	13.7332062	100.5177293	exat	working	2022-06-09T00:00:00	16:00:00	17:00:00	69	33	725	1800	0.40
14334	CCTV28 เหนือรพ.รามา	13.7332062	100.5177293	exat	working	2022-06-09T00:00:00	17:00:00	18:00:00	63	25	1001	1800	0.56
14335	CCTV28 เหนือรพ.รามา	13.7332062	100.5177293	exat	working	2022-06-09T00:00:00	18:00:00	19:00:00	71	32	366	1800	0.20
14336	CCTV28 เหนือรพ.รามา	13.7332062	100.5177293	exat	working	2022-07-09T00:00:00	5:00:00	6:00:00	76	8	526	1800	0.29
14337	CCTV28 เหนือรพ.รามา	13.7332062	100.5177293	exat	working	2022-07-09T00:00:00	6:00:00	7:00:00	54	24	1649	1800	0.92
14338	CCTV28 เหนือรพ.รามา	13.7332062	100.5177293	exat	working	2022-07-09T00:00:00	7:00:00	8:00:00	53	41	1996	1800	1.11
14339	CCTV28 เหนือรพ.รามา	13.7332062	100.5177293	exat	working	2022-07-09T00:00:00	8:00:00	9:00:00	52	43	1443	1800	0.80
14340	CCTV28 เหนือรพ.รามา	13.7332062	100.5177293	exat	working	2022-07-09T00:00:00	9:00:00	10:00:00	50	40	1324	1800	0.74
14341	CCTV28 เหนือรพ.รามา	13.7332062	100.5177293	exat	working	2022-07-09T00:00:00	10:00:00	11:00:00	48	39	1338	1800	0.74
14342	CCTV28 เหนือรพ.รามา	13.7332062	100.5177293	exat	working	2022-07-09T00:00:00	11:00:00	12:00:00	62	46	1645	1800	0.91
14343	CCTV28 เหนือรพ.รามา	13.7332062	100.5177293	exat	working	2022-07-09T00:00:00	12:00:00	13:00:00	50	39	1376	1800	0.76
14344	CCTV28 เหนือรพ.รามา	13.7332062	100.5177293	exat	working	2022-07-09T00:00:00	13:00:00	14:00:00	50	40	1475	1800	0.82
14345	CCTV28 เหนือรพ.รามา	13.7332062	100.5177293	exat	working	2022-07-09T00:00:00	14:00:00	15:00:00	49	41	1409	1800	0.78
14346	CCTV28 เหนือรพ.รามา	13.7332062	100.5177293	exat	working	2022-07-09T00:00:00	15:00:00	16:00:00	50	40	1381	1800	0.77
14347	CCTV28 เหนือรพ.รามา	13.7332062	100.5177293	exat	working	2022-07-09T00:00:00	16:00:00	17:00:00	67	28	374	1800	0.21
14348	CCTV28 เหนือรพ.รามา	13.7332062	100.5177293	exat	working	2022-07-09T00:00:00	17:00:00	18:00:00	68	29	1272	1800	0.71
14349	CCTV28 เหนือรพ.รามา	13.7332062	100.5177293	exat	working	2022-07-09T00:00:00	18:00:00	19:00:00	55	13	367	1800	0.20
14350	CCTV28 เหนือรพ.รามา	13.7332062	100.5177293	exat	working	2022-08-09T00:00:00	5:00:00	6:00:00	77	9	449	1800	0.25
14351	CCTV28 เหนือรพ.รามา	13.7332062	100.5177293	exat	working	2022-08-09T00:00:00	6:00:00	7:00:00	54	29	1459	1800	0.81
14352	CCTV28 เหนือรพ.รามา	13.7332062	100.5177293	exat	working	2022-08-09T00:00:00	7:00:00	8:00:00	56	40	1909	1800	1.06
14353	CCTV28 เหนือรพ.รามา	13.7332062	100.5177293	exat	working	2022-08-09T00:00:00	8:00:00	9:00:00	62	34	1548	1800	0.86
14354	CCTV28 เหนือรพ.รามา	13.7332062	100.5177293	exat	working	2022-08-09T00:00:00	9:00:00	10:00:00	61	30	1443	1800	0.80
14355	CCTV28 เหนือรพ.รามา	13.7332062	100.5177293	exat	working	2022-08-09T00:00:00	10:00:00	11:00:00	57	31	1463	1800	0.81
14356	CCTV28 เหนือรพ.รามา	13.7332062	100.5177293	exat	working	2022-08-09T00:00:00	11:00:00	12:00:00	59	57	1481	1800	0.82
14357	CCTV28 เหนือรพ.รามา	13.7332062	100.5177293	exat	working	2022-08-09T00:00:00	12:00:00	13:00:00	59	31	1499	1800	0.83
14358	CCTV28 เหนือรพ.รามา	13.7332062	100.5177293	exat	working	2022-08-09T00:00:00	13:00:00	14:00:00	60	30	1511	1800	0.84
14359	CCTV28 เหนือรพ.รามา	13.7332062	100.5177293	exat	working	2022-08-09T00:00:00	14:00:00	15:00:00	59	33	1442	1800	0.80
14360	CCTV28 เหนือรพ.รามา	13.7332062	100.5177293	exat	working	2022-08-09T00:00:00	15:00:00	16:00:00	58	32	1465	1800	0.81
14361	CCTV28 เหนือรพ.รามา	13.7332062	100.5177293	exat	working	2022-08-09T00:00:00	16:00:00	17:00:00	64	32	906	1800	0.50
14362	CCTV28 เหนือรพ.รามา	13.7332062	100.5177293	exat	working	2022-08-09T00:00:00	17:00:00	18:00:00	65	22	821	1800	0.46
14363	CCTV28 เหนือรพ.รามา	13.7332062	100.5177293	exat	working	2022-08-09T00:00:00	18:00:00	19:00:00	59	16	821	1800	0.46
14364	CCTV28 เหนือรพ.รามา	13.7332062	100.5177293	exat	working	2022-09-09T00:00:00	5:00:00	6:00:00	78	12	440	1800	0.24
14365	CCTV28 เหนือรพ.รามา	13.7332062	100.5177293	exat	working	2022-09-09T00:00:00	6:00:00	7:00:00	55	34	1275	1800	0.71
14366	CCTV28 เหนือรพ.รามา	13.7332062	100.5177293	exat	working	2022-09-09T00:00:00	7:00:00	8:00:00	58	39	1823	1800	1.01
14367	CCTV28 เหนือรพ.รามา	13.7332062	100.5177293	exat	working	2022-09-09T00:00:00	8:00:00	9:00:00	72	25	1665	1800	0.93
14368	CCTV28 เหนือรพ.รามา	13.7332062	100.5177293	exat	working	2022-09-09T00:00:00	9:00:00	10:00:00	71	21	1550	1800	0.86
14369	CCTV28 เหนือรพ.รามา	13.7332062	100.5177293	exat	working	2022-09-09T00:00:00	10:00:00	11:00:00	67	23	1555	1800	0.86
14370	CCTV28 เหนือรพ.รามา	13.7332062	100.5177293	exat	working	2022-09-09T00:00:00	11:00:00	12:00:00	56	68	1277	1800	0.71
14371	CCTV28 เหนือรพ.รามา	13.7332062	100.5177293	exat	working	2022-09-09T00:00:00	12:00:00	13:00:00	68	23	1583	1800	0.88
14372	CCTV28 เหนือรพ.รามา	13.7332062	100.5177293	exat	working	2022-09-09T00:00:00	13:00:00	14:00:00	71	20	1507	1800	0.84
14373	CCTV28 เหนือรพ.รามา	13.7332062	100.5177293	exat	working	2022-09-09T00:00:00	14:00:00	15:00:00	69	25	1469	1800	0.82
14374	CCTV28 เหนือรพ.รามา	13.7332062	100.5177293	exat	working	2022-09-09T00:00:00	15:00:00	16:00:00	67	23	1518	1800	0.84
14375	CCTV28 เหนือรพ.รามา	13.7332062	100.5177293	exat	working	2022-09-09T00:00:00	16:00:00	17:00:00	60	36	1459	1800	0.81
14376	CCTV28 เหนือรพ.รามา	13.7332062	100.5177293	exat	working	2022-09-09T00:00:00	17:00:00	18:00:00	62	14	358	1800	0.20
14377	CCTV28 เหนือรพ.รามา	13.7332062	100.5177293	exat	working	2022-09-09T00:00:00	18:00:00	19:00:00	64	19	1285	1800	0.71
14378	CCTV28 เหนือรพ.รามา	13.7332062	100.5177293	exat	working	2022-10-09T00:00:00	5:00:00	6:00:00	89	21	255	1800	0.14
14379	CCTV28 เหนือรพ.รามา	13.7332062	100.5177293	exat	holiday	2022-10-09T00:00:00	6:00:00	7:00:00	63	65	739	1800	0.41
14380	CCTV28 เหนือรพ.รามา	13.7332062	100.5177293	exat	holiday	2022-10-09T00:00:00	7:00:00	8:00:00	75	15	745	1800	0.41
14381	CCTV28 เหนือรพ.รามา	13.7332062	100.5177293	exat	holiday	2022-10-09T00:00:00	8:00:00	9:00:00	79	15	551	1800	0.31
14382	CCTV28 เหนือรพ.รามา	13.7332062	100.5177293	exat	working	2022-10-09T00:00:00	9:00:00	10:00:00	77	13	419	1800	0.23
14383	CCTV28 เหนือรพ.รามา	13.7332062	100.5177293	exat	working	2022-10-09T00:00:00	10:00:00	11:00:00	75	14	454	1800	0.25
14384	CCTV28 เหนือรพ.รามา	13.7332062	100.5177293	exat	holiday	2022-10-09T00:00:00	11:00:00	12:00:00	64	14	547	1800	0.30
14385	CCTV28 เหนือรพ.รามา	13.7332062	100.5177293	exat	working	2022-10-09T00:00:00	12:00:00	13:00:00	78	12	528	1800	0.29
14386	CCTV28 เหนือรพ.รามา	13.7332062	100.5177293	exat	working	2022-10-09T00:00:00	13:00:00	14:00:00	76	14	488	1800	0.27
14387	CCTV28 เหนือรพ.รามา	13.7332062	100.5177293	exat	working	2022-10-09T00:00:00	14:00:00	15:00:00	78	12	427	1800	0.24
14388	CCTV28 เหนือรพ.รามา	13.7332062	100.5177293	exat	working	2022-10-09T00:00:00	15:00:00	16:00:00	77	13	458	1800	0.25
14389	CCTV28 เหนือรพ.รามา	13.7332062	100.5177293	exat	holiday	2022-10-09T00:00:00	16:00:00	17:00:00	58	32	348	1800	0.19
14390	CCTV28 เหนือรพ.รามา	13.7332062	100.5177293	exat	holiday	2022-10-09T00:00:00	17:00:00	18:00:00	53	38	727	1800	0.40
14391	CCTV28 เหนือรพ.รามา	13.7332062	100.5177293	exat	holiday	2022-10-09T00:00:00	18:00:00	19:00:00	21	121	367	1800	0.20
14392	CCTV28 เหนือรพ.รามา	13.7332062	100.5177293	exat	working	2022-11-09T00:00:00	5:00:00	6:00:00	54	14	153	1800	0.09
14393	CCTV28 เหนือรพ.รามา	13.7332062	100.5177293	exat	holiday	2022-11-09T00:00:00	6:00:00	7:00:00	38	39	436	1800	0.24
14394	CCTV28 เหนือรพ.รามา	13.7332062	100.5177293	exat	holiday	2022-11-09T00:00:00	7:00:00	8:00:00	45	9	436	1800	0.24
14395	CCTV28 เหนือรพ.รามา	13.7332062	100.5177293	exat	holiday	2022-11-09T00:00:00	8:00:00	9:00:00	48	9	316	1800	0.18
14396	CCTV28 เหนือรพ.รามา	13.7332062	100.5177293	exat	working	2022-11-09T00:00:00	9:00:00	10:00:00	46	8	264	1800	0.15
14397	CCTV28 เหนือรพ.รามา	13.7332062	100.5177293	exat	working	2022-11-09T00:00:00	10:00:00	11:00:00	45	9	277	1800	0.15
14398	CCTV28 เหนือรพ.รามา	13.7332062	100.5177293	exat	holiday	2022-11-09T00:00:00	11:00:00	12:00:00	39	9	318	1800	0.18
14399	CCTV28 เหนือรพ.รามา	13.7332062	100.5177293	exat	working	2022-11-09T00:00:00	12:00:00	13:00:00	47	7	319	1800	0.18
14400	CCTV28 เหนือรพ.รามา	13.7332062	100.5177293	exat	working	2022-11-09T00:00:00	13:00:00	14:00:00	46	8	282	1800	0.16
14401	CCTV28 เหนือรพ.รามา	13.7332062	100.5177293	exat	working	2022-11-09T00:00:00	14:00:00	15:00:00	47	7	260	1800	0.14
14402	CCTV28 เหนือรพ.รามา	13.7332062	100.5177293	exat	working	2022-11-09T00:00:00	15:00:00	16:00:00	47	8	284	1800	0.16
14403	CCTV28 เหนือรพ.รามา	13.7332062	100.5177293	exat	holiday	2022-11-09T00:00:00	16:00:00	17:00:00	35	19	218	1800	0.12
14404	CCTV28 เหนือรพ.รามา	13.7332062	100.5177293	exat	holiday	2022-11-09T00:00:00	17:00:00	18:00:00	32	23	437	1800	0.24
14405	CCTV28 เหนือรพ.รามา	13.7332062	100.5177293	exat	holiday	2022-11-09T00:00:00	18:00:00	19:00:00	21	121	218	1800	0.12
14406	CCTV31 ทางขึ้นหัวลำโพง	13.75232	100.5693498	exat	working	2022-05-09T00:00:00	5:00:00	6:00:00	81	17	183	1800	0.10
14407	CCTV31 ทางขึ้นหัวลำโพง	13.75232	100.5693498	exat	working	2022-05-09T00:00:00	6:00:00	7:00:00	58	53	548	1800	0.30
14408	CCTV31 ทางขึ้นหัวลำโพง	13.75232	100.5693498	exat	working	2022-05-09T00:00:00	7:00:00	8:00:00	64	20	366	1800	0.20
14409	CCTV31 ทางขึ้นหัวลำโพง	13.75232	100.5693498	exat	working	2022-05-09T00:00:00	8:00:00	9:00:00	52	26	914	1800	0.51
14410	CCTV31 ทางขึ้นหัวลำโพง	13.75232	100.5693498	exat	working	2022-05-09T00:00:00	9:00:00	10:00:00	48	21	763	1800	0.42
14411	CCTV31 ทางขึ้นหัวลำโพง	13.75232	100.5693498	exat	working	2022-05-09T00:00:00	10:00:00	11:00:00	47	25	927	1800	0.52
14412	CCTV31 ทางขึ้นหัวลำโพง	13.75232	100.5693498	exat	working	2022-05-09T00:00:00	11:00:00	12:00:00	37	17	350	1800	0.19
14413	CCTV31 ทางขึ้นหัวลำโพง	13.75232	100.5693498	exat	working	2022-05-09T00:00:00	12:00:00	13:00:00	49	25	845	1800	0.47
14414	CCTV31 ทางขึ้นหัวลำโพง	13.75232	100.5693498	exat	working	2022-05-09T00:00:00	13:00:00	14:00:00	47	23	831	1800	0.46
14415	CCTV31 ทางขึ้นหัวลำโพง	13.75232	100.5693498	exat	working	2022-05-09T00:00:00	14:00:00	15:00:00	49	24	869	1800	0.48
14416	CCTV31 ทางขึ้นหัวลำโพง	13.75232	100.5693498	exat	working	2022-05-09T00:00:00	15:00:00	16:00:00	49	20	895	1800	0.50
14417	CCTV31 ทางขึ้นหัวลำโพง	13.75232	100.5693498	exat	working	2022-05-09T00:00:00	16:00:00	17:00:00	56	21	1461	1800	0.81
14418	CCTV31 ทางขึ้นหัวลำโพง	13.75232	100.5693498	exat	working	2022-05-09T00:00:00	17:00:00	18:00:00	35	68	3287	1800	1.83
14419	CCTV31 ทางขึ้นหัวลำโพง	13.75232	100.5693498	exat	working	2022-05-09T00:00:00	18:00:00	19:00:00	72	42	2547	1800	1.42
14420	CCTV31 ทางขึ้นหัวลำโพง	13.75232	100.5693498	exat	working	2022-06-09T00:00:00	5:00:00	6:00:00	84	16	172	1800	0.10
14421	CCTV31 ทางขึ้นหัวลำโพง	13.75232	100.5693498	exat	working	2022-06-09T00:00:00	6:00:00	7:00:00	58	53	533	1800	0.30
14422	CCTV31 ทางขึ้นหัวลำโพง	13.75232	100.5693498	exat	working	2022-06-09T00:00:00	7:00:00	8:00:00	64	20	360	1800	0.20
14423	CCTV31 ทางขึ้นหัวลำโพง	13.75232	100.5693498	exat	working	2022-06-09T00:00:00	8:00:00	9:00:00	52	26	929	1800	0.52
14424	CCTV31 ทางขึ้นหัวลำโพง	13.75232	100.5693498	exat	working	2022-06-09T00:00:00	9:00:00	10:00:00	50	22	802	1800	0.45
14425	CCTV31 ทางขึ้นหัวลำโพง	13.75232	100.5693498	exat	working	2022-06-09T00:00:00	10:00:00	11:00:00	49	23	847	1800	0.47
14426	CCTV31 ทางขึ้นหัวลำโพง	13.75232	100.5693498	exat	working	2022-06-09T00:00:00	11:00:00	12:00:00	47	20	1003	1800	0.56
14427	CCTV31 ทางขึ้นหัวลำโพง	13.75232	100.5693498	exat	working	2022-06-09T00:00:00	12:00:00	13:00:00	49	24	869	1800	0.48
14428	CCTV31 ทางขึ้นหัวลำโพง	13.75232	100.5693498	exat	working	2022-06-09T00:00:00	13:00:00	14:00:00	49	23	856	1800	0.48
14429	CCTV31 ทางขึ้นหัวลำโพง	13.75232	100.5693498	exat	working	2022-06-09T00:00:00	14:00:00	15:00:00	48	24	805	1800	0.45
14430	CCTV31 ทางขึ้นหัวลำโพง	13.75232	100.5693498	exat	working	2022-06-09T00:00:00	15:00:00	16:00:00	50	22	839	1800	0.47
14431	CCTV31 ทางขึ้นหัวลำโพง	13.75232	100.5693498	exat	working	2022-06-09T00:00:00	16:00:00	17:00:00	54	27	1446	1800	0.80
14432	CCTV31 ทางขึ้นหัวลำโพง	13.75232	100.5693498	exat	working	2022-06-09T00:00:00	17:00:00	18:00:00	47	50	2480	1800	1.38
14433	CCTV31 ทางขึ้นหัวลำโพง	13.75232	100.5693498	exat	working	2022-06-09T00:00:00	18:00:00	19:00:00	72	42	2566	1800	1.43
14434	CCTV31 ทางขึ้นหัวลำโพง	13.75232	100.5693498	exat	working	2022-07-09T00:00:00	5:00:00	6:00:00	82	17	178	1800	0.10
14435	CCTV31 ทางขึ้นหัวลำโพง	13.75232	100.5693498	exat	working	2022-07-09T00:00:00	6:00:00	7:00:00	58	53	564	1800	0.31
14436	CCTV31 ทางขึ้นหัวลำโพง	13.75232	100.5693498	exat	working	2022-07-09T00:00:00	7:00:00	8:00:00	64	20	368	1800	0.20
14437	CCTV31 ทางขึ้นหัวลำโพง	13.75232	100.5693498	exat	working	2022-07-09T00:00:00	8:00:00	9:00:00	52	26	893	1800	0.50
14438	CCTV31 ทางขึ้นหัวลำโพง	13.75232	100.5693498	exat	working	2022-07-09T00:00:00	9:00:00	10:00:00	51	23	791	1800	0.44
14439	CCTV31 ทางขึ้นหัวลำโพง	13.75232	100.5693498	exat	working	2022-07-09T00:00:00	10:00:00	11:00:00	50	22	810	1800	0.45
14440	CCTV31 ทางขึ้นหัวลำโพง	13.75232	100.5693498	exat	working	2022-07-09T00:00:00	11:00:00	12:00:00	57	23	1640	1800	0.91
14441	CCTV31 ทางขึ้นหัวลำโพง	13.75232	100.5693498	exat	working	2022-07-09T00:00:00	12:00:00	13:00:00	50	23	866	1800	0.48
14442	CCTV31 ทางขึ้นหัวลำโพง	13.75232	100.5693498	exat	working	2022-07-09T00:00:00	13:00:00	14:00:00	51	23	868	1800	0.48
14443	CCTV31 ทางขึ้นหัวลำโพง	13.75232	100.5693498	exat	working	2022-07-09T00:00:00	14:00:00	15:00:00	47	24	772	1800	0.43
14444	CCTV31 ทางขึ้นหัวลำโพง	13.75232	100.5693498	exat	working	2022-07-09T00:00:00	15:00:00	16:00:00	50	24	783	1800	0.44
14445	CCTV31 ทางขึ้นหัวลำโพง	13.75232	100.5693498	exat	working	2022-07-09T00:00:00	16:00:00	17:00:00	53	33	1473	1800	0.82
14446	CCTV31 ทางขึ้นหัวลำโพง	13.75232	100.5693498	exat	working	2022-07-09T00:00:00	17:00:00	18:00:00	59	32	1645	1800	0.91
14447	CCTV31 ทางขึ้นหัวลำโพง	13.75232	100.5693498	exat	working	2022-07-09T00:00:00	18:00:00	19:00:00	72	42	2555	1800	1.42
14448	CCTV31 ทางขึ้นหัวลำโพง	13.75232	100.5693498	exat	working	2022-08-09T00:00:00	5:00:00	6:00:00	51	19	337	1800	0.19
14449	CCTV31 ทางขึ้นหัวลำโพง	13.75232	100.5693498	exat	working	2022-08-09T00:00:00	6:00:00	7:00:00	36	55	1089	1800	0.61
14450	CCTV31 ทางขึ้นหัวลำโพง	13.75232	100.5693498	exat	working	2022-08-09T00:00:00	7:00:00	8:00:00	36	35	1080	1800	0.60
14451	CCTV31 ทางขึ้นหัวลำโพง	13.75232	100.5693498	exat	working	2022-08-09T00:00:00	8:00:00	9:00:00	31	42	921	1800	0.51
14452	CCTV31 ทางขึ้นหัวลำโพง	13.75232	100.5693498	exat	working	2022-08-09T00:00:00	9:00:00	10:00:00	28	40	774	1800	0.43
14453	CCTV31 ทางขึ้นหัวลำโพง	13.75232	100.5693498	exat	working	2022-08-09T00:00:00	10:00:00	11:00:00	29	39	786	1800	0.44
14454	CCTV31 ทางขึ้นหัวลำโพง	13.75232	100.5693498	exat	working	2022-08-09T00:00:00	11:00:00	12:00:00	33	51	1758	1800	0.98
14455	CCTV31 ทางขึ้นหัวลำโพง	13.75232	100.5693498	exat	working	2022-08-09T00:00:00	12:00:00	13:00:00	28	40	845	1800	0.47
14456	CCTV31 ทางขึ้นหัวลำโพง	13.75232	100.5693498	exat	working	2022-08-09T00:00:00	13:00:00	14:00:00	30	38	889	1800	0.49
14457	CCTV31 ทางขึ้นหัวลำโพง	13.75232	100.5693498	exat	working	2022-08-09T00:00:00	14:00:00	15:00:00	28	41	831	1800	0.46
14458	CCTV31 ทางขึ้นหัวลำโพง	13.75232	100.5693498	exat	working	2022-08-09T00:00:00	15:00:00	16:00:00	30	38	791	1800	0.44
14459	CCTV31 ทางขึ้นหัวลำโพง	13.75232	100.5693498	exat	working	2022-08-09T00:00:00	16:00:00	17:00:00	31	50	1469	1800	0.82
14460	CCTV31 ทางขึ้นหัวลำโพง	13.75232	100.5693498	exat	working	2022-08-09T00:00:00	17:00:00	18:00:00	34	60	2010	1800	1.12
14461	CCTV31 ทางขึ้นหัวลำโพง	13.75232	100.5693498	exat	working	2022-08-09T00:00:00	18:00:00	19:00:00	42	57	2555	1800	1.42
14462	CCTV31 ทางขึ้นหัวลำโพง	13.75232	100.5693498	exat	working	2022-09-09T00:00:00	5:00:00	6:00:00	17	37	546	1800	0.30
14463	CCTV31 ทางขึ้นหัวลำโพง	13.75232	100.5693498	exat	working	2022-09-09T00:00:00	6:00:00	7:00:00	13	122	1650	1800	0.92
14464	CCTV31 ทางขึ้นหัวลำโพง	13.75232	100.5693498	exat	working	2022-09-09T00:00:00	7:00:00	8:00:00	9	122	1829	1800	1.02
14465	CCTV31 ทางขึ้นหัวลำโพง	13.75232	100.5693498	exat	working	2022-09-09T00:00:00	8:00:00	9:00:00	11	122	916	1800	0.51
14466	CCTV31 ทางขึ้นหัวลำโพง	13.75232	100.5693498	exat	working	2022-09-09T00:00:00	9:00:00	10:00:00	6	121	777	1800	0.43
14467	CCTV31 ทางขึ้นหัวลำโพง	13.75232	100.5693498	exat	working	2022-09-09T00:00:00	10:00:00	11:00:00	7	121	756	1800	0.42
14468	CCTV31 ทางขึ้นหัวลำโพง	13.75232	100.5693498	exat	working	2022-09-09T00:00:00	11:00:00	12:00:00	9	121	1819	1800	1.01
14469	CCTV31 ทางขึ้นหัวลำโพง	13.75232	100.5693498	exat	working	2022-09-09T00:00:00	12:00:00	13:00:00	6	122	798	1800	0.44
14470	CCTV31 ทางขึ้นหัวลำโพง	13.75232	100.5693498	exat	working	2022-09-09T00:00:00	13:00:00	14:00:00	9	121	910	1800	0.51
14471	CCTV31 ทางขึ้นหัวลำโพง	13.75232	100.5693498	exat	working	2022-09-09T00:00:00	14:00:00	15:00:00	9	121	894	1800	0.50
14472	CCTV31 ทางขึ้นหัวลำโพง	13.75232	100.5693498	exat	working	2022-09-09T00:00:00	15:00:00	16:00:00	9	121	782	1800	0.43
14473	CCTV31 ทางขึ้นหัวลำโพง	13.75232	100.5693498	exat	working	2022-09-09T00:00:00	16:00:00	17:00:00	10	121	1459	1800	0.81
14474	CCTV31 ทางขึ้นหัวลำโพง	13.75232	100.5693498	exat	working	2022-09-09T00:00:00	17:00:00	18:00:00	9	121	2369	1800	1.32
14475	CCTV31 ทางขึ้นหัวลำโพง	13.75232	100.5693498	exat	working	2022-09-09T00:00:00	18:00:00	19:00:00	11	121	2562	1800	1.42
14476	CCTV31 ทางขึ้นหัวลำโพง	13.75232	100.5693498	exat	working	2022-10-09T00:00:00	5:00:00	6:00:00	28	41	109	1800	0.06
14477	CCTV31 ทางขึ้นหัวลำโพง	13.75232	100.5693498	exat	holiday	2022-10-09T00:00:00	6:00:00	7:00:00	20	121	358	1800	0.20
14478	CCTV31 ทางขึ้นหัวลำโพง	13.75232	100.5693498	exat	holiday	2022-10-09T00:00:00	7:00:00	8:00:00	14	121	548	1800	0.30
14479	CCTV31 ทางขึ้นหัวลำโพง	13.75232	100.5693498	exat	holiday	2022-10-09T00:00:00	8:00:00	9:00:00	40	52	1260	1800	0.70
14480	CCTV31 ทางขึ้นหัวลำโพง	13.75232	100.5693498	exat	working	2022-10-09T00:00:00	9:00:00	10:00:00	40	49	1103	1800	0.61
14481	CCTV31 ทางขึ้นหัวลำโพง	13.75232	100.5693498	exat	working	2022-10-09T00:00:00	10:00:00	11:00:00	35	46	1151	1800	0.64
14482	CCTV31 ทางขึ้นหัวลำโพง	13.75232	100.5693498	exat	holiday	2022-10-09T00:00:00	11:00:00	12:00:00	10	122	2744	1800	1.52
14483	CCTV31 ทางขึ้นหัวลำโพง	13.75232	100.5693498	exat	working	2022-10-09T00:00:00	12:00:00	13:00:00	36	48	1186	1800	0.66
14484	CCTV31 ทางขึ้นหัวลำโพง	13.75232	100.5693498	exat	working	2022-10-09T00:00:00	13:00:00	14:00:00	39	50	1255	1800	0.70
14485	CCTV31 ทางขึ้นหัวลำโพง	13.75232	100.5693498	exat	working	2022-10-09T00:00:00	14:00:00	15:00:00	39	51	1273	1800	0.71
14486	CCTV31 ทางขึ้นหัวลำโพง	13.75232	100.5693498	exat	working	2022-10-09T00:00:00	15:00:00	16:00:00	37	52	1289	1800	0.72
14487	CCTV31 ทางขึ้นหัวลำโพง	13.75232	100.5693498	exat	holiday	2022-10-09T00:00:00	16:00:00	17:00:00	11	121	551	1800	0.31
14488	CCTV31 ทางขึ้นหัวลำโพง	13.75232	100.5693498	exat	holiday	2022-10-09T00:00:00	17:00:00	18:00:00	12	121	349	1800	0.19
14489	CCTV31 ทางขึ้นหัวลำโพง	13.75232	100.5693498	exat	working	2022-10-09T00:00:00	18:00:00	19:00:00	11	122	2542	1800	1.41
14490	CCTV31 ทางขึ้นหัวลำโพง	13.75232	100.5693498	exat	working	2022-11-09T00:00:00	5:00:00	6:00:00	16	42	66	1800	0.04
14491	CCTV31 ทางขึ้นหัวลำโพง	13.75232	100.5693498	exat	holiday	2022-11-09T00:00:00	6:00:00	7:00:00	12	121	219	1800	0.12
14492	CCTV31 ทางขึ้นหัวลำโพง	13.75232	100.5693498	exat	holiday	2022-11-09T00:00:00	7:00:00	8:00:00	9	121	310	1800	0.17
14493	CCTV31 ทางขึ้นหัวลำโพง	13.75232	100.5693498	exat	holiday	2022-11-09T00:00:00	8:00:00	9:00:00	24	31	773	1800	0.43
14494	CCTV31 ทางขึ้นหัวลำโพง	13.75232	100.5693498	exat	working	2022-11-09T00:00:00	9:00:00	10:00:00	24	30	671	1800	0.37
14495	CCTV31 ทางขึ้นหัวลำโพง	13.75232	100.5693498	exat	working	2022-11-09T00:00:00	10:00:00	11:00:00	21	121	696	1800	0.39
14496	CCTV31 ทางขึ้นหัวลำโพง	13.75232	100.5693498	exat	holiday	2022-11-09T00:00:00	11:00:00	12:00:00	6	121	1645	1800	0.91
14497	CCTV31 ทางขึ้นหัวลำโพง	13.75232	100.5693498	exat	working	2022-11-09T00:00:00	12:00:00	13:00:00	22	29	712	1800	0.40
14498	CCTV31 ทางขึ้นหัวลำโพง	13.75232	100.5693498	exat	working	2022-11-09T00:00:00	13:00:00	14:00:00	24	30	756	1800	0.42
14499	CCTV31 ทางขึ้นหัวลำโพง	13.75232	100.5693498	exat	working	2022-11-09T00:00:00	14:00:00	15:00:00	24	31	792	1800	0.44
14500	CCTV31 ทางขึ้นหัวลำโพง	13.75232	100.5693498	exat	working	2022-11-09T00:00:00	15:00:00	16:00:00	23	32	756	1800	0.42
14501	CCTV31 ทางขึ้นหัวลำโพง	13.75232	100.5693498	exat	holiday	2022-11-09T00:00:00	16:00:00	17:00:00	7	121	348	1800	0.19
14502	CCTV31 ทางขึ้นหัวลำโพง	13.75232	100.5693498	exat	holiday	2022-11-09T00:00:00	17:00:00	18:00:00	8	121	235	1800	0.13
14503	CCTV31 ทางขึ้นหัวลำโพง	13.75232	100.5693498	exat	working	2022-11-09T00:00:00	18:00:00	19:00:00	7	121	1518	1800	0.84
14504	CCTV32 ทางลงมหานคร	13.7113131	100.5652639	exat	working	2022-05-09T00:00:00	5:00:00	6:00:00	69	4	113	1800	0.06
14505	CCTV32 ทางลงมหานคร	13.7113131	100.5652639	exat	working	2022-05-09T00:00:00	6:00:00	7:00:00	49	11	368	1800	0.20
14506	CCTV32 ทางลงมหานคร	13.7113131	100.5652639	exat	working	2022-05-09T00:00:00	7:00:00	8:00:00	56	19	359	1800	0.20
14507	CCTV32 ทางลงมหานคร	13.7113131	100.5652639	exat	working	2022-05-09T00:00:00	8:00:00	9:00:00	91	20	1122	1800	0.62
14508	CCTV32 ทางลงมหานคร	13.7113131	100.5652639	exat	working	2022-05-09T00:00:00	9:00:00	10:00:00	91	17	986	1800	0.55
14509	CCTV32 ทางลงมหานคร	13.7113131	100.5652639	exat	working	2022-05-09T00:00:00	10:00:00	11:00:00	88	16	999	1800	0.56
14510	CCTV32 ทางลงมหานคร	13.7113131	100.5652639	exat	working	2022-05-09T00:00:00	11:00:00	12:00:00	43	11	374	1800	0.21
14511	CCTV32 ทางลงมหานคร	13.7113131	100.5652639	exat	working	2022-05-09T00:00:00	12:00:00	13:00:00	91	19	989	1800	0.55
14512	CCTV32 ทางลงมหานคร	13.7113131	100.5652639	exat	working	2022-05-09T00:00:00	13:00:00	14:00:00	90	17	934	1800	0.52
14513	CCTV32 ทางลงมหานคร	13.7113131	100.5652639	exat	working	2022-05-09T00:00:00	14:00:00	15:00:00	87	16	962	1800	0.53
14514	CCTV32 ทางลงมหานคร	13.7113131	100.5652639	exat	working	2022-05-09T00:00:00	15:00:00	16:00:00	89	18	1037	1800	0.58
14515	CCTV32 ทางลงมหานคร	13.7113131	100.5652639	exat	working	2022-05-09T00:00:00	16:00:00	17:00:00	21	121	378	1800	0.21
14516	CCTV32 ทางลงมหานคร	13.7113131	100.5652639	exat	working	2022-05-09T00:00:00	17:00:00	18:00:00	44	30	1469	1800	0.82
14517	CCTV32 ทางลงมหานคร	13.7113131	100.5652639	exat	working	2022-05-09T00:00:00	18:00:00	19:00:00	33	11	365	1800	0.20
14518	CCTV32 ทางลงมหานคร	13.7113131	100.5652639	exat	working	2022-06-09T00:00:00	5:00:00	6:00:00	69	4	109	1800	0.06
14519	CCTV32 ทางลงมหานคร	13.7113131	100.5652639	exat	working	2022-06-09T00:00:00	6:00:00	7:00:00	49	11	366	1800	0.20
14520	CCTV32 ทางลงมหานคร	13.7113131	100.5652639	exat	working	2022-06-09T00:00:00	7:00:00	8:00:00	56	19	367	1800	0.20
14521	CCTV32 ทางลงมหานคร	13.7113131	100.5652639	exat	working	2022-06-09T00:00:00	8:00:00	9:00:00	91	20	1080	1800	0.60
14522	CCTV32 ทางลงมหานคร	13.7113131	100.5652639	exat	working	2022-06-09T00:00:00	9:00:00	10:00:00	88	17	974	1800	0.54
14523	CCTV32 ทางลงมหานคร	13.7113131	100.5652639	exat	working	2022-06-09T00:00:00	10:00:00	11:00:00	87	17	994	1800	0.55
14524	CCTV32 ทางลงมหานคร	13.7113131	100.5652639	exat	working	2022-06-09T00:00:00	11:00:00	12:00:00	67	6	935	1800	0.52
14525	CCTV32 ทางลงมหานคร	13.7113131	100.5652639	exat	working	2022-06-09T00:00:00	12:00:00	13:00:00	90	19	986	1800	0.55
14526	CCTV32 ทางลงมหานคร	13.7113131	100.5652639	exat	working	2022-06-09T00:00:00	13:00:00	14:00:00	89	17	974	1800	0.54
14527	CCTV32 ทางลงมหานคร	13.7113131	100.5652639	exat	working	2022-06-09T00:00:00	14:00:00	15:00:00	88	17	1014	1800	0.56
14528	CCTV32 ทางลงมหานคร	13.7113131	100.5652639	exat	working	2022-06-09T00:00:00	15:00:00	16:00:00	90	17	1081	1800	0.60
14529	CCTV32 ทางลงมหานคร	13.7113131	100.5652639	exat	working	2022-06-09T00:00:00	16:00:00	17:00:00	46	11	640	1800	0.36
14530	CCTV32 ทางลงมหานคร	13.7113131	100.5652639	exat	working	2022-06-09T00:00:00	17:00:00	18:00:00	66	28	1369	1800	0.76
14531	CCTV32 ทางลงมหานคร	13.7113131	100.5652639	exat	working	2022-06-09T00:00:00	18:00:00	19:00:00	62	6	554	1800	0.31
14532	CCTV32 ทางลงมหานคร	13.7113131	100.5652639	exat	working	2022-07-09T00:00:00	5:00:00	6:00:00	70	4	128	1800	0.07
14533	CCTV32 ทางลงมหานคร	13.7113131	100.5652639	exat	working	2022-07-09T00:00:00	6:00:00	7:00:00	49	11	375	1800	0.21
14534	CCTV32 ทางลงมหานคร	13.7113131	100.5652639	exat	working	2022-07-09T00:00:00	7:00:00	8:00:00	56	19	373	1800	0.21
14535	CCTV32 ทางลงมหานคร	13.7113131	100.5652639	exat	working	2022-07-09T00:00:00	8:00:00	9:00:00	91	20	1084	1800	0.60
14536	CCTV32 ทางลงมหานคร	13.7113131	100.5652639	exat	working	2022-07-09T00:00:00	9:00:00	10:00:00	86	16	971	1800	0.54
14537	CCTV32 ทางลงมหานคร	13.7113131	100.5652639	exat	working	2022-07-09T00:00:00	10:00:00	11:00:00	86	18	1008	1800	0.56
14538	CCTV32 ทางลงมหานคร	13.7113131	100.5652639	exat	working	2022-07-09T00:00:00	11:00:00	12:00:00	91	0	1449	1800	0.81
14539	CCTV32 ทางลงมหานคร	13.7113131	100.5652639	exat	working	2022-07-09T00:00:00	12:00:00	13:00:00	90	19	1027	1800	0.57
14540	CCTV32 ทางลงมหานคร	13.7113131	100.5652639	exat	working	2022-07-09T00:00:00	13:00:00	14:00:00	89	17	1047	1800	0.58
14541	CCTV32 ทางลงมหานคร	13.7113131	100.5652639	exat	working	2022-07-09T00:00:00	14:00:00	15:00:00	90	19	1055	1800	0.59
14542	CCTV32 ทางลงมหานคร	13.7113131	100.5652639	exat	working	2022-07-09T00:00:00	15:00:00	16:00:00	90	16	1070	1800	0.59
14543	CCTV32 ทางลงมหานคร	13.7113131	100.5652639	exat	working	2022-07-09T00:00:00	16:00:00	17:00:00	91	11	877	1800	0.49
14544	CCTV32 ทางลงมหานคร	13.7113131	100.5652639	exat	working	2022-07-09T00:00:00	17:00:00	18:00:00	88	26	1275	1800	0.71
14545	CCTV32 ทางลงมหานคร	13.7113131	100.5652639	exat	working	2022-07-09T00:00:00	18:00:00	19:00:00	91	0	722	1800	0.40
14546	CCTV32 ทางลงมหานคร	13.7113131	100.5652639	exat	working	2022-08-09T00:00:00	5:00:00	6:00:00	34	9	128	1800	0.07
14547	CCTV32 ทางลงมหานคร	13.7113131	100.5652639	exat	working	2022-08-09T00:00:00	6:00:00	7:00:00	25	26	380	1800	0.21
14548	CCTV32 ทางลงมหานคร	13.7113131	100.5652639	exat	working	2022-08-09T00:00:00	7:00:00	8:00:00	28	10	556	1800	0.31
14549	CCTV32 ทางลงมหานคร	13.7113131	100.5652639	exat	working	2022-08-09T00:00:00	8:00:00	9:00:00	91	15	1001	1800	0.56
14550	CCTV32 ทางลงมหานคร	13.7113131	100.5652639	exat	working	2022-08-09T00:00:00	9:00:00	10:00:00	87	13	888	1800	0.49
14551	CCTV32 ทางลงมหานคร	13.7113131	100.5652639	exat	working	2022-08-09T00:00:00	10:00:00	11:00:00	88	12	939	1800	0.52
14552	CCTV32 ทางลงมหานคร	13.7113131	100.5652639	exat	working	2022-08-09T00:00:00	11:00:00	12:00:00	78	6	886	1800	0.49
14553	CCTV32 ทางลงมหานคร	13.7113131	100.5652639	exat	working	2022-08-09T00:00:00	12:00:00	13:00:00	88	13	950	1800	0.53
14554	CCTV32 ทางลงมหานคร	13.7113131	100.5652639	exat	working	2022-08-09T00:00:00	13:00:00	14:00:00	87	14	960	1800	0.53
14555	CCTV32 ทางลงมหานคร	13.7113131	100.5652639	exat	working	2022-08-09T00:00:00	14:00:00	15:00:00	90	14	962	1800	0.53
14556	CCTV32 ทางลงมหานคร	13.7113131	100.5652639	exat	working	2022-08-09T00:00:00	15:00:00	16:00:00	89	11	966	1800	0.54
14557	CCTV32 ทางลงมหานคร	13.7113131	100.5652639	exat	working	2022-08-09T00:00:00	16:00:00	17:00:00	66	13	1031	1800	0.57
14558	CCTV32 ทางลงมหานคร	13.7113131	100.5652639	exat	working	2022-08-09T00:00:00	17:00:00	18:00:00	74	18	836	1800	0.46
14559	CCTV32 ทางลงมหานคร	13.7113131	100.5652639	exat	working	2022-08-09T00:00:00	18:00:00	19:00:00	91	0	718	1800	0.40
14560	CCTV32 ทางลงมหานคร	13.7113131	100.5652639	exat	working	2022-09-09T00:00:00	5:00:00	6:00:00	29	42	118	1800	0.07
14561	CCTV32 ทางลงมหานคร	13.7113131	100.5652639	exat	working	2022-09-09T00:00:00	6:00:00	7:00:00	21	121	364	1800	0.20
14562	CCTV32 ทางลงมหานคร	13.7113131	100.5652639	exat	working	2022-09-09T00:00:00	7:00:00	8:00:00	21	121	736	1800	0.41
14563	CCTV32 ทางลงมหานคร	13.7113131	100.5652639	exat	working	2022-09-09T00:00:00	8:00:00	9:00:00	91	11	893	1800	0.50
14564	CCTV32 ทางลงมหานคร	13.7113131	100.5652639	exat	working	2022-09-09T00:00:00	9:00:00	10:00:00	87	10	805	1800	0.45
14565	CCTV32 ทางลงมหานคร	13.7113131	100.5652639	exat	working	2022-09-09T00:00:00	10:00:00	11:00:00	91	6	884	1800	0.49
14566	CCTV32 ทางลงมหานคร	13.7113131	100.5652639	exat	working	2022-09-09T00:00:00	11:00:00	12:00:00	66	11	364	1800	0.20
14567	CCTV32 ทางลงมหานคร	13.7113131	100.5652639	exat	working	2022-09-09T00:00:00	12:00:00	13:00:00	87	8	851	1800	0.47
14568	CCTV32 ทางลงมหานคร	13.7113131	100.5652639	exat	working	2022-09-09T00:00:00	13:00:00	14:00:00	86	10	700	1800	0.39
14569	CCTV32 ทางลงมหานคร	13.7113131	100.5652639	exat	working	2022-09-09T00:00:00	14:00:00	15:00:00	90	9	860	1800	0.48
14570	CCTV32 ทางลงมหานคร	13.7113131	100.5652639	exat	working	2022-09-09T00:00:00	15:00:00	16:00:00	89	7	811	1800	0.45
14571	CCTV32 ทางลงมหานคร	13.7113131	100.5652639	exat	working	2022-09-09T00:00:00	16:00:00	17:00:00	42	15	1100	1800	0.61
14572	CCTV32 ทางลงมหานคร	13.7113131	100.5652639	exat	working	2022-09-09T00:00:00	17:00:00	18:00:00	61	11	364	1800	0.20
14573	CCTV32 ทางลงมหานคร	13.7113131	100.5652639	exat	working	2022-10-09T00:00:00	5:00:00	6:00:00	131	4	106	1800	0.06
14574	CCTV32 ทางลงมหานคร	13.7113131	100.5652639	exat	holiday	2022-10-09T00:00:00	6:00:00	7:00:00	91	11	312	1800	0.17
14575	CCTV32 ทางลงมหานคร	13.7113131	100.5652639	exat	holiday	2022-10-09T00:00:00	7:00:00	8:00:00	91	11	351	1800	0.20
14576	CCTV32 ทางลงมหานคร	13.7113131	100.5652639	exat	holiday	2022-10-09T00:00:00	8:00:00	9:00:00	91	47	721	1800	0.40
14577	CCTV32 ทางลงมหานคร	13.7113131	100.5652639	exat	working	2022-10-09T00:00:00	9:00:00	10:00:00	86	43	681	1800	0.38
14578	CCTV32 ทางลงมหานคร	13.7113131	100.5652639	exat	working	2022-10-09T00:00:00	10:00:00	11:00:00	86	43	617	1800	0.34
14579	CCTV32 ทางลงมหานคร	13.7113131	100.5652639	exat	holiday	2022-10-09T00:00:00	11:00:00	12:00:00	91	11	924	1800	0.51
14580	CCTV32 ทางลงมหานคร	13.7113131	100.5652639	exat	working	2022-10-09T00:00:00	12:00:00	13:00:00	87	46	637	1800	0.35
14581	CCTV32 ทางลงมหานคร	13.7113131	100.5652639	exat	working	2022-10-09T00:00:00	13:00:00	14:00:00	87	44	588	1800	0.33
14582	CCTV32 ทางลงมหานคร	13.7113131	100.5652639	exat	working	2022-10-09T00:00:00	14:00:00	15:00:00	86	46	633	1800	0.35
14583	CCTV32 ทางลงมหานคร	13.7113131	100.5652639	exat	working	2022-10-09T00:00:00	15:00:00	16:00:00	88	46	585	1800	0.33
14584	CCTV32 ทางลงมหานคร	13.7113131	100.5652639	exat	holiday	2022-10-09T00:00:00	16:00:00	17:00:00	91	11	1436	1800	0.80
14585	CCTV32 ทางลงมหานคร	13.7113131	100.5652639	exat	holiday	2022-10-09T00:00:00	17:00:00	18:00:00	84	11	1441	1800	0.80
14586	CCTV32 ทางลงมหานคร	13.7113131	100.5652639	exat	holiday	2022-10-09T00:00:00	18:00:00	19:00:00	91	0	1419	1800	0.79
14587	CCTV32 ทางลงมหานคร	13.7113131	100.5652639	exat	working	2022-11-09T00:00:00	5:00:00	6:00:00	78	2	58	1800	0.03
14588	CCTV32 ทางลงมหานคร	13.7113131	100.5652639	exat	holiday	2022-11-09T00:00:00	6:00:00	7:00:00	55	7	180	1800	0.10
14589	CCTV32 ทางลงมหานคร	13.7113131	100.5652639	exat	holiday	2022-11-09T00:00:00	7:00:00	8:00:00	55	7	221	1800	0.12
14590	CCTV32 ทางลงมหานคร	13.7113131	100.5652639	exat	holiday	2022-11-09T00:00:00	8:00:00	9:00:00	55	28	431	1800	0.24
14591	CCTV32 ทางลงมหานคร	13.7113131	100.5652639	exat	working	2022-11-09T00:00:00	9:00:00	10:00:00	52	26	401	1800	0.22
14592	CCTV32 ทางลงมหานคร	13.7113131	100.5652639	exat	working	2022-11-09T00:00:00	10:00:00	11:00:00	52	26	363	1800	0.20
14593	CCTV32 ทางลงมหานคร	13.7113131	100.5652639	exat	holiday	2022-11-09T00:00:00	11:00:00	12:00:00	55	7	578	1800	0.32
14594	CCTV32 ทางลงมหานคร	13.7113131	100.5652639	exat	working	2022-11-09T00:00:00	12:00:00	13:00:00	52	28	382	1800	0.21
14595	CCTV32 ทางลงมหานคร	13.7113131	100.5652639	exat	working	2022-11-09T00:00:00	13:00:00	14:00:00	52	26	359	1800	0.20
14596	CCTV32 ทางลงมหานคร	13.7113131	100.5652639	exat	working	2022-11-09T00:00:00	14:00:00	15:00:00	52	28	378	1800	0.21
14597	CCTV32 ทางลงมหานคร	13.7113131	100.5652639	exat	working	2022-11-09T00:00:00	15:00:00	16:00:00	53	28	369	1800	0.21
14598	CCTV32 ทางลงมหานคร	13.7113131	100.5652639	exat	holiday	2022-11-09T00:00:00	16:00:00	17:00:00	55	7	820	1800	0.46
14599	CCTV32 ทางลงมหานคร	13.7113131	100.5652639	exat	holiday	2022-11-09T00:00:00	17:00:00	18:00:00	50	7	854	1800	0.47
14600	CCTV32 ทางลงมหานคร	13.7113131	100.5652639	exat	holiday	2022-11-09T00:00:00	18:00:00	19:00:00	55	0	839	1800	0.47
14601	CCTV02 อโศก 1	13.7536645	100.5871583	exat	working	2022-05-09T00:00:00	5:00:00	6:00:00	127	22	108	1800	0.06
14602	CCTV02 อโศก 1	13.7536645	100.5871583	exat	working	2022-05-09T00:00:00	6:00:00	7:00:00	91	67	351	1800	0.20
14603	CCTV02 อโศก 1	13.7536645	100.5871583	exat	working	2022-05-09T00:00:00	7:00:00	8:00:00	25	19	741	1800	0.41
14604	CCTV02 อโศก 1	13.7536645	100.5871583	exat	working	2022-05-09T00:00:00	8:00:00	9:00:00	33	20	363	1800	0.20
14605	CCTV02 อโศก 1	13.7536645	100.5871583	exat	working	2022-05-09T00:00:00	9:00:00	10:00:00	27	16	320	1800	0.18
14606	CCTV02 อโศก 1	13.7536645	100.5871583	exat	working	2022-05-09T00:00:00	10:00:00	11:00:00	28	15	259	1800	0.14
14607	CCTV02 อโศก 1	13.7536645	100.5871583	exat	working	2022-05-09T00:00:00	11:00:00	12:00:00	86	67	373	1800	0.21
14608	CCTV02 อโศก 1	13.7536645	100.5871583	exat	working	2022-05-09T00:00:00	12:00:00	13:00:00	28	18	256	1800	0.14
14609	CCTV02 อโศก 1	13.7536645	100.5871583	exat	working	2022-05-09T00:00:00	13:00:00	14:00:00	29	17	312	1800	0.17
14610	CCTV02 อโศก 1	13.7536645	100.5871583	exat	working	2022-05-09T00:00:00	14:00:00	15:00:00	29	15	276	1800	0.15
14611	CCTV02 อโศก 1	13.7536645	100.5871583	exat	working	2022-05-09T00:00:00	15:00:00	16:00:00	32	16	336	1800	0.19
14612	CCTV02 อโศก 1	13.7536645	100.5871583	exat	working	2022-05-09T00:00:00	16:00:00	17:00:00	79	34	1102	1800	0.61
14613	CCTV02 อโศก 1	13.7536645	100.5871583	exat	working	2022-05-09T00:00:00	17:00:00	18:00:00	44	55	1437	1800	0.80
14614	CCTV02 อโศก 1	13.7536645	100.5871583	exat	working	2022-05-09T00:00:00	18:00:00	19:00:00	72	124	1455	1800	0.81
14615	CCTV02 อโศก 1	13.7536645	100.5871583	exat	working	2022-06-09T00:00:00	5:00:00	6:00:00	128	22	110	1800	0.06
14616	CCTV02 อโศก 1	13.7536645	100.5871583	exat	working	2022-06-09T00:00:00	6:00:00	7:00:00	91	67	363	1800	0.20
14617	CCTV02 อโศก 1	13.7536645	100.5871583	exat	working	2022-06-09T00:00:00	7:00:00	8:00:00	25	19	742	1800	0.41
14618	CCTV02 อโศก 1	13.7536645	100.5871583	exat	working	2022-06-09T00:00:00	8:00:00	9:00:00	33	20	362	1800	0.20
14619	CCTV02 อโศก 1	13.7536645	100.5871583	exat	working	2022-06-09T00:00:00	9:00:00	10:00:00	28	18	286	1800	0.16
14620	CCTV02 อโศก 1	13.7536645	100.5871583	exat	working	2022-06-09T00:00:00	10:00:00	11:00:00	28	17	282	1800	0.16
14621	CCTV02 อโศก 1	13.7536645	100.5871583	exat	working	2022-06-09T00:00:00	11:00:00	12:00:00	55	42	365	1800	0.20
14622	CCTV02 อโศก 1	13.7536645	100.5871583	exat	working	2022-06-09T00:00:00	12:00:00	13:00:00	28	17	223	1800	0.12
14623	CCTV02 อโศก 1	13.7536645	100.5871583	exat	working	2022-06-09T00:00:00	13:00:00	14:00:00	30	17	278	1800	0.15
14624	CCTV02 อโศก 1	13.7536645	100.5871583	exat	working	2022-06-09T00:00:00	14:00:00	15:00:00	30	15	272	1800	0.15
14625	CCTV02 อโศก 1	13.7536645	100.5871583	exat	working	2022-06-09T00:00:00	15:00:00	16:00:00	30	17	271	1800	0.15
14626	CCTV02 อโศก 1	13.7536645	100.5871583	exat	working	2022-06-09T00:00:00	16:00:00	17:00:00	49	26	714	1800	0.40
14627	CCTV02 อโศก 1	13.7536645	100.5871583	exat	working	2022-06-09T00:00:00	17:00:00	18:00:00	31	37	912	1800	0.51
14628	CCTV02 อโศก 1	13.7536645	100.5871583	exat	working	2022-06-09T00:00:00	18:00:00	19:00:00	45	72	1073	1800	0.60
14629	CCTV02 อโศก 1	13.7536645	100.5871583	exat	working	2022-07-09T00:00:00	5:00:00	6:00:00	132	22	116	1800	0.06
14630	CCTV02 อโศก 1	13.7536645	100.5871583	exat	working	2022-07-09T00:00:00	6:00:00	7:00:00	91	67	363	1800	0.20
14631	CCTV02 อโศก 1	13.7536645	100.5871583	exat	working	2022-07-09T00:00:00	7:00:00	8:00:00	25	19	730	1800	0.41
14632	CCTV02 อโศก 1	13.7536645	100.5871583	exat	working	2022-07-09T00:00:00	8:00:00	9:00:00	33	20	363	1800	0.20
14633	CCTV02 อโศก 1	13.7536645	100.5871583	exat	working	2022-07-09T00:00:00	9:00:00	10:00:00	29	19	303	1800	0.17
14634	CCTV02 อโศก 1	13.7536645	100.5871583	exat	working	2022-07-09T00:00:00	10:00:00	11:00:00	28	19	312	1800	0.17
14635	CCTV02 อโศก 1	13.7536645	100.5871583	exat	working	2022-07-09T00:00:00	11:00:00	12:00:00	25	17	366	1800	0.20
14636	CCTV02 อโศก 1	13.7536645	100.5871583	exat	working	2022-07-09T00:00:00	12:00:00	13:00:00	28	15	218	1800	0.12
14637	CCTV02 อโศก 1	13.7536645	100.5871583	exat	working	2022-07-09T00:00:00	13:00:00	14:00:00	32	18	251	1800	0.14
14638	CCTV02 อโศก 1	13.7536645	100.5871583	exat	working	2022-07-09T00:00:00	14:00:00	15:00:00	31	15	221	1800	0.12
14639	CCTV02 อโศก 1	13.7536645	100.5871583	exat	working	2022-07-09T00:00:00	15:00:00	16:00:00	28	19	219	1800	0.12
14640	CCTV02 อโศก 1	13.7536645	100.5871583	exat	working	2022-07-09T00:00:00	16:00:00	17:00:00	18	121	372	1800	0.21
14641	CCTV02 อโศก 1	13.7536645	100.5871583	exat	working	2022-07-09T00:00:00	17:00:00	18:00:00	19	121	367	1800	0.20
14642	CCTV02 อโศก 1	13.7536645	100.5871583	exat	working	2022-07-09T00:00:00	18:00:00	19:00:00	19	121	725	1800	0.40
14643	CCTV02 อโศก 1	13.7536645	100.5871583	exat	working	2022-08-09T00:00:00	5:00:00	6:00:00	130	23	112	1800	0.06
14644	CCTV02 อโศก 1	13.7536645	100.5871583	exat	working	2022-08-09T00:00:00	6:00:00	7:00:00	91	67	361	1800	0.20
14645	CCTV02 อโศก 1	13.7536645	100.5871583	exat	working	2022-08-09T00:00:00	7:00:00	8:00:00	58	43	558	1800	0.31
14646	CCTV02 อโศก 1	13.7536645	100.5871583	exat	working	2022-08-09T00:00:00	8:00:00	9:00:00	62	21	929	1800	0.52
14647	CCTV02 อโศก 1	13.7536645	100.5871583	exat	working	2022-08-09T00:00:00	9:00:00	10:00:00	58	18	874	1800	0.49
14648	CCTV02 อโศก 1	13.7536645	100.5871583	exat	working	2022-08-09T00:00:00	10:00:00	11:00:00	59	20	814	1800	0.45
14649	CCTV02 อโศก 1	13.7536645	100.5871583	exat	working	2022-08-09T00:00:00	11:00:00	12:00:00	56	19	910	1800	0.51
14650	CCTV02 อโศก 1	13.7536645	100.5871583	exat	working	2022-08-09T00:00:00	12:00:00	13:00:00	59	19	803	1800	0.45
14651	CCTV02 อโศก 1	13.7536645	100.5871583	exat	working	2022-08-09T00:00:00	13:00:00	14:00:00	61	20	852	1800	0.47
14652	CCTV02 อโศก 1	13.7536645	100.5871583	exat	working	2022-08-09T00:00:00	14:00:00	15:00:00	61	17	851	1800	0.47
14653	CCTV02 อโศก 1	13.7536645	100.5871583	exat	working	2022-08-09T00:00:00	15:00:00	16:00:00	59	19	854	1800	0.47
14654	CCTV02 อโศก 1	13.7536645	100.5871583	exat	working	2022-08-09T00:00:00	16:00:00	17:00:00	9	121	383	1800	0.21
14655	CCTV02 อโศก 1	13.7536645	100.5871583	exat	working	2022-08-09T00:00:00	17:00:00	18:00:00	55	18	357	1800	0.20
14656	CCTV02 อโศก 1	13.7536645	100.5871583	exat	working	2022-08-09T00:00:00	18:00:00	19:00:00	55	18	559	1800	0.31
14657	CCTV02 อโศก 1	13.7536645	100.5871583	exat	working	2022-09-09T00:00:00	5:00:00	6:00:00	127	21	119	1800	0.07
14658	CCTV02 อโศก 1	13.7536645	100.5871583	exat	working	2022-09-09T00:00:00	6:00:00	7:00:00	91	67	346	1800	0.19
14659	CCTV02 อโศก 1	13.7536645	100.5871583	exat	working	2022-09-09T00:00:00	7:00:00	8:00:00	91	67	358	1800	0.20
14660	CCTV02 อโศก 1	13.7536645	100.5871583	exat	working	2022-09-09T00:00:00	8:00:00	9:00:00	91	23	1455	1800	0.81
14661	CCTV02 อโศก 1	13.7536645	100.5871583	exat	working	2022-09-09T00:00:00	9:00:00	10:00:00	86	18	1400	1800	0.78
14662	CCTV02 อโศก 1	13.7536645	100.5871583	exat	working	2022-09-09T00:00:00	10:00:00	11:00:00	90	21	1322	1800	0.73
14663	CCTV02 อโศก 1	13.7536645	100.5871583	exat	working	2022-09-09T00:00:00	11:00:00	12:00:00	88	21	1450	1800	0.81
14664	CCTV02 อโศก 1	13.7536645	100.5871583	exat	working	2022-09-09T00:00:00	12:00:00	13:00:00	91	22	1347	1800	0.75
14665	CCTV02 อโศก 1	13.7536645	100.5871583	exat	working	2022-09-09T00:00:00	13:00:00	14:00:00	91	22	1462	1800	0.81
14666	CCTV02 อโศก 1	13.7536645	100.5871583	exat	working	2022-09-09T00:00:00	14:00:00	15:00:00	92	20	1445	1800	0.80
14667	CCTV02 อโศก 1	13.7536645	100.5871583	exat	working	2022-09-09T00:00:00	15:00:00	16:00:00	89	19	1475	1800	0.82
14668	CCTV02 อโศก 1	13.7536645	100.5871583	exat	working	2022-09-09T00:00:00	16:00:00	17:00:00	21	121	346	1800	0.19
14669	CCTV02 อโศก 1	13.7536645	100.5871583	exat	working	2022-09-09T00:00:00	17:00:00	18:00:00	91	17	351	1800	0.20
14670	CCTV02 อโศก 1	13.7536645	100.5871583	exat	working	2022-09-09T00:00:00	18:00:00	19:00:00	91	17	365	1800	0.20
14671	CCTV02 อโศก 1	13.7536645	100.5871583	exat	working	2022-10-09T00:00:00	5:00:00	6:00:00	131	22	134	1800	0.07
14672	CCTV02 อโศก 1	13.7536645	100.5871583	exat	working	2022-10-09T00:00:00	6:00:00	7:00:00	91	67	382	1800	0.21
14673	CCTV02 อโศก 1	13.7536645	100.5871583	exat	working	2022-10-09T00:00:00	7:00:00	8:00:00	91	67	359	1800	0.20
14674	CCTV02 อโศก 1	13.7536645	100.5871583	exat	holiday	2022-10-09T00:00:00	8:00:00	9:00:00	69	17	744	1800	0.41
14675	CCTV02 อโศก 1	13.7536645	100.5871583	exat	working	2022-10-09T00:00:00	9:00:00	10:00:00	64	15	690	1800	0.38
14676	CCTV02 อโศก 1	13.7536645	100.5871583	exat	working	2022-10-09T00:00:00	10:00:00	11:00:00	64	12	659	1800	0.37
14677	CCTV02 อโศก 1	13.7536645	100.5871583	exat	holiday	2022-10-09T00:00:00	11:00:00	12:00:00	91	17	374	1800	0.21
14678	CCTV02 อโศก 1	13.7536645	100.5871583	exat	working	2022-10-09T00:00:00	12:00:00	13:00:00	66	15	694	1800	0.39
14679	CCTV02 อโศก 1	13.7536645	100.5871583	exat	working	2022-10-09T00:00:00	13:00:00	14:00:00	65	12	650	1800	0.36
14680	CCTV02 อโศก 1	13.7536645	100.5871583	exat	working	2022-10-09T00:00:00	14:00:00	15:00:00	65	14	707	1800	0.39
14681	CCTV02 อโศก 1	13.7536645	100.5871583	exat	working	2022-10-09T00:00:00	15:00:00	16:00:00	64	15	645	1800	0.36
14682	CCTV02 อโศก 1	13.7536645	100.5871583	exat	working	2022-10-09T00:00:00	16:00:00	17:00:00	21	121	383	1800	0.21
14683	CCTV02 อโศก 1	13.7536645	100.5871583	exat	working	2022-10-09T00:00:00	17:00:00	18:00:00	91	17	363	1800	0.20
14684	CCTV02 อโศก 1	13.7536645	100.5871583	exat	holiday	2022-10-09T00:00:00	18:00:00	19:00:00	21	121	555	1800	0.31
14685	CCTV02 อโศก 1	13.7536645	100.5871583	exat	working	2022-11-09T00:00:00	5:00:00	6:00:00	79	14	67	1800	0.04
14686	CCTV02 อโศก 1	13.7536645	100.5871583	exat	working	2022-11-09T00:00:00	6:00:00	7:00:00	55	41	220	1800	0.12
14687	CCTV02 อโศก 1	13.7536645	100.5871583	exat	working	2022-11-09T00:00:00	7:00:00	8:00:00	55	41	207	1800	0.12
14688	CCTV02 อโศก 1	13.7536645	100.5871583	exat	holiday	2022-11-09T00:00:00	8:00:00	9:00:00	42	11	422	1800	0.23
14689	CCTV02 อโศก 1	13.7536645	100.5871583	exat	working	2022-11-09T00:00:00	9:00:00	10:00:00	39	9	396	1800	0.22
14690	CCTV02 อโศก 1	13.7536645	100.5871583	exat	working	2022-11-09T00:00:00	10:00:00	11:00:00	38	7	390	1800	0.22
14691	CCTV02 อโศก 1	13.7536645	100.5871583	exat	holiday	2022-11-09T00:00:00	11:00:00	12:00:00	55	11	219	1800	0.12
14692	CCTV02 อโศก 1	13.7536645	100.5871583	exat	working	2022-11-09T00:00:00	12:00:00	13:00:00	40	9	417	1800	0.23
14693	CCTV02 อโศก 1	13.7536645	100.5871583	exat	working	2022-11-09T00:00:00	13:00:00	14:00:00	39	7	388	1800	0.22
14694	CCTV02 อโศก 1	13.7536645	100.5871583	exat	working	2022-11-09T00:00:00	14:00:00	15:00:00	39	9	410	1800	0.23
14695	CCTV02 อโศก 1	13.7536645	100.5871583	exat	working	2022-11-09T00:00:00	15:00:00	16:00:00	39	9	377	1800	0.21
14696	CCTV02 อโศก 1	13.7536645	100.5871583	exat	working	2022-11-09T00:00:00	16:00:00	17:00:00	21	121	208	1800	0.12
14697	CCTV02 อโศก 1	13.7536645	100.5871583	exat	working	2022-11-09T00:00:00	17:00:00	18:00:00	55	11	229	1800	0.13
14698	CCTV02 อโศก 1	13.7536645	100.5871583	exat	holiday	2022-11-09T00:00:00	18:00:00	19:00:00	21	121	342	1800	0.19
14699	CCTV06 ทางขึ้นพหลฯ1 (อนุสาวรีย์)	13.7611639	100.597509	exat	working	2022-05-09T00:00:00	5:00:00	6:00:00	64	19	434	2700	0.16
14700	CCTV06 ทางขึ้นพหลฯ1 (อนุสาวรีย์)	13.7611639	100.597509	exat	working	2022-05-09T00:00:00	6:00:00	7:00:00	45	57	1263	2700	0.47
14701	CCTV06 ทางขึ้นพหลฯ1 (อนุสาวรีย์)	13.7611639	100.597509	exat	working	2022-05-09T00:00:00	7:00:00	8:00:00	29	40	1479	2700	0.55
14702	CCTV06 ทางขึ้นพหลฯ1 (อนุสาวรีย์)	13.7611639	100.597509	exat	working	2022-05-09T00:00:00	8:00:00	9:00:00	47	133	3076	2700	1.14
14703	CCTV06 ทางขึ้นพหลฯ1 (อนุสาวรีย์)	13.7611639	100.597509	exat	working	2022-05-09T00:00:00	9:00:00	10:00:00	44	130	2999	2700	1.11
14704	CCTV06 ทางขึ้นพหลฯ1 (อนุสาวรีย์)	13.7611639	100.597509	exat	working	2022-05-09T00:00:00	10:00:00	11:00:00	45	130	2968	2700	1.10
14705	CCTV06 ทางขึ้นพหลฯ1 (อนุสาวรีย์)	13.7611639	100.597509	exat	working	2022-05-09T00:00:00	11:00:00	12:00:00	83	63	2172	2700	0.80
14706	CCTV06 ทางขึ้นพหลฯ1 (อนุสาวรีย์)	13.7611639	100.597509	exat	working	2022-05-09T00:00:00	12:00:00	13:00:00	45	132	2948	2700	1.09
14707	CCTV06 ทางขึ้นพหลฯ1 (อนุสาวรีย์)	13.7611639	100.597509	exat	working	2022-05-09T00:00:00	13:00:00	14:00:00	43	131	2999	2700	1.11
14708	CCTV06 ทางขึ้นพหลฯ1 (อนุสาวรีย์)	13.7611639	100.597509	exat	working	2022-05-09T00:00:00	14:00:00	15:00:00	44	128	2977	2700	1.10
14709	CCTV06 ทางขึ้นพหลฯ1 (อนุสาวรีย์)	13.7611639	100.597509	exat	working	2022-05-09T00:00:00	15:00:00	16:00:00	47	130	2867	2700	1.06
14710	CCTV06 ทางขึ้นพหลฯ1 (อนุสาวรีย์)	13.7611639	100.597509	exat	working	2022-05-09T00:00:00	16:00:00	17:00:00	45	110	6389	2700	2.37
14711	CCTV06 ทางขึ้นพหลฯ1 (อนุสาวรีย์)	13.7611639	100.597509	exat	working	2022-05-09T00:00:00	17:00:00	18:00:00	78	88	5107	2700	1.89
14712	CCTV06 ทางขึ้นพหลฯ1 (อนุสาวรีย์)	13.7611639	100.597509	exat	working	2022-05-09T00:00:00	18:00:00	19:00:00	36	117	4907	2700	1.82
14713	CCTV06 ทางขึ้นพหลฯ1 (อนุสาวรีย์)	13.7611639	100.597509	exat	working	2022-06-09T00:00:00	5:00:00	6:00:00	63	19	425	2700	0.16
14714	CCTV06 ทางขึ้นพหลฯ1 (อนุสาวรีย์)	13.7611639	100.597509	exat	working	2022-06-09T00:00:00	6:00:00	7:00:00	45	57	1283	2700	0.48
14715	CCTV06 ทางขึ้นพหลฯ1 (อนุสาวรีย์)	13.7611639	100.597509	exat	working	2022-06-09T00:00:00	7:00:00	8:00:00	29	40	1440	2700	0.53
14716	CCTV06 ทางขึ้นพหลฯ1 (อนุสาวรีย์)	13.7611639	100.597509	exat	working	2022-06-09T00:00:00	8:00:00	9:00:00	47	133	3097	2700	1.15
14717	CCTV06 ทางขึ้นพหลฯ1 (อนุสาวรีย์)	13.7611639	100.597509	exat	working	2022-06-09T00:00:00	9:00:00	10:00:00	45	131	2985	2700	1.11
14718	CCTV06 ทางขึ้นพหลฯ1 (อนุสาวรีย์)	13.7611639	100.597509	exat	working	2022-06-09T00:00:00	10:00:00	11:00:00	44	131	2968	2700	1.10
14719	CCTV06 ทางขึ้นพหลฯ1 (อนุสาวรีย์)	13.7611639	100.597509	exat	working	2022-06-09T00:00:00	11:00:00	12:00:00	60	92	3006	2700	1.11
14720	CCTV06 ทางขึ้นพหลฯ1 (อนุสาวรีย์)	13.7611639	100.597509	exat	working	2022-06-09T00:00:00	12:00:00	13:00:00	46	132	3017	2700	1.12
14721	CCTV06 ทางขึ้นพหลฯ1 (อนุสาวรีย์)	13.7611639	100.597509	exat	working	2022-06-09T00:00:00	13:00:00	14:00:00	45	129	2974	2700	1.10
14722	CCTV06 ทางขึ้นพหลฯ1 (อนุสาวรีย์)	13.7611639	100.597509	exat	working	2022-06-09T00:00:00	14:00:00	15:00:00	44	130	2991	2700	1.11
14723	CCTV06 ทางขึ้นพหลฯ1 (อนุสาวรีย์)	13.7611639	100.597509	exat	working	2022-06-09T00:00:00	15:00:00	16:00:00	45	132	2893	2700	1.07
14724	CCTV06 ทางขึ้นพหลฯ1 (อนุสาวรีย์)	13.7611639	100.597509	exat	working	2022-06-09T00:00:00	16:00:00	17:00:00	37	133	5925	2700	2.19
14725	CCTV06 ทางขึ้นพหลฯ1 (อนุสาวรีย์)	13.7611639	100.597509	exat	working	2022-06-09T00:00:00	17:00:00	18:00:00	59	119	4377	2700	1.62
14726	CCTV06 ทางขึ้นพหลฯ1 (อนุสาวรีย์)	13.7611639	100.597509	exat	working	2022-06-09T00:00:00	18:00:00	19:00:00	31	104	5092	2700	1.89
14727	CCTV06 ทางขึ้นพหลฯ1 (อนุสาวรีย์)	13.7611639	100.597509	exat	working	2022-07-09T00:00:00	5:00:00	6:00:00	64	18	395	2700	0.15
14728	CCTV06 ทางขึ้นพหลฯ1 (อนุสาวรีย์)	13.7611639	100.597509	exat	working	2022-07-09T00:00:00	6:00:00	7:00:00	45	57	1276	2700	0.47
14729	CCTV06 ทางขึ้นพหลฯ1 (อนุสาวรีย์)	13.7611639	100.597509	exat	working	2022-07-09T00:00:00	7:00:00	8:00:00	29	40	1452	2700	0.54
14730	CCTV06 ทางขึ้นพหลฯ1 (อนุสาวรีย์)	13.7611639	100.597509	exat	working	2022-07-09T00:00:00	8:00:00	9:00:00	47	133	3101	2700	1.15
14731	CCTV06 ทางขึ้นพหลฯ1 (อนุสาวรีย์)	13.7611639	100.597509	exat	working	2022-07-09T00:00:00	9:00:00	10:00:00	46	132	2945	2700	1.09
14732	CCTV06 ทางขึ้นพหลฯ1 (อนุสาวรีย์)	13.7611639	100.597509	exat	working	2022-07-09T00:00:00	10:00:00	11:00:00	43	130	2966	2700	1.10
14733	CCTV06 ทางขึ้นพหลฯ1 (อนุสาวรีย์)	13.7611639	100.597509	exat	working	2022-07-09T00:00:00	11:00:00	12:00:00	37	122	3835	2700	1.42
14734	CCTV06 ทางขึ้นพหลฯ1 (อนุสาวรีย์)	13.7611639	100.597509	exat	working	2022-07-09T00:00:00	12:00:00	13:00:00	46	133	3062	2700	1.13
14735	CCTV06 ทางขึ้นพหลฯ1 (อนุสาวรีย์)	13.7611639	100.597509	exat	working	2022-07-09T00:00:00	13:00:00	14:00:00	46	128	2966	2700	1.10
14736	CCTV06 ทางขึ้นพหลฯ1 (อนุสาวรีย์)	13.7611639	100.597509	exat	working	2022-07-09T00:00:00	14:00:00	15:00:00	45	131	2970	2700	1.10
14737	CCTV06 ทางขึ้นพหลฯ1 (อนุสาวรีย์)	13.7611639	100.597509	exat	working	2022-07-09T00:00:00	15:00:00	16:00:00	44	131	2962	2700	1.10
14738	CCTV06 ทางขึ้นพหลฯ1 (อนุสาวรีย์)	13.7611639	100.597509	exat	working	2022-07-09T00:00:00	16:00:00	17:00:00	28	155	5425	2700	2.01
14739	CCTV06 ทางขึ้นพหลฯ1 (อนุสาวรีย์)	13.7611639	100.597509	exat	working	2022-07-09T00:00:00	17:00:00	18:00:00	40	152	3627	2700	1.34
14740	CCTV06 ทางขึ้นพหลฯ1 (อนุสาวรีย์)	13.7611639	100.597509	exat	working	2022-07-09T00:00:00	18:00:00	19:00:00	25	91	5295	2700	1.96
14741	CCTV06 ทางขึ้นพหลฯ1 (อนุสาวรีย์)	13.7611639	100.597509	exat	working	2022-08-09T00:00:00	5:00:00	6:00:00	64	15	387	2700	0.14
14742	CCTV06 ทางขึ้นพหลฯ1 (อนุสาวรีย์)	13.7611639	100.597509	exat	working	2022-08-09T00:00:00	6:00:00	7:00:00	46	45	1272	2700	0.47
14743	CCTV06 ทางขึ้นพหลฯ1 (อนุสาวรีย์)	13.7611639	100.597509	exat	working	2022-08-09T00:00:00	7:00:00	8:00:00	39	28	1077	2700	0.40
14744	CCTV06 ทางขึ้นพหลฯ1 (อนุสาวรีย์)	13.7611639	100.597509	exat	working	2022-08-09T00:00:00	8:00:00	9:00:00	45	93	1996	2700	0.74
14745	CCTV06 ทางขึ้นพหลฯ1 (อนุสาวรีย์)	13.7611639	100.597509	exat	working	2022-08-09T00:00:00	9:00:00	10:00:00	43	91	1884	2700	0.70
14746	CCTV06 ทางขึ้นพหลฯ1 (อนุสาวรีย์)	13.7611639	100.597509	exat	working	2022-08-09T00:00:00	10:00:00	11:00:00	41	90	1869	2700	0.69
14747	CCTV06 ทางขึ้นพหลฯ1 (อนุสาวรีย์)	13.7611639	100.597509	exat	working	2022-08-09T00:00:00	11:00:00	12:00:00	41	97	3487	2700	1.29
14748	CCTV06 ทางขึ้นพหลฯ1 (อนุสาวรีย์)	13.7611639	100.597509	exat	working	2022-08-09T00:00:00	12:00:00	13:00:00	42	90	1904	2700	0.71
14749	CCTV06 ทางขึ้นพหลฯ1 (อนุสาวรีย์)	13.7611639	100.597509	exat	working	2022-08-09T00:00:00	13:00:00	14:00:00	42	89	1908	2700	0.71
14750	CCTV06 ทางขึ้นพหลฯ1 (อนุสาวรีย์)	13.7611639	100.597509	exat	working	2022-08-09T00:00:00	14:00:00	15:00:00	42	90	1870	2700	0.69
14751	CCTV06 ทางขึ้นพหลฯ1 (อนุสาวรีย์)	13.7611639	100.597509	exat	working	2022-08-09T00:00:00	15:00:00	16:00:00	43	89	1873	2700	0.69
14752	CCTV06 ทางขึ้นพหลฯ1 (อนุสาวรีย์)	13.7611639	100.597509	exat	working	2022-08-09T00:00:00	16:00:00	17:00:00	54	148	6374	2700	2.36
14753	CCTV06 ทางขึ้นพหลฯ1 (อนุสาวรีย์)	13.7611639	100.597509	exat	working	2022-08-09T00:00:00	17:00:00	18:00:00	39	149	4535	2700	1.68
14754	CCTV06 ทางขึ้นพหลฯ1 (อนุสาวรีย์)	13.7611639	100.597509	exat	working	2022-08-09T00:00:00	18:00:00	19:00:00	27	119	5271	2700	1.95
14755	CCTV06 ทางขึ้นพหลฯ1 (อนุสาวรีย์)	13.7611639	100.597509	exat	working	2022-09-09T00:00:00	5:00:00	6:00:00	66	11	423	2700	0.16
14756	CCTV06 ทางขึ้นพหลฯ1 (อนุสาวรีย์)	13.7611639	100.597509	exat	working	2022-09-09T00:00:00	6:00:00	7:00:00	47	32	1268	2700	0.47
14757	CCTV06 ทางขึ้นพหลฯ1 (อนุสาวรีย์)	13.7611639	100.597509	exat	working	2022-09-09T00:00:00	7:00:00	8:00:00	48	16	724	2700	0.27
14758	CCTV06 ทางขึ้นพหลฯ1 (อนุสาวรีย์)	13.7611639	100.597509	exat	working	2022-09-09T00:00:00	8:00:00	9:00:00	43	52	908	2700	0.34
14759	CCTV06 ทางขึ้นพหลฯ1 (อนุสาวรีย์)	13.7611639	100.597509	exat	working	2022-09-09T00:00:00	9:00:00	10:00:00	41	50	848	2700	0.31
14760	CCTV06 ทางขึ้นพหลฯ1 (อนุสาวรีย์)	13.7611639	100.597509	exat	working	2022-09-09T00:00:00	10:00:00	11:00:00	38	50	767	2700	0.28
14761	CCTV06 ทางขึ้นพหลฯ1 (อนุสาวรีย์)	13.7611639	100.597509	exat	working	2022-09-09T00:00:00	11:00:00	12:00:00	46	72	3093	2700	1.15
14762	CCTV06 ทางขึ้นพหลฯ1 (อนุสาวรีย์)	13.7611639	100.597509	exat	working	2022-09-09T00:00:00	12:00:00	13:00:00	39	47	752	2700	0.28
14763	CCTV06 ทางขึ้นพหลฯ1 (อนุสาวรีย์)	13.7611639	100.597509	exat	working	2022-09-09T00:00:00	13:00:00	14:00:00	37	50	859	2700	0.32
14764	CCTV06 ทางขึ้นพหลฯ1 (อนุสาวรีย์)	13.7611639	100.597509	exat	working	2022-09-09T00:00:00	14:00:00	15:00:00	39	49	795	2700	0.29
14765	CCTV06 ทางขึ้นพหลฯ1 (อนุสาวรีย์)	13.7611639	100.597509	exat	working	2022-09-09T00:00:00	15:00:00	16:00:00	42	47	793	2700	0.29
14766	CCTV06 ทางขึ้นพหลฯ1 (อนุสาวรีย์)	13.7611639	100.597509	exat	working	2022-09-09T00:00:00	16:00:00	17:00:00	80	141	7249	2700	2.68
14767	CCTV06 ทางขึ้นพหลฯ1 (อนุสาวรีย์)	13.7611639	100.597509	exat	working	2022-09-09T00:00:00	17:00:00	18:00:00	37	146	5433	2700	2.01
14768	CCTV06 ทางขึ้นพหลฯ1 (อนุสาวรีย์)	13.7611639	100.597509	exat	working	2022-09-09T00:00:00	18:00:00	19:00:00	29	147	5269	2700	1.95
14769	CCTV06 ทางขึ้นพหลฯ1 (อนุสาวรีย์)	13.7611639	100.597509	exat	working	2022-10-09T00:00:00	5:00:00	6:00:00	73	11	404	2700	0.15
14770	CCTV06 ทางขึ้นพหลฯ1 (อนุสาวรีย์)	13.7611639	100.597509	exat	holiday	2022-10-09T00:00:00	6:00:00	7:00:00	51	32	1251	2700	0.46
14771	CCTV06 ทางขึ้นพหลฯ1 (อนุสาวรีย์)	13.7611639	100.597509	exat	holiday	2022-10-09T00:00:00	7:00:00	8:00:00	48	73	2733	2700	1.01
14772	CCTV06 ทางขึ้นพหลฯ1 (อนุสาวรีย์)	13.7611639	100.597509	exat	holiday	2022-10-09T00:00:00	8:00:00	9:00:00	64	54	1641	2700	0.61
14773	CCTV06 ทางขึ้นพหลฯ1 (อนุสาวรีย์)	13.7611639	100.597509	exat	working	2022-10-09T00:00:00	9:00:00	10:00:00	63	49	1506	2700	0.56
14774	CCTV06 ทางขึ้นพหลฯ1 (อนุสาวรีย์)	13.7611639	100.597509	exat	working	2022-10-09T00:00:00	10:00:00	11:00:00	61	53	1505	2700	0.56
14775	CCTV06 ทางขึ้นพหลฯ1 (อนุสาวรีย์)	13.7611639	100.597509	exat	holiday	2022-10-09T00:00:00	11:00:00	12:00:00	42	59	1808	2700	0.67
14776	CCTV06 ทางขึ้นพหลฯ1 (อนุสาวรีย์)	13.7611639	100.597509	exat	working	2022-10-09T00:00:00	12:00:00	13:00:00	60	49	1547	2700	0.57
14777	CCTV06 ทางขึ้นพหลฯ1 (อนุสาวรีย์)	13.7611639	100.597509	exat	working	2022-10-09T00:00:00	13:00:00	14:00:00	59	51	1567	2700	0.58
14778	CCTV06 ทางขึ้นพหลฯ1 (อนุสาวรีย์)	13.7611639	100.597509	exat	working	2022-10-09T00:00:00	14:00:00	15:00:00	61	52	1639	2700	0.61
14779	CCTV06 ทางขึ้นพหลฯ1 (อนุสาวรีย์)	13.7611639	100.597509	exat	working	2022-10-09T00:00:00	15:00:00	16:00:00	59	53	1648	2700	0.61
14780	CCTV06 ทางขึ้นพหลฯ1 (อนุสาวรีย์)	13.7611639	100.597509	exat	holiday	2022-10-09T00:00:00	16:00:00	17:00:00	91	42	2553	2700	0.95
14781	CCTV06 ทางขึ้นพหลฯ1 (อนุสาวรีย์)	13.7611639	100.597509	exat	holiday	2022-10-09T00:00:00	17:00:00	18:00:00	72	23	2362	2700	0.87
14782	CCTV06 ทางขึ้นพหลฯ1 (อนุสาวรีย์)	13.7611639	100.597509	exat	holiday	2022-10-09T00:00:00	18:00:00	19:00:00	73	20	1834	2700	0.68
14783	CCTV06 ทางขึ้นพหลฯ1 (อนุสาวรีย์)	13.7611639	100.597509	exat	working	2022-11-09T00:00:00	5:00:00	6:00:00	44	7	232	2700	0.09
14784	CCTV06 ทางขึ้นพหลฯ1 (อนุสาวรีย์)	13.7611639	100.597509	exat	holiday	2022-11-09T00:00:00	6:00:00	7:00:00	31	20	747	2700	0.28
14785	CCTV06 ทางขึ้นพหลฯ1 (อนุสาวรีย์)	13.7611639	100.597509	exat	holiday	2022-11-09T00:00:00	7:00:00	8:00:00	29	44	1631	2700	0.60
14786	CCTV06 ทางขึ้นพหลฯ1 (อนุสาวรีย์)	13.7611639	100.597509	exat	holiday	2022-11-09T00:00:00	8:00:00	9:00:00	39	33	981	2700	0.36
14787	CCTV06 ทางขึ้นพหลฯ1 (อนุสาวรีย์)	13.7611639	100.597509	exat	working	2022-11-09T00:00:00	9:00:00	10:00:00	38	29	900	2700	0.33
14788	CCTV06 ทางขึ้นพหลฯ1 (อนุสาวรีย์)	13.7611639	100.597509	exat	working	2022-11-09T00:00:00	10:00:00	11:00:00	37	32	901	2700	0.33
14789	CCTV06 ทางขึ้นพหลฯ1 (อนุสาวรีย์)	13.7611639	100.597509	exat	holiday	2022-11-09T00:00:00	11:00:00	12:00:00	25	35	1091	2700	0.40
14790	CCTV06 ทางขึ้นพหลฯ1 (อนุสาวรีย์)	13.7611639	100.597509	exat	working	2022-11-09T00:00:00	12:00:00	13:00:00	36	29	902	2700	0.33
14791	CCTV06 ทางขึ้นพหลฯ1 (อนุสาวรีย์)	13.7611639	100.597509	exat	working	2022-11-09T00:00:00	13:00:00	14:00:00	36	31	954	2700	0.35
14792	CCTV06 ทางขึ้นพหลฯ1 (อนุสาวรีย์)	13.7611639	100.597509	exat	working	2022-11-09T00:00:00	14:00:00	15:00:00	37	31	971	2700	0.36
14793	CCTV06 ทางขึ้นพหลฯ1 (อนุสาวรีย์)	13.7611639	100.597509	exat	working	2022-11-09T00:00:00	15:00:00	16:00:00	35	32	974	2700	0.36
14794	CCTV06 ทางขึ้นพหลฯ1 (อนุสาวรีย์)	13.7611639	100.597509	exat	holiday	2022-11-09T00:00:00	16:00:00	17:00:00	55	25	1508	2700	0.56
14795	CCTV06 ทางขึ้นพหลฯ1 (อนุสาวรีย์)	13.7611639	100.597509	exat	holiday	2022-11-09T00:00:00	17:00:00	18:00:00	43	14	1417	2700	0.52
14796	CCTV06 ทางขึ้นพหลฯ1 (อนุสาวรีย์)	13.7611639	100.597509	exat	holiday	2022-11-09T00:00:00	18:00:00	19:00:00	44	12	1086	2700	0.40
14797	CCTV23 สามัคคี	13.8209014	100.5491674	exat	working	2022-05-09T00:00:00	5:00:00	6:00:00	129	5	275	2700	0.10
14798	CCTV23 สามัคคี	13.8209014	100.5491674	exat	working	2022-05-09T00:00:00	6:00:00	7:00:00	91	14	907	2700	0.34
14799	CCTV23 สามัคคี	13.8209014	100.5491674	exat	working	2022-05-09T00:00:00	7:00:00	8:00:00	91	14	1083	2700	0.40
14800	CCTV23 สามัคคี	13.8209014	100.5491674	exat	working	2022-05-09T00:00:00	8:00:00	9:00:00	91	14	1072	2700	0.40
14801	CCTV23 สามัคคี	13.8209014	100.5491674	exat	working	2022-05-09T00:00:00	9:00:00	10:00:00	89	9	1021	2700	0.38
14802	CCTV23 สามัคคี	13.8209014	100.5491674	exat	working	2022-05-09T00:00:00	10:00:00	11:00:00	89	9	984	2700	0.36
14803	CCTV23 สามัคคี	13.8209014	100.5491674	exat	working	2022-05-09T00:00:00	11:00:00	12:00:00	51	29	3483	2700	1.29
14804	CCTV23 สามัคคี	13.8209014	100.5491674	exat	working	2022-05-09T00:00:00	12:00:00	13:00:00	89	13	949	2700	0.35
14805	CCTV23 สามัคคี	13.8209014	100.5491674	exat	working	2022-05-09T00:00:00	13:00:00	14:00:00	88	10	938	2700	0.35
14806	CCTV23 สามัคคี	13.8209014	100.5491674	exat	working	2022-05-09T00:00:00	14:00:00	15:00:00	90	10	997	2700	0.37
14807	CCTV23 สามัคคี	13.8209014	100.5491674	exat	working	2022-05-09T00:00:00	15:00:00	16:00:00	88	12	1030	2700	0.38
14808	CCTV23 สามัคคี	13.8209014	100.5491674	exat	working	2022-05-09T00:00:00	16:00:00	17:00:00	26	110	4874	2700	1.81
14809	CCTV23 สามัคคี	13.8209014	100.5491674	exat	working	2022-05-09T00:00:00	17:00:00	18:00:00	15	121	4191	2700	1.55
14810	CCTV23 สามัคคี	13.8209014	100.5491674	exat	working	2022-05-09T00:00:00	18:00:00	19:00:00	11	121	2725	2700	1.01
14811	CCTV23 สามัคคี	13.8209014	100.5491674	exat	working	2022-06-09T00:00:00	5:00:00	6:00:00	130	5	318	2700	0.12
14812	CCTV23 สามัคคี	13.8209014	100.5491674	exat	working	2022-06-09T00:00:00	6:00:00	7:00:00	91	14	907	2700	0.34
14813	CCTV23 สามัคคี	13.8209014	100.5491674	exat	working	2022-06-09T00:00:00	7:00:00	8:00:00	91	14	1088	2700	0.40
14814	CCTV23 สามัคคี	13.8209014	100.5491674	exat	working	2022-06-09T00:00:00	8:00:00	9:00:00	91	14	1077	2700	0.40
14815	CCTV23 สามัคคี	13.8209014	100.5491674	exat	working	2022-06-09T00:00:00	9:00:00	10:00:00	89	9	1012	2700	0.37
14816	CCTV23 สามัคคี	13.8209014	100.5491674	exat	working	2022-06-09T00:00:00	10:00:00	11:00:00	88	11	975	2700	0.36
14817	CCTV23 สามัคคี	13.8209014	100.5491674	exat	working	2022-06-09T00:00:00	11:00:00	12:00:00	71	24	2544	2700	0.94
14818	CCTV23 สามัคคี	13.8209014	100.5491674	exat	working	2022-06-09T00:00:00	12:00:00	13:00:00	89	12	945	2700	0.35
14819	CCTV23 สามัคคี	13.8209014	100.5491674	exat	working	2022-06-09T00:00:00	13:00:00	14:00:00	88	11	947	2700	0.35
14820	CCTV23 สามัคคี	13.8209014	100.5491674	exat	working	2022-06-09T00:00:00	14:00:00	15:00:00	89	10	975	2700	0.36
14821	CCTV23 สามัคคี	13.8209014	100.5491674	exat	working	2022-06-09T00:00:00	15:00:00	16:00:00	89	12	1000	2700	0.37
14822	CCTV23 สามัคคี	13.8209014	100.5491674	exat	working	2022-06-09T00:00:00	16:00:00	17:00:00	58	63	3824	2700	1.42
14823	CCTV23 สามัคคี	13.8209014	100.5491674	exat	working	2022-06-09T00:00:00	17:00:00	18:00:00	49	89	3114	2700	1.15
14824	CCTV23 สามัคคี	13.8209014	100.5491674	exat	working	2022-06-09T00:00:00	18:00:00	19:00:00	51	102	1981	2700	0.73
14825	CCTV23 สามัคคี	13.8209014	100.5491674	exat	working	2022-07-09T00:00:00	5:00:00	6:00:00	130	5	291	2700	0.11
14826	CCTV23 สามัคคี	13.8209014	100.5491674	exat	working	2022-07-09T00:00:00	6:00:00	7:00:00	91	14	908	2700	0.34
14827	CCTV23 สามัคคี	13.8209014	100.5491674	exat	working	2022-07-09T00:00:00	7:00:00	8:00:00	91	14	1081	2700	0.40
14828	CCTV23 สามัคคี	13.8209014	100.5491674	exat	working	2022-07-09T00:00:00	8:00:00	9:00:00	91	14	1089	2700	0.40
14829	CCTV23 สามัคคี	13.8209014	100.5491674	exat	working	2022-07-09T00:00:00	9:00:00	10:00:00	88	9	1005	2700	0.37
14830	CCTV23 สามัคคี	13.8209014	100.5491674	exat	working	2022-07-09T00:00:00	10:00:00	11:00:00	86	13	963	2700	0.36
14831	CCTV23 สามัคคี	13.8209014	100.5491674	exat	working	2022-07-09T00:00:00	11:00:00	12:00:00	91	19	1646	2700	0.61
14832	CCTV23 สามัคคี	13.8209014	100.5491674	exat	working	2022-07-09T00:00:00	12:00:00	13:00:00	89	12	940	2700	0.35
14833	CCTV23 สามัคคี	13.8209014	100.5491674	exat	working	2022-07-09T00:00:00	13:00:00	14:00:00	89	12	955	2700	0.35
14834	CCTV23 สามัคคี	13.8209014	100.5491674	exat	working	2022-07-09T00:00:00	14:00:00	15:00:00	89	10	979	2700	0.36
14835	CCTV23 สามัคคี	13.8209014	100.5491674	exat	working	2022-07-09T00:00:00	15:00:00	16:00:00	89	12	936	2700	0.35
14836	CCTV23 สามัคคี	13.8209014	100.5491674	exat	working	2022-07-09T00:00:00	16:00:00	17:00:00	91	17	2752	2700	1.02
14837	CCTV23 สามัคคี	13.8209014	100.5491674	exat	working	2022-07-09T00:00:00	17:00:00	18:00:00	84	17	2009	2700	0.74
14838	CCTV23 สามัคคี	13.8209014	100.5491674	exat	working	2022-07-09T00:00:00	18:00:00	19:00:00	91	24	1255	2700	0.46
14839	CCTV23 สามัคคี	13.8209014	100.5491674	exat	working	2022-08-09T00:00:00	5:00:00	6:00:00	131	6	444	2700	0.16
14840	CCTV23 สามัคคี	13.8209014	100.5491674	exat	working	2022-08-09T00:00:00	6:00:00	7:00:00	91	17	1467	2700	0.54
14841	CCTV23 สามัคคี	13.8209014	100.5491674	exat	working	2022-08-09T00:00:00	7:00:00	8:00:00	87	16	1821	2700	0.67
14842	CCTV23 สามัคคี	13.8209014	100.5491674	exat	working	2022-08-09T00:00:00	8:00:00	9:00:00	91	15	1278	2700	0.47
14843	CCTV23 สามัคคี	13.8209014	100.5491674	exat	working	2022-08-09T00:00:00	9:00:00	10:00:00	88	11	1173	2700	0.43
14844	CCTV23 สามัคคี	13.8209014	100.5491674	exat	working	2022-08-09T00:00:00	10:00:00	11:00:00	88	13	1186	2700	0.44
14845	CCTV23 สามัคคี	13.8209014	100.5491674	exat	working	2022-08-09T00:00:00	11:00:00	12:00:00	91	19	2102	2700	0.78
14846	CCTV23 สามัคคี	13.8209014	100.5491674	exat	working	2022-08-09T00:00:00	12:00:00	13:00:00	88	12	1153	2700	0.43
14847	CCTV23 สามัคคี	13.8209014	100.5491674	exat	working	2022-08-09T00:00:00	13:00:00	14:00:00	89	13	1207	2700	0.45
14848	CCTV23 สามัคคี	13.8209014	100.5491674	exat	working	2022-08-09T00:00:00	14:00:00	15:00:00	87	11	1161	2700	0.43
14849	CCTV23 สามัคคี	13.8209014	100.5491674	exat	working	2022-08-09T00:00:00	15:00:00	16:00:00	88	13	1156	2700	0.43
14850	CCTV23 สามัคคี	13.8209014	100.5491674	exat	working	2022-08-09T00:00:00	16:00:00	17:00:00	91	18	2462	2700	0.91
14851	CCTV23 สามัคคี	13.8209014	100.5491674	exat	working	2022-08-09T00:00:00	17:00:00	18:00:00	87	20	2004	2700	0.74
14852	CCTV23 สามัคคี	13.8209014	100.5491674	exat	working	2022-08-09T00:00:00	18:00:00	19:00:00	89	23	1552	2700	0.57
14853	CCTV23 สามัคคี	13.8209014	100.5491674	exat	working	2022-09-09T00:00:00	5:00:00	6:00:00	128	7	705	2700	0.26
14854	CCTV23 สามัคคี	13.8209014	100.5491674	exat	working	2022-09-09T00:00:00	6:00:00	7:00:00	91	21	2007	2700	0.74
14855	CCTV23 สามัคคี	13.8209014	100.5491674	exat	working	2022-09-09T00:00:00	7:00:00	8:00:00	83	17	2539	2700	0.94
14856	CCTV23 สามัคคี	13.8209014	100.5491674	exat	working	2022-09-09T00:00:00	8:00:00	9:00:00	91	16	1451	2700	0.54
14857	CCTV23 สามัคคี	13.8209014	100.5491674	exat	working	2022-09-09T00:00:00	9:00:00	10:00:00	87	14	1342	2700	0.50
14858	CCTV23 สามัคคี	13.8209014	100.5491674	exat	working	2022-09-09T00:00:00	10:00:00	11:00:00	89	14	1389	2700	0.51
14859	CCTV23 สามัคคี	13.8209014	100.5491674	exat	working	2022-09-09T00:00:00	11:00:00	12:00:00	91	19	2574	2700	0.95
14860	CCTV23 สามัคคี	13.8209014	100.5491674	exat	working	2022-09-09T00:00:00	12:00:00	13:00:00	88	11	1359	2700	0.50
14861	CCTV23 สามัคคี	13.8209014	100.5491674	exat	working	2022-09-09T00:00:00	13:00:00	14:00:00	89	14	1418	2700	0.53
14862	CCTV23 สามัคคี	13.8209014	100.5491674	exat	working	2022-09-09T00:00:00	14:00:00	15:00:00	86	13	1351	2700	0.50
14863	CCTV23 สามัคคี	13.8209014	100.5491674	exat	working	2022-09-09T00:00:00	15:00:00	16:00:00	87	14	1393	2700	0.52
14864	CCTV23 สามัคคี	13.8209014	100.5491674	exat	working	2022-09-09T00:00:00	16:00:00	17:00:00	91	19	2190	2700	0.81
14865	CCTV23 สามัคคี	13.8209014	100.5491674	exat	working	2022-09-09T00:00:00	17:00:00	18:00:00	91	23	2007	2700	0.74
14866	CCTV23 สามัคคี	13.8209014	100.5491674	exat	working	2022-09-09T00:00:00	18:00:00	19:00:00	87	21	1832	2700	0.68
14867	CCTV23 สามัคคี	13.8209014	100.5491674	exat	working	2022-10-09T00:00:00	5:00:00	6:00:00	128	6	232	2700	0.09
14868	CCTV23 สามัคคี	13.8209014	100.5491674	exat	holiday	2022-10-09T00:00:00	6:00:00	7:00:00	91	17	726	2700	0.27
14869	CCTV23 สามัคคี	13.8209014	100.5491674	exat	holiday	2022-10-09T00:00:00	7:00:00	8:00:00	91	15	544	2700	0.20
14870	CCTV23 สามัคคี	13.8209014	100.5491674	exat	holiday	2022-10-09T00:00:00	8:00:00	9:00:00	91	14	1632	2700	0.60
14871	CCTV23 สามัคคี	13.8209014	100.5491674	exat	working	2022-10-09T00:00:00	9:00:00	10:00:00	90	10	1555	2700	0.58
14872	CCTV23 สามัคคี	13.8209014	100.5491674	exat	working	2022-10-09T00:00:00	10:00:00	11:00:00	87	9	1626	2700	0.60
14873	CCTV23 สามัคคี	13.8209014	100.5491674	exat	holiday	2022-10-09T00:00:00	11:00:00	12:00:00	91	15	2164	2700	0.80
14874	CCTV23 สามัคคี	13.8209014	100.5491674	exat	working	2022-10-09T00:00:00	12:00:00	13:00:00	88	13	1497	2700	0.55
14875	CCTV23 สามัคคี	13.8209014	100.5491674	exat	working	2022-10-09T00:00:00	13:00:00	14:00:00	87	12	1572	2700	0.58
14876	CCTV23 สามัคคี	13.8209014	100.5491674	exat	working	2022-10-09T00:00:00	14:00:00	15:00:00	89	10	1517	2700	0.56
14877	CCTV23 สามัคคี	13.8209014	100.5491674	exat	working	2022-10-09T00:00:00	15:00:00	16:00:00	89	11	1524	2700	0.56
14878	CCTV23 สามัคคี	13.8209014	100.5491674	exat	holiday	2022-10-09T00:00:00	16:00:00	17:00:00	91	16	1819	2700	0.67
14879	CCTV23 สามัคคี	13.8209014	100.5491674	exat	holiday	2022-10-09T00:00:00	17:00:00	18:00:00	91	24	1813	2700	0.67
14880	CCTV23 สามัคคี	13.8209014	100.5491674	exat	holiday	2022-10-09T00:00:00	18:00:00	19:00:00	75	47	3094	2700	1.15
14881	CCTV23 สามัคคี	13.8209014	100.5491674	exat	working	2022-11-09T00:00:00	5:00:00	6:00:00	77	4	143	2700	0.05
14882	CCTV23 สามัคคี	13.8209014	100.5491674	exat	holiday	2022-11-09T00:00:00	6:00:00	7:00:00	55	10	437	2700	0.16
14883	CCTV23 สามัคคี	13.8209014	100.5491674	exat	holiday	2022-11-09T00:00:00	7:00:00	8:00:00	55	9	327	2700	0.12
14884	CCTV23 สามัคคี	13.8209014	100.5491674	exat	holiday	2022-11-09T00:00:00	8:00:00	9:00:00	55	8	991	2700	0.37
14885	CCTV23 สามัคคี	13.8209014	100.5491674	exat	working	2022-11-09T00:00:00	9:00:00	10:00:00	54	6	926	2700	0.34
14886	CCTV23 สามัคคี	13.8209014	100.5491674	exat	working	2022-11-09T00:00:00	10:00:00	11:00:00	52	6	967	2700	0.36
14887	CCTV23 สามัคคี	13.8209014	100.5491674	exat	holiday	2022-11-09T00:00:00	11:00:00	12:00:00	55	9	1307	2700	0.48
14888	CCTV23 สามัคคี	13.8209014	100.5491674	exat	working	2022-11-09T00:00:00	12:00:00	13:00:00	53	8	901	2700	0.33
14889	CCTV23 สามัคคี	13.8209014	100.5491674	exat	working	2022-11-09T00:00:00	13:00:00	14:00:00	53	7	937	2700	0.35
14890	CCTV23 สามัคคี	13.8209014	100.5491674	exat	working	2022-11-09T00:00:00	14:00:00	15:00:00	54	6	920	2700	0.34
14891	CCTV23 สามัคคี	13.8209014	100.5491674	exat	working	2022-11-09T00:00:00	15:00:00	16:00:00	54	7	937	2700	0.35
14892	CCTV23 สามัคคี	13.8209014	100.5491674	exat	holiday	2022-11-09T00:00:00	16:00:00	17:00:00	55	10	1094	2700	0.41
14893	CCTV23 สามัคคี	13.8209014	100.5491674	exat	holiday	2022-11-09T00:00:00	17:00:00	18:00:00	55	14	1107	2700	0.41
14894	CCTV23 สามัคคี	13.8209014	100.5491674	exat	holiday	2022-11-09T00:00:00	18:00:00	19:00:00	45	28	1855	2700	0.69
14895	CCTV17 หมอชิต	13.8497023	100.5333702	exat	working	2022-05-09T00:00:00	5:00:00	6:00:00	72	23	1154	2700	0.43
14896	CCTV17 หมอชิต	13.8497023	100.5333702	exat	working	2022-05-09T00:00:00	6:00:00	7:00:00	51	71	3648	2700	1.35
14897	CCTV17 หมอชิต	13.8497023	100.5333702	exat	working	2022-05-09T00:00:00	7:00:00	8:00:00	49	118	4712	2700	1.75
14898	CCTV17 หมอชิต	13.8497023	100.5333702	exat	working	2022-05-09T00:00:00	8:00:00	9:00:00	15	121	3667	2700	1.36
14899	CCTV17 หมอชิต	13.8497023	100.5333702	exat	working	2022-05-09T00:00:00	9:00:00	10:00:00	10	122	3548	2700	1.31
14900	CCTV17 หมอชิต	13.8497023	100.5333702	exat	working	2022-05-09T00:00:00	10:00:00	11:00:00	14	122	3635	2700	1.35
14901	CCTV17 หมอชิต	13.8497023	100.5333702	exat	working	2022-05-09T00:00:00	11:00:00	12:00:00	12	121	6722	2700	2.49
14902	CCTV17 หมอชิต	13.8497023	100.5333702	exat	working	2022-05-09T00:00:00	12:00:00	13:00:00	10	121	3536	2700	1.31
14903	CCTV17 หมอชิต	13.8497023	100.5333702	exat	working	2022-05-09T00:00:00	13:00:00	14:00:00	11	121	3555	2700	1.32
14904	CCTV17 หมอชิต	13.8497023	100.5333702	exat	working	2022-05-09T00:00:00	14:00:00	15:00:00	10	122	3631	2700	1.34
14905	CCTV17 หมอชิต	13.8497023	100.5333702	exat	working	2022-05-09T00:00:00	15:00:00	16:00:00	14	121	3584	2700	1.33
14906	CCTV17 หมอชิต	13.8497023	100.5333702	exat	working	2022-05-09T00:00:00	16:00:00	17:00:00	34	181	5832	2700	2.16
14907	CCTV17 หมอชิต	13.8497023	100.5333702	exat	working	2022-05-09T00:00:00	17:00:00	18:00:00	29	181	5990	2700	2.22
14908	CCTV17 หมอชิต	13.8497023	100.5333702	exat	working	2022-05-09T00:00:00	18:00:00	19:00:00	12	121	5822	2700	2.16
14909	CCTV17 หมอชิต	13.8497023	100.5333702	exat	working	2022-06-09T00:00:00	5:00:00	6:00:00	71	24	1146	2700	0.42
14910	CCTV17 หมอชิต	13.8497023	100.5333702	exat	working	2022-06-09T00:00:00	6:00:00	7:00:00	51	71	3630	2700	1.34
14911	CCTV17 หมอชิต	13.8497023	100.5333702	exat	working	2022-06-09T00:00:00	7:00:00	8:00:00	49	118	4739	2700	1.76
14912	CCTV17 หมอชิต	13.8497023	100.5333702	exat	working	2022-06-09T00:00:00	8:00:00	9:00:00	15	121	3641	2700	1.35
14913	CCTV17 หมอชิต	13.8497023	100.5333702	exat	working	2022-06-09T00:00:00	9:00:00	10:00:00	10	121	3575	2700	1.32
14914	CCTV17 หมอชิต	13.8497023	100.5333702	exat	working	2022-06-09T00:00:00	10:00:00	11:00:00	13	121	3604	2700	1.33
14915	CCTV17 หมอชิต	13.8497023	100.5333702	exat	working	2022-06-09T00:00:00	11:00:00	12:00:00	24	177	6016	2700	2.23
14916	CCTV17 หมอชิต	13.8497023	100.5333702	exat	working	2022-06-09T00:00:00	12:00:00	13:00:00	12	122	3552	2700	1.32
14917	CCTV17 หมอชิต	13.8497023	100.5333702	exat	working	2022-06-09T00:00:00	13:00:00	14:00:00	11	121	3546	2700	1.31
14918	CCTV17 หมอชิต	13.8497023	100.5333702	exat	working	2022-06-09T00:00:00	14:00:00	15:00:00	12	121	3591	2700	1.33
14919	CCTV17 หมอชิต	13.8497023	100.5333702	exat	working	2022-06-09T00:00:00	15:00:00	16:00:00	13	121	3628	2700	1.34
14920	CCTV17 หมอชิต	13.8497023	100.5333702	exat	working	2022-06-09T00:00:00	16:00:00	17:00:00	34	176	6169	2700	2.28
14921	CCTV17 หมอชิต	13.8497023	100.5333702	exat	working	2022-06-09T00:00:00	17:00:00	18:00:00	40	136	5936	2700	2.20
14922	CCTV17 หมอชิต	13.8497023	100.5333702	exat	working	2022-06-09T00:00:00	18:00:00	19:00:00	29	151	6150	2700	2.28
14923	CCTV17 หมอชิต	13.8497023	100.5333702	exat	working	2022-07-09T00:00:00	5:00:00	6:00:00	72	24	1244	2700	0.46
14924	CCTV17 หมอชิต	13.8497023	100.5333702	exat	working	2022-07-09T00:00:00	6:00:00	7:00:00	51	71	3653	2700	1.35
14925	CCTV17 หมอชิต	13.8497023	100.5333702	exat	working	2022-07-09T00:00:00	7:00:00	8:00:00	49	118	4740	2700	1.76
14926	CCTV17 หมอชิต	13.8497023	100.5333702	exat	working	2022-07-09T00:00:00	8:00:00	9:00:00	15	121	3611	2700	1.34
14927	CCTV17 หมอชิต	13.8497023	100.5333702	exat	working	2022-07-09T00:00:00	9:00:00	10:00:00	11	121	3577	2700	1.32
14928	CCTV17 หมอชิต	13.8497023	100.5333702	exat	working	2022-07-09T00:00:00	10:00:00	11:00:00	13	121	3552	2700	1.32
14929	CCTV17 หมอชิต	13.8497023	100.5333702	exat	working	2022-07-09T00:00:00	11:00:00	12:00:00	36	172	5252	2700	1.95
14930	CCTV17 หมอชิต	13.8497023	100.5333702	exat	working	2022-07-09T00:00:00	12:00:00	13:00:00	14	121	3613	2700	1.34
14931	CCTV17 หมอชิต	13.8497023	100.5333702	exat	working	2022-07-09T00:00:00	13:00:00	14:00:00	10	121	3592	2700	1.33
14932	CCTV17 หมอชิต	13.8497023	100.5333702	exat	working	2022-07-09T00:00:00	14:00:00	15:00:00	13	121	3526	2700	1.31
14933	CCTV17 หมอชิต	13.8497023	100.5333702	exat	working	2022-07-09T00:00:00	15:00:00	16:00:00	13	121	3539	2700	1.31
14934	CCTV17 หมอชิต	13.8497023	100.5333702	exat	working	2022-07-09T00:00:00	16:00:00	17:00:00	34	170	6474	2700	2.40
14935	CCTV17 หมอชิต	13.8497023	100.5333702	exat	working	2022-07-09T00:00:00	17:00:00	18:00:00	51	89	5854	2700	2.17
14936	CCTV17 หมอชิต	13.8497023	100.5333702	exat	working	2022-07-09T00:00:00	18:00:00	19:00:00	46	121	6563	2700	2.43
14937	CCTV17 หมอชิต	13.8497023	100.5333702	exat	working	2022-08-09T00:00:00	5:00:00	6:00:00	84	18	980	2700	0.36
14938	CCTV17 หมอชิต	13.8497023	100.5333702	exat	working	2022-08-09T00:00:00	6:00:00	7:00:00	60	56	3101	2700	1.15
14939	CCTV17 หมอชิต	13.8497023	100.5333702	exat	working	2022-08-09T00:00:00	7:00:00	8:00:00	45	90	4007	2700	1.48
14940	CCTV17 หมอชิต	13.8497023	100.5333702	exat	working	2022-08-09T00:00:00	8:00:00	9:00:00	37	87	5174	2700	1.92
14941	CCTV17 หมอชิต	13.8497023	100.5333702	exat	working	2022-08-09T00:00:00	9:00:00	10:00:00	34	83	5149	2700	1.91
14942	CCTV17 หมอชิต	13.8497023	100.5333702	exat	working	2022-08-09T00:00:00	10:00:00	11:00:00	35	84	5136	2700	1.90
14943	CCTV17 หมอชิต	13.8497023	100.5333702	exat	working	2022-08-09T00:00:00	11:00:00	12:00:00	44	151	5738	2700	2.13
14944	CCTV17 หมอชิต	13.8497023	100.5333702	exat	working	2022-08-09T00:00:00	12:00:00	13:00:00	33	83	5079	2700	1.88
14945	CCTV17 หมอชิต	13.8497023	100.5333702	exat	working	2022-08-09T00:00:00	13:00:00	14:00:00	32	84	5157	2700	1.91
14946	CCTV17 หมอชิต	13.8497023	100.5333702	exat	working	2022-08-09T00:00:00	14:00:00	15:00:00	34	84	5096	2700	1.89
14947	CCTV17 หมอชิต	13.8497023	100.5333702	exat	working	2022-08-09T00:00:00	15:00:00	16:00:00	33	84	5092	2700	1.89
14948	CCTV17 หมอชิต	13.8497023	100.5333702	exat	working	2022-08-09T00:00:00	16:00:00	17:00:00	42	169	7083	2700	2.62
14949	CCTV17 หมอชิต	13.8497023	100.5333702	exat	working	2022-08-09T00:00:00	17:00:00	18:00:00	47	112	6299	2700	2.33
14950	CCTV17 หมอชิต	13.8497023	100.5333702	exat	working	2022-08-09T00:00:00	18:00:00	19:00:00	39	151	6541	2700	2.42
14951	CCTV17 หมอชิต	13.8497023	100.5333702	exat	working	2022-09-09T00:00:00	5:00:00	6:00:00	100	13	878	2700	0.33
14952	CCTV17 หมอชิต	13.8497023	100.5333702	exat	working	2022-09-09T00:00:00	6:00:00	7:00:00	70	41	2573	2700	0.95
14953	CCTV17 หมอชิต	13.8497023	100.5333702	exat	working	2022-09-09T00:00:00	7:00:00	8:00:00	41	62	3304	2700	1.22
14954	CCTV17 หมอชิต	13.8497023	100.5333702	exat	working	2022-09-09T00:00:00	8:00:00	9:00:00	58	110	6720	2700	2.49
14955	CCTV17 หมอชิต	13.8497023	100.5333702	exat	working	2022-09-09T00:00:00	9:00:00	10:00:00	56	106	6717	2700	2.49
14956	CCTV17 หมอชิต	13.8497023	100.5333702	exat	working	2022-09-09T00:00:00	10:00:00	11:00:00	57	108	6753	2700	2.50
14957	CCTV17 หมอชิต	13.8497023	100.5333702	exat	working	2022-09-09T00:00:00	11:00:00	12:00:00	52	131	6241	2700	2.31
14958	CCTV17 หมอชิต	13.8497023	100.5333702	exat	working	2022-09-09T00:00:00	12:00:00	13:00:00	53	107	6616	2700	2.45
14959	CCTV17 หมอชิต	13.8497023	100.5333702	exat	working	2022-09-09T00:00:00	13:00:00	14:00:00	53	108	6682	2700	2.47
14960	CCTV17 หมอชิต	13.8497023	100.5333702	exat	working	2022-09-09T00:00:00	14:00:00	15:00:00	54	108	6630	2700	2.46
14961	CCTV17 หมอชิต	13.8497023	100.5333702	exat	working	2022-09-09T00:00:00	15:00:00	16:00:00	54	109	6616	2700	2.45
14962	CCTV17 หมอชิต	13.8497023	100.5333702	exat	working	2022-09-09T00:00:00	16:00:00	17:00:00	50	167	7630	2700	2.83
14963	CCTV17 หมอชิต	13.8497023	100.5333702	exat	working	2022-09-09T00:00:00	17:00:00	18:00:00	44	136	6540	2700	2.42
14964	CCTV17 หมอชิต	13.8497023	100.5333702	exat	working	2022-09-09T00:00:00	18:00:00	19:00:00	31	181	6531	2700	2.42
14965	CCTV17 หมอชิต	13.8497023	100.5333702	exat	working	2022-10-09T00:00:00	5:00:00	6:00:00	39	15	513	2700	0.19
14966	CCTV17 หมอชิต	13.8497023	100.5333702	exat	holiday	2022-10-09T00:00:00	6:00:00	7:00:00	28	49	1629	2700	0.60
14967	CCTV17 หมอชิต	13.8497023	100.5333702	exat	holiday	2022-10-09T00:00:00	7:00:00	8:00:00	61	66	2193	2700	0.81
14968	CCTV17 หมอชิต	13.8497023	100.5333702	exat	holiday	2022-10-09T00:00:00	8:00:00	9:00:00	36	112	3993	2700	1.48
14969	CCTV17 หมอชิต	13.8497023	100.5333702	exat	working	2022-10-09T00:00:00	9:00:00	10:00:00	31	110	3971	2700	1.47
14970	CCTV17 หมอชิต	13.8497023	100.5333702	exat	working	2022-10-09T00:00:00	10:00:00	11:00:00	35	109	3972	2700	1.47
14971	CCTV17 หมอชิต	13.8497023	100.5333702	exat	holiday	2022-10-09T00:00:00	11:00:00	12:00:00	29	149	5625	2700	2.08
14972	CCTV17 หมอชิต	13.8497023	100.5333702	exat	working	2022-10-09T00:00:00	12:00:00	13:00:00	31	108	3891	2700	1.44
14973	CCTV17 หมอชิต	13.8497023	100.5333702	exat	working	2022-10-09T00:00:00	13:00:00	14:00:00	33	109	3996	2700	1.48
14974	CCTV17 หมอชิต	13.8497023	100.5333702	exat	working	2022-10-09T00:00:00	14:00:00	15:00:00	34	112	3930	2700	1.46
14975	CCTV17 หมอชิต	13.8497023	100.5333702	exat	working	2022-10-09T00:00:00	15:00:00	16:00:00	32	111	3910	2700	1.45
14976	CCTV17 หมอชิต	13.8497023	100.5333702	exat	holiday	2022-10-09T00:00:00	16:00:00	17:00:00	55	96	6468	2700	2.40
14977	CCTV17 หมอชิต	13.8497023	100.5333702	exat	holiday	2022-10-09T00:00:00	17:00:00	18:00:00	47	104	4912	2700	1.82
14978	CCTV17 หมอชิต	13.8497023	100.5333702	exat	holiday	2022-10-09T00:00:00	18:00:00	19:00:00	43	60	2922	2700	1.08
14979	CCTV17 หมอชิต	13.8497023	100.5333702	exat	working	2022-11-09T00:00:00	5:00:00	6:00:00	24	37	323	2700	0.12
14980	CCTV17 หมอชิต	13.8497023	100.5333702	exat	holiday	2022-11-09T00:00:00	6:00:00	7:00:00	17	122	992	2700	0.37
14981	CCTV17 หมอชิต	13.8497023	100.5333702	exat	holiday	2022-11-09T00:00:00	7:00:00	8:00:00	37	40	1301	2700	0.48
14982	CCTV17 หมอชิต	13.8497023	100.5333702	exat	holiday	2022-11-09T00:00:00	8:00:00	9:00:00	22	67	2393	2700	0.89
14983	CCTV17 หมอชิต	13.8497023	100.5333702	exat	working	2022-11-09T00:00:00	9:00:00	10:00:00	19	121	2372	2700	0.88
14984	CCTV17 หมอชิต	13.8497023	100.5333702	exat	working	2022-11-09T00:00:00	10:00:00	11:00:00	21	121	2364	2700	0.88
14985	CCTV17 หมอชิต	13.8497023	100.5333702	exat	holiday	2022-11-09T00:00:00	11:00:00	12:00:00	17	121	3415	2700	1.26
14986	CCTV17 หมอชิต	13.8497023	100.5333702	exat	working	2022-11-09T00:00:00	12:00:00	13:00:00	19	121	2358	2700	0.87
14987	CCTV17 หมอชิต	13.8497023	100.5333702	exat	working	2022-11-09T00:00:00	13:00:00	14:00:00	20	121	2356	2700	0.87
14988	CCTV17 หมอชิต	13.8497023	100.5333702	exat	working	2022-11-09T00:00:00	14:00:00	15:00:00	21	121	2328	2700	0.86
14989	CCTV17 หมอชิต	13.8497023	100.5333702	exat	working	2022-11-09T00:00:00	15:00:00	16:00:00	19	121	2381	2700	0.88
14990	CCTV17 หมอชิต	13.8497023	100.5333702	exat	holiday	2022-11-09T00:00:00	16:00:00	17:00:00	33	58	3886	2700	1.44
14991	CCTV17 หมอชิต	13.8497023	100.5333702	exat	holiday	2022-11-09T00:00:00	17:00:00	18:00:00	28	62	2950	2700	1.09
14992	CCTV17 หมอชิต	13.8497023	100.5333702	exat	holiday	2022-11-09T00:00:00	18:00:00	19:00:00	26	36	1767	2700	0.65
14993	Camera 4 กำแพงเพชร2	13.8075483	100.5482977	exat	working	2022-05-09T00:00:00	5:00:00	6:00:00	97	23	1515	2700	0.56
14994	Camera 4 กำแพงเพชร2	13.8075483	100.5482977	exat	working	2022-05-09T00:00:00	6:00:00	7:00:00	69	70	4714	2700	1.75
14995	Camera 4 กำแพงเพชร2	13.8075483	100.5482977	exat	working	2022-05-09T00:00:00	7:00:00	8:00:00	24	181	3987	2700	1.48
14996	Camera 4 กำแพงเพชร2	13.8075483	100.5482977	exat	working	2022-05-09T00:00:00	8:00:00	9:00:00	62	115	3951	2700	1.46
14997	Camera 4 กำแพงเพชร2	13.8075483	100.5482977	exat	working	2022-05-09T00:00:00	9:00:00	10:00:00	61	112	3840	2700	1.42
14998	Camera 4 กำแพงเพชร2	13.8075483	100.5482977	exat	working	2022-05-09T00:00:00	10:00:00	11:00:00	61	111	3904	2700	1.45
14999	Camera 4 กำแพงเพชร2	13.8075483	100.5482977	exat	working	2022-05-09T00:00:00	11:00:00	12:00:00	21	121	363	2700	0.13
15000	Camera 4 กำแพงเพชร2	13.8075483	100.5482977	exat	working	2022-05-09T00:00:00	12:00:00	13:00:00	57	111	3846	2700	1.42
15001	Camera 4 กำแพงเพชร2	13.8075483	100.5482977	exat	working	2022-05-09T00:00:00	13:00:00	14:00:00	60	113	3832	2700	1.42
15002	Camera 4 กำแพงเพชร2	13.8075483	100.5482977	exat	working	2022-05-09T00:00:00	14:00:00	15:00:00	59	109	3854	2700	1.43
15003	Camera 4 กำแพงเพชร2	13.8075483	100.5482977	exat	working	2022-05-09T00:00:00	15:00:00	16:00:00	58	110	3749	2700	1.39
15004	Camera 4 กำแพงเพชร2	13.8075483	100.5482977	exat	working	2022-05-09T00:00:00	16:00:00	17:00:00	39	89	3801	2700	1.41
15005	Camera 4 กำแพงเพชร2	13.8075483	100.5482977	exat	working	2022-05-09T00:00:00	17:00:00	18:00:00	42	72	2713	2700	1.00
15006	Camera 4 กำแพงเพชร2	13.8075483	100.5482977	exat	working	2022-05-09T00:00:00	18:00:00	19:00:00	42	95	3639	2700	1.35
15007	Camera 4 กำแพงเพชร2	13.8075483	100.5482977	exat	working	2022-06-09T00:00:00	5:00:00	6:00:00	99	22	1626	2700	0.60
15008	Camera 4 กำแพงเพชร2	13.8075483	100.5482977	exat	working	2022-06-09T00:00:00	6:00:00	7:00:00	69	70	4733	2700	1.75
15009	Camera 4 กำแพงเพชร2	13.8075483	100.5482977	exat	working	2022-06-09T00:00:00	7:00:00	8:00:00	24	180	3997	2700	1.48
15010	Camera 4 กำแพงเพชร2	13.8075483	100.5482977	exat	working	2022-06-09T00:00:00	8:00:00	9:00:00	62	115	3908	2700	1.45
15011	Camera 4 กำแพงเพชร2	13.8075483	100.5482977	exat	working	2022-06-09T00:00:00	9:00:00	10:00:00	60	112	3846	2700	1.42
15012	Camera 4 กำแพงเพชร2	13.8075483	100.5482977	exat	working	2022-06-09T00:00:00	10:00:00	11:00:00	59	111	3852	2700	1.43
15013	Camera 4 กำแพงเพชร2	13.8075483	100.5482977	exat	working	2022-06-09T00:00:00	11:00:00	12:00:00	46	51	1932	2700	0.72
15014	Camera 4 กำแพงเพชร2	13.8075483	100.5482977	exat	working	2022-06-09T00:00:00	12:00:00	13:00:00	58	111	3899	2700	1.44
15015	Camera 4 กำแพงเพชร2	13.8075483	100.5482977	exat	working	2022-06-09T00:00:00	13:00:00	14:00:00	61	111	3747	2700	1.39
15016	Camera 4 กำแพงเพชร2	13.8075483	100.5482977	exat	working	2022-06-09T00:00:00	14:00:00	15:00:00	60	110	3839	2700	1.42
15017	Camera 4 กำแพงเพชร2	13.8075483	100.5482977	exat	working	2022-06-09T00:00:00	15:00:00	16:00:00	59	111	3853	2700	1.43
15018	Camera 4 กำแพงเพชร2	13.8075483	100.5482977	exat	working	2022-06-09T00:00:00	16:00:00	17:00:00	65	69	2879	2700	1.07
15019	Camera 4 กำแพงเพชร2	13.8075483	100.5482977	exat	working	2022-06-09T00:00:00	17:00:00	18:00:00	66	63	2608	2700	0.97
15020	Camera 4 กำแพงเพชร2	13.8075483	100.5482977	exat	working	2022-06-09T00:00:00	18:00:00	19:00:00	66	61	2528	2700	0.94
15021	Camera 4 กำแพงเพชร2	13.8075483	100.5482977	exat	working	2022-07-09T00:00:00	5:00:00	6:00:00	99	23	1505	2700	0.56
15022	Camera 4 กำแพงเพชร2	13.8075483	100.5482977	exat	working	2022-07-09T00:00:00	6:00:00	7:00:00	69	70	4706	2700	1.74
15023	Camera 4 กำแพงเพชร2	13.8075483	100.5482977	exat	working	2022-07-09T00:00:00	7:00:00	8:00:00	24	180	3994	2700	1.48
15024	Camera 4 กำแพงเพชร2	13.8075483	100.5482977	exat	working	2022-07-09T00:00:00	8:00:00	9:00:00	62	115	3912	2700	1.45
15025	Camera 4 กำแพงเพชร2	13.8075483	100.5482977	exat	working	2022-07-09T00:00:00	9:00:00	10:00:00	59	112	3857	2700	1.43
15026	Camera 4 กำแพงเพชร2	13.8075483	100.5482977	exat	working	2022-07-09T00:00:00	10:00:00	11:00:00	57	112	3812	2700	1.41
15027	Camera 4 กำแพงเพชร2	13.8075483	100.5482977	exat	working	2022-07-09T00:00:00	11:00:00	12:00:00	91	49	3454	2700	1.28
15028	Camera 4 กำแพงเพชร2	13.8075483	100.5482977	exat	working	2022-07-09T00:00:00	12:00:00	13:00:00	60	111	3912	2700	1.45
15029	Camera 4 กำแพงเพชร2	13.8075483	100.5482977	exat	working	2022-07-09T00:00:00	13:00:00	14:00:00	61	110	3713	2700	1.38
15030	Camera 4 กำแพงเพชร2	13.8075483	100.5482977	exat	working	2022-07-09T00:00:00	14:00:00	15:00:00	60	112	3810	2700	1.41
15031	Camera 4 กำแพงเพชร2	13.8075483	100.5482977	exat	working	2022-07-09T00:00:00	15:00:00	16:00:00	60	112	3873	2700	1.43
15032	Camera 4 กำแพงเพชร2	13.8075483	100.5482977	exat	working	2022-07-09T00:00:00	16:00:00	17:00:00	91	50	2015	2700	0.75
15033	Camera 4 กำแพงเพชร2	13.8075483	100.5482977	exat	working	2022-07-09T00:00:00	17:00:00	18:00:00	91	54	2572	2700	0.95
15034	Camera 4 กำแพงเพชร2	13.8075483	100.5482977	exat	working	2022-07-09T00:00:00	18:00:00	19:00:00	91	26	1476	2700	0.55
15035	Camera 4 กำแพงเพชร2	13.8075483	100.5482977	exat	working	2022-08-09T00:00:00	5:00:00	6:00:00	96	21	1556	2700	0.58
15036	Camera 4 กำแพงเพชร2	13.8075483	100.5482977	exat	working	2022-08-09T00:00:00	6:00:00	7:00:00	67	62	4526	2700	1.68
15037	Camera 4 กำแพงเพชร2	13.8075483	100.5482977	exat	working	2022-08-09T00:00:00	7:00:00	8:00:00	50	180	3802	2700	1.41
15038	Camera 4 กำแพงเพชร2	13.8075483	100.5482977	exat	working	2022-08-09T00:00:00	8:00:00	9:00:00	41	131	2900	2700	1.07
15039	Camera 4 กำแพงเพชร2	13.8075483	100.5482977	exat	working	2022-08-09T00:00:00	9:00:00	10:00:00	38	127	2924	2700	1.08
15040	Camera 4 กำแพงเพชร2	13.8075483	100.5482977	exat	working	2022-08-09T00:00:00	10:00:00	11:00:00	36	131	2870	2700	1.06
15041	Camera 4 กำแพงเพชร2	13.8075483	100.5482977	exat	working	2022-08-09T00:00:00	11:00:00	12:00:00	91	58	2548	2700	0.94
15042	Camera 4 กำแพงเพชร2	13.8075483	100.5482977	exat	working	2022-08-09T00:00:00	12:00:00	13:00:00	38	127	2886	2700	1.07
15043	Camera 4 กำแพงเพชร2	13.8075483	100.5482977	exat	working	2022-08-09T00:00:00	13:00:00	14:00:00	38	127	2833	2700	1.05
15044	Camera 4 กำแพงเพชร2	13.8075483	100.5482977	exat	working	2022-08-09T00:00:00	14:00:00	15:00:00	38	128	2858	2700	1.06
15045	Camera 4 กำแพงเพชร2	13.8075483	100.5482977	exat	working	2022-08-09T00:00:00	15:00:00	16:00:00	38	131	2894	2700	1.07
15046	Camera 4 กำแพงเพชร2	13.8075483	100.5482977	exat	working	2022-08-09T00:00:00	16:00:00	17:00:00	87	65	2144	2700	0.79
15047	Camera 4 กำแพงเพชร2	13.8075483	100.5482977	exat	working	2022-08-09T00:00:00	17:00:00	18:00:00	86	55	2597	2700	0.96
15048	Camera 4 กำแพงเพชร2	13.8075483	100.5482977	exat	working	2022-08-09T00:00:00	18:00:00	19:00:00	91	28	2023	2700	0.75
15049	Camera 4 กำแพงเพชร2	13.8075483	100.5482977	exat	working	2022-09-09T00:00:00	5:00:00	6:00:00	94	19	1372	2700	0.51
15050	Camera 4 กำแพงเพชร2	13.8075483	100.5482977	exat	working	2022-09-09T00:00:00	6:00:00	7:00:00	65	55	4327	2700	1.60
15051	Camera 4 กำแพงเพชร2	13.8075483	100.5482977	exat	working	2022-09-09T00:00:00	7:00:00	8:00:00	76	182	3618	2700	1.34
15052	Camera 4 กำแพงเพชร2	13.8075483	100.5482977	exat	working	2022-09-09T00:00:00	8:00:00	9:00:00	20	122	2008	2700	0.74
15053	Camera 4 กำแพงเพชร2	13.8075483	100.5482977	exat	working	2022-09-09T00:00:00	9:00:00	10:00:00	16	121	1957	2700	0.72
15054	Camera 4 กำแพงเพชร2	13.8075483	100.5482977	exat	working	2022-09-09T00:00:00	10:00:00	11:00:00	15	121	1962	2700	0.73
15055	Camera 4 กำแพงเพชร2	13.8075483	100.5482977	exat	working	2022-09-09T00:00:00	11:00:00	12:00:00	91	67	1639	2700	0.61
15056	Camera 4 กำแพงเพชร2	13.8075483	100.5482977	exat	working	2022-09-09T00:00:00	12:00:00	13:00:00	17	121	1915	2700	0.71
15057	Camera 4 กำแพงเพชร2	13.8075483	100.5482977	exat	working	2022-09-09T00:00:00	13:00:00	14:00:00	16	121	1861	2700	0.69
15058	Camera 4 กำแพงเพชร2	13.8075483	100.5482977	exat	working	2022-09-09T00:00:00	14:00:00	15:00:00	16	122	1865	2700	0.69
15059	Camera 4 กำแพงเพชร2	13.8075483	100.5482977	exat	working	2022-09-09T00:00:00	15:00:00	16:00:00	16	122	1877	2700	0.70
15060	Camera 4 กำแพงเพชร2	13.8075483	100.5482977	exat	working	2022-09-09T00:00:00	16:00:00	17:00:00	84	80	2182	2700	0.81
15061	Camera 4 กำแพงเพชร2	13.8075483	100.5482977	exat	working	2022-09-09T00:00:00	17:00:00	18:00:00	82	56	2718	2700	1.01
15062	Camera 4 กำแพงเพชร2	13.8075483	100.5482977	exat	working	2022-09-09T00:00:00	18:00:00	19:00:00	91	29	2563	2700	0.95
15063	Camera 4 กำแพงเพชร2	13.8075483	100.5482977	exat	working	2022-10-09T00:00:00	5:00:00	6:00:00	131	10	460	2700	0.17
15064	Camera 4 กำแพงเพชร2	13.8075483	100.5482977	exat	holiday	2022-10-09T00:00:00	6:00:00	7:00:00	91	31	1477	2700	0.55
15065	Camera 4 กำแพงเพชร2	13.8075483	100.5482977	exat	holiday	2022-10-09T00:00:00	7:00:00	8:00:00	91	49	1606	2700	0.59
15066	Camera 4 กำแพงเพชร2	13.8075483	100.5482977	exat	holiday	2022-10-09T00:00:00	8:00:00	9:00:00	91	18	2731	2700	1.01
15067	Camera 4 กำแพงเพชร2	13.8075483	100.5482977	exat	working	2022-10-09T00:00:00	9:00:00	10:00:00	90	15	2625	2700	0.97
15068	Camera 4 กำแพงเพชร2	13.8075483	100.5482977	exat	working	2022-10-09T00:00:00	10:00:00	11:00:00	89	16	2677	2700	0.99
15069	Camera 4 กำแพงเพชร2	13.8075483	100.5482977	exat	holiday	2022-10-09T00:00:00	11:00:00	12:00:00	91	55	2542	2700	0.94
15070	Camera 4 กำแพงเพชร2	13.8075483	100.5482977	exat	working	2022-10-09T00:00:00	12:00:00	13:00:00	87	14	2671	2700	0.99
15071	Camera 4 กำแพงเพชร2	13.8075483	100.5482977	exat	working	2022-10-09T00:00:00	13:00:00	14:00:00	87	15	2608	2700	0.97
15072	Camera 4 กำแพงเพชร2	13.8075483	100.5482977	exat	working	2022-10-09T00:00:00	14:00:00	15:00:00	90	16	2666	2700	0.99
15073	Camera 4 กำแพงเพชร2	13.8075483	100.5482977	exat	working	2022-10-09T00:00:00	15:00:00	16:00:00	88	14	2622	2700	0.97
15074	Camera 4 กำแพงเพชร2	13.8075483	100.5482977	exat	holiday	2022-10-09T00:00:00	16:00:00	17:00:00	91	43	4150	2700	1.54
15075	Camera 4 กำแพงเพชร2	13.8075483	100.5482977	exat	holiday	2022-10-09T00:00:00	17:00:00	18:00:00	29	130	4204	2700	1.56
15076	Camera 4 กำแพงเพชร2	13.8075483	100.5482977	exat	holiday	2022-10-09T00:00:00	18:00:00	19:00:00	81	44	2748	2700	1.02
15077	Camera 4 กำแพงเพชร2	13.8075483	100.5482977	exat	working	2022-11-09T00:00:00	5:00:00	6:00:00	77	6	299	2700	0.11
15078	Camera 4 กำแพงเพชร2	13.8075483	100.5482977	exat	holiday	2022-11-09T00:00:00	6:00:00	7:00:00	55	19	888	2700	0.33
15079	Camera 4 กำแพงเพชร2	13.8075483	100.5482977	exat	holiday	2022-11-09T00:00:00	7:00:00	8:00:00	55	30	958	2700	0.35
15080	Camera 4 กำแพงเพชร2	13.8075483	100.5482977	exat	holiday	2022-11-09T00:00:00	8:00:00	9:00:00	55	11	1622	2700	0.60
15081	Camera 4 กำแพงเพชร2	13.8075483	100.5482977	exat	working	2022-11-09T00:00:00	9:00:00	10:00:00	54	9	1594	2700	0.59
15082	Camera 4 กำแพงเพชร2	13.8075483	100.5482977	exat	working	2022-11-09T00:00:00	10:00:00	11:00:00	54	10	1582	2700	0.59
15083	Camera 4 กำแพงเพชร2	13.8075483	100.5482977	exat	holiday	2022-11-09T00:00:00	11:00:00	12:00:00	55	33	1522	2700	0.56
15084	Camera 4 กำแพงเพชร2	13.8075483	100.5482977	exat	working	2022-11-09T00:00:00	12:00:00	13:00:00	52	8	1560	2700	0.58
15085	Camera 4 กำแพงเพชร2	13.8075483	100.5482977	exat	working	2022-11-09T00:00:00	13:00:00	14:00:00	52	9	1518	2700	0.56
15086	Camera 4 กำแพงเพชร2	13.8075483	100.5482977	exat	working	2022-11-09T00:00:00	14:00:00	15:00:00	54	10	1602	2700	0.59
15087	Camera 4 กำแพงเพชร2	13.8075483	100.5482977	exat	working	2022-11-09T00:00:00	15:00:00	16:00:00	53	8	1554	2700	0.58
15088	Camera 4 กำแพงเพชร2	13.8075483	100.5482977	exat	holiday	2022-11-09T00:00:00	16:00:00	17:00:00	55	26	2530	2700	0.94
15089	Camera 4 กำแพงเพชร2	13.8075483	100.5482977	exat	holiday	2022-11-09T00:00:00	17:00:00	18:00:00	18	121	2536	2700	0.94
15090	Camera 4 กำแพงเพชร2	13.8075483	100.5482977	exat	holiday	2022-11-09T00:00:00	18:00:00	19:00:00	49	27	1599	2700	0.59
15091	CCTV16 ทางร่วมบางซื่อ	13.7569707	100.5481779	exat	working	2022-05-09T00:00:00	5:00:00	6:00:00	24	38	284	2700	0.11
15092	CCTV16 ทางร่วมบางซื่อ	13.7569707	100.5481779	exat	working	2022-05-09T00:00:00	6:00:00	7:00:00	17	121	895	2700	0.33
15093	CCTV16 ทางร่วมบางซื่อ	13.7569707	100.5481779	exat	working	2022-05-09T00:00:00	7:00:00	8:00:00	16	121	3093	2700	1.15
15094	CCTV16 ทางร่วมบางซื่อ	13.7569707	100.5481779	exat	working	2022-05-09T00:00:00	8:00:00	9:00:00	14	121	3293	2700	1.22
15095	CCTV16 ทางร่วมบางซื่อ	13.7569707	100.5481779	exat	working	2022-05-09T00:00:00	9:00:00	10:00:00	11	121	3173	2700	1.18
15096	CCTV16 ทางร่วมบางซื่อ	13.7569707	100.5481779	exat	working	2022-05-09T00:00:00	10:00:00	11:00:00	8	122	3237	2700	1.20
15097	CCTV16 ทางร่วมบางซื่อ	13.7569707	100.5481779	exat	working	2022-05-09T00:00:00	11:00:00	12:00:00	53	58	3804	2700	1.41
15098	CCTV16 ทางร่วมบางซื่อ	13.7569707	100.5481779	exat	working	2022-05-09T00:00:00	12:00:00	13:00:00	10	121	3241	2700	1.20
15099	CCTV16 ทางร่วมบางซื่อ	13.7569707	100.5481779	exat	working	2022-05-09T00:00:00	13:00:00	14:00:00	11	121	3178	2700	1.18
15100	CCTV16 ทางร่วมบางซื่อ	13.7569707	100.5481779	exat	working	2022-05-09T00:00:00	14:00:00	15:00:00	12	122	3147	2700	1.17
15101	CCTV16 ทางร่วมบางซื่อ	13.7569707	100.5481779	exat	working	2022-05-09T00:00:00	15:00:00	16:00:00	11	121	3182	2700	1.18
15102	CCTV16 ทางร่วมบางซื่อ	13.7569707	100.5481779	exat	working	2022-05-09T00:00:00	16:00:00	17:00:00	40	128	6741	2700	2.50
15103	CCTV16 ทางร่วมบางซื่อ	13.7569707	100.5481779	exat	working	2022-05-09T00:00:00	17:00:00	18:00:00	34	181	5810	2700	2.15
15104	CCTV16 ทางร่วมบางซื่อ	13.7569707	100.5481779	exat	working	2022-05-09T00:00:00	18:00:00	19:00:00	50	121	5452	2700	2.02
15105	CCTV16 ทางร่วมบางซื่อ	13.7569707	100.5481779	exat	working	2022-06-09T00:00:00	5:00:00	6:00:00	24	40	305	2700	0.11
15106	CCTV16 ทางร่วมบางซื่อ	13.7569707	100.5481779	exat	working	2022-06-09T00:00:00	6:00:00	7:00:00	17	121	914	2700	0.34
15107	CCTV16 ทางร่วมบางซื่อ	13.7569707	100.5481779	exat	working	2022-06-09T00:00:00	7:00:00	8:00:00	16	122	3089	2700	1.14
15108	CCTV16 ทางร่วมบางซื่อ	13.7569707	100.5481779	exat	working	2022-06-09T00:00:00	8:00:00	9:00:00	14	121	3286	2700	1.22
15109	CCTV16 ทางร่วมบางซื่อ	13.7569707	100.5481779	exat	working	2022-06-09T00:00:00	9:00:00	10:00:00	11	121	3224	2700	1.19
15110	CCTV16 ทางร่วมบางซื่อ	13.7569707	100.5481779	exat	working	2022-06-09T00:00:00	10:00:00	11:00:00	10	121	3168	2700	1.17
15111	CCTV16 ทางร่วมบางซื่อ	13.7569707	100.5481779	exat	working	2022-06-09T00:00:00	11:00:00	12:00:00	34	108	4357	2700	1.61
15112	CCTV16 ทางร่วมบางซื่อ	13.7569707	100.5481779	exat	working	2022-06-09T00:00:00	12:00:00	13:00:00	12	121	3194	2700	1.18
15113	CCTV16 ทางร่วมบางซื่อ	13.7569707	100.5481779	exat	working	2022-06-09T00:00:00	13:00:00	14:00:00	12	121	3166	2700	1.17
15114	CCTV16 ทางร่วมบางซื่อ	13.7569707	100.5481779	exat	working	2022-06-09T00:00:00	14:00:00	15:00:00	10	121	3106	2700	1.15
15115	CCTV16 ทางร่วมบางซื่อ	13.7569707	100.5481779	exat	working	2022-06-09T00:00:00	15:00:00	16:00:00	11	121	3150	2700	1.17
15116	CCTV16 ทางร่วมบางซื่อ	13.7569707	100.5481779	exat	working	2022-06-09T00:00:00	16:00:00	17:00:00	25	154	6898	2700	2.55
15117	CCTV16 ทางร่วมบางซื่อ	13.7569707	100.5481779	exat	working	2022-06-09T00:00:00	17:00:00	18:00:00	26	181	5810	2700	2.15
15118	CCTV16 ทางร่วมบางซื่อ	13.7569707	100.5481779	exat	working	2022-06-09T00:00:00	18:00:00	19:00:00	54	152	4468	2700	1.65
15119	CCTV16 ทางร่วมบางซื่อ	13.7569707	100.5481779	exat	working	2022-07-09T00:00:00	5:00:00	6:00:00	23	39	304	2700	0.11
15120	CCTV16 ทางร่วมบางซื่อ	13.7569707	100.5481779	exat	working	2022-07-09T00:00:00	6:00:00	7:00:00	17	121	927	2700	0.34
15121	CCTV16 ทางร่วมบางซื่อ	13.7569707	100.5481779	exat	working	2022-07-09T00:00:00	7:00:00	8:00:00	16	122	3080	2700	1.14
15122	CCTV16 ทางร่วมบางซื่อ	13.7569707	100.5481779	exat	working	2022-07-09T00:00:00	8:00:00	9:00:00	14	121	3283	2700	1.22
15123	CCTV16 ทางร่วมบางซื่อ	13.7569707	100.5481779	exat	working	2022-07-09T00:00:00	9:00:00	10:00:00	11	121	3253	2700	1.20
15124	CCTV16 ทางร่วมบางซื่อ	13.7569707	100.5481779	exat	working	2022-07-09T00:00:00	10:00:00	11:00:00	13	122	3113	2700	1.15
15125	CCTV16 ทางร่วมบางซื่อ	13.7569707	100.5481779	exat	working	2022-07-09T00:00:00	11:00:00	12:00:00	15	122	4935	2700	1.83
15126	CCTV16 ทางร่วมบางซื่อ	13.7569707	100.5481779	exat	working	2022-07-09T00:00:00	12:00:00	13:00:00	13	121	3128	2700	1.16
15127	CCTV16 ทางร่วมบางซื่อ	13.7569707	100.5481779	exat	working	2022-07-09T00:00:00	13:00:00	14:00:00	13	121	3174	2700	1.18
15128	CCTV16 ทางร่วมบางซื่อ	13.7569707	100.5481779	exat	working	2022-07-09T00:00:00	14:00:00	15:00:00	9	121	3108	2700	1.15
15129	CCTV16 ทางร่วมบางซื่อ	13.7569707	100.5481779	exat	working	2022-07-09T00:00:00	15:00:00	16:00:00	11	121	3151	2700	1.17
15130	CCTV16 ทางร่วมบางซื่อ	13.7569707	100.5481779	exat	working	2022-07-09T00:00:00	16:00:00	17:00:00	11	122	7104	2700	2.63
15131	CCTV16 ทางร่วมบางซื่อ	13.7569707	100.5481779	exat	working	2022-07-09T00:00:00	17:00:00	18:00:00	18	121	5830	2700	2.16
15132	CCTV16 ทางร่วมบางซื่อ	13.7569707	100.5481779	exat	working	2022-07-09T00:00:00	18:00:00	19:00:00	57	182	3466	2700	1.28
15133	CCTV16 ทางร่วมบางซื่อ	13.7569707	100.5481779	exat	working	2022-08-09T00:00:00	5:00:00	6:00:00	26	41	502	2700	0.19
15134	CCTV16 ทางร่วมบางซื่อ	13.7569707	100.5481779	exat	working	2022-08-09T00:00:00	6:00:00	7:00:00	19	122	1631	2700	0.60
15135	CCTV16 ทางร่วมบางซื่อ	13.7569707	100.5481779	exat	working	2022-08-09T00:00:00	7:00:00	8:00:00	15	121	2450	2700	0.91
15136	CCTV16 ทางร่วมบางซื่อ	13.7569707	100.5481779	exat	working	2022-08-09T00:00:00	8:00:00	9:00:00	16	121	3362	2700	1.25
15137	CCTV16 ทางร่วมบางซื่อ	13.7569707	100.5481779	exat	working	2022-08-09T00:00:00	9:00:00	10:00:00	14	122	3342	2700	1.24
15138	CCTV16 ทางร่วมบางซื่อ	13.7569707	100.5481779	exat	working	2022-08-09T00:00:00	10:00:00	11:00:00	15	121	3255	2700	1.21
15139	CCTV16 ทางร่วมบางซื่อ	13.7569707	100.5481779	exat	working	2022-08-09T00:00:00	11:00:00	12:00:00	14	122	4634	2700	1.72
15140	CCTV16 ทางร่วมบางซื่อ	13.7569707	100.5481779	exat	working	2022-08-09T00:00:00	12:00:00	13:00:00	15	121	3312	2700	1.23
15141	CCTV16 ทางร่วมบางซื่อ	13.7569707	100.5481779	exat	working	2022-08-09T00:00:00	13:00:00	14:00:00	14	121	3327	2700	1.23
15142	CCTV16 ทางร่วมบางซื่อ	13.7569707	100.5481779	exat	working	2022-08-09T00:00:00	14:00:00	15:00:00	13	122	3217	2700	1.19
15143	CCTV16 ทางร่วมบางซื่อ	13.7569707	100.5481779	exat	working	2022-08-09T00:00:00	15:00:00	16:00:00	14	121	3244	2700	1.20
15144	CCTV16 ทางร่วมบางซื่อ	13.7569707	100.5481779	exat	working	2022-08-09T00:00:00	16:00:00	17:00:00	13	121	6470	2700	2.40
15145	CCTV16 ทางร่วมบางซื่อ	13.7569707	100.5481779	exat	working	2022-08-09T00:00:00	17:00:00	18:00:00	17	121	5615	2700	2.08
15146	CCTV16 ทางร่วมบางซื่อ	13.7569707	100.5481779	exat	working	2022-08-09T00:00:00	18:00:00	19:00:00	37	164	2993	2700	1.11
15147	CCTV16 ทางร่วมบางซื่อ	13.7569707	100.5481779	exat	working	2022-09-09T00:00:00	5:00:00	6:00:00	30	42	732	2700	0.27
15148	CCTV16 ทางร่วมบางซื่อ	13.7569707	100.5481779	exat	working	2022-09-09T00:00:00	6:00:00	7:00:00	21	121	2357	2700	0.87
15149	CCTV16 ทางร่วมบางซื่อ	13.7569707	100.5481779	exat	working	2022-09-09T00:00:00	7:00:00	8:00:00	13	121	1817	2700	0.67
15150	CCTV16 ทางร่วมบางซื่อ	13.7569707	100.5481779	exat	working	2022-09-09T00:00:00	8:00:00	9:00:00	19	122	3462	2700	1.28
15151	CCTV16 ทางร่วมบางซื่อ	13.7569707	100.5481779	exat	working	2022-09-09T00:00:00	9:00:00	10:00:00	17	122	3419	2700	1.27
15152	CCTV16 ทางร่วมบางซื่อ	13.7569707	100.5481779	exat	working	2022-09-09T00:00:00	10:00:00	11:00:00	17	121	3410	2700	1.26
15153	CCTV16 ทางร่วมบางซื่อ	13.7569707	100.5481779	exat	working	2022-09-09T00:00:00	11:00:00	12:00:00	13	121	4338	2700	1.61
15154	CCTV16 ทางร่วมบางซื่อ	13.7569707	100.5481779	exat	working	2022-09-09T00:00:00	12:00:00	13:00:00	17	121	3422	2700	1.27
15155	CCTV16 ทางร่วมบางซื่อ	13.7569707	100.5481779	exat	working	2022-09-09T00:00:00	13:00:00	14:00:00	16	121	3429	2700	1.27
15156	CCTV16 ทางร่วมบางซื่อ	13.7569707	100.5481779	exat	working	2022-09-09T00:00:00	14:00:00	15:00:00	17	121	3287	2700	1.22
15157	CCTV16 ทางร่วมบางซื่อ	13.7569707	100.5481779	exat	working	2022-09-09T00:00:00	15:00:00	16:00:00	17	121	3348	2700	1.24
15158	CCTV16 ทางร่วมบางซื่อ	13.7569707	100.5481779	exat	working	2022-09-09T00:00:00	16:00:00	17:00:00	15	122	5822	2700	2.16
15159	CCTV16 ทางร่วมบางซื่อ	13.7569707	100.5481779	exat	working	2022-09-09T00:00:00	17:00:00	18:00:00	15	121	5480	2700	2.03
15160	CCTV16 ทางร่วมบางซื่อ	13.7569707	100.5481779	exat	working	2022-09-09T00:00:00	18:00:00	19:00:00	18	121	2547	2700	0.94
15161	CCTV16 ทางร่วมบางซื่อ	13.7569707	100.5481779	exat	working	2022-10-09T00:00:00	5:00:00	6:00:00	29	37	533	2700	0.20
15162	CCTV16 ทางร่วมบางซื่อ	13.7569707	100.5481779	exat	holiday	2022-10-09T00:00:00	6:00:00	7:00:00	21	121	1643	2700	0.61
15163	CCTV16 ทางร่วมบางซื่อ	13.7569707	100.5481779	exat	holiday	2022-10-09T00:00:00	7:00:00	8:00:00	16	121	2004	2700	0.74
15164	CCTV16 ทางร่วมบางซื่อ	13.7569707	100.5481779	exat	holiday	2022-10-09T00:00:00	8:00:00	9:00:00	15	121	2726	2700	1.01
15165	CCTV16 ทางร่วมบางซื่อ	13.7569707	100.5481779	exat	working	2022-10-09T00:00:00	9:00:00	10:00:00	10	121	2708	2700	1.00
15166	CCTV16 ทางร่วมบางซื่อ	13.7569707	100.5481779	exat	working	2022-10-09T00:00:00	10:00:00	11:00:00	13	121	2707	2700	1.00
15167	CCTV16 ทางร่วมบางซื่อ	13.7569707	100.5481779	exat	holiday	2022-10-09T00:00:00	11:00:00	12:00:00	15	122	3439	2700	1.27
15168	CCTV16 ทางร่วมบางซื่อ	13.7569707	100.5481779	exat	working	2022-10-09T00:00:00	12:00:00	13:00:00	10	121	2613	2700	0.97
15169	CCTV16 ทางร่วมบางซื่อ	13.7569707	100.5481779	exat	working	2022-10-09T00:00:00	13:00:00	14:00:00	11	121	2566	2700	0.95
15170	CCTV16 ทางร่วมบางซื่อ	13.7569707	100.5481779	exat	working	2022-10-09T00:00:00	14:00:00	15:00:00	12	121	2662	2700	0.99
15171	CCTV16 ทางร่วมบางซื่อ	13.7569707	100.5481779	exat	working	2022-10-09T00:00:00	15:00:00	16:00:00	11	121	2529	2700	0.94
15172	CCTV16 ทางร่วมบางซื่อ	13.7569707	100.5481779	exat	holiday	2022-10-09T00:00:00	16:00:00	17:00:00	44	171	7057	2700	2.61
15173	CCTV16 ทางร่วมบางซื่อ	13.7569707	100.5481779	exat	holiday	2022-10-09T00:00:00	17:00:00	18:00:00	32	182	5987	2700	2.22
15174	CCTV16 ทางร่วมบางซื่อ	13.7569707	100.5481779	exat	holiday	2022-10-09T00:00:00	18:00:00	19:00:00	53	135	5819	2700	2.16
15175	CCTV16 ทางร่วมบางซื่อ	13.7569707	100.5481779	exat	working	2022-11-09T00:00:00	5:00:00	6:00:00	17	40	319	2700	0.12
15176	CCTV16 ทางร่วมบางซื่อ	13.7569707	100.5481779	exat	holiday	2022-11-09T00:00:00	6:00:00	7:00:00	13	122	1003	2700	0.37
15177	CCTV16 ทางร่วมบางซื่อ	13.7569707	100.5481779	exat	holiday	2022-11-09T00:00:00	7:00:00	8:00:00	10	121	1204	2700	0.45
15178	CCTV16 ทางร่วมบางซื่อ	13.7569707	100.5481779	exat	holiday	2022-11-09T00:00:00	8:00:00	9:00:00	9	121	1651	2700	0.61
15179	CCTV16 ทางร่วมบางซื่อ	13.7569707	100.5481779	exat	working	2022-11-09T00:00:00	9:00:00	10:00:00	6	121	1605	2700	0.59
15180	CCTV16 ทางร่วมบางซื่อ	13.7569707	100.5481779	exat	working	2022-11-09T00:00:00	10:00:00	11:00:00	8	121	1601	2700	0.59
15181	CCTV16 ทางร่วมบางซื่อ	13.7569707	100.5481779	exat	holiday	2022-11-09T00:00:00	11:00:00	12:00:00	9	121	2086	2700	0.77
15182	CCTV16 ทางร่วมบางซื่อ	13.7569707	100.5481779	exat	working	2022-11-09T00:00:00	12:00:00	13:00:00	6	121	1568	2700	0.58
15183	CCTV16 ทางร่วมบางซื่อ	13.7569707	100.5481779	exat	working	2022-11-09T00:00:00	13:00:00	14:00:00	7	122	1519	2700	0.56
15184	CCTV16 ทางร่วมบางซื่อ	13.7569707	100.5481779	exat	working	2022-11-09T00:00:00	14:00:00	15:00:00	8	121	1616	2700	0.60
15185	CCTV16 ทางร่วมบางซื่อ	13.7569707	100.5481779	exat	working	2022-11-09T00:00:00	15:00:00	16:00:00	7	121	1497	2700	0.55
15186	CCTV16 ทางร่วมบางซื่อ	13.7569707	100.5481779	exat	holiday	2022-11-09T00:00:00	16:00:00	17:00:00	26	103	4247	2700	1.57
15187	CCTV16 ทางร่วมบางซื่อ	13.7569707	100.5481779	exat	holiday	2022-11-09T00:00:00	17:00:00	18:00:00	19	121	3629	2700	1.34
15188	CCTV16 ทางร่วมบางซื่อ	13.7569707	100.5481779	exat	holiday	2022-11-09T00:00:00	18:00:00	19:00:00	32	81	3508	2700	1.30
15189	CCTV42 ทางขึ้นพระราม 9	13.7493321	100.5990651	exat	working	2022-05-09T00:00:00	5:00:00	6:00:00	111	5	125	1800	0.07
15190	CCTV42 ทางขึ้นพระราม 9	13.7493321	100.5990651	exat	working	2022-05-09T00:00:00	6:00:00	7:00:00	78	13	359	1800	0.20
15191	CCTV42 ทางขึ้นพระราม 9	13.7493321	100.5990651	exat	working	2022-05-09T00:00:00	7:00:00	8:00:00	12	122	1613	1800	0.90
15192	CCTV42 ทางขึ้นพระราม 9	13.7493321	100.5990651	exat	working	2022-05-09T00:00:00	8:00:00	9:00:00	17	121	2358	1800	1.31
15193	CCTV42 ทางขึ้นพระราม 9	13.7493321	100.5990651	exat	working	2022-05-09T00:00:00	9:00:00	10:00:00	12	121	2282	1800	1.27
15194	CCTV42 ทางขึ้นพระราม 9	13.7493321	100.5990651	exat	working	2022-05-09T00:00:00	10:00:00	11:00:00	16	121	2251	1800	1.25
15195	CCTV42 ทางขึ้นพระราม 9	13.7493321	100.5990651	exat	working	2022-05-09T00:00:00	11:00:00	12:00:00	26	35	727	1800	0.40
15196	CCTV42 ทางขึ้นพระราม 9	13.7493321	100.5990651	exat	working	2022-05-09T00:00:00	12:00:00	13:00:00	14	121	2302	1800	1.28
15197	CCTV42 ทางขึ้นพระราม 9	13.7493321	100.5990651	exat	working	2022-05-09T00:00:00	13:00:00	14:00:00	14	121	2276	1800	1.26
15198	CCTV42 ทางขึ้นพระราม 9	13.7493321	100.5990651	exat	working	2022-05-09T00:00:00	14:00:00	15:00:00	12	122	2310	1800	1.28
15199	CCTV42 ทางขึ้นพระราม 9	13.7493321	100.5990651	exat	working	2022-05-09T00:00:00	15:00:00	16:00:00	12	121	2304	1800	1.28
15200	CCTV42 ทางขึ้นพระราม 9	13.7493321	100.5990651	exat	working	2022-05-09T00:00:00	16:00:00	17:00:00	21	122	722	1800	0.40
15201	CCTV42 ทางขึ้นพระราม 9	13.7493321	100.5990651	exat	working	2022-05-09T00:00:00	17:00:00	18:00:00	17	121	1089	1800	0.61
15202	CCTV42 ทางขึ้นพระราม 9	13.7493321	100.5990651	exat	working	2022-05-09T00:00:00	18:00:00	19:00:00	31	39	355	1800	0.20
15203	CCTV42 ทางขึ้นพระราม 9	13.7493321	100.5990651	exat	working	2022-06-09T00:00:00	5:00:00	6:00:00	111	5	121	1800	0.07
15204	CCTV42 ทางขึ้นพระราม 9	13.7493321	100.5990651	exat	working	2022-06-09T00:00:00	6:00:00	7:00:00	78	13	364	1800	0.20
15205	CCTV42 ทางขึ้นพระราม 9	13.7493321	100.5990651	exat	working	2022-06-09T00:00:00	7:00:00	8:00:00	12	121	1637	1800	0.91
15206	CCTV42 ทางขึ้นพระราม 9	13.7493321	100.5990651	exat	working	2022-06-09T00:00:00	8:00:00	9:00:00	17	122	2363	1800	1.31
15207	CCTV42 ทางขึ้นพระราม 9	13.7493321	100.5990651	exat	working	2022-06-09T00:00:00	9:00:00	10:00:00	12	121	2340	1800	1.30
15208	CCTV42 ทางขึ้นพระราม 9	13.7493321	100.5990651	exat	working	2022-06-09T00:00:00	10:00:00	11:00:00	14	121	2296	1800	1.28
15209	CCTV42 ทางขึ้นพระราม 9	13.7493321	100.5990651	exat	working	2022-06-09T00:00:00	11:00:00	12:00:00	39	34	998	1800	0.55
15210	CCTV42 ทางขึ้นพระราม 9	13.7493321	100.5990651	exat	working	2022-06-09T00:00:00	12:00:00	13:00:00	14	122	2244	1800	1.25
15211	CCTV42 ทางขึ้นพระราม 9	13.7493321	100.5990651	exat	working	2022-06-09T00:00:00	13:00:00	14:00:00	14	121	2278	1800	1.27
15212	CCTV42 ทางขึ้นพระราม 9	13.7493321	100.5990651	exat	working	2022-06-09T00:00:00	14:00:00	15:00:00	13	121	2288	1800	1.27
15213	CCTV42 ทางขึ้นพระราม 9	13.7493321	100.5990651	exat	working	2022-06-09T00:00:00	15:00:00	16:00:00	15	121	2266	1800	1.26
15214	CCTV42 ทางขึ้นพระราม 9	13.7493321	100.5990651	exat	working	2022-06-09T00:00:00	16:00:00	17:00:00	21	121	728	1800	0.40
15215	CCTV42 ทางขึ้นพระราม 9	13.7493321	100.5990651	exat	working	2022-06-09T00:00:00	17:00:00	18:00:00	44	22	1083	1800	0.60
15216	CCTV42 ทางขึ้นพระราม 9	13.7493321	100.5990651	exat	working	2022-06-09T00:00:00	18:00:00	19:00:00	43	26	738	1800	0.41
15217	CCTV42 ทางขึ้นพระราม 9	13.7493321	100.5990651	exat	working	2022-07-09T00:00:00	5:00:00	6:00:00	109	5	124	1800	0.07
15218	CCTV42 ทางขึ้นพระราม 9	13.7493321	100.5990651	exat	working	2022-07-09T00:00:00	6:00:00	7:00:00	78	13	366	1800	0.20
15219	CCTV42 ทางขึ้นพระราม 9	13.7493321	100.5990651	exat	working	2022-07-09T00:00:00	7:00:00	8:00:00	12	121	1632	1800	0.91
15220	CCTV42 ทางขึ้นพระราม 9	13.7493321	100.5990651	exat	working	2022-07-09T00:00:00	8:00:00	9:00:00	17	122	2373	1800	1.32
15221	CCTV42 ทางขึ้นพระราม 9	13.7493321	100.5990651	exat	working	2022-07-09T00:00:00	9:00:00	10:00:00	13	121	2383	1800	1.32
15222	CCTV42 ทางขึ้นพระราม 9	13.7493321	100.5990651	exat	working	2022-07-09T00:00:00	10:00:00	11:00:00	11	121	2289	1800	1.27
15223	CCTV42 ทางขึ้นพระราม 9	13.7493321	100.5990651	exat	working	2022-07-09T00:00:00	11:00:00	12:00:00	52	32	1258	1800	0.70
15224	CCTV42 ทางขึ้นพระราม 9	13.7493321	100.5990651	exat	working	2022-07-09T00:00:00	12:00:00	13:00:00	14	121	2225	1800	1.24
15225	CCTV42 ทางขึ้นพระราม 9	13.7493321	100.5990651	exat	working	2022-07-09T00:00:00	13:00:00	14:00:00	14	121	2271	1800	1.26
15226	CCTV42 ทางขึ้นพระราม 9	13.7493321	100.5990651	exat	working	2022-07-09T00:00:00	14:00:00	15:00:00	14	121	2255	1800	1.25
15227	CCTV42 ทางขึ้นพระราม 9	13.7493321	100.5990651	exat	working	2022-07-09T00:00:00	15:00:00	16:00:00	17	121	2219	1800	1.23
15228	CCTV42 ทางขึ้นพระราม 9	13.7493321	100.5990651	exat	working	2022-07-09T00:00:00	16:00:00	17:00:00	21	122	714	1800	0.40
15229	CCTV42 ทางขึ้นพระราม 9	13.7493321	100.5990651	exat	working	2022-07-09T00:00:00	17:00:00	18:00:00	70	23	1097	1800	0.61
15230	CCTV42 ทางขึ้นพระราม 9	13.7493321	100.5990651	exat	working	2022-07-09T00:00:00	18:00:00	19:00:00	55	13	1095	1800	0.61
15231	CCTV42 ทางขึ้นพระราม 9	13.7493321	100.5990651	exat	working	2022-08-09T00:00:00	5:00:00	6:00:00	61	16	288	1800	0.16
15232	CCTV42 ทางขึ้นพระราม 9	13.7493321	100.5990651	exat	working	2022-08-09T00:00:00	6:00:00	7:00:00	44	48	930	1800	0.52
15233	CCTV42 ทางขึ้นพระราม 9	13.7493321	100.5990651	exat	working	2022-08-09T00:00:00	7:00:00	8:00:00	29	97	1363	1800	0.76
15234	CCTV42 ทางขึ้นพระราม 9	13.7493321	100.5990651	exat	working	2022-08-09T00:00:00	8:00:00	9:00:00	37	43	1450	1800	0.81
15235	CCTV42 ทางขึ้นพระราม 9	13.7493321	100.5990651	exat	working	2022-08-09T00:00:00	9:00:00	10:00:00	33	41	1400	1800	0.78
15236	CCTV42 ทางขึ้นพระราม 9	13.7493321	100.5990651	exat	working	2022-08-09T00:00:00	10:00:00	11:00:00	33	42	1409	1800	0.78
15237	CCTV42 ทางขึ้นพระราม 9	13.7493321	100.5990651	exat	working	2022-08-09T00:00:00	11:00:00	12:00:00	71	23	815	1800	0.45
15238	CCTV42 ทางขึ้นพระราม 9	13.7493321	100.5990651	exat	working	2022-08-09T00:00:00	12:00:00	13:00:00	35	39	1357	1800	0.75
15239	CCTV42 ทางขึ้นพระราม 9	13.7493321	100.5990651	exat	working	2022-08-09T00:00:00	13:00:00	14:00:00	34	41	1385	1800	0.77
15240	CCTV42 ทางขึ้นพระราม 9	13.7493321	100.5990651	exat	working	2022-08-09T00:00:00	14:00:00	15:00:00	35	41	1411	1800	0.78
15241	CCTV42 ทางขึ้นพระราม 9	13.7493321	100.5990651	exat	working	2022-08-09T00:00:00	15:00:00	16:00:00	37	39	1375	1800	0.76
15242	CCTV42 ทางขึ้นพระราม 9	13.7493321	100.5990651	exat	working	2022-08-09T00:00:00	16:00:00	17:00:00	15	121	913	1800	0.51
15243	CCTV42 ทางขึ้นพระราม 9	13.7493321	100.5990651	exat	working	2022-08-09T00:00:00	17:00:00	18:00:00	44	22	892	1800	0.50
15244	CCTV42 ทางขึ้นพระราม 9	13.7493321	100.5990651	exat	working	2022-08-09T00:00:00	18:00:00	19:00:00	59	39	1717	1800	0.95
15245	CCTV42 ทางขึ้นพระราม 9	13.7493321	100.5990651	exat	working	2022-09-09T00:00:00	5:00:00	6:00:00	15	37	445	1800	0.25
15246	CCTV42 ทางขึ้นพระราม 9	13.7493321	100.5990651	exat	working	2022-09-09T00:00:00	6:00:00	7:00:00	11	121	1460	1800	0.81
15247	CCTV42 ทางขึ้นพระราม 9	13.7493321	100.5990651	exat	working	2022-09-09T00:00:00	7:00:00	8:00:00	46	108	1094	1800	0.61
15248	CCTV42 ทางขึ้นพระราม 9	13.7493321	100.5990651	exat	working	2022-09-09T00:00:00	8:00:00	9:00:00	58	13	531	1800	0.30
15249	CCTV42 ทางขึ้นพระราม 9	13.7493321	100.5990651	exat	working	2022-09-09T00:00:00	9:00:00	10:00:00	53	10	413	1800	0.23
15250	CCTV42 ทางขึ้นพระราม 9	13.7493321	100.5990651	exat	working	2022-09-09T00:00:00	10:00:00	11:00:00	54	12	506	1800	0.28
15251	CCTV42 ทางขึ้นพระราม 9	13.7493321	100.5990651	exat	working	2022-09-09T00:00:00	11:00:00	12:00:00	91	13	366	1800	0.20
15252	CCTV42 ทางขึ้นพระราม 9	13.7493321	100.5990651	exat	working	2022-09-09T00:00:00	12:00:00	13:00:00	56	9	462	1800	0.26
15253	CCTV42 ทางขึ้นพระราม 9	13.7493321	100.5990651	exat	working	2022-09-09T00:00:00	13:00:00	14:00:00	54	10	521	1800	0.29
15254	CCTV42 ทางขึ้นพระราม 9	13.7493321	100.5990651	exat	working	2022-09-09T00:00:00	14:00:00	15:00:00	57	12	521	1800	0.29
15255	CCTV42 ทางขึ้นพระราม 9	13.7493321	100.5990651	exat	working	2022-09-09T00:00:00	15:00:00	16:00:00	57	10	474	1800	0.26
15256	CCTV42 ทางขึ้นพระราม 9	13.7493321	100.5990651	exat	working	2022-09-09T00:00:00	16:00:00	17:00:00	30	16	1104	1800	0.61
15257	CCTV42 ทางขึ้นพระราม 9	13.7493321	100.5990651	exat	working	2022-09-09T00:00:00	17:00:00	18:00:00	18	121	729	1800	0.41
15258	CCTV42 ทางขึ้นพระราม 9	13.7493321	100.5990651	exat	working	2022-09-09T00:00:00	18:00:00	19:00:00	63	66	2367	1800	1.32
15259	CCTV42 ทางขึ้นพระราม 9	13.7493321	100.5990651	exat	working	2022-10-09T00:00:00	5:00:00	6:00:00	15	38	238	1800	0.13
15260	CCTV42 ทางขึ้นพระราม 9	13.7493321	100.5990651	exat	working	2022-10-09T00:00:00	6:00:00	7:00:00	11	121	729	1800	0.41
15261	CCTV42 ทางขึ้นพระราม 9	13.7493321	100.5990651	exat	working	2022-10-09T00:00:00	7:00:00	8:00:00	46	108	557	1800	0.31
15262	CCTV42 ทางขึ้นพระราม 9	13.7493321	100.5990651	exat	working	2022-10-09T00:00:00	8:00:00	9:00:00	58	13	293	1800	0.16
15263	CCTV42 ทางขึ้นพระราม 9	13.7493321	100.5990651	exat	working	2022-10-09T00:00:00	9:00:00	10:00:00	54	10	238	1800	0.13
15264	CCTV42 ทางขึ้นพระราม 9	13.7493321	100.5990651	exat	working	2022-10-09T00:00:00	10:00:00	11:00:00	55	11	229	1800	0.13
15265	CCTV42 ทางขึ้นพระราม 9	13.7493321	100.5990651	exat	holiday	2022-10-09T00:00:00	11:00:00	12:00:00	46	13	347	1800	0.19
15266	CCTV42 ทางขึ้นพระราม 9	13.7493321	100.5990651	exat	working	2022-10-09T00:00:00	12:00:00	13:00:00	54	9	122	1800	0.07
15267	CCTV42 ทางขึ้นพระราม 9	13.7493321	100.5990651	exat	working	2022-10-09T00:00:00	13:00:00	14:00:00	53	11	245	1800	0.14
15268	CCTV42 ทางขึ้นพระราม 9	13.7493321	100.5990651	exat	working	2022-10-09T00:00:00	14:00:00	15:00:00	56	8	181	1800	0.10
15269	CCTV42 ทางขึ้นพระราม 9	13.7493321	100.5990651	exat	working	2022-10-09T00:00:00	15:00:00	16:00:00	57	8	215	1800	0.12
15270	CCTV42 ทางขึ้นพระราม 9	13.7493321	100.5990651	exat	holiday	2022-10-09T00:00:00	16:00:00	17:00:00	47	24	1274	1800	0.71
15271	CCTV42 ทางขึ้นพระราม 9	13.7493321	100.5990651	exat	holiday	2022-10-09T00:00:00	17:00:00	18:00:00	30	28	734	1800	0.41
15272	CCTV42 ทางขึ้นพระราม 9	13.7493321	100.5990651	exat	working	2022-11-09T00:00:00	5:00:00	6:00:00	9	38	145	1800	0.08
15273	CCTV42 ทางขึ้นพระราม 9	13.7493321	100.5990651	exat	working	2022-11-09T00:00:00	6:00:00	7:00:00	7	121	419	1800	0.23
15274	CCTV42 ทางขึ้นพระราม 9	13.7493321	100.5990651	exat	working	2022-11-09T00:00:00	7:00:00	8:00:00	28	65	323	1800	0.18
15275	CCTV42 ทางขึ้นพระราม 9	13.7493321	100.5990651	exat	working	2022-11-09T00:00:00	8:00:00	9:00:00	35	8	164	1800	0.09
15276	CCTV42 ทางขึ้นพระราม 9	13.7493321	100.5990651	exat	working	2022-11-09T00:00:00	9:00:00	10:00:00	33	6	145	1800	0.08
15277	CCTV42 ทางขึ้นพระราม 9	13.7493321	100.5990651	exat	working	2022-11-09T00:00:00	10:00:00	11:00:00	33	7	148	1800	0.08
15278	CCTV42 ทางขึ้นพระราม 9	13.7493321	100.5990651	exat	holiday	2022-11-09T00:00:00	11:00:00	12:00:00	28	8	204	1800	0.11
15279	CCTV42 ทางขึ้นพระราม 9	13.7493321	100.5990651	exat	working	2022-11-09T00:00:00	12:00:00	13:00:00	33	6	59	1800	0.03
15280	CCTV42 ทางขึ้นพระราม 9	13.7493321	100.5990651	exat	working	2022-11-09T00:00:00	13:00:00	14:00:00	32	7	154	1800	0.09
15281	CCTV42 ทางขึ้นพระราม 9	13.7493321	100.5990651	exat	working	2022-11-09T00:00:00	14:00:00	15:00:00	34	5	108	1800	0.06
15282	CCTV42 ทางขึ้นพระราม 9	13.7493321	100.5990651	exat	working	2022-11-09T00:00:00	15:00:00	16:00:00	35	5	119	1800	0.07
15283	CCTV42 ทางขึ้นพระราม 9	13.7493321	100.5990651	exat	holiday	2022-11-09T00:00:00	16:00:00	17:00:00	29	14	774	1800	0.43
15284	CCTV42 ทางขึ้นพระราม 9	13.7493321	100.5990651	exat	holiday	2022-11-09T00:00:00	17:00:00	18:00:00	18	121	424	1800	0.24
15285	CCTV43 ทางลงรามคำแหง	13.742256	100.6129475	exat	working	2022-05-09T00:00:00	5:00:00	6:00:00	38	27	1253	2700	0.46
15286	CCTV43 ทางลงรามคำแหง	13.742256	100.6129475	exat	working	2022-05-09T00:00:00	6:00:00	7:00:00	27	84	3636	2700	1.35
15287	CCTV43 ทางลงรามคำแหง	13.742256	100.6129475	exat	working	2022-05-09T00:00:00	7:00:00	8:00:00	35	168	4517	2700	1.67
15288	CCTV43 ทางลงรามคำแหง	13.742256	100.6129475	exat	working	2022-05-09T00:00:00	8:00:00	9:00:00	15	122	4568	2700	1.69
15289	CCTV43 ทางลงรามคำแหง	13.742256	100.6129475	exat	working	2022-05-09T00:00:00	9:00:00	10:00:00	12	122	4563	2700	1.69
15290	CCTV43 ทางลงรามคำแหง	13.742256	100.6129475	exat	working	2022-05-09T00:00:00	10:00:00	11:00:00	11	121	4454	2700	1.65
15291	CCTV43 ทางลงรามคำแหง	13.742256	100.6129475	exat	working	2022-05-09T00:00:00	11:00:00	12:00:00	52	53	2699	2700	1.00
15292	CCTV43 ทางลงรามคำแหง	13.742256	100.6129475	exat	working	2022-05-09T00:00:00	12:00:00	13:00:00	11	121	4459	2700	1.65
15293	CCTV43 ทางลงรามคำแหง	13.742256	100.6129475	exat	working	2022-05-09T00:00:00	13:00:00	14:00:00	11	121	4540	2700	1.68
15294	CCTV43 ทางลงรามคำแหง	13.742256	100.6129475	exat	working	2022-05-09T00:00:00	14:00:00	15:00:00	12	121	4475	2700	1.66
15295	CCTV43 ทางลงรามคำแหง	13.742256	100.6129475	exat	working	2022-05-09T00:00:00	15:00:00	16:00:00	14	121	4414	2700	1.63
15296	CCTV43 ทางลงรามคำแหง	13.742256	100.6129475	exat	working	2022-05-09T00:00:00	16:00:00	17:00:00	52	75	4560	2700	1.69
15297	CCTV43 ทางลงรามคำแหง	13.742256	100.6129475	exat	working	2022-05-09T00:00:00	17:00:00	18:00:00	31	45	3261	2700	1.21
15298	CCTV43 ทางลงรามคำแหง	13.742256	100.6129475	exat	working	2022-05-09T00:00:00	18:00:00	19:00:00	51	49	2186	2700	0.81
15299	CCTV43 ทางลงรามคำแหง	13.742256	100.6129475	exat	working	2022-06-09T00:00:00	5:00:00	6:00:00	38	29	1157	2700	0.43
15300	CCTV43 ทางลงรามคำแหง	13.742256	100.6129475	exat	working	2022-06-09T00:00:00	6:00:00	7:00:00	27	84	3618	2700	1.34
15301	CCTV43 ทางลงรามคำแหง	13.742256	100.6129475	exat	working	2022-06-09T00:00:00	7:00:00	8:00:00	35	168	4533	2700	1.68
15302	CCTV43 ทางลงรามคำแหง	13.742256	100.6129475	exat	working	2022-06-09T00:00:00	8:00:00	9:00:00	15	121	4539	2700	1.68
15303	CCTV43 ทางลงรามคำแหง	13.742256	100.6129475	exat	working	2022-06-09T00:00:00	9:00:00	10:00:00	13	121	4470	2700	1.66
15304	CCTV43 ทางลงรามคำแหง	13.742256	100.6129475	exat	working	2022-06-09T00:00:00	10:00:00	11:00:00	12	122	4489	2700	1.66
15305	CCTV43 ทางลงรามคำแหง	13.742256	100.6129475	exat	working	2022-06-09T00:00:00	11:00:00	12:00:00	43	117	2999	2700	1.11
15306	CCTV43 ทางลงรามคำแหง	13.742256	100.6129475	exat	working	2022-06-09T00:00:00	12:00:00	13:00:00	12	121	4473	2700	1.66
15307	CCTV43 ทางลงรามคำแหง	13.742256	100.6129475	exat	working	2022-06-09T00:00:00	13:00:00	14:00:00	12	121	4482	2700	1.66
15308	CCTV43 ทางลงรามคำแหง	13.742256	100.6129475	exat	working	2022-06-09T00:00:00	14:00:00	15:00:00	10	121	4480	2700	1.66
15309	CCTV43 ทางลงรามคำแหง	13.742256	100.6129475	exat	working	2022-06-09T00:00:00	15:00:00	16:00:00	12	121	4458	2700	1.65
15310	CCTV43 ทางลงรามคำแหง	13.742256	100.6129475	exat	working	2022-06-09T00:00:00	16:00:00	17:00:00	55	59	3192	2700	1.18
15311	CCTV43 ทางลงรามคำแหง	13.742256	100.6129475	exat	working	2022-06-09T00:00:00	17:00:00	18:00:00	37	55	3102	2700	1.15
15312	CCTV43 ทางลงรามคำแหง	13.742256	100.6129475	exat	working	2022-06-09T00:00:00	18:00:00	19:00:00	60	38	2360	2700	0.87
15313	CCTV43 ทางลงรามคำแหง	13.742256	100.6129475	exat	working	2022-07-09T00:00:00	5:00:00	6:00:00	37	30	1187	2700	0.44
15314	CCTV43 ทางลงรามคำแหง	13.742256	100.6129475	exat	working	2022-07-09T00:00:00	6:00:00	7:00:00	27	84	3638	2700	1.35
15315	CCTV43 ทางลงรามคำแหง	13.742256	100.6129475	exat	working	2022-07-09T00:00:00	7:00:00	8:00:00	35	168	4565	2700	1.69
15316	CCTV43 ทางลงรามคำแหง	13.742256	100.6129475	exat	working	2022-07-09T00:00:00	8:00:00	9:00:00	15	121	4507	2700	1.67
15317	CCTV43 ทางลงรามคำแหง	13.742256	100.6129475	exat	working	2022-07-09T00:00:00	9:00:00	10:00:00	13	121	4456	2700	1.65
15318	CCTV43 ทางลงรามคำแหง	13.742256	100.6129475	exat	working	2022-07-09T00:00:00	10:00:00	11:00:00	14	121	4557	2700	1.69
15319	CCTV43 ทางลงรามคำแหง	13.742256	100.6129475	exat	working	2022-07-09T00:00:00	11:00:00	12:00:00	35	181	3262	2700	1.21
15320	CCTV43 ทางลงรามคำแหง	13.742256	100.6129475	exat	working	2022-07-09T00:00:00	12:00:00	13:00:00	13	121	4502	2700	1.67
15321	CCTV43 ทางลงรามคำแหง	13.742256	100.6129475	exat	working	2022-07-09T00:00:00	13:00:00	14:00:00	12	121	4478	2700	1.66
15322	CCTV43 ทางลงรามคำแหง	13.742256	100.6129475	exat	working	2022-07-09T00:00:00	14:00:00	15:00:00	9	121	4484	2700	1.66
15323	CCTV43 ทางลงรามคำแหง	13.742256	100.6129475	exat	working	2022-07-09T00:00:00	15:00:00	16:00:00	11	121	4519	2700	1.67
15324	CCTV43 ทางลงรามคำแหง	13.742256	100.6129475	exat	working	2022-07-09T00:00:00	16:00:00	17:00:00	59	42	1854	2700	0.69
15325	CCTV43 ทางลงรามคำแหง	13.742256	100.6129475	exat	working	2022-07-09T00:00:00	17:00:00	18:00:00	42	65	2896	2700	1.07
15326	CCTV43 ทางลงรามคำแหง	13.742256	100.6129475	exat	working	2022-07-09T00:00:00	18:00:00	19:00:00	68	26	2532	2700	0.94
15327	CCTV43 ทางลงรามคำแหง	13.742256	100.6129475	exat	working	2022-08-09T00:00:00	5:00:00	6:00:00	44	34	1398	2700	0.52
15328	CCTV43 ทางลงรามคำแหง	13.742256	100.6129475	exat	working	2022-08-09T00:00:00	6:00:00	7:00:00	32	109	4190	2700	1.55
15329	CCTV43 ทางลงรามคำแหง	13.742256	100.6129475	exat	working	2022-08-09T00:00:00	7:00:00	8:00:00	34	174	4075	2700	1.51
15330	CCTV43 ทางลงรามคำแหง	13.742256	100.6129475	exat	working	2022-08-09T00:00:00	8:00:00	9:00:00	38	181	3942	2700	1.46
15331	CCTV43 ทางลงรามคำแหง	13.742256	100.6129475	exat	working	2022-08-09T00:00:00	9:00:00	10:00:00	36	181	3873	2700	1.43
15332	CCTV43 ทางลงรามคำแหง	13.742256	100.6129475	exat	working	2022-08-09T00:00:00	10:00:00	11:00:00	37	179	3959	2700	1.47
15333	CCTV43 ทางลงรามคำแหง	13.742256	100.6129475	exat	working	2022-08-09T00:00:00	11:00:00	12:00:00	34	116	3180	2700	1.18
15334	CCTV43 ทางลงรามคำแหง	13.742256	100.6129475	exat	working	2022-08-09T00:00:00	12:00:00	13:00:00	36	178	3911	2700	1.45
15335	CCTV43 ทางลงรามคำแหง	13.742256	100.6129475	exat	working	2022-08-09T00:00:00	13:00:00	14:00:00	35	179	3860	2700	1.43
15336	CCTV43 ทางลงรามคำแหง	13.742256	100.6129475	exat	working	2022-08-09T00:00:00	14:00:00	15:00:00	35	181	3872	2700	1.43
15337	CCTV43 ทางลงรามคำแหง	13.742256	100.6129475	exat	working	2022-08-09T00:00:00	15:00:00	16:00:00	35	181	3847	2700	1.42
15338	CCTV43 ทางลงรามคำแหง	13.742256	100.6129475	exat	working	2022-08-09T00:00:00	16:00:00	17:00:00	50	67	2621	2700	0.97
15339	CCTV43 ทางลงรามคำแหง	13.742256	100.6129475	exat	working	2022-08-09T00:00:00	17:00:00	18:00:00	27	66	1915	2700	0.71
15340	CCTV43 ทางลงรามคำแหง	13.742256	100.6129475	exat	working	2022-08-09T00:00:00	18:00:00	19:00:00	34	32	1631	2700	0.60
15341	CCTV43 ทางลงรามคำแหง	13.742256	100.6129475	exat	working	2022-09-09T00:00:00	5:00:00	6:00:00	52	46	1444	2700	0.53
15342	CCTV43 ทางลงรามคำแหง	13.742256	100.6129475	exat	working	2022-09-09T00:00:00	6:00:00	7:00:00	37	133	4731	2700	1.75
15343	CCTV43 ทางลงรามคำแหง	13.742256	100.6129475	exat	working	2022-09-09T00:00:00	7:00:00	8:00:00	33	182	3645	2700	1.35
15344	CCTV43 ทางลงรามคำแหง	13.742256	100.6129475	exat	working	2022-09-09T00:00:00	8:00:00	9:00:00	62	182	3361	2700	1.24
15345	CCTV43 ทางลงรามคำแหง	13.742256	100.6129475	exat	working	2022-09-09T00:00:00	9:00:00	10:00:00	60	183	3290	2700	1.22
15346	CCTV43 ทางลงรามคำแหง	13.742256	100.6129475	exat	working	2022-09-09T00:00:00	10:00:00	11:00:00	60	180	3255	2700	1.21
15347	CCTV43 ทางลงรามคำแหง	13.742256	100.6129475	exat	working	2022-09-09T00:00:00	11:00:00	12:00:00	33	51	3078	2700	1.14
15348	CCTV43 ทางลงรามคำแหง	13.742256	100.6129475	exat	working	2022-09-09T00:00:00	12:00:00	13:00:00	60	178	3265	2700	1.21
15349	CCTV43 ทางลงรามคำแหง	13.742256	100.6129475	exat	working	2022-09-09T00:00:00	13:00:00	14:00:00	58	176	3308	2700	1.23
15350	CCTV43 ทางลงรามคำแหง	13.742256	100.6129475	exat	working	2022-09-09T00:00:00	14:00:00	15:00:00	61	179	3228	2700	1.20
15351	CCTV43 ทางลงรามคำแหง	13.742256	100.6129475	exat	working	2022-09-09T00:00:00	15:00:00	16:00:00	60	178	3232	2700	1.20
15352	CCTV43 ทางลงรามคำแหง	13.742256	100.6129475	exat	working	2022-09-09T00:00:00	16:00:00	17:00:00	41	92	3463	2700	1.28
15353	CCTV43 ทางลงรามคำแหง	13.742256	100.6129475	exat	working	2022-09-09T00:00:00	17:00:00	18:00:00	12	121	897	2700	0.33
15354	CCTV43 ทางลงรามคำแหง	13.742256	100.6129475	exat	working	2022-09-09T00:00:00	18:00:00	19:00:00	21	121	762	2700	0.28
15355	CCTV43 ทางลงรามคำแหง	13.742256	100.6129475	exat	working	2022-10-09T00:00:00	5:00:00	6:00:00	129	29	112	2700	0.04
15356	CCTV43 ทางลงรามคำแหง	13.742256	100.6129475	exat	holiday	2022-10-09T00:00:00	6:00:00	7:00:00	91	88	365	2700	0.14
15357	CCTV43 ทางลงรามคำแหง	13.742256	100.6129475	exat	holiday	2022-10-09T00:00:00	7:00:00	8:00:00	12	121	2559	2700	0.95
15358	CCTV43 ทางลงรามคำแหง	13.742256	100.6129475	exat	holiday	2022-10-09T00:00:00	8:00:00	9:00:00	91	45	544	2700	0.20
15359	CCTV43 ทางลงรามคำแหง	13.742256	100.6129475	exat	working	2022-10-09T00:00:00	9:00:00	10:00:00	90	41	397	2700	0.15
15360	CCTV43 ทางลงรามคำแหง	13.742256	100.6129475	exat	working	2022-10-09T00:00:00	10:00:00	11:00:00	86	37	416	2700	0.15
15361	CCTV43 ทางลงรามคำแหง	13.742256	100.6129475	exat	holiday	2022-10-09T00:00:00	11:00:00	12:00:00	19	121	2018	2700	0.75
15362	CCTV43 ทางลงรามคำแหง	13.742256	100.6129475	exat	working	2022-10-09T00:00:00	12:00:00	13:00:00	89	44	413	2700	0.15
15363	CCTV43 ทางลงรามคำแหง	13.742256	100.6129475	exat	working	2022-10-09T00:00:00	13:00:00	14:00:00	86	42	548	2700	0.20
15364	CCTV43 ทางลงรามคำแหง	13.742256	100.6129475	exat	working	2022-10-09T00:00:00	14:00:00	15:00:00	87	43	480	2700	0.18
15365	CCTV43 ทางลงรามคำแหง	13.742256	100.6129475	exat	working	2022-10-09T00:00:00	15:00:00	16:00:00	88	45	482	2700	0.18
15366	CCTV43 ทางลงรามคำแหง	13.742256	100.6129475	exat	holiday	2022-10-09T00:00:00	16:00:00	17:00:00	22	45	728	2700	0.27
15367	CCTV43 ทางลงรามคำแหง	13.742256	100.6129475	exat	holiday	2022-10-09T00:00:00	17:00:00	18:00:00	38	34	1462	2700	0.54
15368	CCTV43 ทางลงรามคำแหง	13.742256	100.6129475	exat	holiday	2022-10-09T00:00:00	18:00:00	19:00:00	21	121	364	2700	0.13
15369	CCTV43 ทางลงรามคำแหง	13.742256	100.6129475	exat	working	2022-11-09T00:00:00	5:00:00	6:00:00	79	18	68	2700	0.03
15370	CCTV43 ทางลงรามคำแหง	13.742256	100.6129475	exat	holiday	2022-11-09T00:00:00	6:00:00	7:00:00	55	53	219	2700	0.08
15371	CCTV43 ทางลงรามคำแหง	13.742256	100.6129475	exat	holiday	2022-11-09T00:00:00	7:00:00	8:00:00	7	121	1508	2700	0.56
15372	CCTV43 ทางลงรามคำแหง	13.742256	100.6129475	exat	holiday	2022-11-09T00:00:00	8:00:00	9:00:00	55	27	307	2700	0.11
15373	CCTV43 ทางลงรามคำแหง	13.742256	100.6129475	exat	working	2022-11-09T00:00:00	9:00:00	10:00:00	54	25	261	2700	0.10
15374	CCTV43 ทางลงรามคำแหง	13.742256	100.6129475	exat	working	2022-11-09T00:00:00	10:00:00	11:00:00	52	23	251	2700	0.09
15375	CCTV43 ทางลงรามคำแหง	13.742256	100.6129475	exat	holiday	2022-11-09T00:00:00	11:00:00	12:00:00	12	121	1207	2700	0.45
15376	CCTV43 ทางลงรามคำแหง	13.742256	100.6129475	exat	working	2022-11-09T00:00:00	12:00:00	13:00:00	54	27	241	2700	0.09
15377	CCTV43 ทางลงรามคำแหง	13.742256	100.6129475	exat	working	2022-11-09T00:00:00	13:00:00	14:00:00	52	25	274	2700	0.10
15378	CCTV43 ทางลงรามคำแหง	13.742256	100.6129475	exat	working	2022-11-09T00:00:00	14:00:00	15:00:00	52	26	288	2700	0.11
15379	CCTV43 ทางลงรามคำแหง	13.742256	100.6129475	exat	working	2022-11-09T00:00:00	15:00:00	16:00:00	53	27	300	2700	0.11
15380	CCTV43 ทางลงรามคำแหง	13.742256	100.6129475	exat	holiday	2022-11-09T00:00:00	16:00:00	17:00:00	13	121	432	2700	0.16
15381	CCTV43 ทางลงรามคำแหง	13.742256	100.6129475	exat	holiday	2022-11-09T00:00:00	17:00:00	18:00:00	23	21	869	2700	0.32
15382	CCTV43 ทางลงรามคำแหง	13.742256	100.6129475	exat	holiday	2022-11-09T00:00:00	18:00:00	19:00:00	21	121	218	2700	0.08
15383	CCTV46 ทางลงเดอะไนน์	13.7419235	100.6403341	exat	working	2022-05-09T00:00:00	5:00:00	6:00:00	84	12	763	2700	0.28
15384	CCTV46 ทางลงเดอะไนน์	13.7419235	100.6403341	exat	working	2022-05-09T00:00:00	6:00:00	7:00:00	59	35	2185	2700	0.81
15385	CCTV46 ทางลงเดอะไนน์	13.7419235	100.6403341	exat	working	2022-05-09T00:00:00	7:00:00	8:00:00	53	153	4359	2700	1.61
15386	CCTV46 ทางลงเดอะไนน์	13.7419235	100.6403341	exat	working	2022-05-09T00:00:00	8:00:00	9:00:00	48	36	1437	2700	0.53
15387	CCTV46 ทางลงเดอะไนน์	13.7419235	100.6403341	exat	working	2022-05-09T00:00:00	9:00:00	10:00:00	46	34	1376	2700	0.51
15388	CCTV46 ทางลงเดอะไนน์	13.7419235	100.6403341	exat	working	2022-05-09T00:00:00	10:00:00	11:00:00	42	34	1389	2700	0.51
15389	CCTV46 ทางลงเดอะไนน์	13.7419235	100.6403341	exat	working	2022-05-09T00:00:00	11:00:00	12:00:00	91	56	2682	2700	0.99
15390	CCTV46 ทางลงเดอะไนน์	13.7419235	100.6403341	exat	working	2022-05-09T00:00:00	12:00:00	13:00:00	43	32	1359	2700	0.50
15391	CCTV46 ทางลงเดอะไนน์	13.7419235	100.6403341	exat	working	2022-05-09T00:00:00	13:00:00	14:00:00	44	35	1407	2700	0.52
15392	CCTV46 ทางลงเดอะไนน์	13.7419235	100.6403341	exat	working	2022-05-09T00:00:00	14:00:00	15:00:00	43	33	1339	2700	0.50
15393	CCTV46 ทางลงเดอะไนน์	13.7419235	100.6403341	exat	working	2022-05-09T00:00:00	15:00:00	16:00:00	45	35	1314	2700	0.49
15394	CCTV46 ทางลงเดอะไนน์	13.7419235	100.6403341	exat	working	2022-05-09T00:00:00	16:00:00	17:00:00	91	40	4535	2700	1.68
15395	CCTV46 ทางลงเดอะไนน์	13.7419235	100.6403341	exat	working	2022-05-09T00:00:00	17:00:00	18:00:00	52	107	5420	2700	2.01
15396	CCTV46 ทางลงเดอะไนน์	13.7419235	100.6403341	exat	working	2022-05-09T00:00:00	18:00:00	19:00:00	56	155	6630	2700	2.46
15397	CCTV46 ทางลงเดอะไนน์	13.7419235	100.6403341	exat	working	2022-06-09T00:00:00	5:00:00	6:00:00	84	11	754	2700	0.28
15398	CCTV46 ทางลงเดอะไนน์	13.7419235	100.6403341	exat	working	2022-06-09T00:00:00	6:00:00	7:00:00	59	35	2183	2700	0.81
15399	CCTV46 ทางลงเดอะไนน์	13.7419235	100.6403341	exat	working	2022-06-09T00:00:00	7:00:00	8:00:00	53	153	4356	2700	1.61
15400	CCTV46 ทางลงเดอะไนน์	13.7419235	100.6403341	exat	working	2022-06-09T00:00:00	8:00:00	9:00:00	48	36	1459	2700	0.54
15401	CCTV46 ทางลงเดอะไนน์	13.7419235	100.6403341	exat	working	2022-06-09T00:00:00	9:00:00	10:00:00	46	34	1365	2700	0.51
15402	CCTV46 ทางลงเดอะไนน์	13.7419235	100.6403341	exat	working	2022-06-09T00:00:00	10:00:00	11:00:00	43	32	1351	2700	0.50
15403	CCTV46 ทางลงเดอะไนน์	13.7419235	100.6403341	exat	working	2022-06-09T00:00:00	11:00:00	12:00:00	77	69	3093	2700	1.15
15404	CCTV46 ทางลงเดอะไนน์	13.7419235	100.6403341	exat	working	2022-06-09T00:00:00	12:00:00	13:00:00	44	32	1337	2700	0.50
15405	CCTV46 ทางลงเดอะไนน์	13.7419235	100.6403341	exat	working	2022-06-09T00:00:00	13:00:00	14:00:00	44	33	1423	2700	0.53
15406	CCTV46 ทางลงเดอะไนน์	13.7419235	100.6403341	exat	working	2022-06-09T00:00:00	14:00:00	15:00:00	44	33	1353	2700	0.50
15407	CCTV46 ทางลงเดอะไนน์	13.7419235	100.6403341	exat	working	2022-06-09T00:00:00	15:00:00	16:00:00	46	35	1403	2700	0.52
15408	CCTV46 ทางลงเดอะไนน์	13.7419235	100.6403341	exat	working	2022-06-09T00:00:00	16:00:00	17:00:00	75	56	4358	2700	1.61
15409	CCTV46 ทางลงเดอะไนน์	13.7419235	100.6403341	exat	working	2022-06-09T00:00:00	17:00:00	18:00:00	49	105	5811	2700	2.15
15410	CCTV46 ทางลงเดอะไนน์	13.7419235	100.6403341	exat	working	2022-06-09T00:00:00	18:00:00	19:00:00	57	144	6921	2700	2.56
15411	CCTV46 ทางลงเดอะไนน์	13.7419235	100.6403341	exat	working	2022-07-09T00:00:00	5:00:00	6:00:00	83	11	687	2700	0.25
15412	CCTV46 ทางลงเดอะไนน์	13.7419235	100.6403341	exat	working	2022-07-09T00:00:00	6:00:00	7:00:00	59	35	2207	2700	0.82
15413	CCTV46 ทางลงเดอะไนน์	13.7419235	100.6403341	exat	working	2022-07-09T00:00:00	7:00:00	8:00:00	53	153	4374	2700	1.62
15414	CCTV46 ทางลงเดอะไนน์	13.7419235	100.6403341	exat	working	2022-07-09T00:00:00	8:00:00	9:00:00	48	36	1445	2700	0.54
15415	CCTV46 ทางลงเดอะไนน์	13.7419235	100.6403341	exat	working	2022-07-09T00:00:00	9:00:00	10:00:00	46	35	1399	2700	0.52
15416	CCTV46 ทางลงเดอะไนน์	13.7419235	100.6403341	exat	working	2022-07-09T00:00:00	10:00:00	11:00:00	45	31	1328	2700	0.49
15417	CCTV46 ทางลงเดอะไนน์	13.7419235	100.6403341	exat	working	2022-07-09T00:00:00	11:00:00	12:00:00	63	82	3450	2700	1.28
15418	CCTV46 ทางลงเดอะไนน์	13.7419235	100.6403341	exat	working	2022-07-09T00:00:00	12:00:00	13:00:00	46	33	1349	2700	0.50
15419	CCTV46 ทางลงเดอะไนน์	13.7419235	100.6403341	exat	working	2022-07-09T00:00:00	13:00:00	14:00:00	43	31	1438	2700	0.53
15420	CCTV46 ทางลงเดอะไนน์	13.7419235	100.6403341	exat	working	2022-07-09T00:00:00	14:00:00	15:00:00	45	34	1378	2700	0.51
15421	CCTV46 ทางลงเดอะไนน์	13.7419235	100.6403341	exat	working	2022-07-09T00:00:00	15:00:00	16:00:00	47	34	1442	2700	0.53
15422	CCTV46 ทางลงเดอะไนน์	13.7419235	100.6403341	exat	working	2022-07-09T00:00:00	16:00:00	17:00:00	59	73	4199	2700	1.56
15423	CCTV46 ทางลงเดอะไนน์	13.7419235	100.6403341	exat	working	2022-07-09T00:00:00	17:00:00	18:00:00	47	102	6189	2700	2.29
15424	CCTV46 ทางลงเดอะไนน์	13.7419235	100.6403341	exat	working	2022-07-09T00:00:00	18:00:00	19:00:00	58	135	7131	2700	2.64
15425	CCTV46 ทางลงเดอะไนน์	13.7419235	100.6403341	exat	working	2022-08-09T00:00:00	5:00:00	6:00:00	86	12	845	2700	0.31
15426	CCTV46 ทางลงเดอะไนน์	13.7419235	100.6403341	exat	working	2022-08-09T00:00:00	6:00:00	7:00:00	62	39	2649	2700	0.98
15427	CCTV46 ทางลงเดอะไนน์	13.7419235	100.6403341	exat	working	2022-08-09T00:00:00	7:00:00	8:00:00	61	111	3458	2700	1.28
15428	CCTV46 ทางลงเดอะไนน์	13.7419235	100.6403341	exat	working	2022-08-09T00:00:00	8:00:00	9:00:00	61	62	2749	2700	1.02
15429	CCTV46 ทางลงเดอะไนน์	13.7419235	100.6403341	exat	working	2022-08-09T00:00:00	9:00:00	10:00:00	58	59	2692	2700	1.00
15430	CCTV46 ทางลงเดอะไนน์	13.7419235	100.6403341	exat	working	2022-08-09T00:00:00	10:00:00	11:00:00	58	59	2603	2700	0.96
15431	CCTV46 ทางลงเดอะไนน์	13.7419235	100.6403341	exat	working	2022-08-09T00:00:00	11:00:00	12:00:00	67	75	3092	2700	1.15
15432	CCTV46 ทางลงเดอะไนน์	13.7419235	100.6403341	exat	working	2022-08-09T00:00:00	12:00:00	13:00:00	59	59	2598	2700	0.96
15433	CCTV46 ทางลงเดอะไนน์	13.7419235	100.6403341	exat	working	2022-08-09T00:00:00	13:00:00	14:00:00	57	57	2604	2700	0.96
15434	CCTV46 ทางลงเดอะไนน์	13.7419235	100.6403341	exat	working	2022-08-09T00:00:00	14:00:00	15:00:00	59	58	2618	2700	0.97
15435	CCTV46 ทางลงเดอะไนน์	13.7419235	100.6403341	exat	working	2022-08-09T00:00:00	15:00:00	16:00:00	59	59	2648	2700	0.98
15436	CCTV46 ทางลงเดอะไนน์	13.7419235	100.6403341	exat	working	2022-08-09T00:00:00	16:00:00	17:00:00	45	128	4732	2700	1.75
15437	CCTV46 ทางลงเดอะไนน์	13.7419235	100.6403341	exat	working	2022-08-09T00:00:00	17:00:00	18:00:00	47	142	6455	2700	2.39
15438	CCTV46 ทางลงเดอะไนน์	13.7419235	100.6403341	exat	working	2022-08-09T00:00:00	18:00:00	19:00:00	52	158	6372	2700	2.36
15439	CCTV46 ทางลงเดอะไนน์	13.7419235	100.6403341	exat	working	2022-09-09T00:00:00	5:00:00	6:00:00	90	13	1066	2700	0.39
15440	CCTV46 ทางลงเดอะไนน์	13.7419235	100.6403341	exat	working	2022-09-09T00:00:00	6:00:00	7:00:00	64	42	3063	2700	1.13
15441	CCTV46 ทางลงเดอะไนน์	13.7419235	100.6403341	exat	working	2022-09-09T00:00:00	7:00:00	8:00:00	69	67	2530	2700	0.94
15442	CCTV46 ทางลงเดอะไนน์	13.7419235	100.6403341	exat	working	2022-09-09T00:00:00	8:00:00	9:00:00	73	88	4007	2700	1.48
15443	CCTV46 ทางลงเดอะไนน์	13.7419235	100.6403341	exat	working	2022-09-09T00:00:00	9:00:00	10:00:00	70	84	4009	2700	1.48
15444	CCTV46 ทางลงเดอะไนน์	13.7419235	100.6403341	exat	working	2022-09-09T00:00:00	10:00:00	11:00:00	71	86	3901	2700	1.44
15445	CCTV46 ทางลงเดอะไนน์	13.7419235	100.6403341	exat	working	2022-09-09T00:00:00	11:00:00	12:00:00	70	68	2708	2700	1.00
15446	CCTV46 ทางลงเดอะไนน์	13.7419235	100.6403341	exat	working	2022-09-09T00:00:00	12:00:00	13:00:00	72	86	3873	2700	1.43
15447	CCTV46 ทางลงเดอะไนน์	13.7419235	100.6403341	exat	working	2022-09-09T00:00:00	13:00:00	14:00:00	72	83	3852	2700	1.43
15448	CCTV46 ทางลงเดอะไนน์	13.7419235	100.6403341	exat	working	2022-09-09T00:00:00	14:00:00	15:00:00	73	83	3823	2700	1.42
15449	CCTV46 ทางลงเดอะไนน์	13.7419235	100.6403341	exat	working	2022-09-09T00:00:00	15:00:00	16:00:00	70	84	3920	2700	1.45
15450	CCTV46 ทางลงเดอะไนน์	13.7419235	100.6403341	exat	working	2022-09-09T00:00:00	16:00:00	17:00:00	31	182	5219	2700	1.93
15451	CCTV46 ทางลงเดอะไนน์	13.7419235	100.6403341	exat	working	2022-09-09T00:00:00	17:00:00	18:00:00	47	181	6699	2700	2.48
15452	CCTV46 ทางลงเดอะไนน์	13.7419235	100.6403341	exat	working	2022-09-09T00:00:00	18:00:00	19:00:00	46	182	5658	2700	2.10
15453	CCTV46 ทางลงเดอะไนน์	13.7419235	100.6403341	exat	working	2022-10-09T00:00:00	5:00:00	6:00:00	59	31	1039	2700	0.38
15454	CCTV46 ทางลงเดอะไนน์	13.7419235	100.6403341	exat	holiday	2022-10-09T00:00:00	6:00:00	7:00:00	42	103	3260	2700	1.21
15455	CCTV46 ทางลงเดอะไนน์	13.7419235	100.6403341	exat	holiday	2022-10-09T00:00:00	7:00:00	8:00:00	36	90	2726	2700	1.01
15456	CCTV46 ทางลงเดอะไนน์	13.7419235	100.6403341	exat	holiday	2022-10-09T00:00:00	8:00:00	9:00:00	36	176	5432	2700	2.01
15457	CCTV46 ทางลงเดอะไนน์	13.7419235	100.6403341	exat	working	2022-10-09T00:00:00	9:00:00	10:00:00	31	177	5419	2700	2.01
15458	CCTV46 ทางลงเดอะไนน์	13.7419235	100.6403341	exat	working	2022-10-09T00:00:00	10:00:00	11:00:00	35	175	5420	2700	2.01
15459	CCTV46 ทางลงเดอะไนน์	13.7419235	100.6403341	exat	holiday	2022-10-09T00:00:00	11:00:00	12:00:00	47	138	4191	2700	1.55
15460	CCTV46 ทางลงเดอะไนน์	13.7419235	100.6403341	exat	working	2022-10-09T00:00:00	12:00:00	13:00:00	32	174	5309	2700	1.97
15461	CCTV46 ทางลงเดอะไนน์	13.7419235	100.6403341	exat	working	2022-10-09T00:00:00	13:00:00	14:00:00	31	173	5326	2700	1.97
15462	CCTV46 ทางลงเดอะไนน์	13.7419235	100.6403341	exat	working	2022-10-09T00:00:00	14:00:00	15:00:00	32	177	5400	2700	2.00
15463	CCTV46 ทางลงเดอะไนน์	13.7419235	100.6403341	exat	working	2022-10-09T00:00:00	15:00:00	16:00:00	32	172	5333	2700	1.98
15464	CCTV46 ทางลงเดอะไนน์	13.7419235	100.6403341	exat	holiday	2022-10-09T00:00:00	16:00:00	17:00:00	43	115	4153	2700	1.54
15465	CCTV46 ทางลงเดอะไนน์	13.7419235	100.6403341	exat	holiday	2022-10-09T00:00:00	17:00:00	18:00:00	25	110	3453	2700	1.28
15466	CCTV46 ทางลงเดอะไนน์	13.7419235	100.6403341	exat	holiday	2022-10-09T00:00:00	18:00:00	19:00:00	36	89	4540	2700	1.68
15467	CCTV46 ทางลงเดอะไนน์	13.7419235	100.6403341	exat	working	2022-11-09T00:00:00	5:00:00	6:00:00	35	21	601	2700	0.22
15468	CCTV46 ทางลงเดอะไนน์	13.7419235	100.6403341	exat	holiday	2022-11-09T00:00:00	6:00:00	7:00:00	25	62	1964	2700	0.73
15469	CCTV46 ทางลงเดอะไนน์	13.7419235	100.6403341	exat	holiday	2022-11-09T00:00:00	7:00:00	8:00:00	22	54	1633	2700	0.60
15470	CCTV46 ทางลงเดอะไนน์	13.7419235	100.6403341	exat	holiday	2022-11-09T00:00:00	8:00:00	9:00:00	22	106	3289	2700	1.22
15471	CCTV46 ทางลงเดอะไนน์	13.7419235	100.6403341	exat	working	2022-11-09T00:00:00	9:00:00	10:00:00	19	121	3263	2700	1.21
15472	CCTV46 ทางลงเดอะไนน์	13.7419235	100.6403341	exat	working	2022-11-09T00:00:00	10:00:00	11:00:00	21	122	3286	2700	1.22
15473	CCTV46 ทางลงเดอะไนน์	13.7419235	100.6403341	exat	holiday	2022-11-09T00:00:00	11:00:00	12:00:00	28	82	2491	2700	0.92
15474	CCTV46 ทางลงเดอะไนน์	13.7419235	100.6403341	exat	working	2022-11-09T00:00:00	12:00:00	13:00:00	19	121	3196	2700	1.18
15475	CCTV46 ทางลงเดอะไนน์	13.7419235	100.6403341	exat	working	2022-11-09T00:00:00	13:00:00	14:00:00	19	121	3193	2700	1.18
15476	CCTV46 ทางลงเดอะไนน์	13.7419235	100.6403341	exat	working	2022-11-09T00:00:00	14:00:00	15:00:00	19	121	3272	2700	1.21
15477	CCTV46 ทางลงเดอะไนน์	13.7419235	100.6403341	exat	working	2022-11-09T00:00:00	15:00:00	16:00:00	19	121	3202	2700	1.19
15478	CCTV46 ทางลงเดอะไนน์	13.7419235	100.6403341	exat	holiday	2022-11-09T00:00:00	16:00:00	17:00:00	26	69	2499	2700	0.93
15479	CCTV46 ทางลงเดอะไนน์	13.7419235	100.6403341	exat	holiday	2022-11-09T00:00:00	17:00:00	18:00:00	15	121	2086	2700	0.77
15480	CCTV46 ทางลงเดอะไนน์	13.7419235	100.6403341	exat	holiday	2022-11-09T00:00:00	18:00:00	19:00:00	22	54	2732	2700	1.01
15481	CCTV22 วัดบัวขวัญ	13.9073813	100.5439972	exat	working	2022-05-09T00:00:00	5:00:00	6:00:00	78	19	382	1800	0.21
15482	CCTV22 วัดบัวขวัญ	13.9073813	100.5439972	exat	working	2022-05-09T00:00:00	6:00:00	7:00:00	55	59	1268	1800	0.70
15483	CCTV22 วัดบัวขวัญ	13.9073813	100.5439972	exat	working	2022-05-09T00:00:00	7:00:00	8:00:00	30	122	2594	1800	1.44
15484	CCTV22 วัดบัวขวัญ	13.9073813	100.5439972	exat	working	2022-05-09T00:00:00	8:00:00	9:00:00	54	78	3100	1800	1.72
15485	CCTV22 วัดบัวขวัญ	13.9073813	100.5439972	exat	working	2022-05-09T00:00:00	9:00:00	10:00:00	50	73	2968	1800	1.65
15486	CCTV22 วัดบัวขวัญ	13.9073813	100.5439972	exat	working	2022-05-09T00:00:00	10:00:00	11:00:00	53	73	2957	1800	1.64
15487	CCTV22 วัดบัวขวัญ	13.9073813	100.5439972	exat	working	2022-05-09T00:00:00	11:00:00	12:00:00	68	52	2900	1800	1.61
15488	CCTV22 วัดบัวขวัญ	13.9073813	100.5439972	exat	working	2022-05-09T00:00:00	12:00:00	13:00:00	53	74	3055	1800	1.70
15489	CCTV22 วัดบัวขวัญ	13.9073813	100.5439972	exat	working	2022-05-09T00:00:00	13:00:00	14:00:00	52	74	2987	1800	1.66
15490	CCTV22 วัดบัวขวัญ	13.9073813	100.5439972	exat	working	2022-05-09T00:00:00	14:00:00	15:00:00	52	77	3026	1800	1.68
15491	CCTV22 วัดบัวขวัญ	13.9073813	100.5439972	exat	working	2022-05-09T00:00:00	15:00:00	16:00:00	50	74	3061	1800	1.70
15492	CCTV22 วัดบัวขวัญ	13.9073813	100.5439972	exat	working	2022-05-09T00:00:00	16:00:00	17:00:00	61	34	1435	1800	0.80
15493	CCTV22 วัดบัวขวัญ	13.9073813	100.5439972	exat	working	2022-05-09T00:00:00	17:00:00	18:00:00	91	25	1621	1800	0.90
15494	CCTV22 วัดบัวขวัญ	13.9073813	100.5439972	exat	working	2022-05-09T00:00:00	18:00:00	19:00:00	65	52	2184	1800	1.21
15495	CCTV22 วัดบัวขวัญ	13.9073813	100.5439972	exat	working	2022-06-09T00:00:00	5:00:00	6:00:00	78	20	408	1800	0.23
15496	CCTV22 วัดบัวขวัญ	13.9073813	100.5439972	exat	working	2022-06-09T00:00:00	6:00:00	7:00:00	55	59	1274	1800	0.71
15497	CCTV22 วัดบัวขวัญ	13.9073813	100.5439972	exat	working	2022-06-09T00:00:00	7:00:00	8:00:00	30	122	2548	1800	1.42
15498	CCTV22 วัดบัวขวัญ	13.9073813	100.5439972	exat	working	2022-06-09T00:00:00	8:00:00	9:00:00	54	78	3080	1800	1.71
15499	CCTV22 วัดบัวขวัญ	13.9073813	100.5439972	exat	working	2022-06-09T00:00:00	9:00:00	10:00:00	51	75	2984	1800	1.66
15500	CCTV22 วัดบัวขวัญ	13.9073813	100.5439972	exat	working	2022-06-09T00:00:00	10:00:00	11:00:00	52	73	3038	1800	1.69
15501	CCTV22 วัดบัวขวัญ	13.9073813	100.5439972	exat	working	2022-06-09T00:00:00	11:00:00	12:00:00	68	52	2920	1800	1.62
15502	CCTV22 วัดบัวขวัญ	13.9073813	100.5439972	exat	working	2022-06-09T00:00:00	12:00:00	13:00:00	51	75	3068	1800	1.70
15503	CCTV22 วัดบัวขวัญ	13.9073813	100.5439972	exat	working	2022-06-09T00:00:00	13:00:00	14:00:00	51	74	3014	1800	1.67
15504	CCTV22 วัดบัวขวัญ	13.9073813	100.5439972	exat	working	2022-06-09T00:00:00	14:00:00	15:00:00	51	75	3005	1800	1.67
15505	CCTV22 วัดบัวขวัญ	13.9073813	100.5439972	exat	working	2022-06-09T00:00:00	15:00:00	16:00:00	50	74	3050	1800	1.69
15506	CCTV22 วัดบัวขวัญ	13.9073813	100.5439972	exat	working	2022-06-09T00:00:00	16:00:00	17:00:00	50	41	2179	1800	1.21
15507	CCTV22 วัดบัวขวัญ	13.9073813	100.5439972	exat	working	2022-06-09T00:00:00	17:00:00	18:00:00	64	29	1553	1800	0.86
15508	CCTV22 วัดบัวขวัญ	13.9073813	100.5439972	exat	working	2022-06-09T00:00:00	18:00:00	19:00:00	52	54	2536	1800	1.41
15509	CCTV22 วัดบัวขวัญ	13.9073813	100.5439972	exat	working	2022-07-09T00:00:00	5:00:00	6:00:00	77	19	427	1800	0.24
15510	CCTV22 วัดบัวขวัญ	13.9073813	100.5439972	exat	working	2022-07-09T00:00:00	6:00:00	7:00:00	55	59	1271	1800	0.71
15511	CCTV22 วัดบัวขวัญ	13.9073813	100.5439972	exat	working	2022-07-09T00:00:00	7:00:00	8:00:00	30	122	2541	1800	1.41
15512	CCTV22 วัดบัวขวัญ	13.9073813	100.5439972	exat	working	2022-07-09T00:00:00	8:00:00	9:00:00	54	78	3102	1800	1.72
15513	CCTV22 วัดบัวขวัญ	13.9073813	100.5439972	exat	working	2022-07-09T00:00:00	9:00:00	10:00:00	52	76	3003	1800	1.67
15514	CCTV22 วัดบัวขวัญ	13.9073813	100.5439972	exat	working	2022-07-09T00:00:00	10:00:00	11:00:00	51	74	3094	1800	1.72
15515	CCTV22 วัดบัวขวัญ	13.9073813	100.5439972	exat	working	2022-07-09T00:00:00	11:00:00	12:00:00	68	52	2895	1800	1.61
15516	CCTV22 วัดบัวขวัญ	13.9073813	100.5439972	exat	working	2022-07-09T00:00:00	12:00:00	13:00:00	50	77	3079	1800	1.71
15517	CCTV22 วัดบัวขวัญ	13.9073813	100.5439972	exat	working	2022-07-09T00:00:00	13:00:00	14:00:00	50	74	3027	1800	1.68
15518	CCTV22 วัดบัวขวัญ	13.9073813	100.5439972	exat	working	2022-07-09T00:00:00	14:00:00	15:00:00	51	74	3005	1800	1.67
15519	CCTV22 วัดบัวขวัญ	13.9073813	100.5439972	exat	working	2022-07-09T00:00:00	15:00:00	16:00:00	50	73	3011	1800	1.67
15520	CCTV22 วัดบัวขวัญ	13.9073813	100.5439972	exat	working	2022-07-09T00:00:00	16:00:00	17:00:00	39	49	2893	1800	1.61
15521	CCTV22 วัดบัวขวัญ	13.9073813	100.5439972	exat	working	2022-07-09T00:00:00	17:00:00	18:00:00	38	34	1456	1800	0.81
15522	CCTV22 วัดบัวขวัญ	13.9073813	100.5439972	exat	working	2022-07-09T00:00:00	18:00:00	19:00:00	39	57	2925	1800	1.63
15523	CCTV22 วัดบัวขวัญ	13.9073813	100.5439972	exat	working	2022-08-09T00:00:00	5:00:00	6:00:00	67	20	661	1800	0.37
15524	CCTV22 วัดบัวขวัญ	13.9073813	100.5439972	exat	working	2022-08-09T00:00:00	6:00:00	7:00:00	48	60	2098	1800	1.17
15525	CCTV22 วัดบัวขวัญ	13.9073813	100.5439972	exat	working	2022-08-09T00:00:00	7:00:00	8:00:00	32	80	2012	1800	1.12
15526	CCTV22 วัดบัวขวัญ	13.9073813	100.5439972	exat	working	2022-08-09T00:00:00	8:00:00	9:00:00	43	60	2708	1800	1.50
15527	CCTV22 วัดบัวขวัญ	13.9073813	100.5439972	exat	working	2022-08-09T00:00:00	9:00:00	10:00:00	39	56	2648	1800	1.47
15528	CCTV22 วัดบัวขวัญ	13.9073813	100.5439972	exat	working	2022-08-09T00:00:00	10:00:00	11:00:00	39	56	2718	1800	1.51
15529	CCTV22 วัดบัวขวัญ	13.9073813	100.5439972	exat	working	2022-08-09T00:00:00	11:00:00	12:00:00	57	38	2380	1800	1.32
15530	CCTV22 วัดบัวขวัญ	13.9073813	100.5439972	exat	working	2022-08-09T00:00:00	12:00:00	13:00:00	40	58	2671	1800	1.48
15531	CCTV22 วัดบัวขวัญ	13.9073813	100.5439972	exat	working	2022-08-09T00:00:00	13:00:00	14:00:00	40	55	2701	1800	1.50
15532	CCTV22 วัดบัวขวัญ	13.9073813	100.5439972	exat	working	2022-08-09T00:00:00	14:00:00	15:00:00	41	56	2648	1800	1.47
15533	CCTV22 วัดบัวขวัญ	13.9073813	100.5439972	exat	working	2022-08-09T00:00:00	15:00:00	16:00:00	39	57	2624	1800	1.46
15534	CCTV22 วัดบัวขวัญ	13.9073813	100.5439972	exat	working	2022-08-09T00:00:00	16:00:00	17:00:00	20	121	2680	1800	1.49
15535	CCTV22 วัดบัวขวัญ	13.9073813	100.5439972	exat	working	2022-08-09T00:00:00	17:00:00	18:00:00	59	34	1810	1800	1.01
15536	CCTV22 วัดบัวขวัญ	13.9073813	100.5439972	exat	working	2022-08-09T00:00:00	18:00:00	19:00:00	28	78	3350	1800	1.86
15537	CCTV22 วัดบัวขวัญ	13.9073813	100.5439972	exat	working	2022-09-09T00:00:00	5:00:00	6:00:00	57	19	975	1800	0.54
15538	CCTV22 วัดบัวขวัญ	13.9073813	100.5439972	exat	working	2022-09-09T00:00:00	6:00:00	7:00:00	40	61	2912	1800	1.62
15539	CCTV22 วัดบัวขวัญ	13.9073813	100.5439972	exat	working	2022-09-09T00:00:00	7:00:00	8:00:00	34	38	1449	1800	0.81
15540	CCTV22 วัดบัวขวัญ	13.9073813	100.5439972	exat	working	2022-09-09T00:00:00	8:00:00	9:00:00	32	41	2375	1800	1.32
15541	CCTV22 วัดบัวขวัญ	13.9073813	100.5439972	exat	working	2022-09-09T00:00:00	9:00:00	10:00:00	27	36	2260	1800	1.26
15542	CCTV22 วัดบัวขวัญ	13.9073813	100.5439972	exat	working	2022-09-09T00:00:00	10:00:00	11:00:00	27	39	2376	1800	1.32
15543	CCTV22 วัดบัวขวัญ	13.9073813	100.5439972	exat	working	2022-09-09T00:00:00	11:00:00	12:00:00	45	25	1818	1800	1.01
15544	CCTV22 วัดบัวขวัญ	13.9073813	100.5439972	exat	working	2022-09-09T00:00:00	12:00:00	13:00:00	31	38	2249	1800	1.25
15545	CCTV22 วัดบัวขวัญ	13.9073813	100.5439972	exat	working	2022-09-09T00:00:00	13:00:00	14:00:00	29	36	2331	1800	1.30
15546	CCTV22 วัดบัวขวัญ	13.9073813	100.5439972	exat	working	2022-09-09T00:00:00	14:00:00	15:00:00	31	38	2309	1800	1.28
15547	CCTV22 วัดบัวขวัญ	13.9073813	100.5439972	exat	working	2022-09-09T00:00:00	15:00:00	16:00:00	28	40	2257	1800	1.25
15548	CCTV22 วัดบัวขวัญ	13.9073813	100.5439972	exat	working	2022-09-09T00:00:00	16:00:00	17:00:00	21	121	2439	1800	1.36
15549	CCTV22 วัดบัวขวัญ	13.9073813	100.5439972	exat	working	2022-09-09T00:00:00	17:00:00	18:00:00	81	35	2188	1800	1.22
15550	CCTV22 วัดบัวขวัญ	13.9073813	100.5439972	exat	working	2022-09-09T00:00:00	18:00:00	19:00:00	17	121	3823	1800	2.12
15551	CCTV22 วัดบัวขวัญ	13.9073813	100.5439972	exat	working	2022-10-09T00:00:00	5:00:00	6:00:00	60	5	178	1800	0.10
15552	CCTV22 วัดบัวขวัญ	13.9073813	100.5439972	exat	holiday	2022-10-09T00:00:00	6:00:00	7:00:00	42	14	537	1800	0.30
15553	CCTV22 วัดบัวขวัญ	13.9073813	100.5439972	exat	holiday	2022-10-09T00:00:00	7:00:00	8:00:00	41	37	1458	1800	0.81
15554	CCTV22 วัดบัวขวัญ	13.9073813	100.5439972	exat	holiday	2022-10-09T00:00:00	8:00:00	9:00:00	53	33	1985	1800	1.10
15555	CCTV22 วัดบัวขวัญ	13.9073813	100.5439972	exat	working	2022-10-09T00:00:00	9:00:00	10:00:00	48	32	1872	1800	1.04
15556	CCTV22 วัดบัวขวัญ	13.9073813	100.5439972	exat	working	2022-10-09T00:00:00	10:00:00	11:00:00	50	30	1927	1800	1.07
15557	CCTV22 วัดบัวขวัญ	13.9073813	100.5439972	exat	holiday	2022-10-09T00:00:00	11:00:00	12:00:00	58	38	3433	1800	1.91
15558	CCTV22 วัดบัวขวัญ	13.9073813	100.5439972	exat	working	2022-10-09T00:00:00	12:00:00	13:00:00	51	31	1890	1800	1.05
15559	CCTV22 วัดบัวขวัญ	13.9073813	100.5439972	exat	working	2022-10-09T00:00:00	13:00:00	14:00:00	51	28	1887	1800	1.05
15560	CCTV22 วัดบัวขวัญ	13.9073813	100.5439972	exat	working	2022-10-09T00:00:00	14:00:00	15:00:00	50	31	2048	1800	1.14
15561	CCTV22 วัดบัวขวัญ	13.9073813	100.5439972	exat	working	2022-10-09T00:00:00	15:00:00	16:00:00	50	29	1945	1800	1.08
15562	CCTV22 วัดบัวขวัญ	13.9073813	100.5439972	exat	holiday	2022-10-09T00:00:00	16:00:00	17:00:00	33	46	1818	1800	1.01
15563	CCTV22 วัดบัวขวัญ	13.9073813	100.5439972	exat	holiday	2022-10-09T00:00:00	17:00:00	18:00:00	40	61	2914	1800	1.62
15564	CCTV22 วัดบัวขวัญ	13.9073813	100.5439972	exat	holiday	2022-10-09T00:00:00	18:00:00	19:00:00	91	11	351	1800	0.20
15565	CCTV22 วัดบัวขวัญ	13.9073813	100.5439972	exat	working	2022-11-09T00:00:00	5:00:00	6:00:00	35	3	105	1800	0.06
15566	CCTV22 วัดบัวขวัญ	13.9073813	100.5439972	exat	holiday	2022-11-09T00:00:00	6:00:00	7:00:00	25	8	321	1800	0.18
15567	CCTV22 วัดบัวขวัญ	13.9073813	100.5439972	exat	holiday	2022-11-09T00:00:00	7:00:00	8:00:00	25	23	885	1800	0.49
15568	CCTV22 วัดบัวขวัญ	13.9073813	100.5439972	exat	holiday	2022-11-09T00:00:00	8:00:00	9:00:00	32	20	1191	1800	0.66
15569	CCTV22 วัดบัวขวัญ	13.9073813	100.5439972	exat	working	2022-11-09T00:00:00	9:00:00	10:00:00	29	19	1132	1800	0.63
15570	CCTV22 วัดบัวขวัญ	13.9073813	100.5439972	exat	working	2022-11-09T00:00:00	10:00:00	11:00:00	30	18	1165	1800	0.65
15571	CCTV22 วัดบัวขวัญ	13.9073813	100.5439972	exat	holiday	2022-11-09T00:00:00	11:00:00	12:00:00	35	23	2067	1800	1.15
15572	CCTV22 วัดบัวขวัญ	13.9073813	100.5439972	exat	working	2022-11-09T00:00:00	12:00:00	13:00:00	31	19	1142	1800	0.63
15573	CCTV22 วัดบัวขวัญ	13.9073813	100.5439972	exat	working	2022-11-09T00:00:00	13:00:00	14:00:00	31	17	1136	1800	0.63
15574	CCTV22 วัดบัวขวัญ	13.9073813	100.5439972	exat	working	2022-11-09T00:00:00	14:00:00	15:00:00	30	19	1211	1800	0.67
15575	CCTV22 วัดบัวขวัญ	13.9073813	100.5439972	exat	working	2022-11-09T00:00:00	15:00:00	16:00:00	30	18	1162	1800	0.65
15576	CCTV22 วัดบัวขวัญ	13.9073813	100.5439972	exat	holiday	2022-11-09T00:00:00	16:00:00	17:00:00	20	121	1089	1800	0.61
15577	CCTV22 วัดบัวขวัญ	13.9073813	100.5439972	exat	holiday	2022-11-09T00:00:00	17:00:00	18:00:00	24	37	1730	1800	0.96
15578	CCTV22 วัดบัวขวัญ	13.9073813	100.5439972	exat	holiday	2022-11-09T00:00:00	18:00:00	19:00:00	55	7	226	1800	0.13
15579	022Z 1_535B ทางลงศรีสมาน	13.9360663	100.5589235	exat	working	2022-05-09T00:00:00	5:00:00	6:00:00	75	4	184	2700	0.07
15580	022Z 1_535B ทางลงศรีสมาน	13.9360663	100.5589235	exat	working	2022-05-09T00:00:00	6:00:00	7:00:00	53	14	544	2700	0.20
15581	022Z 1_535B ทางลงศรีสมาน	13.9360663	100.5589235	exat	working	2022-05-09T00:00:00	7:00:00	8:00:00	70	15	1279	2700	0.47
15582	022Z 1_535B ทางลงศรีสมาน	13.9360663	100.5589235	exat	working	2022-05-09T00:00:00	8:00:00	9:00:00	43	23	1996	2700	0.74
15583	022Z 1_535B ทางลงศรีสมาน	13.9360663	100.5589235	exat	working	2022-05-09T00:00:00	9:00:00	10:00:00	39	22	1997	2700	0.74
15584	022Z 1_535B ทางลงศรีสมาน	13.9360663	100.5589235	exat	working	2022-05-09T00:00:00	10:00:00	11:00:00	42	22	1901	2700	0.70
15585	022Z 1_535B ทางลงศรีสมาน	13.9360663	100.5589235	exat	working	2022-05-09T00:00:00	11:00:00	12:00:00	56	17	1637	2700	0.61
15586	022Z 1_535B ทางลงศรีสมาน	13.9360663	100.5589235	exat	working	2022-05-09T00:00:00	12:00:00	13:00:00	41	21	1893	2700	0.70
15587	022Z 1_535B ทางลงศรีสมาน	13.9360663	100.5589235	exat	working	2022-05-09T00:00:00	13:00:00	14:00:00	38	22	1891	2700	0.70
15588	022Z 1_535B ทางลงศรีสมาน	13.9360663	100.5589235	exat	working	2022-05-09T00:00:00	14:00:00	15:00:00	40	20	1972	2700	0.73
15589	022Z 1_535B ทางลงศรีสมาน	13.9360663	100.5589235	exat	working	2022-05-09T00:00:00	15:00:00	16:00:00	40	18	1976	2700	0.73
15590	022Z 1_535B ทางลงศรีสมาน	13.9360663	100.5589235	exat	working	2022-05-09T00:00:00	16:00:00	17:00:00	91	13	728	2700	0.27
15591	022Z 1_535B ทางลงศรีสมาน	13.9360663	100.5589235	exat	working	2022-05-09T00:00:00	17:00:00	18:00:00	70	19	1621	2700	0.60
15592	022Z 1_535B ทางลงศรีสมาน	13.9360663	100.5589235	exat	working	2022-05-09T00:00:00	18:00:00	19:00:00	49	26	2534	2700	0.94
15593	022Z 1_535B ทางลงศรีสมาน	13.9360663	100.5589235	exat	working	2022-06-09T00:00:00	5:00:00	6:00:00	75	5	177	2700	0.07
15594	022Z 1_535B ทางลงศรีสมาน	13.9360663	100.5589235	exat	working	2022-06-09T00:00:00	6:00:00	7:00:00	53	14	524	2700	0.19
15595	022Z 1_535B ทางลงศรีสมาน	13.9360663	100.5589235	exat	working	2022-06-09T00:00:00	7:00:00	8:00:00	70	15	1272	2700	0.47
15596	022Z 1_535B ทางลงศรีสมาน	13.9360663	100.5589235	exat	working	2022-06-09T00:00:00	8:00:00	9:00:00	43	23	2015	2700	0.75
15597	022Z 1_535B ทางลงศรีสมาน	13.9360663	100.5589235	exat	working	2022-06-09T00:00:00	9:00:00	10:00:00	40	20	1986	2700	0.74
15598	022Z 1_535B ทางลงศรีสมาน	13.9360663	100.5589235	exat	working	2022-06-09T00:00:00	10:00:00	11:00:00	41	20	1917	2700	0.71
15599	022Z 1_535B ทางลงศรีสมาน	13.9360663	100.5589235	exat	working	2022-06-09T00:00:00	11:00:00	12:00:00	73	23	1531	2700	0.57
15600	022Z 1_535B ทางลงศรีสมาน	13.9360663	100.5589235	exat	working	2022-06-09T00:00:00	12:00:00	13:00:00	42	21	1950	2700	0.72
15601	022Z 1_535B ทางลงศรีสมาน	13.9360663	100.5589235	exat	working	2022-06-09T00:00:00	13:00:00	14:00:00	39	22	1890	2700	0.70
15602	022Z 1_535B ทางลงศรีสมาน	13.9360663	100.5589235	exat	working	2022-06-09T00:00:00	14:00:00	15:00:00	39	19	1973	2700	0.73
15603	022Z 1_535B ทางลงศรีสมาน	13.9360663	100.5589235	exat	working	2022-06-09T00:00:00	15:00:00	16:00:00	41	19	1943	2700	0.72
15604	022Z 1_535B ทางลงศรีสมาน	13.9360663	100.5589235	exat	working	2022-06-09T00:00:00	16:00:00	17:00:00	68	21	1435	2700	0.53
15605	022Z 1_535B ทางลงศรีสมาน	13.9360663	100.5589235	exat	working	2022-06-09T00:00:00	17:00:00	18:00:00	68	20	1734	2700	0.64
15606	022Z 1_535B ทางลงศรีสมาน	13.9360663	100.5589235	exat	working	2022-06-09T00:00:00	18:00:00	19:00:00	55	25	1992	2700	0.74
15607	022Z 1_535B ทางลงศรีสมาน	13.9360663	100.5589235	exat	working	2022-07-09T00:00:00	5:00:00	6:00:00	75	5	172	2700	0.06
15608	022Z 1_535B ทางลงศรีสมาน	13.9360663	100.5589235	exat	working	2022-07-09T00:00:00	6:00:00	7:00:00	53	14	545	2700	0.20
15609	022Z 1_535B ทางลงศรีสมาน	13.9360663	100.5589235	exat	working	2022-07-09T00:00:00	7:00:00	8:00:00	70	15	1278	2700	0.47
15610	022Z 1_535B ทางลงศรีสมาน	13.9360663	100.5589235	exat	working	2022-07-09T00:00:00	8:00:00	9:00:00	43	23	2012	2700	0.75
15611	022Z 1_535B ทางลงศรีสมาน	13.9360663	100.5589235	exat	working	2022-07-09T00:00:00	9:00:00	10:00:00	41	18	2006	2700	0.74
15612	022Z 1_535B ทางลงศรีสมาน	13.9360663	100.5589235	exat	working	2022-07-09T00:00:00	10:00:00	11:00:00	41	19	1913	2700	0.71
15613	022Z 1_535B ทางลงศรีสมาน	13.9360663	100.5589235	exat	working	2022-07-09T00:00:00	11:00:00	12:00:00	91	28	1458	2700	0.54
15614	022Z 1_535B ทางลงศรีสมาน	13.9360663	100.5589235	exat	working	2022-07-09T00:00:00	12:00:00	13:00:00	43	22	1995	2700	0.74
15615	022Z 1_535B ทางลงศรีสมาน	13.9360663	100.5589235	exat	working	2022-07-09T00:00:00	13:00:00	14:00:00	39	22	1851	2700	0.69
15616	022Z 1_535B ทางลงศรีสมาน	13.9360663	100.5589235	exat	working	2022-07-09T00:00:00	14:00:00	15:00:00	38	18	2000	2700	0.74
15617	022Z 1_535B ทางลงศรีสมาน	13.9360663	100.5589235	exat	working	2022-07-09T00:00:00	15:00:00	16:00:00	42	20	1933	2700	0.72
15618	022Z 1_535B ทางลงศรีสมาน	13.9360663	100.5589235	exat	working	2022-07-09T00:00:00	16:00:00	17:00:00	45	30	2199	2700	0.81
15619	022Z 1_535B ทางลงศรีสมาน	13.9360663	100.5589235	exat	working	2022-07-09T00:00:00	17:00:00	18:00:00	67	21	1789	2700	0.66
15620	022Z 1_535B ทางลงศรีสมาน	13.9360663	100.5589235	exat	working	2022-07-09T00:00:00	18:00:00	19:00:00	61	23	1449	2700	0.54
15621	022Z 1_535B ทางลงศรีสมาน	13.9360663	100.5589235	exat	working	2022-08-09T00:00:00	5:00:00	6:00:00	83	5	284	2700	0.11
15622	022Z 1_535B ทางลงศรีสมาน	13.9360663	100.5589235	exat	working	2022-08-09T00:00:00	6:00:00	7:00:00	58	15	821	2700	0.30
15623	022Z 1_535B ทางลงศรีสมาน	13.9360663	100.5589235	exat	working	2022-08-09T00:00:00	7:00:00	8:00:00	75	20	1529	2700	0.57
15624	022Z 1_535B ทางลงศรีสมาน	13.9360663	100.5589235	exat	working	2022-08-09T00:00:00	8:00:00	9:00:00	48	19	1460	2700	0.54
15625	022Z 1_535B ทางลงศรีสมาน	13.9360663	100.5589235	exat	working	2022-08-09T00:00:00	9:00:00	10:00:00	47	14	1448	2700	0.54
15626	022Z 1_535B ทางลงศรีสมาน	13.9360663	100.5589235	exat	working	2022-08-09T00:00:00	10:00:00	11:00:00	45	15	1362	2700	0.50
15627	022Z 1_535B ทางลงศรีสมาน	13.9360663	100.5589235	exat	working	2022-08-09T00:00:00	11:00:00	12:00:00	91	34	926	2700	0.34
15628	022Z 1_535B ทางลงศรีสมาน	13.9360663	100.5589235	exat	working	2022-08-09T00:00:00	12:00:00	13:00:00	46	18	1426	2700	0.53
15629	022Z 1_535B ทางลงศรีสมาน	13.9360663	100.5589235	exat	working	2022-08-09T00:00:00	13:00:00	14:00:00	45	17	1315	2700	0.49
15630	022Z 1_535B ทางลงศรีสมาน	13.9360663	100.5589235	exat	working	2022-08-09T00:00:00	14:00:00	15:00:00	46	16	1419	2700	0.53
15631	022Z 1_535B ทางลงศรีสมาน	13.9360663	100.5589235	exat	working	2022-08-09T00:00:00	15:00:00	16:00:00	46	16	1369	2700	0.51
15632	022Z 1_535B ทางลงศรีสมาน	13.9360663	100.5589235	exat	working	2022-08-09T00:00:00	16:00:00	17:00:00	45	30	2183	2700	0.81
15633	022Z 1_535B ทางลงศรีสมาน	13.9360663	100.5589235	exat	working	2022-08-09T00:00:00	17:00:00	18:00:00	56	30	1365	2700	0.51
15634	022Z 1_535B ทางลงศรีสมาน	13.9360663	100.5589235	exat	working	2022-08-09T00:00:00	18:00:00	19:00:00	61	43	913	2700	0.34
15635	022Z 1_535B ทางลงศรีสมาน	13.9360663	100.5589235	exat	working	2022-09-09T00:00:00	5:00:00	6:00:00	90	6	359	2700	0.13
15636	022Z 1_535B ทางลงศรีสมาน	13.9360663	100.5589235	exat	working	2022-09-09T00:00:00	6:00:00	7:00:00	63	16	1081	2700	0.40
15637	022Z 1_535B ทางลงศรีสมาน	13.9360663	100.5589235	exat	working	2022-09-09T00:00:00	7:00:00	8:00:00	81	24	1810	2700	0.67
15638	022Z 1_535B ทางลงศรีสมาน	13.9360663	100.5589235	exat	working	2022-09-09T00:00:00	8:00:00	9:00:00	54	14	907	2700	0.34
15639	022Z 1_535B ทางลงศรีสมาน	13.9360663	100.5589235	exat	working	2022-09-09T00:00:00	9:00:00	10:00:00	53	11	895	2700	0.33
15640	022Z 1_535B ทางลงศรีสมาน	13.9360663	100.5589235	exat	working	2022-09-09T00:00:00	10:00:00	11:00:00	48	11	841	2700	0.31
15641	022Z 1_535B ทางลงศรีสมาน	13.9360663	100.5589235	exat	working	2022-09-09T00:00:00	11:00:00	12:00:00	91	41	367	2700	0.14
15642	022Z 1_535B ทางลงศรีสมาน	13.9360663	100.5589235	exat	working	2022-09-09T00:00:00	12:00:00	13:00:00	49	13	909	2700	0.34
15643	022Z 1_535B ทางลงศรีสมาน	13.9360663	100.5589235	exat	working	2022-09-09T00:00:00	13:00:00	14:00:00	52	12	760	2700	0.28
15644	022Z 1_535B ทางลงศรีสมาน	13.9360663	100.5589235	exat	working	2022-09-09T00:00:00	14:00:00	15:00:00	54	13	859	2700	0.32
15645	022Z 1_535B ทางลงศรีสมาน	13.9360663	100.5589235	exat	working	2022-09-09T00:00:00	15:00:00	16:00:00	50	12	832	2700	0.31
15646	022Z 1_535B ทางลงศรีสมาน	13.9360663	100.5589235	exat	working	2022-09-09T00:00:00	16:00:00	17:00:00	45	30	2174	2700	0.81
15647	022Z 1_535B ทางลงศรีสมาน	13.9360663	100.5589235	exat	working	2022-09-09T00:00:00	17:00:00	18:00:00	45	38	904	2700	0.33
15648	022Z 1_535B ทางลงศรีสมาน	13.9360663	100.5589235	exat	working	2022-09-09T00:00:00	18:00:00	19:00:00	61	62	362	2700	0.13
15649	022Z 1_535B ทางลงศรีสมาน	13.9360663	100.5589235	exat	working	2022-10-09T00:00:00	5:00:00	6:00:00	82	4	237	2700	0.09
15650	022Z 1_535B ทางลงศรีสมาน	13.9360663	100.5589235	exat	holiday	2022-10-09T00:00:00	6:00:00	7:00:00	58	12	724	2700	0.27
15651	022Z 1_535B ทางลงศรีสมาน	13.9360663	100.5589235	exat	holiday	2022-10-09T00:00:00	7:00:00	8:00:00	91	15	1440	2700	0.53
15652	022Z 1_535B ทางลงศรีสมาน	13.9360663	100.5589235	exat	holiday	2022-10-09T00:00:00	8:00:00	9:00:00	72	18	1993	2700	0.74
15653	022Z 1_535B ทางลงศรีสมาน	13.9360663	100.5589235	exat	working	2022-10-09T00:00:00	9:00:00	10:00:00	68	14	1882	2700	0.70
15654	022Z 1_535B ทางลงศรีสมาน	13.9360663	100.5589235	exat	working	2022-10-09T00:00:00	10:00:00	11:00:00	68	15	1940	2700	0.72
15655	022Z 1_535B ทางลงศรีสมาน	13.9360663	100.5589235	exat	holiday	2022-10-09T00:00:00	11:00:00	12:00:00	90	24	2715	2700	1.01
15656	022Z 1_535B ทางลงศรีสมาน	13.9360663	100.5589235	exat	working	2022-10-09T00:00:00	12:00:00	13:00:00	69	16	1955	2700	0.72
15657	022Z 1_535B ทางลงศรีสมาน	13.9360663	100.5589235	exat	working	2022-10-09T00:00:00	13:00:00	14:00:00	69	16	1936	2700	0.72
15658	022Z 1_535B ทางลงศรีสมาน	13.9360663	100.5589235	exat	working	2022-10-09T00:00:00	14:00:00	15:00:00	68	15	1975	2700	0.73
15659	022Z 1_535B ทางลงศรีสมาน	13.9360663	100.5589235	exat	working	2022-10-09T00:00:00	15:00:00	16:00:00	70	14	1912	2700	0.71
15660	022Z 1_535B ทางลงศรีสมาน	13.9360663	100.5589235	exat	holiday	2022-10-09T00:00:00	16:00:00	17:00:00	46	27	905	2700	0.34
15661	022Z 1_535B ทางลงศรีสมาน	13.9360663	100.5589235	exat	holiday	2022-10-09T00:00:00	17:00:00	18:00:00	36	19	546	2700	0.20
15662	022Z 1_535B ทางลงศรีสมาน	13.9360663	100.5589235	exat	holiday	2022-10-09T00:00:00	18:00:00	19:00:00	43	38	913	2700	0.34
15663	022Z 1_535B ทางลงศรีสมาน	13.9360663	100.5589235	exat	working	2022-11-09T00:00:00	5:00:00	6:00:00	50	2	140	2700	0.05
15664	022Z 1_535B ทางลงศรีสมาน	13.9360663	100.5589235	exat	holiday	2022-11-09T00:00:00	6:00:00	7:00:00	35	7	445	2700	0.16
15665	022Z 1_535B ทางลงศรีสมาน	13.9360663	100.5589235	exat	holiday	2022-11-09T00:00:00	7:00:00	8:00:00	55	9	882	2700	0.33
15666	022Z 1_535B ทางลงศรีสมาน	13.9360663	100.5589235	exat	holiday	2022-11-09T00:00:00	8:00:00	9:00:00	44	11	1195	2700	0.44
15667	022Z 1_535B ทางลงศรีสมาน	13.9360663	100.5589235	exat	working	2022-11-09T00:00:00	9:00:00	10:00:00	41	9	1120	2700	0.41
15668	022Z 1_535B ทางลงศรีสมาน	13.9360663	100.5589235	exat	working	2022-11-09T00:00:00	10:00:00	11:00:00	41	9	1154	2700	0.43
15669	022Z 1_535B ทางลงศรีสมาน	13.9360663	100.5589235	exat	holiday	2022-11-09T00:00:00	11:00:00	12:00:00	54	15	1637	2700	0.61
15670	022Z 1_535B ทางลงศรีสมาน	13.9360663	100.5589235	exat	working	2022-11-09T00:00:00	12:00:00	13:00:00	42	10	1190	2700	0.44
15671	022Z 1_535B ทางลงศรีสมาน	13.9360663	100.5589235	exat	working	2022-11-09T00:00:00	13:00:00	14:00:00	41	10	1152	2700	0.43
15672	022Z 1_535B ทางลงศรีสมาน	13.9360663	100.5589235	exat	working	2022-11-09T00:00:00	14:00:00	15:00:00	41	9	1178	2700	0.44
15673	022Z 1_535B ทางลงศรีสมาน	13.9360663	100.5589235	exat	working	2022-11-09T00:00:00	15:00:00	16:00:00	42	9	1146	2700	0.42
15674	022Z 1_535B ทางลงศรีสมาน	13.9360663	100.5589235	exat	holiday	2022-11-09T00:00:00	16:00:00	17:00:00	28	16	538	2700	0.20
15675	022Z 1_535B ทางลงศรีสมาน	13.9360663	100.5589235	exat	holiday	2022-11-09T00:00:00	17:00:00	18:00:00	22	12	329	2700	0.12
15676	022Z 1_535B ทางลงศรีสมาน	13.9360663	100.5589235	exat	holiday	2022-11-09T00:00:00	18:00:00	19:00:00	26	23	560	2700	0.21
15677	047Z 4_555A ทล 345	13.9711962	100.570074	exat	working	2022-05-09T00:00:00	5:00:00	6:00:00	123	17	621	1800	0.35
15678	047Z 4_555A ทล 345	13.9711962	100.570074	exat	working	2022-05-09T00:00:00	6:00:00	7:00:00	86	49	1998	1800	1.11
15679	047Z 4_555A ทล 345	13.9711962	100.570074	exat	working	2022-05-09T00:00:00	7:00:00	8:00:00	79	49	2571	1800	1.43
15680	047Z 4_555A ทล 345	13.9711962	100.570074	exat	working	2022-05-09T00:00:00	8:00:00	9:00:00	53	33	2370	1800	1.32
15681	047Z 4_555A ทล 345	13.9711962	100.570074	exat	working	2022-05-09T00:00:00	9:00:00	10:00:00	51	32	2221	1800	1.23
15682	047Z 4_555A ทล 345	13.9711962	100.570074	exat	working	2022-05-09T00:00:00	10:00:00	11:00:00	49	29	2304	1800	1.28
15683	047Z 4_555A ทล 345	13.9711962	100.570074	exat	working	2022-05-09T00:00:00	11:00:00	12:00:00	21	121	1093	1800	0.61
15684	047Z 4_555A ทล 345	13.9711962	100.570074	exat	working	2022-05-09T00:00:00	12:00:00	13:00:00	50	32	2324	1800	1.29
15685	047Z 4_555A ทล 345	13.9711962	100.570074	exat	working	2022-05-09T00:00:00	13:00:00	14:00:00	52	31	2211	1800	1.23
15686	047Z 4_555A ทล 345	13.9711962	100.570074	exat	working	2022-05-09T00:00:00	14:00:00	15:00:00	52	29	2292	1800	1.27
15687	047Z 4_555A ทล 345	13.9711962	100.570074	exat	working	2022-05-09T00:00:00	15:00:00	16:00:00	49	29	2197	1800	1.22
15688	047Z 4_555A ทล 345	13.9711962	100.570074	exat	working	2022-05-09T00:00:00	16:00:00	17:00:00	19	121	2344	1800	1.30
15689	047Z 4_555A ทล 345	13.9711962	100.570074	exat	working	2022-05-09T00:00:00	17:00:00	18:00:00	18	121	4187	1800	2.33
15690	047Z 4_555A ทล 345	13.9711962	100.570074	exat	working	2022-05-09T00:00:00	18:00:00	19:00:00	20	121	2360	1800	1.31
15691	047Z 4_555A ทล 345	13.9711962	100.570074	exat	working	2022-06-09T00:00:00	5:00:00	6:00:00	100	15	685	1800	0.38
15692	047Z 4_555A ทล 345	13.9711962	100.570074	exat	working	2022-06-09T00:00:00	6:00:00	7:00:00	71	46	1978	1800	1.10
15693	047Z 4_555A ทล 345	13.9711962	100.570074	exat	working	2022-06-09T00:00:00	7:00:00	8:00:00	62	38	2087	1800	1.16
15694	047Z 4_555A ทล 345	13.9711962	100.570074	exat	working	2022-06-09T00:00:00	8:00:00	9:00:00	47	35	2270	1800	1.26
15695	047Z 4_555A ทล 345	13.9711962	100.570074	exat	working	2022-06-09T00:00:00	9:00:00	10:00:00	45	34	2203	1800	1.22
15696	047Z 4_555A ทล 345	13.9711962	100.570074	exat	working	2022-06-09T00:00:00	10:00:00	11:00:00	43	31	2211	1800	1.23
15697	047Z 4_555A ทล 345	13.9711962	100.570074	exat	working	2022-06-09T00:00:00	11:00:00	12:00:00	42	48	1814	1800	1.01
15698	047Z 4_555A ทล 345	13.9711962	100.570074	exat	working	2022-06-09T00:00:00	12:00:00	13:00:00	45	32	2239	1800	1.24
15699	047Z 4_555A ทล 345	13.9711962	100.570074	exat	working	2022-06-09T00:00:00	13:00:00	14:00:00	46	33	2190	1800	1.22
15700	047Z 4_555A ทล 345	13.9711962	100.570074	exat	working	2022-06-09T00:00:00	14:00:00	15:00:00	46	31	2219	1800	1.23
15701	047Z 4_555A ทล 345	13.9711962	100.570074	exat	working	2022-06-09T00:00:00	15:00:00	16:00:00	44	31	2148	1800	1.19
15702	047Z 4_555A ทล 345	13.9711962	100.570074	exat	working	2022-06-09T00:00:00	16:00:00	17:00:00	31	52	2633	1800	1.46
15703	047Z 4_555A ทล 345	13.9711962	100.570074	exat	working	2022-06-09T00:00:00	17:00:00	18:00:00	54	83	3373	1800	1.87
15704	047Z 4_555A ทล 345	13.9711962	100.570074	exat	working	2022-06-09T00:00:00	18:00:00	19:00:00	46	46	2528	1800	1.40
15705	047Z 4_555A ทล 345	13.9711962	100.570074	exat	working	2022-07-09T00:00:00	5:00:00	6:00:00	80	15	683	1800	0.38
15706	047Z 4_555A ทล 345	13.9711962	100.570074	exat	working	2022-07-09T00:00:00	6:00:00	7:00:00	56	44	1995	1800	1.11
15707	047Z 4_555A ทล 345	13.9711962	100.570074	exat	working	2022-07-09T00:00:00	7:00:00	8:00:00	44	27	1655	1800	0.92
15708	047Z 4_555A ทล 345	13.9711962	100.570074	exat	working	2022-07-09T00:00:00	8:00:00	9:00:00	42	37	2187	1800	1.22
15709	047Z 4_555A ทล 345	13.9711962	100.570074	exat	working	2022-07-09T00:00:00	9:00:00	10:00:00	40	36	2174	1800	1.21
15710	047Z 4_555A ทล 345	13.9711962	100.570074	exat	working	2022-07-09T00:00:00	10:00:00	11:00:00	37	33	2093	1800	1.16
15711	047Z 4_555A ทล 345	13.9711962	100.570074	exat	working	2022-07-09T00:00:00	11:00:00	12:00:00	64	56	2553	1800	1.42
15712	047Z 4_555A ทล 345	13.9711962	100.570074	exat	working	2022-07-09T00:00:00	12:00:00	13:00:00	41	32	2151	1800	1.20
15713	047Z 4_555A ทล 345	13.9711962	100.570074	exat	working	2022-07-09T00:00:00	13:00:00	14:00:00	40	36	2165	1800	1.20
15714	047Z 4_555A ทล 345	13.9711962	100.570074	exat	working	2022-07-09T00:00:00	14:00:00	15:00:00	39	34	2178	1800	1.21
15715	047Z 4_555A ทล 345	13.9711962	100.570074	exat	working	2022-07-09T00:00:00	15:00:00	16:00:00	39	33	2075	1800	1.15
15716	047Z 4_555A ทล 345	13.9711962	100.570074	exat	working	2022-07-09T00:00:00	16:00:00	17:00:00	43	55	2917	1800	1.62
15717	047Z 4_555A ทล 345	13.9711962	100.570074	exat	working	2022-07-09T00:00:00	17:00:00	18:00:00	91	84	2554	1800	1.42
15718	047Z 4_555A ทล 345	13.9711962	100.570074	exat	working	2022-07-09T00:00:00	18:00:00	19:00:00	72	42	2717	1800	1.51
15719	047Z 4_555A ทล 345	13.9711962	100.570074	exat	working	2022-08-09T00:00:00	5:00:00	6:00:00	55	15	571	1800	0.32
15720	047Z 4_555A ทล 345	13.9711962	100.570074	exat	working	2022-08-09T00:00:00	6:00:00	7:00:00	39	45	1632	1800	0.91
15721	047Z 4_555A ทล 345	13.9711962	100.570074	exat	working	2022-08-09T00:00:00	7:00:00	8:00:00	29	74	3364	1800	1.87
15722	047Z 4_555A ทล 345	13.9711962	100.570074	exat	working	2022-08-09T00:00:00	8:00:00	9:00:00	42	40	2007	1800	1.12
15723	047Z 4_555A ทล 345	13.9711962	100.570074	exat	working	2022-08-09T00:00:00	9:00:00	10:00:00	40	39	1987	1800	1.10
15724	047Z 4_555A ทล 345	13.9711962	100.570074	exat	working	2022-08-09T00:00:00	10:00:00	11:00:00	38	36	1941	1800	1.08
15725	047Z 4_555A ทล 345	13.9711962	100.570074	exat	working	2022-08-09T00:00:00	11:00:00	12:00:00	32	49	2010	1800	1.12
15726	047Z 4_555A ทล 345	13.9711962	100.570074	exat	working	2022-08-09T00:00:00	12:00:00	13:00:00	40	35	1899	1800	1.06
15727	047Z 4_555A ทล 345	13.9711962	100.570074	exat	working	2022-08-09T00:00:00	13:00:00	14:00:00	38	37	1944	1800	1.08
15728	047Z 4_555A ทล 345	13.9711962	100.570074	exat	working	2022-08-09T00:00:00	14:00:00	15:00:00	38	37	1980	1800	1.10
15729	047Z 4_555A ทล 345	13.9711962	100.570074	exat	working	2022-08-09T00:00:00	15:00:00	16:00:00	38	37	1936	1800	1.08
15730	047Z 4_555A ทล 345	13.9711962	100.570074	exat	working	2022-08-09T00:00:00	16:00:00	17:00:00	22	38	2002	1800	1.11
15731	047Z 4_555A ทล 345	13.9711962	100.570074	exat	working	2022-08-09T00:00:00	17:00:00	18:00:00	46	52	1991	1800	1.11
15732	047Z 4_555A ทล 345	13.9711962	100.570074	exat	working	2022-08-09T00:00:00	18:00:00	19:00:00	72	42	2715	1800	1.51
15733	047Z 4_555A ทล 345	13.9711962	100.570074	exat	working	2022-09-09T00:00:00	5:00:00	6:00:00	29	40	442	1800	0.25
15734	047Z 4_555A ทล 345	13.9711962	100.570074	exat	working	2022-09-09T00:00:00	6:00:00	7:00:00	21	122	1274	1800	0.71
15735	047Z 4_555A ทล 345	13.9711962	100.570074	exat	working	2022-09-09T00:00:00	7:00:00	8:00:00	14	121	5077	1800	2.82
15736	047Z 4_555A ทล 345	13.9711962	100.570074	exat	working	2022-09-09T00:00:00	8:00:00	9:00:00	41	42	1809	1800	1.01
15737	047Z 4_555A ทล 345	13.9711962	100.570074	exat	working	2022-09-09T00:00:00	9:00:00	10:00:00	39	41	1776	1800	0.99
15738	047Z 4_555A ทล 345	13.9711962	100.570074	exat	working	2022-09-09T00:00:00	10:00:00	11:00:00	39	38	1796	1800	1.00
15739	047Z 4_555A ทล 345	13.9711962	100.570074	exat	working	2022-09-09T00:00:00	11:00:00	12:00:00	21	121	1464	1800	0.81
15740	047Z 4_555A ทล 345	13.9711962	100.570074	exat	working	2022-09-09T00:00:00	12:00:00	13:00:00	39	39	1681	1800	0.93
15741	047Z 4_555A ทล 345	13.9711962	100.570074	exat	working	2022-09-09T00:00:00	13:00:00	14:00:00	36	38	1692	1800	0.94
15742	047Z 4_555A ทล 345	13.9711962	100.570074	exat	working	2022-09-09T00:00:00	14:00:00	15:00:00	37	41	1770	1800	0.98
15743	047Z 4_555A ทล 345	13.9711962	100.570074	exat	working	2022-09-09T00:00:00	15:00:00	16:00:00	36	42	1763	1800	0.98
15744	047Z 4_555A ทล 345	13.9711962	100.570074	exat	working	2022-09-09T00:00:00	16:00:00	17:00:00	21	122	1088	1800	0.60
15745	047Z 4_555A ทล 345	13.9711962	100.570074	exat	working	2022-09-09T00:00:00	17:00:00	18:00:00	21	122	1456	1800	0.81
15746	047Z 4_555A ทล 345	13.9711962	100.570074	exat	working	2022-09-09T00:00:00	18:00:00	19:00:00	72	42	2720	1800	1.51
15747	047Z 4_555A ทล 345	13.9711962	100.570074	exat	working	2022-10-09T00:00:00	5:00:00	6:00:00	29	43	180	1800	0.10
15748	047Z 4_555A ทล 345	13.9711962	100.570074	exat	holiday	2022-10-09T00:00:00	6:00:00	7:00:00	21	121	544	1800	0.30
15749	047Z 4_555A ทล 345	13.9711962	100.570074	exat	holiday	2022-10-09T00:00:00	7:00:00	8:00:00	21	121	1451	1800	0.81
15750	047Z 4_555A ทล 345	13.9711962	100.570074	exat	holiday	2022-10-09T00:00:00	8:00:00	9:00:00	21	121	729	1800	0.41
15751	047Z 4_555A ทล 345	13.9711962	100.570074	exat	working	2022-10-09T00:00:00	9:00:00	10:00:00	21	121	600	1800	0.33
15752	047Z 4_555A ทล 345	13.9711962	100.570074	exat	working	2022-10-09T00:00:00	10:00:00	11:00:00	21	121	614	1800	0.34
15753	047Z 4_555A ทล 345	13.9711962	100.570074	exat	holiday	2022-10-09T00:00:00	11:00:00	12:00:00	21	122	1652	1800	0.92
15754	047Z 4_555A ทล 345	13.9711962	100.570074	exat	working	2022-10-09T00:00:00	12:00:00	13:00:00	21	121	648	1800	0.36
15755	047Z 4_555A ทล 345	13.9711962	100.570074	exat	working	2022-10-09T00:00:00	13:00:00	14:00:00	21	121	604	1800	0.34
15756	047Z 4_555A ทล 345	13.9711962	100.570074	exat	working	2022-10-09T00:00:00	14:00:00	15:00:00	21	121	592	1800	0.33
15757	047Z 4_555A ทล 345	13.9711962	100.570074	exat	working	2022-10-09T00:00:00	15:00:00	16:00:00	21	121	582	1800	0.32
15758	047Z 4_555A ทล 345	13.9711962	100.570074	exat	holiday	2022-10-09T00:00:00	16:00:00	17:00:00	59	33	1833	1800	1.02
15759	047Z 4_555A ทล 345	13.9711962	100.570074	exat	holiday	2022-10-09T00:00:00	17:00:00	18:00:00	70	32	1621	1800	0.90
15760	047Z 4_555A ทล 345	13.9711962	100.570074	exat	holiday	2022-10-09T00:00:00	18:00:00	19:00:00	68	33	2014	1800	1.12
15761	047Z 4_555A ทล 345	13.9711962	100.570074	exat	working	2022-11-09T00:00:00	5:00:00	6:00:00	29	41	110	1800	0.06
15762	047Z 4_555A ทล 345	13.9711962	100.570074	exat	holiday	2022-11-09T00:00:00	6:00:00	7:00:00	21	121	322	1800	0.18
15763	047Z 4_555A ทล 345	13.9711962	100.570074	exat	holiday	2022-11-09T00:00:00	7:00:00	8:00:00	21	121	875	1800	0.49
15764	047Z 4_555A ทล 345	13.9711962	100.570074	exat	holiday	2022-11-09T00:00:00	8:00:00	9:00:00	21	121	429	1800	0.24
15765	047Z 4_555A ทล 345	13.9711962	100.570074	exat	working	2022-11-09T00:00:00	9:00:00	10:00:00	21	121	370	1800	0.21
15766	047Z 4_555A ทล 345	13.9711962	100.570074	exat	working	2022-11-09T00:00:00	10:00:00	11:00:00	21	121	369	1800	0.21
15767	047Z 4_555A ทล 345	13.9711962	100.570074	exat	holiday	2022-11-09T00:00:00	11:00:00	12:00:00	21	121	971	1800	0.54
15768	047Z 4_555A ทล 345	13.9711962	100.570074	exat	working	2022-11-09T00:00:00	12:00:00	13:00:00	21	121	408	1800	0.23
15769	047Z 4_555A ทล 345	13.9711962	100.570074	exat	working	2022-11-09T00:00:00	13:00:00	14:00:00	21	121	363	1800	0.20
15770	047Z 4_555A ทล 345	13.9711962	100.570074	exat	working	2022-11-09T00:00:00	14:00:00	15:00:00	21	121	344	1800	0.19
15771	047Z 4_555A ทล 345	13.9711962	100.570074	exat	working	2022-11-09T00:00:00	15:00:00	16:00:00	21	121	361	1800	0.20
15772	047Z 4_555A ทล 345	13.9711962	100.570074	exat	holiday	2022-11-09T00:00:00	16:00:00	17:00:00	35	20	1088	1800	0.60
15773	047Z 4_555A ทล 345	13.9711962	100.570074	exat	holiday	2022-11-09T00:00:00	17:00:00	18:00:00	42	19	973	1800	0.54
15774	047Z 4_555A ทล 345	13.9711962	100.570074	exat	holiday	2022-11-09T00:00:00	18:00:00	19:00:00	41	20	1202	1800	0.67
